<?xml version="1.0" encoding="utf-8"?>
<gpx xmlns:xsi="http://www.w3.org/2001/XMLSchema-instance" xmlns:xsd="http://www.w3.org/2001/XMLSchema" version="1.1" creator="Shapelink.com" xmlns="http://www.topografix.com/GPX/1/1" xmlns:gpxtpx="http://www.garmin.com/xmlschemas/TrackPointExtension/v1">
  <metadata>
    <name>Sykling 43.34 km, 2013-04-07</name>
    <desc></desc>
    <author><name>Mikael Blom</name></author> 
    <time>2013-04-07T12:09:10Z</time>
  </metadata>
  <trk>
    <name>Sykling 43.34 km, 2013-04-07</name>
    <trkseg>
      <trkpt lat="59.9787092" lon="17.7392687">
        <ele>39.0707</ele>
        <time>2013-04-07T12:09:10Z</time>
      </trkpt>
      <trkpt lat="59.9786779" lon="17.7392591">
        <ele>39.0707</ele>
        <time>2013-04-07T12:09:11Z</time>
      </trkpt>
      <trkpt lat="59.9786433" lon="17.7392538">
        <ele>38.5901</ele>
        <time>2013-04-07T12:09:12Z</time>
      </trkpt>
      <trkpt lat="59.9786093" lon="17.7392498">
        <ele>38.5901</ele>
        <time>2013-04-07T12:09:13Z</time>
      </trkpt>
      <trkpt lat="59.9785755" lon="17.739244">
        <ele>39.0707</ele>
        <time>2013-04-07T12:09:14Z</time>
      </trkpt>
      <trkpt lat="59.9785392" lon="17.7392383">
        <ele>38.5901</ele>
        <time>2013-04-07T12:09:15Z</time>
      </trkpt>
      <trkpt lat="59.9784998" lon="17.7392325">
        <ele>38.5901</ele>
        <time>2013-04-07T12:09:16Z</time>
      </trkpt>
      <trkpt lat="59.9784577" lon="17.7392233">
        <ele>38.5901</ele>
        <time>2013-04-07T12:09:17Z</time>
      </trkpt>
      <trkpt lat="59.9784133" lon="17.7392133">
        <ele>38.5901</ele>
        <time>2013-04-07T12:09:18Z</time>
      </trkpt>
      <trkpt lat="59.9783676" lon="17.739201">
        <ele>38.5901</ele>
        <time>2013-04-07T12:09:19Z</time>
      </trkpt>
      <trkpt lat="59.9783194" lon="17.7391866">
        <ele>38.5901</ele>
        <time>2013-04-07T12:09:20Z</time>
      </trkpt>
      <trkpt lat="59.9782688" lon="17.7391716">
        <ele>38.5901</ele>
        <time>2013-04-07T12:09:21Z</time>
      </trkpt>
      <trkpt lat="59.9782155" lon="17.7391581">
        <ele>38.5901</ele>
        <time>2013-04-07T12:09:22Z</time>
      </trkpt>
      <trkpt lat="59.9781602" lon="17.739143">
        <ele>38.1094</ele>
        <time>2013-04-07T12:09:23Z</time>
      </trkpt>
      <trkpt lat="59.9781021" lon="17.7391181">
        <ele>38.1094</ele>
        <time>2013-04-07T12:09:24Z</time>
      </trkpt>
      <trkpt lat="59.9780421" lon="17.7390837">
        <ele>38.1094</ele>
        <time>2013-04-07T12:09:25Z</time>
      </trkpt>
      <trkpt lat="59.9779797" lon="17.7390445">
        <ele>37.6287</ele>
        <time>2013-04-07T12:09:26Z</time>
      </trkpt>
      <trkpt lat="59.9779151" lon="17.7390097">
        <ele>37.1481</ele>
        <time>2013-04-07T12:09:27Z</time>
      </trkpt>
      <trkpt lat="59.9778457" lon="17.7389881">
        <ele>36.6675</ele>
        <time>2013-04-07T12:09:28Z</time>
      </trkpt>
      <trkpt lat="59.9777715" lon="17.7389762">
        <ele>36.1868</ele>
        <time>2013-04-07T12:09:29Z</time>
      </trkpt>
      <trkpt lat="59.9776934" lon="17.7389684">
        <ele>35.7061</ele>
        <time>2013-04-07T12:09:30Z</time>
      </trkpt>
      <trkpt lat="59.9776115" lon="17.7389688">
        <ele>35.2255</ele>
        <time>2013-04-07T12:09:31Z</time>
      </trkpt>
      <trkpt lat="59.9775274" lon="17.7389811">
        <ele>35.2255</ele>
        <time>2013-04-07T12:09:32Z</time>
      </trkpt>
      <trkpt lat="59.9774406" lon="17.7390047">
        <ele>34.2642</ele>
        <time>2013-04-07T12:09:33Z</time>
      </trkpt>
      <trkpt lat="59.9773504" lon="17.7390393">
        <ele>33.7834</ele>
        <time>2013-04-07T12:09:34Z</time>
      </trkpt>
      <trkpt lat="59.9772588" lon="17.7390865">
        <ele>33.3029</ele>
        <time>2013-04-07T12:09:35Z</time>
      </trkpt>
      <trkpt lat="59.9771648" lon="17.7391419">
        <ele>32.3416</ele>
        <time>2013-04-07T12:09:36Z</time>
      </trkpt>
      <trkpt lat="59.9770691" lon="17.7391975">
        <ele>31.8607</ele>
        <time>2013-04-07T12:09:37Z</time>
      </trkpt>
      <trkpt lat="59.9769729" lon="17.7392486">
        <ele>31.3801</ele>
        <time>2013-04-07T12:09:38Z</time>
      </trkpt>
      <trkpt lat="59.9768769" lon="17.7392923">
        <ele>30.8995</ele>
        <time>2013-04-07T12:09:39Z</time>
      </trkpt>
      <trkpt lat="59.9767804" lon="17.7393324">
        <ele>30.4188</ele>
        <time>2013-04-07T12:09:40Z</time>
      </trkpt>
      <trkpt lat="59.9766848" lon="17.7393823">
        <ele>29.9381</ele>
        <time>2013-04-07T12:09:41Z</time>
      </trkpt>
      <trkpt lat="59.9765926" lon="17.7394538">
        <ele>29.4575</ele>
        <time>2013-04-07T12:09:42Z</time>
      </trkpt>
      <trkpt lat="59.976508" lon="17.7395475">
        <ele>28.9769</ele>
        <time>2013-04-07T12:09:43Z</time>
      </trkpt>
      <trkpt lat="59.976434" lon="17.7396443">
        <ele>28.4962</ele>
        <time>2013-04-07T12:09:44Z</time>
      </trkpt>
      <trkpt lat="59.9763657" lon="17.7397143">
        <ele>28.4962</ele>
        <time>2013-04-07T12:09:45Z</time>
      </trkpt>
      <trkpt lat="59.9762958" lon="17.7397397">
        <ele>28.0155</ele>
        <time>2013-04-07T12:09:46Z</time>
      </trkpt>
      <trkpt lat="59.9762257" lon="17.7397168">
        <ele>27.5349</ele>
        <time>2013-04-07T12:09:47Z</time>
      </trkpt>
      <trkpt lat="59.9761585" lon="17.7396522">
        <ele>27.0543</ele>
        <time>2013-04-07T12:09:48Z</time>
      </trkpt>
      <trkpt lat="59.9760927" lon="17.7395579">
        <ele>26.0929</ele>
        <time>2013-04-07T12:09:49Z</time>
      </trkpt>
      <trkpt lat="59.976029" lon="17.7394403">
        <ele>25.6123</ele>
        <time>2013-04-07T12:09:50Z</time>
      </trkpt>
      <trkpt lat="59.9759643" lon="17.7393101">
        <ele>25.1317</ele>
        <time>2013-04-07T12:09:51Z</time>
      </trkpt>
      <trkpt lat="59.9758958" lon="17.7391777">
        <ele>25.1317</ele>
        <time>2013-04-07T12:09:52Z</time>
      </trkpt>
      <trkpt lat="59.9758234" lon="17.7390452">
        <ele>24.651</ele>
        <time>2013-04-07T12:09:53Z</time>
      </trkpt>
      <trkpt lat="59.9757493" lon="17.7389109">
        <ele>24.1703</ele>
        <time>2013-04-07T12:09:54Z</time>
      </trkpt>
      <trkpt lat="59.9756743" lon="17.7387737">
        <ele>23.6896</ele>
        <time>2013-04-07T12:09:55Z</time>
      </trkpt>
      <trkpt lat="59.9755981" lon="17.7386356">
        <ele>23.6896</ele>
        <time>2013-04-07T12:09:56Z</time>
      </trkpt>
      <trkpt lat="59.9755214" lon="17.7384991">
        <ele>23.6896</ele>
        <time>2013-04-07T12:09:57Z</time>
      </trkpt>
      <trkpt lat="59.9754438" lon="17.7383645">
        <ele>23.6896</ele>
        <time>2013-04-07T12:09:58Z</time>
      </trkpt>
      <trkpt lat="59.9753668" lon="17.7382302">
        <ele>23.6896</ele>
        <time>2013-04-07T12:09:59Z</time>
      </trkpt>
      <trkpt lat="59.9752898" lon="17.7380966">
        <ele>23.209</ele>
        <time>2013-04-07T12:10:00Z</time>
      </trkpt>
      <trkpt lat="59.9752137" lon="17.7379658">
        <ele>23.209</ele>
        <time>2013-04-07T12:10:01Z</time>
      </trkpt>
      <trkpt lat="59.9751391" lon="17.7378367">
        <ele>23.209</ele>
        <time>2013-04-07T12:10:02Z</time>
      </trkpt>
      <trkpt lat="59.9750663" lon="17.7377076">
        <ele>23.209</ele>
        <time>2013-04-07T12:10:03Z</time>
      </trkpt>
      <trkpt lat="59.9749957" lon="17.7375775">
        <ele>23.209</ele>
        <time>2013-04-07T12:10:04Z</time>
      </trkpt>
      <trkpt lat="59.9749287" lon="17.7374442">
        <ele>22.7283</ele>
        <time>2013-04-07T12:10:05Z</time>
      </trkpt>
      <trkpt lat="59.9748654" lon="17.737304">
        <ele>22.7283</ele>
        <time>2013-04-07T12:10:06Z</time>
      </trkpt>
      <trkpt lat="59.9748054" lon="17.7371577">
        <ele>22.2476</ele>
        <time>2013-04-07T12:10:07Z</time>
      </trkpt>
      <trkpt lat="59.9747478" lon="17.7370084">
        <ele>22.2476</ele>
        <time>2013-04-07T12:10:08Z</time>
      </trkpt>
      <trkpt lat="59.9746915" lon="17.73686">
        <ele>22.2476</ele>
        <time>2013-04-07T12:10:09Z</time>
      </trkpt>
      <trkpt lat="59.9746382" lon="17.7367093">
        <ele>21.767</ele>
        <time>2013-04-07T12:10:10Z</time>
      </trkpt>
      <trkpt lat="59.9745905" lon="17.7365537">
        <ele>21.767</ele>
        <time>2013-04-07T12:10:11Z</time>
      </trkpt>
      <trkpt lat="59.974548" lon="17.7363953">
        <ele>21.767</ele>
        <time>2013-04-07T12:10:12Z</time>
      </trkpt>
      <trkpt lat="59.9745091" lon="17.7362369">
        <ele>21.767</ele>
        <time>2013-04-07T12:10:13Z</time>
      </trkpt>
      <trkpt lat="59.974474" lon="17.7360788">
        <ele>21.2864</ele>
        <time>2013-04-07T12:10:14Z</time>
      </trkpt>
      <trkpt lat="59.9744418" lon="17.7359202">
        <ele>21.2864</ele>
        <time>2013-04-07T12:10:15Z</time>
      </trkpt>
      <trkpt lat="59.9744118" lon="17.7357605">
        <ele>21.2864</ele>
        <time>2013-04-07T12:10:16Z</time>
      </trkpt>
      <trkpt lat="59.9743844" lon="17.7356003">
        <ele>21.2864</ele>
        <time>2013-04-07T12:10:17Z</time>
      </trkpt>
      <trkpt lat="59.9743613" lon="17.7354388">
        <ele>21.2864</ele>
        <time>2013-04-07T12:10:18Z</time>
      </trkpt>
      <trkpt lat="59.9743429" lon="17.735276">
        <ele>20.8057</ele>
        <time>2013-04-07T12:10:19Z</time>
      </trkpt>
      <trkpt lat="59.9743284" lon="17.7351119">
        <ele>20.8057</ele>
        <time>2013-04-07T12:10:20Z</time>
      </trkpt>
      <trkpt lat="59.9743154" lon="17.734947">
        <ele>20.8057</ele>
        <time>2013-04-07T12:10:21Z</time>
      </trkpt>
      <trkpt lat="59.974305" lon="17.7347818">
        <ele>20.8057</ele>
        <time>2013-04-07T12:10:22Z</time>
      </trkpt>
      <trkpt lat="59.9742972" lon="17.7346171">
        <ele>20.325</ele>
        <time>2013-04-07T12:10:23Z</time>
      </trkpt>
      <trkpt lat="59.9742921" lon="17.7344545">
        <ele>20.325</ele>
        <time>2013-04-07T12:10:24Z</time>
      </trkpt>
      <trkpt lat="59.9742926" lon="17.7342939">
        <ele>20.325</ele>
        <time>2013-04-07T12:10:25Z</time>
      </trkpt>
      <trkpt lat="59.9742997" lon="17.7341379">
        <ele>20.325</ele>
        <time>2013-04-07T12:10:26Z</time>
      </trkpt>
      <trkpt lat="59.9743077" lon="17.7339835">
        <ele>20.325</ele>
        <time>2013-04-07T12:10:27Z</time>
      </trkpt>
      <trkpt lat="59.9743148" lon="17.7338306">
        <ele>20.325</ele>
        <time>2013-04-07T12:10:28Z</time>
      </trkpt>
      <trkpt lat="59.9743221" lon="17.7336795">
        <ele>20.325</ele>
        <time>2013-04-07T12:10:29Z</time>
      </trkpt>
      <trkpt lat="59.9743292" lon="17.7335304">
        <ele>20.325</ele>
        <time>2013-04-07T12:10:30Z</time>
      </trkpt>
      <trkpt lat="59.9743351" lon="17.7333827">
        <ele>20.325</ele>
        <time>2013-04-07T12:10:31Z</time>
      </trkpt>
      <trkpt lat="59.9743403" lon="17.7332356">
        <ele>20.325</ele>
        <time>2013-04-07T12:10:32Z</time>
      </trkpt>
      <trkpt lat="59.9743445" lon="17.7330895">
        <ele>19.8444</ele>
        <time>2013-04-07T12:10:33Z</time>
      </trkpt>
      <trkpt lat="59.9743477" lon="17.7329448">
        <ele>19.8444</ele>
        <time>2013-04-07T12:10:34Z</time>
      </trkpt>
      <trkpt lat="59.9743481" lon="17.7328021">
        <ele>19.8444</ele>
        <time>2013-04-07T12:10:35Z</time>
      </trkpt>
      <trkpt lat="59.9743459" lon="17.7326623">
        <ele>19.8444</ele>
        <time>2013-04-07T12:10:36Z</time>
      </trkpt>
      <trkpt lat="59.974343" lon="17.7325254">
        <ele>19.8444</ele>
        <time>2013-04-07T12:10:37Z</time>
      </trkpt>
      <trkpt lat="59.9743406" lon="17.7323907">
        <ele>19.8444</ele>
        <time>2013-04-07T12:10:38Z</time>
      </trkpt>
      <trkpt lat="59.9743382" lon="17.7322574">
        <ele>19.8444</ele>
        <time>2013-04-07T12:10:39Z</time>
      </trkpt>
      <trkpt lat="59.9743357" lon="17.7321237">
        <ele>19.8444</ele>
        <time>2013-04-07T12:10:40Z</time>
      </trkpt>
      <trkpt lat="59.9743336" lon="17.7319902">
        <ele>19.8444</ele>
        <time>2013-04-07T12:10:41Z</time>
      </trkpt>
      <trkpt lat="59.974331" lon="17.7318561">
        <ele>19.8444</ele>
        <time>2013-04-07T12:10:42Z</time>
      </trkpt>
      <trkpt lat="59.9743285" lon="17.7317204">
        <ele>19.8444</ele>
        <time>2013-04-07T12:10:43Z</time>
      </trkpt>
      <trkpt lat="59.9743278" lon="17.7315842">
        <ele>19.8444</ele>
        <time>2013-04-07T12:10:44Z</time>
      </trkpt>
      <trkpt lat="59.9743289" lon="17.7314488">
        <ele>19.8444</ele>
        <time>2013-04-07T12:10:45Z</time>
      </trkpt>
      <trkpt lat="59.9743314" lon="17.7313146">
        <ele>19.8444</ele>
        <time>2013-04-07T12:10:46Z</time>
      </trkpt>
      <trkpt lat="59.9743359" lon="17.7311797">
        <ele>19.8444</ele>
        <time>2013-04-07T12:10:47Z</time>
      </trkpt>
      <trkpt lat="59.9743423" lon="17.7310442">
        <ele>19.8444</ele>
        <time>2013-04-07T12:10:48Z</time>
      </trkpt>
      <trkpt lat="59.9743497" lon="17.7309085">
        <ele>19.8444</ele>
        <time>2013-04-07T12:10:49Z</time>
      </trkpt>
      <trkpt lat="59.9743584" lon="17.7307715">
        <ele>19.8444</ele>
        <time>2013-04-07T12:10:50Z</time>
      </trkpt>
      <trkpt lat="59.9743688" lon="17.7306344">
        <ele>19.8444</ele>
        <time>2013-04-07T12:10:51Z</time>
      </trkpt>
      <trkpt lat="59.9743786" lon="17.7305004">
        <ele>19.8444</ele>
        <time>2013-04-07T12:10:52Z</time>
      </trkpt>
      <trkpt lat="59.9743878" lon="17.73037">
        <ele>19.8444</ele>
        <time>2013-04-07T12:10:53Z</time>
      </trkpt>
      <trkpt lat="59.9743973" lon="17.7302428">
        <ele>20.325</ele>
        <time>2013-04-07T12:10:54Z</time>
      </trkpt>
      <trkpt lat="59.9744075" lon="17.7301178">
        <ele>20.325</ele>
        <time>2013-04-07T12:10:55Z</time>
      </trkpt>
      <trkpt lat="59.9744179" lon="17.7299942">
        <ele>20.325</ele>
        <time>2013-04-07T12:10:56Z</time>
      </trkpt>
      <trkpt lat="59.9744276" lon="17.7298711">
        <ele>20.325</ele>
        <time>2013-04-07T12:10:57Z</time>
      </trkpt>
      <trkpt lat="59.9744359" lon="17.7297489">
        <ele>20.325</ele>
        <time>2013-04-07T12:10:58Z</time>
      </trkpt>
      <trkpt lat="59.9744429" lon="17.7296261">
        <ele>20.325</ele>
        <time>2013-04-07T12:10:59Z</time>
      </trkpt>
      <trkpt lat="59.9744478" lon="17.7295023">
        <ele>20.325</ele>
        <time>2013-04-07T12:11:00Z</time>
      </trkpt>
      <trkpt lat="59.97445" lon="17.7293772">
        <ele>20.325</ele>
        <time>2013-04-07T12:11:01Z</time>
      </trkpt>
      <trkpt lat="59.974449" lon="17.72925">
        <ele>20.325</ele>
        <time>2013-04-07T12:11:02Z</time>
      </trkpt>
      <trkpt lat="59.9744468" lon="17.7291226">
        <ele>20.325</ele>
        <time>2013-04-07T12:11:03Z</time>
      </trkpt>
      <trkpt lat="59.974444" lon="17.7289951">
        <ele>20.325</ele>
        <time>2013-04-07T12:11:04Z</time>
      </trkpt>
      <trkpt lat="59.9744407" lon="17.7288662">
        <ele>19.8444</ele>
        <time>2013-04-07T12:11:05Z</time>
      </trkpt>
      <trkpt lat="59.9744371" lon="17.7287346">
        <ele>19.8444</ele>
        <time>2013-04-07T12:11:06Z</time>
      </trkpt>
      <trkpt lat="59.9744333" lon="17.7286023">
        <ele>19.8444</ele>
        <time>2013-04-07T12:11:07Z</time>
      </trkpt>
      <trkpt lat="59.9744293" lon="17.7284702">
        <ele>19.8444</ele>
        <time>2013-04-07T12:11:08Z</time>
      </trkpt>
      <trkpt lat="59.9744253" lon="17.7283379">
        <ele>19.8444</ele>
        <time>2013-04-07T12:11:09Z</time>
      </trkpt>
      <trkpt lat="59.9744228" lon="17.7282068">
        <ele>19.8444</ele>
        <time>2013-04-07T12:11:10Z</time>
      </trkpt>
      <trkpt lat="59.9744207" lon="17.7280772">
        <ele>19.8444</ele>
        <time>2013-04-07T12:11:11Z</time>
      </trkpt>
      <trkpt lat="59.9744175" lon="17.7279502">
        <ele>19.8444</ele>
        <time>2013-04-07T12:11:12Z</time>
      </trkpt>
      <trkpt lat="59.9744136" lon="17.7278256">
        <ele>19.8444</ele>
        <time>2013-04-07T12:11:13Z</time>
      </trkpt>
      <trkpt lat="59.9744107" lon="17.7277053">
        <ele>19.8444</ele>
        <time>2013-04-07T12:11:14Z</time>
      </trkpt>
      <trkpt lat="59.9744091" lon="17.7275882">
        <ele>19.8444</ele>
        <time>2013-04-07T12:11:15Z</time>
      </trkpt>
      <trkpt lat="59.9744072" lon="17.727473">
        <ele>19.8444</ele>
        <time>2013-04-07T12:11:16Z</time>
      </trkpt>
      <trkpt lat="59.9744048" lon="17.7273593">
        <ele>19.8444</ele>
        <time>2013-04-07T12:11:17Z</time>
      </trkpt>
      <trkpt lat="59.9744034" lon="17.7272464">
        <ele>19.8444</ele>
        <time>2013-04-07T12:11:18Z</time>
      </trkpt>
      <trkpt lat="59.9744023" lon="17.7271337">
        <ele>19.8444</ele>
        <time>2013-04-07T12:11:19Z</time>
      </trkpt>
      <trkpt lat="59.9744004" lon="17.7270235">
        <ele>19.8444</ele>
        <time>2013-04-07T12:11:20Z</time>
      </trkpt>
      <trkpt lat="59.9743999" lon="17.7269186">
        <ele>19.8444</ele>
        <time>2013-04-07T12:11:21Z</time>
      </trkpt>
      <trkpt lat="59.9743993" lon="17.726815">
        <ele>19.8444</ele>
        <time>2013-04-07T12:11:22Z</time>
      </trkpt>
      <trkpt lat="59.9743978" lon="17.7267121">
        <ele>19.8444</ele>
        <time>2013-04-07T12:11:23Z</time>
      </trkpt>
      <trkpt lat="59.9743947" lon="17.7266092">
        <ele>19.8444</ele>
        <time>2013-04-07T12:11:24Z</time>
      </trkpt>
      <trkpt lat="59.9743904" lon="17.726506">
        <ele>19.8444</ele>
        <time>2013-04-07T12:11:25Z</time>
      </trkpt>
      <trkpt lat="59.9743873" lon="17.7264009">
        <ele>19.3638</ele>
        <time>2013-04-07T12:11:26Z</time>
      </trkpt>
      <trkpt lat="59.9743859" lon="17.7262957">
        <ele>19.3638</ele>
        <time>2013-04-07T12:11:27Z</time>
      </trkpt>
      <trkpt lat="59.9743833" lon="17.7261904">
        <ele>19.3638</ele>
        <time>2013-04-07T12:11:28Z</time>
      </trkpt>
      <trkpt lat="59.9743774" lon="17.7260819">
        <ele>19.3638</ele>
        <time>2013-04-07T12:11:29Z</time>
      </trkpt>
      <trkpt lat="59.9743703" lon="17.7259696">
        <ele>19.3638</ele>
        <time>2013-04-07T12:11:30Z</time>
      </trkpt>
      <trkpt lat="59.9743631" lon="17.7258555">
        <ele>19.3638</ele>
        <time>2013-04-07T12:11:31Z</time>
      </trkpt>
      <trkpt lat="59.9743541" lon="17.725741">
        <ele>19.3638</ele>
        <time>2013-04-07T12:11:32Z</time>
      </trkpt>
      <trkpt lat="59.9743435" lon="17.7256234">
        <ele>19.3638</ele>
        <time>2013-04-07T12:11:33Z</time>
      </trkpt>
      <trkpt lat="59.9743336" lon="17.7255022">
        <ele>19.3638</ele>
        <time>2013-04-07T12:11:34Z</time>
      </trkpt>
      <trkpt lat="59.9743216" lon="17.7253803">
        <ele>19.3638</ele>
        <time>2013-04-07T12:11:35Z</time>
      </trkpt>
      <trkpt lat="59.9743072" lon="17.7252606">
        <ele>19.3638</ele>
        <time>2013-04-07T12:11:36Z</time>
      </trkpt>
      <trkpt lat="59.9742926" lon="17.7251427">
        <ele>19.3638</ele>
        <time>2013-04-07T12:11:37Z</time>
      </trkpt>
      <trkpt lat="59.9742781" lon="17.725026">
        <ele>19.3638</ele>
        <time>2013-04-07T12:11:38Z</time>
      </trkpt>
      <trkpt lat="59.9742631" lon="17.7249087">
        <ele>19.3638</ele>
        <time>2013-04-07T12:11:39Z</time>
      </trkpt>
      <trkpt lat="59.9742476" lon="17.7247895">
        <ele>19.3638</ele>
        <time>2013-04-07T12:11:40Z</time>
      </trkpt>
      <trkpt lat="59.974231" lon="17.7246701">
        <ele>19.3638</ele>
        <time>2013-04-07T12:11:41Z</time>
      </trkpt>
      <trkpt lat="59.9742126" lon="17.7245507">
        <ele>19.3638</ele>
        <time>2013-04-07T12:11:42Z</time>
      </trkpt>
      <trkpt lat="59.9741942" lon="17.7244304">
        <ele>19.3638</ele>
        <time>2013-04-07T12:11:43Z</time>
      </trkpt>
      <trkpt lat="59.9741765" lon="17.7243097">
        <ele>19.3638</ele>
        <time>2013-04-07T12:11:44Z</time>
      </trkpt>
      <trkpt lat="59.9741588" lon="17.7241885">
        <ele>19.3638</ele>
        <time>2013-04-07T12:11:45Z</time>
      </trkpt>
      <trkpt lat="59.9741414" lon="17.7240653">
        <ele>19.3638</ele>
        <time>2013-04-07T12:11:46Z</time>
      </trkpt>
      <trkpt lat="59.9741243" lon="17.7239399">
        <ele>19.3638</ele>
        <time>2013-04-07T12:11:47Z</time>
      </trkpt>
      <trkpt lat="59.9741059" lon="17.7238133">
        <ele>19.3638</ele>
        <time>2013-04-07T12:11:48Z</time>
      </trkpt>
      <trkpt lat="59.974087" lon="17.7236855">
        <ele>19.3638</ele>
        <time>2013-04-07T12:11:49Z</time>
      </trkpt>
      <trkpt lat="59.9740673" lon="17.723556">
        <ele>19.3638</ele>
        <time>2013-04-07T12:11:50Z</time>
      </trkpt>
      <trkpt lat="59.974047" lon="17.7234251">
        <ele>19.3638</ele>
        <time>2013-04-07T12:11:51Z</time>
      </trkpt>
      <trkpt lat="59.9740246" lon="17.7232934">
        <ele>19.3638</ele>
        <time>2013-04-07T12:11:52Z</time>
      </trkpt>
      <trkpt lat="59.9739992" lon="17.7231596">
        <ele>19.8444</ele>
        <time>2013-04-07T12:11:53Z</time>
      </trkpt>
      <trkpt lat="59.9739718" lon="17.7230252">
        <ele>19.8444</ele>
        <time>2013-04-07T12:11:54Z</time>
      </trkpt>
      <trkpt lat="59.9739428" lon="17.722893">
        <ele>19.8444</ele>
        <time>2013-04-07T12:11:55Z</time>
      </trkpt>
      <trkpt lat="59.973912" lon="17.7227649">
        <ele>19.8444</ele>
        <time>2013-04-07T12:11:56Z</time>
      </trkpt>
      <trkpt lat="59.9738791" lon="17.722639">
        <ele>19.8444</ele>
        <time>2013-04-07T12:11:57Z</time>
      </trkpt>
      <trkpt lat="59.9738447" lon="17.7225142">
        <ele>20.325</ele>
        <time>2013-04-07T12:11:58Z</time>
      </trkpt>
      <trkpt lat="59.9738093" lon="17.722391">
        <ele>20.325</ele>
        <time>2013-04-07T12:11:59Z</time>
      </trkpt>
      <trkpt lat="59.9737724" lon="17.7222697">
        <ele>20.325</ele>
        <time>2013-04-07T12:12:00Z</time>
      </trkpt>
      <trkpt lat="59.9737343" lon="17.7221502">
        <ele>20.325</ele>
        <time>2013-04-07T12:12:01Z</time>
      </trkpt>
      <trkpt lat="59.9736948" lon="17.7220339">
        <ele>20.8057</ele>
        <time>2013-04-07T12:12:02Z</time>
      </trkpt>
      <trkpt lat="59.9736534" lon="17.721922">
        <ele>20.8057</ele>
        <time>2013-04-07T12:12:03Z</time>
      </trkpt>
      <trkpt lat="59.9736109" lon="17.7218139">
        <ele>20.8057</ele>
        <time>2013-04-07T12:12:04Z</time>
      </trkpt>
      <trkpt lat="59.9735677" lon="17.7217076">
        <ele>20.8057</ele>
        <time>2013-04-07T12:12:05Z</time>
      </trkpt>
      <trkpt lat="59.9735234" lon="17.7216027">
        <ele>21.2864</ele>
        <time>2013-04-07T12:12:06Z</time>
      </trkpt>
      <trkpt lat="59.9734783" lon="17.7215001">
        <ele>21.2864</ele>
        <time>2013-04-07T12:12:07Z</time>
      </trkpt>
      <trkpt lat="59.9734325" lon="17.7213996">
        <ele>21.2864</ele>
        <time>2013-04-07T12:12:08Z</time>
      </trkpt>
      <trkpt lat="59.9733854" lon="17.7213023">
        <ele>21.2864</ele>
        <time>2013-04-07T12:12:09Z</time>
      </trkpt>
      <trkpt lat="59.9733369" lon="17.7212084">
        <ele>21.767</ele>
        <time>2013-04-07T12:12:10Z</time>
      </trkpt>
      <trkpt lat="59.9732873" lon="17.7211178">
        <ele>21.767</ele>
        <time>2013-04-07T12:12:11Z</time>
      </trkpt>
      <trkpt lat="59.9732365" lon="17.7210307">
        <ele>21.767</ele>
        <time>2013-04-07T12:12:12Z</time>
      </trkpt>
      <trkpt lat="59.9731844" lon="17.7209466">
        <ele>21.767</ele>
        <time>2013-04-07T12:12:13Z</time>
      </trkpt>
      <trkpt lat="59.973131" lon="17.7208638">
        <ele>21.767</ele>
        <time>2013-04-07T12:12:14Z</time>
      </trkpt>
      <trkpt lat="59.9730768" lon="17.720782">
        <ele>21.767</ele>
        <time>2013-04-07T12:12:15Z</time>
      </trkpt>
      <trkpt lat="59.9730217" lon="17.7207029">
        <ele>22.2476</ele>
        <time>2013-04-07T12:12:16Z</time>
      </trkpt>
      <trkpt lat="59.9729664" lon="17.7206271">
        <ele>22.2476</ele>
        <time>2013-04-07T12:12:17Z</time>
      </trkpt>
      <trkpt lat="59.9729101" lon="17.7205542">
        <ele>22.2476</ele>
        <time>2013-04-07T12:12:18Z</time>
      </trkpt>
      <trkpt lat="59.9728522" lon="17.7204872">
        <ele>22.7283</ele>
        <time>2013-04-07T12:12:19Z</time>
      </trkpt>
      <trkpt lat="59.972793" lon="17.7204212">
        <ele>22.7283</ele>
        <time>2013-04-07T12:12:20Z</time>
      </trkpt>
      <trkpt lat="59.9727329" lon="17.7203548">
        <ele>22.7283</ele>
        <time>2013-04-07T12:12:21Z</time>
      </trkpt>
      <trkpt lat="59.9726719" lon="17.7202915">
        <ele>23.209</ele>
        <time>2013-04-07T12:12:22Z</time>
      </trkpt>
      <trkpt lat="59.9726096" lon="17.7202309">
        <ele>23.209</ele>
        <time>2013-04-07T12:12:23Z</time>
      </trkpt>
      <trkpt lat="59.9725464" lon="17.7201722">
        <ele>23.209</ele>
        <time>2013-04-07T12:12:24Z</time>
      </trkpt>
      <trkpt lat="59.9724816" lon="17.7201158">
        <ele>23.6896</ele>
        <time>2013-04-07T12:12:25Z</time>
      </trkpt>
      <trkpt lat="59.9724159" lon="17.7200586">
        <ele>23.6896</ele>
        <time>2013-04-07T12:12:26Z</time>
      </trkpt>
      <trkpt lat="59.9723507" lon="17.7199988">
        <ele>23.6896</ele>
        <time>2013-04-07T12:12:27Z</time>
      </trkpt>
      <trkpt lat="59.972286" lon="17.7199387">
        <ele>24.1703</ele>
        <time>2013-04-07T12:12:28Z</time>
      </trkpt>
      <trkpt lat="59.9722222" lon="17.7198807">
        <ele>24.1703</ele>
        <time>2013-04-07T12:12:29Z</time>
      </trkpt>
      <trkpt lat="59.9721595" lon="17.7198236">
        <ele>24.651</ele>
        <time>2013-04-07T12:12:30Z</time>
      </trkpt>
      <trkpt lat="59.9720973" lon="17.7197663">
        <ele>24.651</ele>
        <time>2013-04-07T12:12:31Z</time>
      </trkpt>
      <trkpt lat="59.9720357" lon="17.7197096">
        <ele>24.651</ele>
        <time>2013-04-07T12:12:32Z</time>
      </trkpt>
      <trkpt lat="59.9719745" lon="17.7196528">
        <ele>25.1317</ele>
        <time>2013-04-07T12:12:33Z</time>
      </trkpt>
      <trkpt lat="59.9719148" lon="17.7195967">
        <ele>25.1317</ele>
        <time>2013-04-07T12:12:34Z</time>
      </trkpt>
      <trkpt lat="59.9718539" lon="17.7195434">
        <ele>25.1317</ele>
        <time>2013-04-07T12:12:35Z</time>
      </trkpt>
      <trkpt lat="59.971793" lon="17.7194892">
        <ele>25.1317</ele>
        <time>2013-04-07T12:12:36Z</time>
      </trkpt>
      <trkpt lat="59.9717316" lon="17.7194325">
        <ele>25.1317</ele>
        <time>2013-04-07T12:12:37Z</time>
      </trkpt>
      <trkpt lat="59.9716705" lon="17.7193737">
        <ele>25.6123</ele>
        <time>2013-04-07T12:12:38Z</time>
      </trkpt>
      <trkpt lat="59.9716086" lon="17.7193162">
        <ele>25.6123</ele>
        <time>2013-04-07T12:12:39Z</time>
      </trkpt>
      <trkpt lat="59.9715465" lon="17.7192607">
        <ele>26.0929</ele>
        <time>2013-04-07T12:12:40Z</time>
      </trkpt>
      <trkpt lat="59.971485" lon="17.7192054">
        <ele>26.0929</ele>
        <time>2013-04-07T12:12:41Z</time>
      </trkpt>
      <trkpt lat="59.971425" lon="17.71915">
        <ele>26.0929</ele>
        <time>2013-04-07T12:12:42Z</time>
      </trkpt>
      <trkpt lat="59.9713654" lon="17.7190955">
        <ele>26.5736</ele>
        <time>2013-04-07T12:12:43Z</time>
      </trkpt>
      <trkpt lat="59.9713056" lon="17.7190414">
        <ele>26.5736</ele>
        <time>2013-04-07T12:12:44Z</time>
      </trkpt>
      <trkpt lat="59.9712456" lon="17.7189862">
        <ele>27.0543</ele>
        <time>2013-04-07T12:12:45Z</time>
      </trkpt>
      <trkpt lat="59.9711847" lon="17.7189305">
        <ele>27.0543</ele>
        <time>2013-04-07T12:12:46Z</time>
      </trkpt>
      <trkpt lat="59.9711233" lon="17.7188738">
        <ele>27.0543</ele>
        <time>2013-04-07T12:12:47Z</time>
      </trkpt>
      <trkpt lat="59.9710631" lon="17.7188173">
        <ele>27.0543</ele>
        <time>2013-04-07T12:12:48Z</time>
      </trkpt>
      <trkpt lat="59.9710018" lon="17.7187611">
        <ele>27.0543</ele>
        <time>2013-04-07T12:12:49Z</time>
      </trkpt>
      <trkpt lat="59.970939" lon="17.7187033">
        <ele>27.0543</ele>
        <time>2013-04-07T12:12:50Z</time>
      </trkpt>
      <trkpt lat="59.9708758" lon="17.7186458">
        <ele>26.5736</ele>
        <time>2013-04-07T12:12:51Z</time>
      </trkpt>
      <trkpt lat="59.970812" lon="17.7185893">
        <ele>26.5736</ele>
        <time>2013-04-07T12:12:52Z</time>
      </trkpt>
      <trkpt lat="59.9707482" lon="17.7185319">
        <ele>26.5736</ele>
        <time>2013-04-07T12:12:53Z</time>
      </trkpt>
      <trkpt lat="59.9706847" lon="17.7184734">
        <ele>26.0929</ele>
        <time>2013-04-07T12:12:54Z</time>
      </trkpt>
      <trkpt lat="59.970622" lon="17.7184137">
        <ele>26.0929</ele>
        <time>2013-04-07T12:12:55Z</time>
      </trkpt>
      <trkpt lat="59.9705599" lon="17.7183548">
        <ele>25.6123</ele>
        <time>2013-04-07T12:12:56Z</time>
      </trkpt>
      <trkpt lat="59.9704971" lon="17.7182982">
        <ele>25.6123</ele>
        <time>2013-04-07T12:12:57Z</time>
      </trkpt>
      <trkpt lat="59.9704345" lon="17.7182416">
        <ele>25.1317</ele>
        <time>2013-04-07T12:12:58Z</time>
      </trkpt>
      <trkpt lat="59.9703719" lon="17.7181858">
        <ele>24.651</ele>
        <time>2013-04-07T12:12:59Z</time>
      </trkpt>
      <trkpt lat="59.9703085" lon="17.7181314">
        <ele>24.651</ele>
        <time>2013-04-07T12:13:00Z</time>
      </trkpt>
      <trkpt lat="59.970245" lon="17.7180743">
        <ele>24.651</ele>
        <time>2013-04-07T12:13:01Z</time>
      </trkpt>
      <trkpt lat="59.9701807" lon="17.7180154">
        <ele>24.651</ele>
        <time>2013-04-07T12:13:02Z</time>
      </trkpt>
      <trkpt lat="59.9701155" lon="17.7179574">
        <ele>24.651</ele>
        <time>2013-04-07T12:13:03Z</time>
      </trkpt>
      <trkpt lat="59.9700497" lon="17.7179004">
        <ele>24.651</ele>
        <time>2013-04-07T12:13:04Z</time>
      </trkpt>
      <trkpt lat="59.9699845" lon="17.7178417">
        <ele>24.651</ele>
        <time>2013-04-07T12:13:05Z</time>
      </trkpt>
      <trkpt lat="59.9699197" lon="17.7177834">
        <ele>24.1703</ele>
        <time>2013-04-07T12:13:06Z</time>
      </trkpt>
      <trkpt lat="59.9698546" lon="17.7177296">
        <ele>24.1703</ele>
        <time>2013-04-07T12:13:07Z</time>
      </trkpt>
      <trkpt lat="59.9697895" lon="17.7176796">
        <ele>24.651</ele>
        <time>2013-04-07T12:13:08Z</time>
      </trkpt>
      <trkpt lat="59.9697248" lon="17.7176305">
        <ele>25.1317</ele>
        <time>2013-04-07T12:13:09Z</time>
      </trkpt>
      <trkpt lat="59.9696612" lon="17.7175832">
        <ele>25.6123</ele>
        <time>2013-04-07T12:13:10Z</time>
      </trkpt>
      <trkpt lat="59.9695984" lon="17.7175378">
        <ele>25.6123</ele>
        <time>2013-04-07T12:13:11Z</time>
      </trkpt>
      <trkpt lat="59.9695353" lon="17.7174977">
        <ele>25.6123</ele>
        <time>2013-04-07T12:13:12Z</time>
      </trkpt>
      <trkpt lat="59.9694715" lon="17.7174628">
        <ele>25.6123</ele>
        <time>2013-04-07T12:13:13Z</time>
      </trkpt>
      <trkpt lat="59.9694083" lon="17.71743">
        <ele>25.6123</ele>
        <time>2013-04-07T12:13:14Z</time>
      </trkpt>
      <trkpt lat="59.969345" lon="17.7173984">
        <ele>25.6123</ele>
        <time>2013-04-07T12:13:15Z</time>
      </trkpt>
      <trkpt lat="59.9692813" lon="17.7173699">
        <ele>25.1317</ele>
        <time>2013-04-07T12:13:16Z</time>
      </trkpt>
      <trkpt lat="59.9692171" lon="17.7173429">
        <ele>25.1317</ele>
        <time>2013-04-07T12:13:17Z</time>
      </trkpt>
      <trkpt lat="59.9691514" lon="17.7173174">
        <ele>24.651</ele>
        <time>2013-04-07T12:13:18Z</time>
      </trkpt>
      <trkpt lat="59.9690839" lon="17.7172933">
        <ele>24.1703</ele>
        <time>2013-04-07T12:13:19Z</time>
      </trkpt>
      <trkpt lat="59.9690162" lon="17.7172691">
        <ele>24.1703</ele>
        <time>2013-04-07T12:13:20Z</time>
      </trkpt>
      <trkpt lat="59.9689488" lon="17.7172461">
        <ele>23.6896</ele>
        <time>2013-04-07T12:13:21Z</time>
      </trkpt>
      <trkpt lat="59.968881" lon="17.7172233">
        <ele>23.6896</ele>
        <time>2013-04-07T12:13:22Z</time>
      </trkpt>
      <trkpt lat="59.9688127" lon="17.7171983">
        <ele>23.209</ele>
        <time>2013-04-07T12:13:23Z</time>
      </trkpt>
      <trkpt lat="59.9687453" lon="17.7171724">
        <ele>23.209</ele>
        <time>2013-04-07T12:13:24Z</time>
      </trkpt>
      <trkpt lat="59.968678" lon="17.7171457">
        <ele>23.209</ele>
        <time>2013-04-07T12:13:25Z</time>
      </trkpt>
      <trkpt lat="59.968611" lon="17.7171178">
        <ele>22.7283</ele>
        <time>2013-04-07T12:13:26Z</time>
      </trkpt>
      <trkpt lat="59.9685437" lon="17.7170877">
        <ele>22.7283</ele>
        <time>2013-04-07T12:13:27Z</time>
      </trkpt>
      <trkpt lat="59.9684767" lon="17.717051">
        <ele>22.7283</ele>
        <time>2013-04-07T12:13:28Z</time>
      </trkpt>
      <trkpt lat="59.9684101" lon="17.7170062">
        <ele>22.2476</ele>
        <time>2013-04-07T12:13:29Z</time>
      </trkpt>
      <trkpt lat="59.9683437" lon="17.7169531">
        <ele>21.767</ele>
        <time>2013-04-07T12:13:30Z</time>
      </trkpt>
      <trkpt lat="59.9682768" lon="17.7168932">
        <ele>21.767</ele>
        <time>2013-04-07T12:13:31Z</time>
      </trkpt>
      <trkpt lat="59.9682096" lon="17.7168245">
        <ele>21.2864</ele>
        <time>2013-04-07T12:13:32Z</time>
      </trkpt>
      <trkpt lat="59.9681422" lon="17.7167458">
        <ele>20.8057</ele>
        <time>2013-04-07T12:13:33Z</time>
      </trkpt>
      <trkpt lat="59.9680748" lon="17.7166565">
        <ele>20.325</ele>
        <time>2013-04-07T12:13:34Z</time>
      </trkpt>
      <trkpt lat="59.9680071" lon="17.7165578">
        <ele>19.8444</ele>
        <time>2013-04-07T12:13:35Z</time>
      </trkpt>
      <trkpt lat="59.9679401" lon="17.7164482">
        <ele>19.3638</ele>
        <time>2013-04-07T12:13:36Z</time>
      </trkpt>
      <trkpt lat="59.967875" lon="17.7163261">
        <ele>18.8831</ele>
        <time>2013-04-07T12:13:37Z</time>
      </trkpt>
      <trkpt lat="59.9678122" lon="17.7161901">
        <ele>17.9218</ele>
        <time>2013-04-07T12:13:38Z</time>
      </trkpt>
      <trkpt lat="59.9677523" lon="17.7160385">
        <ele>17.4412</ele>
        <time>2013-04-07T12:13:39Z</time>
      </trkpt>
      <trkpt lat="59.9676953" lon="17.7158727">
        <ele>16.9604</ele>
        <time>2013-04-07T12:13:40Z</time>
      </trkpt>
      <trkpt lat="59.9676433" lon="17.7156924">
        <ele>16.4797</ele>
        <time>2013-04-07T12:13:41Z</time>
      </trkpt>
      <trkpt lat="59.9675977" lon="17.7155023">
        <ele>15.999</ele>
        <time>2013-04-07T12:13:42Z</time>
      </trkpt>
      <trkpt lat="59.9675569" lon="17.7153005">
        <ele>15.5184</ele>
        <time>2013-04-07T12:13:43Z</time>
      </trkpt>
      <trkpt lat="59.9675197" lon="17.7150907">
        <ele>14.557</ele>
        <time>2013-04-07T12:13:44Z</time>
      </trkpt>
      <trkpt lat="59.9674891" lon="17.7148871">
        <ele>14.557</ele>
        <time>2013-04-07T12:13:45Z</time>
      </trkpt>
      <trkpt lat="59.96746" lon="17.7146862">
        <ele>15.5184</ele>
        <time>2013-04-07T12:13:46Z</time>
      </trkpt>
      <trkpt lat="59.9674326" lon="17.7144897">
        <ele>15.999</ele>
        <time>2013-04-07T12:13:47Z</time>
      </trkpt>
      <trkpt lat="59.9674067" lon="17.7143042">
        <ele>16.9604</ele>
        <time>2013-04-07T12:13:48Z</time>
      </trkpt>
      <trkpt lat="59.9673819" lon="17.7141276">
        <ele>17.4412</ele>
        <time>2013-04-07T12:13:49Z</time>
      </trkpt>
      <trkpt lat="59.9673591" lon="17.7139589">
        <ele>18.4023</ele>
        <time>2013-04-07T12:13:50Z</time>
      </trkpt>
      <trkpt lat="59.9673372" lon="17.7137984">
        <ele>19.3638</ele>
        <time>2013-04-07T12:13:51Z</time>
      </trkpt>
      <trkpt lat="59.9673155" lon="17.7136468">
        <ele>19.8444</ele>
        <time>2013-04-07T12:13:52Z</time>
      </trkpt>
      <trkpt lat="59.9672943" lon="17.7135013">
        <ele>20.325</ele>
        <time>2013-04-07T12:13:53Z</time>
      </trkpt>
      <trkpt lat="59.9672711" lon="17.7133611">
        <ele>20.8057</ele>
        <time>2013-04-07T12:13:54Z</time>
      </trkpt>
      <trkpt lat="59.9672465" lon="17.7132254">
        <ele>21.2864</ele>
        <time>2013-04-07T12:13:55Z</time>
      </trkpt>
      <trkpt lat="59.9672202" lon="17.7130943">
        <ele>21.767</ele>
        <time>2013-04-07T12:13:56Z</time>
      </trkpt>
      <trkpt lat="59.9671922" lon="17.7129674">
        <ele>22.2476</ele>
        <time>2013-04-07T12:13:57Z</time>
      </trkpt>
      <trkpt lat="59.9671628" lon="17.7128439">
        <ele>22.7283</ele>
        <time>2013-04-07T12:13:58Z</time>
      </trkpt>
      <trkpt lat="59.967132" lon="17.7127245">
        <ele>23.209</ele>
        <time>2013-04-07T12:13:59Z</time>
      </trkpt>
      <trkpt lat="59.9670986" lon="17.7126098">
        <ele>23.6896</ele>
        <time>2013-04-07T12:14:00Z</time>
      </trkpt>
      <trkpt lat="59.9670641" lon="17.7124985">
        <ele>24.1703</ele>
        <time>2013-04-07T12:14:01Z</time>
      </trkpt>
      <trkpt lat="59.9670287" lon="17.7123898">
        <ele>24.651</ele>
        <time>2013-04-07T12:14:02Z</time>
      </trkpt>
      <trkpt lat="59.9669913" lon="17.7122837">
        <ele>24.651</ele>
        <time>2013-04-07T12:14:03Z</time>
      </trkpt>
      <trkpt lat="59.9669524" lon="17.71218">
        <ele>25.1317</ele>
        <time>2013-04-07T12:14:04Z</time>
      </trkpt>
      <trkpt lat="59.9669137" lon="17.712077">
        <ele>25.1317</ele>
        <time>2013-04-07T12:14:05Z</time>
      </trkpt>
      <trkpt lat="59.9668758" lon="17.7119719">
        <ele>25.6123</ele>
        <time>2013-04-07T12:14:06Z</time>
      </trkpt>
      <trkpt lat="59.9668378" lon="17.7118656">
        <ele>25.6123</ele>
        <time>2013-04-07T12:14:07Z</time>
      </trkpt>
      <trkpt lat="59.966799" lon="17.7117588">
        <ele>25.6123</ele>
        <time>2013-04-07T12:14:08Z</time>
      </trkpt>
      <trkpt lat="59.9667597" lon="17.7116512">
        <ele>26.0929</ele>
        <time>2013-04-07T12:14:09Z</time>
      </trkpt>
      <trkpt lat="59.96672" lon="17.7115424">
        <ele>26.0929</ele>
        <time>2013-04-07T12:14:10Z</time>
      </trkpt>
      <trkpt lat="59.9666819" lon="17.7114292">
        <ele>26.5736</ele>
        <time>2013-04-07T12:14:11Z</time>
      </trkpt>
      <trkpt lat="59.9666461" lon="17.7113113">
        <ele>26.5736</ele>
        <time>2013-04-07T12:14:12Z</time>
      </trkpt>
      <trkpt lat="59.9666105" lon="17.7111912">
        <ele>26.5736</ele>
        <time>2013-04-07T12:14:13Z</time>
      </trkpt>
      <trkpt lat="59.9665747" lon="17.7110708">
        <ele>26.5736</ele>
        <time>2013-04-07T12:14:14Z</time>
      </trkpt>
      <trkpt lat="59.9665397" lon="17.7109491">
        <ele>27.0543</ele>
        <time>2013-04-07T12:14:15Z</time>
      </trkpt>
      <trkpt lat="59.9665058" lon="17.7108261">
        <ele>27.0543</ele>
        <time>2013-04-07T12:14:16Z</time>
      </trkpt>
      <trkpt lat="59.9664722" lon="17.7107006">
        <ele>27.0543</ele>
        <time>2013-04-07T12:14:17Z</time>
      </trkpt>
      <trkpt lat="59.9664369" lon="17.7105721">
        <ele>27.0543</ele>
        <time>2013-04-07T12:14:18Z</time>
      </trkpt>
      <trkpt lat="59.9664009" lon="17.7104415">
        <ele>27.0543</ele>
        <time>2013-04-07T12:14:19Z</time>
      </trkpt>
      <trkpt lat="59.966364" lon="17.7103106">
        <ele>27.0543</ele>
        <time>2013-04-07T12:14:20Z</time>
      </trkpt>
      <trkpt lat="59.9663263" lon="17.7101794">
        <ele>27.0543</ele>
        <time>2013-04-07T12:14:21Z</time>
      </trkpt>
      <trkpt lat="59.9662895" lon="17.7100456">
        <ele>27.0543</ele>
        <time>2013-04-07T12:14:22Z</time>
      </trkpt>
      <trkpt lat="59.9662526" lon="17.7099099">
        <ele>27.0543</ele>
        <time>2013-04-07T12:14:23Z</time>
      </trkpt>
      <trkpt lat="59.9662148" lon="17.7097747">
        <ele>27.0543</ele>
        <time>2013-04-07T12:14:24Z</time>
      </trkpt>
      <trkpt lat="59.9661765" lon="17.7096401">
        <ele>27.0543</ele>
        <time>2013-04-07T12:14:25Z</time>
      </trkpt>
      <trkpt lat="59.9661376" lon="17.7095057">
        <ele>27.0543</ele>
        <time>2013-04-07T12:14:26Z</time>
      </trkpt>
      <trkpt lat="59.9660985" lon="17.7093724">
        <ele>27.0543</ele>
        <time>2013-04-07T12:14:27Z</time>
      </trkpt>
      <trkpt lat="59.9660589" lon="17.7092408">
        <ele>27.0543</ele>
        <time>2013-04-07T12:14:28Z</time>
      </trkpt>
      <trkpt lat="59.9660198" lon="17.7091103">
        <ele>27.0543</ele>
        <time>2013-04-07T12:14:29Z</time>
      </trkpt>
      <trkpt lat="59.9659808" lon="17.7089812">
        <ele>27.0543</ele>
        <time>2013-04-07T12:14:30Z</time>
      </trkpt>
      <trkpt lat="59.9659411" lon="17.7088552">
        <ele>27.0543</ele>
        <time>2013-04-07T12:14:31Z</time>
      </trkpt>
      <trkpt lat="59.9658994" lon="17.7087337">
        <ele>27.5349</ele>
        <time>2013-04-07T12:14:32Z</time>
      </trkpt>
      <trkpt lat="59.9658561" lon="17.7086167">
        <ele>27.5349</ele>
        <time>2013-04-07T12:14:33Z</time>
      </trkpt>
      <trkpt lat="59.9658102" lon="17.7085041">
        <ele>27.5349</ele>
        <time>2013-04-07T12:14:34Z</time>
      </trkpt>
      <trkpt lat="59.965761" lon="17.708397">
        <ele>28.0155</ele>
        <time>2013-04-07T12:14:35Z</time>
      </trkpt>
      <trkpt lat="59.9657082" lon="17.7082955">
        <ele>28.0155</ele>
        <time>2013-04-07T12:14:36Z</time>
      </trkpt>
      <trkpt lat="59.9656532" lon="17.7082012">
        <ele>28.0155</ele>
        <time>2013-04-07T12:14:37Z</time>
      </trkpt>
      <trkpt lat="59.9655952" lon="17.7081172">
        <ele>28.4962</ele>
        <time>2013-04-07T12:14:38Z</time>
      </trkpt>
      <trkpt lat="59.9655341" lon="17.7080451">
        <ele>28.4962</ele>
        <time>2013-04-07T12:14:39Z</time>
      </trkpt>
      <trkpt lat="59.9654704" lon="17.7079819">
        <ele>28.4962</ele>
        <time>2013-04-07T12:14:40Z</time>
      </trkpt>
      <trkpt lat="59.9654056" lon="17.707923">
        <ele>28.4962</ele>
        <time>2013-04-07T12:14:41Z</time>
      </trkpt>
      <trkpt lat="59.9653404" lon="17.707866">
        <ele>28.9769</ele>
        <time>2013-04-07T12:14:42Z</time>
      </trkpt>
      <trkpt lat="59.9652755" lon="17.7078102">
        <ele>28.9769</ele>
        <time>2013-04-07T12:14:43Z</time>
      </trkpt>
      <trkpt lat="59.9652102" lon="17.7077583">
        <ele>28.9769</ele>
        <time>2013-04-07T12:14:44Z</time>
      </trkpt>
      <trkpt lat="59.9651447" lon="17.7077076">
        <ele>28.9769</ele>
        <time>2013-04-07T12:14:45Z</time>
      </trkpt>
      <trkpt lat="59.9650797" lon="17.7076566">
        <ele>29.4575</ele>
        <time>2013-04-07T12:14:46Z</time>
      </trkpt>
      <trkpt lat="59.9650146" lon="17.7076082">
        <ele>29.4575</ele>
        <time>2013-04-07T12:14:47Z</time>
      </trkpt>
      <trkpt lat="59.9649498" lon="17.7075619">
        <ele>29.4575</ele>
        <time>2013-04-07T12:14:48Z</time>
      </trkpt>
      <trkpt lat="59.9648861" lon="17.7075151">
        <ele>29.9381</ele>
        <time>2013-04-07T12:14:49Z</time>
      </trkpt>
      <trkpt lat="59.9648234" lon="17.707469">
        <ele>29.9381</ele>
        <time>2013-04-07T12:14:50Z</time>
      </trkpt>
      <trkpt lat="59.9647617" lon="17.7074237">
        <ele>29.9381</ele>
        <time>2013-04-07T12:14:51Z</time>
      </trkpt>
      <trkpt lat="59.9647005" lon="17.7073802">
        <ele>30.4188</ele>
        <time>2013-04-07T12:14:52Z</time>
      </trkpt>
      <trkpt lat="59.9646395" lon="17.7073403">
        <ele>30.4188</ele>
        <time>2013-04-07T12:14:53Z</time>
      </trkpt>
      <trkpt lat="59.9645783" lon="17.7073033">
        <ele>30.4188</ele>
        <time>2013-04-07T12:14:54Z</time>
      </trkpt>
      <trkpt lat="59.9645158" lon="17.7072699">
        <ele>30.8995</ele>
        <time>2013-04-07T12:14:55Z</time>
      </trkpt>
      <trkpt lat="59.9644521" lon="17.7072421">
        <ele>30.8995</ele>
        <time>2013-04-07T12:14:56Z</time>
      </trkpt>
      <trkpt lat="59.9643872" lon="17.7072183">
        <ele>30.8995</ele>
        <time>2013-04-07T12:14:57Z</time>
      </trkpt>
      <trkpt lat="59.964321" lon="17.7071973">
        <ele>30.8995</ele>
        <time>2013-04-07T12:14:58Z</time>
      </trkpt>
      <trkpt lat="59.9642539" lon="17.7071772">
        <ele>30.8995</ele>
        <time>2013-04-07T12:14:59Z</time>
      </trkpt>
      <trkpt lat="59.964186" lon="17.7071564">
        <ele>31.3801</ele>
        <time>2013-04-07T12:15:00Z</time>
      </trkpt>
      <trkpt lat="59.9641175" lon="17.7071399">
        <ele>31.3801</ele>
        <time>2013-04-07T12:15:01Z</time>
      </trkpt>
      <trkpt lat="59.9640488" lon="17.7071294">
        <ele>31.3801</ele>
        <time>2013-04-07T12:15:02Z</time>
      </trkpt>
      <trkpt lat="59.9639802" lon="17.7071189">
        <ele>31.3801</ele>
        <time>2013-04-07T12:15:03Z</time>
      </trkpt>
      <trkpt lat="59.9639112" lon="17.7071093">
        <ele>31.8607</ele>
        <time>2013-04-07T12:15:04Z</time>
      </trkpt>
      <trkpt lat="59.9638412" lon="17.707103">
        <ele>31.8607</ele>
        <time>2013-04-07T12:15:05Z</time>
      </trkpt>
      <trkpt lat="59.9637713" lon="17.7070964">
        <ele>31.8607</ele>
        <time>2013-04-07T12:15:06Z</time>
      </trkpt>
      <trkpt lat="59.9637017" lon="17.7070876">
        <ele>32.3416</ele>
        <time>2013-04-07T12:15:07Z</time>
      </trkpt>
      <trkpt lat="59.963632" lon="17.707081">
        <ele>32.3416</ele>
        <time>2013-04-07T12:15:08Z</time>
      </trkpt>
      <trkpt lat="59.9635631" lon="17.7070762">
        <ele>32.3416</ele>
        <time>2013-04-07T12:15:09Z</time>
      </trkpt>
      <trkpt lat="59.9634942" lon="17.707073">
        <ele>32.3416</ele>
        <time>2013-04-07T12:15:10Z</time>
      </trkpt>
      <trkpt lat="59.9634252" lon="17.7070714">
        <ele>32.8223</ele>
        <time>2013-04-07T12:15:11Z</time>
      </trkpt>
      <trkpt lat="59.9633557" lon="17.7070694">
        <ele>32.8223</ele>
        <time>2013-04-07T12:15:12Z</time>
      </trkpt>
      <trkpt lat="59.9632859" lon="17.7070693">
        <ele>32.8223</ele>
        <time>2013-04-07T12:15:13Z</time>
      </trkpt>
      <trkpt lat="59.9632156" lon="17.7070707">
        <ele>32.8223</ele>
        <time>2013-04-07T12:15:14Z</time>
      </trkpt>
      <trkpt lat="59.9631446" lon="17.7070707">
        <ele>33.3029</ele>
        <time>2013-04-07T12:15:15Z</time>
      </trkpt>
      <trkpt lat="59.9630732" lon="17.7070717">
        <ele>33.3029</ele>
        <time>2013-04-07T12:15:16Z</time>
      </trkpt>
      <trkpt lat="59.9630014" lon="17.707075">
        <ele>33.3029</ele>
        <time>2013-04-07T12:15:17Z</time>
      </trkpt>
      <trkpt lat="59.962929" lon="17.707078">
        <ele>33.3029</ele>
        <time>2013-04-07T12:15:18Z</time>
      </trkpt>
      <trkpt lat="59.9628568" lon="17.7070759">
        <ele>33.3029</ele>
        <time>2013-04-07T12:15:19Z</time>
      </trkpt>
      <trkpt lat="59.9627857" lon="17.7070676">
        <ele>33.3029</ele>
        <time>2013-04-07T12:15:20Z</time>
      </trkpt>
      <trkpt lat="59.9627161" lon="17.7070559">
        <ele>33.7834</ele>
        <time>2013-04-07T12:15:21Z</time>
      </trkpt>
      <trkpt lat="59.9626476" lon="17.7070423">
        <ele>33.7834</ele>
        <time>2013-04-07T12:15:22Z</time>
      </trkpt>
      <trkpt lat="59.9625805" lon="17.7070258">
        <ele>33.7834</ele>
        <time>2013-04-07T12:15:23Z</time>
      </trkpt>
      <trkpt lat="59.9625146" lon="17.7070056">
        <ele>34.2642</ele>
        <time>2013-04-07T12:15:24Z</time>
      </trkpt>
      <trkpt lat="59.9624495" lon="17.7069822">
        <ele>34.2642</ele>
        <time>2013-04-07T12:15:25Z</time>
      </trkpt>
      <trkpt lat="59.9623852" lon="17.7069559">
        <ele>34.2642</ele>
        <time>2013-04-07T12:15:26Z</time>
      </trkpt>
      <trkpt lat="59.9623218" lon="17.7069263">
        <ele>34.2642</ele>
        <time>2013-04-07T12:15:27Z</time>
      </trkpt>
      <trkpt lat="59.9622587" lon="17.7068943">
        <ele>34.2642</ele>
        <time>2013-04-07T12:15:28Z</time>
      </trkpt>
      <trkpt lat="59.9621957" lon="17.7068609">
        <ele>34.2642</ele>
        <time>2013-04-07T12:15:29Z</time>
      </trkpt>
      <trkpt lat="59.9621332" lon="17.7068228">
        <ele>34.7449</ele>
        <time>2013-04-07T12:15:30Z</time>
      </trkpt>
      <trkpt lat="59.9620707" lon="17.706783">
        <ele>34.7449</ele>
        <time>2013-04-07T12:15:31Z</time>
      </trkpt>
      <trkpt lat="59.9620091" lon="17.706742">
        <ele>34.7449</ele>
        <time>2013-04-07T12:15:32Z</time>
      </trkpt>
      <trkpt lat="59.9619473" lon="17.706699">
        <ele>34.7449</ele>
        <time>2013-04-07T12:15:33Z</time>
      </trkpt>
      <trkpt lat="59.9618857" lon="17.7066568">
        <ele>34.7449</ele>
        <time>2013-04-07T12:15:34Z</time>
      </trkpt>
      <trkpt lat="59.9618251" lon="17.7066099">
        <ele>34.2642</ele>
        <time>2013-04-07T12:15:35Z</time>
      </trkpt>
      <trkpt lat="59.9617666" lon="17.7065564">
        <ele>34.2642</ele>
        <time>2013-04-07T12:15:36Z</time>
      </trkpt>
      <trkpt lat="59.9617105" lon="17.7064949">
        <ele>33.7834</ele>
        <time>2013-04-07T12:15:37Z</time>
      </trkpt>
      <trkpt lat="59.9616533" lon="17.7064299">
        <ele>33.7834</ele>
        <time>2013-04-07T12:15:38Z</time>
      </trkpt>
      <trkpt lat="59.9615972" lon="17.7063592">
        <ele>33.7834</ele>
        <time>2013-04-07T12:15:39Z</time>
      </trkpt>
      <trkpt lat="59.9615429" lon="17.7062799">
        <ele>33.3029</ele>
        <time>2013-04-07T12:15:40Z</time>
      </trkpt>
      <trkpt lat="59.9614899" lon="17.7061945">
        <ele>33.3029</ele>
        <time>2013-04-07T12:15:41Z</time>
      </trkpt>
      <trkpt lat="59.9614377" lon="17.7061057">
        <ele>33.3029</ele>
        <time>2013-04-07T12:15:42Z</time>
      </trkpt>
      <trkpt lat="59.9613865" lon="17.706014">
        <ele>33.3029</ele>
        <time>2013-04-07T12:15:43Z</time>
      </trkpt>
      <trkpt lat="59.9613354" lon="17.7059199">
        <ele>33.3029</ele>
        <time>2013-04-07T12:15:44Z</time>
      </trkpt>
      <trkpt lat="59.9612837" lon="17.7058266">
        <ele>33.3029</ele>
        <time>2013-04-07T12:15:45Z</time>
      </trkpt>
      <trkpt lat="59.9612314" lon="17.705733">
        <ele>33.3029</ele>
        <time>2013-04-07T12:15:46Z</time>
      </trkpt>
      <trkpt lat="59.9611782" lon="17.7056392">
        <ele>32.8223</ele>
        <time>2013-04-07T12:15:47Z</time>
      </trkpt>
      <trkpt lat="59.9611244" lon="17.7055443">
        <ele>32.8223</ele>
        <time>2013-04-07T12:15:48Z</time>
      </trkpt>
      <trkpt lat="59.9610694" lon="17.7054494">
        <ele>32.8223</ele>
        <time>2013-04-07T12:15:49Z</time>
      </trkpt>
      <trkpt lat="59.9610114" lon="17.7053563">
        <ele>32.8223</ele>
        <time>2013-04-07T12:15:50Z</time>
      </trkpt>
      <trkpt lat="59.9609513" lon="17.7052666">
        <ele>32.8223</ele>
        <time>2013-04-07T12:15:51Z</time>
      </trkpt>
      <trkpt lat="59.9608881" lon="17.7051813">
        <ele>32.8223</ele>
        <time>2013-04-07T12:15:52Z</time>
      </trkpt>
      <trkpt lat="59.9608233" lon="17.7050966">
        <ele>32.8223</ele>
        <time>2013-04-07T12:15:53Z</time>
      </trkpt>
      <trkpt lat="59.9607582" lon="17.7050096">
        <ele>32.8223</ele>
        <time>2013-04-07T12:15:54Z</time>
      </trkpt>
      <trkpt lat="59.9606931" lon="17.7049233">
        <ele>33.3029</ele>
        <time>2013-04-07T12:15:55Z</time>
      </trkpt>
      <trkpt lat="59.9606278" lon="17.7048403">
        <ele>33.3029</ele>
        <time>2013-04-07T12:15:56Z</time>
      </trkpt>
      <trkpt lat="59.9605622" lon="17.7047604">
        <ele>33.3029</ele>
        <time>2013-04-07T12:15:57Z</time>
      </trkpt>
      <trkpt lat="59.9604964" lon="17.7046797">
        <ele>33.3029</ele>
        <time>2013-04-07T12:15:58Z</time>
      </trkpt>
      <trkpt lat="59.9604292" lon="17.7045999">
        <ele>33.3029</ele>
        <time>2013-04-07T12:15:59Z</time>
      </trkpt>
      <trkpt lat="59.9603605" lon="17.7045202">
        <ele>33.3029</ele>
        <time>2013-04-07T12:16:00Z</time>
      </trkpt>
      <trkpt lat="59.9602913" lon="17.7044392">
        <ele>33.3029</ele>
        <time>2013-04-07T12:16:01Z</time>
      </trkpt>
      <trkpt lat="59.960224" lon="17.7043542">
        <ele>33.7834</ele>
        <time>2013-04-07T12:16:02Z</time>
      </trkpt>
      <trkpt lat="59.9601607" lon="17.704262">
        <ele>33.7834</ele>
        <time>2013-04-07T12:16:03Z</time>
      </trkpt>
      <trkpt lat="59.9601038" lon="17.7041618">
        <ele>33.7834</ele>
        <time>2013-04-07T12:16:04Z</time>
      </trkpt>
      <trkpt lat="59.9600515" lon="17.704053">
        <ele>33.7834</ele>
        <time>2013-04-07T12:16:05Z</time>
      </trkpt>
      <trkpt lat="59.9600033" lon="17.7039342">
        <ele>33.7834</ele>
        <time>2013-04-07T12:16:06Z</time>
      </trkpt>
      <trkpt lat="59.9599594" lon="17.703807">
        <ele>33.7834</ele>
        <time>2013-04-07T12:16:07Z</time>
      </trkpt>
      <trkpt lat="59.9599188" lon="17.7036791">
        <ele>34.2642</ele>
        <time>2013-04-07T12:16:08Z</time>
      </trkpt>
      <trkpt lat="59.95988" lon="17.7035514">
        <ele>34.2642</ele>
        <time>2013-04-07T12:16:09Z</time>
      </trkpt>
      <trkpt lat="59.9598438" lon="17.7034278">
        <ele>34.2642</ele>
        <time>2013-04-07T12:16:10Z</time>
      </trkpt>
      <trkpt lat="59.959808" lon="17.7033055">
        <ele>34.2642</ele>
        <time>2013-04-07T12:16:11Z</time>
      </trkpt>
      <trkpt lat="59.9597722" lon="17.7031852">
        <ele>34.2642</ele>
        <time>2013-04-07T12:16:12Z</time>
      </trkpt>
      <trkpt lat="59.9597365" lon="17.703067">
        <ele>34.2642</ele>
        <time>2013-04-07T12:16:13Z</time>
      </trkpt>
      <trkpt lat="59.9597014" lon="17.7029501">
        <ele>34.2642</ele>
        <time>2013-04-07T12:16:14Z</time>
      </trkpt>
      <trkpt lat="59.9596664" lon="17.7028351">
        <ele>34.2642</ele>
        <time>2013-04-07T12:16:15Z</time>
      </trkpt>
      <trkpt lat="59.9596329" lon="17.7027206">
        <ele>34.2642</ele>
        <time>2013-04-07T12:16:16Z</time>
      </trkpt>
      <trkpt lat="59.9596003" lon="17.7026056">
        <ele>34.2642</ele>
        <time>2013-04-07T12:16:17Z</time>
      </trkpt>
      <trkpt lat="59.959567" lon="17.7024882">
        <ele>34.2642</ele>
        <time>2013-04-07T12:16:18Z</time>
      </trkpt>
      <trkpt lat="59.9595334" lon="17.702368">
        <ele>33.7834</ele>
        <time>2013-04-07T12:16:19Z</time>
      </trkpt>
      <trkpt lat="59.9595044" lon="17.7022465">
        <ele>33.3029</ele>
        <time>2013-04-07T12:16:20Z</time>
      </trkpt>
      <trkpt lat="59.9594729" lon="17.702128">
        <ele>33.3029</ele>
        <time>2013-04-07T12:16:21Z</time>
      </trkpt>
      <trkpt lat="59.9594381" lon="17.7020079">
        <ele>32.8223</ele>
        <time>2013-04-07T12:16:22Z</time>
      </trkpt>
      <trkpt lat="59.9594057" lon="17.701886">
        <ele>32.8223</ele>
        <time>2013-04-07T12:16:23Z</time>
      </trkpt>
      <trkpt lat="59.9593755" lon="17.7017622">
        <ele>32.3416</ele>
        <time>2013-04-07T12:16:24Z</time>
      </trkpt>
      <trkpt lat="59.959347" lon="17.7016378">
        <ele>32.3416</ele>
        <time>2013-04-07T12:16:25Z</time>
      </trkpt>
      <trkpt lat="59.9593175" lon="17.7015135">
        <ele>31.8607</ele>
        <time>2013-04-07T12:16:26Z</time>
      </trkpt>
      <trkpt lat="59.9592917" lon="17.7013882">
        <ele>31.3801</ele>
        <time>2013-04-07T12:16:27Z</time>
      </trkpt>
      <trkpt lat="59.9592693" lon="17.7012609">
        <ele>31.3801</ele>
        <time>2013-04-07T12:16:28Z</time>
      </trkpt>
      <trkpt lat="59.9592506" lon="17.7011307">
        <ele>30.8995</ele>
        <time>2013-04-07T12:16:29Z</time>
      </trkpt>
      <trkpt lat="59.9592371" lon="17.7010003">
        <ele>30.4188</ele>
        <time>2013-04-07T12:16:30Z</time>
      </trkpt>
      <trkpt lat="59.9592238" lon="17.7008699">
        <ele>29.9381</ele>
        <time>2013-04-07T12:16:31Z</time>
      </trkpt>
      <trkpt lat="59.9592112" lon="17.7007367">
        <ele>29.4575</ele>
        <time>2013-04-07T12:16:32Z</time>
      </trkpt>
      <trkpt lat="59.9591983" lon="17.7006019">
        <ele>28.9769</ele>
        <time>2013-04-07T12:16:33Z</time>
      </trkpt>
      <trkpt lat="59.959185" lon="17.7004658">
        <ele>28.9769</ele>
        <time>2013-04-07T12:16:34Z</time>
      </trkpt>
      <trkpt lat="59.9591705" lon="17.7003296">
        <ele>28.4962</ele>
        <time>2013-04-07T12:16:35Z</time>
      </trkpt>
      <trkpt lat="59.9591553" lon="17.7001936">
        <ele>28.4962</ele>
        <time>2013-04-07T12:16:36Z</time>
      </trkpt>
      <trkpt lat="59.9591406" lon="17.700057">
        <ele>28.4962</ele>
        <time>2013-04-07T12:16:37Z</time>
      </trkpt>
      <trkpt lat="59.9591257" lon="17.6999194">
        <ele>28.0155</ele>
        <time>2013-04-07T12:16:38Z</time>
      </trkpt>
      <trkpt lat="59.9591113" lon="17.6997816">
        <ele>28.0155</ele>
        <time>2013-04-07T12:16:39Z</time>
      </trkpt>
      <trkpt lat="59.9590994" lon="17.6996432">
        <ele>28.0155</ele>
        <time>2013-04-07T12:16:40Z</time>
      </trkpt>
      <trkpt lat="59.9590907" lon="17.6995059">
        <ele>27.5349</ele>
        <time>2013-04-07T12:16:41Z</time>
      </trkpt>
      <trkpt lat="59.9590831" lon="17.6993707">
        <ele>27.5349</ele>
        <time>2013-04-07T12:16:42Z</time>
      </trkpt>
      <trkpt lat="59.9590754" lon="17.6992368">
        <ele>27.0543</ele>
        <time>2013-04-07T12:16:43Z</time>
      </trkpt>
      <trkpt lat="59.9590686" lon="17.6991044">
        <ele>27.5349</ele>
        <time>2013-04-07T12:16:44Z</time>
      </trkpt>
      <trkpt lat="59.9590631" lon="17.6989745">
        <ele>27.5349</ele>
        <time>2013-04-07T12:16:45Z</time>
      </trkpt>
      <trkpt lat="59.95906" lon="17.6988458">
        <ele>28.0155</ele>
        <time>2013-04-07T12:16:46Z</time>
      </trkpt>
      <trkpt lat="59.9590581" lon="17.698718">
        <ele>28.4962</ele>
        <time>2013-04-07T12:16:47Z</time>
      </trkpt>
      <trkpt lat="59.959056" lon="17.6985904">
        <ele>28.4962</ele>
        <time>2013-04-07T12:16:48Z</time>
      </trkpt>
      <trkpt lat="59.9590523" lon="17.6984636">
        <ele>28.0155</ele>
        <time>2013-04-07T12:16:49Z</time>
      </trkpt>
      <trkpt lat="59.9590476" lon="17.6983347">
        <ele>28.0155</ele>
        <time>2013-04-07T12:16:50Z</time>
      </trkpt>
      <trkpt lat="59.959042" lon="17.6982047">
        <ele>28.0155</ele>
        <time>2013-04-07T12:16:51Z</time>
      </trkpt>
      <trkpt lat="59.9590344" lon="17.6980757">
        <ele>27.5349</ele>
        <time>2013-04-07T12:16:52Z</time>
      </trkpt>
      <trkpt lat="59.9590239" lon="17.6979459">
        <ele>27.0543</ele>
        <time>2013-04-07T12:16:53Z</time>
      </trkpt>
      <trkpt lat="59.9590104" lon="17.6978142">
        <ele>26.5736</ele>
        <time>2013-04-07T12:16:54Z</time>
      </trkpt>
      <trkpt lat="59.9589932" lon="17.69768">
        <ele>26.5736</ele>
        <time>2013-04-07T12:16:55Z</time>
      </trkpt>
      <trkpt lat="59.9589731" lon="17.6975421">
        <ele>25.6123</ele>
        <time>2013-04-07T12:16:56Z</time>
      </trkpt>
      <trkpt lat="59.9589512" lon="17.6974003">
        <ele>25.1317</ele>
        <time>2013-04-07T12:16:57Z</time>
      </trkpt>
      <trkpt lat="59.9589263" lon="17.6972566">
        <ele>24.651</ele>
        <time>2013-04-07T12:16:58Z</time>
      </trkpt>
      <trkpt lat="59.9588979" lon="17.6971109">
        <ele>24.651</ele>
        <time>2013-04-07T12:16:59Z</time>
      </trkpt>
      <trkpt lat="59.9588679" lon="17.6969638">
        <ele>24.651</ele>
        <time>2013-04-07T12:17:00Z</time>
      </trkpt>
      <trkpt lat="59.9588361" lon="17.6968184">
        <ele>24.651</ele>
        <time>2013-04-07T12:17:01Z</time>
      </trkpt>
      <trkpt lat="59.9588011" lon="17.6966825">
        <ele>24.1703</ele>
        <time>2013-04-07T12:17:02Z</time>
      </trkpt>
      <trkpt lat="59.9587638" lon="17.6965501">
        <ele>23.6896</ele>
        <time>2013-04-07T12:17:03Z</time>
      </trkpt>
      <trkpt lat="59.958724" lon="17.6964199">
        <ele>23.6896</ele>
        <time>2013-04-07T12:17:04Z</time>
      </trkpt>
      <trkpt lat="59.9586808" lon="17.6962917">
        <ele>23.209</ele>
        <time>2013-04-07T12:17:05Z</time>
      </trkpt>
      <trkpt lat="59.9586348" lon="17.6961656">
        <ele>23.209</ele>
        <time>2013-04-07T12:17:06Z</time>
      </trkpt>
      <trkpt lat="59.9585871" lon="17.6960404">
        <ele>22.7283</ele>
        <time>2013-04-07T12:17:07Z</time>
      </trkpt>
      <trkpt lat="59.9585378" lon="17.6959138">
        <ele>22.7283</ele>
        <time>2013-04-07T12:17:08Z</time>
      </trkpt>
      <trkpt lat="59.9584864" lon="17.695785">
        <ele>22.7283</ele>
        <time>2013-04-07T12:17:09Z</time>
      </trkpt>
      <trkpt lat="59.9584338" lon="17.6956544">
        <ele>22.2476</ele>
        <time>2013-04-07T12:17:10Z</time>
      </trkpt>
      <trkpt lat="59.9583814" lon="17.6955234">
        <ele>22.2476</ele>
        <time>2013-04-07T12:17:11Z</time>
      </trkpt>
      <trkpt lat="59.9583302" lon="17.6953917">
        <ele>21.767</ele>
        <time>2013-04-07T12:17:12Z</time>
      </trkpt>
      <trkpt lat="59.9582788" lon="17.6952554">
        <ele>21.767</ele>
        <time>2013-04-07T12:17:13Z</time>
      </trkpt>
      <trkpt lat="59.9582271" lon="17.6951163">
        <ele>22.2476</ele>
        <time>2013-04-07T12:17:14Z</time>
      </trkpt>
      <trkpt lat="59.9581768" lon="17.694979">
        <ele>22.2476</ele>
        <time>2013-04-07T12:17:15Z</time>
      </trkpt>
      <trkpt lat="59.9581272" lon="17.6948423">
        <ele>22.7283</ele>
        <time>2013-04-07T12:17:16Z</time>
      </trkpt>
      <trkpt lat="59.9580793" lon="17.6947073">
        <ele>22.7283</ele>
        <time>2013-04-07T12:17:17Z</time>
      </trkpt>
      <trkpt lat="59.9580324" lon="17.6945729">
        <ele>22.7283</ele>
        <time>2013-04-07T12:17:18Z</time>
      </trkpt>
      <trkpt lat="59.9579868" lon="17.6944397">
        <ele>23.209</ele>
        <time>2013-04-07T12:17:19Z</time>
      </trkpt>
      <trkpt lat="59.9579418" lon="17.6943102">
        <ele>23.209</ele>
        <time>2013-04-07T12:17:20Z</time>
      </trkpt>
      <trkpt lat="59.9578974" lon="17.6941838">
        <ele>23.209</ele>
        <time>2013-04-07T12:17:21Z</time>
      </trkpt>
      <trkpt lat="59.9578534" lon="17.6940586">
        <ele>23.209</ele>
        <time>2013-04-07T12:17:22Z</time>
      </trkpt>
      <trkpt lat="59.957809" lon="17.6939347">
        <ele>23.209</ele>
        <time>2013-04-07T12:17:23Z</time>
      </trkpt>
      <trkpt lat="59.9577653" lon="17.6938109">
        <ele>23.6896</ele>
        <time>2013-04-07T12:17:24Z</time>
      </trkpt>
      <trkpt lat="59.9577221" lon="17.693686">
        <ele>23.6896</ele>
        <time>2013-04-07T12:17:25Z</time>
      </trkpt>
      <trkpt lat="59.9576795" lon="17.693559">
        <ele>23.6896</ele>
        <time>2013-04-07T12:17:26Z</time>
      </trkpt>
      <trkpt lat="59.9576364" lon="17.6934312">
        <ele>23.6896</ele>
        <time>2013-04-07T12:17:27Z</time>
      </trkpt>
      <trkpt lat="59.9575915" lon="17.6933058">
        <ele>23.6896</ele>
        <time>2013-04-07T12:17:28Z</time>
      </trkpt>
      <trkpt lat="59.957547" lon="17.6931816">
        <ele>23.6896</ele>
        <time>2013-04-07T12:17:29Z</time>
      </trkpt>
      <trkpt lat="59.9575033" lon="17.6930566">
        <ele>23.6896</ele>
        <time>2013-04-07T12:17:30Z</time>
      </trkpt>
      <trkpt lat="59.9574598" lon="17.6929309">
        <ele>23.6896</ele>
        <time>2013-04-07T12:17:31Z</time>
      </trkpt>
      <trkpt lat="59.9574168" lon="17.6928064">
        <ele>24.1703</ele>
        <time>2013-04-07T12:17:32Z</time>
      </trkpt>
      <trkpt lat="59.957374" lon="17.6926833">
        <ele>24.1703</ele>
        <time>2013-04-07T12:17:33Z</time>
      </trkpt>
      <trkpt lat="59.9573315" lon="17.6925621">
        <ele>24.1703</ele>
        <time>2013-04-07T12:17:34Z</time>
      </trkpt>
      <trkpt lat="59.95729" lon="17.6924423">
        <ele>24.1703</ele>
        <time>2013-04-07T12:17:35Z</time>
      </trkpt>
      <trkpt lat="59.9572505" lon="17.6923196">
        <ele>23.6896</ele>
        <time>2013-04-07T12:17:36Z</time>
      </trkpt>
      <trkpt lat="59.9572118" lon="17.6922015">
        <ele>24.1703</ele>
        <time>2013-04-07T12:17:37Z</time>
      </trkpt>
      <trkpt lat="59.9571749" lon="17.6920883">
        <ele>24.1703</ele>
        <time>2013-04-07T12:17:38Z</time>
      </trkpt>
      <trkpt lat="59.9571349" lon="17.6919761">
        <ele>23.6896</ele>
        <time>2013-04-07T12:17:39Z</time>
      </trkpt>
      <trkpt lat="59.957094" lon="17.6918642">
        <ele>23.6896</ele>
        <time>2013-04-07T12:17:40Z</time>
      </trkpt>
      <trkpt lat="59.9570537" lon="17.6917518">
        <ele>23.6896</ele>
        <time>2013-04-07T12:17:41Z</time>
      </trkpt>
      <trkpt lat="59.9570148" lon="17.6916394">
        <ele>23.6896</ele>
        <time>2013-04-07T12:17:42Z</time>
      </trkpt>
      <trkpt lat="59.9569765" lon="17.6915292">
        <ele>23.6896</ele>
        <time>2013-04-07T12:17:43Z</time>
      </trkpt>
      <trkpt lat="59.9569377" lon="17.691423">
        <ele>24.1703</ele>
        <time>2013-04-07T12:17:44Z</time>
      </trkpt>
      <trkpt lat="59.9569002" lon="17.6913194">
        <ele>24.1703</ele>
        <time>2013-04-07T12:17:45Z</time>
      </trkpt>
      <trkpt lat="59.9568656" lon="17.6912176">
        <ele>24.651</ele>
        <time>2013-04-07T12:17:46Z</time>
      </trkpt>
      <trkpt lat="59.956833" lon="17.6911178">
        <ele>24.651</ele>
        <time>2013-04-07T12:17:47Z</time>
      </trkpt>
      <trkpt lat="59.9568006" lon="17.691024">
        <ele>25.1317</ele>
        <time>2013-04-07T12:17:48Z</time>
      </trkpt>
      <trkpt lat="59.9567703" lon="17.6909353">
        <ele>25.6123</ele>
        <time>2013-04-07T12:17:49Z</time>
      </trkpt>
      <trkpt lat="59.9567407" lon="17.69085">
        <ele>25.6123</ele>
        <time>2013-04-07T12:17:50Z</time>
      </trkpt>
      <trkpt lat="59.9567132" lon="17.6907672">
        <ele>26.0929</ele>
        <time>2013-04-07T12:17:51Z</time>
      </trkpt>
      <trkpt lat="59.9566856" lon="17.6906853">
        <ele>26.5736</ele>
        <time>2013-04-07T12:17:52Z</time>
      </trkpt>
      <trkpt lat="59.9566581" lon="17.6906034">
        <ele>26.5736</ele>
        <time>2013-04-07T12:17:53Z</time>
      </trkpt>
      <trkpt lat="59.956629" lon="17.6905225">
        <ele>26.5736</ele>
        <time>2013-04-07T12:17:54Z</time>
      </trkpt>
      <trkpt lat="59.956602" lon="17.6904415">
        <ele>26.5736</ele>
        <time>2013-04-07T12:17:55Z</time>
      </trkpt>
      <trkpt lat="59.9565737" lon="17.6903649">
        <ele>27.0543</ele>
        <time>2013-04-07T12:17:56Z</time>
      </trkpt>
      <trkpt lat="59.9565472" lon="17.6902878">
        <ele>27.0543</ele>
        <time>2013-04-07T12:17:57Z</time>
      </trkpt>
      <trkpt lat="59.956519" lon="17.6902118">
        <ele>27.5349</ele>
        <time>2013-04-07T12:17:58Z</time>
      </trkpt>
      <trkpt lat="59.9564907" lon="17.6901326">
        <ele>27.5349</ele>
        <time>2013-04-07T12:17:59Z</time>
      </trkpt>
      <trkpt lat="59.9564617" lon="17.69006">
        <ele>28.0155</ele>
        <time>2013-04-07T12:18:00Z</time>
      </trkpt>
      <trkpt lat="59.9564354" lon="17.6899849">
        <ele>28.4962</ele>
        <time>2013-04-07T12:18:01Z</time>
      </trkpt>
      <trkpt lat="59.9564124" lon="17.689903">
        <ele>28.9769</ele>
        <time>2013-04-07T12:18:02Z</time>
      </trkpt>
      <trkpt lat="59.9563902" lon="17.6898166">
        <ele>28.9769</ele>
        <time>2013-04-07T12:18:03Z</time>
      </trkpt>
      <trkpt lat="59.956368" lon="17.689728">
        <ele>28.9769</ele>
        <time>2013-04-07T12:18:04Z</time>
      </trkpt>
      <trkpt lat="59.9563472" lon="17.6896397">
        <ele>28.9769</ele>
        <time>2013-04-07T12:18:05Z</time>
      </trkpt>
      <trkpt lat="59.9563291" lon="17.6895523">
        <ele>28.9769</ele>
        <time>2013-04-07T12:18:06Z</time>
      </trkpt>
      <trkpt lat="59.956312" lon="17.6894644">
        <ele>28.4962</ele>
        <time>2013-04-07T12:18:07Z</time>
      </trkpt>
      <trkpt lat="59.9562936" lon="17.6893777">
        <ele>28.4962</ele>
        <time>2013-04-07T12:18:08Z</time>
      </trkpt>
      <trkpt lat="59.956274" lon="17.6892913">
        <ele>28.4962</ele>
        <time>2013-04-07T12:18:09Z</time>
      </trkpt>
      <trkpt lat="59.9562536" lon="17.6892067">
        <ele>28.0155</ele>
        <time>2013-04-07T12:18:10Z</time>
      </trkpt>
      <trkpt lat="59.956229" lon="17.6891286">
        <ele>28.0155</ele>
        <time>2013-04-07T12:18:11Z</time>
      </trkpt>
      <trkpt lat="59.956199" lon="17.6890606">
        <ele>28.0155</ele>
        <time>2013-04-07T12:18:12Z</time>
      </trkpt>
      <trkpt lat="59.956167" lon="17.6889971">
        <ele>28.0155</ele>
        <time>2013-04-07T12:18:13Z</time>
      </trkpt>
      <trkpt lat="59.9561333" lon="17.6889347">
        <ele>27.5349</ele>
        <time>2013-04-07T12:18:14Z</time>
      </trkpt>
      <trkpt lat="59.9561017" lon="17.6888665">
        <ele>27.5349</ele>
        <time>2013-04-07T12:18:15Z</time>
      </trkpt>
      <trkpt lat="59.9560701" lon="17.6887896">
        <ele>27.5349</ele>
        <time>2013-04-07T12:18:16Z</time>
      </trkpt>
      <trkpt lat="59.9560442" lon="17.6886958">
        <ele>27.0543</ele>
        <time>2013-04-07T12:18:17Z</time>
      </trkpt>
      <trkpt lat="59.9560219" lon="17.6885893">
        <ele>26.5736</ele>
        <time>2013-04-07T12:18:18Z</time>
      </trkpt>
      <trkpt lat="59.956006" lon="17.6884746">
        <ele>26.5736</ele>
        <time>2013-04-07T12:18:19Z</time>
      </trkpt>
      <trkpt lat="59.955992" lon="17.6883578">
        <ele>26.5736</ele>
        <time>2013-04-07T12:18:20Z</time>
      </trkpt>
      <trkpt lat="59.9559763" lon="17.6882393">
        <ele>26.0929</ele>
        <time>2013-04-07T12:18:21Z</time>
      </trkpt>
      <trkpt lat="59.9559588" lon="17.6881198">
        <ele>26.0929</ele>
        <time>2013-04-07T12:18:22Z</time>
      </trkpt>
      <trkpt lat="59.9559421" lon="17.6879992">
        <ele>26.0929</ele>
        <time>2013-04-07T12:18:23Z</time>
      </trkpt>
      <trkpt lat="59.9559256" lon="17.6878777">
        <ele>26.0929</ele>
        <time>2013-04-07T12:18:24Z</time>
      </trkpt>
      <trkpt lat="59.9559077" lon="17.6877574">
        <ele>26.0929</ele>
        <time>2013-04-07T12:18:25Z</time>
      </trkpt>
      <trkpt lat="59.9558877" lon="17.6876367">
        <ele>26.0929</ele>
        <time>2013-04-07T12:18:26Z</time>
      </trkpt>
      <trkpt lat="59.9558674" lon="17.687517">
        <ele>26.0929</ele>
        <time>2013-04-07T12:18:27Z</time>
      </trkpt>
      <trkpt lat="59.9558488" lon="17.6874009">
        <ele>26.0929</ele>
        <time>2013-04-07T12:18:28Z</time>
      </trkpt>
      <trkpt lat="59.9558316" lon="17.687291">
        <ele>25.6123</ele>
        <time>2013-04-07T12:18:29Z</time>
      </trkpt>
      <trkpt lat="59.9558163" lon="17.6871897">
        <ele>25.6123</ele>
        <time>2013-04-07T12:18:30Z</time>
      </trkpt>
      <trkpt lat="59.9558026" lon="17.6870998">
        <ele>25.6123</ele>
        <time>2013-04-07T12:18:31Z</time>
      </trkpt>
      <trkpt lat="59.9557907" lon="17.6870201">
        <ele>25.6123</ele>
        <time>2013-04-07T12:18:32Z</time>
      </trkpt>
      <trkpt lat="59.9557821" lon="17.6869413">
        <ele>25.6123</ele>
        <time>2013-04-07T12:18:33Z</time>
      </trkpt>
      <trkpt lat="59.9557716" lon="17.6868585">
        <ele>25.6123</ele>
        <time>2013-04-07T12:18:34Z</time>
      </trkpt>
      <trkpt lat="59.9557535" lon="17.6867685">
        <ele>25.1317</ele>
        <time>2013-04-07T12:18:35Z</time>
      </trkpt>
      <trkpt lat="59.9557387" lon="17.6866731">
        <ele>25.1317</ele>
        <time>2013-04-07T12:18:36Z</time>
      </trkpt>
      <trkpt lat="59.9557269" lon="17.6865701">
        <ele>25.1317</ele>
        <time>2013-04-07T12:18:37Z</time>
      </trkpt>
      <trkpt lat="59.9557135" lon="17.6864615">
        <ele>25.1317</ele>
        <time>2013-04-07T12:18:38Z</time>
      </trkpt>
      <trkpt lat="59.9556993" lon="17.6863474">
        <ele>25.1317</ele>
        <time>2013-04-07T12:18:39Z</time>
      </trkpt>
      <trkpt lat="59.9556838" lon="17.6862276">
        <ele>25.1317</ele>
        <time>2013-04-07T12:18:40Z</time>
      </trkpt>
      <trkpt lat="59.9556675" lon="17.6861048">
        <ele>25.1317</ele>
        <time>2013-04-07T12:18:41Z</time>
      </trkpt>
      <trkpt lat="59.9556505" lon="17.6859806">
        <ele>25.1317</ele>
        <time>2013-04-07T12:18:42Z</time>
      </trkpt>
      <trkpt lat="59.9556327" lon="17.6858542">
        <ele>25.6123</ele>
        <time>2013-04-07T12:18:43Z</time>
      </trkpt>
      <trkpt lat="59.9556145" lon="17.6857258">
        <ele>25.6123</ele>
        <time>2013-04-07T12:18:44Z</time>
      </trkpt>
      <trkpt lat="59.9555962" lon="17.6855959">
        <ele>25.6123</ele>
        <time>2013-04-07T12:18:45Z</time>
      </trkpt>
      <trkpt lat="59.9555776" lon="17.6854655">
        <ele>25.6123</ele>
        <time>2013-04-07T12:18:46Z</time>
      </trkpt>
      <trkpt lat="59.9555577" lon="17.6853334">
        <ele>25.6123</ele>
        <time>2013-04-07T12:18:47Z</time>
      </trkpt>
      <trkpt lat="59.955537" lon="17.685198">
        <ele>26.0929</ele>
        <time>2013-04-07T12:18:48Z</time>
      </trkpt>
      <trkpt lat="59.9555164" lon="17.6850591">
        <ele>26.0929</ele>
        <time>2013-04-07T12:18:49Z</time>
      </trkpt>
      <trkpt lat="59.9554961" lon="17.6849177">
        <ele>26.0929</ele>
        <time>2013-04-07T12:18:50Z</time>
      </trkpt>
      <trkpt lat="59.9554742" lon="17.6847757">
        <ele>26.0929</ele>
        <time>2013-04-07T12:18:51Z</time>
      </trkpt>
      <trkpt lat="59.9554508" lon="17.6846332">
        <ele>26.0929</ele>
        <time>2013-04-07T12:18:52Z</time>
      </trkpt>
      <trkpt lat="59.9554268" lon="17.6844903">
        <ele>26.0929</ele>
        <time>2013-04-07T12:18:53Z</time>
      </trkpt>
      <trkpt lat="59.9554019" lon="17.6843482">
        <ele>26.0929</ele>
        <time>2013-04-07T12:18:54Z</time>
      </trkpt>
      <trkpt lat="59.9553754" lon="17.6842073">
        <ele>26.0929</ele>
        <time>2013-04-07T12:18:55Z</time>
      </trkpt>
      <trkpt lat="59.955348" lon="17.6840671">
        <ele>26.0929</ele>
        <time>2013-04-07T12:18:56Z</time>
      </trkpt>
      <trkpt lat="59.9553208" lon="17.6839277">
        <ele>26.0929</ele>
        <time>2013-04-07T12:18:57Z</time>
      </trkpt>
      <trkpt lat="59.955292" lon="17.6837903">
        <ele>26.0929</ele>
        <time>2013-04-07T12:18:58Z</time>
      </trkpt>
      <trkpt lat="59.9552615" lon="17.6836547">
        <ele>26.0929</ele>
        <time>2013-04-07T12:18:59Z</time>
      </trkpt>
      <trkpt lat="59.9552312" lon="17.6835211">
        <ele>26.0929</ele>
        <time>2013-04-07T12:19:00Z</time>
      </trkpt>
      <trkpt lat="59.9552002" lon="17.6833916">
        <ele>26.5736</ele>
        <time>2013-04-07T12:19:01Z</time>
      </trkpt>
      <trkpt lat="59.9551676" lon="17.6832661">
        <ele>26.5736</ele>
        <time>2013-04-07T12:19:02Z</time>
      </trkpt>
      <trkpt lat="59.9551354" lon="17.6831431">
        <ele>26.5736</ele>
        <time>2013-04-07T12:19:03Z</time>
      </trkpt>
      <trkpt lat="59.955104" lon="17.6830222">
        <ele>26.5736</ele>
        <time>2013-04-07T12:19:04Z</time>
      </trkpt>
      <trkpt lat="59.9550714" lon="17.6829052">
        <ele>26.5736</ele>
        <time>2013-04-07T12:19:05Z</time>
      </trkpt>
      <trkpt lat="59.9550377" lon="17.6827912">
        <ele>27.0543</ele>
        <time>2013-04-07T12:19:06Z</time>
      </trkpt>
      <trkpt lat="59.9550045" lon="17.6826776">
        <ele>26.5736</ele>
        <time>2013-04-07T12:19:07Z</time>
      </trkpt>
      <trkpt lat="59.9549709" lon="17.682565">
        <ele>26.5736</ele>
        <time>2013-04-07T12:19:08Z</time>
      </trkpt>
      <trkpt lat="59.9549372" lon="17.6824547">
        <ele>26.5736</ele>
        <time>2013-04-07T12:19:09Z</time>
      </trkpt>
      <trkpt lat="59.9549035" lon="17.6823484">
        <ele>26.5736</ele>
        <time>2013-04-07T12:19:10Z</time>
      </trkpt>
      <trkpt lat="59.9548691" lon="17.6822417">
        <ele>26.5736</ele>
        <time>2013-04-07T12:19:11Z</time>
      </trkpt>
      <trkpt lat="59.9548352" lon="17.682137">
        <ele>26.5736</ele>
        <time>2013-04-07T12:19:12Z</time>
      </trkpt>
      <trkpt lat="59.9548002" lon="17.682035">
        <ele>26.5736</ele>
        <time>2013-04-07T12:19:13Z</time>
      </trkpt>
      <trkpt lat="59.9547546" lon="17.6819494">
        <ele>26.5736</ele>
        <time>2013-04-07T12:19:14Z</time>
      </trkpt>
      <trkpt lat="59.9547014" lon="17.6818794">
        <ele>26.5736</ele>
        <time>2013-04-07T12:19:15Z</time>
      </trkpt>
      <trkpt lat="59.9546512" lon="17.6818011">
        <ele>26.5736</ele>
        <time>2013-04-07T12:19:16Z</time>
      </trkpt>
      <trkpt lat="59.9546076" lon="17.6817091">
        <ele>26.5736</ele>
        <time>2013-04-07T12:19:17Z</time>
      </trkpt>
      <trkpt lat="59.9545678" lon="17.68161">
        <ele>26.5736</ele>
        <time>2013-04-07T12:19:18Z</time>
      </trkpt>
      <trkpt lat="59.9545316" lon="17.6815045">
        <ele>26.5736</ele>
        <time>2013-04-07T12:19:19Z</time>
      </trkpt>
      <trkpt lat="59.9544987" lon="17.6813941">
        <ele>26.5736</ele>
        <time>2013-04-07T12:19:20Z</time>
      </trkpt>
      <trkpt lat="59.9544668" lon="17.6812812">
        <ele>26.5736</ele>
        <time>2013-04-07T12:19:21Z</time>
      </trkpt>
      <trkpt lat="59.9544347" lon="17.6811676">
        <ele>26.5736</ele>
        <time>2013-04-07T12:19:22Z</time>
      </trkpt>
      <trkpt lat="59.954403" lon="17.6810518">
        <ele>26.5736</ele>
        <time>2013-04-07T12:19:23Z</time>
      </trkpt>
      <trkpt lat="59.9543706" lon="17.6809368">
        <ele>26.5736</ele>
        <time>2013-04-07T12:19:24Z</time>
      </trkpt>
      <trkpt lat="59.9543363" lon="17.680827">
        <ele>26.5736</ele>
        <time>2013-04-07T12:19:25Z</time>
      </trkpt>
      <trkpt lat="59.9543016" lon="17.6807204">
        <ele>26.5736</ele>
        <time>2013-04-07T12:19:26Z</time>
      </trkpt>
      <trkpt lat="59.9542664" lon="17.6806151">
        <ele>27.0543</ele>
        <time>2013-04-07T12:19:27Z</time>
      </trkpt>
      <trkpt lat="59.9542309" lon="17.6805098">
        <ele>27.0543</ele>
        <time>2013-04-07T12:19:28Z</time>
      </trkpt>
      <trkpt lat="59.954195" lon="17.6804043">
        <ele>27.0543</ele>
        <time>2013-04-07T12:19:29Z</time>
      </trkpt>
      <trkpt lat="59.9541585" lon="17.6802995">
        <ele>27.0543</ele>
        <time>2013-04-07T12:19:30Z</time>
      </trkpt>
      <trkpt lat="59.9541218" lon="17.6801938">
        <ele>27.0543</ele>
        <time>2013-04-07T12:19:31Z</time>
      </trkpt>
      <trkpt lat="59.9540852" lon="17.6800866">
        <ele>27.0543</ele>
        <time>2013-04-07T12:19:32Z</time>
      </trkpt>
      <trkpt lat="59.9540488" lon="17.67998">
        <ele>27.0543</ele>
        <time>2013-04-07T12:19:33Z</time>
      </trkpt>
      <trkpt lat="59.9540127" lon="17.6798743">
        <ele>27.0543</ele>
        <time>2013-04-07T12:19:34Z</time>
      </trkpt>
      <trkpt lat="59.9539777" lon="17.6797679">
        <ele>27.5349</ele>
        <time>2013-04-07T12:19:35Z</time>
      </trkpt>
      <trkpt lat="59.953943" lon="17.6796614">
        <ele>27.5349</ele>
        <time>2013-04-07T12:19:36Z</time>
      </trkpt>
      <trkpt lat="59.9539085" lon="17.6795571">
        <ele>27.5349</ele>
        <time>2013-04-07T12:19:37Z</time>
      </trkpt>
      <trkpt lat="59.9538749" lon="17.6794552">
        <ele>27.5349</ele>
        <time>2013-04-07T12:19:38Z</time>
      </trkpt>
      <trkpt lat="59.9538422" lon="17.6793537">
        <ele>27.5349</ele>
        <time>2013-04-07T12:19:39Z</time>
      </trkpt>
      <trkpt lat="59.9538095" lon="17.6792539">
        <ele>27.5349</ele>
        <time>2013-04-07T12:19:40Z</time>
      </trkpt>
      <trkpt lat="59.9537763" lon="17.6791552">
        <ele>28.0155</ele>
        <time>2013-04-07T12:19:41Z</time>
      </trkpt>
      <trkpt lat="59.9537416" lon="17.6790564">
        <ele>27.5349</ele>
        <time>2013-04-07T12:19:42Z</time>
      </trkpt>
      <trkpt lat="59.953707" lon="17.6789595">
        <ele>27.5349</ele>
        <time>2013-04-07T12:19:43Z</time>
      </trkpt>
      <trkpt lat="59.9536731" lon="17.6788632">
        <ele>27.0543</ele>
        <time>2013-04-07T12:19:44Z</time>
      </trkpt>
      <trkpt lat="59.9536396" lon="17.6787677">
        <ele>27.0543</ele>
        <time>2013-04-07T12:19:45Z</time>
      </trkpt>
      <trkpt lat="59.9536075" lon="17.6786724">
        <ele>26.5736</ele>
        <time>2013-04-07T12:19:46Z</time>
      </trkpt>
      <trkpt lat="59.9535758" lon="17.6785783">
        <ele>26.5736</ele>
        <time>2013-04-07T12:19:47Z</time>
      </trkpt>
      <trkpt lat="59.9535433" lon="17.6784843">
        <ele>26.5736</ele>
        <time>2013-04-07T12:19:48Z</time>
      </trkpt>
      <trkpt lat="59.9535111" lon="17.6783921">
        <ele>26.5736</ele>
        <time>2013-04-07T12:19:49Z</time>
      </trkpt>
      <trkpt lat="59.9534799" lon="17.678304">
        <ele>26.5736</ele>
        <time>2013-04-07T12:19:50Z</time>
      </trkpt>
      <trkpt lat="59.9534491" lon="17.6782223">
        <ele>26.5736</ele>
        <time>2013-04-07T12:19:51Z</time>
      </trkpt>
      <trkpt lat="59.9534199" lon="17.6781464">
        <ele>26.5736</ele>
        <time>2013-04-07T12:19:52Z</time>
      </trkpt>
      <trkpt lat="59.9533925" lon="17.6780754">
        <ele>26.5736</ele>
        <time>2013-04-07T12:19:53Z</time>
      </trkpt>
      <trkpt lat="59.9533667" lon="17.6780054">
        <ele>26.5736</ele>
        <time>2013-04-07T12:19:54Z</time>
      </trkpt>
      <trkpt lat="59.9533423" lon="17.6779385">
        <ele>26.5736</ele>
        <time>2013-04-07T12:19:55Z</time>
      </trkpt>
      <trkpt lat="59.953318" lon="17.6778736">
        <ele>26.5736</ele>
        <time>2013-04-07T12:19:56Z</time>
      </trkpt>
      <trkpt lat="59.9532983" lon="17.6778126">
        <ele>26.0929</ele>
        <time>2013-04-07T12:19:57Z</time>
      </trkpt>
      <trkpt lat="59.9532795" lon="17.6777584">
        <ele>26.0929</ele>
        <time>2013-04-07T12:19:58Z</time>
      </trkpt>
      <trkpt lat="59.9532589" lon="17.6777039">
        <ele>25.6123</ele>
        <time>2013-04-07T12:19:59Z</time>
      </trkpt>
      <trkpt lat="59.9532386" lon="17.6776467">
        <ele>25.1317</ele>
        <time>2013-04-07T12:20:00Z</time>
      </trkpt>
      <trkpt lat="59.9532195" lon="17.6775879">
        <ele>24.651</ele>
        <time>2013-04-07T12:20:01Z</time>
      </trkpt>
      <trkpt lat="59.9531994" lon="17.6775265">
        <ele>24.651</ele>
        <time>2013-04-07T12:20:02Z</time>
      </trkpt>
      <trkpt lat="59.9531759" lon="17.6774634">
        <ele>24.1703</ele>
        <time>2013-04-07T12:20:03Z</time>
      </trkpt>
      <trkpt lat="59.9531501" lon="17.6773991">
        <ele>24.1703</ele>
        <time>2013-04-07T12:20:04Z</time>
      </trkpt>
      <trkpt lat="59.9531248" lon="17.6773307">
        <ele>24.1703</ele>
        <time>2013-04-07T12:20:05Z</time>
      </trkpt>
      <trkpt lat="59.9530996" lon="17.67726">
        <ele>23.6896</ele>
        <time>2013-04-07T12:20:06Z</time>
      </trkpt>
      <trkpt lat="59.9530735" lon="17.6771858">
        <ele>23.6896</ele>
        <time>2013-04-07T12:20:07Z</time>
      </trkpt>
      <trkpt lat="59.953046" lon="17.6771092">
        <ele>23.6896</ele>
        <time>2013-04-07T12:20:08Z</time>
      </trkpt>
      <trkpt lat="59.9530165" lon="17.6770269">
        <ele>23.209</ele>
        <time>2013-04-07T12:20:09Z</time>
      </trkpt>
      <trkpt lat="59.9529872" lon="17.6769415">
        <ele>22.7283</ele>
        <time>2013-04-07T12:20:10Z</time>
      </trkpt>
      <trkpt lat="59.9529568" lon="17.6768574">
        <ele>22.2476</ele>
        <time>2013-04-07T12:20:11Z</time>
      </trkpt>
      <trkpt lat="59.9529251" lon="17.6767729">
        <ele>22.2476</ele>
        <time>2013-04-07T12:20:12Z</time>
      </trkpt>
      <trkpt lat="59.9528927" lon="17.6766855">
        <ele>21.767</ele>
        <time>2013-04-07T12:20:13Z</time>
      </trkpt>
      <trkpt lat="59.9528592" lon="17.6765999">
        <ele>21.767</ele>
        <time>2013-04-07T12:20:14Z</time>
      </trkpt>
      <trkpt lat="59.9528232" lon="17.6765166">
        <ele>21.2864</ele>
        <time>2013-04-07T12:20:15Z</time>
      </trkpt>
      <trkpt lat="59.9527883" lon="17.6764299">
        <ele>22.2476</ele>
        <time>2013-04-07T12:20:16Z</time>
      </trkpt>
      <trkpt lat="59.9527569" lon="17.6763419">
        <ele>22.2476</ele>
        <time>2013-04-07T12:20:17Z</time>
      </trkpt>
      <trkpt lat="59.9527279" lon="17.6762478">
        <ele>23.209</ele>
        <time>2013-04-07T12:20:18Z</time>
      </trkpt>
      <trkpt lat="59.9526987" lon="17.6761525">
        <ele>23.6896</ele>
        <time>2013-04-07T12:20:19Z</time>
      </trkpt>
      <trkpt lat="59.9526693" lon="17.6760605">
        <ele>23.6896</ele>
        <time>2013-04-07T12:20:20Z</time>
      </trkpt>
      <trkpt lat="59.9526382" lon="17.6759701">
        <ele>24.1703</ele>
        <time>2013-04-07T12:20:21Z</time>
      </trkpt>
      <trkpt lat="59.9526061" lon="17.6758806">
        <ele>24.651</ele>
        <time>2013-04-07T12:20:22Z</time>
      </trkpt>
      <trkpt lat="59.9525733" lon="17.6757935">
        <ele>25.1317</ele>
        <time>2013-04-07T12:20:23Z</time>
      </trkpt>
      <trkpt lat="59.9525402" lon="17.6757122">
        <ele>25.6123</ele>
        <time>2013-04-07T12:20:24Z</time>
      </trkpt>
      <trkpt lat="59.9525075" lon="17.6756356">
        <ele>26.0929</ele>
        <time>2013-04-07T12:20:25Z</time>
      </trkpt>
      <trkpt lat="59.9524759" lon="17.6755614">
        <ele>26.5736</ele>
        <time>2013-04-07T12:20:26Z</time>
      </trkpt>
      <trkpt lat="59.9524471" lon="17.6754866">
        <ele>27.0543</ele>
        <time>2013-04-07T12:20:27Z</time>
      </trkpt>
      <trkpt lat="59.9524213" lon="17.6754102">
        <ele>27.5349</ele>
        <time>2013-04-07T12:20:28Z</time>
      </trkpt>
      <trkpt lat="59.9523962" lon="17.6753351">
        <ele>27.5349</ele>
        <time>2013-04-07T12:20:29Z</time>
      </trkpt>
      <trkpt lat="59.9523718" lon="17.6752641">
        <ele>28.0155</ele>
        <time>2013-04-07T12:20:30Z</time>
      </trkpt>
      <trkpt lat="59.9523483" lon="17.6751895">
        <ele>28.0155</ele>
        <time>2013-04-07T12:20:31Z</time>
      </trkpt>
      <trkpt lat="59.9523259" lon="17.6751102">
        <ele>28.0155</ele>
        <time>2013-04-07T12:20:32Z</time>
      </trkpt>
      <trkpt lat="59.9523043" lon="17.6750245">
        <ele>28.4962</ele>
        <time>2013-04-07T12:20:33Z</time>
      </trkpt>
      <trkpt lat="59.9522848" lon="17.6749355">
        <ele>28.4962</ele>
        <time>2013-04-07T12:20:34Z</time>
      </trkpt>
      <trkpt lat="59.9522663" lon="17.6748456">
        <ele>28.0155</ele>
        <time>2013-04-07T12:20:35Z</time>
      </trkpt>
      <trkpt lat="59.9522475" lon="17.6747465">
        <ele>27.5349</ele>
        <time>2013-04-07T12:20:36Z</time>
      </trkpt>
      <trkpt lat="59.9522283" lon="17.6746367">
        <ele>26.5736</ele>
        <time>2013-04-07T12:20:37Z</time>
      </trkpt>
      <trkpt lat="59.9522072" lon="17.674518">
        <ele>26.5736</ele>
        <time>2013-04-07T12:20:38Z</time>
      </trkpt>
      <trkpt lat="59.9521829" lon="17.6743951">
        <ele>26.0929</ele>
        <time>2013-04-07T12:20:39Z</time>
      </trkpt>
      <trkpt lat="59.9521556" lon="17.6742716">
        <ele>25.6123</ele>
        <time>2013-04-07T12:20:40Z</time>
      </trkpt>
      <trkpt lat="59.9521285" lon="17.6741465">
        <ele>25.1317</ele>
        <time>2013-04-07T12:20:41Z</time>
      </trkpt>
      <trkpt lat="59.9521047" lon="17.6740149">
        <ele>24.651</ele>
        <time>2013-04-07T12:20:42Z</time>
      </trkpt>
      <trkpt lat="59.9520819" lon="17.6738778">
        <ele>24.1703</ele>
        <time>2013-04-07T12:20:43Z</time>
      </trkpt>
      <trkpt lat="59.9520561" lon="17.6737243">
        <ele>24.1703</ele>
        <time>2013-04-07T12:20:44Z</time>
      </trkpt>
      <trkpt lat="59.9520306" lon="17.6735747">
        <ele>23.6896</ele>
        <time>2013-04-07T12:20:45Z</time>
      </trkpt>
      <trkpt lat="59.9520052" lon="17.6734208">
        <ele>23.6896</ele>
        <time>2013-04-07T12:20:46Z</time>
      </trkpt>
      <trkpt lat="59.9519788" lon="17.6732628">
        <ele>23.209</ele>
        <time>2013-04-07T12:20:47Z</time>
      </trkpt>
      <trkpt lat="59.9519499" lon="17.6731027">
        <ele>22.7283</ele>
        <time>2013-04-07T12:20:48Z</time>
      </trkpt>
      <trkpt lat="59.9519199" lon="17.672932">
        <ele>23.209</ele>
        <time>2013-04-07T12:20:49Z</time>
      </trkpt>
      <trkpt lat="59.9518949" lon="17.6727624">
        <ele>22.7283</ele>
        <time>2013-04-07T12:20:50Z</time>
      </trkpt>
      <trkpt lat="59.9518737" lon="17.6725915">
        <ele>22.2476</ele>
        <time>2013-04-07T12:20:51Z</time>
      </trkpt>
      <trkpt lat="59.951855" lon="17.6724171">
        <ele>21.767</ele>
        <time>2013-04-07T12:20:52Z</time>
      </trkpt>
      <trkpt lat="59.9518384" lon="17.6722415">
        <ele>21.2864</ele>
        <time>2013-04-07T12:20:53Z</time>
      </trkpt>
      <trkpt lat="59.951822" lon="17.6720644">
        <ele>21.2864</ele>
        <time>2013-04-07T12:20:54Z</time>
      </trkpt>
      <trkpt lat="59.9518082" lon="17.6718877">
        <ele>21.2864</ele>
        <time>2013-04-07T12:20:55Z</time>
      </trkpt>
      <trkpt lat="59.951801" lon="17.6717136">
        <ele>20.8057</ele>
        <time>2013-04-07T12:20:56Z</time>
      </trkpt>
      <trkpt lat="59.9517986" lon="17.6715417">
        <ele>20.8057</ele>
        <time>2013-04-07T12:20:57Z</time>
      </trkpt>
      <trkpt lat="59.9517922" lon="17.6713721">
        <ele>20.325</ele>
        <time>2013-04-07T12:20:58Z</time>
      </trkpt>
      <trkpt lat="59.9517712" lon="17.6712018">
        <ele>19.8444</ele>
        <time>2013-04-07T12:20:59Z</time>
      </trkpt>
      <trkpt lat="59.9517409" lon="17.6710304">
        <ele>19.3638</ele>
        <time>2013-04-07T12:21:00Z</time>
      </trkpt>
      <trkpt lat="59.9517209" lon="17.670849">
        <ele>19.3638</ele>
        <time>2013-04-07T12:21:01Z</time>
      </trkpt>
      <trkpt lat="59.9517199" lon="17.6706622">
        <ele>18.8831</ele>
        <time>2013-04-07T12:21:02Z</time>
      </trkpt>
      <trkpt lat="59.9517302" lon="17.670478">
        <ele>18.4023</ele>
        <time>2013-04-07T12:21:03Z</time>
      </trkpt>
      <trkpt lat="59.9517447" lon="17.6702989">
        <ele>17.9218</ele>
        <time>2013-04-07T12:21:04Z</time>
      </trkpt>
      <trkpt lat="59.9517592" lon="17.6701237">
        <ele>17.9218</ele>
        <time>2013-04-07T12:21:05Z</time>
      </trkpt>
      <trkpt lat="59.951771" lon="17.6699494">
        <ele>17.4412</ele>
        <time>2013-04-07T12:21:06Z</time>
      </trkpt>
      <trkpt lat="59.9517818" lon="17.6697803">
        <ele>16.9604</ele>
        <time>2013-04-07T12:21:07Z</time>
      </trkpt>
      <trkpt lat="59.9517916" lon="17.6696157">
        <ele>16.4797</ele>
        <time>2013-04-07T12:21:08Z</time>
      </trkpt>
      <trkpt lat="59.9517991" lon="17.6694557">
        <ele>15.999</ele>
        <time>2013-04-07T12:21:09Z</time>
      </trkpt>
      <trkpt lat="59.9518049" lon="17.6693018">
        <ele>15.5184</ele>
        <time>2013-04-07T12:21:10Z</time>
      </trkpt>
      <trkpt lat="59.9518089" lon="17.6691562">
        <ele>15.5184</ele>
        <time>2013-04-07T12:21:11Z</time>
      </trkpt>
      <trkpt lat="59.9518114" lon="17.6690138">
        <ele>15.0377</ele>
        <time>2013-04-07T12:21:12Z</time>
      </trkpt>
      <trkpt lat="59.9518106" lon="17.6688744">
        <ele>15.0377</ele>
        <time>2013-04-07T12:21:13Z</time>
      </trkpt>
      <trkpt lat="59.9518013" lon="17.6687366">
        <ele>14.557</ele>
        <time>2013-04-07T12:21:14Z</time>
      </trkpt>
      <trkpt lat="59.9517816" lon="17.6686019">
        <ele>14.0764</ele>
        <time>2013-04-07T12:21:15Z</time>
      </trkpt>
      <trkpt lat="59.951754" lon="17.6684697">
        <ele>14.0764</ele>
        <time>2013-04-07T12:21:16Z</time>
      </trkpt>
      <trkpt lat="59.9517205" lon="17.6683394">
        <ele>13.5958</ele>
        <time>2013-04-07T12:21:17Z</time>
      </trkpt>
      <trkpt lat="59.9516804" lon="17.6682151">
        <ele>13.5958</ele>
        <time>2013-04-07T12:21:18Z</time>
      </trkpt>
      <trkpt lat="59.951629" lon="17.6681129">
        <ele>13.5958</ele>
        <time>2013-04-07T12:21:19Z</time>
      </trkpt>
      <trkpt lat="59.9515637" lon="17.6680471">
        <ele>14.0764</ele>
        <time>2013-04-07T12:21:20Z</time>
      </trkpt>
      <trkpt lat="59.9514904" lon="17.6680285">
        <ele>14.557</ele>
        <time>2013-04-07T12:21:21Z</time>
      </trkpt>
      <trkpt lat="59.9514157" lon="17.6680337">
        <ele>14.557</ele>
        <time>2013-04-07T12:21:22Z</time>
      </trkpt>
      <trkpt lat="59.951342" lon="17.6680455">
        <ele>15.0377</ele>
        <time>2013-04-07T12:21:23Z</time>
      </trkpt>
      <trkpt lat="59.9512696" lon="17.6680626">
        <ele>15.5184</ele>
        <time>2013-04-07T12:21:24Z</time>
      </trkpt>
      <trkpt lat="59.9511987" lon="17.6680865">
        <ele>15.999</ele>
        <time>2013-04-07T12:21:25Z</time>
      </trkpt>
      <trkpt lat="59.9511294" lon="17.6681134">
        <ele>15.999</ele>
        <time>2013-04-07T12:21:26Z</time>
      </trkpt>
      <trkpt lat="59.951061" lon="17.6681391">
        <ele>16.4797</ele>
        <time>2013-04-07T12:21:27Z</time>
      </trkpt>
      <trkpt lat="59.9509937" lon="17.6681598">
        <ele>16.9604</ele>
        <time>2013-04-07T12:21:28Z</time>
      </trkpt>
      <trkpt lat="59.9509273" lon="17.6681786">
        <ele>17.4412</ele>
        <time>2013-04-07T12:21:29Z</time>
      </trkpt>
      <trkpt lat="59.9508615" lon="17.6681979">
        <ele>17.4412</ele>
        <time>2013-04-07T12:21:30Z</time>
      </trkpt>
      <trkpt lat="59.9507967" lon="17.6682164">
        <ele>17.9218</ele>
        <time>2013-04-07T12:21:31Z</time>
      </trkpt>
      <trkpt lat="59.9507314" lon="17.6682309">
        <ele>17.9218</ele>
        <time>2013-04-07T12:21:32Z</time>
      </trkpt>
      <trkpt lat="59.9506651" lon="17.6682419">
        <ele>17.9218</ele>
        <time>2013-04-07T12:21:33Z</time>
      </trkpt>
      <trkpt lat="59.9505978" lon="17.6682506">
        <ele>18.4023</ele>
        <time>2013-04-07T12:21:34Z</time>
      </trkpt>
      <trkpt lat="59.9505298" lon="17.6682543">
        <ele>18.4023</ele>
        <time>2013-04-07T12:21:35Z</time>
      </trkpt>
      <trkpt lat="59.9504614" lon="17.6682543">
        <ele>18.8831</ele>
        <time>2013-04-07T12:21:36Z</time>
      </trkpt>
      <trkpt lat="59.950393" lon="17.6682524">
        <ele>18.8831</ele>
        <time>2013-04-07T12:21:37Z</time>
      </trkpt>
      <trkpt lat="59.9503248" lon="17.6682482">
        <ele>19.3638</ele>
        <time>2013-04-07T12:21:38Z</time>
      </trkpt>
      <trkpt lat="59.9502573" lon="17.6682413">
        <ele>19.3638</ele>
        <time>2013-04-07T12:21:39Z</time>
      </trkpt>
      <trkpt lat="59.9501902" lon="17.6682305">
        <ele>19.8444</ele>
        <time>2013-04-07T12:21:40Z</time>
      </trkpt>
      <trkpt lat="59.9501237" lon="17.6682154">
        <ele>19.8444</ele>
        <time>2013-04-07T12:21:41Z</time>
      </trkpt>
      <trkpt lat="59.9500573" lon="17.6681959">
        <ele>19.8444</ele>
        <time>2013-04-07T12:21:42Z</time>
      </trkpt>
      <trkpt lat="59.9499911" lon="17.6681735">
        <ele>20.325</ele>
        <time>2013-04-07T12:21:43Z</time>
      </trkpt>
      <trkpt lat="59.9499243" lon="17.6681498">
        <ele>20.325</ele>
        <time>2013-04-07T12:21:44Z</time>
      </trkpt>
      <trkpt lat="59.9498571" lon="17.6681246">
        <ele>20.325</ele>
        <time>2013-04-07T12:21:45Z</time>
      </trkpt>
      <trkpt lat="59.9497892" lon="17.6680964">
        <ele>20.325</ele>
        <time>2013-04-07T12:21:46Z</time>
      </trkpt>
      <trkpt lat="59.9497204" lon="17.6680647">
        <ele>20.8057</ele>
        <time>2013-04-07T12:21:47Z</time>
      </trkpt>
      <trkpt lat="59.9496509" lon="17.66803">
        <ele>20.8057</ele>
        <time>2013-04-07T12:21:48Z</time>
      </trkpt>
      <trkpt lat="59.949581" lon="17.6679949">
        <ele>20.8057</ele>
        <time>2013-04-07T12:21:49Z</time>
      </trkpt>
      <trkpt lat="59.9495109" lon="17.667959">
        <ele>21.2864</ele>
        <time>2013-04-07T12:21:50Z</time>
      </trkpt>
      <trkpt lat="59.9494409" lon="17.6679219">
        <ele>21.2864</ele>
        <time>2013-04-07T12:21:51Z</time>
      </trkpt>
      <trkpt lat="59.9493712" lon="17.6678841">
        <ele>21.2864</ele>
        <time>2013-04-07T12:21:52Z</time>
      </trkpt>
      <trkpt lat="59.9493018" lon="17.6678452">
        <ele>21.2864</ele>
        <time>2013-04-07T12:21:53Z</time>
      </trkpt>
      <trkpt lat="59.9492332" lon="17.6678053">
        <ele>21.2864</ele>
        <time>2013-04-07T12:21:54Z</time>
      </trkpt>
      <trkpt lat="59.9491641" lon="17.6677636">
        <ele>21.2864</ele>
        <time>2013-04-07T12:21:55Z</time>
      </trkpt>
      <trkpt lat="59.9490935" lon="17.6677206">
        <ele>21.767</ele>
        <time>2013-04-07T12:21:56Z</time>
      </trkpt>
      <trkpt lat="59.9490214" lon="17.6676771">
        <ele>21.767</ele>
        <time>2013-04-07T12:21:57Z</time>
      </trkpt>
      <trkpt lat="59.9489478" lon="17.6676325">
        <ele>21.767</ele>
        <time>2013-04-07T12:21:58Z</time>
      </trkpt>
      <trkpt lat="59.9488728" lon="17.6675887">
        <ele>22.2476</ele>
        <time>2013-04-07T12:21:59Z</time>
      </trkpt>
      <trkpt lat="59.9487972" lon="17.6675435">
        <ele>22.7283</ele>
        <time>2013-04-07T12:22:00Z</time>
      </trkpt>
      <trkpt lat="59.9487221" lon="17.667498">
        <ele>22.7283</ele>
        <time>2013-04-07T12:22:01Z</time>
      </trkpt>
      <trkpt lat="59.9486466" lon="17.6674544">
        <ele>22.7283</ele>
        <time>2013-04-07T12:22:02Z</time>
      </trkpt>
      <trkpt lat="59.9485702" lon="17.6674137">
        <ele>22.7283</ele>
        <time>2013-04-07T12:22:03Z</time>
      </trkpt>
      <trkpt lat="59.9484937" lon="17.6673741">
        <ele>23.209</ele>
        <time>2013-04-07T12:22:04Z</time>
      </trkpt>
      <trkpt lat="59.948418" lon="17.6673323">
        <ele>23.209</ele>
        <time>2013-04-07T12:22:05Z</time>
      </trkpt>
      <trkpt lat="59.9483424" lon="17.6672882">
        <ele>23.209</ele>
        <time>2013-04-07T12:22:06Z</time>
      </trkpt>
      <trkpt lat="59.9482671" lon="17.6672468">
        <ele>23.209</ele>
        <time>2013-04-07T12:22:07Z</time>
      </trkpt>
      <trkpt lat="59.9481915" lon="17.6672069">
        <ele>23.209</ele>
        <time>2013-04-07T12:22:08Z</time>
      </trkpt>
      <trkpt lat="59.9481143" lon="17.6671664">
        <ele>23.6896</ele>
        <time>2013-04-07T12:22:09Z</time>
      </trkpt>
      <trkpt lat="59.9480373" lon="17.6671251">
        <ele>23.6896</ele>
        <time>2013-04-07T12:22:10Z</time>
      </trkpt>
      <trkpt lat="59.9479606" lon="17.6670834">
        <ele>23.6896</ele>
        <time>2013-04-07T12:22:11Z</time>
      </trkpt>
      <trkpt lat="59.9478851" lon="17.6670432">
        <ele>23.6896</ele>
        <time>2013-04-07T12:22:12Z</time>
      </trkpt>
      <trkpt lat="59.9478099" lon="17.6670031">
        <ele>23.6896</ele>
        <time>2013-04-07T12:22:13Z</time>
      </trkpt>
      <trkpt lat="59.9477343" lon="17.666963">
        <ele>23.6896</ele>
        <time>2013-04-07T12:22:14Z</time>
      </trkpt>
      <trkpt lat="59.9476589" lon="17.6669219">
        <ele>23.6896</ele>
        <time>2013-04-07T12:22:15Z</time>
      </trkpt>
      <trkpt lat="59.9475838" lon="17.6668847">
        <ele>23.6896</ele>
        <time>2013-04-07T12:22:16Z</time>
      </trkpt>
      <trkpt lat="59.9475087" lon="17.6668522">
        <ele>23.6896</ele>
        <time>2013-04-07T12:22:17Z</time>
      </trkpt>
      <trkpt lat="59.9474339" lon="17.6668194">
        <ele>23.6896</ele>
        <time>2013-04-07T12:22:18Z</time>
      </trkpt>
      <trkpt lat="59.9473596" lon="17.666785">
        <ele>23.6896</ele>
        <time>2013-04-07T12:22:19Z</time>
      </trkpt>
      <trkpt lat="59.9472853" lon="17.6667498">
        <ele>23.209</ele>
        <time>2013-04-07T12:22:20Z</time>
      </trkpt>
      <trkpt lat="59.9472111" lon="17.6667134">
        <ele>23.209</ele>
        <time>2013-04-07T12:22:21Z</time>
      </trkpt>
      <trkpt lat="59.9471365" lon="17.6666781">
        <ele>23.209</ele>
        <time>2013-04-07T12:22:22Z</time>
      </trkpt>
      <trkpt lat="59.9470619" lon="17.6666445">
        <ele>22.7283</ele>
        <time>2013-04-07T12:22:23Z</time>
      </trkpt>
      <trkpt lat="59.9469873" lon="17.6666112">
        <ele>22.7283</ele>
        <time>2013-04-07T12:22:24Z</time>
      </trkpt>
      <trkpt lat="59.9469131" lon="17.6665791">
        <ele>22.7283</ele>
        <time>2013-04-07T12:22:25Z</time>
      </trkpt>
      <trkpt lat="59.9468397" lon="17.6665483">
        <ele>22.2476</ele>
        <time>2013-04-07T12:22:26Z</time>
      </trkpt>
      <trkpt lat="59.9467664" lon="17.6665237">
        <ele>22.2476</ele>
        <time>2013-04-07T12:22:27Z</time>
      </trkpt>
      <trkpt lat="59.9466925" lon="17.666508">
        <ele>22.2476</ele>
        <time>2013-04-07T12:22:28Z</time>
      </trkpt>
      <trkpt lat="59.9466189" lon="17.6664983">
        <ele>22.7283</ele>
        <time>2013-04-07T12:22:29Z</time>
      </trkpt>
      <trkpt lat="59.9465449" lon="17.6664879">
        <ele>22.7283</ele>
        <time>2013-04-07T12:22:30Z</time>
      </trkpt>
      <trkpt lat="59.9464717" lon="17.6664703">
        <ele>22.7283</ele>
        <time>2013-04-07T12:22:31Z</time>
      </trkpt>
      <trkpt lat="59.9463994" lon="17.6664406">
        <ele>23.209</ele>
        <time>2013-04-07T12:22:32Z</time>
      </trkpt>
      <trkpt lat="59.9463293" lon="17.6664004">
        <ele>23.209</ele>
        <time>2013-04-07T12:22:33Z</time>
      </trkpt>
      <trkpt lat="59.9462614" lon="17.6663527">
        <ele>23.209</ele>
        <time>2013-04-07T12:22:34Z</time>
      </trkpt>
      <trkpt lat="59.9461942" lon="17.666303">
        <ele>23.209</ele>
        <time>2013-04-07T12:22:35Z</time>
      </trkpt>
      <trkpt lat="59.9461258" lon="17.6662605">
        <ele>23.209</ele>
        <time>2013-04-07T12:22:36Z</time>
      </trkpt>
      <trkpt lat="59.946056" lon="17.6662289">
        <ele>23.209</ele>
        <time>2013-04-07T12:22:37Z</time>
      </trkpt>
      <trkpt lat="59.9459863" lon="17.6662014">
        <ele>23.209</ele>
        <time>2013-04-07T12:22:38Z</time>
      </trkpt>
      <trkpt lat="59.9459176" lon="17.6661729">
        <ele>23.209</ele>
        <time>2013-04-07T12:22:39Z</time>
      </trkpt>
      <trkpt lat="59.9458491" lon="17.6661465">
        <ele>22.7283</ele>
        <time>2013-04-07T12:22:40Z</time>
      </trkpt>
      <trkpt lat="59.9457804" lon="17.6661213">
        <ele>23.209</ele>
        <time>2013-04-07T12:22:41Z</time>
      </trkpt>
      <trkpt lat="59.945712" lon="17.6660964">
        <ele>23.209</ele>
        <time>2013-04-07T12:22:42Z</time>
      </trkpt>
      <trkpt lat="59.9456431" lon="17.6660733">
        <ele>23.209</ele>
        <time>2013-04-07T12:22:43Z</time>
      </trkpt>
      <trkpt lat="59.9455739" lon="17.6660503">
        <ele>23.209</ele>
        <time>2013-04-07T12:22:44Z</time>
      </trkpt>
      <trkpt lat="59.9455054" lon="17.6660253">
        <ele>23.209</ele>
        <time>2013-04-07T12:22:45Z</time>
      </trkpt>
      <trkpt lat="59.9454373" lon="17.6659989">
        <ele>23.6896</ele>
        <time>2013-04-07T12:22:46Z</time>
      </trkpt>
      <trkpt lat="59.9453685" lon="17.6659735">
        <ele>23.6896</ele>
        <time>2013-04-07T12:22:47Z</time>
      </trkpt>
      <trkpt lat="59.9452996" lon="17.6659472">
        <ele>23.6896</ele>
        <time>2013-04-07T12:22:48Z</time>
      </trkpt>
      <trkpt lat="59.9452308" lon="17.6659217">
        <ele>23.6896</ele>
        <time>2013-04-07T12:22:49Z</time>
      </trkpt>
      <trkpt lat="59.9451624" lon="17.6658962">
        <ele>24.1703</ele>
        <time>2013-04-07T12:22:50Z</time>
      </trkpt>
      <trkpt lat="59.9450945" lon="17.6658713">
        <ele>24.1703</ele>
        <time>2013-04-07T12:22:51Z</time>
      </trkpt>
      <trkpt lat="59.945027" lon="17.6658446">
        <ele>24.1703</ele>
        <time>2013-04-07T12:22:52Z</time>
      </trkpt>
      <trkpt lat="59.9449593" lon="17.665818">
        <ele>24.651</ele>
        <time>2013-04-07T12:22:53Z</time>
      </trkpt>
      <trkpt lat="59.9448913" lon="17.6657929">
        <ele>24.651</ele>
        <time>2013-04-07T12:22:54Z</time>
      </trkpt>
      <trkpt lat="59.9448229" lon="17.6657688">
        <ele>24.651</ele>
        <time>2013-04-07T12:22:55Z</time>
      </trkpt>
      <trkpt lat="59.944754" lon="17.6657425">
        <ele>24.651</ele>
        <time>2013-04-07T12:22:56Z</time>
      </trkpt>
      <trkpt lat="59.9446851" lon="17.665715">
        <ele>25.1317</ele>
        <time>2013-04-07T12:22:57Z</time>
      </trkpt>
      <trkpt lat="59.9446163" lon="17.6656874">
        <ele>25.1317</ele>
        <time>2013-04-07T12:22:58Z</time>
      </trkpt>
      <trkpt lat="59.9445474" lon="17.6656601">
        <ele>25.1317</ele>
        <time>2013-04-07T12:22:59Z</time>
      </trkpt>
      <trkpt lat="59.9444785" lon="17.6656328">
        <ele>25.6123</ele>
        <time>2013-04-07T12:23:00Z</time>
      </trkpt>
      <trkpt lat="59.9444097" lon="17.6656052">
        <ele>25.6123</ele>
        <time>2013-04-07T12:23:01Z</time>
      </trkpt>
      <trkpt lat="59.9443413" lon="17.6655793">
        <ele>25.6123</ele>
        <time>2013-04-07T12:23:02Z</time>
      </trkpt>
      <trkpt lat="59.9442729" lon="17.6655529">
        <ele>26.0929</ele>
        <time>2013-04-07T12:23:03Z</time>
      </trkpt>
      <trkpt lat="59.9442051" lon="17.6655233">
        <ele>26.0929</ele>
        <time>2013-04-07T12:23:04Z</time>
      </trkpt>
      <trkpt lat="59.944138" lon="17.6654909">
        <ele>26.5736</ele>
        <time>2013-04-07T12:23:05Z</time>
      </trkpt>
      <trkpt lat="59.9440714" lon="17.6654569">
        <ele>26.5736</ele>
        <time>2013-04-07T12:23:06Z</time>
      </trkpt>
      <trkpt lat="59.9440056" lon="17.6654219">
        <ele>27.0543</ele>
        <time>2013-04-07T12:23:07Z</time>
      </trkpt>
      <trkpt lat="59.9439404" lon="17.6653861">
        <ele>27.0543</ele>
        <time>2013-04-07T12:23:08Z</time>
      </trkpt>
      <trkpt lat="59.9438761" lon="17.6653487">
        <ele>27.0543</ele>
        <time>2013-04-07T12:23:09Z</time>
      </trkpt>
      <trkpt lat="59.9438129" lon="17.6653092">
        <ele>27.5349</ele>
        <time>2013-04-07T12:23:10Z</time>
      </trkpt>
      <trkpt lat="59.9437507" lon="17.665269">
        <ele>27.5349</ele>
        <time>2013-04-07T12:23:11Z</time>
      </trkpt>
      <trkpt lat="59.9436891" lon="17.6652292">
        <ele>27.5349</ele>
        <time>2013-04-07T12:23:12Z</time>
      </trkpt>
      <trkpt lat="59.9436284" lon="17.6651889">
        <ele>27.0543</ele>
        <time>2013-04-07T12:23:13Z</time>
      </trkpt>
      <trkpt lat="59.9435682" lon="17.6651473">
        <ele>27.0543</ele>
        <time>2013-04-07T12:23:14Z</time>
      </trkpt>
      <trkpt lat="59.9435082" lon="17.6651078">
        <ele>27.0543</ele>
        <time>2013-04-07T12:23:15Z</time>
      </trkpt>
      <trkpt lat="59.9434489" lon="17.6650661">
        <ele>27.0543</ele>
        <time>2013-04-07T12:23:16Z</time>
      </trkpt>
      <trkpt lat="59.9433905" lon="17.6650189">
        <ele>27.0543</ele>
        <time>2013-04-07T12:23:17Z</time>
      </trkpt>
      <trkpt lat="59.9433327" lon="17.6649702">
        <ele>27.0543</ele>
        <time>2013-04-07T12:23:18Z</time>
      </trkpt>
      <trkpt lat="59.9432762" lon="17.6649205">
        <ele>26.5736</ele>
        <time>2013-04-07T12:23:19Z</time>
      </trkpt>
      <trkpt lat="59.9432203" lon="17.6648702">
        <ele>26.5736</ele>
        <time>2013-04-07T12:23:20Z</time>
      </trkpt>
      <trkpt lat="59.9431643" lon="17.664819">
        <ele>26.5736</ele>
        <time>2013-04-07T12:23:21Z</time>
      </trkpt>
      <trkpt lat="59.9431095" lon="17.6647661">
        <ele>27.0543</ele>
        <time>2013-04-07T12:23:22Z</time>
      </trkpt>
      <trkpt lat="59.9430561" lon="17.6647144">
        <ele>27.0543</ele>
        <time>2013-04-07T12:23:23Z</time>
      </trkpt>
      <trkpt lat="59.9430033" lon="17.6646648">
        <ele>27.0543</ele>
        <time>2013-04-07T12:23:24Z</time>
      </trkpt>
      <trkpt lat="59.9429516" lon="17.6646139">
        <ele>27.0543</ele>
        <time>2013-04-07T12:23:25Z</time>
      </trkpt>
      <trkpt lat="59.9429006" lon="17.6645625">
        <ele>27.5349</ele>
        <time>2013-04-07T12:23:26Z</time>
      </trkpt>
      <trkpt lat="59.9428501" lon="17.664511">
        <ele>27.0543</ele>
        <time>2013-04-07T12:23:27Z</time>
      </trkpt>
      <trkpt lat="59.9428002" lon="17.6644573">
        <ele>27.0543</ele>
        <time>2013-04-07T12:23:28Z</time>
      </trkpt>
      <trkpt lat="59.94275" lon="17.6644033">
        <ele>27.0543</ele>
        <time>2013-04-07T12:23:29Z</time>
      </trkpt>
      <trkpt lat="59.9427001" lon="17.6643494">
        <ele>27.0543</ele>
        <time>2013-04-07T12:23:30Z</time>
      </trkpt>
      <trkpt lat="59.9426511" lon="17.6642947">
        <ele>27.0543</ele>
        <time>2013-04-07T12:23:31Z</time>
      </trkpt>
      <trkpt lat="59.942603" lon="17.6642372">
        <ele>26.5736</ele>
        <time>2013-04-07T12:23:32Z</time>
      </trkpt>
      <trkpt lat="59.9425553" lon="17.6641787">
        <ele>26.5736</ele>
        <time>2013-04-07T12:23:33Z</time>
      </trkpt>
      <trkpt lat="59.9425086" lon="17.6641209">
        <ele>26.5736</ele>
        <time>2013-04-07T12:23:34Z</time>
      </trkpt>
      <trkpt lat="59.9424626" lon="17.6640616">
        <ele>26.5736</ele>
        <time>2013-04-07T12:23:35Z</time>
      </trkpt>
      <trkpt lat="59.9424169" lon="17.6640002">
        <ele>26.0929</ele>
        <time>2013-04-07T12:23:36Z</time>
      </trkpt>
      <trkpt lat="59.9423717" lon="17.6639382">
        <ele>26.0929</ele>
        <time>2013-04-07T12:23:37Z</time>
      </trkpt>
      <trkpt lat="59.9423272" lon="17.6638765">
        <ele>26.0929</ele>
        <time>2013-04-07T12:23:38Z</time>
      </trkpt>
      <trkpt lat="59.9422826" lon="17.663816">
        <ele>25.6123</ele>
        <time>2013-04-07T12:23:39Z</time>
      </trkpt>
      <trkpt lat="59.9422383" lon="17.6637537">
        <ele>25.6123</ele>
        <time>2013-04-07T12:23:40Z</time>
      </trkpt>
      <trkpt lat="59.9421946" lon="17.6636899">
        <ele>25.1317</ele>
        <time>2013-04-07T12:23:41Z</time>
      </trkpt>
      <trkpt lat="59.942151" lon="17.6636265">
        <ele>25.1317</ele>
        <time>2013-04-07T12:23:42Z</time>
      </trkpt>
      <trkpt lat="59.9421071" lon="17.6635618">
        <ele>24.651</ele>
        <time>2013-04-07T12:23:43Z</time>
      </trkpt>
      <trkpt lat="59.9420632" lon="17.6634938">
        <ele>24.1703</ele>
        <time>2013-04-07T12:23:44Z</time>
      </trkpt>
      <trkpt lat="59.9420185" lon="17.6634211">
        <ele>24.1703</ele>
        <time>2013-04-07T12:23:45Z</time>
      </trkpt>
      <trkpt lat="59.941974" lon="17.6633496">
        <ele>24.1703</ele>
        <time>2013-04-07T12:23:46Z</time>
      </trkpt>
      <trkpt lat="59.9419305" lon="17.6632768">
        <ele>24.651</ele>
        <time>2013-04-07T12:23:47Z</time>
      </trkpt>
      <trkpt lat="59.9418875" lon="17.6632047">
        <ele>24.1703</ele>
        <time>2013-04-07T12:23:48Z</time>
      </trkpt>
      <trkpt lat="59.9418445" lon="17.6631312">
        <ele>24.1703</ele>
        <time>2013-04-07T12:23:49Z</time>
      </trkpt>
      <trkpt lat="59.941802" lon="17.6630546">
        <ele>24.1703</ele>
        <time>2013-04-07T12:23:50Z</time>
      </trkpt>
      <trkpt lat="59.9417601" lon="17.6629767">
        <ele>24.1703</ele>
        <time>2013-04-07T12:23:51Z</time>
      </trkpt>
      <trkpt lat="59.9417175" lon="17.6628982">
        <ele>24.1703</ele>
        <time>2013-04-07T12:23:52Z</time>
      </trkpt>
      <trkpt lat="59.9416741" lon="17.6628192">
        <ele>24.1703</ele>
        <time>2013-04-07T12:23:53Z</time>
      </trkpt>
      <trkpt lat="59.9416305" lon="17.6627375">
        <ele>24.1703</ele>
        <time>2013-04-07T12:23:54Z</time>
      </trkpt>
      <trkpt lat="59.9415853" lon="17.6626565">
        <ele>24.1703</ele>
        <time>2013-04-07T12:23:55Z</time>
      </trkpt>
      <trkpt lat="59.9415371" lon="17.6625791">
        <ele>24.1703</ele>
        <time>2013-04-07T12:23:56Z</time>
      </trkpt>
      <trkpt lat="59.9414861" lon="17.6625045">
        <ele>23.6896</ele>
        <time>2013-04-07T12:23:57Z</time>
      </trkpt>
      <trkpt lat="59.9414322" lon="17.6624345">
        <ele>23.6896</ele>
        <time>2013-04-07T12:23:58Z</time>
      </trkpt>
      <trkpt lat="59.9413761" lon="17.6623721">
        <ele>24.1703</ele>
        <time>2013-04-07T12:23:59Z</time>
      </trkpt>
      <trkpt lat="59.9413191" lon="17.6623158">
        <ele>24.1703</ele>
        <time>2013-04-07T12:24:00Z</time>
      </trkpt>
      <trkpt lat="59.9412612" lon="17.6622641">
        <ele>24.651</ele>
        <time>2013-04-07T12:24:01Z</time>
      </trkpt>
      <trkpt lat="59.9412027" lon="17.6622164">
        <ele>24.651</ele>
        <time>2013-04-07T12:24:02Z</time>
      </trkpt>
      <trkpt lat="59.9411441" lon="17.6621732">
        <ele>25.1317</ele>
        <time>2013-04-07T12:24:03Z</time>
      </trkpt>
      <trkpt lat="59.9410846" lon="17.6621357">
        <ele>25.1317</ele>
        <time>2013-04-07T12:24:04Z</time>
      </trkpt>
      <trkpt lat="59.9410239" lon="17.662105">
        <ele>25.1317</ele>
        <time>2013-04-07T12:24:05Z</time>
      </trkpt>
      <trkpt lat="59.9409618" lon="17.6620806">
        <ele>25.1317</ele>
        <time>2013-04-07T12:24:06Z</time>
      </trkpt>
      <trkpt lat="59.9408989" lon="17.662058">
        <ele>25.6123</ele>
        <time>2013-04-07T12:24:07Z</time>
      </trkpt>
      <trkpt lat="59.9408349" lon="17.6620413">
        <ele>25.1317</ele>
        <time>2013-04-07T12:24:08Z</time>
      </trkpt>
      <trkpt lat="59.9407695" lon="17.6620298">
        <ele>25.1317</ele>
        <time>2013-04-07T12:24:09Z</time>
      </trkpt>
      <trkpt lat="59.9407029" lon="17.6620128">
        <ele>25.1317</ele>
        <time>2013-04-07T12:24:10Z</time>
      </trkpt>
      <trkpt lat="59.9406366" lon="17.6619792">
        <ele>24.651</ele>
        <time>2013-04-07T12:24:11Z</time>
      </trkpt>
      <trkpt lat="59.9405736" lon="17.661917">
        <ele>24.651</ele>
        <time>2013-04-07T12:24:12Z</time>
      </trkpt>
      <trkpt lat="59.9405174" lon="17.6618243">
        <ele>24.651</ele>
        <time>2013-04-07T12:24:13Z</time>
      </trkpt>
      <trkpt lat="59.9404712" lon="17.6617055">
        <ele>24.1703</ele>
        <time>2013-04-07T12:24:14Z</time>
      </trkpt>
      <trkpt lat="59.9404384" lon="17.6615632">
        <ele>23.6896</ele>
        <time>2013-04-07T12:24:15Z</time>
      </trkpt>
      <trkpt lat="59.9404209" lon="17.6614047">
        <ele>23.6896</ele>
        <time>2013-04-07T12:24:16Z</time>
      </trkpt>
      <trkpt lat="59.9404121" lon="17.6612418">
        <ele>23.209</ele>
        <time>2013-04-07T12:24:17Z</time>
      </trkpt>
      <trkpt lat="59.9404096" lon="17.6610783">
        <ele>22.7283</ele>
        <time>2013-04-07T12:24:18Z</time>
      </trkpt>
      <trkpt lat="59.9404232" lon="17.6609202">
        <ele>22.7283</ele>
        <time>2013-04-07T12:24:19Z</time>
      </trkpt>
      <trkpt lat="59.9404513" lon="17.6607742">
        <ele>22.7283</ele>
        <time>2013-04-07T12:24:20Z</time>
      </trkpt>
      <trkpt lat="59.9404852" lon="17.6606416">
        <ele>22.2476</ele>
        <time>2013-04-07T12:24:21Z</time>
      </trkpt>
      <trkpt lat="59.9405141" lon="17.6605111">
        <ele>21.767</ele>
        <time>2013-04-07T12:24:22Z</time>
      </trkpt>
      <trkpt lat="59.9405322" lon="17.6603811">
        <ele>21.767</ele>
        <time>2013-04-07T12:24:23Z</time>
      </trkpt>
      <trkpt lat="59.9405412" lon="17.6602474">
        <ele>21.767</ele>
        <time>2013-04-07T12:24:24Z</time>
      </trkpt>
      <trkpt lat="59.9405373" lon="17.6601014">
        <ele>21.767</ele>
        <time>2013-04-07T12:24:25Z</time>
      </trkpt>
      <trkpt lat="59.9405159" lon="17.6599817">
        <ele>20.8057</ele>
        <time>2013-04-07T12:24:26Z</time>
      </trkpt>
      <trkpt lat="59.9404573" lon="17.6598797">
        <ele>20.8057</ele>
        <time>2013-04-07T12:24:27Z</time>
      </trkpt>
      <trkpt lat="59.9404282" lon="17.6598464">
        <ele>21.767</ele>
        <time>2013-04-07T12:24:28Z</time>
      </trkpt>
      <trkpt lat="59.9404089" lon="17.6596823">
        <ele>21.767</ele>
        <time>2013-04-07T12:24:29Z</time>
      </trkpt>
      <trkpt lat="59.9403631" lon="17.6595617">
        <ele>22.2476</ele>
        <time>2013-04-07T12:24:30Z</time>
      </trkpt>
      <trkpt lat="59.9403432" lon="17.6594259">
        <ele>21.2864</ele>
        <time>2013-04-07T12:24:31Z</time>
      </trkpt>
      <trkpt lat="59.9403198" lon="17.6592943">
        <ele>20.8057</ele>
        <time>2013-04-07T12:24:32Z</time>
      </trkpt>
      <trkpt lat="59.9402982" lon="17.6591599">
        <ele>20.8057</ele>
        <time>2013-04-07T12:24:33Z</time>
      </trkpt>
      <trkpt lat="59.9402754" lon="17.6590271">
        <ele>20.325</ele>
        <time>2013-04-07T12:24:34Z</time>
      </trkpt>
      <trkpt lat="59.9402506" lon="17.6588949">
        <ele>20.325</ele>
        <time>2013-04-07T12:24:35Z</time>
      </trkpt>
      <trkpt lat="59.9402247" lon="17.6587596">
        <ele>19.8444</ele>
        <time>2013-04-07T12:24:36Z</time>
      </trkpt>
      <trkpt lat="59.9401963" lon="17.6586178">
        <ele>20.325</ele>
        <time>2013-04-07T12:24:37Z</time>
      </trkpt>
      <trkpt lat="59.9401664" lon="17.6584836">
        <ele>20.325</ele>
        <time>2013-04-07T12:24:38Z</time>
      </trkpt>
      <trkpt lat="59.9401366" lon="17.6583546">
        <ele>20.325</ele>
        <time>2013-04-07T12:24:39Z</time>
      </trkpt>
      <trkpt lat="59.9401079" lon="17.6582335">
        <ele>20.8057</ele>
        <time>2013-04-07T12:24:40Z</time>
      </trkpt>
      <trkpt lat="59.9400803" lon="17.6581158">
        <ele>20.8057</ele>
        <time>2013-04-07T12:24:41Z</time>
      </trkpt>
      <trkpt lat="59.9400543" lon="17.6580006">
        <ele>20.8057</ele>
        <time>2013-04-07T12:24:42Z</time>
      </trkpt>
      <trkpt lat="59.9400294" lon="17.657886">
        <ele>20.8057</ele>
        <time>2013-04-07T12:24:43Z</time>
      </trkpt>
      <trkpt lat="59.9400049" lon="17.657775">
        <ele>20.8057</ele>
        <time>2013-04-07T12:24:44Z</time>
      </trkpt>
      <trkpt lat="59.9399813" lon="17.6576656">
        <ele>21.2864</ele>
        <time>2013-04-07T12:24:45Z</time>
      </trkpt>
      <trkpt lat="59.9399584" lon="17.6575559">
        <ele>21.2864</ele>
        <time>2013-04-07T12:24:46Z</time>
      </trkpt>
      <trkpt lat="59.9399356" lon="17.6574471">
        <ele>21.2864</ele>
        <time>2013-04-07T12:24:47Z</time>
      </trkpt>
      <trkpt lat="59.9399127" lon="17.6573389">
        <ele>21.767</ele>
        <time>2013-04-07T12:24:48Z</time>
      </trkpt>
      <trkpt lat="59.9398901" lon="17.6572314">
        <ele>21.767</ele>
        <time>2013-04-07T12:24:49Z</time>
      </trkpt>
      <trkpt lat="59.9398691" lon="17.6571248">
        <ele>21.767</ele>
        <time>2013-04-07T12:24:50Z</time>
      </trkpt>
      <trkpt lat="59.9398486" lon="17.6570209">
        <ele>22.2476</ele>
        <time>2013-04-07T12:24:51Z</time>
      </trkpt>
      <trkpt lat="59.9398269" lon="17.6569204">
        <ele>22.2476</ele>
        <time>2013-04-07T12:24:52Z</time>
      </trkpt>
      <trkpt lat="59.9398044" lon="17.656824">
        <ele>22.2476</ele>
        <time>2013-04-07T12:24:53Z</time>
      </trkpt>
      <trkpt lat="59.9397832" lon="17.6567302">
        <ele>22.7283</ele>
        <time>2013-04-07T12:24:54Z</time>
      </trkpt>
      <trkpt lat="59.9397639" lon="17.6566365">
        <ele>22.7283</ele>
        <time>2013-04-07T12:24:55Z</time>
      </trkpt>
      <trkpt lat="59.9397463" lon="17.6565426">
        <ele>22.7283</ele>
        <time>2013-04-07T12:24:56Z</time>
      </trkpt>
      <trkpt lat="59.93973" lon="17.6564478">
        <ele>23.209</ele>
        <time>2013-04-07T12:24:57Z</time>
      </trkpt>
      <trkpt lat="59.9397143" lon="17.6563526">
        <ele>23.209</ele>
        <time>2013-04-07T12:24:58Z</time>
      </trkpt>
      <trkpt lat="59.9396984" lon="17.6562579">
        <ele>23.209</ele>
        <time>2013-04-07T12:24:59Z</time>
      </trkpt>
      <trkpt lat="59.9396818" lon="17.656164">
        <ele>23.209</ele>
        <time>2013-04-07T12:25:00Z</time>
      </trkpt>
      <trkpt lat="59.9396632" lon="17.6560666">
        <ele>23.6896</ele>
        <time>2013-04-07T12:25:01Z</time>
      </trkpt>
      <trkpt lat="59.9396446" lon="17.6559769">
        <ele>23.6896</ele>
        <time>2013-04-07T12:25:02Z</time>
      </trkpt>
      <trkpt lat="59.9396258" lon="17.655887">
        <ele>23.6896</ele>
        <time>2013-04-07T12:25:03Z</time>
      </trkpt>
      <trkpt lat="59.9396062" lon="17.6557937">
        <ele>23.6896</ele>
        <time>2013-04-07T12:25:04Z</time>
      </trkpt>
      <trkpt lat="59.9395865" lon="17.6556983">
        <ele>24.1703</ele>
        <time>2013-04-07T12:25:05Z</time>
      </trkpt>
      <trkpt lat="59.9395662" lon="17.6556013">
        <ele>24.1703</ele>
        <time>2013-04-07T12:25:06Z</time>
      </trkpt>
      <trkpt lat="59.9395471" lon="17.6555078">
        <ele>24.651</ele>
        <time>2013-04-07T12:25:07Z</time>
      </trkpt>
      <trkpt lat="59.939529" lon="17.6554142">
        <ele>24.651</ele>
        <time>2013-04-07T12:25:08Z</time>
      </trkpt>
      <trkpt lat="59.939511" lon="17.6553208">
        <ele>24.1703</ele>
        <time>2013-04-07T12:25:09Z</time>
      </trkpt>
      <trkpt lat="59.9394918" lon="17.6552244">
        <ele>24.1703</ele>
        <time>2013-04-07T12:25:10Z</time>
      </trkpt>
      <trkpt lat="59.9394714" lon="17.6551246">
        <ele>24.1703</ele>
        <time>2013-04-07T12:25:11Z</time>
      </trkpt>
      <trkpt lat="59.9394508" lon="17.6550221">
        <ele>24.1703</ele>
        <time>2013-04-07T12:25:12Z</time>
      </trkpt>
      <trkpt lat="59.939428" lon="17.6549112">
        <ele>24.1703</ele>
        <time>2013-04-07T12:25:13Z</time>
      </trkpt>
      <trkpt lat="59.9394045" lon="17.6548026">
        <ele>24.1703</ele>
        <time>2013-04-07T12:25:14Z</time>
      </trkpt>
      <trkpt lat="59.9393819" lon="17.6546963">
        <ele>24.1703</ele>
        <time>2013-04-07T12:25:15Z</time>
      </trkpt>
      <trkpt lat="59.9393607" lon="17.6545881">
        <ele>24.1703</ele>
        <time>2013-04-07T12:25:16Z</time>
      </trkpt>
      <trkpt lat="59.9393397" lon="17.6544789">
        <ele>24.1703</ele>
        <time>2013-04-07T12:25:17Z</time>
      </trkpt>
      <trkpt lat="59.9393186" lon="17.6543691">
        <ele>24.651</ele>
        <time>2013-04-07T12:25:18Z</time>
      </trkpt>
      <trkpt lat="59.9392973" lon="17.6542576">
        <ele>24.651</ele>
        <time>2013-04-07T12:25:19Z</time>
      </trkpt>
      <trkpt lat="59.9392757" lon="17.6541493">
        <ele>24.651</ele>
        <time>2013-04-07T12:25:20Z</time>
      </trkpt>
      <trkpt lat="59.9392523" lon="17.6540386">
        <ele>24.651</ele>
        <time>2013-04-07T12:25:21Z</time>
      </trkpt>
      <trkpt lat="59.9392281" lon="17.6539272">
        <ele>24.651</ele>
        <time>2013-04-07T12:25:22Z</time>
      </trkpt>
      <trkpt lat="59.939205" lon="17.6538151">
        <ele>24.1703</ele>
        <time>2013-04-07T12:25:23Z</time>
      </trkpt>
      <trkpt lat="59.9391814" lon="17.6537014">
        <ele>24.1703</ele>
        <time>2013-04-07T12:25:24Z</time>
      </trkpt>
      <trkpt lat="59.9391565" lon="17.6535879">
        <ele>23.6896</ele>
        <time>2013-04-07T12:25:25Z</time>
      </trkpt>
      <trkpt lat="59.9391312" lon="17.653474">
        <ele>23.6896</ele>
        <time>2013-04-07T12:25:26Z</time>
      </trkpt>
      <trkpt lat="59.9391057" lon="17.6533603">
        <ele>23.6896</ele>
        <time>2013-04-07T12:25:27Z</time>
      </trkpt>
      <trkpt lat="59.9390793" lon="17.6532472">
        <ele>23.6896</ele>
        <time>2013-04-07T12:25:28Z</time>
      </trkpt>
      <trkpt lat="59.9390524" lon="17.6531336">
        <ele>23.6896</ele>
        <time>2013-04-07T12:25:29Z</time>
      </trkpt>
      <trkpt lat="59.9390247" lon="17.6530191">
        <ele>23.209</ele>
        <time>2013-04-07T12:25:30Z</time>
      </trkpt>
      <trkpt lat="59.9389965" lon="17.652905">
        <ele>23.209</ele>
        <time>2013-04-07T12:25:31Z</time>
      </trkpt>
      <trkpt lat="59.9389669" lon="17.6527897">
        <ele>22.7283</ele>
        <time>2013-04-07T12:25:32Z</time>
      </trkpt>
      <trkpt lat="59.9389355" lon="17.6526736">
        <ele>22.7283</ele>
        <time>2013-04-07T12:25:33Z</time>
      </trkpt>
      <trkpt lat="59.9389041" lon="17.6525546">
        <ele>22.7283</ele>
        <time>2013-04-07T12:25:34Z</time>
      </trkpt>
      <trkpt lat="59.9388722" lon="17.6524329">
        <ele>22.7283</ele>
        <time>2013-04-07T12:25:35Z</time>
      </trkpt>
      <trkpt lat="59.9388399" lon="17.6523122">
        <ele>22.7283</ele>
        <time>2013-04-07T12:25:36Z</time>
      </trkpt>
      <trkpt lat="59.9388078" lon="17.6521975">
        <ele>22.2476</ele>
        <time>2013-04-07T12:25:37Z</time>
      </trkpt>
      <trkpt lat="59.938774" lon="17.6520774">
        <ele>22.2476</ele>
        <time>2013-04-07T12:25:38Z</time>
      </trkpt>
      <trkpt lat="59.9387384" lon="17.6519567">
        <ele>22.2476</ele>
        <time>2013-04-07T12:25:39Z</time>
      </trkpt>
      <trkpt lat="59.9387017" lon="17.651836">
        <ele>21.767</ele>
        <time>2013-04-07T12:25:40Z</time>
      </trkpt>
      <trkpt lat="59.9386645" lon="17.6517133">
        <ele>21.767</ele>
        <time>2013-04-07T12:25:41Z</time>
      </trkpt>
      <trkpt lat="59.9386277" lon="17.6515916">
        <ele>21.767</ele>
        <time>2013-04-07T12:25:42Z</time>
      </trkpt>
      <trkpt lat="59.9385908" lon="17.6514682">
        <ele>21.767</ele>
        <time>2013-04-07T12:25:43Z</time>
      </trkpt>
      <trkpt lat="59.938553" lon="17.6513448">
        <ele>21.767</ele>
        <time>2013-04-07T12:25:44Z</time>
      </trkpt>
      <trkpt lat="59.9385142" lon="17.6512246">
        <ele>21.767</ele>
        <time>2013-04-07T12:25:45Z</time>
      </trkpt>
      <trkpt lat="59.9384738" lon="17.6511075">
        <ele>21.767</ele>
        <time>2013-04-07T12:25:46Z</time>
      </trkpt>
      <trkpt lat="59.9384309" lon="17.6509928">
        <ele>21.767</ele>
        <time>2013-04-07T12:25:47Z</time>
      </trkpt>
      <trkpt lat="59.9383856" lon="17.6508834">
        <ele>21.767</ele>
        <time>2013-04-07T12:25:48Z</time>
      </trkpt>
      <trkpt lat="59.9383376" lon="17.6507794">
        <ele>21.767</ele>
        <time>2013-04-07T12:25:49Z</time>
      </trkpt>
      <trkpt lat="59.9382894" lon="17.6506772">
        <ele>21.767</ele>
        <time>2013-04-07T12:25:50Z</time>
      </trkpt>
      <trkpt lat="59.9382439" lon="17.6505726">
        <ele>21.767</ele>
        <time>2013-04-07T12:25:51Z</time>
      </trkpt>
      <trkpt lat="59.9382016" lon="17.6504624">
        <ele>21.767</ele>
        <time>2013-04-07T12:25:52Z</time>
      </trkpt>
      <trkpt lat="59.9381614" lon="17.6503468">
        <ele>21.767</ele>
        <time>2013-04-07T12:25:53Z</time>
      </trkpt>
      <trkpt lat="59.9381221" lon="17.6502326">
        <ele>21.2864</ele>
        <time>2013-04-07T12:25:54Z</time>
      </trkpt>
      <trkpt lat="59.9380827" lon="17.6501204">
        <ele>21.2864</ele>
        <time>2013-04-07T12:25:55Z</time>
      </trkpt>
      <trkpt lat="59.9380433" lon="17.650012">
        <ele>21.2864</ele>
        <time>2013-04-07T12:25:56Z</time>
      </trkpt>
      <trkpt lat="59.9380025" lon="17.6499089">
        <ele>21.2864</ele>
        <time>2013-04-07T12:25:57Z</time>
      </trkpt>
      <trkpt lat="59.9379599" lon="17.6498109">
        <ele>21.2864</ele>
        <time>2013-04-07T12:25:58Z</time>
      </trkpt>
      <trkpt lat="59.9379186" lon="17.6497152">
        <ele>21.2864</ele>
        <time>2013-04-07T12:25:59Z</time>
      </trkpt>
      <trkpt lat="59.9378813" lon="17.649623">
        <ele>21.2864</ele>
        <time>2013-04-07T12:26:00Z</time>
      </trkpt>
      <trkpt lat="59.937846" lon="17.6495355">
        <ele>21.2864</ele>
        <time>2013-04-07T12:26:01Z</time>
      </trkpt>
      <trkpt lat="59.9378127" lon="17.6494507">
        <ele>21.767</ele>
        <time>2013-04-07T12:26:02Z</time>
      </trkpt>
      <trkpt lat="59.9377898" lon="17.649367">
        <ele>21.767</ele>
        <time>2013-04-07T12:26:03Z</time>
      </trkpt>
      <trkpt lat="59.9377898" lon="17.6492919">
        <ele>21.767</ele>
        <time>2013-04-07T12:26:04Z</time>
      </trkpt>
      <trkpt lat="59.9378377" lon="17.649324">
        <ele>21.767</ele>
        <time>2013-04-07T12:26:05Z</time>
      </trkpt>
      <trkpt lat="59.9378644" lon="17.6493608">
        <ele>21.2864</ele>
        <time>2013-04-07T12:26:06Z</time>
      </trkpt>
      <trkpt lat="59.9378921" lon="17.6493843">
        <ele>21.2864</ele>
        <time>2013-04-07T12:26:07Z</time>
      </trkpt>
      <trkpt lat="59.9379126" lon="17.649349">
        <ele>21.2864</ele>
        <time>2013-04-07T12:26:08Z</time>
      </trkpt>
      <trkpt lat="59.9379204" lon="17.6492893">
        <ele>21.2864</ele>
        <time>2013-04-07T12:26:09Z</time>
      </trkpt>
      <trkpt lat="59.9379107" lon="17.6492216">
        <ele>21.2864</ele>
        <time>2013-04-07T12:26:10Z</time>
      </trkpt>
      <trkpt lat="59.9378864" lon="17.6491508">
        <ele>21.767</ele>
        <time>2013-04-07T12:26:11Z</time>
      </trkpt>
      <trkpt lat="59.9378557" lon="17.6490876">
        <ele>21.2864</ele>
        <time>2013-04-07T12:26:12Z</time>
      </trkpt>
      <trkpt lat="59.937824" lon="17.6490244">
        <ele>21.2864</ele>
        <time>2013-04-07T12:26:13Z</time>
      </trkpt>
      <trkpt lat="59.9377912" lon="17.6489601">
        <ele>21.2864</ele>
        <time>2013-04-07T12:26:14Z</time>
      </trkpt>
      <trkpt lat="59.9377562" lon="17.6488937">
        <ele>21.2864</ele>
        <time>2013-04-07T12:26:15Z</time>
      </trkpt>
      <trkpt lat="59.9377197" lon="17.6488241">
        <ele>21.2864</ele>
        <time>2013-04-07T12:26:16Z</time>
      </trkpt>
      <trkpt lat="59.9376827" lon="17.6487505">
        <ele>21.2864</ele>
        <time>2013-04-07T12:26:17Z</time>
      </trkpt>
      <trkpt lat="59.9376433" lon="17.6486714">
        <ele>21.2864</ele>
        <time>2013-04-07T12:26:18Z</time>
      </trkpt>
      <trkpt lat="59.9376016" lon="17.6485885">
        <ele>21.2864</ele>
        <time>2013-04-07T12:26:19Z</time>
      </trkpt>
      <trkpt lat="59.9375579" lon="17.6485016">
        <ele>20.8057</ele>
        <time>2013-04-07T12:26:20Z</time>
      </trkpt>
      <trkpt lat="59.9375104" lon="17.6484151">
        <ele>20.8057</ele>
        <time>2013-04-07T12:26:21Z</time>
      </trkpt>
      <trkpt lat="59.9374543" lon="17.6483349">
        <ele>21.2864</ele>
        <time>2013-04-07T12:26:22Z</time>
      </trkpt>
      <trkpt lat="59.9373941" lon="17.6482667">
        <ele>21.2864</ele>
        <time>2013-04-07T12:26:23Z</time>
      </trkpt>
      <trkpt lat="59.9373329" lon="17.6482045">
        <ele>21.767</ele>
        <time>2013-04-07T12:26:24Z</time>
      </trkpt>
      <trkpt lat="59.9372728" lon="17.6481452">
        <ele>22.2476</ele>
        <time>2013-04-07T12:26:25Z</time>
      </trkpt>
      <trkpt lat="59.937215" lon="17.6480846">
        <ele>22.2476</ele>
        <time>2013-04-07T12:26:26Z</time>
      </trkpt>
      <trkpt lat="59.9371596" lon="17.6480232">
        <ele>22.7283</ele>
        <time>2013-04-07T12:26:27Z</time>
      </trkpt>
      <trkpt lat="59.9371038" lon="17.6479592">
        <ele>22.7283</ele>
        <time>2013-04-07T12:26:28Z</time>
      </trkpt>
      <trkpt lat="59.9370477" lon="17.647891">
        <ele>23.209</ele>
        <time>2013-04-07T12:26:29Z</time>
      </trkpt>
      <trkpt lat="59.9369911" lon="17.6478214">
        <ele>23.209</ele>
        <time>2013-04-07T12:26:30Z</time>
      </trkpt>
      <trkpt lat="59.9369353" lon="17.6477529">
        <ele>23.6896</ele>
        <time>2013-04-07T12:26:31Z</time>
      </trkpt>
      <trkpt lat="59.9368788" lon="17.6476867">
        <ele>23.6896</ele>
        <time>2013-04-07T12:26:32Z</time>
      </trkpt>
      <trkpt lat="59.9368213" lon="17.647621">
        <ele>23.6896</ele>
        <time>2013-04-07T12:26:33Z</time>
      </trkpt>
      <trkpt lat="59.9367648" lon="17.647554">
        <ele>23.6896</ele>
        <time>2013-04-07T12:26:34Z</time>
      </trkpt>
      <trkpt lat="59.9367094" lon="17.647483">
        <ele>23.6896</ele>
        <time>2013-04-07T12:26:35Z</time>
      </trkpt>
      <trkpt lat="59.936654" lon="17.6474075">
        <ele>23.6896</ele>
        <time>2013-04-07T12:26:36Z</time>
      </trkpt>
      <trkpt lat="59.9365974" lon="17.6473305">
        <ele>23.209</ele>
        <time>2013-04-07T12:26:37Z</time>
      </trkpt>
      <trkpt lat="59.93654" lon="17.647253">
        <ele>23.209</ele>
        <time>2013-04-07T12:26:38Z</time>
      </trkpt>
      <trkpt lat="59.936482" lon="17.6471748">
        <ele>23.209</ele>
        <time>2013-04-07T12:26:39Z</time>
      </trkpt>
      <trkpt lat="59.9364238" lon="17.6470992">
        <ele>23.209</ele>
        <time>2013-04-07T12:26:40Z</time>
      </trkpt>
      <trkpt lat="59.9363665" lon="17.6470247">
        <ele>23.6896</ele>
        <time>2013-04-07T12:26:41Z</time>
      </trkpt>
      <trkpt lat="59.9363114" lon="17.6469512">
        <ele>23.6896</ele>
        <time>2013-04-07T12:26:42Z</time>
      </trkpt>
      <trkpt lat="59.9362584" lon="17.6468756">
        <ele>23.6896</ele>
        <time>2013-04-07T12:26:43Z</time>
      </trkpt>
      <trkpt lat="59.9362066" lon="17.6467978">
        <ele>24.1703</ele>
        <time>2013-04-07T12:26:44Z</time>
      </trkpt>
      <trkpt lat="59.9361537" lon="17.6467233">
        <ele>24.1703</ele>
        <time>2013-04-07T12:26:45Z</time>
      </trkpt>
      <trkpt lat="59.9360998" lon="17.6466529">
        <ele>24.1703</ele>
        <time>2013-04-07T12:26:46Z</time>
      </trkpt>
      <trkpt lat="59.9360444" lon="17.6465879">
        <ele>24.651</ele>
        <time>2013-04-07T12:26:47Z</time>
      </trkpt>
      <trkpt lat="59.9359888" lon="17.646526">
        <ele>24.1703</ele>
        <time>2013-04-07T12:26:48Z</time>
      </trkpt>
      <trkpt lat="59.935933" lon="17.646463">
        <ele>24.1703</ele>
        <time>2013-04-07T12:26:49Z</time>
      </trkpt>
      <trkpt lat="59.9358791" lon="17.6463975">
        <ele>24.1703</ele>
        <time>2013-04-07T12:26:50Z</time>
      </trkpt>
      <trkpt lat="59.9358251" lon="17.6463316">
        <ele>24.1703</ele>
        <time>2013-04-07T12:26:51Z</time>
      </trkpt>
      <trkpt lat="59.9357719" lon="17.6462587">
        <ele>24.1703</ele>
        <time>2013-04-07T12:26:52Z</time>
      </trkpt>
      <trkpt lat="59.9357171" lon="17.6461822">
        <ele>23.6896</ele>
        <time>2013-04-07T12:26:53Z</time>
      </trkpt>
      <trkpt lat="59.9356598" lon="17.6461088">
        <ele>23.6896</ele>
        <time>2013-04-07T12:26:54Z</time>
      </trkpt>
      <trkpt lat="59.9356002" lon="17.6460367">
        <ele>23.209</ele>
        <time>2013-04-07T12:26:55Z</time>
      </trkpt>
      <trkpt lat="59.9355372" lon="17.6459654">
        <ele>23.209</ele>
        <time>2013-04-07T12:26:56Z</time>
      </trkpt>
      <trkpt lat="59.9354726" lon="17.6458965">
        <ele>22.7283</ele>
        <time>2013-04-07T12:26:57Z</time>
      </trkpt>
      <trkpt lat="59.9354077" lon="17.6458315">
        <ele>22.7283</ele>
        <time>2013-04-07T12:26:58Z</time>
      </trkpt>
      <trkpt lat="59.935345" lon="17.645765">
        <ele>23.209</ele>
        <time>2013-04-07T12:26:59Z</time>
      </trkpt>
      <trkpt lat="59.9352847" lon="17.645697">
        <ele>23.209</ele>
        <time>2013-04-07T12:27:00Z</time>
      </trkpt>
      <trkpt lat="59.9352254" lon="17.6456256">
        <ele>22.7283</ele>
        <time>2013-04-07T12:27:01Z</time>
      </trkpt>
      <trkpt lat="59.9351662" lon="17.6455545">
        <ele>22.7283</ele>
        <time>2013-04-07T12:27:02Z</time>
      </trkpt>
      <trkpt lat="59.9351072" lon="17.645481">
        <ele>23.209</ele>
        <time>2013-04-07T12:27:03Z</time>
      </trkpt>
      <trkpt lat="59.9350492" lon="17.6454071">
        <ele>23.6896</ele>
        <time>2013-04-07T12:27:04Z</time>
      </trkpt>
      <trkpt lat="59.9349929" lon="17.6453346">
        <ele>24.1703</ele>
        <time>2013-04-07T12:27:05Z</time>
      </trkpt>
      <trkpt lat="59.9349373" lon="17.6452635">
        <ele>24.1703</ele>
        <time>2013-04-07T12:27:06Z</time>
      </trkpt>
      <trkpt lat="59.9348815" lon="17.645194">
        <ele>24.1703</ele>
        <time>2013-04-07T12:27:07Z</time>
      </trkpt>
      <trkpt lat="59.9348247" lon="17.6451242">
        <ele>23.6896</ele>
        <time>2013-04-07T12:27:08Z</time>
      </trkpt>
      <trkpt lat="59.9347659" lon="17.6450558">
        <ele>23.6896</ele>
        <time>2013-04-07T12:27:09Z</time>
      </trkpt>
      <trkpt lat="59.9347073" lon="17.6449847">
        <ele>23.209</ele>
        <time>2013-04-07T12:27:10Z</time>
      </trkpt>
      <trkpt lat="59.9346467" lon="17.6449131">
        <ele>22.7283</ele>
        <time>2013-04-07T12:27:11Z</time>
      </trkpt>
      <trkpt lat="59.9345854" lon="17.644839">
        <ele>22.7283</ele>
        <time>2013-04-07T12:27:12Z</time>
      </trkpt>
      <trkpt lat="59.9345255" lon="17.6447584">
        <ele>22.7283</ele>
        <time>2013-04-07T12:27:13Z</time>
      </trkpt>
      <trkpt lat="59.9344676" lon="17.6446714">
        <ele>22.2476</ele>
        <time>2013-04-07T12:27:14Z</time>
      </trkpt>
      <trkpt lat="59.93441" lon="17.6445781">
        <ele>21.2864</ele>
        <time>2013-04-07T12:27:15Z</time>
      </trkpt>
      <trkpt lat="59.9343483" lon="17.6444804">
        <ele>20.8057</ele>
        <time>2013-04-07T12:27:16Z</time>
      </trkpt>
      <trkpt lat="59.9342805" lon="17.6443855">
        <ele>20.325</ele>
        <time>2013-04-07T12:27:17Z</time>
      </trkpt>
      <trkpt lat="59.934209" lon="17.6442911">
        <ele>20.8057</ele>
        <time>2013-04-07T12:27:18Z</time>
      </trkpt>
      <trkpt lat="59.9341376" lon="17.6441973">
        <ele>20.325</ele>
        <time>2013-04-07T12:27:19Z</time>
      </trkpt>
      <trkpt lat="59.9340662" lon="17.6441043">
        <ele>20.325</ele>
        <time>2013-04-07T12:27:20Z</time>
      </trkpt>
      <trkpt lat="59.9339944" lon="17.644012">
        <ele>19.8444</ele>
        <time>2013-04-07T12:27:21Z</time>
      </trkpt>
      <trkpt lat="59.9339219" lon="17.6439227">
        <ele>19.3638</ele>
        <time>2013-04-07T12:27:22Z</time>
      </trkpt>
      <trkpt lat="59.9338463" lon="17.643839">
        <ele>19.3638</ele>
        <time>2013-04-07T12:27:23Z</time>
      </trkpt>
      <trkpt lat="59.9337691" lon="17.6437628">
        <ele>19.3638</ele>
        <time>2013-04-07T12:27:24Z</time>
      </trkpt>
      <trkpt lat="59.9336906" lon="17.6436892">
        <ele>19.3638</ele>
        <time>2013-04-07T12:27:25Z</time>
      </trkpt>
      <trkpt lat="59.9336127" lon="17.6436134">
        <ele>18.8831</ele>
        <time>2013-04-07T12:27:26Z</time>
      </trkpt>
      <trkpt lat="59.9335351" lon="17.6435313">
        <ele>18.4023</ele>
        <time>2013-04-07T12:27:27Z</time>
      </trkpt>
      <trkpt lat="59.9334584" lon="17.6434421">
        <ele>18.4023</ele>
        <time>2013-04-07T12:27:28Z</time>
      </trkpt>
      <trkpt lat="59.9333848" lon="17.6433417">
        <ele>17.9218</ele>
        <time>2013-04-07T12:27:29Z</time>
      </trkpt>
      <trkpt lat="59.9333149" lon="17.6432287">
        <ele>16.9604</ele>
        <time>2013-04-07T12:27:30Z</time>
      </trkpt>
      <trkpt lat="59.9332459" lon="17.6431075">
        <ele>16.4797</ele>
        <time>2013-04-07T12:27:31Z</time>
      </trkpt>
      <trkpt lat="59.9331736" lon="17.6429875">
        <ele>15.999</ele>
        <time>2013-04-07T12:27:32Z</time>
      </trkpt>
      <trkpt lat="59.9330974" lon="17.6428745">
        <ele>15.5184</ele>
        <time>2013-04-07T12:27:33Z</time>
      </trkpt>
      <trkpt lat="59.9330185" lon="17.6427678">
        <ele>15.0377</ele>
        <time>2013-04-07T12:27:34Z</time>
      </trkpt>
      <trkpt lat="59.9329376" lon="17.6426631">
        <ele>15.0377</ele>
        <time>2013-04-07T12:27:35Z</time>
      </trkpt>
      <trkpt lat="59.9328587" lon="17.6425529">
        <ele>15.0377</ele>
        <time>2013-04-07T12:27:36Z</time>
      </trkpt>
      <trkpt lat="59.9327855" lon="17.6424319">
        <ele>14.557</ele>
        <time>2013-04-07T12:27:37Z</time>
      </trkpt>
      <trkpt lat="59.9327144" lon="17.6423097">
        <ele>14.557</ele>
        <time>2013-04-07T12:27:38Z</time>
      </trkpt>
      <trkpt lat="59.9326396" lon="17.6421985">
        <ele>14.0764</ele>
        <time>2013-04-07T12:27:39Z</time>
      </trkpt>
      <trkpt lat="59.9325616" lon="17.6421003">
        <ele>14.0764</ele>
        <time>2013-04-07T12:27:40Z</time>
      </trkpt>
      <trkpt lat="59.9324803" lon="17.6420144">
        <ele>14.0764</ele>
        <time>2013-04-07T12:27:41Z</time>
      </trkpt>
      <trkpt lat="59.9323973" lon="17.6419364">
        <ele>14.557</ele>
        <time>2013-04-07T12:27:42Z</time>
      </trkpt>
      <trkpt lat="59.9323155" lon="17.6418622">
        <ele>14.557</ele>
        <time>2013-04-07T12:27:43Z</time>
      </trkpt>
      <trkpt lat="59.9322344" lon="17.6417928">
        <ele>15.0377</ele>
        <time>2013-04-07T12:27:44Z</time>
      </trkpt>
      <trkpt lat="59.9321561" lon="17.6417256">
        <ele>15.5184</ele>
        <time>2013-04-07T12:27:45Z</time>
      </trkpt>
      <trkpt lat="59.9320821" lon="17.6416551">
        <ele>15.999</ele>
        <time>2013-04-07T12:27:46Z</time>
      </trkpt>
      <trkpt lat="59.9320127" lon="17.6415894">
        <ele>16.4797</ele>
        <time>2013-04-07T12:27:47Z</time>
      </trkpt>
      <trkpt lat="59.9319418" lon="17.6415307">
        <ele>16.4797</ele>
        <time>2013-04-07T12:27:48Z</time>
      </trkpt>
      <trkpt lat="59.931869" lon="17.6414794">
        <ele>16.4797</ele>
        <time>2013-04-07T12:27:49Z</time>
      </trkpt>
      <trkpt lat="59.9317942" lon="17.6414295">
        <ele>16.9604</ele>
        <time>2013-04-07T12:27:50Z</time>
      </trkpt>
      <trkpt lat="59.9317195" lon="17.6413779">
        <ele>16.9604</ele>
        <time>2013-04-07T12:27:51Z</time>
      </trkpt>
      <trkpt lat="59.931646" lon="17.6413271">
        <ele>16.9604</ele>
        <time>2013-04-07T12:27:52Z</time>
      </trkpt>
      <trkpt lat="59.931574" lon="17.6412765">
        <ele>17.4412</ele>
        <time>2013-04-07T12:27:53Z</time>
      </trkpt>
      <trkpt lat="59.9315029" lon="17.6412249">
        <ele>17.4412</ele>
        <time>2013-04-07T12:27:54Z</time>
      </trkpt>
      <trkpt lat="59.931432" lon="17.6411736">
        <ele>17.4412</ele>
        <time>2013-04-07T12:27:55Z</time>
      </trkpt>
      <trkpt lat="59.9313619" lon="17.6411244">
        <ele>17.9218</ele>
        <time>2013-04-07T12:27:56Z</time>
      </trkpt>
      <trkpt lat="59.9312916" lon="17.6410778">
        <ele>17.4412</ele>
        <time>2013-04-07T12:27:57Z</time>
      </trkpt>
      <trkpt lat="59.9312192" lon="17.6410265">
        <ele>16.9604</ele>
        <time>2013-04-07T12:27:58Z</time>
      </trkpt>
      <trkpt lat="59.9311437" lon="17.6409692">
        <ele>16.4797</ele>
        <time>2013-04-07T12:27:59Z</time>
      </trkpt>
      <trkpt lat="59.931065" lon="17.6409108">
        <ele>16.4797</ele>
        <time>2013-04-07T12:28:00Z</time>
      </trkpt>
      <trkpt lat="59.9309849" lon="17.6408532">
        <ele>16.4797</ele>
        <time>2013-04-07T12:28:01Z</time>
      </trkpt>
      <trkpt lat="59.9309047" lon="17.6408034">
        <ele>15.999</ele>
        <time>2013-04-07T12:28:02Z</time>
      </trkpt>
      <trkpt lat="59.9308243" lon="17.6407694">
        <ele>15.999</ele>
        <time>2013-04-07T12:28:03Z</time>
      </trkpt>
      <trkpt lat="59.930745" lon="17.6407535">
        <ele>15.5184</ele>
        <time>2013-04-07T12:28:04Z</time>
      </trkpt>
      <trkpt lat="59.9306679" lon="17.6407532">
        <ele>15.5184</ele>
        <time>2013-04-07T12:28:05Z</time>
      </trkpt>
      <trkpt lat="59.9305923" lon="17.6407642">
        <ele>15.0377</ele>
        <time>2013-04-07T12:28:06Z</time>
      </trkpt>
      <trkpt lat="59.9305151" lon="17.6407775">
        <ele>14.557</ele>
        <time>2013-04-07T12:28:07Z</time>
      </trkpt>
      <trkpt lat="59.9304369" lon="17.6407908">
        <ele>14.0764</ele>
        <time>2013-04-07T12:28:08Z</time>
      </trkpt>
      <trkpt lat="59.9303581" lon="17.6407988">
        <ele>13.5958</ele>
        <time>2013-04-07T12:28:09Z</time>
      </trkpt>
      <trkpt lat="59.930279" lon="17.6408014">
        <ele>13.5958</ele>
        <time>2013-04-07T12:28:10Z</time>
      </trkpt>
      <trkpt lat="59.9301996" lon="17.6408034">
        <ele>13.1151</ele>
        <time>2013-04-07T12:28:11Z</time>
      </trkpt>
      <trkpt lat="59.9301194" lon="17.6408058">
        <ele>12.6344</ele>
        <time>2013-04-07T12:28:12Z</time>
      </trkpt>
      <trkpt lat="59.9300401" lon="17.6408055">
        <ele>12.6344</ele>
        <time>2013-04-07T12:28:13Z</time>
      </trkpt>
      <trkpt lat="59.9299616" lon="17.6408092">
        <ele>12.1538</ele>
        <time>2013-04-07T12:28:14Z</time>
      </trkpt>
      <trkpt lat="59.9298837" lon="17.6408165">
        <ele>12.1538</ele>
        <time>2013-04-07T12:28:15Z</time>
      </trkpt>
      <trkpt lat="59.9298075" lon="17.6408252">
        <ele>12.1538</ele>
        <time>2013-04-07T12:28:16Z</time>
      </trkpt>
      <trkpt lat="59.929733" lon="17.6408379">
        <ele>12.1538</ele>
        <time>2013-04-07T12:28:17Z</time>
      </trkpt>
      <trkpt lat="59.9296573" lon="17.6408556">
        <ele>11.6732</ele>
        <time>2013-04-07T12:28:18Z</time>
      </trkpt>
      <trkpt lat="59.9295794" lon="17.6408774">
        <ele>11.6732</ele>
        <time>2013-04-07T12:28:19Z</time>
      </trkpt>
      <trkpt lat="59.9294993" lon="17.6408998">
        <ele>11.6732</ele>
        <time>2013-04-07T12:28:20Z</time>
      </trkpt>
      <trkpt lat="59.9294163" lon="17.6409169">
        <ele>11.1925</ele>
        <time>2013-04-07T12:28:21Z</time>
      </trkpt>
      <trkpt lat="59.9293303" lon="17.6409283">
        <ele>11.1925</ele>
        <time>2013-04-07T12:28:22Z</time>
      </trkpt>
      <trkpt lat="59.9292426" lon="17.6409351">
        <ele>11.1925</ele>
        <time>2013-04-07T12:28:23Z</time>
      </trkpt>
      <trkpt lat="59.9291538" lon="17.6409364">
        <ele>10.7118</ele>
        <time>2013-04-07T12:28:24Z</time>
      </trkpt>
      <trkpt lat="59.9290636" lon="17.6409338">
        <ele>10.7118</ele>
        <time>2013-04-07T12:28:25Z</time>
      </trkpt>
      <trkpt lat="59.9289725" lon="17.6409333">
        <ele>10.7118</ele>
        <time>2013-04-07T12:28:26Z</time>
      </trkpt>
      <trkpt lat="59.9288814" lon="17.6409392">
        <ele>10.7118</ele>
        <time>2013-04-07T12:28:27Z</time>
      </trkpt>
      <trkpt lat="59.9287911" lon="17.6409568">
        <ele>11.1925</ele>
        <time>2013-04-07T12:28:28Z</time>
      </trkpt>
      <trkpt lat="59.9287008" lon="17.6409816">
        <ele>11.1925</ele>
        <time>2013-04-07T12:28:29Z</time>
      </trkpt>
      <trkpt lat="59.9286104" lon="17.6410039">
        <ele>11.1925</ele>
        <time>2013-04-07T12:28:30Z</time>
      </trkpt>
      <trkpt lat="59.9285198" lon="17.6410268">
        <ele>10.7118</ele>
        <time>2013-04-07T12:28:31Z</time>
      </trkpt>
      <trkpt lat="59.9284284" lon="17.6410459">
        <ele>10.7118</ele>
        <time>2013-04-07T12:28:32Z</time>
      </trkpt>
      <trkpt lat="59.9283357" lon="17.6410572">
        <ele>10.2312</ele>
        <time>2013-04-07T12:28:33Z</time>
      </trkpt>
      <trkpt lat="59.9282427" lon="17.6410641">
        <ele>10.2312</ele>
        <time>2013-04-07T12:28:34Z</time>
      </trkpt>
      <trkpt lat="59.9281507" lon="17.6410717">
        <ele>10.2312</ele>
        <time>2013-04-07T12:28:35Z</time>
      </trkpt>
      <trkpt lat="59.9280595" lon="17.6410816">
        <ele>10.2312</ele>
        <time>2013-04-07T12:28:36Z</time>
      </trkpt>
      <trkpt lat="59.9279686" lon="17.6410919">
        <ele>10.2312</ele>
        <time>2013-04-07T12:28:37Z</time>
      </trkpt>
      <trkpt lat="59.9278779" lon="17.6411018">
        <ele>10.2312</ele>
        <time>2013-04-07T12:28:38Z</time>
      </trkpt>
      <trkpt lat="59.9277873" lon="17.6411112">
        <ele>10.2312</ele>
        <time>2013-04-07T12:28:39Z</time>
      </trkpt>
      <trkpt lat="59.9276967" lon="17.6411199">
        <ele>9.75061</ele>
        <time>2013-04-07T12:28:40Z</time>
      </trkpt>
      <trkpt lat="59.9276059" lon="17.6411285">
        <ele>9.75061</ele>
        <time>2013-04-07T12:28:41Z</time>
      </trkpt>
      <trkpt lat="59.9275151" lon="17.641138">
        <ele>9.75061</ele>
        <time>2013-04-07T12:28:42Z</time>
      </trkpt>
      <trkpt lat="59.9274242" lon="17.6411472">
        <ele>9.75061</ele>
        <time>2013-04-07T12:28:43Z</time>
      </trkpt>
      <trkpt lat="59.9273334" lon="17.6411547">
        <ele>9.75061</ele>
        <time>2013-04-07T12:28:44Z</time>
      </trkpt>
      <trkpt lat="59.9272422" lon="17.6411619">
        <ele>9.75061</ele>
        <time>2013-04-07T12:28:45Z</time>
      </trkpt>
      <trkpt lat="59.9271506" lon="17.6411697">
        <ele>9.75061</ele>
        <time>2013-04-07T12:28:46Z</time>
      </trkpt>
      <trkpt lat="59.9270584" lon="17.6411772">
        <ele>9.75061</ele>
        <time>2013-04-07T12:28:47Z</time>
      </trkpt>
      <trkpt lat="59.9269662" lon="17.641185">
        <ele>9.75061</ele>
        <time>2013-04-07T12:28:48Z</time>
      </trkpt>
      <trkpt lat="59.926874" lon="17.6411935">
        <ele>9.75061</ele>
        <time>2013-04-07T12:28:49Z</time>
      </trkpt>
      <trkpt lat="59.9267823" lon="17.6412044">
        <ele>9.75061</ele>
        <time>2013-04-07T12:28:50Z</time>
      </trkpt>
      <trkpt lat="59.9266909" lon="17.6412167">
        <ele>9.75061</ele>
        <time>2013-04-07T12:28:51Z</time>
      </trkpt>
      <trkpt lat="59.9265995" lon="17.6412276">
        <ele>9.75061</ele>
        <time>2013-04-07T12:28:52Z</time>
      </trkpt>
      <trkpt lat="59.9265078" lon="17.6412386">
        <ele>9.75061</ele>
        <time>2013-04-07T12:28:53Z</time>
      </trkpt>
      <trkpt lat="59.9264162" lon="17.6412492">
        <ele>9.75061</ele>
        <time>2013-04-07T12:28:54Z</time>
      </trkpt>
      <trkpt lat="59.9263252" lon="17.6412598">
        <ele>9.75061</ele>
        <time>2013-04-07T12:28:55Z</time>
      </trkpt>
      <trkpt lat="59.9262348" lon="17.641272">
        <ele>9.75061</ele>
        <time>2013-04-07T12:28:56Z</time>
      </trkpt>
      <trkpt lat="59.9261451" lon="17.6412843">
        <ele>9.75061</ele>
        <time>2013-04-07T12:28:57Z</time>
      </trkpt>
      <trkpt lat="59.9260561" lon="17.6412961">
        <ele>9.75061</ele>
        <time>2013-04-07T12:28:58Z</time>
      </trkpt>
      <trkpt lat="59.9259681" lon="17.6413084">
        <ele>9.75061</ele>
        <time>2013-04-07T12:28:59Z</time>
      </trkpt>
      <trkpt lat="59.925881" lon="17.6413215">
        <ele>9.75061</ele>
        <time>2013-04-07T12:29:00Z</time>
      </trkpt>
      <trkpt lat="59.9257945" lon="17.6413349">
        <ele>10.2312</ele>
        <time>2013-04-07T12:29:01Z</time>
      </trkpt>
      <trkpt lat="59.9257088" lon="17.6413473">
        <ele>10.2312</ele>
        <time>2013-04-07T12:29:02Z</time>
      </trkpt>
      <trkpt lat="59.9256235" lon="17.6413586">
        <ele>10.2312</ele>
        <time>2013-04-07T12:29:03Z</time>
      </trkpt>
      <trkpt lat="59.9255387" lon="17.6413696">
        <ele>10.2312</ele>
        <time>2013-04-07T12:29:04Z</time>
      </trkpt>
      <trkpt lat="59.925455" lon="17.641379">
        <ele>10.2312</ele>
        <time>2013-04-07T12:29:05Z</time>
      </trkpt>
      <trkpt lat="59.9253718" lon="17.6413855">
        <ele>10.7118</ele>
        <time>2013-04-07T12:29:06Z</time>
      </trkpt>
      <trkpt lat="59.9252894" lon="17.6413894">
        <ele>10.7118</ele>
        <time>2013-04-07T12:29:07Z</time>
      </trkpt>
      <trkpt lat="59.9252075" lon="17.6413924">
        <ele>10.7118</ele>
        <time>2013-04-07T12:29:08Z</time>
      </trkpt>
      <trkpt lat="59.9251252" lon="17.6413944">
        <ele>10.7118</ele>
        <time>2013-04-07T12:29:09Z</time>
      </trkpt>
      <trkpt lat="59.9250424" lon="17.641395">
        <ele>10.7118</ele>
        <time>2013-04-07T12:29:10Z</time>
      </trkpt>
      <trkpt lat="59.9249603" lon="17.6413975">
        <ele>10.7118</ele>
        <time>2013-04-07T12:29:11Z</time>
      </trkpt>
      <trkpt lat="59.9248784" lon="17.6414047">
        <ele>10.7118</ele>
        <time>2013-04-07T12:29:12Z</time>
      </trkpt>
      <trkpt lat="59.9247969" lon="17.6414152">
        <ele>10.7118</ele>
        <time>2013-04-07T12:29:13Z</time>
      </trkpt>
      <trkpt lat="59.9247159" lon="17.6414297">
        <ele>10.7118</ele>
        <time>2013-04-07T12:29:14Z</time>
      </trkpt>
      <trkpt lat="59.9246349" lon="17.6414498">
        <ele>10.7118</ele>
        <time>2013-04-07T12:29:15Z</time>
      </trkpt>
      <trkpt lat="59.9245544" lon="17.6414722">
        <ele>10.2312</ele>
        <time>2013-04-07T12:29:16Z</time>
      </trkpt>
      <trkpt lat="59.9244741" lon="17.6414934">
        <ele>10.7118</ele>
        <time>2013-04-07T12:29:17Z</time>
      </trkpt>
      <trkpt lat="59.9243932" lon="17.6415079">
        <ele>11.1925</ele>
        <time>2013-04-07T12:29:18Z</time>
      </trkpt>
      <trkpt lat="59.9243129" lon="17.6415167">
        <ele>11.6732</ele>
        <time>2013-04-07T12:29:19Z</time>
      </trkpt>
      <trkpt lat="59.9242332" lon="17.6415234">
        <ele>12.1538</ele>
        <time>2013-04-07T12:29:20Z</time>
      </trkpt>
      <trkpt lat="59.9241543" lon="17.6415297">
        <ele>13.1151</ele>
        <time>2013-04-07T12:29:21Z</time>
      </trkpt>
      <trkpt lat="59.9240757" lon="17.6415359">
        <ele>13.5958</ele>
        <time>2013-04-07T12:29:22Z</time>
      </trkpt>
      <trkpt lat="59.9239975" lon="17.6415426">
        <ele>14.0764</ele>
        <time>2013-04-07T12:29:23Z</time>
      </trkpt>
      <trkpt lat="59.9239199" lon="17.6415533">
        <ele>14.557</ele>
        <time>2013-04-07T12:29:24Z</time>
      </trkpt>
      <trkpt lat="59.9238429" lon="17.6415661">
        <ele>15.5184</ele>
        <time>2013-04-07T12:29:25Z</time>
      </trkpt>
      <trkpt lat="59.9237662" lon="17.64158">
        <ele>15.5184</ele>
        <time>2013-04-07T12:29:26Z</time>
      </trkpt>
      <trkpt lat="59.9236899" lon="17.6415917">
        <ele>15.0377</ele>
        <time>2013-04-07T12:29:27Z</time>
      </trkpt>
      <trkpt lat="59.9236152" lon="17.6416023">
        <ele>15.5184</ele>
        <time>2013-04-07T12:29:28Z</time>
      </trkpt>
      <trkpt lat="59.9235422" lon="17.6416157">
        <ele>15.5184</ele>
        <time>2013-04-07T12:29:29Z</time>
      </trkpt>
      <trkpt lat="59.9234702" lon="17.6416301">
        <ele>15.5184</ele>
        <time>2013-04-07T12:29:30Z</time>
      </trkpt>
      <trkpt lat="59.923399" lon="17.641642">
        <ele>15.5184</ele>
        <time>2013-04-07T12:29:31Z</time>
      </trkpt>
      <trkpt lat="59.923329" lon="17.6416539">
        <ele>15.5184</ele>
        <time>2013-04-07T12:29:32Z</time>
      </trkpt>
      <trkpt lat="59.9232598" lon="17.6416668">
        <ele>15.5184</ele>
        <time>2013-04-07T12:29:33Z</time>
      </trkpt>
      <trkpt lat="59.9231908" lon="17.6416789">
        <ele>15.5184</ele>
        <time>2013-04-07T12:29:34Z</time>
      </trkpt>
      <trkpt lat="59.9231211" lon="17.6416924">
        <ele>15.5184</ele>
        <time>2013-04-07T12:29:35Z</time>
      </trkpt>
      <trkpt lat="59.9230511" lon="17.6417047">
        <ele>15.5184</ele>
        <time>2013-04-07T12:29:36Z</time>
      </trkpt>
      <trkpt lat="59.9229811" lon="17.6417131">
        <ele>15.5184</ele>
        <time>2013-04-07T12:29:37Z</time>
      </trkpt>
      <trkpt lat="59.9229112" lon="17.6417203">
        <ele>15.5184</ele>
        <time>2013-04-07T12:29:38Z</time>
      </trkpt>
      <trkpt lat="59.9228423" lon="17.6417281">
        <ele>15.5184</ele>
        <time>2013-04-07T12:29:39Z</time>
      </trkpt>
      <trkpt lat="59.9227738" lon="17.641736">
        <ele>15.999</ele>
        <time>2013-04-07T12:29:40Z</time>
      </trkpt>
      <trkpt lat="59.9227111" lon="17.6417621">
        <ele>15.999</ele>
        <time>2013-04-07T12:29:41Z</time>
      </trkpt>
      <trkpt lat="59.9226419" lon="17.6417758">
        <ele>16.4797</ele>
        <time>2013-04-07T12:29:42Z</time>
      </trkpt>
      <trkpt lat="59.9225754" lon="17.6417833">
        <ele>16.9604</ele>
        <time>2013-04-07T12:29:43Z</time>
      </trkpt>
      <trkpt lat="59.9225091" lon="17.6417934">
        <ele>17.4412</ele>
        <time>2013-04-07T12:29:44Z</time>
      </trkpt>
      <trkpt lat="59.9224429" lon="17.6418047">
        <ele>17.4412</ele>
        <time>2013-04-07T12:29:45Z</time>
      </trkpt>
      <trkpt lat="59.9223766" lon="17.6418151">
        <ele>17.4412</ele>
        <time>2013-04-07T12:29:46Z</time>
      </trkpt>
      <trkpt lat="59.9223098" lon="17.6418253">
        <ele>17.4412</ele>
        <time>2013-04-07T12:29:47Z</time>
      </trkpt>
      <trkpt lat="59.9222428" lon="17.6418337">
        <ele>17.9218</ele>
        <time>2013-04-07T12:29:48Z</time>
      </trkpt>
      <trkpt lat="59.9221754" lon="17.6418395">
        <ele>17.9218</ele>
        <time>2013-04-07T12:29:49Z</time>
      </trkpt>
      <trkpt lat="59.9221076" lon="17.641846">
        <ele>17.9218</ele>
        <time>2013-04-07T12:29:50Z</time>
      </trkpt>
      <trkpt lat="59.9220394" lon="17.6418551">
        <ele>17.9218</ele>
        <time>2013-04-07T12:29:51Z</time>
      </trkpt>
      <trkpt lat="59.9219709" lon="17.6418679">
        <ele>17.9218</ele>
        <time>2013-04-07T12:29:52Z</time>
      </trkpt>
      <trkpt lat="59.9219017" lon="17.6418831">
        <ele>18.4023</ele>
        <time>2013-04-07T12:29:53Z</time>
      </trkpt>
      <trkpt lat="59.9218326" lon="17.6418948">
        <ele>18.8831</ele>
        <time>2013-04-07T12:29:54Z</time>
      </trkpt>
      <trkpt lat="59.9217639" lon="17.6419043">
        <ele>18.8831</ele>
        <time>2013-04-07T12:29:55Z</time>
      </trkpt>
      <trkpt lat="59.9216782" lon="17.6418882">
        <ele>19.3638</ele>
        <time>2013-04-07T12:29:56Z</time>
      </trkpt>
      <trkpt lat="59.9216037" lon="17.6418986">
        <ele>19.3638</ele>
        <time>2013-04-07T12:29:57Z</time>
      </trkpt>
      <trkpt lat="59.9215433" lon="17.641899">
        <ele>19.3638</ele>
        <time>2013-04-07T12:29:58Z</time>
      </trkpt>
      <trkpt lat="59.9214752" lon="17.6419026">
        <ele>19.3638</ele>
        <time>2013-04-07T12:29:59Z</time>
      </trkpt>
      <trkpt lat="59.9214074" lon="17.6419115">
        <ele>19.3638</ele>
        <time>2013-04-07T12:30:00Z</time>
      </trkpt>
      <trkpt lat="59.9213399" lon="17.6419193">
        <ele>18.8831</ele>
        <time>2013-04-07T12:30:01Z</time>
      </trkpt>
      <trkpt lat="59.9212721" lon="17.6419115">
        <ele>19.3638</ele>
        <time>2013-04-07T12:30:02Z</time>
      </trkpt>
      <trkpt lat="59.9212023" lon="17.6419094">
        <ele>19.3638</ele>
        <time>2013-04-07T12:30:03Z</time>
      </trkpt>
      <trkpt lat="59.9211293" lon="17.641913">
        <ele>18.8831</ele>
        <time>2013-04-07T12:30:04Z</time>
      </trkpt>
      <trkpt lat="59.9210493" lon="17.6419181">
        <ele>18.4023</ele>
        <time>2013-04-07T12:30:05Z</time>
      </trkpt>
      <trkpt lat="59.9209774" lon="17.6419063">
        <ele>17.9218</ele>
        <time>2013-04-07T12:30:06Z</time>
      </trkpt>
      <trkpt lat="59.9209013" lon="17.6419037">
        <ele>17.4412</ele>
        <time>2013-04-07T12:30:07Z</time>
      </trkpt>
      <trkpt lat="59.9208305" lon="17.6418809">
        <ele>17.4412</ele>
        <time>2013-04-07T12:30:08Z</time>
      </trkpt>
      <trkpt lat="59.9207512" lon="17.6418809">
        <ele>17.4412</ele>
        <time>2013-04-07T12:30:09Z</time>
      </trkpt>
      <trkpt lat="59.9206729" lon="17.6418767">
        <ele>16.9604</ele>
        <time>2013-04-07T12:30:10Z</time>
      </trkpt>
      <trkpt lat="59.9205948" lon="17.6418778">
        <ele>16.4797</ele>
        <time>2013-04-07T12:30:11Z</time>
      </trkpt>
      <trkpt lat="59.920517" lon="17.6418804">
        <ele>16.4797</ele>
        <time>2013-04-07T12:30:12Z</time>
      </trkpt>
      <trkpt lat="59.9204407" lon="17.6418706">
        <ele>15.999</ele>
        <time>2013-04-07T12:30:13Z</time>
      </trkpt>
      <trkpt lat="59.9203656" lon="17.6418824">
        <ele>15.999</ele>
        <time>2013-04-07T12:30:14Z</time>
      </trkpt>
      <trkpt lat="59.9202904" lon="17.6418912">
        <ele>15.999</ele>
        <time>2013-04-07T12:30:15Z</time>
      </trkpt>
      <trkpt lat="59.9202163" lon="17.6418963">
        <ele>15.5184</ele>
        <time>2013-04-07T12:30:16Z</time>
      </trkpt>
      <trkpt lat="59.9201436" lon="17.6419019">
        <ele>15.5184</ele>
        <time>2013-04-07T12:30:17Z</time>
      </trkpt>
      <trkpt lat="59.9200709" lon="17.6419081">
        <ele>15.0377</ele>
        <time>2013-04-07T12:30:18Z</time>
      </trkpt>
      <trkpt lat="59.9199973" lon="17.6419152">
        <ele>15.0377</ele>
        <time>2013-04-07T12:30:19Z</time>
      </trkpt>
      <trkpt lat="59.9199232" lon="17.6419252">
        <ele>15.5184</ele>
        <time>2013-04-07T12:30:20Z</time>
      </trkpt>
      <trkpt lat="59.9198487" lon="17.6419405">
        <ele>15.5184</ele>
        <time>2013-04-07T12:30:21Z</time>
      </trkpt>
      <trkpt lat="59.9197747" lon="17.6419627">
        <ele>15.5184</ele>
        <time>2013-04-07T12:30:22Z</time>
      </trkpt>
      <trkpt lat="59.9197015" lon="17.6419859">
        <ele>15.5184</ele>
        <time>2013-04-07T12:30:23Z</time>
      </trkpt>
      <trkpt lat="59.9196285" lon="17.6420031">
        <ele>15.5184</ele>
        <time>2013-04-07T12:30:24Z</time>
      </trkpt>
      <trkpt lat="59.9195554" lon="17.6420144">
        <ele>15.5184</ele>
        <time>2013-04-07T12:30:25Z</time>
      </trkpt>
      <trkpt lat="59.919482" lon="17.6420233">
        <ele>15.5184</ele>
        <time>2013-04-07T12:30:26Z</time>
      </trkpt>
      <trkpt lat="59.9194082" lon="17.6420309">
        <ele>15.5184</ele>
        <time>2013-04-07T12:30:27Z</time>
      </trkpt>
      <trkpt lat="59.9193345" lon="17.6420384">
        <ele>15.5184</ele>
        <time>2013-04-07T12:30:28Z</time>
      </trkpt>
      <trkpt lat="59.9192609" lon="17.6420476">
        <ele>15.5184</ele>
        <time>2013-04-07T12:30:29Z</time>
      </trkpt>
      <trkpt lat="59.9191872" lon="17.6420565">
        <ele>15.5184</ele>
        <time>2013-04-07T12:30:30Z</time>
      </trkpt>
      <trkpt lat="59.919114" lon="17.6420647">
        <ele>15.5184</ele>
        <time>2013-04-07T12:30:31Z</time>
      </trkpt>
      <trkpt lat="59.9190408" lon="17.6420737">
        <ele>15.5184</ele>
        <time>2013-04-07T12:30:32Z</time>
      </trkpt>
      <trkpt lat="59.9189672" lon="17.6420846">
        <ele>15.5184</ele>
        <time>2013-04-07T12:30:33Z</time>
      </trkpt>
      <trkpt lat="59.9188933" lon="17.6420959">
        <ele>15.5184</ele>
        <time>2013-04-07T12:30:34Z</time>
      </trkpt>
      <trkpt lat="59.9188188" lon="17.6421057">
        <ele>15.5184</ele>
        <time>2013-04-07T12:30:35Z</time>
      </trkpt>
      <trkpt lat="59.9187434" lon="17.642115">
        <ele>15.0377</ele>
        <time>2013-04-07T12:30:36Z</time>
      </trkpt>
      <trkpt lat="59.9186672" lon="17.6421231">
        <ele>15.0377</ele>
        <time>2013-04-07T12:30:37Z</time>
      </trkpt>
      <trkpt lat="59.9185903" lon="17.6421321">
        <ele>15.0377</ele>
        <time>2013-04-07T12:30:38Z</time>
      </trkpt>
      <trkpt lat="59.9185128" lon="17.6421423">
        <ele>15.0377</ele>
        <time>2013-04-07T12:30:39Z</time>
      </trkpt>
      <trkpt lat="59.9184345" lon="17.6421523">
        <ele>15.0377</ele>
        <time>2013-04-07T12:30:40Z</time>
      </trkpt>
      <trkpt lat="59.9183548" lon="17.6421627">
        <ele>14.557</ele>
        <time>2013-04-07T12:30:41Z</time>
      </trkpt>
      <trkpt lat="59.9182739" lon="17.6421715">
        <ele>14.0764</ele>
        <time>2013-04-07T12:30:42Z</time>
      </trkpt>
      <trkpt lat="59.9181912" lon="17.6421813">
        <ele>14.0764</ele>
        <time>2013-04-07T12:30:43Z</time>
      </trkpt>
      <trkpt lat="59.9181067" lon="17.6421912">
        <ele>13.5958</ele>
        <time>2013-04-07T12:30:44Z</time>
      </trkpt>
      <trkpt lat="59.9180207" lon="17.6422003">
        <ele>13.5958</ele>
        <time>2013-04-07T12:30:45Z</time>
      </trkpt>
      <trkpt lat="59.9179331" lon="17.6422093">
        <ele>13.1151</ele>
        <time>2013-04-07T12:30:46Z</time>
      </trkpt>
      <trkpt lat="59.9178445" lon="17.6422185">
        <ele>13.1151</ele>
        <time>2013-04-07T12:30:47Z</time>
      </trkpt>
      <trkpt lat="59.9177555" lon="17.6422269">
        <ele>12.6344</ele>
        <time>2013-04-07T12:30:48Z</time>
      </trkpt>
      <trkpt lat="59.9176668" lon="17.6422326">
        <ele>12.6344</ele>
        <time>2013-04-07T12:30:49Z</time>
      </trkpt>
      <trkpt lat="59.9175778" lon="17.6422335">
        <ele>12.6344</ele>
        <time>2013-04-07T12:30:50Z</time>
      </trkpt>
      <trkpt lat="59.9174887" lon="17.6422341">
        <ele>12.6344</ele>
        <time>2013-04-07T12:30:51Z</time>
      </trkpt>
      <trkpt lat="59.9173996" lon="17.6422403">
        <ele>12.1538</ele>
        <time>2013-04-07T12:30:52Z</time>
      </trkpt>
      <trkpt lat="59.9173106" lon="17.6422454">
        <ele>12.1538</ele>
        <time>2013-04-07T12:30:53Z</time>
      </trkpt>
      <trkpt lat="59.9172225" lon="17.6422429">
        <ele>12.1538</ele>
        <time>2013-04-07T12:30:54Z</time>
      </trkpt>
      <trkpt lat="59.9171355" lon="17.6422451">
        <ele>12.6344</ele>
        <time>2013-04-07T12:30:55Z</time>
      </trkpt>
      <trkpt lat="59.9170513" lon="17.6422684">
        <ele>13.1151</ele>
        <time>2013-04-07T12:30:56Z</time>
      </trkpt>
      <trkpt lat="59.916969" lon="17.6422989">
        <ele>13.5958</ele>
        <time>2013-04-07T12:30:57Z</time>
      </trkpt>
      <trkpt lat="59.9168871" lon="17.6423196">
        <ele>14.557</ele>
        <time>2013-04-07T12:30:58Z</time>
      </trkpt>
      <trkpt lat="59.9168059" lon="17.6423322">
        <ele>15.0377</ele>
        <time>2013-04-07T12:30:59Z</time>
      </trkpt>
      <trkpt lat="59.9167255" lon="17.642344">
        <ele>15.5184</ele>
        <time>2013-04-07T12:31:00Z</time>
      </trkpt>
      <trkpt lat="59.9166454" lon="17.6423549">
        <ele>16.4797</ele>
        <time>2013-04-07T12:31:01Z</time>
      </trkpt>
      <trkpt lat="59.9165651" lon="17.6423659">
        <ele>16.9604</ele>
        <time>2013-04-07T12:31:02Z</time>
      </trkpt>
      <trkpt lat="59.9164843" lon="17.6423787">
        <ele>16.9604</ele>
        <time>2013-04-07T12:31:03Z</time>
      </trkpt>
      <trkpt lat="59.9164023" lon="17.6423914">
        <ele>16.9604</ele>
        <time>2013-04-07T12:31:04Z</time>
      </trkpt>
      <trkpt lat="59.9163196" lon="17.642406">
        <ele>16.9604</ele>
        <time>2013-04-07T12:31:05Z</time>
      </trkpt>
      <trkpt lat="59.9162376" lon="17.6424207">
        <ele>16.9604</ele>
        <time>2013-04-07T12:31:06Z</time>
      </trkpt>
      <trkpt lat="59.9161558" lon="17.642432">
        <ele>16.4797</ele>
        <time>2013-04-07T12:31:07Z</time>
      </trkpt>
      <trkpt lat="59.9160733" lon="17.6424388">
        <ele>16.4797</ele>
        <time>2013-04-07T12:31:08Z</time>
      </trkpt>
      <trkpt lat="59.91599" lon="17.6424392">
        <ele>16.4797</ele>
        <time>2013-04-07T12:31:09Z</time>
      </trkpt>
      <trkpt lat="59.9159058" lon="17.6424356">
        <ele>15.999</ele>
        <time>2013-04-07T12:31:10Z</time>
      </trkpt>
      <trkpt lat="59.9158212" lon="17.6424345">
        <ele>15.999</ele>
        <time>2013-04-07T12:31:11Z</time>
      </trkpt>
      <trkpt lat="59.9157372" lon="17.642437">
        <ele>15.999</ele>
        <time>2013-04-07T12:31:12Z</time>
      </trkpt>
      <trkpt lat="59.9156545" lon="17.6424443">
        <ele>15.5184</ele>
        <time>2013-04-07T12:31:13Z</time>
      </trkpt>
      <trkpt lat="59.9155735" lon="17.6424565">
        <ele>15.5184</ele>
        <time>2013-04-07T12:31:14Z</time>
      </trkpt>
      <trkpt lat="59.9154939" lon="17.6424735">
        <ele>15.5184</ele>
        <time>2013-04-07T12:31:15Z</time>
      </trkpt>
      <trkpt lat="59.9154164" lon="17.6424943">
        <ele>15.5184</ele>
        <time>2013-04-07T12:31:16Z</time>
      </trkpt>
      <trkpt lat="59.915342" lon="17.6425228">
        <ele>15.0377</ele>
        <time>2013-04-07T12:31:17Z</time>
      </trkpt>
      <trkpt lat="59.9152721" lon="17.6425591">
        <ele>15.5184</ele>
        <time>2013-04-07T12:31:18Z</time>
      </trkpt>
      <trkpt lat="59.915208" lon="17.6426019">
        <ele>15.5184</ele>
        <time>2013-04-07T12:31:19Z</time>
      </trkpt>
      <trkpt lat="59.9151576" lon="17.6426372">
        <ele>15.0377</ele>
        <time>2013-04-07T12:31:20Z</time>
      </trkpt>
      <trkpt lat="59.9151089" lon="17.6426681">
        <ele>15.0377</ele>
        <time>2013-04-07T12:31:21Z</time>
      </trkpt>
      <trkpt lat="59.9150577" lon="17.6426966">
        <ele>15.0377</ele>
        <time>2013-04-07T12:31:22Z</time>
      </trkpt>
      <trkpt lat="59.9150039" lon="17.6427133">
        <ele>15.5184</ele>
        <time>2013-04-07T12:31:23Z</time>
      </trkpt>
      <trkpt lat="59.9149467" lon="17.642718">
        <ele>15.5184</ele>
        <time>2013-04-07T12:31:24Z</time>
      </trkpt>
      <trkpt lat="59.9148879" lon="17.6427193">
        <ele>15.5184</ele>
        <time>2013-04-07T12:31:25Z</time>
      </trkpt>
      <trkpt lat="59.9148267" lon="17.6427266">
        <ele>15.999</ele>
        <time>2013-04-07T12:31:26Z</time>
      </trkpt>
      <trkpt lat="59.9147644" lon="17.6427309">
        <ele>15.999</ele>
        <time>2013-04-07T12:31:27Z</time>
      </trkpt>
      <trkpt lat="59.9146987" lon="17.6427427">
        <ele>16.4797</ele>
        <time>2013-04-07T12:31:28Z</time>
      </trkpt>
      <trkpt lat="59.9146338" lon="17.6427527">
        <ele>16.4797</ele>
        <time>2013-04-07T12:31:29Z</time>
      </trkpt>
      <trkpt lat="59.9145676" lon="17.642762">
        <ele>16.4797</ele>
        <time>2013-04-07T12:31:30Z</time>
      </trkpt>
      <trkpt lat="59.9145008" lon="17.6427745">
        <ele>16.4797</ele>
        <time>2013-04-07T12:31:31Z</time>
      </trkpt>
      <trkpt lat="59.9144314" lon="17.6427877">
        <ele>16.9604</ele>
        <time>2013-04-07T12:31:32Z</time>
      </trkpt>
      <trkpt lat="59.9143628" lon="17.6427993">
        <ele>16.9604</ele>
        <time>2013-04-07T12:31:33Z</time>
      </trkpt>
      <trkpt lat="59.9142971" lon="17.642807">
        <ele>16.9604</ele>
        <time>2013-04-07T12:31:34Z</time>
      </trkpt>
      <trkpt lat="59.914233" lon="17.6428191">
        <ele>17.4412</ele>
        <time>2013-04-07T12:31:35Z</time>
      </trkpt>
      <trkpt lat="59.9141688" lon="17.6428362">
        <ele>17.4412</ele>
        <time>2013-04-07T12:31:36Z</time>
      </trkpt>
      <trkpt lat="59.9141039" lon="17.6428537">
        <ele>16.9604</ele>
        <time>2013-04-07T12:31:37Z</time>
      </trkpt>
      <trkpt lat="59.9140396" lon="17.6428659">
        <ele>17.4412</ele>
        <time>2013-04-07T12:31:38Z</time>
      </trkpt>
      <trkpt lat="59.9139776" lon="17.6428724">
        <ele>17.4412</ele>
        <time>2013-04-07T12:31:39Z</time>
      </trkpt>
      <trkpt lat="59.9139139" lon="17.6428818">
        <ele>17.4412</ele>
        <time>2013-04-07T12:31:40Z</time>
      </trkpt>
      <trkpt lat="59.9138481" lon="17.6428929">
        <ele>17.4412</ele>
        <time>2013-04-07T12:31:41Z</time>
      </trkpt>
      <trkpt lat="59.9137809" lon="17.6429049">
        <ele>17.4412</ele>
        <time>2013-04-07T12:31:42Z</time>
      </trkpt>
      <trkpt lat="59.9137133" lon="17.6429199">
        <ele>17.4412</ele>
        <time>2013-04-07T12:31:43Z</time>
      </trkpt>
      <trkpt lat="59.9136465" lon="17.6429346">
        <ele>17.4412</ele>
        <time>2013-04-07T12:31:44Z</time>
      </trkpt>
      <trkpt lat="59.9135804" lon="17.6429501">
        <ele>17.4412</ele>
        <time>2013-04-07T12:31:45Z</time>
      </trkpt>
      <trkpt lat="59.9135139" lon="17.6429652">
        <ele>17.9218</ele>
        <time>2013-04-07T12:31:46Z</time>
      </trkpt>
      <trkpt lat="59.913447" lon="17.642976">
        <ele>17.9218</ele>
        <time>2013-04-07T12:31:47Z</time>
      </trkpt>
      <trkpt lat="59.9133788" lon="17.642992">
        <ele>17.9218</ele>
        <time>2013-04-07T12:31:48Z</time>
      </trkpt>
      <trkpt lat="59.9133105" lon="17.6430127">
        <ele>17.9218</ele>
        <time>2013-04-07T12:31:49Z</time>
      </trkpt>
      <trkpt lat="59.9132416" lon="17.6430355">
        <ele>17.9218</ele>
        <time>2013-04-07T12:31:50Z</time>
      </trkpt>
      <trkpt lat="59.9131726" lon="17.6430537">
        <ele>17.9218</ele>
        <time>2013-04-07T12:31:51Z</time>
      </trkpt>
      <trkpt lat="59.913104" lon="17.643064">
        <ele>17.9218</ele>
        <time>2013-04-07T12:31:52Z</time>
      </trkpt>
      <trkpt lat="59.9130368" lon="17.6430716">
        <ele>17.9218</ele>
        <time>2013-04-07T12:31:53Z</time>
      </trkpt>
      <trkpt lat="59.9129718" lon="17.6430794">
        <ele>17.9218</ele>
        <time>2013-04-07T12:31:54Z</time>
      </trkpt>
      <trkpt lat="59.9129077" lon="17.6430904">
        <ele>17.9218</ele>
        <time>2013-04-07T12:31:55Z</time>
      </trkpt>
      <trkpt lat="59.9128437" lon="17.6431066">
        <ele>17.9218</ele>
        <time>2013-04-07T12:31:56Z</time>
      </trkpt>
      <trkpt lat="59.912779" lon="17.6431142">
        <ele>17.9218</ele>
        <time>2013-04-07T12:31:57Z</time>
      </trkpt>
      <trkpt lat="59.9127124" lon="17.6431004">
        <ele>17.9218</ele>
        <time>2013-04-07T12:31:58Z</time>
      </trkpt>
      <trkpt lat="59.9126397" lon="17.6430672">
        <ele>17.9218</ele>
        <time>2013-04-07T12:31:59Z</time>
      </trkpt>
      <trkpt lat="59.9125579" lon="17.6430215">
        <ele>17.4412</ele>
        <time>2013-04-07T12:32:00Z</time>
      </trkpt>
      <trkpt lat="59.9124757" lon="17.643006">
        <ele>17.4412</ele>
        <time>2013-04-07T12:32:01Z</time>
      </trkpt>
      <trkpt lat="59.912395" lon="17.6430039">
        <ele>16.9604</ele>
        <time>2013-04-07T12:32:02Z</time>
      </trkpt>
      <trkpt lat="59.9123152" lon="17.6430091">
        <ele>15.999</ele>
        <time>2013-04-07T12:32:03Z</time>
      </trkpt>
      <trkpt lat="59.9122387" lon="17.6430297">
        <ele>15.5184</ele>
        <time>2013-04-07T12:32:04Z</time>
      </trkpt>
      <trkpt lat="59.9121651" lon="17.6430598">
        <ele>14.0764</ele>
        <time>2013-04-07T12:32:05Z</time>
      </trkpt>
      <trkpt lat="59.9120927" lon="17.6430897">
        <ele>14.0764</ele>
        <time>2013-04-07T12:32:06Z</time>
      </trkpt>
      <trkpt lat="59.9120211" lon="17.6431241">
        <ele>14.0764</ele>
        <time>2013-04-07T12:32:07Z</time>
      </trkpt>
      <trkpt lat="59.9119377" lon="17.6431567">
        <ele>14.0764</ele>
        <time>2013-04-07T12:32:08Z</time>
      </trkpt>
      <trkpt lat="59.9118652" lon="17.6431681">
        <ele>14.0764</ele>
        <time>2013-04-07T12:32:09Z</time>
      </trkpt>
      <trkpt lat="59.9117968" lon="17.6431773">
        <ele>14.0764</ele>
        <time>2013-04-07T12:32:10Z</time>
      </trkpt>
      <trkpt lat="59.9117258" lon="17.643192">
        <ele>14.557</ele>
        <time>2013-04-07T12:32:11Z</time>
      </trkpt>
      <trkpt lat="59.9116555" lon="17.643207">
        <ele>14.557</ele>
        <time>2013-04-07T12:32:12Z</time>
      </trkpt>
      <trkpt lat="59.9115848" lon="17.6432153">
        <ele>14.557</ele>
        <time>2013-04-07T12:32:13Z</time>
      </trkpt>
      <trkpt lat="59.9115135" lon="17.6432258">
        <ele>14.0764</ele>
        <time>2013-04-07T12:32:14Z</time>
      </trkpt>
      <trkpt lat="59.9114428" lon="17.6432396">
        <ele>14.0764</ele>
        <time>2013-04-07T12:32:15Z</time>
      </trkpt>
      <trkpt lat="59.911373" lon="17.6432566">
        <ele>14.0764</ele>
        <time>2013-04-07T12:32:16Z</time>
      </trkpt>
      <trkpt lat="59.9113042" lon="17.6432785">
        <ele>14.0764</ele>
        <time>2013-04-07T12:32:17Z</time>
      </trkpt>
      <trkpt lat="59.9112356" lon="17.6432997">
        <ele>14.0764</ele>
        <time>2013-04-07T12:32:18Z</time>
      </trkpt>
      <trkpt lat="59.9111669" lon="17.6433187">
        <ele>14.0764</ele>
        <time>2013-04-07T12:32:19Z</time>
      </trkpt>
      <trkpt lat="59.9110979" lon="17.6433359">
        <ele>14.0764</ele>
        <time>2013-04-07T12:32:20Z</time>
      </trkpt>
      <trkpt lat="59.9110295" lon="17.643351">
        <ele>13.1151</ele>
        <time>2013-04-07T12:32:21Z</time>
      </trkpt>
      <trkpt lat="59.9109591" lon="17.6433634">
        <ele>13.1151</ele>
        <time>2013-04-07T12:32:22Z</time>
      </trkpt>
      <trkpt lat="59.9108868" lon="17.6433762">
        <ele>13.1151</ele>
        <time>2013-04-07T12:32:23Z</time>
      </trkpt>
      <trkpt lat="59.9108137" lon="17.643386">
        <ele>12.6344</ele>
        <time>2013-04-07T12:32:24Z</time>
      </trkpt>
      <trkpt lat="59.9107404" lon="17.6433969">
        <ele>12.6344</ele>
        <time>2013-04-07T12:32:25Z</time>
      </trkpt>
      <trkpt lat="59.910667" lon="17.6434109">
        <ele>12.6344</ele>
        <time>2013-04-07T12:32:26Z</time>
      </trkpt>
      <trkpt lat="59.9105943" lon="17.6434297">
        <ele>12.6344</ele>
        <time>2013-04-07T12:32:27Z</time>
      </trkpt>
      <trkpt lat="59.9105216" lon="17.6434565">
        <ele>13.1151</ele>
        <time>2013-04-07T12:32:28Z</time>
      </trkpt>
      <trkpt lat="59.9104496" lon="17.6434936">
        <ele>12.6344</ele>
        <time>2013-04-07T12:32:29Z</time>
      </trkpt>
      <trkpt lat="59.9103769" lon="17.6435316">
        <ele>12.6344</ele>
        <time>2013-04-07T12:32:30Z</time>
      </trkpt>
      <trkpt lat="59.9103039" lon="17.6435568">
        <ele>13.1151</ele>
        <time>2013-04-07T12:32:31Z</time>
      </trkpt>
      <trkpt lat="59.910231" lon="17.6435707">
        <ele>13.1151</ele>
        <time>2013-04-07T12:32:32Z</time>
      </trkpt>
      <trkpt lat="59.9101581" lon="17.6435805">
        <ele>13.1151</ele>
        <time>2013-04-07T12:32:33Z</time>
      </trkpt>
      <trkpt lat="59.9100849" lon="17.643582">
        <ele>12.6344</ele>
        <time>2013-04-07T12:32:34Z</time>
      </trkpt>
      <trkpt lat="59.9100112" lon="17.6435675">
        <ele>12.6344</ele>
        <time>2013-04-07T12:32:35Z</time>
      </trkpt>
      <trkpt lat="59.9099335" lon="17.643537">
        <ele>12.6344</ele>
        <time>2013-04-07T12:32:36Z</time>
      </trkpt>
      <trkpt lat="59.9098521" lon="17.6435044">
        <ele>12.6344</ele>
        <time>2013-04-07T12:32:37Z</time>
      </trkpt>
      <trkpt lat="59.9097696" lon="17.6434886">
        <ele>12.6344</ele>
        <time>2013-04-07T12:32:38Z</time>
      </trkpt>
      <trkpt lat="59.9096863" lon="17.6434928">
        <ele>12.6344</ele>
        <time>2013-04-07T12:32:39Z</time>
      </trkpt>
      <trkpt lat="59.909603" lon="17.6435094">
        <ele>12.6344</ele>
        <time>2013-04-07T12:32:40Z</time>
      </trkpt>
      <trkpt lat="59.9095201" lon="17.6435302">
        <ele>12.1538</ele>
        <time>2013-04-07T12:32:41Z</time>
      </trkpt>
      <trkpt lat="59.9094378" lon="17.6435494">
        <ele>12.6344</ele>
        <time>2013-04-07T12:32:42Z</time>
      </trkpt>
      <trkpt lat="59.9093558" lon="17.6435675">
        <ele>12.6344</ele>
        <time>2013-04-07T12:32:43Z</time>
      </trkpt>
      <trkpt lat="59.9092741" lon="17.6435835">
        <ele>12.6344</ele>
        <time>2013-04-07T12:32:44Z</time>
      </trkpt>
      <trkpt lat="59.9091924" lon="17.6435979">
        <ele>12.6344</ele>
        <time>2013-04-07T12:32:45Z</time>
      </trkpt>
      <trkpt lat="59.909111" lon="17.643611">
        <ele>12.6344</ele>
        <time>2013-04-07T12:32:46Z</time>
      </trkpt>
      <trkpt lat="59.9090297" lon="17.6436202">
        <ele>12.6344</ele>
        <time>2013-04-07T12:32:47Z</time>
      </trkpt>
      <trkpt lat="59.9089479" lon="17.6436281">
        <ele>12.6344</ele>
        <time>2013-04-07T12:32:48Z</time>
      </trkpt>
      <trkpt lat="59.9088657" lon="17.6436374">
        <ele>12.6344</ele>
        <time>2013-04-07T12:32:49Z</time>
      </trkpt>
      <trkpt lat="59.9087831" lon="17.6436458">
        <ele>12.6344</ele>
        <time>2013-04-07T12:32:50Z</time>
      </trkpt>
      <trkpt lat="59.9087012" lon="17.643652">
        <ele>12.6344</ele>
        <time>2013-04-07T12:32:51Z</time>
      </trkpt>
      <trkpt lat="59.9086198" lon="17.6436571">
        <ele>12.6344</ele>
        <time>2013-04-07T12:32:52Z</time>
      </trkpt>
      <trkpt lat="59.908539" lon="17.6436617">
        <ele>12.6344</ele>
        <time>2013-04-07T12:32:53Z</time>
      </trkpt>
      <trkpt lat="59.9084592" lon="17.6436628">
        <ele>12.6344</ele>
        <time>2013-04-07T12:32:54Z</time>
      </trkpt>
      <trkpt lat="59.9083805" lon="17.6436597">
        <ele>13.1151</ele>
        <time>2013-04-07T12:32:55Z</time>
      </trkpt>
      <trkpt lat="59.9083023" lon="17.6436536">
        <ele>13.1151</ele>
        <time>2013-04-07T12:32:56Z</time>
      </trkpt>
      <trkpt lat="59.9082245" lon="17.6436443">
        <ele>13.1151</ele>
        <time>2013-04-07T12:32:57Z</time>
      </trkpt>
      <trkpt lat="59.9081459" lon="17.6436338">
        <ele>13.1151</ele>
        <time>2013-04-07T12:32:58Z</time>
      </trkpt>
      <trkpt lat="59.9080672" lon="17.6436231">
        <ele>13.1151</ele>
        <time>2013-04-07T12:32:59Z</time>
      </trkpt>
      <trkpt lat="59.9079884" lon="17.6436119">
        <ele>13.1151</ele>
        <time>2013-04-07T12:33:00Z</time>
      </trkpt>
      <trkpt lat="59.9079095" lon="17.6435979">
        <ele>12.6344</ele>
        <time>2013-04-07T12:33:01Z</time>
      </trkpt>
      <trkpt lat="59.9078295" lon="17.643583">
        <ele>12.6344</ele>
        <time>2013-04-07T12:33:02Z</time>
      </trkpt>
      <trkpt lat="59.9077486" lon="17.6435684">
        <ele>12.6344</ele>
        <time>2013-04-07T12:33:03Z</time>
      </trkpt>
      <trkpt lat="59.9076666" lon="17.6435541">
        <ele>12.1538</ele>
        <time>2013-04-07T12:33:04Z</time>
      </trkpt>
      <trkpt lat="59.9075834" lon="17.6435406">
        <ele>12.1538</ele>
        <time>2013-04-07T12:33:05Z</time>
      </trkpt>
      <trkpt lat="59.9074994" lon="17.6435261">
        <ele>11.6732</ele>
        <time>2013-04-07T12:33:06Z</time>
      </trkpt>
      <trkpt lat="59.9074145" lon="17.6435098">
        <ele>11.6732</ele>
        <time>2013-04-07T12:33:07Z</time>
      </trkpt>
      <trkpt lat="59.9073295" lon="17.6434935">
        <ele>11.1925</ele>
        <time>2013-04-07T12:33:08Z</time>
      </trkpt>
      <trkpt lat="59.9072446" lon="17.6434787">
        <ele>10.7118</ele>
        <time>2013-04-07T12:33:09Z</time>
      </trkpt>
      <trkpt lat="59.9071596" lon="17.6434632">
        <ele>10.7118</ele>
        <time>2013-04-07T12:33:10Z</time>
      </trkpt>
      <trkpt lat="59.9070746" lon="17.6434456">
        <ele>10.2312</ele>
        <time>2013-04-07T12:33:11Z</time>
      </trkpt>
      <trkpt lat="59.9069896" lon="17.6434261">
        <ele>10.2312</ele>
        <time>2013-04-07T12:33:12Z</time>
      </trkpt>
      <trkpt lat="59.9069046" lon="17.6434043">
        <ele>10.2312</ele>
        <time>2013-04-07T12:33:13Z</time>
      </trkpt>
      <trkpt lat="59.9068192" lon="17.6433808">
        <ele>9.75061</ele>
        <time>2013-04-07T12:33:14Z</time>
      </trkpt>
      <trkpt lat="59.9067336" lon="17.6433578">
        <ele>9.2699</ele>
        <time>2013-04-07T12:33:15Z</time>
      </trkpt>
      <trkpt lat="59.9066478" lon="17.6433349">
        <ele>9.2699</ele>
        <time>2013-04-07T12:33:16Z</time>
      </trkpt>
      <trkpt lat="59.9065619" lon="17.6433102">
        <ele>9.2699</ele>
        <time>2013-04-07T12:33:17Z</time>
      </trkpt>
      <trkpt lat="59.9064761" lon="17.6432842">
        <ele>8.78918</ele>
        <time>2013-04-07T12:33:18Z</time>
      </trkpt>
      <trkpt lat="59.9063898" lon="17.6432535">
        <ele>8.78918</ele>
        <time>2013-04-07T12:33:19Z</time>
      </trkpt>
      <trkpt lat="59.9063032" lon="17.6432175">
        <ele>8.30859</ele>
        <time>2013-04-07T12:33:20Z</time>
      </trkpt>
      <trkpt lat="59.9062153" lon="17.6431795">
        <ele>8.30859</ele>
        <time>2013-04-07T12:33:21Z</time>
      </trkpt>
      <trkpt lat="59.9061263" lon="17.6431423">
        <ele>7.82788</ele>
        <time>2013-04-07T12:33:22Z</time>
      </trkpt>
      <trkpt lat="59.9060368" lon="17.6431034">
        <ele>7.82788</ele>
        <time>2013-04-07T12:33:23Z</time>
      </trkpt>
      <trkpt lat="59.9059468" lon="17.643062">
        <ele>7.34717</ele>
        <time>2013-04-07T12:33:24Z</time>
      </trkpt>
      <trkpt lat="59.9058567" lon="17.6430186">
        <ele>7.34717</ele>
        <time>2013-04-07T12:33:25Z</time>
      </trkpt>
      <trkpt lat="59.9057666" lon="17.6429744">
        <ele>6.86646</ele>
        <time>2013-04-07T12:33:26Z</time>
      </trkpt>
      <trkpt lat="59.9056759" lon="17.642937">
        <ele>6.86646</ele>
        <time>2013-04-07T12:33:27Z</time>
      </trkpt>
      <trkpt lat="59.9055843" lon="17.6429102">
        <ele>6.38586</ele>
        <time>2013-04-07T12:33:28Z</time>
      </trkpt>
      <trkpt lat="59.9054934" lon="17.6428944">
        <ele>6.38586</ele>
        <time>2013-04-07T12:33:29Z</time>
      </trkpt>
      <trkpt lat="59.9054047" lon="17.6428848">
        <ele>6.38586</ele>
        <time>2013-04-07T12:33:30Z</time>
      </trkpt>
      <trkpt lat="59.9053191" lon="17.6428656">
        <ele>6.38586</ele>
        <time>2013-04-07T12:33:31Z</time>
      </trkpt>
      <trkpt lat="59.9052353" lon="17.6428335">
        <ele>6.86646</ele>
        <time>2013-04-07T12:33:32Z</time>
      </trkpt>
      <trkpt lat="59.9051523" lon="17.6427946">
        <ele>6.86646</ele>
        <time>2013-04-07T12:33:33Z</time>
      </trkpt>
      <trkpt lat="59.905071" lon="17.6427494">
        <ele>7.34717</ele>
        <time>2013-04-07T12:33:34Z</time>
      </trkpt>
      <trkpt lat="59.9049905" lon="17.6427049">
        <ele>7.82788</ele>
        <time>2013-04-07T12:33:35Z</time>
      </trkpt>
      <trkpt lat="59.9049096" lon="17.6426626">
        <ele>7.82788</ele>
        <time>2013-04-07T12:33:36Z</time>
      </trkpt>
      <trkpt lat="59.9048292" lon="17.6426173">
        <ele>8.30859</ele>
        <time>2013-04-07T12:33:37Z</time>
      </trkpt>
      <trkpt lat="59.9047507" lon="17.642563">
        <ele>8.30859</ele>
        <time>2013-04-07T12:33:38Z</time>
      </trkpt>
      <trkpt lat="59.9046721" lon="17.6425016">
        <ele>8.30859</ele>
        <time>2013-04-07T12:33:39Z</time>
      </trkpt>
      <trkpt lat="59.9045926" lon="17.6424435">
        <ele>8.78918</ele>
        <time>2013-04-07T12:33:40Z</time>
      </trkpt>
      <trkpt lat="59.9045127" lon="17.6423933">
        <ele>9.2699</ele>
        <time>2013-04-07T12:33:41Z</time>
      </trkpt>
      <trkpt lat="59.9044343" lon="17.6423487">
        <ele>9.75061</ele>
        <time>2013-04-07T12:33:42Z</time>
      </trkpt>
      <trkpt lat="59.9043569" lon="17.6423051">
        <ele>9.75061</ele>
        <time>2013-04-07T12:33:43Z</time>
      </trkpt>
      <trkpt lat="59.90428" lon="17.6422627">
        <ele>10.2312</ele>
        <time>2013-04-07T12:33:44Z</time>
      </trkpt>
      <trkpt lat="59.9042048" lon="17.6422205">
        <ele>10.7118</ele>
        <time>2013-04-07T12:33:45Z</time>
      </trkpt>
      <trkpt lat="59.9041311" lon="17.642178">
        <ele>11.1925</ele>
        <time>2013-04-07T12:33:46Z</time>
      </trkpt>
      <trkpt lat="59.9040586" lon="17.6421366">
        <ele>11.6732</ele>
        <time>2013-04-07T12:33:47Z</time>
      </trkpt>
      <trkpt lat="59.9039868" lon="17.6420958">
        <ele>12.1538</ele>
        <time>2013-04-07T12:33:48Z</time>
      </trkpt>
      <trkpt lat="59.9039148" lon="17.6420564">
        <ele>12.6344</ele>
        <time>2013-04-07T12:33:49Z</time>
      </trkpt>
      <trkpt lat="59.9038428" lon="17.6420208">
        <ele>12.6344</ele>
        <time>2013-04-07T12:33:50Z</time>
      </trkpt>
      <trkpt lat="59.9037713" lon="17.6419902">
        <ele>13.1151</ele>
        <time>2013-04-07T12:33:51Z</time>
      </trkpt>
      <trkpt lat="59.9037014" lon="17.6419617">
        <ele>13.5958</ele>
        <time>2013-04-07T12:33:52Z</time>
      </trkpt>
      <trkpt lat="59.9036334" lon="17.6419428">
        <ele>13.5958</ele>
        <time>2013-04-07T12:33:53Z</time>
      </trkpt>
      <trkpt lat="59.9035729" lon="17.6419367">
        <ele>14.0764</ele>
        <time>2013-04-07T12:33:54Z</time>
      </trkpt>
      <trkpt lat="59.9035222" lon="17.6419276">
        <ele>14.0764</ele>
        <time>2013-04-07T12:33:55Z</time>
      </trkpt>
      <trkpt lat="59.9034715" lon="17.6419059">
        <ele>14.0764</ele>
        <time>2013-04-07T12:33:56Z</time>
      </trkpt>
      <trkpt lat="59.9034202" lon="17.6418736">
        <ele>14.0764</ele>
        <time>2013-04-07T12:33:57Z</time>
      </trkpt>
      <trkpt lat="59.9033673" lon="17.6418364">
        <ele>14.0764</ele>
        <time>2013-04-07T12:33:58Z</time>
      </trkpt>
      <trkpt lat="59.9033116" lon="17.6418001">
        <ele>14.0764</ele>
        <time>2013-04-07T12:33:59Z</time>
      </trkpt>
      <trkpt lat="59.9032539" lon="17.6417628">
        <ele>14.0764</ele>
        <time>2013-04-07T12:34:00Z</time>
      </trkpt>
      <trkpt lat="59.9031945" lon="17.6417251">
        <ele>14.0764</ele>
        <time>2013-04-07T12:34:01Z</time>
      </trkpt>
      <trkpt lat="59.9031336" lon="17.6416887">
        <ele>14.557</ele>
        <time>2013-04-07T12:34:02Z</time>
      </trkpt>
      <trkpt lat="59.9030714" lon="17.6416561">
        <ele>14.0764</ele>
        <time>2013-04-07T12:34:03Z</time>
      </trkpt>
      <trkpt lat="59.9030086" lon="17.6416224">
        <ele>14.557</ele>
        <time>2013-04-07T12:34:04Z</time>
      </trkpt>
      <trkpt lat="59.9029455" lon="17.641586">
        <ele>14.557</ele>
        <time>2013-04-07T12:34:05Z</time>
      </trkpt>
      <trkpt lat="59.9028816" lon="17.6415499">
        <ele>14.557</ele>
        <time>2013-04-07T12:34:06Z</time>
      </trkpt>
      <trkpt lat="59.9028148" lon="17.6415179">
        <ele>14.557</ele>
        <time>2013-04-07T12:34:07Z</time>
      </trkpt>
      <trkpt lat="59.9027472" lon="17.6414851">
        <ele>14.0764</ele>
        <time>2013-04-07T12:34:08Z</time>
      </trkpt>
      <trkpt lat="59.9026778" lon="17.6414518">
        <ele>14.0764</ele>
        <time>2013-04-07T12:34:09Z</time>
      </trkpt>
      <trkpt lat="59.9026102" lon="17.641408">
        <ele>14.0764</ele>
        <time>2013-04-07T12:34:10Z</time>
      </trkpt>
      <trkpt lat="59.9025416" lon="17.6413616">
        <ele>14.0764</ele>
        <time>2013-04-07T12:34:11Z</time>
      </trkpt>
      <trkpt lat="59.9024716" lon="17.6413143">
        <ele>14.0764</ele>
        <time>2013-04-07T12:34:12Z</time>
      </trkpt>
      <trkpt lat="59.9024004" lon="17.6412635">
        <ele>14.557</ele>
        <time>2013-04-07T12:34:13Z</time>
      </trkpt>
      <trkpt lat="59.9023282" lon="17.641215">
        <ele>14.557</ele>
        <time>2013-04-07T12:34:14Z</time>
      </trkpt>
      <trkpt lat="59.9022545" lon="17.6411716">
        <ele>14.557</ele>
        <time>2013-04-07T12:34:15Z</time>
      </trkpt>
      <trkpt lat="59.9021829" lon="17.6411177">
        <ele>14.557</ele>
        <time>2013-04-07T12:34:16Z</time>
      </trkpt>
      <trkpt lat="59.902111" lon="17.6410623">
        <ele>15.0377</ele>
        <time>2013-04-07T12:34:17Z</time>
      </trkpt>
      <trkpt lat="59.9020396" lon="17.6410042">
        <ele>15.0377</ele>
        <time>2013-04-07T12:34:18Z</time>
      </trkpt>
      <trkpt lat="59.9019679" lon="17.6409421">
        <ele>15.0377</ele>
        <time>2013-04-07T12:34:19Z</time>
      </trkpt>
      <trkpt lat="59.9018954" lon="17.640883">
        <ele>15.5184</ele>
        <time>2013-04-07T12:34:20Z</time>
      </trkpt>
      <trkpt lat="59.9018234" lon="17.6408242">
        <ele>15.5184</ele>
        <time>2013-04-07T12:34:21Z</time>
      </trkpt>
      <trkpt lat="59.901752" lon="17.6407649">
        <ele>15.5184</ele>
        <time>2013-04-07T12:34:22Z</time>
      </trkpt>
      <trkpt lat="59.9016812" lon="17.6407035">
        <ele>15.5184</ele>
        <time>2013-04-07T12:34:23Z</time>
      </trkpt>
      <trkpt lat="59.9016108" lon="17.6406414">
        <ele>15.5184</ele>
        <time>2013-04-07T12:34:24Z</time>
      </trkpt>
      <trkpt lat="59.9015406" lon="17.6405794">
        <ele>15.5184</ele>
        <time>2013-04-07T12:34:25Z</time>
      </trkpt>
      <trkpt lat="59.9014711" lon="17.6405154">
        <ele>15.5184</ele>
        <time>2013-04-07T12:34:26Z</time>
      </trkpt>
      <trkpt lat="59.9014018" lon="17.6404505">
        <ele>15.5184</ele>
        <time>2013-04-07T12:34:27Z</time>
      </trkpt>
      <trkpt lat="59.9013328" lon="17.640387">
        <ele>15.5184</ele>
        <time>2013-04-07T12:34:28Z</time>
      </trkpt>
      <trkpt lat="59.9012641" lon="17.6403236">
        <ele>15.999</ele>
        <time>2013-04-07T12:34:29Z</time>
      </trkpt>
      <trkpt lat="59.9011957" lon="17.6402607">
        <ele>15.999</ele>
        <time>2013-04-07T12:34:30Z</time>
      </trkpt>
      <trkpt lat="59.9011269" lon="17.6402009">
        <ele>16.4797</ele>
        <time>2013-04-07T12:34:31Z</time>
      </trkpt>
      <trkpt lat="59.9010583" lon="17.6401413">
        <ele>16.4797</ele>
        <time>2013-04-07T12:34:32Z</time>
      </trkpt>
      <trkpt lat="59.9009916" lon="17.6400787">
        <ele>16.4797</ele>
        <time>2013-04-07T12:34:33Z</time>
      </trkpt>
      <trkpt lat="59.9009277" lon="17.640012">
        <ele>16.4797</ele>
        <time>2013-04-07T12:34:34Z</time>
      </trkpt>
      <trkpt lat="59.9008658" lon="17.6399413">
        <ele>16.9604</ele>
        <time>2013-04-07T12:34:35Z</time>
      </trkpt>
      <trkpt lat="59.9008052" lon="17.6398695">
        <ele>16.9604</ele>
        <time>2013-04-07T12:34:36Z</time>
      </trkpt>
      <trkpt lat="59.900744" lon="17.6398012">
        <ele>16.9604</ele>
        <time>2013-04-07T12:34:37Z</time>
      </trkpt>
      <trkpt lat="59.9006817" lon="17.6397353">
        <ele>17.4412</ele>
        <time>2013-04-07T12:34:38Z</time>
      </trkpt>
      <trkpt lat="59.9006187" lon="17.6396695">
        <ele>17.4412</ele>
        <time>2013-04-07T12:34:39Z</time>
      </trkpt>
      <trkpt lat="59.9005549" lon="17.6396032">
        <ele>17.4412</ele>
        <time>2013-04-07T12:34:40Z</time>
      </trkpt>
      <trkpt lat="59.9004913" lon="17.6395362">
        <ele>17.4412</ele>
        <time>2013-04-07T12:34:41Z</time>
      </trkpt>
      <trkpt lat="59.9004275" lon="17.6394704">
        <ele>17.9218</ele>
        <time>2013-04-07T12:34:42Z</time>
      </trkpt>
      <trkpt lat="59.9003628" lon="17.6394044">
        <ele>17.9218</ele>
        <time>2013-04-07T12:34:43Z</time>
      </trkpt>
      <trkpt lat="59.900298" lon="17.6393399">
        <ele>17.9218</ele>
        <time>2013-04-07T12:34:44Z</time>
      </trkpt>
      <trkpt lat="59.9002341" lon="17.6392758">
        <ele>18.4023</ele>
        <time>2013-04-07T12:34:45Z</time>
      </trkpt>
      <trkpt lat="59.9001715" lon="17.6392116">
        <ele>18.4023</ele>
        <time>2013-04-07T12:34:46Z</time>
      </trkpt>
      <trkpt lat="59.9001087" lon="17.6391493">
        <ele>18.8831</ele>
        <time>2013-04-07T12:34:47Z</time>
      </trkpt>
      <trkpt lat="59.9000456" lon="17.6390881">
        <ele>18.8831</ele>
        <time>2013-04-07T12:34:48Z</time>
      </trkpt>
      <trkpt lat="59.8999842" lon="17.6390266">
        <ele>18.8831</ele>
        <time>2013-04-07T12:34:49Z</time>
      </trkpt>
      <trkpt lat="59.8999243" lon="17.6389645">
        <ele>18.8831</ele>
        <time>2013-04-07T12:34:50Z</time>
      </trkpt>
      <trkpt lat="59.8998643" lon="17.6389023">
        <ele>18.8831</ele>
        <time>2013-04-07T12:34:51Z</time>
      </trkpt>
      <trkpt lat="59.8998049" lon="17.6388416">
        <ele>18.8831</ele>
        <time>2013-04-07T12:34:52Z</time>
      </trkpt>
      <trkpt lat="59.8997459" lon="17.6387832">
        <ele>18.4023</ele>
        <time>2013-04-07T12:34:53Z</time>
      </trkpt>
      <trkpt lat="59.8996874" lon="17.6387236">
        <ele>18.4023</ele>
        <time>2013-04-07T12:34:54Z</time>
      </trkpt>
      <trkpt lat="59.8996303" lon="17.6386646">
        <ele>18.4023</ele>
        <time>2013-04-07T12:34:55Z</time>
      </trkpt>
      <trkpt lat="59.8995737" lon="17.6386081">
        <ele>18.4023</ele>
        <time>2013-04-07T12:34:56Z</time>
      </trkpt>
      <trkpt lat="59.899519" lon="17.6385549">
        <ele>18.4023</ele>
        <time>2013-04-07T12:34:57Z</time>
      </trkpt>
      <trkpt lat="59.899466" lon="17.6385003">
        <ele>18.8831</ele>
        <time>2013-04-07T12:34:58Z</time>
      </trkpt>
      <trkpt lat="59.8994138" lon="17.6384465">
        <ele>18.8831</ele>
        <time>2013-04-07T12:34:59Z</time>
      </trkpt>
      <trkpt lat="59.8993613" lon="17.6383925">
        <ele>19.3638</ele>
        <time>2013-04-07T12:35:00Z</time>
      </trkpt>
      <trkpt lat="59.8993086" lon="17.6383411">
        <ele>19.8444</ele>
        <time>2013-04-07T12:35:01Z</time>
      </trkpt>
      <trkpt lat="59.8992573" lon="17.6382959">
        <ele>20.325</ele>
        <time>2013-04-07T12:35:02Z</time>
      </trkpt>
      <trkpt lat="59.8992076" lon="17.6382513">
        <ele>20.8057</ele>
        <time>2013-04-07T12:35:03Z</time>
      </trkpt>
      <trkpt lat="59.8991592" lon="17.6382072">
        <ele>21.2864</ele>
        <time>2013-04-07T12:35:04Z</time>
      </trkpt>
      <trkpt lat="59.8991127" lon="17.6381663">
        <ele>21.767</ele>
        <time>2013-04-07T12:35:05Z</time>
      </trkpt>
      <trkpt lat="59.8990662" lon="17.6381264">
        <ele>22.2476</ele>
        <time>2013-04-07T12:35:06Z</time>
      </trkpt>
      <trkpt lat="59.8990201" lon="17.6380858">
        <ele>22.2476</ele>
        <time>2013-04-07T12:35:07Z</time>
      </trkpt>
      <trkpt lat="59.8989754" lon="17.6380444">
        <ele>23.209</ele>
        <time>2013-04-07T12:35:08Z</time>
      </trkpt>
      <trkpt lat="59.8989324" lon="17.6379963">
        <ele>23.6896</ele>
        <time>2013-04-07T12:35:09Z</time>
      </trkpt>
      <trkpt lat="59.8988915" lon="17.6379517">
        <ele>24.1703</ele>
        <time>2013-04-07T12:35:10Z</time>
      </trkpt>
      <trkpt lat="59.8988506" lon="17.6379108">
        <ele>24.651</ele>
        <time>2013-04-07T12:35:11Z</time>
      </trkpt>
      <trkpt lat="59.8988116" lon="17.6378721">
        <ele>24.651</ele>
        <time>2013-04-07T12:35:12Z</time>
      </trkpt>
      <trkpt lat="59.8987734" lon="17.6378371">
        <ele>24.651</ele>
        <time>2013-04-07T12:35:13Z</time>
      </trkpt>
      <trkpt lat="59.8987337" lon="17.6378099">
        <ele>25.1317</ele>
        <time>2013-04-07T12:35:14Z</time>
      </trkpt>
      <trkpt lat="59.8986921" lon="17.6377984">
        <ele>25.1317</ele>
        <time>2013-04-07T12:35:15Z</time>
      </trkpt>
      <trkpt lat="59.8986507" lon="17.6378048">
        <ele>26.0929</ele>
        <time>2013-04-07T12:35:16Z</time>
      </trkpt>
      <trkpt lat="59.8986088" lon="17.637815">
        <ele>26.0929</ele>
        <time>2013-04-07T12:35:17Z</time>
      </trkpt>
      <trkpt lat="59.8985658" lon="17.6378171">
        <ele>26.5736</ele>
        <time>2013-04-07T12:35:18Z</time>
      </trkpt>
      <trkpt lat="59.8985212" lon="17.6378015">
        <ele>26.5736</ele>
        <time>2013-04-07T12:35:19Z</time>
      </trkpt>
      <trkpt lat="59.8984751" lon="17.6377699">
        <ele>26.5736</ele>
        <time>2013-04-07T12:35:20Z</time>
      </trkpt>
      <trkpt lat="59.8984263" lon="17.6377338">
        <ele>26.0929</ele>
        <time>2013-04-07T12:35:21Z</time>
      </trkpt>
      <trkpt lat="59.898377" lon="17.6376946">
        <ele>26.0929</ele>
        <time>2013-04-07T12:35:22Z</time>
      </trkpt>
      <trkpt lat="59.898326" lon="17.6376565">
        <ele>26.0929</ele>
        <time>2013-04-07T12:35:23Z</time>
      </trkpt>
      <trkpt lat="59.8982747" lon="17.6376156">
        <ele>25.6123</ele>
        <time>2013-04-07T12:35:24Z</time>
      </trkpt>
      <trkpt lat="59.8982229" lon="17.6375721">
        <ele>25.6123</ele>
        <time>2013-04-07T12:35:25Z</time>
      </trkpt>
      <trkpt lat="59.8981701" lon="17.6375305">
        <ele>25.1317</ele>
        <time>2013-04-07T12:35:26Z</time>
      </trkpt>
      <trkpt lat="59.8981162" lon="17.6374919">
        <ele>25.1317</ele>
        <time>2013-04-07T12:35:27Z</time>
      </trkpt>
      <trkpt lat="59.8980616" lon="17.6374536">
        <ele>24.651</ele>
        <time>2013-04-07T12:35:28Z</time>
      </trkpt>
      <trkpt lat="59.8980066" lon="17.6374139">
        <ele>24.651</ele>
        <time>2013-04-07T12:35:29Z</time>
      </trkpt>
      <trkpt lat="59.8979519" lon="17.6373728">
        <ele>24.651</ele>
        <time>2013-04-07T12:35:30Z</time>
      </trkpt>
      <trkpt lat="59.8978968" lon="17.6373329">
        <ele>24.1703</ele>
        <time>2013-04-07T12:35:31Z</time>
      </trkpt>
      <trkpt lat="59.8978432" lon="17.6372937">
        <ele>24.1703</ele>
        <time>2013-04-07T12:35:32Z</time>
      </trkpt>
      <trkpt lat="59.8977898" lon="17.6372551">
        <ele>24.1703</ele>
        <time>2013-04-07T12:35:33Z</time>
      </trkpt>
      <trkpt lat="59.8977359" lon="17.6372152">
        <ele>24.1703</ele>
        <time>2013-04-07T12:35:34Z</time>
      </trkpt>
      <trkpt lat="59.8976809" lon="17.6371749">
        <ele>23.6896</ele>
        <time>2013-04-07T12:35:35Z</time>
      </trkpt>
      <trkpt lat="59.8976246" lon="17.6371358">
        <ele>23.6896</ele>
        <time>2013-04-07T12:35:36Z</time>
      </trkpt>
      <trkpt lat="59.8975676" lon="17.6370981">
        <ele>23.6896</ele>
        <time>2013-04-07T12:35:37Z</time>
      </trkpt>
      <trkpt lat="59.8975106" lon="17.6370603">
        <ele>23.6896</ele>
        <time>2013-04-07T12:35:38Z</time>
      </trkpt>
      <trkpt lat="59.897454" lon="17.6370247">
        <ele>23.6896</ele>
        <time>2013-04-07T12:35:39Z</time>
      </trkpt>
      <trkpt lat="59.8973938" lon="17.6369972">
        <ele>23.6896</ele>
        <time>2013-04-07T12:35:40Z</time>
      </trkpt>
      <trkpt lat="59.8973338" lon="17.6369682">
        <ele>23.6896</ele>
        <time>2013-04-07T12:35:41Z</time>
      </trkpt>
      <trkpt lat="59.897274" lon="17.6369366">
        <ele>23.6896</ele>
        <time>2013-04-07T12:35:42Z</time>
      </trkpt>
      <trkpt lat="59.8972143" lon="17.6369055">
        <ele>23.6896</ele>
        <time>2013-04-07T12:35:43Z</time>
      </trkpt>
      <trkpt lat="59.8971546" lon="17.6368798">
        <ele>23.6896</ele>
        <time>2013-04-07T12:35:44Z</time>
      </trkpt>
      <trkpt lat="59.8970946" lon="17.6368535">
        <ele>23.6896</ele>
        <time>2013-04-07T12:35:45Z</time>
      </trkpt>
      <trkpt lat="59.8970366" lon="17.6368232">
        <ele>23.6896</ele>
        <time>2013-04-07T12:35:46Z</time>
      </trkpt>
      <trkpt lat="59.8969812" lon="17.6367904">
        <ele>23.6896</ele>
        <time>2013-04-07T12:35:47Z</time>
      </trkpt>
      <trkpt lat="59.8969257" lon="17.6367596">
        <ele>23.6896</ele>
        <time>2013-04-07T12:35:48Z</time>
      </trkpt>
      <trkpt lat="59.8968699" lon="17.6367304">
        <ele>23.6896</ele>
        <time>2013-04-07T12:35:49Z</time>
      </trkpt>
      <trkpt lat="59.8968137" lon="17.6367018">
        <ele>23.6896</ele>
        <time>2013-04-07T12:35:50Z</time>
      </trkpt>
      <trkpt lat="59.896757" lon="17.6366728">
        <ele>23.6896</ele>
        <time>2013-04-07T12:35:51Z</time>
      </trkpt>
      <trkpt lat="59.8967" lon="17.6366457">
        <ele>23.6896</ele>
        <time>2013-04-07T12:35:52Z</time>
      </trkpt>
      <trkpt lat="59.8966429" lon="17.6366208">
        <ele>23.209</ele>
        <time>2013-04-07T12:35:53Z</time>
      </trkpt>
      <trkpt lat="59.8965852" lon="17.636596">
        <ele>23.209</ele>
        <time>2013-04-07T12:35:54Z</time>
      </trkpt>
      <trkpt lat="59.8965267" lon="17.6365713">
        <ele>22.7283</ele>
        <time>2013-04-07T12:35:55Z</time>
      </trkpt>
      <trkpt lat="59.8964669" lon="17.6365463">
        <ele>22.7283</ele>
        <time>2013-04-07T12:35:56Z</time>
      </trkpt>
      <trkpt lat="59.8964063" lon="17.6365219">
        <ele>22.7283</ele>
        <time>2013-04-07T12:35:57Z</time>
      </trkpt>
      <trkpt lat="59.8963447" lon="17.6364972">
        <ele>22.7283</ele>
        <time>2013-04-07T12:35:58Z</time>
      </trkpt>
      <trkpt lat="59.8962824" lon="17.6364706">
        <ele>22.2476</ele>
        <time>2013-04-07T12:35:59Z</time>
      </trkpt>
      <trkpt lat="59.8962198" lon="17.6364453">
        <ele>22.2476</ele>
        <time>2013-04-07T12:36:00Z</time>
      </trkpt>
      <trkpt lat="59.8961568" lon="17.6364201">
        <ele>22.2476</ele>
        <time>2013-04-07T12:36:01Z</time>
      </trkpt>
      <trkpt lat="59.8960926" lon="17.6363977">
        <ele>21.767</ele>
        <time>2013-04-07T12:36:02Z</time>
      </trkpt>
      <trkpt lat="59.8960268" lon="17.636376">
        <ele>21.767</ele>
        <time>2013-04-07T12:36:03Z</time>
      </trkpt>
      <trkpt lat="59.8959607" lon="17.6363568">
        <ele>21.767</ele>
        <time>2013-04-07T12:36:04Z</time>
      </trkpt>
      <trkpt lat="59.8958945" lon="17.6363473">
        <ele>21.2864</ele>
        <time>2013-04-07T12:36:05Z</time>
      </trkpt>
      <trkpt lat="59.8958271" lon="17.6363476">
        <ele>20.8057</ele>
        <time>2013-04-07T12:36:06Z</time>
      </trkpt>
      <trkpt lat="59.8957588" lon="17.6363573">
        <ele>20.325</ele>
        <time>2013-04-07T12:36:07Z</time>
      </trkpt>
      <trkpt lat="59.8956901" lon="17.6363738">
        <ele>20.325</ele>
        <time>2013-04-07T12:36:08Z</time>
      </trkpt>
      <trkpt lat="59.8956214" lon="17.6363962">
        <ele>19.8444</ele>
        <time>2013-04-07T12:36:09Z</time>
      </trkpt>
      <trkpt lat="59.8955536" lon="17.6364238">
        <ele>19.3638</ele>
        <time>2013-04-07T12:36:10Z</time>
      </trkpt>
      <trkpt lat="59.8954867" lon="17.6364558">
        <ele>19.3638</ele>
        <time>2013-04-07T12:36:11Z</time>
      </trkpt>
      <trkpt lat="59.89542" lon="17.6364939">
        <ele>19.3638</ele>
        <time>2013-04-07T12:36:12Z</time>
      </trkpt>
      <trkpt lat="59.8953531" lon="17.6365366">
        <ele>18.8831</ele>
        <time>2013-04-07T12:36:13Z</time>
      </trkpt>
      <trkpt lat="59.8952856" lon="17.6365812">
        <ele>18.8831</ele>
        <time>2013-04-07T12:36:14Z</time>
      </trkpt>
      <trkpt lat="59.895217" lon="17.6366281">
        <ele>18.8831</ele>
        <time>2013-04-07T12:36:15Z</time>
      </trkpt>
      <trkpt lat="59.8951464" lon="17.6366749">
        <ele>18.8831</ele>
        <time>2013-04-07T12:36:16Z</time>
      </trkpt>
      <trkpt lat="59.8950754" lon="17.6367178">
        <ele>18.8831</ele>
        <time>2013-04-07T12:36:17Z</time>
      </trkpt>
      <trkpt lat="59.895004" lon="17.6367635">
        <ele>18.8831</ele>
        <time>2013-04-07T12:36:18Z</time>
      </trkpt>
      <trkpt lat="59.894931" lon="17.6368116">
        <ele>18.8831</ele>
        <time>2013-04-07T12:36:19Z</time>
      </trkpt>
      <trkpt lat="59.8948575" lon="17.6368593">
        <ele>18.8831</ele>
        <time>2013-04-07T12:36:20Z</time>
      </trkpt>
      <trkpt lat="59.8947827" lon="17.6369076">
        <ele>18.8831</ele>
        <time>2013-04-07T12:36:21Z</time>
      </trkpt>
      <trkpt lat="59.8947103" lon="17.6369557">
        <ele>19.3638</ele>
        <time>2013-04-07T12:36:22Z</time>
      </trkpt>
      <trkpt lat="59.8946394" lon="17.6370022">
        <ele>19.3638</ele>
        <time>2013-04-07T12:36:23Z</time>
      </trkpt>
      <trkpt lat="59.8945708" lon="17.6370401">
        <ele>19.8444</ele>
        <time>2013-04-07T12:36:24Z</time>
      </trkpt>
      <trkpt lat="59.8945028" lon="17.6370821">
        <ele>20.325</ele>
        <time>2013-04-07T12:36:25Z</time>
      </trkpt>
      <trkpt lat="59.8944341" lon="17.6371287">
        <ele>20.325</ele>
        <time>2013-04-07T12:36:26Z</time>
      </trkpt>
      <trkpt lat="59.8943664" lon="17.6371691">
        <ele>20.8057</ele>
        <time>2013-04-07T12:36:27Z</time>
      </trkpt>
      <trkpt lat="59.8942995" lon="17.6372126">
        <ele>20.8057</ele>
        <time>2013-04-07T12:36:28Z</time>
      </trkpt>
      <trkpt lat="59.8942332" lon="17.6372596">
        <ele>21.2864</ele>
        <time>2013-04-07T12:36:29Z</time>
      </trkpt>
      <trkpt lat="59.8941667" lon="17.6373083">
        <ele>21.2864</ele>
        <time>2013-04-07T12:36:30Z</time>
      </trkpt>
      <trkpt lat="59.8940996" lon="17.6373572">
        <ele>21.767</ele>
        <time>2013-04-07T12:36:31Z</time>
      </trkpt>
      <trkpt lat="59.8940297" lon="17.6374083">
        <ele>22.2476</ele>
        <time>2013-04-07T12:36:32Z</time>
      </trkpt>
      <trkpt lat="59.8939601" lon="17.6374621">
        <ele>22.2476</ele>
        <time>2013-04-07T12:36:33Z</time>
      </trkpt>
      <trkpt lat="59.8938913" lon="17.6375177">
        <ele>22.2476</ele>
        <time>2013-04-07T12:36:34Z</time>
      </trkpt>
      <trkpt lat="59.893822" lon="17.6375739">
        <ele>22.2476</ele>
        <time>2013-04-07T12:36:35Z</time>
      </trkpt>
      <trkpt lat="59.8937429" lon="17.6376462">
        <ele>22.2476</ele>
        <time>2013-04-07T12:36:36Z</time>
      </trkpt>
      <trkpt lat="59.8936723" lon="17.6377003">
        <ele>21.767</ele>
        <time>2013-04-07T12:36:37Z</time>
      </trkpt>
      <trkpt lat="59.8936048" lon="17.6377564">
        <ele>22.2476</ele>
        <time>2013-04-07T12:36:38Z</time>
      </trkpt>
      <trkpt lat="59.8935359" lon="17.6377962">
        <ele>22.2476</ele>
        <time>2013-04-07T12:36:39Z</time>
      </trkpt>
      <trkpt lat="59.8934445" lon="17.6378757">
        <ele>22.7283</ele>
        <time>2013-04-07T12:36:40Z</time>
      </trkpt>
      <trkpt lat="59.8933769" lon="17.6379326">
        <ele>23.209</ele>
        <time>2013-04-07T12:36:41Z</time>
      </trkpt>
      <trkpt lat="59.8933081" lon="17.6379897">
        <ele>23.209</ele>
        <time>2013-04-07T12:36:42Z</time>
      </trkpt>
      <trkpt lat="59.8932371" lon="17.6380348">
        <ele>23.209</ele>
        <time>2013-04-07T12:36:43Z</time>
      </trkpt>
      <trkpt lat="59.8931605" lon="17.6380755">
        <ele>23.6896</ele>
        <time>2013-04-07T12:36:44Z</time>
      </trkpt>
      <trkpt lat="59.8930874" lon="17.6381078">
        <ele>23.6896</ele>
        <time>2013-04-07T12:36:45Z</time>
      </trkpt>
      <trkpt lat="59.8930143" lon="17.6381454">
        <ele>23.209</ele>
        <time>2013-04-07T12:36:46Z</time>
      </trkpt>
      <trkpt lat="59.8929417" lon="17.6381756">
        <ele>23.209</ele>
        <time>2013-04-07T12:36:47Z</time>
      </trkpt>
      <trkpt lat="59.8928695" lon="17.6381905">
        <ele>23.209</ele>
        <time>2013-04-07T12:36:48Z</time>
      </trkpt>
      <trkpt lat="59.8927984" lon="17.6381933">
        <ele>23.209</ele>
        <time>2013-04-07T12:36:49Z</time>
      </trkpt>
      <trkpt lat="59.8927333" lon="17.6381806">
        <ele>22.7283</ele>
        <time>2013-04-07T12:36:50Z</time>
      </trkpt>
      <trkpt lat="59.8926749" lon="17.6381848">
        <ele>22.7283</ele>
        <time>2013-04-07T12:36:51Z</time>
      </trkpt>
      <trkpt lat="59.8926258" lon="17.6382582">
        <ele>22.7283</ele>
        <time>2013-04-07T12:36:52Z</time>
      </trkpt>
      <trkpt lat="59.8926103" lon="17.638359">
        <ele>22.7283</ele>
        <time>2013-04-07T12:36:53Z</time>
      </trkpt>
      <trkpt lat="59.8926144" lon="17.6384807">
        <ele>23.209</ele>
        <time>2013-04-07T12:36:54Z</time>
      </trkpt>
      <trkpt lat="59.8926428" lon="17.6385832">
        <ele>23.6896</ele>
        <time>2013-04-07T12:36:55Z</time>
      </trkpt>
      <trkpt lat="59.892668" lon="17.6386826">
        <ele>24.1703</ele>
        <time>2013-04-07T12:36:56Z</time>
      </trkpt>
      <trkpt lat="59.8926915" lon="17.638784">
        <ele>24.1703</ele>
        <time>2013-04-07T12:36:57Z</time>
      </trkpt>
      <trkpt lat="59.8926963" lon="17.638889">
        <ele>25.1317</ele>
        <time>2013-04-07T12:36:58Z</time>
      </trkpt>
      <trkpt lat="59.8926982" lon="17.6389943">
        <ele>25.1317</ele>
        <time>2013-04-07T12:36:59Z</time>
      </trkpt>
      <trkpt lat="59.8926983" lon="17.6390992">
        <ele>25.6123</ele>
        <time>2013-04-07T12:37:00Z</time>
      </trkpt>
      <trkpt lat="59.8926967" lon="17.6392074">
        <ele>26.0929</ele>
        <time>2013-04-07T12:37:01Z</time>
      </trkpt>
      <trkpt lat="59.8926947" lon="17.6393142">
        <ele>26.0929</ele>
        <time>2013-04-07T12:37:02Z</time>
      </trkpt>
      <trkpt lat="59.8926937" lon="17.6394207">
        <ele>26.5736</ele>
        <time>2013-04-07T12:37:03Z</time>
      </trkpt>
      <trkpt lat="59.8926941" lon="17.6395292">
        <ele>26.5736</ele>
        <time>2013-04-07T12:37:04Z</time>
      </trkpt>
      <trkpt lat="59.8926952" lon="17.6396398">
        <ele>26.5736</ele>
        <time>2013-04-07T12:37:05Z</time>
      </trkpt>
      <trkpt lat="59.8926934" lon="17.639753">
        <ele>27.0543</ele>
        <time>2013-04-07T12:37:06Z</time>
      </trkpt>
      <trkpt lat="59.8926901" lon="17.6398689">
        <ele>27.0543</ele>
        <time>2013-04-07T12:37:07Z</time>
      </trkpt>
      <trkpt lat="59.8926896" lon="17.6399864">
        <ele>27.0543</ele>
        <time>2013-04-07T12:37:08Z</time>
      </trkpt>
      <trkpt lat="59.8926896" lon="17.6401057">
        <ele>27.0543</ele>
        <time>2013-04-07T12:37:09Z</time>
      </trkpt>
      <trkpt lat="59.892689" lon="17.6402277">
        <ele>27.0543</ele>
        <time>2013-04-07T12:37:10Z</time>
      </trkpt>
      <trkpt lat="59.8926868" lon="17.6403526">
        <ele>27.0543</ele>
        <time>2013-04-07T12:37:11Z</time>
      </trkpt>
      <trkpt lat="59.8926822" lon="17.6404792">
        <ele>27.0543</ele>
        <time>2013-04-07T12:37:12Z</time>
      </trkpt>
      <trkpt lat="59.8926756" lon="17.6406069">
        <ele>27.0543</ele>
        <time>2013-04-07T12:37:13Z</time>
      </trkpt>
      <trkpt lat="59.8926672" lon="17.640735">
        <ele>27.0543</ele>
        <time>2013-04-07T12:37:14Z</time>
      </trkpt>
      <trkpt lat="59.8926587" lon="17.6408639">
        <ele>27.0543</ele>
        <time>2013-04-07T12:37:15Z</time>
      </trkpt>
      <trkpt lat="59.892652" lon="17.6409931">
        <ele>27.5349</ele>
        <time>2013-04-07T12:37:16Z</time>
      </trkpt>
      <trkpt lat="59.8926464" lon="17.641122">
        <ele>27.5349</ele>
        <time>2013-04-07T12:37:17Z</time>
      </trkpt>
      <trkpt lat="59.8926398" lon="17.641252">
        <ele>27.5349</ele>
        <time>2013-04-07T12:37:18Z</time>
      </trkpt>
      <trkpt lat="59.8926324" lon="17.6413839">
        <ele>27.5349</ele>
        <time>2013-04-07T12:37:19Z</time>
      </trkpt>
      <trkpt lat="59.8926245" lon="17.6415176">
        <ele>27.5349</ele>
        <time>2013-04-07T12:37:20Z</time>
      </trkpt>
      <trkpt lat="59.8926168" lon="17.6416526">
        <ele>28.0155</ele>
        <time>2013-04-07T12:37:21Z</time>
      </trkpt>
      <trkpt lat="59.8926085" lon="17.6417887">
        <ele>28.0155</ele>
        <time>2013-04-07T12:37:22Z</time>
      </trkpt>
      <trkpt lat="59.8926035" lon="17.6419397">
        <ele>28.0155</ele>
        <time>2013-04-07T12:37:23Z</time>
      </trkpt>
      <trkpt lat="59.8925858" lon="17.6420912">
        <ele>28.0155</ele>
        <time>2013-04-07T12:37:24Z</time>
      </trkpt>
      <trkpt lat="59.8925713" lon="17.6422248">
        <ele>28.0155</ele>
        <time>2013-04-07T12:37:25Z</time>
      </trkpt>
      <trkpt lat="59.8925588" lon="17.6423585">
        <ele>28.4962</ele>
        <time>2013-04-07T12:37:26Z</time>
      </trkpt>
      <trkpt lat="59.8925475" lon="17.6424956">
        <ele>28.4962</ele>
        <time>2013-04-07T12:37:27Z</time>
      </trkpt>
      <trkpt lat="59.8925372" lon="17.6426273">
        <ele>28.9769</ele>
        <time>2013-04-07T12:37:28Z</time>
      </trkpt>
      <trkpt lat="59.8925273" lon="17.6427604">
        <ele>28.9769</ele>
        <time>2013-04-07T12:37:29Z</time>
      </trkpt>
      <trkpt lat="59.8925201" lon="17.6428967">
        <ele>29.4575</ele>
        <time>2013-04-07T12:37:30Z</time>
      </trkpt>
      <trkpt lat="59.8925122" lon="17.6430297">
        <ele>29.9381</ele>
        <time>2013-04-07T12:37:31Z</time>
      </trkpt>
      <trkpt lat="59.8925026" lon="17.6431615">
        <ele>30.4188</ele>
        <time>2013-04-07T12:37:32Z</time>
      </trkpt>
      <trkpt lat="59.8924917" lon="17.643294">
        <ele>30.4188</ele>
        <time>2013-04-07T12:37:33Z</time>
      </trkpt>
      <trkpt lat="59.8924798" lon="17.6434267">
        <ele>30.8995</ele>
        <time>2013-04-07T12:37:34Z</time>
      </trkpt>
      <trkpt lat="59.8924673" lon="17.6435578">
        <ele>31.3801</ele>
        <time>2013-04-07T12:37:35Z</time>
      </trkpt>
      <trkpt lat="59.8924529" lon="17.6436872">
        <ele>31.3801</ele>
        <time>2013-04-07T12:37:36Z</time>
      </trkpt>
      <trkpt lat="59.8924401" lon="17.6438172">
        <ele>31.3801</ele>
        <time>2013-04-07T12:37:37Z</time>
      </trkpt>
      <trkpt lat="59.892429" lon="17.6439446">
        <ele>31.8607</ele>
        <time>2013-04-07T12:37:38Z</time>
      </trkpt>
      <trkpt lat="59.8924181" lon="17.644073">
        <ele>31.8607</ele>
        <time>2013-04-07T12:37:39Z</time>
      </trkpt>
      <trkpt lat="59.8924072" lon="17.6442031">
        <ele>31.8607</ele>
        <time>2013-04-07T12:37:40Z</time>
      </trkpt>
      <trkpt lat="59.8923947" lon="17.6443364">
        <ele>32.3416</ele>
        <time>2013-04-07T12:37:41Z</time>
      </trkpt>
      <trkpt lat="59.8923813" lon="17.6444699">
        <ele>32.3416</ele>
        <time>2013-04-07T12:37:42Z</time>
      </trkpt>
      <trkpt lat="59.8923688" lon="17.6446035">
        <ele>32.3416</ele>
        <time>2013-04-07T12:37:43Z</time>
      </trkpt>
      <trkpt lat="59.8923567" lon="17.6447382">
        <ele>32.8223</ele>
        <time>2013-04-07T12:37:44Z</time>
      </trkpt>
      <trkpt lat="59.8923443" lon="17.6448755">
        <ele>32.8223</ele>
        <time>2013-04-07T12:37:45Z</time>
      </trkpt>
      <trkpt lat="59.8923313" lon="17.6450138">
        <ele>32.8223</ele>
        <time>2013-04-07T12:37:46Z</time>
      </trkpt>
      <trkpt lat="59.8923181" lon="17.6451521">
        <ele>33.3029</ele>
        <time>2013-04-07T12:37:47Z</time>
      </trkpt>
      <trkpt lat="59.8923051" lon="17.6452924">
        <ele>33.3029</ele>
        <time>2013-04-07T12:37:48Z</time>
      </trkpt>
      <trkpt lat="59.8922922" lon="17.6454334">
        <ele>33.3029</ele>
        <time>2013-04-07T12:37:49Z</time>
      </trkpt>
      <trkpt lat="59.8922772" lon="17.6455791">
        <ele>32.8223</ele>
        <time>2013-04-07T12:37:50Z</time>
      </trkpt>
      <trkpt lat="59.8922616" lon="17.6457245">
        <ele>32.3416</ele>
        <time>2013-04-07T12:37:51Z</time>
      </trkpt>
      <trkpt lat="59.8922474" lon="17.6458679">
        <ele>32.3416</ele>
        <time>2013-04-07T12:37:52Z</time>
      </trkpt>
      <trkpt lat="59.8922329" lon="17.6460137">
        <ele>32.8223</ele>
        <time>2013-04-07T12:37:53Z</time>
      </trkpt>
      <trkpt lat="59.892218" lon="17.6461608">
        <ele>32.8223</ele>
        <time>2013-04-07T12:37:54Z</time>
      </trkpt>
      <trkpt lat="59.8922035" lon="17.6463083">
        <ele>33.3029</ele>
        <time>2013-04-07T12:37:55Z</time>
      </trkpt>
      <trkpt lat="59.8921886" lon="17.646457">
        <ele>33.3029</ele>
        <time>2013-04-07T12:37:56Z</time>
      </trkpt>
      <trkpt lat="59.8921734" lon="17.6466051">
        <ele>33.3029</ele>
        <time>2013-04-07T12:37:57Z</time>
      </trkpt>
      <trkpt lat="59.8921571" lon="17.646752">
        <ele>33.7834</ele>
        <time>2013-04-07T12:37:58Z</time>
      </trkpt>
      <trkpt lat="59.8921399" lon="17.6468979">
        <ele>33.7834</ele>
        <time>2013-04-07T12:37:59Z</time>
      </trkpt>
      <trkpt lat="59.8921221" lon="17.6470437">
        <ele>34.2642</ele>
        <time>2013-04-07T12:38:00Z</time>
      </trkpt>
      <trkpt lat="59.8921031" lon="17.6471885">
        <ele>34.7449</ele>
        <time>2013-04-07T12:38:01Z</time>
      </trkpt>
      <trkpt lat="59.8920849" lon="17.6473329">
        <ele>34.7449</ele>
        <time>2013-04-07T12:38:02Z</time>
      </trkpt>
      <trkpt lat="59.8920661" lon="17.6474764">
        <ele>34.7449</ele>
        <time>2013-04-07T12:38:03Z</time>
      </trkpt>
      <trkpt lat="59.8920461" lon="17.6476188">
        <ele>35.2255</ele>
        <time>2013-04-07T12:38:04Z</time>
      </trkpt>
      <trkpt lat="59.8920258" lon="17.6477603">
        <ele>35.2255</ele>
        <time>2013-04-07T12:38:05Z</time>
      </trkpt>
      <trkpt lat="59.8920039" lon="17.647898">
        <ele>35.7061</ele>
        <time>2013-04-07T12:38:06Z</time>
      </trkpt>
      <trkpt lat="59.8919846" lon="17.6480148">
        <ele>35.7061</ele>
        <time>2013-04-07T12:38:07Z</time>
      </trkpt>
      <trkpt lat="59.8919706" lon="17.6480994">
        <ele>35.7061</ele>
        <time>2013-04-07T12:38:08Z</time>
      </trkpt>
      <trkpt lat="59.8919596" lon="17.6481585">
        <ele>35.7061</ele>
        <time>2013-04-07T12:38:09Z</time>
      </trkpt>
      <trkpt lat="59.8919493" lon="17.6482073">
        <ele>35.7061</ele>
        <time>2013-04-07T12:38:10Z</time>
      </trkpt>
      <trkpt lat="59.8919371" lon="17.6482602">
        <ele>35.7061</ele>
        <time>2013-04-07T12:38:11Z</time>
      </trkpt>
      <trkpt lat="59.8919228" lon="17.6483216">
        <ele>35.7061</ele>
        <time>2013-04-07T12:38:12Z</time>
      </trkpt>
      <trkpt lat="59.8919069" lon="17.6483918">
        <ele>35.2255</ele>
        <time>2013-04-07T12:38:13Z</time>
      </trkpt>
      <trkpt lat="59.8918912" lon="17.6484699">
        <ele>35.2255</ele>
        <time>2013-04-07T12:38:14Z</time>
      </trkpt>
      <trkpt lat="59.8918757" lon="17.6485548">
        <ele>34.7449</ele>
        <time>2013-04-07T12:38:15Z</time>
      </trkpt>
      <trkpt lat="59.8918602" lon="17.6486445">
        <ele>34.7449</ele>
        <time>2013-04-07T12:38:16Z</time>
      </trkpt>
      <trkpt lat="59.8918446" lon="17.6487373">
        <ele>34.2642</ele>
        <time>2013-04-07T12:38:17Z</time>
      </trkpt>
      <trkpt lat="59.8918275" lon="17.6488319">
        <ele>34.2642</ele>
        <time>2013-04-07T12:38:18Z</time>
      </trkpt>
      <trkpt lat="59.8918094" lon="17.6489295">
        <ele>34.2642</ele>
        <time>2013-04-07T12:38:19Z</time>
      </trkpt>
      <trkpt lat="59.8917907" lon="17.6490323">
        <ele>34.2642</ele>
        <time>2013-04-07T12:38:20Z</time>
      </trkpt>
      <trkpt lat="59.8917701" lon="17.6491401">
        <ele>34.2642</ele>
        <time>2013-04-07T12:38:21Z</time>
      </trkpt>
      <trkpt lat="59.8917486" lon="17.6492505">
        <ele>34.2642</ele>
        <time>2013-04-07T12:38:22Z</time>
      </trkpt>
      <trkpt lat="59.8917258" lon="17.649363">
        <ele>34.2642</ele>
        <time>2013-04-07T12:38:23Z</time>
      </trkpt>
      <trkpt lat="59.8917021" lon="17.6494784">
        <ele>34.2642</ele>
        <time>2013-04-07T12:38:24Z</time>
      </trkpt>
      <trkpt lat="59.8916766" lon="17.6495967">
        <ele>34.2642</ele>
        <time>2013-04-07T12:38:25Z</time>
      </trkpt>
      <trkpt lat="59.8916496" lon="17.6497153">
        <ele>34.2642</ele>
        <time>2013-04-07T12:38:26Z</time>
      </trkpt>
      <trkpt lat="59.8916206" lon="17.6498324">
        <ele>34.2642</ele>
        <time>2013-04-07T12:38:27Z</time>
      </trkpt>
      <trkpt lat="59.8915907" lon="17.649951">
        <ele>34.2642</ele>
        <time>2013-04-07T12:38:28Z</time>
      </trkpt>
      <trkpt lat="59.8915601" lon="17.6500702">
        <ele>34.2642</ele>
        <time>2013-04-07T12:38:29Z</time>
      </trkpt>
      <trkpt lat="59.8915286" lon="17.6501898">
        <ele>33.7834</ele>
        <time>2013-04-07T12:38:30Z</time>
      </trkpt>
      <trkpt lat="59.8914949" lon="17.6503113">
        <ele>33.7834</ele>
        <time>2013-04-07T12:38:31Z</time>
      </trkpt>
      <trkpt lat="59.8914597" lon="17.6504331">
        <ele>33.7834</ele>
        <time>2013-04-07T12:38:32Z</time>
      </trkpt>
      <trkpt lat="59.8914224" lon="17.650553">
        <ele>33.7834</ele>
        <time>2013-04-07T12:38:33Z</time>
      </trkpt>
      <trkpt lat="59.891384" lon="17.650672">
        <ele>33.7834</ele>
        <time>2013-04-07T12:38:34Z</time>
      </trkpt>
      <trkpt lat="59.8913452" lon="17.6507915">
        <ele>33.3029</ele>
        <time>2013-04-07T12:38:35Z</time>
      </trkpt>
      <trkpt lat="59.8913052" lon="17.6509113">
        <ele>33.3029</ele>
        <time>2013-04-07T12:38:36Z</time>
      </trkpt>
      <trkpt lat="59.8912655" lon="17.6510331">
        <ele>33.3029</ele>
        <time>2013-04-07T12:38:37Z</time>
      </trkpt>
      <trkpt lat="59.8912249" lon="17.6511559">
        <ele>33.3029</ele>
        <time>2013-04-07T12:38:38Z</time>
      </trkpt>
      <trkpt lat="59.8911821" lon="17.6512766">
        <ele>32.8223</ele>
        <time>2013-04-07T12:38:39Z</time>
      </trkpt>
      <trkpt lat="59.891137" lon="17.6513982">
        <ele>32.8223</ele>
        <time>2013-04-07T12:38:40Z</time>
      </trkpt>
      <trkpt lat="59.891093" lon="17.6515216">
        <ele>33.3029</ele>
        <time>2013-04-07T12:38:41Z</time>
      </trkpt>
      <trkpt lat="59.891048" lon="17.6516452">
        <ele>33.3029</ele>
        <time>2013-04-07T12:38:42Z</time>
      </trkpt>
      <trkpt lat="59.8910008" lon="17.6517687">
        <ele>32.8223</ele>
        <time>2013-04-07T12:38:43Z</time>
      </trkpt>
      <trkpt lat="59.8909519" lon="17.6518918">
        <ele>32.8223</ele>
        <time>2013-04-07T12:38:44Z</time>
      </trkpt>
      <trkpt lat="59.8909023" lon="17.6520166">
        <ele>32.8223</ele>
        <time>2013-04-07T12:38:45Z</time>
      </trkpt>
      <trkpt lat="59.8908567" lon="17.6521437">
        <ele>33.3029</ele>
        <time>2013-04-07T12:38:46Z</time>
      </trkpt>
      <trkpt lat="59.8908105" lon="17.6522709">
        <ele>33.3029</ele>
        <time>2013-04-07T12:38:47Z</time>
      </trkpt>
      <trkpt lat="59.890763" lon="17.6523965">
        <ele>33.3029</ele>
        <time>2013-04-07T12:38:48Z</time>
      </trkpt>
      <trkpt lat="59.8907143" lon="17.6525224">
        <ele>33.3029</ele>
        <time>2013-04-07T12:38:49Z</time>
      </trkpt>
      <trkpt lat="59.8906675" lon="17.6526507">
        <ele>33.3029</ele>
        <time>2013-04-07T12:38:50Z</time>
      </trkpt>
      <trkpt lat="59.8906214" lon="17.6527807">
        <ele>33.3029</ele>
        <time>2013-04-07T12:38:51Z</time>
      </trkpt>
      <trkpt lat="59.890574" lon="17.6529089">
        <ele>33.7834</ele>
        <time>2013-04-07T12:38:52Z</time>
      </trkpt>
      <trkpt lat="59.8905258" lon="17.6530374">
        <ele>33.7834</ele>
        <time>2013-04-07T12:38:53Z</time>
      </trkpt>
      <trkpt lat="59.8904791" lon="17.6531687">
        <ele>34.2642</ele>
        <time>2013-04-07T12:38:54Z</time>
      </trkpt>
      <trkpt lat="59.8904319" lon="17.6533012">
        <ele>34.2642</ele>
        <time>2013-04-07T12:38:55Z</time>
      </trkpt>
      <trkpt lat="59.8903846" lon="17.6534344">
        <ele>34.2642</ele>
        <time>2013-04-07T12:38:56Z</time>
      </trkpt>
      <trkpt lat="59.8903372" lon="17.6535676">
        <ele>34.7449</ele>
        <time>2013-04-07T12:38:57Z</time>
      </trkpt>
      <trkpt lat="59.8902901" lon="17.6537025">
        <ele>34.7449</ele>
        <time>2013-04-07T12:38:58Z</time>
      </trkpt>
      <trkpt lat="59.8902422" lon="17.6538372">
        <ele>34.7449</ele>
        <time>2013-04-07T12:38:59Z</time>
      </trkpt>
      <trkpt lat="59.8901936" lon="17.6539707">
        <ele>35.2255</ele>
        <time>2013-04-07T12:39:00Z</time>
      </trkpt>
      <trkpt lat="59.8901455" lon="17.6541055">
        <ele>35.2255</ele>
        <time>2013-04-07T12:39:01Z</time>
      </trkpt>
      <trkpt lat="59.8900977" lon="17.6542415">
        <ele>34.7449</ele>
        <time>2013-04-07T12:39:02Z</time>
      </trkpt>
      <trkpt lat="59.8900482" lon="17.654379">
        <ele>34.7449</ele>
        <time>2013-04-07T12:39:03Z</time>
      </trkpt>
      <trkpt lat="59.8899993" lon="17.654515">
        <ele>34.7449</ele>
        <time>2013-04-07T12:39:04Z</time>
      </trkpt>
      <trkpt lat="59.8899495" lon="17.6546527">
        <ele>34.7449</ele>
        <time>2013-04-07T12:39:05Z</time>
      </trkpt>
      <trkpt lat="59.8898979" lon="17.6547943">
        <ele>34.7449</ele>
        <time>2013-04-07T12:39:06Z</time>
      </trkpt>
      <trkpt lat="59.8898473" lon="17.6549376">
        <ele>34.7449</ele>
        <time>2013-04-07T12:39:07Z</time>
      </trkpt>
      <trkpt lat="59.8897964" lon="17.6550799">
        <ele>34.7449</ele>
        <time>2013-04-07T12:39:08Z</time>
      </trkpt>
      <trkpt lat="59.8897441" lon="17.65522">
        <ele>34.7449</ele>
        <time>2013-04-07T12:39:09Z</time>
      </trkpt>
      <trkpt lat="59.8896913" lon="17.6553596">
        <ele>34.7449</ele>
        <time>2013-04-07T12:39:10Z</time>
      </trkpt>
      <trkpt lat="59.8896378" lon="17.6555008">
        <ele>34.7449</ele>
        <time>2013-04-07T12:39:11Z</time>
      </trkpt>
      <trkpt lat="59.8895835" lon="17.6556427">
        <ele>34.7449</ele>
        <time>2013-04-07T12:39:12Z</time>
      </trkpt>
      <trkpt lat="59.8895294" lon="17.6557863">
        <ele>34.7449</ele>
        <time>2013-04-07T12:39:13Z</time>
      </trkpt>
      <trkpt lat="59.8894763" lon="17.6559314">
        <ele>35.2255</ele>
        <time>2013-04-07T12:39:14Z</time>
      </trkpt>
      <trkpt lat="59.889424" lon="17.6560755">
        <ele>35.2255</ele>
        <time>2013-04-07T12:39:15Z</time>
      </trkpt>
      <trkpt lat="59.8893704" lon="17.6562236">
        <ele>35.2255</ele>
        <time>2013-04-07T12:39:16Z</time>
      </trkpt>
      <trkpt lat="59.8893163" lon="17.6563727">
        <ele>35.7061</ele>
        <time>2013-04-07T12:39:17Z</time>
      </trkpt>
      <trkpt lat="59.8892603" lon="17.6565203">
        <ele>35.2255</ele>
        <time>2013-04-07T12:39:18Z</time>
      </trkpt>
      <trkpt lat="59.8892043" lon="17.6566674">
        <ele>35.2255</ele>
        <time>2013-04-07T12:39:19Z</time>
      </trkpt>
      <trkpt lat="59.8891482" lon="17.6568167">
        <ele>35.2255</ele>
        <time>2013-04-07T12:39:20Z</time>
      </trkpt>
      <trkpt lat="59.8890924" lon="17.6569675">
        <ele>35.7061</ele>
        <time>2013-04-07T12:39:21Z</time>
      </trkpt>
      <trkpt lat="59.8890344" lon="17.6571193">
        <ele>35.7061</ele>
        <time>2013-04-07T12:39:22Z</time>
      </trkpt>
      <trkpt lat="59.8889764" lon="17.6572731">
        <ele>35.7061</ele>
        <time>2013-04-07T12:39:23Z</time>
      </trkpt>
      <trkpt lat="59.8889183" lon="17.6574283">
        <ele>35.7061</ele>
        <time>2013-04-07T12:39:24Z</time>
      </trkpt>
      <trkpt lat="59.8888604" lon="17.6575831">
        <ele>36.1868</ele>
        <time>2013-04-07T12:39:25Z</time>
      </trkpt>
      <trkpt lat="59.8888033" lon="17.6577385">
        <ele>36.1868</ele>
        <time>2013-04-07T12:39:26Z</time>
      </trkpt>
      <trkpt lat="59.8887464" lon="17.6578941">
        <ele>36.6675</ele>
        <time>2013-04-07T12:39:27Z</time>
      </trkpt>
      <trkpt lat="59.88869" lon="17.6580479">
        <ele>36.6675</ele>
        <time>2013-04-07T12:39:28Z</time>
      </trkpt>
      <trkpt lat="59.8886335" lon="17.6581997">
        <ele>37.1481</ele>
        <time>2013-04-07T12:39:29Z</time>
      </trkpt>
      <trkpt lat="59.888577" lon="17.6583514">
        <ele>37.1481</ele>
        <time>2013-04-07T12:39:30Z</time>
      </trkpt>
      <trkpt lat="59.8885209" lon="17.6585034">
        <ele>37.1481</ele>
        <time>2013-04-07T12:39:31Z</time>
      </trkpt>
      <trkpt lat="59.8884646" lon="17.6586566">
        <ele>37.6287</ele>
        <time>2013-04-07T12:39:32Z</time>
      </trkpt>
      <trkpt lat="59.8884091" lon="17.658809">
        <ele>37.6287</ele>
        <time>2013-04-07T12:39:33Z</time>
      </trkpt>
      <trkpt lat="59.8883553" lon="17.6589598">
        <ele>37.6287</ele>
        <time>2013-04-07T12:39:34Z</time>
      </trkpt>
      <trkpt lat="59.8883024" lon="17.6591073">
        <ele>37.6287</ele>
        <time>2013-04-07T12:39:35Z</time>
      </trkpt>
      <trkpt lat="59.8882505" lon="17.6592516">
        <ele>37.6287</ele>
        <time>2013-04-07T12:39:36Z</time>
      </trkpt>
      <trkpt lat="59.8881988" lon="17.6593923">
        <ele>37.6287</ele>
        <time>2013-04-07T12:39:37Z</time>
      </trkpt>
      <trkpt lat="59.8881472" lon="17.6595294">
        <ele>37.6287</ele>
        <time>2013-04-07T12:39:38Z</time>
      </trkpt>
      <trkpt lat="59.8880971" lon="17.6596652">
        <ele>37.6287</ele>
        <time>2013-04-07T12:39:39Z</time>
      </trkpt>
      <trkpt lat="59.8880481" lon="17.6597986">
        <ele>38.1094</ele>
        <time>2013-04-07T12:39:40Z</time>
      </trkpt>
      <trkpt lat="59.8880004" lon="17.6599294">
        <ele>38.1094</ele>
        <time>2013-04-07T12:39:41Z</time>
      </trkpt>
      <trkpt lat="59.8879553" lon="17.660061">
        <ele>38.1094</ele>
        <time>2013-04-07T12:39:42Z</time>
      </trkpt>
      <trkpt lat="59.8879102" lon="17.6601911">
        <ele>38.1094</ele>
        <time>2013-04-07T12:39:43Z</time>
      </trkpt>
      <trkpt lat="59.887863" lon="17.6603173">
        <ele>38.1094</ele>
        <time>2013-04-07T12:39:44Z</time>
      </trkpt>
      <trkpt lat="59.8878119" lon="17.6604368">
        <ele>38.1094</ele>
        <time>2013-04-07T12:39:45Z</time>
      </trkpt>
      <trkpt lat="59.8877557" lon="17.6605492">
        <ele>38.1094</ele>
        <time>2013-04-07T12:39:46Z</time>
      </trkpt>
      <trkpt lat="59.8876953" lon="17.6606539">
        <ele>38.1094</ele>
        <time>2013-04-07T12:39:47Z</time>
      </trkpt>
      <trkpt lat="59.8876317" lon="17.6607485">
        <ele>37.6287</ele>
        <time>2013-04-07T12:39:48Z</time>
      </trkpt>
      <trkpt lat="59.887566" lon="17.6608316">
        <ele>37.6287</ele>
        <time>2013-04-07T12:39:49Z</time>
      </trkpt>
      <trkpt lat="59.8874974" lon="17.6609015">
        <ele>37.1481</ele>
        <time>2013-04-07T12:39:50Z</time>
      </trkpt>
      <trkpt lat="59.8874255" lon="17.6609519">
        <ele>37.1481</ele>
        <time>2013-04-07T12:39:51Z</time>
      </trkpt>
      <trkpt lat="59.8873509" lon="17.6609666">
        <ele>36.1868</ele>
        <time>2013-04-07T12:39:52Z</time>
      </trkpt>
      <trkpt lat="59.8872773" lon="17.6609391">
        <ele>35.7061</ele>
        <time>2013-04-07T12:39:53Z</time>
      </trkpt>
      <trkpt lat="59.8872031" lon="17.6609011">
        <ele>35.2255</ele>
        <time>2013-04-07T12:39:54Z</time>
      </trkpt>
      <trkpt lat="59.8871318" lon="17.6608753">
        <ele>34.2642</ele>
        <time>2013-04-07T12:39:55Z</time>
      </trkpt>
      <trkpt lat="59.8870546" lon="17.6608943">
        <ele>33.7834</ele>
        <time>2013-04-07T12:39:56Z</time>
      </trkpt>
      <trkpt lat="59.8870015" lon="17.660982">
        <ele>32.3416</ele>
        <time>2013-04-07T12:39:57Z</time>
      </trkpt>
      <trkpt lat="59.886979" lon="17.6611079">
        <ele>31.8607</ele>
        <time>2013-04-07T12:39:58Z</time>
      </trkpt>
      <trkpt lat="59.8869787" lon="17.6612405">
        <ele>31.3801</ele>
        <time>2013-04-07T12:39:59Z</time>
      </trkpt>
      <trkpt lat="59.8870023" lon="17.661355">
        <ele>31.3801</ele>
        <time>2013-04-07T12:40:00Z</time>
      </trkpt>
      <trkpt lat="59.8870345" lon="17.6614731">
        <ele>31.3801</ele>
        <time>2013-04-07T12:40:01Z</time>
      </trkpt>
      <trkpt lat="59.8870531" lon="17.6615993">
        <ele>31.3801</ele>
        <time>2013-04-07T12:40:02Z</time>
      </trkpt>
      <trkpt lat="59.8870629" lon="17.6617362">
        <ele>31.3801</ele>
        <time>2013-04-07T12:40:03Z</time>
      </trkpt>
      <trkpt lat="59.8870613" lon="17.6618765">
        <ele>31.3801</ele>
        <time>2013-04-07T12:40:04Z</time>
      </trkpt>
      <trkpt lat="59.8870477" lon="17.662017">
        <ele>30.8995</ele>
        <time>2013-04-07T12:40:05Z</time>
      </trkpt>
      <trkpt lat="59.8870257" lon="17.6621579">
        <ele>30.8995</ele>
        <time>2013-04-07T12:40:06Z</time>
      </trkpt>
      <trkpt lat="59.8869992" lon="17.6622981">
        <ele>30.4188</ele>
        <time>2013-04-07T12:40:07Z</time>
      </trkpt>
      <trkpt lat="59.8869669" lon="17.662436">
        <ele>30.4188</ele>
        <time>2013-04-07T12:40:08Z</time>
      </trkpt>
      <trkpt lat="59.8869327" lon="17.6625692">
        <ele>29.9381</ele>
        <time>2013-04-07T12:40:09Z</time>
      </trkpt>
      <trkpt lat="59.8868962" lon="17.6626876">
        <ele>30.4188</ele>
        <time>2013-04-07T12:40:10Z</time>
      </trkpt>
      <trkpt lat="59.8868544" lon="17.6628192">
        <ele>30.4188</ele>
        <time>2013-04-07T12:40:11Z</time>
      </trkpt>
      <trkpt lat="59.8868079" lon="17.6629457">
        <ele>30.4188</ele>
        <time>2013-04-07T12:40:12Z</time>
      </trkpt>
      <trkpt lat="59.8867567" lon="17.6630627">
        <ele>30.4188</ele>
        <time>2013-04-07T12:40:13Z</time>
      </trkpt>
      <trkpt lat="59.8866943" lon="17.663169">
        <ele>30.4188</ele>
        <time>2013-04-07T12:40:14Z</time>
      </trkpt>
      <trkpt lat="59.886636" lon="17.6632693">
        <ele>29.9381</ele>
        <time>2013-04-07T12:40:15Z</time>
      </trkpt>
      <trkpt lat="59.8865799" lon="17.6633638">
        <ele>29.4575</ele>
        <time>2013-04-07T12:40:16Z</time>
      </trkpt>
      <trkpt lat="59.8865235" lon="17.6634493">
        <ele>28.9769</ele>
        <time>2013-04-07T12:40:17Z</time>
      </trkpt>
      <trkpt lat="59.8864654" lon="17.6635228">
        <ele>28.9769</ele>
        <time>2013-04-07T12:40:18Z</time>
      </trkpt>
      <trkpt lat="59.886412" lon="17.6635808">
        <ele>28.4962</ele>
        <time>2013-04-07T12:40:19Z</time>
      </trkpt>
      <trkpt lat="59.886365" lon="17.6636226">
        <ele>28.4962</ele>
        <time>2013-04-07T12:40:20Z</time>
      </trkpt>
      <trkpt lat="59.8863324" lon="17.6636435">
        <ele>28.4962</ele>
        <time>2013-04-07T12:40:21Z</time>
      </trkpt>
      <trkpt lat="59.8863092" lon="17.663653">
        <ele>28.0155</ele>
        <time>2013-04-07T12:40:22Z</time>
      </trkpt>
      <trkpt lat="59.8862899" lon="17.6636559">
        <ele>28.0155</ele>
        <time>2013-04-07T12:40:23Z</time>
      </trkpt>
      <trkpt lat="59.8862719" lon="17.6636544">
        <ele>28.0155</ele>
        <time>2013-04-07T12:40:24Z</time>
      </trkpt>
      <trkpt lat="59.8862538" lon="17.6636538">
        <ele>28.0155</ele>
        <time>2013-04-07T12:40:25Z</time>
      </trkpt>
      <trkpt lat="59.8862371" lon="17.6636543">
        <ele>28.0155</ele>
        <time>2013-04-07T12:40:26Z</time>
      </trkpt>
      <trkpt lat="59.8862206" lon="17.6636549">
        <ele>28.0155</ele>
        <time>2013-04-07T12:40:27Z</time>
      </trkpt>
      <trkpt lat="59.8862043" lon="17.6636559">
        <ele>28.0155</ele>
        <time>2013-04-07T12:40:28Z</time>
      </trkpt>
      <trkpt lat="59.8861884" lon="17.6636553">
        <ele>28.0155</ele>
        <time>2013-04-07T12:40:29Z</time>
      </trkpt>
      <trkpt lat="59.886171" lon="17.6636492">
        <ele>28.0155</ele>
        <time>2013-04-07T12:40:30Z</time>
      </trkpt>
      <trkpt lat="59.8861478" lon="17.6636371">
        <ele>28.0155</ele>
        <time>2013-04-07T12:40:31Z</time>
      </trkpt>
      <trkpt lat="59.8861176" lon="17.6636169">
        <ele>27.5349</ele>
        <time>2013-04-07T12:40:32Z</time>
      </trkpt>
      <trkpt lat="59.8860807" lon="17.6635941">
        <ele>27.5349</ele>
        <time>2013-04-07T12:40:33Z</time>
      </trkpt>
      <trkpt lat="59.886037" lon="17.6635726">
        <ele>27.5349</ele>
        <time>2013-04-07T12:40:34Z</time>
      </trkpt>
      <trkpt lat="59.8859884" lon="17.6635513">
        <ele>27.5349</ele>
        <time>2013-04-07T12:40:35Z</time>
      </trkpt>
      <trkpt lat="59.8859366" lon="17.6635316">
        <ele>27.5349</ele>
        <time>2013-04-07T12:40:36Z</time>
      </trkpt>
      <trkpt lat="59.8858802" lon="17.6635228">
        <ele>27.5349</ele>
        <time>2013-04-07T12:40:37Z</time>
      </trkpt>
      <trkpt lat="59.8858176" lon="17.6635011">
        <ele>27.0543</ele>
        <time>2013-04-07T12:40:38Z</time>
      </trkpt>
      <trkpt lat="59.8857593" lon="17.663532">
        <ele>27.0543</ele>
        <time>2013-04-07T12:40:39Z</time>
      </trkpt>
      <trkpt lat="59.8857013" lon="17.6636041">
        <ele>27.0543</ele>
        <time>2013-04-07T12:40:40Z</time>
      </trkpt>
      <trkpt lat="59.8856456" lon="17.6636964">
        <ele>26.5736</ele>
        <time>2013-04-07T12:40:41Z</time>
      </trkpt>
      <trkpt lat="59.8855956" lon="17.6638117">
        <ele>26.0929</ele>
        <time>2013-04-07T12:40:42Z</time>
      </trkpt>
      <trkpt lat="59.8855538" lon="17.6639425">
        <ele>26.0929</ele>
        <time>2013-04-07T12:40:43Z</time>
      </trkpt>
      <trkpt lat="59.8855202" lon="17.6640821">
        <ele>25.6123</ele>
        <time>2013-04-07T12:40:44Z</time>
      </trkpt>
      <trkpt lat="59.8854931" lon="17.6642272">
        <ele>25.6123</ele>
        <time>2013-04-07T12:40:45Z</time>
      </trkpt>
      <trkpt lat="59.8854638" lon="17.6643739">
        <ele>25.6123</ele>
        <time>2013-04-07T12:40:46Z</time>
      </trkpt>
      <trkpt lat="59.8854316" lon="17.6645203">
        <ele>25.6123</ele>
        <time>2013-04-07T12:40:47Z</time>
      </trkpt>
      <trkpt lat="59.8853962" lon="17.664664">
        <ele>25.6123</ele>
        <time>2013-04-07T12:40:48Z</time>
      </trkpt>
      <trkpt lat="59.8853576" lon="17.6648031">
        <ele>25.6123</ele>
        <time>2013-04-07T12:40:49Z</time>
      </trkpt>
      <trkpt lat="59.8853182" lon="17.6649415">
        <ele>25.6123</ele>
        <time>2013-04-07T12:40:50Z</time>
      </trkpt>
      <trkpt lat="59.88528" lon="17.6650813">
        <ele>25.6123</ele>
        <time>2013-04-07T12:40:51Z</time>
      </trkpt>
      <trkpt lat="59.8852442" lon="17.6652229">
        <ele>25.6123</ele>
        <time>2013-04-07T12:40:52Z</time>
      </trkpt>
      <trkpt lat="59.8852113" lon="17.6653665">
        <ele>25.6123</ele>
        <time>2013-04-07T12:40:53Z</time>
      </trkpt>
      <trkpt lat="59.885184" lon="17.6655118">
        <ele>25.6123</ele>
        <time>2013-04-07T12:40:54Z</time>
      </trkpt>
      <trkpt lat="59.8851613" lon="17.6656591">
        <ele>25.6123</ele>
        <time>2013-04-07T12:40:55Z</time>
      </trkpt>
      <trkpt lat="59.8851426" lon="17.6658074">
        <ele>25.6123</ele>
        <time>2013-04-07T12:40:56Z</time>
      </trkpt>
      <trkpt lat="59.885126" lon="17.6659554">
        <ele>25.6123</ele>
        <time>2013-04-07T12:40:57Z</time>
      </trkpt>
      <trkpt lat="59.8851109" lon="17.666102">
        <ele>25.6123</ele>
        <time>2013-04-07T12:40:58Z</time>
      </trkpt>
      <trkpt lat="59.8850975" lon="17.6662465">
        <ele>25.6123</ele>
        <time>2013-04-07T12:40:59Z</time>
      </trkpt>
      <trkpt lat="59.8850851" lon="17.6663889">
        <ele>25.6123</ele>
        <time>2013-04-07T12:41:00Z</time>
      </trkpt>
      <trkpt lat="59.8850742" lon="17.6665312">
        <ele>25.6123</ele>
        <time>2013-04-07T12:41:01Z</time>
      </trkpt>
      <trkpt lat="59.8850626" lon="17.6666729">
        <ele>25.6123</ele>
        <time>2013-04-07T12:41:02Z</time>
      </trkpt>
      <trkpt lat="59.8850473" lon="17.6668135">
        <ele>25.6123</ele>
        <time>2013-04-07T12:41:03Z</time>
      </trkpt>
      <trkpt lat="59.885024" lon="17.6669499">
        <ele>25.6123</ele>
        <time>2013-04-07T12:41:04Z</time>
      </trkpt>
      <trkpt lat="59.8849911" lon="17.6670759">
        <ele>26.0929</ele>
        <time>2013-04-07T12:41:05Z</time>
      </trkpt>
      <trkpt lat="59.8849463" lon="17.667185">
        <ele>26.0929</ele>
        <time>2013-04-07T12:41:06Z</time>
      </trkpt>
      <trkpt lat="59.8848929" lon="17.6672846">
        <ele>26.0929</ele>
        <time>2013-04-07T12:41:07Z</time>
      </trkpt>
      <trkpt lat="59.8848478" lon="17.6673996">
        <ele>25.6123</ele>
        <time>2013-04-07T12:41:08Z</time>
      </trkpt>
      <trkpt lat="59.8848173" lon="17.6675367">
        <ele>25.6123</ele>
        <time>2013-04-07T12:41:09Z</time>
      </trkpt>
      <trkpt lat="59.8848086" lon="17.6676843">
        <ele>25.1317</ele>
        <time>2013-04-07T12:41:10Z</time>
      </trkpt>
      <trkpt lat="59.8848147" lon="17.6678338">
        <ele>25.1317</ele>
        <time>2013-04-07T12:41:11Z</time>
      </trkpt>
      <trkpt lat="59.8848198" lon="17.6679854">
        <ele>25.1317</ele>
        <time>2013-04-07T12:41:12Z</time>
      </trkpt>
      <trkpt lat="59.8848124" lon="17.6681352">
        <ele>25.1317</ele>
        <time>2013-04-07T12:41:13Z</time>
      </trkpt>
      <trkpt lat="59.8847909" lon="17.6682793">
        <ele>25.1317</ele>
        <time>2013-04-07T12:41:14Z</time>
      </trkpt>
      <trkpt lat="59.8847616" lon="17.6684166">
        <ele>25.1317</ele>
        <time>2013-04-07T12:41:15Z</time>
      </trkpt>
      <trkpt lat="59.8847267" lon="17.6685444">
        <ele>25.6123</ele>
        <time>2013-04-07T12:41:16Z</time>
      </trkpt>
      <trkpt lat="59.8846896" lon="17.6686681">
        <ele>26.0929</ele>
        <time>2013-04-07T12:41:17Z</time>
      </trkpt>
      <trkpt lat="59.8846511" lon="17.6687889">
        <ele>26.0929</ele>
        <time>2013-04-07T12:41:18Z</time>
      </trkpt>
      <trkpt lat="59.8846109" lon="17.6689071">
        <ele>26.5736</ele>
        <time>2013-04-07T12:41:19Z</time>
      </trkpt>
      <trkpt lat="59.8845677" lon="17.669023">
        <ele>27.0543</ele>
        <time>2013-04-07T12:41:20Z</time>
      </trkpt>
      <trkpt lat="59.8845236" lon="17.6691381">
        <ele>27.5349</ele>
        <time>2013-04-07T12:41:21Z</time>
      </trkpt>
      <trkpt lat="59.8844784" lon="17.6692523">
        <ele>28.0155</ele>
        <time>2013-04-07T12:41:22Z</time>
      </trkpt>
      <trkpt lat="59.8844328" lon="17.6693665">
        <ele>28.0155</ele>
        <time>2013-04-07T12:41:23Z</time>
      </trkpt>
      <trkpt lat="59.8843869" lon="17.6694805">
        <ele>28.4962</ele>
        <time>2013-04-07T12:41:24Z</time>
      </trkpt>
      <trkpt lat="59.8843407" lon="17.6695923">
        <ele>28.9769</ele>
        <time>2013-04-07T12:41:25Z</time>
      </trkpt>
      <trkpt lat="59.8842937" lon="17.6697012">
        <ele>28.9769</ele>
        <time>2013-04-07T12:41:26Z</time>
      </trkpt>
      <trkpt lat="59.884246" lon="17.6698082">
        <ele>29.4575</ele>
        <time>2013-04-07T12:41:27Z</time>
      </trkpt>
      <trkpt lat="59.8841979" lon="17.6699135">
        <ele>29.4575</ele>
        <time>2013-04-07T12:41:28Z</time>
      </trkpt>
      <trkpt lat="59.8841491" lon="17.6700176">
        <ele>29.9381</ele>
        <time>2013-04-07T12:41:29Z</time>
      </trkpt>
      <trkpt lat="59.8840989" lon="17.67012">
        <ele>29.9381</ele>
        <time>2013-04-07T12:41:30Z</time>
      </trkpt>
      <trkpt lat="59.8840444" lon="17.6702109">
        <ele>29.9381</ele>
        <time>2013-04-07T12:41:31Z</time>
      </trkpt>
      <trkpt lat="59.883974" lon="17.6702575">
        <ele>29.9381</ele>
        <time>2013-04-07T12:41:32Z</time>
      </trkpt>
      <trkpt lat="59.8839002" lon="17.6702886">
        <ele>30.4188</ele>
        <time>2013-04-07T12:41:33Z</time>
      </trkpt>
      <trkpt lat="59.883828" lon="17.6703135">
        <ele>30.4188</ele>
        <time>2013-04-07T12:41:34Z</time>
      </trkpt>
      <trkpt lat="59.8837583" lon="17.6703669">
        <ele>30.8995</ele>
        <time>2013-04-07T12:41:35Z</time>
      </trkpt>
      <trkpt lat="59.8836963" lon="17.670458">
        <ele>30.8995</ele>
        <time>2013-04-07T12:41:36Z</time>
      </trkpt>
      <trkpt lat="59.883645" lon="17.6705842">
        <ele>31.3801</ele>
        <time>2013-04-07T12:41:37Z</time>
      </trkpt>
      <trkpt lat="59.8836088" lon="17.6707181">
        <ele>31.3801</ele>
        <time>2013-04-07T12:41:38Z</time>
      </trkpt>
      <trkpt lat="59.8835782" lon="17.6708538">
        <ele>31.3801</ele>
        <time>2013-04-07T12:41:39Z</time>
      </trkpt>
      <trkpt lat="59.8835414" lon="17.6709799">
        <ele>31.8607</ele>
        <time>2013-04-07T12:41:40Z</time>
      </trkpt>
      <trkpt lat="59.8834934" lon="17.671103">
        <ele>31.8607</ele>
        <time>2013-04-07T12:41:41Z</time>
      </trkpt>
      <trkpt lat="59.883441" lon="17.6712073">
        <ele>32.3416</ele>
        <time>2013-04-07T12:41:42Z</time>
      </trkpt>
      <trkpt lat="59.8833849" lon="17.6712991">
        <ele>32.3416</ele>
        <time>2013-04-07T12:41:43Z</time>
      </trkpt>
      <trkpt lat="59.883326" lon="17.6713847">
        <ele>32.3416</ele>
        <time>2013-04-07T12:41:44Z</time>
      </trkpt>
      <trkpt lat="59.8832659" lon="17.6714653">
        <ele>32.3416</ele>
        <time>2013-04-07T12:41:45Z</time>
      </trkpt>
      <trkpt lat="59.8832052" lon="17.6715451">
        <ele>32.3416</ele>
        <time>2013-04-07T12:41:46Z</time>
      </trkpt>
      <trkpt lat="59.8831431" lon="17.6716231">
        <ele>32.3416</ele>
        <time>2013-04-07T12:41:47Z</time>
      </trkpt>
      <trkpt lat="59.8830794" lon="17.671699">
        <ele>32.3416</ele>
        <time>2013-04-07T12:41:48Z</time>
      </trkpt>
      <trkpt lat="59.8830146" lon="17.6717715">
        <ele>32.3416</ele>
        <time>2013-04-07T12:41:49Z</time>
      </trkpt>
      <trkpt lat="59.8829481" lon="17.6718391">
        <ele>32.3416</ele>
        <time>2013-04-07T12:41:50Z</time>
      </trkpt>
      <trkpt lat="59.8828797" lon="17.6719028">
        <ele>32.3416</ele>
        <time>2013-04-07T12:41:51Z</time>
      </trkpt>
      <trkpt lat="59.8828105" lon="17.6719642">
        <ele>32.3416</ele>
        <time>2013-04-07T12:41:52Z</time>
      </trkpt>
      <trkpt lat="59.8827411" lon="17.672025">
        <ele>32.3416</ele>
        <time>2013-04-07T12:41:53Z</time>
      </trkpt>
      <trkpt lat="59.8826717" lon="17.672085">
        <ele>32.3416</ele>
        <time>2013-04-07T12:41:54Z</time>
      </trkpt>
      <trkpt lat="59.8826018" lon="17.6721441">
        <ele>32.3416</ele>
        <time>2013-04-07T12:41:55Z</time>
      </trkpt>
      <trkpt lat="59.8825314" lon="17.6722021">
        <ele>32.3416</ele>
        <time>2013-04-07T12:41:56Z</time>
      </trkpt>
      <trkpt lat="59.8824614" lon="17.6722602">
        <ele>32.3416</ele>
        <time>2013-04-07T12:41:57Z</time>
      </trkpt>
      <trkpt lat="59.8823923" lon="17.6723176">
        <ele>32.3416</ele>
        <time>2013-04-07T12:41:58Z</time>
      </trkpt>
      <trkpt lat="59.8823225" lon="17.6723757">
        <ele>31.8607</ele>
        <time>2013-04-07T12:41:59Z</time>
      </trkpt>
      <trkpt lat="59.8822535" lon="17.6724336">
        <ele>31.8607</ele>
        <time>2013-04-07T12:42:00Z</time>
      </trkpt>
      <trkpt lat="59.8821853" lon="17.6724902">
        <ele>31.8607</ele>
        <time>2013-04-07T12:42:01Z</time>
      </trkpt>
      <trkpt lat="59.8821174" lon="17.6725455">
        <ele>31.8607</ele>
        <time>2013-04-07T12:42:02Z</time>
      </trkpt>
      <trkpt lat="59.8820494" lon="17.6726003">
        <ele>31.8607</ele>
        <time>2013-04-07T12:42:03Z</time>
      </trkpt>
      <trkpt lat="59.8819818" lon="17.6726548">
        <ele>31.8607</ele>
        <time>2013-04-07T12:42:04Z</time>
      </trkpt>
      <trkpt lat="59.8819183" lon="17.672703">
        <ele>31.8607</ele>
        <time>2013-04-07T12:42:05Z</time>
      </trkpt>
      <trkpt lat="59.8818567" lon="17.6727563">
        <ele>31.3801</ele>
        <time>2013-04-07T12:42:06Z</time>
      </trkpt>
      <trkpt lat="59.8817927" lon="17.6728132">
        <ele>31.3801</ele>
        <time>2013-04-07T12:42:07Z</time>
      </trkpt>
      <trkpt lat="59.881731" lon="17.6728623">
        <ele>30.4188</ele>
        <time>2013-04-07T12:42:08Z</time>
      </trkpt>
      <trkpt lat="59.8816688" lon="17.6729105">
        <ele>30.4188</ele>
        <time>2013-04-07T12:42:09Z</time>
      </trkpt>
      <trkpt lat="59.8816076" lon="17.6729584">
        <ele>29.9381</ele>
        <time>2013-04-07T12:42:10Z</time>
      </trkpt>
      <trkpt lat="59.8815458" lon="17.6730076">
        <ele>29.4575</ele>
        <time>2013-04-07T12:42:11Z</time>
      </trkpt>
      <trkpt lat="59.8814833" lon="17.673059">
        <ele>29.4575</ele>
        <time>2013-04-07T12:42:12Z</time>
      </trkpt>
      <trkpt lat="59.8814176" lon="17.6731144">
        <ele>28.9769</ele>
        <time>2013-04-07T12:42:13Z</time>
      </trkpt>
      <trkpt lat="59.8813524" lon="17.6731696">
        <ele>28.4962</ele>
        <time>2013-04-07T12:42:14Z</time>
      </trkpt>
      <trkpt lat="59.8812884" lon="17.6732251">
        <ele>28.0155</ele>
        <time>2013-04-07T12:42:15Z</time>
      </trkpt>
      <trkpt lat="59.8812216" lon="17.6732821">
        <ele>27.5349</ele>
        <time>2013-04-07T12:42:16Z</time>
      </trkpt>
      <trkpt lat="59.881156" lon="17.6733358">
        <ele>27.5349</ele>
        <time>2013-04-07T12:42:17Z</time>
      </trkpt>
      <trkpt lat="59.8810917" lon="17.6733899">
        <ele>27.0543</ele>
        <time>2013-04-07T12:42:18Z</time>
      </trkpt>
      <trkpt lat="59.8810284" lon="17.6734432">
        <ele>26.5736</ele>
        <time>2013-04-07T12:42:19Z</time>
      </trkpt>
      <trkpt lat="59.8809644" lon="17.673498">
        <ele>26.5736</ele>
        <time>2013-04-07T12:42:20Z</time>
      </trkpt>
      <trkpt lat="59.8809001" lon="17.6735551">
        <ele>26.0929</ele>
        <time>2013-04-07T12:42:21Z</time>
      </trkpt>
      <trkpt lat="59.8808354" lon="17.6736116">
        <ele>25.6123</ele>
        <time>2013-04-07T12:42:22Z</time>
      </trkpt>
      <trkpt lat="59.880771" lon="17.6736691">
        <ele>25.6123</ele>
        <time>2013-04-07T12:42:23Z</time>
      </trkpt>
      <trkpt lat="59.8807067" lon="17.673728">
        <ele>25.1317</ele>
        <time>2013-04-07T12:42:24Z</time>
      </trkpt>
      <trkpt lat="59.8806416" lon="17.6737896">
        <ele>25.1317</ele>
        <time>2013-04-07T12:42:25Z</time>
      </trkpt>
      <trkpt lat="59.8805775" lon="17.6738502">
        <ele>25.1317</ele>
        <time>2013-04-07T12:42:26Z</time>
      </trkpt>
      <trkpt lat="59.8805147" lon="17.6739093">
        <ele>25.1317</ele>
        <time>2013-04-07T12:42:27Z</time>
      </trkpt>
      <trkpt lat="59.880452" lon="17.6739711">
        <ele>24.651</ele>
        <time>2013-04-07T12:42:28Z</time>
      </trkpt>
      <trkpt lat="59.8803886" lon="17.6740326">
        <ele>24.651</ele>
        <time>2013-04-07T12:42:29Z</time>
      </trkpt>
      <trkpt lat="59.8803241" lon="17.6740942">
        <ele>24.651</ele>
        <time>2013-04-07T12:42:30Z</time>
      </trkpt>
      <trkpt lat="59.8802597" lon="17.6741571">
        <ele>24.1703</ele>
        <time>2013-04-07T12:42:31Z</time>
      </trkpt>
      <trkpt lat="59.8801955" lon="17.6742202">
        <ele>24.1703</ele>
        <time>2013-04-07T12:42:32Z</time>
      </trkpt>
      <trkpt lat="59.8801309" lon="17.6742829">
        <ele>24.1703</ele>
        <time>2013-04-07T12:42:33Z</time>
      </trkpt>
      <trkpt lat="59.8800665" lon="17.6743468">
        <ele>24.1703</ele>
        <time>2013-04-07T12:42:34Z</time>
      </trkpt>
      <trkpt lat="59.8800025" lon="17.6744113">
        <ele>24.1703</ele>
        <time>2013-04-07T12:42:35Z</time>
      </trkpt>
      <trkpt lat="59.8799405" lon="17.6744741">
        <ele>24.1703</ele>
        <time>2013-04-07T12:42:36Z</time>
      </trkpt>
      <trkpt lat="59.8798796" lon="17.6745373">
        <ele>23.6896</ele>
        <time>2013-04-07T12:42:37Z</time>
      </trkpt>
      <trkpt lat="59.8798175" lon="17.6746021">
        <ele>23.6896</ele>
        <time>2013-04-07T12:42:38Z</time>
      </trkpt>
      <trkpt lat="59.8797542" lon="17.6746673">
        <ele>23.6896</ele>
        <time>2013-04-07T12:42:39Z</time>
      </trkpt>
      <trkpt lat="59.8796896" lon="17.6747274">
        <ele>23.6896</ele>
        <time>2013-04-07T12:42:40Z</time>
      </trkpt>
      <trkpt lat="59.8796245" lon="17.6747863">
        <ele>23.6896</ele>
        <time>2013-04-07T12:42:41Z</time>
      </trkpt>
      <trkpt lat="59.879561" lon="17.674842">
        <ele>23.6896</ele>
        <time>2013-04-07T12:42:42Z</time>
      </trkpt>
      <trkpt lat="59.8795003" lon="17.6748994">
        <ele>23.6896</ele>
        <time>2013-04-07T12:42:43Z</time>
      </trkpt>
      <trkpt lat="59.879441" lon="17.6749622">
        <ele>23.6896</ele>
        <time>2013-04-07T12:42:44Z</time>
      </trkpt>
      <trkpt lat="59.8793818" lon="17.6750252">
        <ele>23.209</ele>
        <time>2013-04-07T12:42:45Z</time>
      </trkpt>
      <trkpt lat="59.8793198" lon="17.6750848">
        <ele>23.209</ele>
        <time>2013-04-07T12:42:46Z</time>
      </trkpt>
      <trkpt lat="59.8792542" lon="17.675132">
        <ele>22.7283</ele>
        <time>2013-04-07T12:42:47Z</time>
      </trkpt>
      <trkpt lat="59.8791875" lon="17.675147">
        <ele>22.7283</ele>
        <time>2013-04-07T12:42:48Z</time>
      </trkpt>
      <trkpt lat="59.8791234" lon="17.6751195">
        <ele>22.7283</ele>
        <time>2013-04-07T12:42:49Z</time>
      </trkpt>
      <trkpt lat="59.8790637" lon="17.6750582">
        <ele>22.2476</ele>
        <time>2013-04-07T12:42:50Z</time>
      </trkpt>
      <trkpt lat="59.8790119" lon="17.6749727">
        <ele>22.2476</ele>
        <time>2013-04-07T12:42:51Z</time>
      </trkpt>
      <trkpt lat="59.8789695" lon="17.674874">
        <ele>22.2476</ele>
        <time>2013-04-07T12:42:52Z</time>
      </trkpt>
      <trkpt lat="59.8789311" lon="17.6747782">
        <ele>22.2476</ele>
        <time>2013-04-07T12:42:53Z</time>
      </trkpt>
      <trkpt lat="59.8788824" lon="17.6747052">
        <ele>22.2476</ele>
        <time>2013-04-07T12:42:54Z</time>
      </trkpt>
      <trkpt lat="59.8788286" lon="17.6746539">
        <ele>21.767</ele>
        <time>2013-04-07T12:42:55Z</time>
      </trkpt>
      <trkpt lat="59.8787716" lon="17.6746274">
        <ele>22.2476</ele>
        <time>2013-04-07T12:42:56Z</time>
      </trkpt>
      <trkpt lat="59.8787129" lon="17.6746293">
        <ele>22.2476</ele>
        <time>2013-04-07T12:42:57Z</time>
      </trkpt>
      <trkpt lat="59.878655" lon="17.674651">
        <ele>21.767</ele>
        <time>2013-04-07T12:42:58Z</time>
      </trkpt>
      <trkpt lat="59.8785999" lon="17.6746795">
        <ele>22.2476</ele>
        <time>2013-04-07T12:42:59Z</time>
      </trkpt>
      <trkpt lat="59.8785456" lon="17.6747213">
        <ele>21.767</ele>
        <time>2013-04-07T12:43:00Z</time>
      </trkpt>
      <trkpt lat="59.8784965" lon="17.6747741">
        <ele>21.767</ele>
        <time>2013-04-07T12:43:01Z</time>
      </trkpt>
      <trkpt lat="59.8784552" lon="17.674838">
        <ele>22.2476</ele>
        <time>2013-04-07T12:43:02Z</time>
      </trkpt>
      <trkpt lat="59.8784085" lon="17.674905">
        <ele>22.2476</ele>
        <time>2013-04-07T12:43:03Z</time>
      </trkpt>
      <trkpt lat="59.8783551" lon="17.6749563">
        <ele>22.2476</ele>
        <time>2013-04-07T12:43:04Z</time>
      </trkpt>
      <trkpt lat="59.8783053" lon="17.6749963">
        <ele>22.2476</ele>
        <time>2013-04-07T12:43:05Z</time>
      </trkpt>
      <trkpt lat="59.8782557" lon="17.6750336">
        <ele>22.2476</ele>
        <time>2013-04-07T12:43:06Z</time>
      </trkpt>
      <trkpt lat="59.878204" lon="17.6750635">
        <ele>22.2476</ele>
        <time>2013-04-07T12:43:07Z</time>
      </trkpt>
      <trkpt lat="59.8781541" lon="17.6751036">
        <ele>22.2476</ele>
        <time>2013-04-07T12:43:08Z</time>
      </trkpt>
      <trkpt lat="59.8781064" lon="17.6751549">
        <ele>21.767</ele>
        <time>2013-04-07T12:43:09Z</time>
      </trkpt>
      <trkpt lat="59.8780615" lon="17.6751988">
        <ele>22.2476</ele>
        <time>2013-04-07T12:43:10Z</time>
      </trkpt>
      <trkpt lat="59.8780214" lon="17.6752414">
        <ele>22.7283</ele>
        <time>2013-04-07T12:43:11Z</time>
      </trkpt>
      <trkpt lat="59.8779785" lon="17.6752888">
        <ele>22.2476</ele>
        <time>2013-04-07T12:43:12Z</time>
      </trkpt>
      <trkpt lat="59.8779309" lon="17.6753391">
        <ele>22.7283</ele>
        <time>2013-04-07T12:43:13Z</time>
      </trkpt>
      <trkpt lat="59.8778866" lon="17.675374">
        <ele>23.6896</ele>
        <time>2013-04-07T12:43:14Z</time>
      </trkpt>
      <trkpt lat="59.8778443" lon="17.6753968">
        <ele>24.1703</ele>
        <time>2013-04-07T12:43:15Z</time>
      </trkpt>
      <trkpt lat="59.8778023" lon="17.67542">
        <ele>24.1703</ele>
        <time>2013-04-07T12:43:16Z</time>
      </trkpt>
      <trkpt lat="59.8777673" lon="17.6754068">
        <ele>24.1703</ele>
        <time>2013-04-07T12:43:17Z</time>
      </trkpt>
      <trkpt lat="59.8777667" lon="17.6754645">
        <ele>24.651</ele>
        <time>2013-04-07T12:43:18Z</time>
      </trkpt>
      <trkpt lat="59.8777972" lon="17.6755545">
        <ele>24.1703</ele>
        <time>2013-04-07T12:43:19Z</time>
      </trkpt>
      <trkpt lat="59.8777993" lon="17.6756386">
        <ele>24.1703</ele>
        <time>2013-04-07T12:43:20Z</time>
      </trkpt>
      <trkpt lat="59.8778173" lon="17.6757452">
        <ele>23.6896</ele>
        <time>2013-04-07T12:43:21Z</time>
      </trkpt>
      <trkpt lat="59.8778365" lon="17.6758623">
        <ele>22.7283</ele>
        <time>2013-04-07T12:43:22Z</time>
      </trkpt>
      <trkpt lat="59.8778594" lon="17.6759888">
        <ele>23.209</ele>
        <time>2013-04-07T12:43:23Z</time>
      </trkpt>
      <trkpt lat="59.8778906" lon="17.676126">
        <ele>22.7283</ele>
        <time>2013-04-07T12:43:24Z</time>
      </trkpt>
      <trkpt lat="59.8779225" lon="17.6762649">
        <ele>22.7283</ele>
        <time>2013-04-07T12:43:25Z</time>
      </trkpt>
      <trkpt lat="59.877955" lon="17.6764104">
        <ele>22.7283</ele>
        <time>2013-04-07T12:43:26Z</time>
      </trkpt>
      <trkpt lat="59.8779716" lon="17.6765965">
        <ele>21.767</ele>
        <time>2013-04-07T12:43:27Z</time>
      </trkpt>
      <trkpt lat="59.8779967" lon="17.6767171">
        <ele>21.2864</ele>
        <time>2013-04-07T12:43:28Z</time>
      </trkpt>
      <trkpt lat="59.8780302" lon="17.6769299">
        <ele>20.8057</ele>
        <time>2013-04-07T12:43:29Z</time>
      </trkpt>
      <trkpt lat="59.8780719" lon="17.6770494">
        <ele>20.8057</ele>
        <time>2013-04-07T12:43:30Z</time>
      </trkpt>
      <trkpt lat="59.8781157" lon="17.6771531">
        <ele>21.2864</ele>
        <time>2013-04-07T12:43:31Z</time>
      </trkpt>
      <trkpt lat="59.8781562" lon="17.6772241">
        <ele>21.767</ele>
        <time>2013-04-07T12:43:32Z</time>
      </trkpt>
      <trkpt lat="59.8781952" lon="17.6772882">
        <ele>22.2476</ele>
        <time>2013-04-07T12:43:33Z</time>
      </trkpt>
      <trkpt lat="59.8781976" lon="17.6773797">
        <ele>23.6896</ele>
        <time>2013-04-07T12:43:34Z</time>
      </trkpt>
      <trkpt lat="59.8782124" lon="17.6774434">
        <ele>24.1703</ele>
        <time>2013-04-07T12:43:35Z</time>
      </trkpt>
      <trkpt lat="59.8782195" lon="17.6775262">
        <ele>25.1317</ele>
        <time>2013-04-07T12:43:36Z</time>
      </trkpt>
      <trkpt lat="59.8782111" lon="17.6776053">
        <ele>25.6123</ele>
        <time>2013-04-07T12:43:37Z</time>
      </trkpt>
      <trkpt lat="59.8781886" lon="17.6776755">
        <ele>25.6123</ele>
        <time>2013-04-07T12:43:38Z</time>
      </trkpt>
      <trkpt lat="59.8781691" lon="17.6777468">
        <ele>25.6123</ele>
        <time>2013-04-07T12:43:39Z</time>
      </trkpt>
      <trkpt lat="59.8781586" lon="17.6778245">
        <ele>26.0929</ele>
        <time>2013-04-07T12:43:40Z</time>
      </trkpt>
      <trkpt lat="59.8781588" lon="17.6779018">
        <ele>26.5736</ele>
        <time>2013-04-07T12:43:41Z</time>
      </trkpt>
      <trkpt lat="59.8781686" lon="17.6779738">
        <ele>27.0543</ele>
        <time>2013-04-07T12:43:42Z</time>
      </trkpt>
      <trkpt lat="59.8781821" lon="17.6780401">
        <ele>27.0543</ele>
        <time>2013-04-07T12:43:43Z</time>
      </trkpt>
      <trkpt lat="59.8781904" lon="17.6781068">
        <ele>27.0543</ele>
        <time>2013-04-07T12:43:44Z</time>
      </trkpt>
      <trkpt lat="59.8781862" lon="17.6781753">
        <ele>27.0543</ele>
        <time>2013-04-07T12:43:45Z</time>
      </trkpt>
      <trkpt lat="59.8781685" lon="17.6782447">
        <ele>27.5349</ele>
        <time>2013-04-07T12:43:46Z</time>
      </trkpt>
      <trkpt lat="59.8781447" lon="17.6783116">
        <ele>27.5349</ele>
        <time>2013-04-07T12:43:47Z</time>
      </trkpt>
      <trkpt lat="59.8781185" lon="17.6783776">
        <ele>27.5349</ele>
        <time>2013-04-07T12:43:48Z</time>
      </trkpt>
      <trkpt lat="59.8780918" lon="17.6784431">
        <ele>28.0155</ele>
        <time>2013-04-07T12:43:49Z</time>
      </trkpt>
      <trkpt lat="59.8780612" lon="17.6785074">
        <ele>28.0155</ele>
        <time>2013-04-07T12:43:50Z</time>
      </trkpt>
      <trkpt lat="59.8780287" lon="17.678572">
        <ele>28.0155</ele>
        <time>2013-04-07T12:43:51Z</time>
      </trkpt>
      <trkpt lat="59.8779949" lon="17.6786379">
        <ele>28.0155</ele>
        <time>2013-04-07T12:43:52Z</time>
      </trkpt>
      <trkpt lat="59.8779612" lon="17.6787048">
        <ele>28.4962</ele>
        <time>2013-04-07T12:43:53Z</time>
      </trkpt>
      <trkpt lat="59.8779267" lon="17.6787692">
        <ele>28.9769</ele>
        <time>2013-04-07T12:43:54Z</time>
      </trkpt>
      <trkpt lat="59.8778908" lon="17.6788286">
        <ele>28.9769</ele>
        <time>2013-04-07T12:43:55Z</time>
      </trkpt>
      <trkpt lat="59.8778529" lon="17.6788847">
        <ele>28.9769</ele>
        <time>2013-04-07T12:43:56Z</time>
      </trkpt>
      <trkpt lat="59.8778128" lon="17.6789376">
        <ele>28.4962</ele>
        <time>2013-04-07T12:43:57Z</time>
      </trkpt>
      <trkpt lat="59.8777721" lon="17.6789891">
        <ele>28.4962</ele>
        <time>2013-04-07T12:43:58Z</time>
      </trkpt>
      <trkpt lat="59.8777319" lon="17.6790448">
        <ele>28.4962</ele>
        <time>2013-04-07T12:43:59Z</time>
      </trkpt>
      <trkpt lat="59.8776909" lon="17.679103">
        <ele>28.4962</ele>
        <time>2013-04-07T12:44:00Z</time>
      </trkpt>
      <trkpt lat="59.877651" lon="17.6791626">
        <ele>28.4962</ele>
        <time>2013-04-07T12:44:01Z</time>
      </trkpt>
      <trkpt lat="59.8776141" lon="17.6792262">
        <ele>28.4962</ele>
        <time>2013-04-07T12:44:02Z</time>
      </trkpt>
      <trkpt lat="59.8775811" lon="17.6792937">
        <ele>28.4962</ele>
        <time>2013-04-07T12:44:03Z</time>
      </trkpt>
      <trkpt lat="59.8775516" lon="17.6793624">
        <ele>28.4962</ele>
        <time>2013-04-07T12:44:04Z</time>
      </trkpt>
      <trkpt lat="59.8775232" lon="17.6794288">
        <ele>28.4962</ele>
        <time>2013-04-07T12:44:05Z</time>
      </trkpt>
      <trkpt lat="59.8774931" lon="17.6794895">
        <ele>28.4962</ele>
        <time>2013-04-07T12:44:06Z</time>
      </trkpt>
      <trkpt lat="59.8774613" lon="17.6795454">
        <ele>28.4962</ele>
        <time>2013-04-07T12:44:07Z</time>
      </trkpt>
      <trkpt lat="59.877428" lon="17.679596">
        <ele>28.4962</ele>
        <time>2013-04-07T12:44:08Z</time>
      </trkpt>
      <trkpt lat="59.8773928" lon="17.6796395">
        <ele>28.4962</ele>
        <time>2013-04-07T12:44:09Z</time>
      </trkpt>
      <trkpt lat="59.8773579" lon="17.6796805">
        <ele>28.9769</ele>
        <time>2013-04-07T12:44:10Z</time>
      </trkpt>
      <trkpt lat="59.8773259" lon="17.6797262">
        <ele>28.9769</ele>
        <time>2013-04-07T12:44:11Z</time>
      </trkpt>
      <trkpt lat="59.8772977" lon="17.6797785">
        <ele>28.9769</ele>
        <time>2013-04-07T12:44:12Z</time>
      </trkpt>
      <trkpt lat="59.8772752" lon="17.6798432">
        <ele>29.4575</ele>
        <time>2013-04-07T12:44:13Z</time>
      </trkpt>
      <trkpt lat="59.8772609" lon="17.6799218">
        <ele>29.9381</ele>
        <time>2013-04-07T12:44:14Z</time>
      </trkpt>
      <trkpt lat="59.8772517" lon="17.6800095">
        <ele>29.9381</ele>
        <time>2013-04-07T12:44:15Z</time>
      </trkpt>
      <trkpt lat="59.8772429" lon="17.6801024">
        <ele>30.4188</ele>
        <time>2013-04-07T12:44:16Z</time>
      </trkpt>
      <trkpt lat="59.8772319" lon="17.6801963">
        <ele>30.4188</ele>
        <time>2013-04-07T12:44:17Z</time>
      </trkpt>
      <trkpt lat="59.8772181" lon="17.6802851">
        <ele>30.8995</ele>
        <time>2013-04-07T12:44:18Z</time>
      </trkpt>
      <trkpt lat="59.8771988" lon="17.6803663">
        <ele>30.8995</ele>
        <time>2013-04-07T12:44:19Z</time>
      </trkpt>
      <trkpt lat="59.8771708" lon="17.6804455">
        <ele>31.3801</ele>
        <time>2013-04-07T12:44:20Z</time>
      </trkpt>
      <trkpt lat="59.8771371" lon="17.6805239">
        <ele>31.3801</ele>
        <time>2013-04-07T12:44:21Z</time>
      </trkpt>
      <trkpt lat="59.8771013" lon="17.680602">
        <ele>31.3801</ele>
        <time>2013-04-07T12:44:22Z</time>
      </trkpt>
      <trkpt lat="59.8770642" lon="17.6806808">
        <ele>31.3801</ele>
        <time>2013-04-07T12:44:23Z</time>
      </trkpt>
      <trkpt lat="59.877027" lon="17.6807628">
        <ele>31.8607</ele>
        <time>2013-04-07T12:44:24Z</time>
      </trkpt>
      <trkpt lat="59.8769891" lon="17.6808481">
        <ele>31.8607</ele>
        <time>2013-04-07T12:44:25Z</time>
      </trkpt>
      <trkpt lat="59.8769492" lon="17.6809356">
        <ele>32.3416</ele>
        <time>2013-04-07T12:44:26Z</time>
      </trkpt>
      <trkpt lat="59.8769078" lon="17.6810254">
        <ele>32.3416</ele>
        <time>2013-04-07T12:44:27Z</time>
      </trkpt>
      <trkpt lat="59.8768661" lon="17.6811191">
        <ele>32.3416</ele>
        <time>2013-04-07T12:44:28Z</time>
      </trkpt>
      <trkpt lat="59.8768237" lon="17.6812153">
        <ele>32.3416</ele>
        <time>2013-04-07T12:44:29Z</time>
      </trkpt>
      <trkpt lat="59.8767803" lon="17.6813128">
        <ele>32.8223</ele>
        <time>2013-04-07T12:44:30Z</time>
      </trkpt>
      <trkpt lat="59.8767359" lon="17.6814112">
        <ele>32.8223</ele>
        <time>2013-04-07T12:44:31Z</time>
      </trkpt>
      <trkpt lat="59.8766906" lon="17.6815107">
        <ele>32.8223</ele>
        <time>2013-04-07T12:44:32Z</time>
      </trkpt>
      <trkpt lat="59.8766439" lon="17.6816108">
        <ele>32.8223</ele>
        <time>2013-04-07T12:44:33Z</time>
      </trkpt>
      <trkpt lat="59.876597" lon="17.6817102">
        <ele>32.8223</ele>
        <time>2013-04-07T12:44:34Z</time>
      </trkpt>
      <trkpt lat="59.8765498" lon="17.6818107">
        <ele>33.3029</ele>
        <time>2013-04-07T12:44:35Z</time>
      </trkpt>
      <trkpt lat="59.8765031" lon="17.6819131">
        <ele>33.3029</ele>
        <time>2013-04-07T12:44:36Z</time>
      </trkpt>
      <trkpt lat="59.8764561" lon="17.6820166">
        <ele>33.3029</ele>
        <time>2013-04-07T12:44:37Z</time>
      </trkpt>
      <trkpt lat="59.8764079" lon="17.6821221">
        <ele>33.3029</ele>
        <time>2013-04-07T12:44:38Z</time>
      </trkpt>
      <trkpt lat="59.8763592" lon="17.6822285">
        <ele>33.3029</ele>
        <time>2013-04-07T12:44:39Z</time>
      </trkpt>
      <trkpt lat="59.8763091" lon="17.6823367">
        <ele>33.3029</ele>
        <time>2013-04-07T12:44:40Z</time>
      </trkpt>
      <trkpt lat="59.8762585" lon="17.6824476">
        <ele>33.3029</ele>
        <time>2013-04-07T12:44:41Z</time>
      </trkpt>
      <trkpt lat="59.8762062" lon="17.6825621">
        <ele>33.3029</ele>
        <time>2013-04-07T12:44:42Z</time>
      </trkpt>
      <trkpt lat="59.8761525" lon="17.6826773">
        <ele>33.3029</ele>
        <time>2013-04-07T12:44:43Z</time>
      </trkpt>
      <trkpt lat="59.8760977" lon="17.6827916">
        <ele>33.3029</ele>
        <time>2013-04-07T12:44:44Z</time>
      </trkpt>
      <trkpt lat="59.8760436" lon="17.6829078">
        <ele>33.3029</ele>
        <time>2013-04-07T12:44:45Z</time>
      </trkpt>
      <trkpt lat="59.8759893" lon="17.6830281">
        <ele>32.8223</ele>
        <time>2013-04-07T12:44:46Z</time>
      </trkpt>
      <trkpt lat="59.8759334" lon="17.6831482">
        <ele>32.8223</ele>
        <time>2013-04-07T12:44:47Z</time>
      </trkpt>
      <trkpt lat="59.8758744" lon="17.6832676">
        <ele>32.3416</ele>
        <time>2013-04-07T12:44:48Z</time>
      </trkpt>
      <trkpt lat="59.8758153" lon="17.6833893">
        <ele>32.3416</ele>
        <time>2013-04-07T12:44:49Z</time>
      </trkpt>
      <trkpt lat="59.8757567" lon="17.6835149">
        <ele>31.8607</ele>
        <time>2013-04-07T12:44:50Z</time>
      </trkpt>
      <trkpt lat="59.8756978" lon="17.6836429">
        <ele>31.3801</ele>
        <time>2013-04-07T12:44:51Z</time>
      </trkpt>
      <trkpt lat="59.8756234" lon="17.6837739">
        <ele>31.3801</ele>
        <time>2013-04-07T12:44:52Z</time>
      </trkpt>
      <trkpt lat="59.8755571" lon="17.6839086">
        <ele>30.8995</ele>
        <time>2013-04-07T12:44:53Z</time>
      </trkpt>
      <trkpt lat="59.8754916" lon="17.6840447">
        <ele>30.4188</ele>
        <time>2013-04-07T12:44:54Z</time>
      </trkpt>
      <trkpt lat="59.8754266" lon="17.6841798">
        <ele>30.4188</ele>
        <time>2013-04-07T12:44:55Z</time>
      </trkpt>
      <trkpt lat="59.8753619" lon="17.6843172">
        <ele>29.9381</ele>
        <time>2013-04-07T12:44:56Z</time>
      </trkpt>
      <trkpt lat="59.8752966" lon="17.6844581">
        <ele>29.4575</ele>
        <time>2013-04-07T12:44:57Z</time>
      </trkpt>
      <trkpt lat="59.8752305" lon="17.6846005">
        <ele>29.4575</ele>
        <time>2013-04-07T12:44:58Z</time>
      </trkpt>
      <trkpt lat="59.8751642" lon="17.6847457">
        <ele>28.9769</ele>
        <time>2013-04-07T12:44:59Z</time>
      </trkpt>
      <trkpt lat="59.8750974" lon="17.6848942">
        <ele>28.9769</ele>
        <time>2013-04-07T12:45:00Z</time>
      </trkpt>
      <trkpt lat="59.8750303" lon="17.6850477">
        <ele>28.4962</ele>
        <time>2013-04-07T12:45:01Z</time>
      </trkpt>
      <trkpt lat="59.8749632" lon="17.6851995">
        <ele>28.4962</ele>
        <time>2013-04-07T12:45:02Z</time>
      </trkpt>
      <trkpt lat="59.8748943" lon="17.6853488">
        <ele>28.0155</ele>
        <time>2013-04-07T12:45:03Z</time>
      </trkpt>
      <trkpt lat="59.8748241" lon="17.6854963">
        <ele>28.0155</ele>
        <time>2013-04-07T12:45:04Z</time>
      </trkpt>
      <trkpt lat="59.8747534" lon="17.685645">
        <ele>28.0155</ele>
        <time>2013-04-07T12:45:05Z</time>
      </trkpt>
      <trkpt lat="59.8746829" lon="17.6857942">
        <ele>27.5349</ele>
        <time>2013-04-07T12:45:06Z</time>
      </trkpt>
      <trkpt lat="59.8746123" lon="17.6859426">
        <ele>27.5349</ele>
        <time>2013-04-07T12:45:07Z</time>
      </trkpt>
      <trkpt lat="59.8745424" lon="17.6860904">
        <ele>27.5349</ele>
        <time>2013-04-07T12:45:08Z</time>
      </trkpt>
      <trkpt lat="59.8744731" lon="17.686237">
        <ele>27.0543</ele>
        <time>2013-04-07T12:45:09Z</time>
      </trkpt>
      <trkpt lat="59.8744057" lon="17.6863815">
        <ele>27.0543</ele>
        <time>2013-04-07T12:45:10Z</time>
      </trkpt>
      <trkpt lat="59.8743409" lon="17.6865235">
        <ele>27.0543</ele>
        <time>2013-04-07T12:45:11Z</time>
      </trkpt>
      <trkpt lat="59.8742783" lon="17.6866613">
        <ele>27.0543</ele>
        <time>2013-04-07T12:45:12Z</time>
      </trkpt>
      <trkpt lat="59.8742193" lon="17.6867928">
        <ele>26.5736</ele>
        <time>2013-04-07T12:45:13Z</time>
      </trkpt>
      <trkpt lat="59.8741634" lon="17.6869178">
        <ele>26.5736</ele>
        <time>2013-04-07T12:45:14Z</time>
      </trkpt>
      <trkpt lat="59.8741099" lon="17.6870362">
        <ele>26.5736</ele>
        <time>2013-04-07T12:45:15Z</time>
      </trkpt>
      <trkpt lat="59.8740566" lon="17.6871477">
        <ele>26.5736</ele>
        <time>2013-04-07T12:45:16Z</time>
      </trkpt>
      <trkpt lat="59.8740011" lon="17.6872492">
        <ele>26.0929</ele>
        <time>2013-04-07T12:45:17Z</time>
      </trkpt>
      <trkpt lat="59.8739475" lon="17.6873451">
        <ele>26.0929</ele>
        <time>2013-04-07T12:45:18Z</time>
      </trkpt>
      <trkpt lat="59.8739043" lon="17.6874516">
        <ele>26.0929</ele>
        <time>2013-04-07T12:45:19Z</time>
      </trkpt>
      <trkpt lat="59.8738762" lon="17.6875736">
        <ele>26.0929</ele>
        <time>2013-04-07T12:45:20Z</time>
      </trkpt>
      <trkpt lat="59.873866" lon="17.6877029">
        <ele>25.6123</ele>
        <time>2013-04-07T12:45:21Z</time>
      </trkpt>
      <trkpt lat="59.8738707" lon="17.6878361">
        <ele>25.6123</ele>
        <time>2013-04-07T12:45:22Z</time>
      </trkpt>
      <trkpt lat="59.8738893" lon="17.6879698">
        <ele>25.6123</ele>
        <time>2013-04-07T12:45:23Z</time>
      </trkpt>
      <trkpt lat="59.8739188" lon="17.6881001">
        <ele>25.6123</ele>
        <time>2013-04-07T12:45:24Z</time>
      </trkpt>
      <trkpt lat="59.873956" lon="17.6882287">
        <ele>25.1317</ele>
        <time>2013-04-07T12:45:25Z</time>
      </trkpt>
      <trkpt lat="59.8739966" lon="17.6883573">
        <ele>25.1317</ele>
        <time>2013-04-07T12:45:26Z</time>
      </trkpt>
      <trkpt lat="59.8740354" lon="17.68849">
        <ele>24.651</ele>
        <time>2013-04-07T12:45:27Z</time>
      </trkpt>
      <trkpt lat="59.8740732" lon="17.6886269">
        <ele>24.651</ele>
        <time>2013-04-07T12:45:28Z</time>
      </trkpt>
      <trkpt lat="59.8741111" lon="17.6887663">
        <ele>24.651</ele>
        <time>2013-04-07T12:45:29Z</time>
      </trkpt>
      <trkpt lat="59.8741476" lon="17.6889095">
        <ele>25.1317</ele>
        <time>2013-04-07T12:45:30Z</time>
      </trkpt>
      <trkpt lat="59.8741839" lon="17.689052">
        <ele>25.1317</ele>
        <time>2013-04-07T12:45:31Z</time>
      </trkpt>
      <trkpt lat="59.8742214" lon="17.6891936">
        <ele>25.1317</ele>
        <time>2013-04-07T12:45:32Z</time>
      </trkpt>
      <trkpt lat="59.8742581" lon="17.6893337">
        <ele>25.1317</ele>
        <time>2013-04-07T12:45:33Z</time>
      </trkpt>
      <trkpt lat="59.874296" lon="17.689473">
        <ele>24.651</ele>
        <time>2013-04-07T12:45:34Z</time>
      </trkpt>
      <trkpt lat="59.8743357" lon="17.689613">
        <ele>24.1703</ele>
        <time>2013-04-07T12:45:35Z</time>
      </trkpt>
      <trkpt lat="59.8743715" lon="17.6897521">
        <ele>24.1703</ele>
        <time>2013-04-07T12:45:36Z</time>
      </trkpt>
      <trkpt lat="59.874408" lon="17.6898885">
        <ele>23.6896</ele>
        <time>2013-04-07T12:45:37Z</time>
      </trkpt>
      <trkpt lat="59.8744461" lon="17.6900266">
        <ele>23.6896</ele>
        <time>2013-04-07T12:45:38Z</time>
      </trkpt>
      <trkpt lat="59.8744856" lon="17.6901655">
        <ele>23.6896</ele>
        <time>2013-04-07T12:45:39Z</time>
      </trkpt>
      <trkpt lat="59.8745271" lon="17.6903027">
        <ele>23.6896</ele>
        <time>2013-04-07T12:45:40Z</time>
      </trkpt>
      <trkpt lat="59.87457" lon="17.6904386">
        <ele>23.6896</ele>
        <time>2013-04-07T12:45:41Z</time>
      </trkpt>
      <trkpt lat="59.8746134" lon="17.6905734">
        <ele>23.6896</ele>
        <time>2013-04-07T12:45:42Z</time>
      </trkpt>
      <trkpt lat="59.8746601" lon="17.6907065">
        <ele>23.209</ele>
        <time>2013-04-07T12:45:43Z</time>
      </trkpt>
      <trkpt lat="59.8747074" lon="17.6908359">
        <ele>23.6896</ele>
        <time>2013-04-07T12:45:44Z</time>
      </trkpt>
      <trkpt lat="59.8747569" lon="17.6909591">
        <ele>23.6896</ele>
        <time>2013-04-07T12:45:45Z</time>
      </trkpt>
      <trkpt lat="59.8748055" lon="17.6910814">
        <ele>23.6896</ele>
        <time>2013-04-07T12:45:46Z</time>
      </trkpt>
      <trkpt lat="59.8748553" lon="17.6911986">
        <ele>23.6896</ele>
        <time>2013-04-07T12:45:47Z</time>
      </trkpt>
      <trkpt lat="59.8749057" lon="17.6913134">
        <ele>23.6896</ele>
        <time>2013-04-07T12:45:48Z</time>
      </trkpt>
      <trkpt lat="59.8749531" lon="17.6914296">
        <ele>23.6896</ele>
        <time>2013-04-07T12:45:49Z</time>
      </trkpt>
      <trkpt lat="59.8750003" lon="17.691541">
        <ele>23.6896</ele>
        <time>2013-04-07T12:45:50Z</time>
      </trkpt>
      <trkpt lat="59.875048" lon="17.6916491">
        <ele>23.209</ele>
        <time>2013-04-07T12:45:51Z</time>
      </trkpt>
      <trkpt lat="59.8750956" lon="17.6917585">
        <ele>23.209</ele>
        <time>2013-04-07T12:45:52Z</time>
      </trkpt>
      <trkpt lat="59.8751422" lon="17.6918688">
        <ele>23.209</ele>
        <time>2013-04-07T12:45:53Z</time>
      </trkpt>
      <trkpt lat="59.8751889" lon="17.691979">
        <ele>23.209</ele>
        <time>2013-04-07T12:45:54Z</time>
      </trkpt>
      <trkpt lat="59.8752363" lon="17.6920895">
        <ele>22.7283</ele>
        <time>2013-04-07T12:45:55Z</time>
      </trkpt>
      <trkpt lat="59.8752847" lon="17.6921988">
        <ele>22.7283</ele>
        <time>2013-04-07T12:45:56Z</time>
      </trkpt>
      <trkpt lat="59.8753335" lon="17.6923074">
        <ele>22.2476</ele>
        <time>2013-04-07T12:45:57Z</time>
      </trkpt>
      <trkpt lat="59.8753813" lon="17.6924174">
        <ele>22.2476</ele>
        <time>2013-04-07T12:45:58Z</time>
      </trkpt>
      <trkpt lat="59.8754282" lon="17.6925298">
        <ele>21.767</ele>
        <time>2013-04-07T12:45:59Z</time>
      </trkpt>
      <trkpt lat="59.8754753" lon="17.6926421">
        <ele>21.767</ele>
        <time>2013-04-07T12:46:00Z</time>
      </trkpt>
      <trkpt lat="59.8755226" lon="17.6927526">
        <ele>21.2864</ele>
        <time>2013-04-07T12:46:01Z</time>
      </trkpt>
      <trkpt lat="59.8755694" lon="17.692863">
        <ele>20.8057</ele>
        <time>2013-04-07T12:46:02Z</time>
      </trkpt>
      <trkpt lat="59.8756164" lon="17.6929748">
        <ele>20.8057</ele>
        <time>2013-04-07T12:46:03Z</time>
      </trkpt>
      <trkpt lat="59.875664" lon="17.6930878">
        <ele>20.325</ele>
        <time>2013-04-07T12:46:04Z</time>
      </trkpt>
      <trkpt lat="59.8757131" lon="17.6932027">
        <ele>19.8444</ele>
        <time>2013-04-07T12:46:05Z</time>
      </trkpt>
      <trkpt lat="59.8757631" lon="17.6933217">
        <ele>19.3638</ele>
        <time>2013-04-07T12:46:06Z</time>
      </trkpt>
      <trkpt lat="59.8758142" lon="17.6934465">
        <ele>18.8831</ele>
        <time>2013-04-07T12:46:07Z</time>
      </trkpt>
      <trkpt lat="59.8758662" lon="17.6935767">
        <ele>18.4023</ele>
        <time>2013-04-07T12:46:08Z</time>
      </trkpt>
      <trkpt lat="59.8759193" lon="17.6937115">
        <ele>17.9218</ele>
        <time>2013-04-07T12:46:09Z</time>
      </trkpt>
      <trkpt lat="59.8759731" lon="17.6938482">
        <ele>17.4412</ele>
        <time>2013-04-07T12:46:10Z</time>
      </trkpt>
      <trkpt lat="59.8760291" lon="17.6939896">
        <ele>16.9604</ele>
        <time>2013-04-07T12:46:11Z</time>
      </trkpt>
      <trkpt lat="59.8760848" lon="17.6941355">
        <ele>16.4797</ele>
        <time>2013-04-07T12:46:12Z</time>
      </trkpt>
      <trkpt lat="59.8761404" lon="17.694286">
        <ele>15.999</ele>
        <time>2013-04-07T12:46:13Z</time>
      </trkpt>
      <trkpt lat="59.876196" lon="17.6944397">
        <ele>15.5184</ele>
        <time>2013-04-07T12:46:14Z</time>
      </trkpt>
      <trkpt lat="59.8762523" lon="17.6945968">
        <ele>15.0377</ele>
        <time>2013-04-07T12:46:15Z</time>
      </trkpt>
      <trkpt lat="59.8763088" lon="17.6947579">
        <ele>14.557</ele>
        <time>2013-04-07T12:46:16Z</time>
      </trkpt>
      <trkpt lat="59.8763649" lon="17.6949211">
        <ele>14.0764</ele>
        <time>2013-04-07T12:46:17Z</time>
      </trkpt>
      <trkpt lat="59.8764227" lon="17.6950826">
        <ele>13.5958</ele>
        <time>2013-04-07T12:46:18Z</time>
      </trkpt>
      <trkpt lat="59.8764808" lon="17.6952395">
        <ele>13.5958</ele>
        <time>2013-04-07T12:46:19Z</time>
      </trkpt>
      <trkpt lat="59.87654" lon="17.6953978">
        <ele>13.1151</ele>
        <time>2013-04-07T12:46:20Z</time>
      </trkpt>
      <trkpt lat="59.8765919" lon="17.6955607">
        <ele>13.1151</ele>
        <time>2013-04-07T12:46:21Z</time>
      </trkpt>
      <trkpt lat="59.8766411" lon="17.6957233">
        <ele>13.5958</ele>
        <time>2013-04-07T12:46:22Z</time>
      </trkpt>
      <trkpt lat="59.876687" lon="17.6958798">
        <ele>13.1151</ele>
        <time>2013-04-07T12:46:23Z</time>
      </trkpt>
      <trkpt lat="59.8767306" lon="17.6960332">
        <ele>13.1151</ele>
        <time>2013-04-07T12:46:24Z</time>
      </trkpt>
      <trkpt lat="59.8767762" lon="17.6961859">
        <ele>12.6344</ele>
        <time>2013-04-07T12:46:25Z</time>
      </trkpt>
      <trkpt lat="59.8768223" lon="17.6963336">
        <ele>12.1538</ele>
        <time>2013-04-07T12:46:26Z</time>
      </trkpt>
      <trkpt lat="59.8768685" lon="17.6964746">
        <ele>11.6732</ele>
        <time>2013-04-07T12:46:27Z</time>
      </trkpt>
      <trkpt lat="59.8769068" lon="17.6966123">
        <ele>11.6732</ele>
        <time>2013-04-07T12:46:28Z</time>
      </trkpt>
      <trkpt lat="59.876941" lon="17.6967432">
        <ele>12.1538</ele>
        <time>2013-04-07T12:46:29Z</time>
      </trkpt>
      <trkpt lat="59.8769736" lon="17.696867">
        <ele>12.6344</ele>
        <time>2013-04-07T12:46:30Z</time>
      </trkpt>
      <trkpt lat="59.8770029" lon="17.6969835">
        <ele>12.6344</ele>
        <time>2013-04-07T12:46:31Z</time>
      </trkpt>
      <trkpt lat="59.8770306" lon="17.6970948">
        <ele>13.1151</ele>
        <time>2013-04-07T12:46:32Z</time>
      </trkpt>
      <trkpt lat="59.8770569" lon="17.6972011">
        <ele>13.1151</ele>
        <time>2013-04-07T12:46:33Z</time>
      </trkpt>
      <trkpt lat="59.877082" lon="17.6973043">
        <ele>13.5958</ele>
        <time>2013-04-07T12:46:34Z</time>
      </trkpt>
      <trkpt lat="59.8771073" lon="17.6974054">
        <ele>14.0764</ele>
        <time>2013-04-07T12:46:35Z</time>
      </trkpt>
      <trkpt lat="59.8771312" lon="17.6975059">
        <ele>14.557</ele>
        <time>2013-04-07T12:46:36Z</time>
      </trkpt>
      <trkpt lat="59.8771547" lon="17.6976039">
        <ele>15.0377</ele>
        <time>2013-04-07T12:46:37Z</time>
      </trkpt>
      <trkpt lat="59.8771787" lon="17.6976997">
        <ele>15.5184</ele>
        <time>2013-04-07T12:46:38Z</time>
      </trkpt>
      <trkpt lat="59.8772026" lon="17.6977954">
        <ele>15.5184</ele>
        <time>2013-04-07T12:46:39Z</time>
      </trkpt>
      <trkpt lat="59.877226" lon="17.6978941">
        <ele>15.999</ele>
        <time>2013-04-07T12:46:40Z</time>
      </trkpt>
      <trkpt lat="59.8772484" lon="17.6979932">
        <ele>16.4797</ele>
        <time>2013-04-07T12:46:41Z</time>
      </trkpt>
      <trkpt lat="59.8772708" lon="17.6980913">
        <ele>16.4797</ele>
        <time>2013-04-07T12:46:42Z</time>
      </trkpt>
      <trkpt lat="59.8772942" lon="17.6981886">
        <ele>16.9604</ele>
        <time>2013-04-07T12:46:43Z</time>
      </trkpt>
      <trkpt lat="59.877319" lon="17.6982844">
        <ele>16.9604</ele>
        <time>2013-04-07T12:46:44Z</time>
      </trkpt>
      <trkpt lat="59.8773458" lon="17.6983803">
        <ele>16.9604</ele>
        <time>2013-04-07T12:46:45Z</time>
      </trkpt>
      <trkpt lat="59.8773719" lon="17.6984761">
        <ele>16.9604</ele>
        <time>2013-04-07T12:46:46Z</time>
      </trkpt>
      <trkpt lat="59.8773971" lon="17.6985712">
        <ele>16.9604</ele>
        <time>2013-04-07T12:46:47Z</time>
      </trkpt>
      <trkpt lat="59.8774222" lon="17.6986678">
        <ele>16.9604</ele>
        <time>2013-04-07T12:46:48Z</time>
      </trkpt>
      <trkpt lat="59.8774479" lon="17.6987661">
        <ele>16.9604</ele>
        <time>2013-04-07T12:46:49Z</time>
      </trkpt>
      <trkpt lat="59.8774748" lon="17.6988655">
        <ele>16.9604</ele>
        <time>2013-04-07T12:46:50Z</time>
      </trkpt>
      <trkpt lat="59.8775028" lon="17.698967">
        <ele>16.9604</ele>
        <time>2013-04-07T12:46:51Z</time>
      </trkpt>
      <trkpt lat="59.8775316" lon="17.6990698">
        <ele>16.9604</ele>
        <time>2013-04-07T12:46:52Z</time>
      </trkpt>
      <trkpt lat="59.8775618" lon="17.6991744">
        <ele>16.9604</ele>
        <time>2013-04-07T12:46:53Z</time>
      </trkpt>
      <trkpt lat="59.877593" lon="17.6992812">
        <ele>16.9604</ele>
        <time>2013-04-07T12:46:54Z</time>
      </trkpt>
      <trkpt lat="59.8776255" lon="17.6993894">
        <ele>16.9604</ele>
        <time>2013-04-07T12:46:55Z</time>
      </trkpt>
      <trkpt lat="59.8776594" lon="17.6994998">
        <ele>16.9604</ele>
        <time>2013-04-07T12:46:56Z</time>
      </trkpt>
      <trkpt lat="59.8776934" lon="17.6996093">
        <ele>17.4412</ele>
        <time>2013-04-07T12:46:57Z</time>
      </trkpt>
      <trkpt lat="59.8777273" lon="17.6997172">
        <ele>17.4412</ele>
        <time>2013-04-07T12:46:58Z</time>
      </trkpt>
      <trkpt lat="59.8777616" lon="17.6998265">
        <ele>17.4412</ele>
        <time>2013-04-07T12:46:59Z</time>
      </trkpt>
      <trkpt lat="59.8777951" lon="17.6999362">
        <ele>17.9218</ele>
        <time>2013-04-07T12:47:00Z</time>
      </trkpt>
      <trkpt lat="59.8778293" lon="17.7000467">
        <ele>17.9218</ele>
        <time>2013-04-07T12:47:01Z</time>
      </trkpt>
      <trkpt lat="59.8778651" lon="17.700157">
        <ele>17.9218</ele>
        <time>2013-04-07T12:47:02Z</time>
      </trkpt>
      <trkpt lat="59.8779018" lon="17.7002673">
        <ele>17.9218</ele>
        <time>2013-04-07T12:47:03Z</time>
      </trkpt>
      <trkpt lat="59.8779391" lon="17.7003777">
        <ele>17.9218</ele>
        <time>2013-04-07T12:47:04Z</time>
      </trkpt>
      <trkpt lat="59.8779766" lon="17.700488">
        <ele>17.9218</ele>
        <time>2013-04-07T12:47:05Z</time>
      </trkpt>
      <trkpt lat="59.8780148" lon="17.7005979">
        <ele>17.9218</ele>
        <time>2013-04-07T12:47:06Z</time>
      </trkpt>
      <trkpt lat="59.8780563" lon="17.7007082">
        <ele>17.9218</ele>
        <time>2013-04-07T12:47:07Z</time>
      </trkpt>
      <trkpt lat="59.8780987" lon="17.7008175">
        <ele>17.4412</ele>
        <time>2013-04-07T12:47:08Z</time>
      </trkpt>
      <trkpt lat="59.8781421" lon="17.7009271">
        <ele>17.4412</ele>
        <time>2013-04-07T12:47:09Z</time>
      </trkpt>
      <trkpt lat="59.8781857" lon="17.7010386">
        <ele>17.9218</ele>
        <time>2013-04-07T12:47:10Z</time>
      </trkpt>
      <trkpt lat="59.8782297" lon="17.7011519">
        <ele>17.4412</ele>
        <time>2013-04-07T12:47:11Z</time>
      </trkpt>
      <trkpt lat="59.8782752" lon="17.701266">
        <ele>17.4412</ele>
        <time>2013-04-07T12:47:12Z</time>
      </trkpt>
      <trkpt lat="59.8783217" lon="17.7013825">
        <ele>17.4412</ele>
        <time>2013-04-07T12:47:13Z</time>
      </trkpt>
      <trkpt lat="59.8783679" lon="17.7015008">
        <ele>17.4412</ele>
        <time>2013-04-07T12:47:14Z</time>
      </trkpt>
      <trkpt lat="59.8784152" lon="17.7016194">
        <ele>17.4412</ele>
        <time>2013-04-07T12:47:15Z</time>
      </trkpt>
      <trkpt lat="59.8784619" lon="17.7017391">
        <ele>17.4412</ele>
        <time>2013-04-07T12:47:16Z</time>
      </trkpt>
      <trkpt lat="59.8785068" lon="17.7018612">
        <ele>17.4412</ele>
        <time>2013-04-07T12:47:17Z</time>
      </trkpt>
      <trkpt lat="59.8785499" lon="17.7019846">
        <ele>17.4412</ele>
        <time>2013-04-07T12:47:18Z</time>
      </trkpt>
      <trkpt lat="59.8785933" lon="17.7021084">
        <ele>17.4412</ele>
        <time>2013-04-07T12:47:19Z</time>
      </trkpt>
      <trkpt lat="59.8786369" lon="17.7022317">
        <ele>17.9218</ele>
        <time>2013-04-07T12:47:20Z</time>
      </trkpt>
      <trkpt lat="59.8786797" lon="17.7023547">
        <ele>17.9218</ele>
        <time>2013-04-07T12:47:21Z</time>
      </trkpt>
      <trkpt lat="59.8787215" lon="17.7024782">
        <ele>17.9218</ele>
        <time>2013-04-07T12:47:22Z</time>
      </trkpt>
      <trkpt lat="59.8787628" lon="17.7026032">
        <ele>17.9218</ele>
        <time>2013-04-07T12:47:23Z</time>
      </trkpt>
      <trkpt lat="59.8788042" lon="17.7027283">
        <ele>17.9218</ele>
        <time>2013-04-07T12:47:24Z</time>
      </trkpt>
      <trkpt lat="59.8788477" lon="17.7028513">
        <ele>18.4023</ele>
        <time>2013-04-07T12:47:25Z</time>
      </trkpt>
      <trkpt lat="59.8788933" lon="17.7029734">
        <ele>18.4023</ele>
        <time>2013-04-07T12:47:26Z</time>
      </trkpt>
      <trkpt lat="59.8789392" lon="17.7030947">
        <ele>17.4412</ele>
        <time>2013-04-07T12:47:27Z</time>
      </trkpt>
      <trkpt lat="59.878982" lon="17.7032167">
        <ele>17.9218</ele>
        <time>2013-04-07T12:47:28Z</time>
      </trkpt>
      <trkpt lat="59.8790257" lon="17.7033355">
        <ele>17.9218</ele>
        <time>2013-04-07T12:47:29Z</time>
      </trkpt>
      <trkpt lat="59.8790694" lon="17.7034521">
        <ele>17.9218</ele>
        <time>2013-04-07T12:47:30Z</time>
      </trkpt>
      <trkpt lat="59.8791129" lon="17.703568">
        <ele>17.9218</ele>
        <time>2013-04-07T12:47:31Z</time>
      </trkpt>
      <trkpt lat="59.8791561" lon="17.703685">
        <ele>17.9218</ele>
        <time>2013-04-07T12:47:32Z</time>
      </trkpt>
      <trkpt lat="59.8791994" lon="17.7038028">
        <ele>17.9218</ele>
        <time>2013-04-07T12:47:33Z</time>
      </trkpt>
      <trkpt lat="59.8792421" lon="17.7039228">
        <ele>17.9218</ele>
        <time>2013-04-07T12:47:34Z</time>
      </trkpt>
      <trkpt lat="59.8792849" lon="17.7040443">
        <ele>17.9218</ele>
        <time>2013-04-07T12:47:35Z</time>
      </trkpt>
      <trkpt lat="59.8793283" lon="17.7041657">
        <ele>18.4023</ele>
        <time>2013-04-07T12:47:36Z</time>
      </trkpt>
      <trkpt lat="59.8793709" lon="17.7042879">
        <ele>18.4023</ele>
        <time>2013-04-07T12:47:37Z</time>
      </trkpt>
      <trkpt lat="59.8794127" lon="17.7044108">
        <ele>18.4023</ele>
        <time>2013-04-07T12:47:38Z</time>
      </trkpt>
      <trkpt lat="59.8794543" lon="17.7045336">
        <ele>18.4023</ele>
        <time>2013-04-07T12:47:39Z</time>
      </trkpt>
      <trkpt lat="59.8794963" lon="17.7046569">
        <ele>18.4023</ele>
        <time>2013-04-07T12:47:40Z</time>
      </trkpt>
      <trkpt lat="59.879537" lon="17.7047806">
        <ele>18.4023</ele>
        <time>2013-04-07T12:47:41Z</time>
      </trkpt>
      <trkpt lat="59.8795767" lon="17.7049041">
        <ele>18.4023</ele>
        <time>2013-04-07T12:47:42Z</time>
      </trkpt>
      <trkpt lat="59.8796163" lon="17.7050269">
        <ele>18.4023</ele>
        <time>2013-04-07T12:47:43Z</time>
      </trkpt>
      <trkpt lat="59.8796559" lon="17.7051491">
        <ele>17.9218</ele>
        <time>2013-04-07T12:47:44Z</time>
      </trkpt>
      <trkpt lat="59.8796955" lon="17.7052718">
        <ele>17.9218</ele>
        <time>2013-04-07T12:47:45Z</time>
      </trkpt>
      <trkpt lat="59.8797341" lon="17.7053952">
        <ele>17.9218</ele>
        <time>2013-04-07T12:47:46Z</time>
      </trkpt>
      <trkpt lat="59.8797739" lon="17.7055218">
        <ele>18.4023</ele>
        <time>2013-04-07T12:47:47Z</time>
      </trkpt>
      <trkpt lat="59.8798124" lon="17.7056484">
        <ele>18.4023</ele>
        <time>2013-04-07T12:47:48Z</time>
      </trkpt>
      <trkpt lat="59.8798516" lon="17.7057749">
        <ele>17.9218</ele>
        <time>2013-04-07T12:47:49Z</time>
      </trkpt>
      <trkpt lat="59.8798908" lon="17.7059017">
        <ele>17.9218</ele>
        <time>2013-04-07T12:47:50Z</time>
      </trkpt>
      <trkpt lat="59.8799286" lon="17.7060297">
        <ele>17.9218</ele>
        <time>2013-04-07T12:47:51Z</time>
      </trkpt>
      <trkpt lat="59.8799656" lon="17.7061582">
        <ele>17.9218</ele>
        <time>2013-04-07T12:47:52Z</time>
      </trkpt>
      <trkpt lat="59.8800024" lon="17.7062876">
        <ele>17.9218</ele>
        <time>2013-04-07T12:47:53Z</time>
      </trkpt>
      <trkpt lat="59.8800387" lon="17.7064173">
        <ele>17.9218</ele>
        <time>2013-04-07T12:47:54Z</time>
      </trkpt>
      <trkpt lat="59.8800744" lon="17.706548">
        <ele>17.9218</ele>
        <time>2013-04-07T12:47:55Z</time>
      </trkpt>
      <trkpt lat="59.8801086" lon="17.7066796">
        <ele>17.9218</ele>
        <time>2013-04-07T12:47:56Z</time>
      </trkpt>
      <trkpt lat="59.8801395" lon="17.7068127">
        <ele>17.9218</ele>
        <time>2013-04-07T12:47:57Z</time>
      </trkpt>
      <trkpt lat="59.8801681" lon="17.7069467">
        <ele>17.9218</ele>
        <time>2013-04-07T12:47:58Z</time>
      </trkpt>
      <trkpt lat="59.880196" lon="17.7070822">
        <ele>17.9218</ele>
        <time>2013-04-07T12:47:59Z</time>
      </trkpt>
      <trkpt lat="59.8802225" lon="17.7072184">
        <ele>17.9218</ele>
        <time>2013-04-07T12:48:00Z</time>
      </trkpt>
      <trkpt lat="59.8802474" lon="17.7073543">
        <ele>17.9218</ele>
        <time>2013-04-07T12:48:01Z</time>
      </trkpt>
      <trkpt lat="59.8802698" lon="17.707491">
        <ele>17.9218</ele>
        <time>2013-04-07T12:48:02Z</time>
      </trkpt>
      <trkpt lat="59.8802907" lon="17.7076276">
        <ele>17.9218</ele>
        <time>2013-04-07T12:48:03Z</time>
      </trkpt>
      <trkpt lat="59.8803132" lon="17.7077638">
        <ele>17.4412</ele>
        <time>2013-04-07T12:48:04Z</time>
      </trkpt>
      <trkpt lat="59.8803355" lon="17.7078993">
        <ele>16.9604</ele>
        <time>2013-04-07T12:48:05Z</time>
      </trkpt>
      <trkpt lat="59.8803584" lon="17.7080331">
        <ele>16.9604</ele>
        <time>2013-04-07T12:48:06Z</time>
      </trkpt>
      <trkpt lat="59.8803821" lon="17.7081642">
        <ele>16.4797</ele>
        <time>2013-04-07T12:48:07Z</time>
      </trkpt>
      <trkpt lat="59.8804069" lon="17.7082914">
        <ele>16.4797</ele>
        <time>2013-04-07T12:48:08Z</time>
      </trkpt>
      <trkpt lat="59.8804342" lon="17.7084146">
        <ele>16.4797</ele>
        <time>2013-04-07T12:48:09Z</time>
      </trkpt>
      <trkpt lat="59.8804619" lon="17.7085328">
        <ele>16.4797</ele>
        <time>2013-04-07T12:48:10Z</time>
      </trkpt>
      <trkpt lat="59.880492" lon="17.7086483">
        <ele>16.4797</ele>
        <time>2013-04-07T12:48:11Z</time>
      </trkpt>
      <trkpt lat="59.880524" lon="17.7087617">
        <ele>15.999</ele>
        <time>2013-04-07T12:48:12Z</time>
      </trkpt>
      <trkpt lat="59.8805561" lon="17.7088726">
        <ele>15.999</ele>
        <time>2013-04-07T12:48:13Z</time>
      </trkpt>
      <trkpt lat="59.8805892" lon="17.7089808">
        <ele>15.5184</ele>
        <time>2013-04-07T12:48:14Z</time>
      </trkpt>
      <trkpt lat="59.8806202" lon="17.7090822">
        <ele>15.5184</ele>
        <time>2013-04-07T12:48:15Z</time>
      </trkpt>
      <trkpt lat="59.8806575" lon="17.7091927">
        <ele>15.5184</ele>
        <time>2013-04-07T12:48:16Z</time>
      </trkpt>
      <trkpt lat="59.8806849" lon="17.7092973">
        <ele>15.5184</ele>
        <time>2013-04-07T12:48:17Z</time>
      </trkpt>
      <trkpt lat="59.8807188" lon="17.7093769">
        <ele>15.5184</ele>
        <time>2013-04-07T12:48:18Z</time>
      </trkpt>
      <trkpt lat="59.880754" lon="17.7094574">
        <ele>15.5184</ele>
        <time>2013-04-07T12:48:19Z</time>
      </trkpt>
      <trkpt lat="59.8807949" lon="17.7095397">
        <ele>15.0377</ele>
        <time>2013-04-07T12:48:20Z</time>
      </trkpt>
      <trkpt lat="59.8808348" lon="17.7096174">
        <ele>14.557</ele>
        <time>2013-04-07T12:48:21Z</time>
      </trkpt>
      <trkpt lat="59.8808799" lon="17.7096983">
        <ele>13.5958</ele>
        <time>2013-04-07T12:48:22Z</time>
      </trkpt>
      <trkpt lat="59.8809203" lon="17.7097822">
        <ele>14.0764</ele>
        <time>2013-04-07T12:48:23Z</time>
      </trkpt>
      <trkpt lat="59.8809617" lon="17.7098706">
        <ele>14.0764</ele>
        <time>2013-04-07T12:48:24Z</time>
      </trkpt>
      <trkpt lat="59.8810056" lon="17.7099736">
        <ele>14.0764</ele>
        <time>2013-04-07T12:48:25Z</time>
      </trkpt>
      <trkpt lat="59.8810356" lon="17.7100841">
        <ele>13.5958</ele>
        <time>2013-04-07T12:48:26Z</time>
      </trkpt>
      <trkpt lat="59.8810617" lon="17.7101993">
        <ele>13.5958</ele>
        <time>2013-04-07T12:48:27Z</time>
      </trkpt>
      <trkpt lat="59.8810941" lon="17.7103189">
        <ele>13.1151</ele>
        <time>2013-04-07T12:48:28Z</time>
      </trkpt>
      <trkpt lat="59.881127" lon="17.7104411">
        <ele>13.1151</ele>
        <time>2013-04-07T12:48:29Z</time>
      </trkpt>
      <trkpt lat="59.8811623" lon="17.7105586">
        <ele>12.6344</ele>
        <time>2013-04-07T12:48:30Z</time>
      </trkpt>
      <trkpt lat="59.8812017" lon="17.7106758">
        <ele>12.6344</ele>
        <time>2013-04-07T12:48:31Z</time>
      </trkpt>
      <trkpt lat="59.8812446" lon="17.7107928">
        <ele>12.6344</ele>
        <time>2013-04-07T12:48:32Z</time>
      </trkpt>
      <trkpt lat="59.8812916" lon="17.7109118">
        <ele>12.6344</ele>
        <time>2013-04-07T12:48:33Z</time>
      </trkpt>
      <trkpt lat="59.881336" lon="17.7110273">
        <ele>12.6344</ele>
        <time>2013-04-07T12:48:34Z</time>
      </trkpt>
      <trkpt lat="59.8813808" lon="17.7111417">
        <ele>12.1538</ele>
        <time>2013-04-07T12:48:35Z</time>
      </trkpt>
      <trkpt lat="59.8814238" lon="17.7112567">
        <ele>12.1538</ele>
        <time>2013-04-07T12:48:36Z</time>
      </trkpt>
      <trkpt lat="59.8814652" lon="17.7113774">
        <ele>12.1538</ele>
        <time>2013-04-07T12:48:37Z</time>
      </trkpt>
      <trkpt lat="59.8815061" lon="17.711505">
        <ele>12.1538</ele>
        <time>2013-04-07T12:48:38Z</time>
      </trkpt>
      <trkpt lat="59.881544" lon="17.7116364">
        <ele>12.6344</ele>
        <time>2013-04-07T12:48:39Z</time>
      </trkpt>
      <trkpt lat="59.8815777" lon="17.7117713">
        <ele>12.6344</ele>
        <time>2013-04-07T12:48:40Z</time>
      </trkpt>
      <trkpt lat="59.8816078" lon="17.7119091">
        <ele>12.6344</ele>
        <time>2013-04-07T12:48:41Z</time>
      </trkpt>
      <trkpt lat="59.8816355" lon="17.7120495">
        <ele>12.1538</ele>
        <time>2013-04-07T12:48:42Z</time>
      </trkpt>
      <trkpt lat="59.8816604" lon="17.7121933">
        <ele>12.1538</ele>
        <time>2013-04-07T12:48:43Z</time>
      </trkpt>
      <trkpt lat="59.8816823" lon="17.7123391">
        <ele>12.1538</ele>
        <time>2013-04-07T12:48:44Z</time>
      </trkpt>
      <trkpt lat="59.881703" lon="17.712486">
        <ele>11.6732</ele>
        <time>2013-04-07T12:48:45Z</time>
      </trkpt>
      <trkpt lat="59.8817232" lon="17.7126341">
        <ele>11.6732</ele>
        <time>2013-04-07T12:48:46Z</time>
      </trkpt>
      <trkpt lat="59.8817434" lon="17.7127838">
        <ele>11.6732</ele>
        <time>2013-04-07T12:48:47Z</time>
      </trkpt>
      <trkpt lat="59.8817631" lon="17.7129338">
        <ele>11.6732</ele>
        <time>2013-04-07T12:48:48Z</time>
      </trkpt>
      <trkpt lat="59.8817828" lon="17.713084">
        <ele>11.6732</ele>
        <time>2013-04-07T12:48:49Z</time>
      </trkpt>
      <trkpt lat="59.881803" lon="17.7132342">
        <ele>11.6732</ele>
        <time>2013-04-07T12:48:50Z</time>
      </trkpt>
      <trkpt lat="59.881823" lon="17.7133843">
        <ele>11.6732</ele>
        <time>2013-04-07T12:48:51Z</time>
      </trkpt>
      <trkpt lat="59.8818425" lon="17.713535">
        <ele>11.6732</ele>
        <time>2013-04-07T12:48:52Z</time>
      </trkpt>
      <trkpt lat="59.8818623" lon="17.7136855">
        <ele>11.6732</ele>
        <time>2013-04-07T12:48:53Z</time>
      </trkpt>
      <trkpt lat="59.8818831" lon="17.713835">
        <ele>12.1538</ele>
        <time>2013-04-07T12:48:54Z</time>
      </trkpt>
      <trkpt lat="59.881904" lon="17.7139841">
        <ele>12.1538</ele>
        <time>2013-04-07T12:48:55Z</time>
      </trkpt>
      <trkpt lat="59.8819252" lon="17.7141335">
        <ele>12.1538</ele>
        <time>2013-04-07T12:48:56Z</time>
      </trkpt>
      <trkpt lat="59.8819466" lon="17.7142837">
        <ele>12.1538</ele>
        <time>2013-04-07T12:48:57Z</time>
      </trkpt>
      <trkpt lat="59.8819687" lon="17.7144345">
        <ele>12.1538</ele>
        <time>2013-04-07T12:48:58Z</time>
      </trkpt>
      <trkpt lat="59.8819914" lon="17.7145858">
        <ele>12.1538</ele>
        <time>2013-04-07T12:48:59Z</time>
      </trkpt>
      <trkpt lat="59.8820138" lon="17.7147379">
        <ele>12.1538</ele>
        <time>2013-04-07T12:49:00Z</time>
      </trkpt>
      <trkpt lat="59.8820356" lon="17.7148914">
        <ele>12.1538</ele>
        <time>2013-04-07T12:49:01Z</time>
      </trkpt>
      <trkpt lat="59.8820572" lon="17.7150457">
        <ele>12.1538</ele>
        <time>2013-04-07T12:49:02Z</time>
      </trkpt>
      <trkpt lat="59.8820782" lon="17.7152">
        <ele>12.1538</ele>
        <time>2013-04-07T12:49:03Z</time>
      </trkpt>
      <trkpt lat="59.882098" lon="17.7153528">
        <ele>12.1538</ele>
        <time>2013-04-07T12:49:04Z</time>
      </trkpt>
      <trkpt lat="59.8821189" lon="17.7155054">
        <ele>12.1538</ele>
        <time>2013-04-07T12:49:05Z</time>
      </trkpt>
      <trkpt lat="59.8821402" lon="17.7156564">
        <ele>12.1538</ele>
        <time>2013-04-07T12:49:06Z</time>
      </trkpt>
      <trkpt lat="59.8821612" lon="17.7158059">
        <ele>12.1538</ele>
        <time>2013-04-07T12:49:07Z</time>
      </trkpt>
      <trkpt lat="59.8821807" lon="17.7159556">
        <ele>12.1538</ele>
        <time>2013-04-07T12:49:08Z</time>
      </trkpt>
      <trkpt lat="59.8821996" lon="17.716105">
        <ele>12.1538</ele>
        <time>2013-04-07T12:49:09Z</time>
      </trkpt>
      <trkpt lat="59.8822179" lon="17.7162537">
        <ele>12.1538</ele>
        <time>2013-04-07T12:49:10Z</time>
      </trkpt>
      <trkpt lat="59.8822362" lon="17.7164003">
        <ele>12.1538</ele>
        <time>2013-04-07T12:49:11Z</time>
      </trkpt>
      <trkpt lat="59.882255" lon="17.7165457">
        <ele>12.6344</ele>
        <time>2013-04-07T12:49:12Z</time>
      </trkpt>
      <trkpt lat="59.8822738" lon="17.7166914">
        <ele>12.6344</ele>
        <time>2013-04-07T12:49:13Z</time>
      </trkpt>
      <trkpt lat="59.8822908" lon="17.7168376">
        <ele>12.6344</ele>
        <time>2013-04-07T12:49:14Z</time>
      </trkpt>
      <trkpt lat="59.8823064" lon="17.716985">
        <ele>12.6344</ele>
        <time>2013-04-07T12:49:15Z</time>
      </trkpt>
      <trkpt lat="59.882321" lon="17.7171338">
        <ele>12.6344</ele>
        <time>2013-04-07T12:49:16Z</time>
      </trkpt>
      <trkpt lat="59.8823334" lon="17.7172835">
        <ele>12.6344</ele>
        <time>2013-04-07T12:49:17Z</time>
      </trkpt>
      <trkpt lat="59.8823433" lon="17.7174332">
        <ele>12.6344</ele>
        <time>2013-04-07T12:49:18Z</time>
      </trkpt>
      <trkpt lat="59.8823514" lon="17.7175825">
        <ele>12.6344</ele>
        <time>2013-04-07T12:49:19Z</time>
      </trkpt>
      <trkpt lat="59.8823576" lon="17.717731">
        <ele>13.1151</ele>
        <time>2013-04-07T12:49:20Z</time>
      </trkpt>
      <trkpt lat="59.8823608" lon="17.7178771">
        <ele>13.1151</ele>
        <time>2013-04-07T12:49:21Z</time>
      </trkpt>
      <trkpt lat="59.8823645" lon="17.7180215">
        <ele>13.1151</ele>
        <time>2013-04-07T12:49:22Z</time>
      </trkpt>
      <trkpt lat="59.8823734" lon="17.7181649">
        <ele>13.1151</ele>
        <time>2013-04-07T12:49:23Z</time>
      </trkpt>
      <trkpt lat="59.8823899" lon="17.7183065">
        <ele>13.1151</ele>
        <time>2013-04-07T12:49:24Z</time>
      </trkpt>
      <trkpt lat="59.8824126" lon="17.7184472">
        <ele>12.6344</ele>
        <time>2013-04-07T12:49:25Z</time>
      </trkpt>
      <trkpt lat="59.8824385" lon="17.7185883">
        <ele>12.6344</ele>
        <time>2013-04-07T12:49:26Z</time>
      </trkpt>
      <trkpt lat="59.8824655" lon="17.718729">
        <ele>12.1538</ele>
        <time>2013-04-07T12:49:27Z</time>
      </trkpt>
      <trkpt lat="59.882494" lon="17.7188686">
        <ele>12.1538</ele>
        <time>2013-04-07T12:49:28Z</time>
      </trkpt>
      <trkpt lat="59.8825234" lon="17.7190088">
        <ele>12.1538</ele>
        <time>2013-04-07T12:49:29Z</time>
      </trkpt>
      <trkpt lat="59.8825536" lon="17.7191488">
        <ele>12.1538</ele>
        <time>2013-04-07T12:49:30Z</time>
      </trkpt>
      <trkpt lat="59.8825829" lon="17.7192867">
        <ele>12.1538</ele>
        <time>2013-04-07T12:49:31Z</time>
      </trkpt>
      <trkpt lat="59.8826116" lon="17.7194209">
        <ele>12.1538</ele>
        <time>2013-04-07T12:49:32Z</time>
      </trkpt>
      <trkpt lat="59.8826406" lon="17.7195533">
        <ele>11.6732</ele>
        <time>2013-04-07T12:49:33Z</time>
      </trkpt>
      <trkpt lat="59.8826702" lon="17.7196844">
        <ele>11.6732</ele>
        <time>2013-04-07T12:49:34Z</time>
      </trkpt>
      <trkpt lat="59.8826998" lon="17.7198151">
        <ele>11.6732</ele>
        <time>2013-04-07T12:49:35Z</time>
      </trkpt>
      <trkpt lat="59.8827292" lon="17.719945">
        <ele>11.6732</ele>
        <time>2013-04-07T12:49:36Z</time>
      </trkpt>
      <trkpt lat="59.8827585" lon="17.720074">
        <ele>11.6732</ele>
        <time>2013-04-07T12:49:37Z</time>
      </trkpt>
      <trkpt lat="59.8827878" lon="17.720203">
        <ele>11.6732</ele>
        <time>2013-04-07T12:49:38Z</time>
      </trkpt>
      <trkpt lat="59.8828163" lon="17.7203273">
        <ele>11.6732</ele>
        <time>2013-04-07T12:49:39Z</time>
      </trkpt>
      <trkpt lat="59.8828432" lon="17.720451">
        <ele>11.1925</ele>
        <time>2013-04-07T12:49:40Z</time>
      </trkpt>
      <trkpt lat="59.8828644" lon="17.7205811">
        <ele>11.1925</ele>
        <time>2013-04-07T12:49:41Z</time>
      </trkpt>
      <trkpt lat="59.8828742" lon="17.7207137">
        <ele>11.6732</ele>
        <time>2013-04-07T12:49:42Z</time>
      </trkpt>
      <trkpt lat="59.882868" lon="17.7208448">
        <ele>11.6732</ele>
        <time>2013-04-07T12:49:43Z</time>
      </trkpt>
      <trkpt lat="59.8828505" lon="17.7209674">
        <ele>12.1538</ele>
        <time>2013-04-07T12:49:44Z</time>
      </trkpt>
      <trkpt lat="59.8828136" lon="17.7210618">
        <ele>12.1538</ele>
        <time>2013-04-07T12:49:45Z</time>
      </trkpt>
      <trkpt lat="59.8827576" lon="17.7211363">
        <ele>12.6344</ele>
        <time>2013-04-07T12:49:46Z</time>
      </trkpt>
      <trkpt lat="59.8826965" lon="17.7211996">
        <ele>12.6344</ele>
        <time>2013-04-07T12:49:47Z</time>
      </trkpt>
      <trkpt lat="59.8826334" lon="17.7212574">
        <ele>13.1151</ele>
        <time>2013-04-07T12:49:48Z</time>
      </trkpt>
      <trkpt lat="59.8825705" lon="17.7213139">
        <ele>13.1151</ele>
        <time>2013-04-07T12:49:49Z</time>
      </trkpt>
      <trkpt lat="59.8825068" lon="17.7213753">
        <ele>13.1151</ele>
        <time>2013-04-07T12:49:50Z</time>
      </trkpt>
      <trkpt lat="59.8824432" lon="17.7214429">
        <ele>13.5958</ele>
        <time>2013-04-07T12:49:51Z</time>
      </trkpt>
      <trkpt lat="59.882379" lon="17.7215102">
        <ele>13.5958</ele>
        <time>2013-04-07T12:49:52Z</time>
      </trkpt>
      <trkpt lat="59.8823152" lon="17.7215772">
        <ele>14.0764</ele>
        <time>2013-04-07T12:49:53Z</time>
      </trkpt>
      <trkpt lat="59.8822531" lon="17.7216472">
        <ele>14.0764</ele>
        <time>2013-04-07T12:49:54Z</time>
      </trkpt>
      <trkpt lat="59.8821923" lon="17.7217217">
        <ele>14.0764</ele>
        <time>2013-04-07T12:49:55Z</time>
      </trkpt>
      <trkpt lat="59.8821331" lon="17.7217996">
        <ele>14.557</ele>
        <time>2013-04-07T12:49:56Z</time>
      </trkpt>
      <trkpt lat="59.8820768" lon="17.7218802">
        <ele>14.557</ele>
        <time>2013-04-07T12:49:57Z</time>
      </trkpt>
      <trkpt lat="59.8820246" lon="17.7219668">
        <ele>14.557</ele>
        <time>2013-04-07T12:49:58Z</time>
      </trkpt>
      <trkpt lat="59.8819763" lon="17.7220596">
        <ele>14.557</ele>
        <time>2013-04-07T12:49:59Z</time>
      </trkpt>
      <trkpt lat="59.8819303" lon="17.7221546">
        <ele>15.0377</ele>
        <time>2013-04-07T12:50:00Z</time>
      </trkpt>
      <trkpt lat="59.8818854" lon="17.7222491">
        <ele>15.0377</ele>
        <time>2013-04-07T12:50:01Z</time>
      </trkpt>
      <trkpt lat="59.8818421" lon="17.7223458">
        <ele>15.0377</ele>
        <time>2013-04-07T12:50:02Z</time>
      </trkpt>
      <trkpt lat="59.8817984" lon="17.7224439">
        <ele>15.5184</ele>
        <time>2013-04-07T12:50:03Z</time>
      </trkpt>
      <trkpt lat="59.8817557" lon="17.7225414">
        <ele>15.5184</ele>
        <time>2013-04-07T12:50:04Z</time>
      </trkpt>
      <trkpt lat="59.8817122" lon="17.7226396">
        <ele>15.999</ele>
        <time>2013-04-07T12:50:05Z</time>
      </trkpt>
      <trkpt lat="59.8816678" lon="17.7227371">
        <ele>15.999</ele>
        <time>2013-04-07T12:50:06Z</time>
      </trkpt>
      <trkpt lat="59.8816238" lon="17.7228342">
        <ele>16.4797</ele>
        <time>2013-04-07T12:50:07Z</time>
      </trkpt>
      <trkpt lat="59.8815802" lon="17.7229344">
        <ele>16.4797</ele>
        <time>2013-04-07T12:50:08Z</time>
      </trkpt>
      <trkpt lat="59.8815386" lon="17.7230396">
        <ele>16.9604</ele>
        <time>2013-04-07T12:50:09Z</time>
      </trkpt>
      <trkpt lat="59.8814979" lon="17.7231545">
        <ele>17.4412</ele>
        <time>2013-04-07T12:50:10Z</time>
      </trkpt>
      <trkpt lat="59.8814707" lon="17.7232794">
        <ele>17.4412</ele>
        <time>2013-04-07T12:50:11Z</time>
      </trkpt>
      <trkpt lat="59.8814538" lon="17.7234144">
        <ele>17.4412</ele>
        <time>2013-04-07T12:50:12Z</time>
      </trkpt>
      <trkpt lat="59.8814487" lon="17.7235582">
        <ele>17.4412</ele>
        <time>2013-04-07T12:50:13Z</time>
      </trkpt>
      <trkpt lat="59.8814584" lon="17.7237021">
        <ele>17.4412</ele>
        <time>2013-04-07T12:50:14Z</time>
      </trkpt>
      <trkpt lat="59.8814782" lon="17.7238441">
        <ele>16.9604</ele>
        <time>2013-04-07T12:50:15Z</time>
      </trkpt>
      <trkpt lat="59.8815068" lon="17.7239825">
        <ele>16.9604</ele>
        <time>2013-04-07T12:50:16Z</time>
      </trkpt>
      <trkpt lat="59.8815401" lon="17.724118">
        <ele>16.9604</ele>
        <time>2013-04-07T12:50:17Z</time>
      </trkpt>
      <trkpt lat="59.8815739" lon="17.7242543">
        <ele>16.9604</ele>
        <time>2013-04-07T12:50:18Z</time>
      </trkpt>
      <trkpt lat="59.881608" lon="17.724391">
        <ele>16.9604</ele>
        <time>2013-04-07T12:50:19Z</time>
      </trkpt>
      <trkpt lat="59.8816454" lon="17.7245199">
        <ele>16.4797</ele>
        <time>2013-04-07T12:50:20Z</time>
      </trkpt>
      <trkpt lat="59.8816823" lon="17.724649">
        <ele>15.999</ele>
        <time>2013-04-07T12:50:21Z</time>
      </trkpt>
      <trkpt lat="59.8817192" lon="17.7247766">
        <ele>15.999</ele>
        <time>2013-04-07T12:50:22Z</time>
      </trkpt>
      <trkpt lat="59.8817558" lon="17.7249033">
        <ele>15.5184</ele>
        <time>2013-04-07T12:50:23Z</time>
      </trkpt>
      <trkpt lat="59.8817922" lon="17.7250307">
        <ele>15.5184</ele>
        <time>2013-04-07T12:50:24Z</time>
      </trkpt>
      <trkpt lat="59.881824" lon="17.7251687">
        <ele>15.0377</ele>
        <time>2013-04-07T12:50:25Z</time>
      </trkpt>
      <trkpt lat="59.8818562" lon="17.7253049">
        <ele>14.557</ele>
        <time>2013-04-07T12:50:26Z</time>
      </trkpt>
      <trkpt lat="59.8818886" lon="17.7254385">
        <ele>14.557</ele>
        <time>2013-04-07T12:50:27Z</time>
      </trkpt>
      <trkpt lat="59.881921" lon="17.7255683">
        <ele>14.0764</ele>
        <time>2013-04-07T12:50:28Z</time>
      </trkpt>
      <trkpt lat="59.881954" lon="17.7256943">
        <ele>14.0764</ele>
        <time>2013-04-07T12:50:29Z</time>
      </trkpt>
      <trkpt lat="59.8819878" lon="17.7258175">
        <ele>13.5958</ele>
        <time>2013-04-07T12:50:30Z</time>
      </trkpt>
      <trkpt lat="59.8820229" lon="17.725939">
        <ele>13.5958</ele>
        <time>2013-04-07T12:50:31Z</time>
      </trkpt>
      <trkpt lat="59.882061" lon="17.7260602">
        <ele>13.1151</ele>
        <time>2013-04-07T12:50:32Z</time>
      </trkpt>
      <trkpt lat="59.8820996" lon="17.7261772">
        <ele>13.1151</ele>
        <time>2013-04-07T12:50:33Z</time>
      </trkpt>
      <trkpt lat="59.8821396" lon="17.7262892">
        <ele>13.1151</ele>
        <time>2013-04-07T12:50:34Z</time>
      </trkpt>
      <trkpt lat="59.8821797" lon="17.7263993">
        <ele>12.6344</ele>
        <time>2013-04-07T12:50:35Z</time>
      </trkpt>
      <trkpt lat="59.8822196" lon="17.7265098">
        <ele>12.6344</ele>
        <time>2013-04-07T12:50:36Z</time>
      </trkpt>
      <trkpt lat="59.8822588" lon="17.726621">
        <ele>12.6344</ele>
        <time>2013-04-07T12:50:37Z</time>
      </trkpt>
      <trkpt lat="59.8822968" lon="17.7267309">
        <ele>12.6344</ele>
        <time>2013-04-07T12:50:38Z</time>
      </trkpt>
      <trkpt lat="59.8823334" lon="17.7268403">
        <ele>12.6344</ele>
        <time>2013-04-07T12:50:39Z</time>
      </trkpt>
      <trkpt lat="59.8823692" lon="17.7269495">
        <ele>12.6344</ele>
        <time>2013-04-07T12:50:40Z</time>
      </trkpt>
      <trkpt lat="59.8824039" lon="17.7270592">
        <ele>12.6344</ele>
        <time>2013-04-07T12:50:41Z</time>
      </trkpt>
      <trkpt lat="59.8824369" lon="17.7271692">
        <ele>12.6344</ele>
        <time>2013-04-07T12:50:42Z</time>
      </trkpt>
      <trkpt lat="59.8824666" lon="17.7272824">
        <ele>13.1151</ele>
        <time>2013-04-07T12:50:43Z</time>
      </trkpt>
      <trkpt lat="59.8824949" lon="17.7273971">
        <ele>13.1151</ele>
        <time>2013-04-07T12:50:44Z</time>
      </trkpt>
      <trkpt lat="59.8825219" lon="17.7275111">
        <ele>12.6344</ele>
        <time>2013-04-07T12:50:45Z</time>
      </trkpt>
      <trkpt lat="59.8825524" lon="17.7276277">
        <ele>13.5958</ele>
        <time>2013-04-07T12:50:46Z</time>
      </trkpt>
      <trkpt lat="59.882579" lon="17.7277437">
        <ele>14.0764</ele>
        <time>2013-04-07T12:50:47Z</time>
      </trkpt>
      <trkpt lat="59.8826038" lon="17.7278638">
        <ele>13.5958</ele>
        <time>2013-04-07T12:50:48Z</time>
      </trkpt>
      <trkpt lat="59.882628" lon="17.7279866">
        <ele>13.5958</ele>
        <time>2013-04-07T12:50:49Z</time>
      </trkpt>
      <trkpt lat="59.8826516" lon="17.7281124">
        <ele>13.5958</ele>
        <time>2013-04-07T12:50:50Z</time>
      </trkpt>
      <trkpt lat="59.8826757" lon="17.7282423">
        <ele>13.1151</ele>
        <time>2013-04-07T12:50:51Z</time>
      </trkpt>
      <trkpt lat="59.882702" lon="17.728371">
        <ele>13.1151</ele>
        <time>2013-04-07T12:50:52Z</time>
      </trkpt>
      <trkpt lat="59.8827275" lon="17.7285014">
        <ele>13.1151</ele>
        <time>2013-04-07T12:50:53Z</time>
      </trkpt>
      <trkpt lat="59.8827521" lon="17.7286314">
        <ele>13.1151</ele>
        <time>2013-04-07T12:50:54Z</time>
      </trkpt>
      <trkpt lat="59.8827763" lon="17.7287667">
        <ele>13.5958</ele>
        <time>2013-04-07T12:50:55Z</time>
      </trkpt>
      <trkpt lat="59.8827999" lon="17.7289014">
        <ele>13.5958</ele>
        <time>2013-04-07T12:50:56Z</time>
      </trkpt>
      <trkpt lat="59.8828204" lon="17.7290326">
        <ele>14.0764</ele>
        <time>2013-04-07T12:50:57Z</time>
      </trkpt>
      <trkpt lat="59.8828415" lon="17.7291623">
        <ele>14.557</ele>
        <time>2013-04-07T12:50:58Z</time>
      </trkpt>
      <trkpt lat="59.882852" lon="17.7293163">
        <ele>15.0377</ele>
        <time>2013-04-07T12:50:59Z</time>
      </trkpt>
      <trkpt lat="59.8828654" lon="17.7294583">
        <ele>15.999</ele>
        <time>2013-04-07T12:51:00Z</time>
      </trkpt>
      <trkpt lat="59.8828758" lon="17.7295974">
        <ele>15.999</ele>
        <time>2013-04-07T12:51:01Z</time>
      </trkpt>
      <trkpt lat="59.8828834" lon="17.7297323">
        <ele>16.4797</ele>
        <time>2013-04-07T12:51:02Z</time>
      </trkpt>
      <trkpt lat="59.8828784" lon="17.7298575">
        <ele>17.4412</ele>
        <time>2013-04-07T12:51:03Z</time>
      </trkpt>
      <trkpt lat="59.8828621" lon="17.7299783">
        <ele>17.9218</ele>
        <time>2013-04-07T12:51:04Z</time>
      </trkpt>
      <trkpt lat="59.8828401" lon="17.7300962">
        <ele>18.4023</ele>
        <time>2013-04-07T12:51:05Z</time>
      </trkpt>
      <trkpt lat="59.8828126" lon="17.7301897">
        <ele>18.4023</ele>
        <time>2013-04-07T12:51:06Z</time>
      </trkpt>
      <trkpt lat="59.8827856" lon="17.7302667">
        <ele>18.4023</ele>
        <time>2013-04-07T12:51:07Z</time>
      </trkpt>
      <trkpt lat="59.8827583" lon="17.7303477">
        <ele>19.3638</ele>
        <time>2013-04-07T12:51:08Z</time>
      </trkpt>
      <trkpt lat="59.8827316" lon="17.73043">
        <ele>19.3638</ele>
        <time>2013-04-07T12:51:09Z</time>
      </trkpt>
      <trkpt lat="59.8827089" lon="17.7305198">
        <ele>19.8444</ele>
        <time>2013-04-07T12:51:10Z</time>
      </trkpt>
      <trkpt lat="59.8826959" lon="17.7306124">
        <ele>20.325</ele>
        <time>2013-04-07T12:51:11Z</time>
      </trkpt>
      <trkpt lat="59.8826909" lon="17.7307114">
        <ele>20.325</ele>
        <time>2013-04-07T12:51:12Z</time>
      </trkpt>
      <trkpt lat="59.8826935" lon="17.7308117">
        <ele>20.8057</ele>
        <time>2013-04-07T12:51:13Z</time>
      </trkpt>
      <trkpt lat="59.8827051" lon="17.7309118">
        <ele>21.2864</ele>
        <time>2013-04-07T12:51:14Z</time>
      </trkpt>
      <trkpt lat="59.8827209" lon="17.7310157">
        <ele>21.2864</ele>
        <time>2013-04-07T12:51:15Z</time>
      </trkpt>
      <trkpt lat="59.8827376" lon="17.7311195">
        <ele>20.8057</ele>
        <time>2013-04-07T12:51:16Z</time>
      </trkpt>
      <trkpt lat="59.8827571" lon="17.7312262">
        <ele>20.325</ele>
        <time>2013-04-07T12:51:17Z</time>
      </trkpt>
      <trkpt lat="59.8827824" lon="17.7313344">
        <ele>20.325</ele>
        <time>2013-04-07T12:51:18Z</time>
      </trkpt>
      <trkpt lat="59.8828136" lon="17.7314417">
        <ele>19.8444</ele>
        <time>2013-04-07T12:51:19Z</time>
      </trkpt>
      <trkpt lat="59.8828559" lon="17.731551">
        <ele>18.8831</ele>
        <time>2013-04-07T12:51:20Z</time>
      </trkpt>
      <trkpt lat="59.8829038" lon="17.7316674">
        <ele>18.4023</ele>
        <time>2013-04-07T12:51:21Z</time>
      </trkpt>
      <trkpt lat="59.8829559" lon="17.7317898">
        <ele>17.9218</ele>
        <time>2013-04-07T12:51:22Z</time>
      </trkpt>
      <trkpt lat="59.883011" lon="17.7319134">
        <ele>16.9604</ele>
        <time>2013-04-07T12:51:23Z</time>
      </trkpt>
      <trkpt lat="59.8830665" lon="17.7320389">
        <ele>16.9604</ele>
        <time>2013-04-07T12:51:24Z</time>
      </trkpt>
      <trkpt lat="59.8831213" lon="17.7321633">
        <ele>16.4797</ele>
        <time>2013-04-07T12:51:25Z</time>
      </trkpt>
      <trkpt lat="59.8831756" lon="17.7322865">
        <ele>15.999</ele>
        <time>2013-04-07T12:51:26Z</time>
      </trkpt>
      <trkpt lat="59.8832296" lon="17.7324114">
        <ele>15.999</ele>
        <time>2013-04-07T12:51:27Z</time>
      </trkpt>
      <trkpt lat="59.8832796" lon="17.7325416">
        <ele>15.999</ele>
        <time>2013-04-07T12:51:28Z</time>
      </trkpt>
      <trkpt lat="59.8833234" lon="17.7326787">
        <ele>15.5184</ele>
        <time>2013-04-07T12:51:29Z</time>
      </trkpt>
      <trkpt lat="59.8833616" lon="17.7328237">
        <ele>15.5184</ele>
        <time>2013-04-07T12:51:30Z</time>
      </trkpt>
      <trkpt lat="59.8833943" lon="17.7329745">
        <ele>15.0377</ele>
        <time>2013-04-07T12:51:31Z</time>
      </trkpt>
      <trkpt lat="59.8834237" lon="17.7331274">
        <ele>15.0377</ele>
        <time>2013-04-07T12:51:32Z</time>
      </trkpt>
      <trkpt lat="59.8834504" lon="17.7332815">
        <ele>15.0377</ele>
        <time>2013-04-07T12:51:33Z</time>
      </trkpt>
      <trkpt lat="59.8834746" lon="17.733437">
        <ele>15.0377</ele>
        <time>2013-04-07T12:51:34Z</time>
      </trkpt>
      <trkpt lat="59.8834978" lon="17.7335924">
        <ele>14.557</ele>
        <time>2013-04-07T12:51:35Z</time>
      </trkpt>
      <trkpt lat="59.8835202" lon="17.7337464">
        <ele>14.557</ele>
        <time>2013-04-07T12:51:36Z</time>
      </trkpt>
      <trkpt lat="59.8835412" lon="17.7339005">
        <ele>14.557</ele>
        <time>2013-04-07T12:51:37Z</time>
      </trkpt>
      <trkpt lat="59.8835576" lon="17.7340554">
        <ele>14.0764</ele>
        <time>2013-04-07T12:51:38Z</time>
      </trkpt>
      <trkpt lat="59.8835671" lon="17.734212">
        <ele>14.0764</ele>
        <time>2013-04-07T12:51:39Z</time>
      </trkpt>
      <trkpt lat="59.8835645" lon="17.734369">
        <ele>14.0764</ele>
        <time>2013-04-07T12:51:40Z</time>
      </trkpt>
      <trkpt lat="59.8835506" lon="17.7345242">
        <ele>13.5958</ele>
        <time>2013-04-07T12:51:41Z</time>
      </trkpt>
      <trkpt lat="59.8835258" lon="17.7346699">
        <ele>13.1151</ele>
        <time>2013-04-07T12:51:42Z</time>
      </trkpt>
      <trkpt lat="59.8834907" lon="17.7348032">
        <ele>13.1151</ele>
        <time>2013-04-07T12:51:43Z</time>
      </trkpt>
      <trkpt lat="59.8834485" lon="17.7349285">
        <ele>12.6344</ele>
        <time>2013-04-07T12:51:44Z</time>
      </trkpt>
      <trkpt lat="59.8834042" lon="17.7350497">
        <ele>12.6344</ele>
        <time>2013-04-07T12:51:45Z</time>
      </trkpt>
      <trkpt lat="59.8833627" lon="17.7351732">
        <ele>12.6344</ele>
        <time>2013-04-07T12:51:46Z</time>
      </trkpt>
      <trkpt lat="59.8833335" lon="17.7353066">
        <ele>12.6344</ele>
        <time>2013-04-07T12:51:47Z</time>
      </trkpt>
      <trkpt lat="59.8833201" lon="17.7354484">
        <ele>12.6344</ele>
        <time>2013-04-07T12:51:48Z</time>
      </trkpt>
      <trkpt lat="59.8833221" lon="17.7355924">
        <ele>12.6344</ele>
        <time>2013-04-07T12:51:49Z</time>
      </trkpt>
      <trkpt lat="59.8833372" lon="17.7357308">
        <ele>13.1151</ele>
        <time>2013-04-07T12:51:50Z</time>
      </trkpt>
      <trkpt lat="59.883358" lon="17.7358627">
        <ele>13.1151</ele>
        <time>2013-04-07T12:51:51Z</time>
      </trkpt>
      <trkpt lat="59.8833818" lon="17.7359872">
        <ele>13.1151</ele>
        <time>2013-04-07T12:51:52Z</time>
      </trkpt>
      <trkpt lat="59.8834067" lon="17.7361065">
        <ele>13.5958</ele>
        <time>2013-04-07T12:51:53Z</time>
      </trkpt>
      <trkpt lat="59.8834316" lon="17.7362215">
        <ele>14.0764</ele>
        <time>2013-04-07T12:51:54Z</time>
      </trkpt>
      <trkpt lat="59.8834563" lon="17.7363312">
        <ele>14.557</ele>
        <time>2013-04-07T12:51:55Z</time>
      </trkpt>
      <trkpt lat="59.8834793" lon="17.7364346">
        <ele>14.557</ele>
        <time>2013-04-07T12:51:56Z</time>
      </trkpt>
      <trkpt lat="59.8835019" lon="17.736531">
        <ele>15.0377</ele>
        <time>2013-04-07T12:51:57Z</time>
      </trkpt>
      <trkpt lat="59.8835259" lon="17.7366213">
        <ele>15.5184</ele>
        <time>2013-04-07T12:51:58Z</time>
      </trkpt>
      <trkpt lat="59.8835529" lon="17.7367057">
        <ele>15.5184</ele>
        <time>2013-04-07T12:51:59Z</time>
      </trkpt>
      <trkpt lat="59.8835824" lon="17.736783">
        <ele>15.999</ele>
        <time>2013-04-07T12:52:00Z</time>
      </trkpt>
      <trkpt lat="59.8836134" lon="17.7368583">
        <ele>15.999</ele>
        <time>2013-04-07T12:52:01Z</time>
      </trkpt>
      <trkpt lat="59.883644" lon="17.7369353">
        <ele>15.999</ele>
        <time>2013-04-07T12:52:02Z</time>
      </trkpt>
      <trkpt lat="59.8836735" lon="17.7370165">
        <ele>16.4797</ele>
        <time>2013-04-07T12:52:03Z</time>
      </trkpt>
      <trkpt lat="59.8837015" lon="17.737102">
        <ele>16.4797</ele>
        <time>2013-04-07T12:52:04Z</time>
      </trkpt>
      <trkpt lat="59.883728" lon="17.7371931">
        <ele>16.4797</ele>
        <time>2013-04-07T12:52:05Z</time>
      </trkpt>
      <trkpt lat="59.8837521" lon="17.7372909">
        <ele>16.4797</ele>
        <time>2013-04-07T12:52:06Z</time>
      </trkpt>
      <trkpt lat="59.8837739" lon="17.7373958">
        <ele>16.4797</ele>
        <time>2013-04-07T12:52:07Z</time>
      </trkpt>
      <trkpt lat="59.8837942" lon="17.737506">
        <ele>16.4797</ele>
        <time>2013-04-07T12:52:08Z</time>
      </trkpt>
      <trkpt lat="59.8838129" lon="17.7376195">
        <ele>16.4797</ele>
        <time>2013-04-07T12:52:09Z</time>
      </trkpt>
      <trkpt lat="59.8838298" lon="17.737735">
        <ele>16.4797</ele>
        <time>2013-04-07T12:52:10Z</time>
      </trkpt>
      <trkpt lat="59.8838446" lon="17.7378521">
        <ele>16.4797</ele>
        <time>2013-04-07T12:52:11Z</time>
      </trkpt>
      <trkpt lat="59.8838564" lon="17.7379702">
        <ele>16.4797</ele>
        <time>2013-04-07T12:52:12Z</time>
      </trkpt>
      <trkpt lat="59.8838674" lon="17.7380891">
        <ele>16.4797</ele>
        <time>2013-04-07T12:52:13Z</time>
      </trkpt>
      <trkpt lat="59.8838788" lon="17.7382085">
        <ele>16.4797</ele>
        <time>2013-04-07T12:52:14Z</time>
      </trkpt>
      <trkpt lat="59.883889" lon="17.7383293">
        <ele>16.4797</ele>
        <time>2013-04-07T12:52:15Z</time>
      </trkpt>
      <trkpt lat="59.8838986" lon="17.7384519">
        <ele>16.4797</ele>
        <time>2013-04-07T12:52:16Z</time>
      </trkpt>
      <trkpt lat="59.8839095" lon="17.7385757">
        <ele>16.4797</ele>
        <time>2013-04-07T12:52:17Z</time>
      </trkpt>
      <trkpt lat="59.8839216" lon="17.7386997">
        <ele>16.4797</ele>
        <time>2013-04-07T12:52:18Z</time>
      </trkpt>
      <trkpt lat="59.8839329" lon="17.7388239">
        <ele>16.4797</ele>
        <time>2013-04-07T12:52:19Z</time>
      </trkpt>
      <trkpt lat="59.8839439" lon="17.7389482">
        <ele>16.4797</ele>
        <time>2013-04-07T12:52:20Z</time>
      </trkpt>
      <trkpt lat="59.8839556" lon="17.7390737">
        <ele>16.4797</ele>
        <time>2013-04-07T12:52:21Z</time>
      </trkpt>
      <trkpt lat="59.8839667" lon="17.7392003">
        <ele>16.9604</ele>
        <time>2013-04-07T12:52:22Z</time>
      </trkpt>
      <trkpt lat="59.8839782" lon="17.739327">
        <ele>16.9604</ele>
        <time>2013-04-07T12:52:23Z</time>
      </trkpt>
      <trkpt lat="59.883991" lon="17.7394536">
        <ele>17.4412</ele>
        <time>2013-04-07T12:52:24Z</time>
      </trkpt>
      <trkpt lat="59.8840066" lon="17.7395764">
        <ele>17.4412</ele>
        <time>2013-04-07T12:52:25Z</time>
      </trkpt>
      <trkpt lat="59.8840284" lon="17.7396899">
        <ele>17.9218</ele>
        <time>2013-04-07T12:52:26Z</time>
      </trkpt>
      <trkpt lat="59.8840608" lon="17.739788">
        <ele>18.4023</ele>
        <time>2013-04-07T12:52:27Z</time>
      </trkpt>
      <trkpt lat="59.8841014" lon="17.7398608">
        <ele>18.4023</ele>
        <time>2013-04-07T12:52:28Z</time>
      </trkpt>
      <trkpt lat="59.8841532" lon="17.7398939">
        <ele>18.4023</ele>
        <time>2013-04-07T12:52:29Z</time>
      </trkpt>
      <trkpt lat="59.8842112" lon="17.7398801">
        <ele>18.8831</ele>
        <time>2013-04-07T12:52:30Z</time>
      </trkpt>
      <trkpt lat="59.8842747" lon="17.739849">
        <ele>19.3638</ele>
        <time>2013-04-07T12:52:31Z</time>
      </trkpt>
      <trkpt lat="59.8843388" lon="17.7398129">
        <ele>19.3638</ele>
        <time>2013-04-07T12:52:32Z</time>
      </trkpt>
      <trkpt lat="59.8844023" lon="17.7397811">
        <ele>19.3638</ele>
        <time>2013-04-07T12:52:33Z</time>
      </trkpt>
      <trkpt lat="59.8844661" lon="17.739748">
        <ele>19.3638</ele>
        <time>2013-04-07T12:52:34Z</time>
      </trkpt>
      <trkpt lat="59.8845306" lon="17.7397118">
        <ele>18.8831</ele>
        <time>2013-04-07T12:52:35Z</time>
      </trkpt>
      <trkpt lat="59.8845978" lon="17.7396728">
        <ele>18.8831</ele>
        <time>2013-04-07T12:52:36Z</time>
      </trkpt>
      <trkpt lat="59.8846644" lon="17.7396319">
        <ele>18.8831</ele>
        <time>2013-04-07T12:52:37Z</time>
      </trkpt>
      <trkpt lat="59.8847313" lon="17.7395877">
        <ele>18.8831</ele>
        <time>2013-04-07T12:52:38Z</time>
      </trkpt>
      <trkpt lat="59.8847985" lon="17.7395423">
        <ele>18.8831</ele>
        <time>2013-04-07T12:52:39Z</time>
      </trkpt>
      <trkpt lat="59.8848655" lon="17.739496">
        <ele>18.8831</ele>
        <time>2013-04-07T12:52:40Z</time>
      </trkpt>
      <trkpt lat="59.8849344" lon="17.7394537">
        <ele>18.8831</ele>
        <time>2013-04-07T12:52:41Z</time>
      </trkpt>
      <trkpt lat="59.8850054" lon="17.7394253">
        <ele>18.8831</ele>
        <time>2013-04-07T12:52:42Z</time>
      </trkpt>
      <trkpt lat="59.885079" lon="17.7394176">
        <ele>18.4023</ele>
        <time>2013-04-07T12:52:43Z</time>
      </trkpt>
      <trkpt lat="59.8851527" lon="17.7394387">
        <ele>18.4023</ele>
        <time>2013-04-07T12:52:44Z</time>
      </trkpt>
      <trkpt lat="59.8852212" lon="17.7395004">
        <ele>18.4023</ele>
        <time>2013-04-07T12:52:45Z</time>
      </trkpt>
      <trkpt lat="59.8852771" lon="17.7396012">
        <ele>18.4023</ele>
        <time>2013-04-07T12:52:46Z</time>
      </trkpt>
      <trkpt lat="59.8853166" lon="17.7397257">
        <ele>17.9218</ele>
        <time>2013-04-07T12:52:47Z</time>
      </trkpt>
      <trkpt lat="59.8853432" lon="17.739862">
        <ele>17.9218</ele>
        <time>2013-04-07T12:52:48Z</time>
      </trkpt>
      <trkpt lat="59.8853641" lon="17.7400013">
        <ele>17.9218</ele>
        <time>2013-04-07T12:52:49Z</time>
      </trkpt>
      <trkpt lat="59.8853819" lon="17.74014">
        <ele>17.9218</ele>
        <time>2013-04-07T12:52:50Z</time>
      </trkpt>
      <trkpt lat="59.8853855" lon="17.74031">
        <ele>18.4023</ele>
        <time>2013-04-07T12:52:51Z</time>
      </trkpt>
      <trkpt lat="59.8854092" lon="17.7404406">
        <ele>18.8831</ele>
        <time>2013-04-07T12:52:52Z</time>
      </trkpt>
      <trkpt lat="59.8854337" lon="17.7405707">
        <ele>18.8831</ele>
        <time>2013-04-07T12:52:53Z</time>
      </trkpt>
      <trkpt lat="59.8854597" lon="17.7406994">
        <ele>18.8831</ele>
        <time>2013-04-07T12:52:54Z</time>
      </trkpt>
      <trkpt lat="59.8854908" lon="17.7408269">
        <ele>18.8831</ele>
        <time>2013-04-07T12:52:55Z</time>
      </trkpt>
      <trkpt lat="59.8855286" lon="17.7409502">
        <ele>18.4023</ele>
        <time>2013-04-07T12:52:56Z</time>
      </trkpt>
      <trkpt lat="59.8855745" lon="17.7410685">
        <ele>18.4023</ele>
        <time>2013-04-07T12:52:57Z</time>
      </trkpt>
      <trkpt lat="59.8856264" lon="17.7411704">
        <ele>18.4023</ele>
        <time>2013-04-07T12:52:58Z</time>
      </trkpt>
      <trkpt lat="59.885687" lon="17.7412563">
        <ele>18.4023</ele>
        <time>2013-04-07T12:52:59Z</time>
      </trkpt>
      <trkpt lat="59.8857543" lon="17.741329">
        <ele>18.4023</ele>
        <time>2013-04-07T12:53:00Z</time>
      </trkpt>
      <trkpt lat="59.8858259" lon="17.7413956">
        <ele>18.4023</ele>
        <time>2013-04-07T12:53:01Z</time>
      </trkpt>
      <trkpt lat="59.8859003" lon="17.7414605">
        <ele>17.9218</ele>
        <time>2013-04-07T12:53:02Z</time>
      </trkpt>
      <trkpt lat="59.8859759" lon="17.7415305">
        <ele>17.4412</ele>
        <time>2013-04-07T12:53:03Z</time>
      </trkpt>
      <trkpt lat="59.8860526" lon="17.741608">
        <ele>17.4412</ele>
        <time>2013-04-07T12:53:04Z</time>
      </trkpt>
      <trkpt lat="59.8861333" lon="17.7416863">
        <ele>17.4412</ele>
        <time>2013-04-07T12:53:05Z</time>
      </trkpt>
      <trkpt lat="59.8862136" lon="17.7417693">
        <ele>16.9604</ele>
        <time>2013-04-07T12:53:06Z</time>
      </trkpt>
      <trkpt lat="59.8862927" lon="17.7418561">
        <ele>16.9604</ele>
        <time>2013-04-07T12:53:07Z</time>
      </trkpt>
      <trkpt lat="59.8863708" lon="17.7419467">
        <ele>16.9604</ele>
        <time>2013-04-07T12:53:08Z</time>
      </trkpt>
      <trkpt lat="59.886448" lon="17.7420405">
        <ele>16.9604</ele>
        <time>2013-04-07T12:53:09Z</time>
      </trkpt>
      <trkpt lat="59.8865241" lon="17.7421353">
        <ele>16.9604</ele>
        <time>2013-04-07T12:53:10Z</time>
      </trkpt>
      <trkpt lat="59.8865993" lon="17.7422297">
        <ele>16.9604</ele>
        <time>2013-04-07T12:53:11Z</time>
      </trkpt>
      <trkpt lat="59.8866737" lon="17.7423241">
        <ele>16.9604</ele>
        <time>2013-04-07T12:53:12Z</time>
      </trkpt>
      <trkpt lat="59.8867469" lon="17.7424197">
        <ele>16.9604</ele>
        <time>2013-04-07T12:53:13Z</time>
      </trkpt>
      <trkpt lat="59.8868182" lon="17.7425168">
        <ele>16.9604</ele>
        <time>2013-04-07T12:53:14Z</time>
      </trkpt>
      <trkpt lat="59.8868868" lon="17.7426158">
        <ele>16.9604</ele>
        <time>2013-04-07T12:53:15Z</time>
      </trkpt>
      <trkpt lat="59.8869546" lon="17.7427165">
        <ele>16.9604</ele>
        <time>2013-04-07T12:53:16Z</time>
      </trkpt>
      <trkpt lat="59.8870223" lon="17.7428188">
        <ele>16.9604</ele>
        <time>2013-04-07T12:53:17Z</time>
      </trkpt>
      <trkpt lat="59.8870891" lon="17.7429235">
        <ele>16.9604</ele>
        <time>2013-04-07T12:53:18Z</time>
      </trkpt>
      <trkpt lat="59.8871566" lon="17.7430269">
        <ele>17.4412</ele>
        <time>2013-04-07T12:53:19Z</time>
      </trkpt>
      <trkpt lat="59.8872228" lon="17.7431306">
        <ele>17.4412</ele>
        <time>2013-04-07T12:53:20Z</time>
      </trkpt>
      <trkpt lat="59.8872876" lon="17.7432347">
        <ele>17.4412</ele>
        <time>2013-04-07T12:53:21Z</time>
      </trkpt>
      <trkpt lat="59.8873499" lon="17.74334">
        <ele>17.4412</ele>
        <time>2013-04-07T12:53:22Z</time>
      </trkpt>
      <trkpt lat="59.8874116" lon="17.7434444">
        <ele>17.4412</ele>
        <time>2013-04-07T12:53:23Z</time>
      </trkpt>
      <trkpt lat="59.8874731" lon="17.7435467">
        <ele>17.4412</ele>
        <time>2013-04-07T12:53:24Z</time>
      </trkpt>
      <trkpt lat="59.887533" lon="17.7436489">
        <ele>17.4412</ele>
        <time>2013-04-07T12:53:25Z</time>
      </trkpt>
      <trkpt lat="59.887591" lon="17.7437515">
        <ele>17.9218</ele>
        <time>2013-04-07T12:53:26Z</time>
      </trkpt>
      <trkpt lat="59.887648" lon="17.7438522">
        <ele>17.9218</ele>
        <time>2013-04-07T12:53:27Z</time>
      </trkpt>
      <trkpt lat="59.8877042" lon="17.7439494">
        <ele>17.9218</ele>
        <time>2013-04-07T12:53:28Z</time>
      </trkpt>
      <trkpt lat="59.8877599" lon="17.7440427">
        <ele>17.9218</ele>
        <time>2013-04-07T12:53:29Z</time>
      </trkpt>
      <trkpt lat="59.887815" lon="17.7441338">
        <ele>18.4023</ele>
        <time>2013-04-07T12:53:30Z</time>
      </trkpt>
      <trkpt lat="59.8878689" lon="17.7442248">
        <ele>18.4023</ele>
        <time>2013-04-07T12:53:31Z</time>
      </trkpt>
      <trkpt lat="59.8879218" lon="17.7443154">
        <ele>18.4023</ele>
        <time>2013-04-07T12:53:32Z</time>
      </trkpt>
      <trkpt lat="59.8879738" lon="17.7444049">
        <ele>18.4023</ele>
        <time>2013-04-07T12:53:33Z</time>
      </trkpt>
      <trkpt lat="59.8880248" lon="17.7444944">
        <ele>18.4023</ele>
        <time>2013-04-07T12:53:34Z</time>
      </trkpt>
      <trkpt lat="59.8880757" lon="17.744583">
        <ele>18.4023</ele>
        <time>2013-04-07T12:53:35Z</time>
      </trkpt>
      <trkpt lat="59.8881274" lon="17.7446704">
        <ele>18.4023</ele>
        <time>2013-04-07T12:53:36Z</time>
      </trkpt>
      <trkpt lat="59.8881787" lon="17.7447565">
        <ele>18.4023</ele>
        <time>2013-04-07T12:53:37Z</time>
      </trkpt>
      <trkpt lat="59.8882288" lon="17.7448425">
        <ele>18.8831</ele>
        <time>2013-04-07T12:53:38Z</time>
      </trkpt>
      <trkpt lat="59.8882765" lon="17.7449286">
        <ele>18.8831</ele>
        <time>2013-04-07T12:53:39Z</time>
      </trkpt>
      <trkpt lat="59.8883237" lon="17.7450128">
        <ele>18.8831</ele>
        <time>2013-04-07T12:53:40Z</time>
      </trkpt>
      <trkpt lat="59.8883723" lon="17.7450959">
        <ele>18.8831</ele>
        <time>2013-04-07T12:53:41Z</time>
      </trkpt>
      <trkpt lat="59.8884221" lon="17.7451791">
        <ele>18.8831</ele>
        <time>2013-04-07T12:53:42Z</time>
      </trkpt>
      <trkpt lat="59.8884722" lon="17.7452633">
        <ele>19.3638</ele>
        <time>2013-04-07T12:53:43Z</time>
      </trkpt>
      <trkpt lat="59.8885231" lon="17.7453497">
        <ele>19.3638</ele>
        <time>2013-04-07T12:53:44Z</time>
      </trkpt>
      <trkpt lat="59.8885742" lon="17.7454393">
        <ele>19.3638</ele>
        <time>2013-04-07T12:53:45Z</time>
      </trkpt>
      <trkpt lat="59.8886267" lon="17.7455307">
        <ele>19.8444</ele>
        <time>2013-04-07T12:53:46Z</time>
      </trkpt>
      <trkpt lat="59.8886797" lon="17.7456192">
        <ele>19.8444</ele>
        <time>2013-04-07T12:53:47Z</time>
      </trkpt>
      <trkpt lat="59.8887308" lon="17.745706">
        <ele>19.8444</ele>
        <time>2013-04-07T12:53:48Z</time>
      </trkpt>
      <trkpt lat="59.8887791" lon="17.7457917">
        <ele>19.8444</ele>
        <time>2013-04-07T12:53:49Z</time>
      </trkpt>
      <trkpt lat="59.8888258" lon="17.7458766">
        <ele>19.8444</ele>
        <time>2013-04-07T12:53:50Z</time>
      </trkpt>
      <trkpt lat="59.8888726" lon="17.7459593">
        <ele>19.8444</ele>
        <time>2013-04-07T12:53:51Z</time>
      </trkpt>
      <trkpt lat="59.8889192" lon="17.7460392">
        <ele>19.8444</ele>
        <time>2013-04-07T12:53:52Z</time>
      </trkpt>
      <trkpt lat="59.8889661" lon="17.7461185">
        <ele>19.8444</ele>
        <time>2013-04-07T12:53:53Z</time>
      </trkpt>
      <trkpt lat="59.8890126" lon="17.7461972">
        <ele>19.8444</ele>
        <time>2013-04-07T12:53:54Z</time>
      </trkpt>
      <trkpt lat="59.8890582" lon="17.7462749">
        <ele>19.8444</ele>
        <time>2013-04-07T12:53:55Z</time>
      </trkpt>
      <trkpt lat="59.8891019" lon="17.7463526">
        <ele>19.8444</ele>
        <time>2013-04-07T12:53:56Z</time>
      </trkpt>
      <trkpt lat="59.8891457" lon="17.7464291">
        <ele>19.8444</ele>
        <time>2013-04-07T12:53:57Z</time>
      </trkpt>
      <trkpt lat="59.8891896" lon="17.7465039">
        <ele>19.8444</ele>
        <time>2013-04-07T12:53:58Z</time>
      </trkpt>
      <trkpt lat="59.8892326" lon="17.7465807">
        <ele>19.8444</ele>
        <time>2013-04-07T12:53:59Z</time>
      </trkpt>
      <trkpt lat="59.8892751" lon="17.7466571">
        <ele>19.8444</ele>
        <time>2013-04-07T12:54:00Z</time>
      </trkpt>
      <trkpt lat="59.8893182" lon="17.7467313">
        <ele>19.8444</ele>
        <time>2013-04-07T12:54:01Z</time>
      </trkpt>
      <trkpt lat="59.8893612" lon="17.7468048">
        <ele>19.8444</ele>
        <time>2013-04-07T12:54:02Z</time>
      </trkpt>
      <trkpt lat="59.8894039" lon="17.7468783">
        <ele>19.3638</ele>
        <time>2013-04-07T12:54:03Z</time>
      </trkpt>
      <trkpt lat="59.889447" lon="17.7469505">
        <ele>19.3638</ele>
        <time>2013-04-07T12:54:04Z</time>
      </trkpt>
      <trkpt lat="59.88949" lon="17.7470229">
        <ele>19.3638</ele>
        <time>2013-04-07T12:54:05Z</time>
      </trkpt>
      <trkpt lat="59.8895323" lon="17.747096">
        <ele>19.3638</ele>
        <time>2013-04-07T12:54:06Z</time>
      </trkpt>
      <trkpt lat="59.8895742" lon="17.7471695">
        <ele>19.3638</ele>
        <time>2013-04-07T12:54:07Z</time>
      </trkpt>
      <trkpt lat="59.8896161" lon="17.7472418">
        <ele>19.3638</ele>
        <time>2013-04-07T12:54:08Z</time>
      </trkpt>
      <trkpt lat="59.8896576" lon="17.747314">
        <ele>19.3638</ele>
        <time>2013-04-07T12:54:09Z</time>
      </trkpt>
      <trkpt lat="59.8896989" lon="17.7473866">
        <ele>19.3638</ele>
        <time>2013-04-07T12:54:10Z</time>
      </trkpt>
      <trkpt lat="59.8897403" lon="17.7474596">
        <ele>19.3638</ele>
        <time>2013-04-07T12:54:11Z</time>
      </trkpt>
      <trkpt lat="59.8897819" lon="17.7475326">
        <ele>19.3638</ele>
        <time>2013-04-07T12:54:12Z</time>
      </trkpt>
      <trkpt lat="59.8898231" lon="17.7476058">
        <ele>19.3638</ele>
        <time>2013-04-07T12:54:13Z</time>
      </trkpt>
      <trkpt lat="59.8898647" lon="17.7476771">
        <ele>19.3638</ele>
        <time>2013-04-07T12:54:14Z</time>
      </trkpt>
      <trkpt lat="59.8899071" lon="17.747745">
        <ele>19.3638</ele>
        <time>2013-04-07T12:54:15Z</time>
      </trkpt>
      <trkpt lat="59.8899486" lon="17.7478134">
        <ele>19.3638</ele>
        <time>2013-04-07T12:54:16Z</time>
      </trkpt>
      <trkpt lat="59.8899876" lon="17.7478828">
        <ele>19.8444</ele>
        <time>2013-04-07T12:54:17Z</time>
      </trkpt>
      <trkpt lat="59.8900259" lon="17.7479496">
        <ele>19.8444</ele>
        <time>2013-04-07T12:54:18Z</time>
      </trkpt>
      <trkpt lat="59.8900641" lon="17.7480121">
        <ele>19.8444</ele>
        <time>2013-04-07T12:54:19Z</time>
      </trkpt>
      <trkpt lat="59.8901014" lon="17.7480743">
        <ele>19.8444</ele>
        <time>2013-04-07T12:54:20Z</time>
      </trkpt>
      <trkpt lat="59.890137" lon="17.748137">
        <ele>20.325</ele>
        <time>2013-04-07T12:54:21Z</time>
      </trkpt>
      <trkpt lat="59.890171" lon="17.7481999">
        <ele>20.325</ele>
        <time>2013-04-07T12:54:22Z</time>
      </trkpt>
      <trkpt lat="59.8902049" lon="17.7482608">
        <ele>20.8057</ele>
        <time>2013-04-07T12:54:23Z</time>
      </trkpt>
      <trkpt lat="59.8902725" lon="17.7483722">
        <ele>20.8057</ele>
        <time>2013-04-07T12:54:25Z</time>
      </trkpt>
      <trkpt lat="59.8903035" lon="17.7484231">
        <ele>20.325</ele>
        <time>2013-04-07T12:54:26Z</time>
      </trkpt>
      <trkpt lat="59.8903334" lon="17.7484747">
        <ele>20.325</ele>
        <time>2013-04-07T12:54:27Z</time>
      </trkpt>
      <trkpt lat="59.890361" lon="17.7485317">
        <ele>20.325</ele>
        <time>2013-04-07T12:54:28Z</time>
      </trkpt>
      <trkpt lat="59.8903838" lon="17.7485952">
        <ele>19.8444</ele>
        <time>2013-04-07T12:54:29Z</time>
      </trkpt>
      <trkpt lat="59.8904025" lon="17.748664">
        <ele>19.3638</ele>
        <time>2013-04-07T12:54:30Z</time>
      </trkpt>
      <trkpt lat="59.8904197" lon="17.7487374">
        <ele>19.3638</ele>
        <time>2013-04-07T12:54:31Z</time>
      </trkpt>
      <trkpt lat="59.8904298" lon="17.748823">
        <ele>19.3638</ele>
        <time>2013-04-07T12:54:32Z</time>
      </trkpt>
      <trkpt lat="59.8904311" lon="17.7489126">
        <ele>19.3638</ele>
        <time>2013-04-07T12:54:33Z</time>
      </trkpt>
      <trkpt lat="59.8904211" lon="17.7490005">
        <ele>19.3638</ele>
        <time>2013-04-07T12:54:34Z</time>
      </trkpt>
      <trkpt lat="59.890404" lon="17.7490842">
        <ele>19.3638</ele>
        <time>2013-04-07T12:54:35Z</time>
      </trkpt>
      <trkpt lat="59.8903803" lon="17.7491602">
        <ele>19.3638</ele>
        <time>2013-04-07T12:54:36Z</time>
      </trkpt>
      <trkpt lat="59.8903554" lon="17.7492234">
        <ele>18.8831</ele>
        <time>2013-04-07T12:54:37Z</time>
      </trkpt>
      <trkpt lat="59.8903298" lon="17.7492815">
        <ele>18.8831</ele>
        <time>2013-04-07T12:54:38Z</time>
      </trkpt>
      <trkpt lat="59.8903015" lon="17.7493414">
        <ele>18.8831</ele>
        <time>2013-04-07T12:54:39Z</time>
      </trkpt>
      <trkpt lat="59.8902719" lon="17.7494045">
        <ele>18.8831</ele>
        <time>2013-04-07T12:54:40Z</time>
      </trkpt>
      <trkpt lat="59.890244" lon="17.749469">
        <ele>18.8831</ele>
        <time>2013-04-07T12:54:41Z</time>
      </trkpt>
      <trkpt lat="59.890218" lon="17.7495367">
        <ele>18.8831</ele>
        <time>2013-04-07T12:54:42Z</time>
      </trkpt>
      <trkpt lat="59.8901849" lon="17.7496067">
        <ele>19.3638</ele>
        <time>2013-04-07T12:54:43Z</time>
      </trkpt>
      <trkpt lat="59.8901506" lon="17.7496741">
        <ele>19.3638</ele>
        <time>2013-04-07T12:54:44Z</time>
      </trkpt>
      <trkpt lat="59.8901222" lon="17.7497394">
        <ele>19.3638</ele>
        <time>2013-04-07T12:54:45Z</time>
      </trkpt>
      <trkpt lat="59.8900912" lon="17.7498055">
        <ele>19.8444</ele>
        <time>2013-04-07T12:54:46Z</time>
      </trkpt>
      <trkpt lat="59.8900479" lon="17.7498803">
        <ele>19.3638</ele>
        <time>2013-04-07T12:54:47Z</time>
      </trkpt>
      <trkpt lat="59.8900005" lon="17.7499508">
        <ele>18.8831</ele>
        <time>2013-04-07T12:54:48Z</time>
      </trkpt>
      <trkpt lat="59.8899539" lon="17.7500181">
        <ele>18.8831</ele>
        <time>2013-04-07T12:54:49Z</time>
      </trkpt>
      <trkpt lat="59.8899092" lon="17.7500827">
        <ele>18.4023</ele>
        <time>2013-04-07T12:54:50Z</time>
      </trkpt>
      <trkpt lat="59.889856" lon="17.7500873">
        <ele>18.8831</ele>
        <time>2013-04-07T12:54:51Z</time>
      </trkpt>
      <trkpt lat="59.8898236" lon="17.7501169">
        <ele>18.8831</ele>
        <time>2013-04-07T12:54:52Z</time>
      </trkpt>
      <trkpt lat="59.8897896" lon="17.7501781">
        <ele>18.8831</ele>
        <time>2013-04-07T12:54:53Z</time>
      </trkpt>
      <trkpt lat="59.8897527" lon="17.7502456">
        <ele>19.3638</ele>
        <time>2013-04-07T12:54:54Z</time>
      </trkpt>
      <trkpt lat="59.8897114" lon="17.7503186">
        <ele>19.3638</ele>
        <time>2013-04-07T12:54:55Z</time>
      </trkpt>
      <trkpt lat="59.8896698" lon="17.7503968">
        <ele>19.8444</ele>
        <time>2013-04-07T12:54:56Z</time>
      </trkpt>
      <trkpt lat="59.8896321" lon="17.750469">
        <ele>19.8444</ele>
        <time>2013-04-07T12:54:57Z</time>
      </trkpt>
      <trkpt lat="59.8895971" lon="17.7505418">
        <ele>19.8444</ele>
        <time>2013-04-07T12:54:58Z</time>
      </trkpt>
      <trkpt lat="59.8895647" lon="17.7506112">
        <ele>19.8444</ele>
        <time>2013-04-07T12:54:59Z</time>
      </trkpt>
      <trkpt lat="59.8895363" lon="17.7506869">
        <ele>19.8444</ele>
        <time>2013-04-07T12:55:00Z</time>
      </trkpt>
      <trkpt lat="59.889511" lon="17.7507702">
        <ele>19.8444</ele>
        <time>2013-04-07T12:55:01Z</time>
      </trkpt>
      <trkpt lat="59.8895035" lon="17.7508447">
        <ele>20.325</ele>
        <time>2013-04-07T12:55:02Z</time>
      </trkpt>
      <trkpt lat="59.889487" lon="17.7509373">
        <ele>20.325</ele>
        <time>2013-04-07T12:55:03Z</time>
      </trkpt>
      <trkpt lat="59.8894729" lon="17.7510359">
        <ele>20.325</ele>
        <time>2013-04-07T12:55:04Z</time>
      </trkpt>
      <trkpt lat="59.8894612" lon="17.7511389">
        <ele>20.325</ele>
        <time>2013-04-07T12:55:05Z</time>
      </trkpt>
      <trkpt lat="59.8894509" lon="17.7512478">
        <ele>19.8444</ele>
        <time>2013-04-07T12:55:06Z</time>
      </trkpt>
      <trkpt lat="59.8894447" lon="17.7513595">
        <ele>19.8444</ele>
        <time>2013-04-07T12:55:07Z</time>
      </trkpt>
      <trkpt lat="59.8894405" lon="17.7514738">
        <ele>19.8444</ele>
        <time>2013-04-07T12:55:08Z</time>
      </trkpt>
      <trkpt lat="59.8894348" lon="17.7515923">
        <ele>19.3638</ele>
        <time>2013-04-07T12:55:09Z</time>
      </trkpt>
      <trkpt lat="59.889429" lon="17.7517131">
        <ele>19.3638</ele>
        <time>2013-04-07T12:55:10Z</time>
      </trkpt>
      <trkpt lat="59.8894233" lon="17.7518351">
        <ele>18.8831</ele>
        <time>2013-04-07T12:55:11Z</time>
      </trkpt>
      <trkpt lat="59.8894157" lon="17.751957">
        <ele>18.8831</ele>
        <time>2013-04-07T12:55:12Z</time>
      </trkpt>
      <trkpt lat="59.8894073" lon="17.7520801">
        <ele>18.8831</ele>
        <time>2013-04-07T12:55:13Z</time>
      </trkpt>
      <trkpt lat="59.8893995" lon="17.7522036">
        <ele>18.8831</ele>
        <time>2013-04-07T12:55:14Z</time>
      </trkpt>
      <trkpt lat="59.8893916" lon="17.7523278">
        <ele>18.4023</ele>
        <time>2013-04-07T12:55:15Z</time>
      </trkpt>
      <trkpt lat="59.8893811" lon="17.7524521">
        <ele>18.4023</ele>
        <time>2013-04-07T12:55:16Z</time>
      </trkpt>
      <trkpt lat="59.8893701" lon="17.7525765">
        <ele>18.4023</ele>
        <time>2013-04-07T12:55:17Z</time>
      </trkpt>
      <trkpt lat="59.8893566" lon="17.7527015">
        <ele>18.4023</ele>
        <time>2013-04-07T12:55:18Z</time>
      </trkpt>
      <trkpt lat="59.8893424" lon="17.7528256">
        <ele>18.4023</ele>
        <time>2013-04-07T12:55:19Z</time>
      </trkpt>
      <trkpt lat="59.8893245" lon="17.7529495">
        <ele>18.8831</ele>
        <time>2013-04-07T12:55:20Z</time>
      </trkpt>
      <trkpt lat="59.889303" lon="17.7530686">
        <ele>18.8831</ele>
        <time>2013-04-07T12:55:21Z</time>
      </trkpt>
      <trkpt lat="59.8892748" lon="17.7531857">
        <ele>19.3638</ele>
        <time>2013-04-07T12:55:22Z</time>
      </trkpt>
      <trkpt lat="59.8892417" lon="17.7533011">
        <ele>19.3638</ele>
        <time>2013-04-07T12:55:23Z</time>
      </trkpt>
      <trkpt lat="59.889207" lon="17.753414">
        <ele>19.3638</ele>
        <time>2013-04-07T12:55:24Z</time>
      </trkpt>
      <trkpt lat="59.8891715" lon="17.7535275">
        <ele>19.3638</ele>
        <time>2013-04-07T12:55:25Z</time>
      </trkpt>
      <trkpt lat="59.8891366" lon="17.7536441">
        <ele>19.3638</ele>
        <time>2013-04-07T12:55:26Z</time>
      </trkpt>
      <trkpt lat="59.8891028" lon="17.7537628">
        <ele>19.3638</ele>
        <time>2013-04-07T12:55:27Z</time>
      </trkpt>
      <trkpt lat="59.889069" lon="17.7538828">
        <ele>19.8444</ele>
        <time>2013-04-07T12:55:28Z</time>
      </trkpt>
      <trkpt lat="59.8890392" lon="17.7540032">
        <ele>19.8444</ele>
        <time>2013-04-07T12:55:29Z</time>
      </trkpt>
      <trkpt lat="59.8890117" lon="17.7541228">
        <ele>19.8444</ele>
        <time>2013-04-07T12:55:30Z</time>
      </trkpt>
      <trkpt lat="59.8889853" lon="17.7542388">
        <ele>20.325</ele>
        <time>2013-04-07T12:55:31Z</time>
      </trkpt>
      <trkpt lat="59.8889593" lon="17.7543527">
        <ele>20.325</ele>
        <time>2013-04-07T12:55:32Z</time>
      </trkpt>
      <trkpt lat="59.8889324" lon="17.7544632">
        <ele>20.325</ele>
        <time>2013-04-07T12:55:33Z</time>
      </trkpt>
      <trkpt lat="59.8889031" lon="17.7545709">
        <ele>20.8057</ele>
        <time>2013-04-07T12:55:34Z</time>
      </trkpt>
      <trkpt lat="59.8888686" lon="17.7546746">
        <ele>20.8057</ele>
        <time>2013-04-07T12:55:35Z</time>
      </trkpt>
      <trkpt lat="59.8888345" lon="17.7547709">
        <ele>21.2864</ele>
        <time>2013-04-07T12:55:36Z</time>
      </trkpt>
      <trkpt lat="59.8887982" lon="17.7548597">
        <ele>21.2864</ele>
        <time>2013-04-07T12:55:37Z</time>
      </trkpt>
      <trkpt lat="59.8887619" lon="17.7549372">
        <ele>21.2864</ele>
        <time>2013-04-07T12:55:38Z</time>
      </trkpt>
      <trkpt lat="59.8887158" lon="17.755007">
        <ele>21.2864</ele>
        <time>2013-04-07T12:55:39Z</time>
      </trkpt>
      <trkpt lat="59.888664" lon="17.7550681">
        <ele>21.767</ele>
        <time>2013-04-07T12:55:40Z</time>
      </trkpt>
      <trkpt lat="59.8886076" lon="17.7551185">
        <ele>21.2864</ele>
        <time>2013-04-07T12:55:41Z</time>
      </trkpt>
      <trkpt lat="59.8885527" lon="17.7551623">
        <ele>21.767</ele>
        <time>2013-04-07T12:55:42Z</time>
      </trkpt>
      <trkpt lat="59.8884979" lon="17.7551993">
        <ele>21.767</ele>
        <time>2013-04-07T12:55:43Z</time>
      </trkpt>
      <trkpt lat="59.8884427" lon="17.7552347">
        <ele>21.767</ele>
        <time>2013-04-07T12:55:44Z</time>
      </trkpt>
      <trkpt lat="59.8883878" lon="17.7552675">
        <ele>22.2476</ele>
        <time>2013-04-07T12:55:45Z</time>
      </trkpt>
      <trkpt lat="59.8883354" lon="17.7552905">
        <ele>22.2476</ele>
        <time>2013-04-07T12:55:46Z</time>
      </trkpt>
      <trkpt lat="59.8882899" lon="17.7553001">
        <ele>22.2476</ele>
        <time>2013-04-07T12:55:47Z</time>
      </trkpt>
      <trkpt lat="59.8882453" lon="17.7553057">
        <ele>22.7283</ele>
        <time>2013-04-07T12:55:48Z</time>
      </trkpt>
      <trkpt lat="59.8882021" lon="17.7553057">
        <ele>22.7283</ele>
        <time>2013-04-07T12:55:49Z</time>
      </trkpt>
      <trkpt lat="59.8881629" lon="17.7553037">
        <ele>23.6896</ele>
        <time>2013-04-07T12:55:50Z</time>
      </trkpt>
      <trkpt lat="59.8881202" lon="17.7553033">
        <ele>24.1703</ele>
        <time>2013-04-07T12:55:51Z</time>
      </trkpt>
      <trkpt lat="59.8880783" lon="17.7552982">
        <ele>24.651</ele>
        <time>2013-04-07T12:55:52Z</time>
      </trkpt>
      <trkpt lat="59.8880358" lon="17.7552909">
        <ele>24.651</ele>
        <time>2013-04-07T12:55:53Z</time>
      </trkpt>
      <trkpt lat="59.8879937" lon="17.7552809">
        <ele>25.1317</ele>
        <time>2013-04-07T12:55:54Z</time>
      </trkpt>
      <trkpt lat="59.8879553" lon="17.7552676">
        <ele>25.6123</ele>
        <time>2013-04-07T12:55:55Z</time>
      </trkpt>
      <trkpt lat="59.8879135" lon="17.7552577">
        <ele>25.6123</ele>
        <time>2013-04-07T12:55:56Z</time>
      </trkpt>
      <trkpt lat="59.8878705" lon="17.755247">
        <ele>26.0929</ele>
        <time>2013-04-07T12:55:57Z</time>
      </trkpt>
      <trkpt lat="59.8878259" lon="17.7552371">
        <ele>26.0929</ele>
        <time>2013-04-07T12:55:58Z</time>
      </trkpt>
      <trkpt lat="59.8877812" lon="17.7552339">
        <ele>26.5736</ele>
        <time>2013-04-07T12:55:59Z</time>
      </trkpt>
      <trkpt lat="59.8877373" lon="17.7552343">
        <ele>26.5736</ele>
        <time>2013-04-07T12:56:00Z</time>
      </trkpt>
      <trkpt lat="59.8876938" lon="17.7552402">
        <ele>27.0543</ele>
        <time>2013-04-07T12:56:01Z</time>
      </trkpt>
      <trkpt lat="59.8876491" lon="17.7552519">
        <ele>27.5349</ele>
        <time>2013-04-07T12:56:02Z</time>
      </trkpt>
      <trkpt lat="59.8876029" lon="17.7552734">
        <ele>27.5349</ele>
        <time>2013-04-07T12:56:03Z</time>
      </trkpt>
      <trkpt lat="59.887556" lon="17.7553008">
        <ele>28.0155</ele>
        <time>2013-04-07T12:56:04Z</time>
      </trkpt>
      <trkpt lat="59.8875094" lon="17.7553323">
        <ele>28.4962</ele>
        <time>2013-04-07T12:56:05Z</time>
      </trkpt>
      <trkpt lat="59.8874617" lon="17.7553722">
        <ele>28.4962</ele>
        <time>2013-04-07T12:56:06Z</time>
      </trkpt>
      <trkpt lat="59.887413" lon="17.7554193">
        <ele>28.9769</ele>
        <time>2013-04-07T12:56:07Z</time>
      </trkpt>
      <trkpt lat="59.8873631" lon="17.7554757">
        <ele>28.9769</ele>
        <time>2013-04-07T12:56:08Z</time>
      </trkpt>
      <trkpt lat="59.8873154" lon="17.7555414">
        <ele>29.4575</ele>
        <time>2013-04-07T12:56:09Z</time>
      </trkpt>
      <trkpt lat="59.8872726" lon="17.7556077">
        <ele>29.4575</ele>
        <time>2013-04-07T12:56:10Z</time>
      </trkpt>
      <trkpt lat="59.8872333" lon="17.7556741">
        <ele>29.9381</ele>
        <time>2013-04-07T12:56:11Z</time>
      </trkpt>
      <trkpt lat="59.887196" lon="17.7557415">
        <ele>30.4188</ele>
        <time>2013-04-07T12:56:12Z</time>
      </trkpt>
      <trkpt lat="59.8871608" lon="17.7558068">
        <ele>29.9381</ele>
        <time>2013-04-07T12:56:13Z</time>
      </trkpt>
      <trkpt lat="59.8871275" lon="17.7558721">
        <ele>30.4188</ele>
        <time>2013-04-07T12:56:14Z</time>
      </trkpt>
      <trkpt lat="59.8870948" lon="17.7559357">
        <ele>30.8995</ele>
        <time>2013-04-07T12:56:15Z</time>
      </trkpt>
      <trkpt lat="59.8870585" lon="17.7559973">
        <ele>30.8995</ele>
        <time>2013-04-07T12:56:16Z</time>
      </trkpt>
      <trkpt lat="59.8870223" lon="17.7560601">
        <ele>30.8995</ele>
        <time>2013-04-07T12:56:17Z</time>
      </trkpt>
      <trkpt lat="59.8869841" lon="17.7561183">
        <ele>30.8995</ele>
        <time>2013-04-07T12:56:18Z</time>
      </trkpt>
      <trkpt lat="59.8869463" lon="17.756173">
        <ele>30.4188</ele>
        <time>2013-04-07T12:56:19Z</time>
      </trkpt>
      <trkpt lat="59.886908" lon="17.7562244">
        <ele>30.4188</ele>
        <time>2013-04-07T12:56:20Z</time>
      </trkpt>
      <trkpt lat="59.8868665" lon="17.7562711">
        <ele>30.4188</ele>
        <time>2013-04-07T12:56:21Z</time>
      </trkpt>
      <trkpt lat="59.8868241" lon="17.756312">
        <ele>30.4188</ele>
        <time>2013-04-07T12:56:22Z</time>
      </trkpt>
      <trkpt lat="59.8867798" lon="17.7563554">
        <ele>30.4188</ele>
        <time>2013-04-07T12:56:23Z</time>
      </trkpt>
      <trkpt lat="59.8867324" lon="17.756401">
        <ele>30.8995</ele>
        <time>2013-04-07T12:56:24Z</time>
      </trkpt>
      <trkpt lat="59.8866825" lon="17.7564475">
        <ele>30.8995</ele>
        <time>2013-04-07T12:56:25Z</time>
      </trkpt>
      <trkpt lat="59.8866333" lon="17.7564891">
        <ele>30.4188</ele>
        <time>2013-04-07T12:56:26Z</time>
      </trkpt>
      <trkpt lat="59.8865801" lon="17.7565313">
        <ele>30.4188</ele>
        <time>2013-04-07T12:56:27Z</time>
      </trkpt>
      <trkpt lat="59.8865275" lon="17.7565665">
        <ele>30.4188</ele>
        <time>2013-04-07T12:56:28Z</time>
      </trkpt>
      <trkpt lat="59.8864703" lon="17.7565935">
        <ele>30.4188</ele>
        <time>2013-04-07T12:56:29Z</time>
      </trkpt>
      <trkpt lat="59.8864092" lon="17.7566299">
        <ele>30.4188</ele>
        <time>2013-04-07T12:56:30Z</time>
      </trkpt>
      <trkpt lat="59.8863485" lon="17.7566772">
        <ele>29.4575</ele>
        <time>2013-04-07T12:56:31Z</time>
      </trkpt>
      <trkpt lat="59.8862826" lon="17.7567337">
        <ele>28.4962</ele>
        <time>2013-04-07T12:56:32Z</time>
      </trkpt>
      <trkpt lat="59.8862095" lon="17.7568003">
        <ele>27.5349</ele>
        <time>2013-04-07T12:56:33Z</time>
      </trkpt>
      <trkpt lat="59.886135" lon="17.756872">
        <ele>27.0543</ele>
        <time>2013-04-07T12:56:34Z</time>
      </trkpt>
      <trkpt lat="59.8860614" lon="17.7569536">
        <ele>27.5349</ele>
        <time>2013-04-07T12:56:35Z</time>
      </trkpt>
      <trkpt lat="59.8859894" lon="17.7570431">
        <ele>27.0543</ele>
        <time>2013-04-07T12:56:36Z</time>
      </trkpt>
      <trkpt lat="59.885922" lon="17.7571406">
        <ele>27.0543</ele>
        <time>2013-04-07T12:56:37Z</time>
      </trkpt>
      <trkpt lat="59.8858606" lon="17.7572479">
        <ele>27.0543</ele>
        <time>2013-04-07T12:56:38Z</time>
      </trkpt>
      <trkpt lat="59.8858044" lon="17.7573645">
        <ele>27.0543</ele>
        <time>2013-04-07T12:56:39Z</time>
      </trkpt>
      <trkpt lat="59.8857505" lon="17.7574863">
        <ele>27.0543</ele>
        <time>2013-04-07T12:56:40Z</time>
      </trkpt>
      <trkpt lat="59.8857055" lon="17.7576116">
        <ele>26.5736</ele>
        <time>2013-04-07T12:56:41Z</time>
      </trkpt>
      <trkpt lat="59.8856647" lon="17.7577458">
        <ele>26.5736</ele>
        <time>2013-04-07T12:56:42Z</time>
      </trkpt>
      <trkpt lat="59.8856276" lon="17.7578856">
        <ele>26.5736</ele>
        <time>2013-04-07T12:56:43Z</time>
      </trkpt>
      <trkpt lat="59.8855944" lon="17.7580274">
        <ele>26.0929</ele>
        <time>2013-04-07T12:56:44Z</time>
      </trkpt>
      <trkpt lat="59.8855661" lon="17.7581747">
        <ele>25.6123</ele>
        <time>2013-04-07T12:56:45Z</time>
      </trkpt>
      <trkpt lat="59.8855431" lon="17.758327">
        <ele>25.6123</ele>
        <time>2013-04-07T12:56:46Z</time>
      </trkpt>
      <trkpt lat="59.8855253" lon="17.7584806">
        <ele>25.1317</ele>
        <time>2013-04-07T12:56:47Z</time>
      </trkpt>
      <trkpt lat="59.8854938" lon="17.7587">
        <ele>25.1317</ele>
        <time>2013-04-07T12:56:48Z</time>
      </trkpt>
      <trkpt lat="59.8854757" lon="17.7588668">
        <ele>25.1317</ele>
        <time>2013-04-07T12:56:49Z</time>
      </trkpt>
      <trkpt lat="59.885458" lon="17.7590326">
        <ele>25.1317</ele>
        <time>2013-04-07T12:56:50Z</time>
      </trkpt>
      <trkpt lat="59.8854424" lon="17.7591916">
        <ele>24.651</ele>
        <time>2013-04-07T12:56:51Z</time>
      </trkpt>
      <trkpt lat="59.8854301" lon="17.7593443">
        <ele>24.651</ele>
        <time>2013-04-07T12:56:52Z</time>
      </trkpt>
      <trkpt lat="59.8854166" lon="17.759495">
        <ele>24.651</ele>
        <time>2013-04-07T12:56:53Z</time>
      </trkpt>
      <trkpt lat="59.8854056" lon="17.7596371">
        <ele>24.651</ele>
        <time>2013-04-07T12:56:54Z</time>
      </trkpt>
      <trkpt lat="59.8853923" lon="17.7597768">
        <ele>24.651</ele>
        <time>2013-04-07T12:56:55Z</time>
      </trkpt>
      <trkpt lat="59.885377" lon="17.7599153">
        <ele>24.1703</ele>
        <time>2013-04-07T12:56:56Z</time>
      </trkpt>
      <trkpt lat="59.8853626" lon="17.7600538">
        <ele>24.1703</ele>
        <time>2013-04-07T12:56:57Z</time>
      </trkpt>
      <trkpt lat="59.8853504" lon="17.7601914">
        <ele>24.1703</ele>
        <time>2013-04-07T12:56:58Z</time>
      </trkpt>
      <trkpt lat="59.8853392" lon="17.7603238">
        <ele>24.1703</ele>
        <time>2013-04-07T12:56:59Z</time>
      </trkpt>
      <trkpt lat="59.8853249" lon="17.7604564">
        <ele>24.1703</ele>
        <time>2013-04-07T12:57:00Z</time>
      </trkpt>
      <trkpt lat="59.8853098" lon="17.7605854">
        <ele>24.1703</ele>
        <time>2013-04-07T12:57:01Z</time>
      </trkpt>
      <trkpt lat="59.8852959" lon="17.760712">
        <ele>24.1703</ele>
        <time>2013-04-07T12:57:02Z</time>
      </trkpt>
      <trkpt lat="59.8852815" lon="17.7608375">
        <ele>23.6896</ele>
        <time>2013-04-07T12:57:03Z</time>
      </trkpt>
      <trkpt lat="59.88527" lon="17.7609573">
        <ele>23.6896</ele>
        <time>2013-04-07T12:57:04Z</time>
      </trkpt>
      <trkpt lat="59.8852566" lon="17.761075">
        <ele>23.209</ele>
        <time>2013-04-07T12:57:05Z</time>
      </trkpt>
      <trkpt lat="59.8852441" lon="17.7611887">
        <ele>23.209</ele>
        <time>2013-04-07T12:57:06Z</time>
      </trkpt>
      <trkpt lat="59.8852296" lon="17.7613023">
        <ele>22.7283</ele>
        <time>2013-04-07T12:57:07Z</time>
      </trkpt>
      <trkpt lat="59.8852116" lon="17.7614169">
        <ele>22.7283</ele>
        <time>2013-04-07T12:57:08Z</time>
      </trkpt>
      <trkpt lat="59.8851937" lon="17.7615307">
        <ele>22.2476</ele>
        <time>2013-04-07T12:57:09Z</time>
      </trkpt>
      <trkpt lat="59.8851774" lon="17.7616452">
        <ele>22.2476</ele>
        <time>2013-04-07T12:57:10Z</time>
      </trkpt>
      <trkpt lat="59.8851637" lon="17.7617608">
        <ele>22.7283</ele>
        <time>2013-04-07T12:57:11Z</time>
      </trkpt>
      <trkpt lat="59.8851487" lon="17.7618758">
        <ele>22.7283</ele>
        <time>2013-04-07T12:57:12Z</time>
      </trkpt>
      <trkpt lat="59.8851351" lon="17.7619907">
        <ele>22.7283</ele>
        <time>2013-04-07T12:57:13Z</time>
      </trkpt>
      <trkpt lat="59.885117" lon="17.7620995">
        <ele>22.7283</ele>
        <time>2013-04-07T12:57:14Z</time>
      </trkpt>
      <trkpt lat="59.8850996" lon="17.7621997">
        <ele>22.2476</ele>
        <time>2013-04-07T12:57:15Z</time>
      </trkpt>
      <trkpt lat="59.8850877" lon="17.7622962">
        <ele>22.2476</ele>
        <time>2013-04-07T12:57:16Z</time>
      </trkpt>
      <trkpt lat="59.8850727" lon="17.7623903">
        <ele>22.2476</ele>
        <time>2013-04-07T12:57:17Z</time>
      </trkpt>
      <trkpt lat="59.8850639" lon="17.7624756">
        <ele>22.2476</ele>
        <time>2013-04-07T12:57:18Z</time>
      </trkpt>
      <trkpt lat="59.8850521" lon="17.7625584">
        <ele>21.767</ele>
        <time>2013-04-07T12:57:19Z</time>
      </trkpt>
      <trkpt lat="59.8850388" lon="17.7626409">
        <ele>21.767</ele>
        <time>2013-04-07T12:57:20Z</time>
      </trkpt>
      <trkpt lat="59.8850264" lon="17.7627259">
        <ele>21.767</ele>
        <time>2013-04-07T12:57:21Z</time>
      </trkpt>
      <trkpt lat="59.8850131" lon="17.762815">
        <ele>21.767</ele>
        <time>2013-04-07T12:57:22Z</time>
      </trkpt>
      <trkpt lat="59.8849994" lon="17.7629072">
        <ele>21.767</ele>
        <time>2013-04-07T12:57:23Z</time>
      </trkpt>
      <trkpt lat="59.8849851" lon="17.763">
        <ele>21.767</ele>
        <time>2013-04-07T12:57:24Z</time>
      </trkpt>
      <trkpt lat="59.8849701" lon="17.7630937">
        <ele>21.767</ele>
        <time>2013-04-07T12:57:25Z</time>
      </trkpt>
      <trkpt lat="59.8849529" lon="17.763189">
        <ele>21.767</ele>
        <time>2013-04-07T12:57:26Z</time>
      </trkpt>
      <trkpt lat="59.8849332" lon="17.7632863">
        <ele>22.2476</ele>
        <time>2013-04-07T12:57:27Z</time>
      </trkpt>
      <trkpt lat="59.8849167" lon="17.7633806">
        <ele>22.7283</ele>
        <time>2013-04-07T12:57:28Z</time>
      </trkpt>
      <trkpt lat="59.8848955" lon="17.7634733">
        <ele>23.209</ele>
        <time>2013-04-07T12:57:29Z</time>
      </trkpt>
      <trkpt lat="59.8848735" lon="17.7635638">
        <ele>23.209</ele>
        <time>2013-04-07T12:57:30Z</time>
      </trkpt>
      <trkpt lat="59.884855" lon="17.7636547">
        <ele>23.6896</ele>
        <time>2013-04-07T12:57:31Z</time>
      </trkpt>
      <trkpt lat="59.8848375" lon="17.7637453">
        <ele>24.651</ele>
        <time>2013-04-07T12:57:32Z</time>
      </trkpt>
      <trkpt lat="59.884823" lon="17.7638292">
        <ele>24.651</ele>
        <time>2013-04-07T12:57:33Z</time>
      </trkpt>
      <trkpt lat="59.8848052" lon="17.7639111">
        <ele>24.1703</ele>
        <time>2013-04-07T12:57:34Z</time>
      </trkpt>
      <trkpt lat="59.8847881" lon="17.7639907">
        <ele>24.1703</ele>
        <time>2013-04-07T12:57:35Z</time>
      </trkpt>
      <trkpt lat="59.88477" lon="17.76408">
        <ele>24.651</ele>
        <time>2013-04-07T12:57:36Z</time>
      </trkpt>
      <trkpt lat="59.8847505" lon="17.7641771">
        <ele>25.1317</ele>
        <time>2013-04-07T12:57:37Z</time>
      </trkpt>
      <trkpt lat="59.884738" lon="17.7642686">
        <ele>25.1317</ele>
        <time>2013-04-07T12:57:38Z</time>
      </trkpt>
      <trkpt lat="59.8847291" lon="17.7643621">
        <ele>25.1317</ele>
        <time>2013-04-07T12:57:39Z</time>
      </trkpt>
      <trkpt lat="59.8847192" lon="17.7644618">
        <ele>25.6123</ele>
        <time>2013-04-07T12:57:40Z</time>
      </trkpt>
      <trkpt lat="59.8847105" lon="17.7645641">
        <ele>25.6123</ele>
        <time>2013-04-07T12:57:41Z</time>
      </trkpt>
      <trkpt lat="59.8847047" lon="17.7646684">
        <ele>26.0929</ele>
        <time>2013-04-07T12:57:42Z</time>
      </trkpt>
      <trkpt lat="59.8847023" lon="17.7647749">
        <ele>26.0929</ele>
        <time>2013-04-07T12:57:43Z</time>
      </trkpt>
      <trkpt lat="59.8846996" lon="17.7648855">
        <ele>26.0929</ele>
        <time>2013-04-07T12:57:44Z</time>
      </trkpt>
      <trkpt lat="59.8846951" lon="17.7649998">
        <ele>26.0929</ele>
        <time>2013-04-07T12:57:45Z</time>
      </trkpt>
      <trkpt lat="59.8846883" lon="17.7651196">
        <ele>26.5736</ele>
        <time>2013-04-07T12:57:46Z</time>
      </trkpt>
      <trkpt lat="59.8846822" lon="17.7652419">
        <ele>26.0929</ele>
        <time>2013-04-07T12:57:47Z</time>
      </trkpt>
      <trkpt lat="59.8846769" lon="17.7653667">
        <ele>26.0929</ele>
        <time>2013-04-07T12:57:48Z</time>
      </trkpt>
      <trkpt lat="59.8846666" lon="17.7654906">
        <ele>26.0929</ele>
        <time>2013-04-07T12:57:49Z</time>
      </trkpt>
      <trkpt lat="59.8846501" lon="17.7656164">
        <ele>26.0929</ele>
        <time>2013-04-07T12:57:50Z</time>
      </trkpt>
      <trkpt lat="59.8846397" lon="17.7657509">
        <ele>26.0929</ele>
        <time>2013-04-07T12:57:51Z</time>
      </trkpt>
      <trkpt lat="59.8846307" lon="17.7658886">
        <ele>26.0929</ele>
        <time>2013-04-07T12:57:52Z</time>
      </trkpt>
      <trkpt lat="59.8846235" lon="17.7660241">
        <ele>26.0929</ele>
        <time>2013-04-07T12:57:53Z</time>
      </trkpt>
      <trkpt lat="59.884612" lon="17.7661909">
        <ele>25.6123</ele>
        <time>2013-04-07T12:57:54Z</time>
      </trkpt>
      <trkpt lat="59.8846023" lon="17.7663452">
        <ele>26.0929</ele>
        <time>2013-04-07T12:57:55Z</time>
      </trkpt>
      <trkpt lat="59.8845966" lon="17.7664819">
        <ele>25.6123</ele>
        <time>2013-04-07T12:57:56Z</time>
      </trkpt>
      <trkpt lat="59.8845853" lon="17.7666405">
        <ele>26.0929</ele>
        <time>2013-04-07T12:57:57Z</time>
      </trkpt>
      <trkpt lat="59.8845788" lon="17.766762">
        <ele>26.0929</ele>
        <time>2013-04-07T12:57:58Z</time>
      </trkpt>
      <trkpt lat="59.8845832" lon="17.7668815">
        <ele>26.0929</ele>
        <time>2013-04-07T12:57:59Z</time>
      </trkpt>
      <trkpt lat="59.8845888" lon="17.7669927">
        <ele>26.0929</ele>
        <time>2013-04-07T12:58:00Z</time>
      </trkpt>
      <trkpt lat="59.884598" lon="17.7671046">
        <ele>26.0929</ele>
        <time>2013-04-07T12:58:01Z</time>
      </trkpt>
      <trkpt lat="59.8846194" lon="17.7672065">
        <ele>27.0543</ele>
        <time>2013-04-07T12:58:02Z</time>
      </trkpt>
      <trkpt lat="59.8846379" lon="17.7673025">
        <ele>27.5349</ele>
        <time>2013-04-07T12:58:03Z</time>
      </trkpt>
      <trkpt lat="59.8846546" lon="17.767404">
        <ele>27.5349</ele>
        <time>2013-04-07T12:58:04Z</time>
      </trkpt>
      <trkpt lat="59.8846649" lon="17.7675097">
        <ele>27.5349</ele>
        <time>2013-04-07T12:58:05Z</time>
      </trkpt>
      <trkpt lat="59.8846708" lon="17.7676181">
        <ele>27.5349</ele>
        <time>2013-04-07T12:58:06Z</time>
      </trkpt>
      <trkpt lat="59.8846769" lon="17.7677219">
        <ele>27.0543</ele>
        <time>2013-04-07T12:58:07Z</time>
      </trkpt>
      <trkpt lat="59.8846752" lon="17.7678335">
        <ele>27.5349</ele>
        <time>2013-04-07T12:58:08Z</time>
      </trkpt>
      <trkpt lat="59.884664" lon="17.7679402">
        <ele>27.5349</ele>
        <time>2013-04-07T12:58:09Z</time>
      </trkpt>
      <trkpt lat="59.8846416" lon="17.7680456">
        <ele>27.5349</ele>
        <time>2013-04-07T12:58:10Z</time>
      </trkpt>
      <trkpt lat="59.8846097" lon="17.7681557">
        <ele>27.5349</ele>
        <time>2013-04-07T12:58:11Z</time>
      </trkpt>
      <trkpt lat="59.8845798" lon="17.7682603">
        <ele>28.0155</ele>
        <time>2013-04-07T12:58:12Z</time>
      </trkpt>
      <trkpt lat="59.8845547" lon="17.7683663">
        <ele>28.0155</ele>
        <time>2013-04-07T12:58:13Z</time>
      </trkpt>
      <trkpt lat="59.8845338" lon="17.7684794">
        <ele>28.4962</ele>
        <time>2013-04-07T12:58:14Z</time>
      </trkpt>
      <trkpt lat="59.8845169" lon="17.7686057">
        <ele>28.0155</ele>
        <time>2013-04-07T12:58:15Z</time>
      </trkpt>
      <trkpt lat="59.8845091" lon="17.7687404">
        <ele>27.5349</ele>
        <time>2013-04-07T12:58:16Z</time>
      </trkpt>
      <trkpt lat="59.8845112" lon="17.7688799">
        <ele>27.5349</ele>
        <time>2013-04-07T12:58:17Z</time>
      </trkpt>
      <trkpt lat="59.8845273" lon="17.7690167">
        <ele>27.0543</ele>
        <time>2013-04-07T12:58:18Z</time>
      </trkpt>
      <trkpt lat="59.8845669" lon="17.7691377">
        <ele>27.0543</ele>
        <time>2013-04-07T12:58:19Z</time>
      </trkpt>
      <trkpt lat="59.8846076" lon="17.7692661">
        <ele>27.5349</ele>
        <time>2013-04-07T12:58:20Z</time>
      </trkpt>
      <trkpt lat="59.8846546" lon="17.7693778">
        <ele>27.0543</ele>
        <time>2013-04-07T12:58:21Z</time>
      </trkpt>
      <trkpt lat="59.8846965" lon="17.7695041">
        <ele>26.5736</ele>
        <time>2013-04-07T12:58:22Z</time>
      </trkpt>
      <trkpt lat="59.8847463" lon="17.7696117">
        <ele>26.5736</ele>
        <time>2013-04-07T12:58:23Z</time>
      </trkpt>
      <trkpt lat="59.8847979" lon="17.7697179">
        <ele>26.5736</ele>
        <time>2013-04-07T12:58:24Z</time>
      </trkpt>
      <trkpt lat="59.8848477" lon="17.7698219">
        <ele>26.0929</ele>
        <time>2013-04-07T12:58:25Z</time>
      </trkpt>
      <trkpt lat="59.8848955" lon="17.769931">
        <ele>26.0929</ele>
        <time>2013-04-07T12:58:26Z</time>
      </trkpt>
      <trkpt lat="59.8849388" lon="17.7700413">
        <ele>26.0929</ele>
        <time>2013-04-07T12:58:27Z</time>
      </trkpt>
      <trkpt lat="59.8849787" lon="17.7701496">
        <ele>25.6123</ele>
        <time>2013-04-07T12:58:28Z</time>
      </trkpt>
      <trkpt lat="59.8850245" lon="17.7702484">
        <ele>25.6123</ele>
        <time>2013-04-07T12:58:29Z</time>
      </trkpt>
      <trkpt lat="59.8850733" lon="17.7703395">
        <ele>25.1317</ele>
        <time>2013-04-07T12:58:30Z</time>
      </trkpt>
      <trkpt lat="59.8851245" lon="17.7704277">
        <ele>25.1317</ele>
        <time>2013-04-07T12:58:31Z</time>
      </trkpt>
      <trkpt lat="59.8851778" lon="17.7705129">
        <ele>25.1317</ele>
        <time>2013-04-07T12:58:32Z</time>
      </trkpt>
      <trkpt lat="59.8852332" lon="17.7705975">
        <ele>25.1317</ele>
        <time>2013-04-07T12:58:33Z</time>
      </trkpt>
      <trkpt lat="59.8852893" lon="17.7706788">
        <ele>25.6123</ele>
        <time>2013-04-07T12:58:34Z</time>
      </trkpt>
      <trkpt lat="59.8853472" lon="17.7707569">
        <ele>25.6123</ele>
        <time>2013-04-07T12:58:35Z</time>
      </trkpt>
      <trkpt lat="59.8854052" lon="17.7708353">
        <ele>25.6123</ele>
        <time>2013-04-07T12:58:36Z</time>
      </trkpt>
      <trkpt lat="59.8854612" lon="17.7709167">
        <ele>25.1317</ele>
        <time>2013-04-07T12:58:37Z</time>
      </trkpt>
      <trkpt lat="59.8855157" lon="17.7710035">
        <ele>25.1317</ele>
        <time>2013-04-07T12:58:38Z</time>
      </trkpt>
      <trkpt lat="59.8855637" lon="17.7711011">
        <ele>24.651</ele>
        <time>2013-04-07T12:58:39Z</time>
      </trkpt>
      <trkpt lat="59.885607" lon="17.771214">
        <ele>24.651</ele>
        <time>2013-04-07T12:58:40Z</time>
      </trkpt>
      <trkpt lat="59.8856461" lon="17.7713337">
        <ele>24.1703</ele>
        <time>2013-04-07T12:58:41Z</time>
      </trkpt>
      <trkpt lat="59.8856816" lon="17.7714575">
        <ele>24.1703</ele>
        <time>2013-04-07T12:58:42Z</time>
      </trkpt>
      <trkpt lat="59.8857099" lon="17.7715875">
        <ele>23.6896</ele>
        <time>2013-04-07T12:58:43Z</time>
      </trkpt>
      <trkpt lat="59.88573" lon="17.7717211">
        <ele>23.6896</ele>
        <time>2013-04-07T12:58:44Z</time>
      </trkpt>
      <trkpt lat="59.8857423" lon="17.7718579">
        <ele>23.6896</ele>
        <time>2013-04-07T12:58:45Z</time>
      </trkpt>
      <trkpt lat="59.8857498" lon="17.7719949">
        <ele>23.6896</ele>
        <time>2013-04-07T12:58:46Z</time>
      </trkpt>
      <trkpt lat="59.8857518" lon="17.7721354">
        <ele>23.6896</ele>
        <time>2013-04-07T12:58:47Z</time>
      </trkpt>
      <trkpt lat="59.8857474" lon="17.7722754">
        <ele>23.6896</ele>
        <time>2013-04-07T12:58:48Z</time>
      </trkpt>
      <trkpt lat="59.8857357" lon="17.7724102">
        <ele>23.6896</ele>
        <time>2013-04-07T12:58:49Z</time>
      </trkpt>
      <trkpt lat="59.8857138" lon="17.7725423">
        <ele>23.209</ele>
        <time>2013-04-07T12:58:50Z</time>
      </trkpt>
      <trkpt lat="59.8856793" lon="17.7726453">
        <ele>22.7283</ele>
        <time>2013-04-07T12:58:51Z</time>
      </trkpt>
      <trkpt lat="59.8856419" lon="17.7727526">
        <ele>22.7283</ele>
        <time>2013-04-07T12:58:52Z</time>
      </trkpt>
      <trkpt lat="59.8855972" lon="17.7728567">
        <ele>22.2476</ele>
        <time>2013-04-07T12:58:53Z</time>
      </trkpt>
      <trkpt lat="59.8855466" lon="17.7729561">
        <ele>22.2476</ele>
        <time>2013-04-07T12:58:54Z</time>
      </trkpt>
      <trkpt lat="59.8854643" lon="17.7730503">
        <ele>22.2476</ele>
        <time>2013-04-07T12:58:55Z</time>
      </trkpt>
      <trkpt lat="59.8853949" lon="17.773146">
        <ele>22.7283</ele>
        <time>2013-04-07T12:58:56Z</time>
      </trkpt>
      <trkpt lat="59.8853315" lon="17.7732337">
        <ele>22.7283</ele>
        <time>2013-04-07T12:58:57Z</time>
      </trkpt>
      <trkpt lat="59.885272" lon="17.7733316">
        <ele>22.7283</ele>
        <time>2013-04-07T12:58:58Z</time>
      </trkpt>
      <trkpt lat="59.8852167" lon="17.7734259">
        <ele>22.7283</ele>
        <time>2013-04-07T12:58:59Z</time>
      </trkpt>
      <trkpt lat="59.8851695" lon="17.7735177">
        <ele>22.7283</ele>
        <time>2013-04-07T12:59:00Z</time>
      </trkpt>
      <trkpt lat="59.8851234" lon="17.773616">
        <ele>23.209</ele>
        <time>2013-04-07T12:59:01Z</time>
      </trkpt>
      <trkpt lat="59.8850885" lon="17.7737153">
        <ele>23.209</ele>
        <time>2013-04-07T12:59:02Z</time>
      </trkpt>
      <trkpt lat="59.8850574" lon="17.7738207">
        <ele>23.6896</ele>
        <time>2013-04-07T12:59:03Z</time>
      </trkpt>
      <trkpt lat="59.8850255" lon="17.7739391">
        <ele>23.6896</ele>
        <time>2013-04-07T12:59:04Z</time>
      </trkpt>
      <trkpt lat="59.884996" lon="17.7740615">
        <ele>23.6896</ele>
        <time>2013-04-07T12:59:05Z</time>
      </trkpt>
      <trkpt lat="59.8849691" lon="17.774182">
        <ele>23.6896</ele>
        <time>2013-04-07T12:59:06Z</time>
      </trkpt>
      <trkpt lat="59.8849395" lon="17.7743013">
        <ele>23.6896</ele>
        <time>2013-04-07T12:59:07Z</time>
      </trkpt>
      <trkpt lat="59.8849073" lon="17.7744194">
        <ele>23.6896</ele>
        <time>2013-04-07T12:59:08Z</time>
      </trkpt>
      <trkpt lat="59.8848722" lon="17.7745375">
        <ele>23.6896</ele>
        <time>2013-04-07T12:59:09Z</time>
      </trkpt>
      <trkpt lat="59.8848347" lon="17.7746532">
        <ele>23.6896</ele>
        <time>2013-04-07T12:59:10Z</time>
      </trkpt>
      <trkpt lat="59.8847966" lon="17.7747677">
        <ele>23.6896</ele>
        <time>2013-04-07T12:59:11Z</time>
      </trkpt>
      <trkpt lat="59.8847556" lon="17.7748829">
        <ele>23.6896</ele>
        <time>2013-04-07T12:59:12Z</time>
      </trkpt>
      <trkpt lat="59.8847127" lon="17.7749996">
        <ele>23.6896</ele>
        <time>2013-04-07T12:59:13Z</time>
      </trkpt>
      <trkpt lat="59.8846702" lon="17.7751158">
        <ele>23.6896</ele>
        <time>2013-04-07T12:59:14Z</time>
      </trkpt>
      <trkpt lat="59.8846267" lon="17.7752317">
        <ele>23.6896</ele>
        <time>2013-04-07T12:59:15Z</time>
      </trkpt>
      <trkpt lat="59.8845836" lon="17.7753472">
        <ele>23.6896</ele>
        <time>2013-04-07T12:59:16Z</time>
      </trkpt>
      <trkpt lat="59.8845411" lon="17.7754638">
        <ele>23.6896</ele>
        <time>2013-04-07T12:59:17Z</time>
      </trkpt>
      <trkpt lat="59.8845001" lon="17.7755819">
        <ele>23.6896</ele>
        <time>2013-04-07T12:59:18Z</time>
      </trkpt>
      <trkpt lat="59.8844588" lon="17.7757031">
        <ele>23.6896</ele>
        <time>2013-04-07T12:59:19Z</time>
      </trkpt>
      <trkpt lat="59.8844161" lon="17.7758252">
        <ele>23.6896</ele>
        <time>2013-04-07T12:59:20Z</time>
      </trkpt>
      <trkpt lat="59.8843747" lon="17.7759497">
        <ele>23.6896</ele>
        <time>2013-04-07T12:59:21Z</time>
      </trkpt>
      <trkpt lat="59.884335" lon="17.776081">
        <ele>23.6896</ele>
        <time>2013-04-07T12:59:22Z</time>
      </trkpt>
      <trkpt lat="59.8842965" lon="17.7762154">
        <ele>23.6896</ele>
        <time>2013-04-07T12:59:23Z</time>
      </trkpt>
      <trkpt lat="59.8842582" lon="17.7763511">
        <ele>23.6896</ele>
        <time>2013-04-07T12:59:24Z</time>
      </trkpt>
      <trkpt lat="59.8842184" lon="17.7764892">
        <ele>23.6896</ele>
        <time>2013-04-07T12:59:25Z</time>
      </trkpt>
      <trkpt lat="59.8841779" lon="17.7766299">
        <ele>23.6896</ele>
        <time>2013-04-07T12:59:26Z</time>
      </trkpt>
      <trkpt lat="59.8841365" lon="17.7767687">
        <ele>23.6896</ele>
        <time>2013-04-07T12:59:27Z</time>
      </trkpt>
      <trkpt lat="59.8840885" lon="17.7769074">
        <ele>23.6896</ele>
        <time>2013-04-07T12:59:28Z</time>
      </trkpt>
      <trkpt lat="59.8840416" lon="17.7770379">
        <ele>23.6896</ele>
        <time>2013-04-07T12:59:29Z</time>
      </trkpt>
      <trkpt lat="59.8839905" lon="17.7771582">
        <ele>23.209</ele>
        <time>2013-04-07T12:59:30Z</time>
      </trkpt>
      <trkpt lat="59.8839345" lon="17.777269">
        <ele>23.209</ele>
        <time>2013-04-07T12:59:31Z</time>
      </trkpt>
      <trkpt lat="59.8838683" lon="17.7773734">
        <ele>23.209</ele>
        <time>2013-04-07T12:59:32Z</time>
      </trkpt>
      <trkpt lat="59.8837993" lon="17.7774632">
        <ele>23.209</ele>
        <time>2013-04-07T12:59:33Z</time>
      </trkpt>
      <trkpt lat="59.8837278" lon="17.7775442">
        <ele>23.209</ele>
        <time>2013-04-07T12:59:34Z</time>
      </trkpt>
      <trkpt lat="59.883655" lon="17.7776171">
        <ele>23.209</ele>
        <time>2013-04-07T12:59:35Z</time>
      </trkpt>
      <trkpt lat="59.8835812" lon="17.7776768">
        <ele>23.6896</ele>
        <time>2013-04-07T12:59:36Z</time>
      </trkpt>
      <trkpt lat="59.8835057" lon="17.7777218">
        <ele>23.6896</ele>
        <time>2013-04-07T12:59:37Z</time>
      </trkpt>
      <trkpt lat="59.88343" lon="17.7777555">
        <ele>23.6896</ele>
        <time>2013-04-07T12:59:38Z</time>
      </trkpt>
      <trkpt lat="59.8833547" lon="17.7777797">
        <ele>23.6896</ele>
        <time>2013-04-07T12:59:39Z</time>
      </trkpt>
      <trkpt lat="59.8832787" lon="17.7778009">
        <ele>23.6896</ele>
        <time>2013-04-07T12:59:40Z</time>
      </trkpt>
      <trkpt lat="59.8832098" lon="17.7778206">
        <ele>23.6896</ele>
        <time>2013-04-07T12:59:41Z</time>
      </trkpt>
      <trkpt lat="59.8831455" lon="17.7778405">
        <ele>23.6896</ele>
        <time>2013-04-07T12:59:42Z</time>
      </trkpt>
      <trkpt lat="59.8830849" lon="17.7778659">
        <ele>23.6896</ele>
        <time>2013-04-07T12:59:43Z</time>
      </trkpt>
      <trkpt lat="59.8830243" lon="17.7779067">
        <ele>23.209</ele>
        <time>2013-04-07T12:59:44Z</time>
      </trkpt>
      <trkpt lat="59.8829668" lon="17.7779709">
        <ele>23.209</ele>
        <time>2013-04-07T12:59:45Z</time>
      </trkpt>
      <trkpt lat="59.8829182" lon="17.7780579">
        <ele>23.209</ele>
        <time>2013-04-07T12:59:46Z</time>
      </trkpt>
      <trkpt lat="59.8828844" lon="17.7781658">
        <ele>23.209</ele>
        <time>2013-04-07T12:59:47Z</time>
      </trkpt>
      <trkpt lat="59.8828629" lon="17.7782851">
        <ele>23.209</ele>
        <time>2013-04-07T12:59:48Z</time>
      </trkpt>
      <trkpt lat="59.8828635" lon="17.778422">
        <ele>23.209</ele>
        <time>2013-04-07T12:59:49Z</time>
      </trkpt>
      <trkpt lat="59.8828631" lon="17.7785476">
        <ele>23.209</ele>
        <time>2013-04-07T12:59:50Z</time>
      </trkpt>
      <trkpt lat="59.8828639" lon="17.7786826">
        <ele>23.209</ele>
        <time>2013-04-07T12:59:51Z</time>
      </trkpt>
      <trkpt lat="59.8828771" lon="17.7788063">
        <ele>23.209</ele>
        <time>2013-04-07T12:59:52Z</time>
      </trkpt>
      <trkpt lat="59.8828924" lon="17.7789285">
        <ele>23.6896</ele>
        <time>2013-04-07T12:59:53Z</time>
      </trkpt>
      <trkpt lat="59.882913" lon="17.7790458">
        <ele>24.1703</ele>
        <time>2013-04-07T12:59:54Z</time>
      </trkpt>
      <trkpt lat="59.8829308" lon="17.7791498">
        <ele>24.651</ele>
        <time>2013-04-07T12:59:55Z</time>
      </trkpt>
      <trkpt lat="59.882954" lon="17.7792525">
        <ele>24.651</ele>
        <time>2013-04-07T12:59:56Z</time>
      </trkpt>
      <trkpt lat="59.8829741" lon="17.7793462">
        <ele>25.1317</ele>
        <time>2013-04-07T12:59:57Z</time>
      </trkpt>
      <trkpt lat="59.8830005" lon="17.779439">
        <ele>25.6123</ele>
        <time>2013-04-07T12:59:58Z</time>
      </trkpt>
      <trkpt lat="59.8830338" lon="17.7795213">
        <ele>26.0929</ele>
        <time>2013-04-07T12:59:59Z</time>
      </trkpt>
      <trkpt lat="59.8830673" lon="17.7795971">
        <ele>26.0929</ele>
        <time>2013-04-07T13:00:00Z</time>
      </trkpt>
      <trkpt lat="59.8831022" lon="17.7796704">
        <ele>26.5736</ele>
        <time>2013-04-07T13:00:01Z</time>
      </trkpt>
      <trkpt lat="59.8831358" lon="17.7797406">
        <ele>26.5736</ele>
        <time>2013-04-07T13:00:02Z</time>
      </trkpt>
      <trkpt lat="59.8831701" lon="17.7798157">
        <ele>26.0929</ele>
        <time>2013-04-07T13:00:03Z</time>
      </trkpt>
      <trkpt lat="59.8832068" lon="17.7798926">
        <ele>26.0929</ele>
        <time>2013-04-07T13:00:04Z</time>
      </trkpt>
      <trkpt lat="59.8832446" lon="17.779977">
        <ele>26.0929</ele>
        <time>2013-04-07T13:00:05Z</time>
      </trkpt>
      <trkpt lat="59.8832757" lon="17.7800699">
        <ele>26.0929</ele>
        <time>2013-04-07T13:00:06Z</time>
      </trkpt>
      <trkpt lat="59.8832973" lon="17.7801771">
        <ele>26.0929</ele>
        <time>2013-04-07T13:00:07Z</time>
      </trkpt>
      <trkpt lat="59.8833136" lon="17.7802894">
        <ele>26.0929</ele>
        <time>2013-04-07T13:00:08Z</time>
      </trkpt>
      <trkpt lat="59.8833212" lon="17.780403">
        <ele>25.6123</ele>
        <time>2013-04-07T13:00:09Z</time>
      </trkpt>
      <trkpt lat="59.8833124" lon="17.7805167">
        <ele>26.0929</ele>
        <time>2013-04-07T13:00:10Z</time>
      </trkpt>
      <trkpt lat="59.8833066" lon="17.7806235">
        <ele>26.0929</ele>
        <time>2013-04-07T13:00:11Z</time>
      </trkpt>
      <trkpt lat="59.8832985" lon="17.7807261">
        <ele>25.6123</ele>
        <time>2013-04-07T13:00:12Z</time>
      </trkpt>
      <trkpt lat="59.8832918" lon="17.7808283">
        <ele>25.6123</ele>
        <time>2013-04-07T13:00:13Z</time>
      </trkpt>
      <trkpt lat="59.8832838" lon="17.7809327">
        <ele>25.1317</ele>
        <time>2013-04-07T13:00:14Z</time>
      </trkpt>
      <trkpt lat="59.8832833" lon="17.7810488">
        <ele>25.1317</ele>
        <time>2013-04-07T13:00:15Z</time>
      </trkpt>
      <trkpt lat="59.8832793" lon="17.7811607">
        <ele>25.1317</ele>
        <time>2013-04-07T13:00:16Z</time>
      </trkpt>
      <trkpt lat="59.8832736" lon="17.7812712">
        <ele>24.651</ele>
        <time>2013-04-07T13:00:17Z</time>
      </trkpt>
      <trkpt lat="59.8832574" lon="17.781411">
        <ele>24.651</ele>
        <time>2013-04-07T13:00:18Z</time>
      </trkpt>
      <trkpt lat="59.8832496" lon="17.7815249">
        <ele>24.1703</ele>
        <time>2013-04-07T13:00:19Z</time>
      </trkpt>
      <trkpt lat="59.8832446" lon="17.7816353">
        <ele>24.1703</ele>
        <time>2013-04-07T13:00:20Z</time>
      </trkpt>
      <trkpt lat="59.8832425" lon="17.7817498">
        <ele>24.1703</ele>
        <time>2013-04-07T13:00:21Z</time>
      </trkpt>
      <trkpt lat="59.8832371" lon="17.7818626">
        <ele>24.1703</ele>
        <time>2013-04-07T13:00:22Z</time>
      </trkpt>
      <trkpt lat="59.8832344" lon="17.7819725">
        <ele>24.651</ele>
        <time>2013-04-07T13:00:23Z</time>
      </trkpt>
      <trkpt lat="59.8832346" lon="17.7820772">
        <ele>25.1317</ele>
        <time>2013-04-07T13:00:24Z</time>
      </trkpt>
      <trkpt lat="59.8832343" lon="17.7821812">
        <ele>25.6123</ele>
        <time>2013-04-07T13:00:25Z</time>
      </trkpt>
      <trkpt lat="59.8832306" lon="17.7822806">
        <ele>25.6123</ele>
        <time>2013-04-07T13:00:26Z</time>
      </trkpt>
      <trkpt lat="59.8832271" lon="17.7823782">
        <ele>25.6123</ele>
        <time>2013-04-07T13:00:27Z</time>
      </trkpt>
      <trkpt lat="59.8832269" lon="17.7824774">
        <ele>25.6123</ele>
        <time>2013-04-07T13:00:28Z</time>
      </trkpt>
      <trkpt lat="59.8832218" lon="17.7825734">
        <ele>26.0929</ele>
        <time>2013-04-07T13:00:29Z</time>
      </trkpt>
      <trkpt lat="59.8832099" lon="17.7826531">
        <ele>26.5736</ele>
        <time>2013-04-07T13:00:30Z</time>
      </trkpt>
      <trkpt lat="59.8831679" lon="17.782704">
        <ele>26.5736</ele>
        <time>2013-04-07T13:00:31Z</time>
      </trkpt>
      <trkpt lat="59.8831009" lon="17.7827383">
        <ele>26.5736</ele>
        <time>2013-04-07T13:00:32Z</time>
      </trkpt>
      <trkpt lat="59.8830239" lon="17.7827594">
        <ele>25.6123</ele>
        <time>2013-04-07T13:00:33Z</time>
      </trkpt>
      <trkpt lat="59.8829461" lon="17.7827738">
        <ele>25.6123</ele>
        <time>2013-04-07T13:00:34Z</time>
      </trkpt>
      <trkpt lat="59.882868" lon="17.7827906">
        <ele>25.1317</ele>
        <time>2013-04-07T13:00:35Z</time>
      </trkpt>
      <trkpt lat="59.8827793" lon="17.7828122">
        <ele>24.651</ele>
        <time>2013-04-07T13:00:36Z</time>
      </trkpt>
      <trkpt lat="59.8826893" lon="17.7828354">
        <ele>24.651</ele>
        <time>2013-04-07T13:00:37Z</time>
      </trkpt>
      <trkpt lat="59.8825996" lon="17.7828612">
        <ele>24.651</ele>
        <time>2013-04-07T13:00:38Z</time>
      </trkpt>
      <trkpt lat="59.8825116" lon="17.782894">
        <ele>24.651</ele>
        <time>2013-04-07T13:00:39Z</time>
      </trkpt>
      <trkpt lat="59.8824246" lon="17.7829277">
        <ele>24.1703</ele>
        <time>2013-04-07T13:00:40Z</time>
      </trkpt>
      <trkpt lat="59.8823389" lon="17.7829562">
        <ele>23.6896</ele>
        <time>2013-04-07T13:00:41Z</time>
      </trkpt>
      <trkpt lat="59.8822525" lon="17.7829828">
        <ele>23.209</ele>
        <time>2013-04-07T13:00:42Z</time>
      </trkpt>
      <trkpt lat="59.8821641" lon="17.7830106">
        <ele>22.7283</ele>
        <time>2013-04-07T13:00:43Z</time>
      </trkpt>
      <trkpt lat="59.8820725" lon="17.7830443">
        <ele>22.2476</ele>
        <time>2013-04-07T13:00:44Z</time>
      </trkpt>
      <trkpt lat="59.88198" lon="17.7830781">
        <ele>21.767</ele>
        <time>2013-04-07T13:00:45Z</time>
      </trkpt>
      <trkpt lat="59.8818838" lon="17.7831143">
        <ele>21.2864</ele>
        <time>2013-04-07T13:00:46Z</time>
      </trkpt>
      <trkpt lat="59.8817849" lon="17.7831495">
        <ele>20.8057</ele>
        <time>2013-04-07T13:00:47Z</time>
      </trkpt>
      <trkpt lat="59.8816849" lon="17.783183">
        <ele>20.325</ele>
        <time>2013-04-07T13:00:48Z</time>
      </trkpt>
      <trkpt lat="59.8815848" lon="17.7832173">
        <ele>20.325</ele>
        <time>2013-04-07T13:00:49Z</time>
      </trkpt>
      <trkpt lat="59.8814822" lon="17.7832511">
        <ele>19.8444</ele>
        <time>2013-04-07T13:00:50Z</time>
      </trkpt>
      <trkpt lat="59.8813782" lon="17.7832871">
        <ele>19.8444</ele>
        <time>2013-04-07T13:00:51Z</time>
      </trkpt>
      <trkpt lat="59.8812745" lon="17.7833215">
        <ele>19.3638</ele>
        <time>2013-04-07T13:00:52Z</time>
      </trkpt>
      <trkpt lat="59.8811695" lon="17.7833567">
        <ele>18.8831</ele>
        <time>2013-04-07T13:00:53Z</time>
      </trkpt>
      <trkpt lat="59.8810627" lon="17.7833953">
        <ele>18.8831</ele>
        <time>2013-04-07T13:00:54Z</time>
      </trkpt>
      <trkpt lat="59.8809534" lon="17.7834307">
        <ele>18.4023</ele>
        <time>2013-04-07T13:00:55Z</time>
      </trkpt>
      <trkpt lat="59.8808414" lon="17.7834478">
        <ele>17.9218</ele>
        <time>2013-04-07T13:00:56Z</time>
      </trkpt>
      <trkpt lat="59.8807236" lon="17.7834369">
        <ele>17.4412</ele>
        <time>2013-04-07T13:00:57Z</time>
      </trkpt>
      <trkpt lat="59.8806095" lon="17.7833954">
        <ele>16.9604</ele>
        <time>2013-04-07T13:00:58Z</time>
      </trkpt>
      <trkpt lat="59.8805019" lon="17.7833304">
        <ele>16.4797</ele>
        <time>2013-04-07T13:00:59Z</time>
      </trkpt>
      <trkpt lat="59.8803983" lon="17.783254">
        <ele>15.999</ele>
        <time>2013-04-07T13:01:00Z</time>
      </trkpt>
      <trkpt lat="59.8802969" lon="17.7831772">
        <ele>15.5184</ele>
        <time>2013-04-07T13:01:01Z</time>
      </trkpt>
      <trkpt lat="59.8801969" lon="17.7831023">
        <ele>15.5184</ele>
        <time>2013-04-07T13:01:02Z</time>
      </trkpt>
      <trkpt lat="59.8800981" lon="17.7830281">
        <ele>15.0377</ele>
        <time>2013-04-07T13:01:03Z</time>
      </trkpt>
      <trkpt lat="59.8800006" lon="17.7829541">
        <ele>14.557</ele>
        <time>2013-04-07T13:01:04Z</time>
      </trkpt>
      <trkpt lat="59.8799053" lon="17.782883">
        <ele>14.0764</ele>
        <time>2013-04-07T13:01:05Z</time>
      </trkpt>
      <trkpt lat="59.8798111" lon="17.7828179">
        <ele>13.5958</ele>
        <time>2013-04-07T13:01:06Z</time>
      </trkpt>
      <trkpt lat="59.8797173" lon="17.7827704">
        <ele>13.5958</ele>
        <time>2013-04-07T13:01:07Z</time>
      </trkpt>
      <trkpt lat="59.8796231" lon="17.7827531">
        <ele>13.1151</ele>
        <time>2013-04-07T13:01:08Z</time>
      </trkpt>
      <trkpt lat="59.879531" lon="17.7827707">
        <ele>13.1151</ele>
        <time>2013-04-07T13:01:09Z</time>
      </trkpt>
      <trkpt lat="59.8794424" lon="17.7828246">
        <ele>13.1151</ele>
        <time>2013-04-07T13:01:10Z</time>
      </trkpt>
      <trkpt lat="59.8793627" lon="17.7829085">
        <ele>13.5958</ele>
        <time>2013-04-07T13:01:11Z</time>
      </trkpt>
      <trkpt lat="59.8792886" lon="17.783011">
        <ele>13.5958</ele>
        <time>2013-04-07T13:01:12Z</time>
      </trkpt>
      <trkpt lat="59.8792185" lon="17.7831236">
        <ele>14.0764</ele>
        <time>2013-04-07T13:01:13Z</time>
      </trkpt>
      <trkpt lat="59.8791497" lon="17.7832394">
        <ele>14.0764</ele>
        <time>2013-04-07T13:01:14Z</time>
      </trkpt>
      <trkpt lat="59.8790809" lon="17.7833531">
        <ele>14.0764</ele>
        <time>2013-04-07T13:01:15Z</time>
      </trkpt>
      <trkpt lat="59.8790089" lon="17.7834614">
        <ele>14.0764</ele>
        <time>2013-04-07T13:01:16Z</time>
      </trkpt>
      <trkpt lat="59.8789368" lon="17.7835699">
        <ele>14.0764</ele>
        <time>2013-04-07T13:01:17Z</time>
      </trkpt>
      <trkpt lat="59.8788654" lon="17.783683">
        <ele>14.557</ele>
        <time>2013-04-07T13:01:18Z</time>
      </trkpt>
      <trkpt lat="59.8787944" lon="17.7837975">
        <ele>14.557</ele>
        <time>2013-04-07T13:01:19Z</time>
      </trkpt>
      <trkpt lat="59.8787233" lon="17.7839119">
        <ele>14.557</ele>
        <time>2013-04-07T13:01:20Z</time>
      </trkpt>
      <trkpt lat="59.8786523" lon="17.7840265">
        <ele>14.557</ele>
        <time>2013-04-07T13:01:21Z</time>
      </trkpt>
      <trkpt lat="59.8785816" lon="17.7841428">
        <ele>14.557</ele>
        <time>2013-04-07T13:01:22Z</time>
      </trkpt>
      <trkpt lat="59.8785116" lon="17.7842627">
        <ele>14.557</ele>
        <time>2013-04-07T13:01:23Z</time>
      </trkpt>
      <trkpt lat="59.8784438" lon="17.7843901">
        <ele>14.557</ele>
        <time>2013-04-07T13:01:24Z</time>
      </trkpt>
      <trkpt lat="59.878382" lon="17.7845292">
        <ele>14.557</ele>
        <time>2013-04-07T13:01:25Z</time>
      </trkpt>
      <trkpt lat="59.8783283" lon="17.78468">
        <ele>15.0377</ele>
        <time>2013-04-07T13:01:26Z</time>
      </trkpt>
      <trkpt lat="59.8782839" lon="17.7848411">
        <ele>15.0377</ele>
        <time>2013-04-07T13:01:27Z</time>
      </trkpt>
      <trkpt lat="59.878247" lon="17.7850089">
        <ele>15.0377</ele>
        <time>2013-04-07T13:01:28Z</time>
      </trkpt>
      <trkpt lat="59.8782145" lon="17.7851789">
        <ele>15.0377</ele>
        <time>2013-04-07T13:01:29Z</time>
      </trkpt>
      <trkpt lat="59.8781837" lon="17.7853479">
        <ele>15.0377</ele>
        <time>2013-04-07T13:01:30Z</time>
      </trkpt>
      <trkpt lat="59.878154" lon="17.7855157">
        <ele>15.0377</ele>
        <time>2013-04-07T13:01:31Z</time>
      </trkpt>
      <trkpt lat="59.8781256" lon="17.7856825">
        <ele>15.0377</ele>
        <time>2013-04-07T13:01:32Z</time>
      </trkpt>
      <trkpt lat="59.8780978" lon="17.7858492">
        <ele>15.0377</ele>
        <time>2013-04-07T13:01:33Z</time>
      </trkpt>
      <trkpt lat="59.8780698" lon="17.7860136">
        <ele>15.0377</ele>
        <time>2013-04-07T13:01:34Z</time>
      </trkpt>
      <trkpt lat="59.8780416" lon="17.7861762">
        <ele>15.0377</ele>
        <time>2013-04-07T13:01:35Z</time>
      </trkpt>
      <trkpt lat="59.8780113" lon="17.7863342">
        <ele>15.0377</ele>
        <time>2013-04-07T13:01:36Z</time>
      </trkpt>
      <trkpt lat="59.8779802" lon="17.7864922">
        <ele>15.5184</ele>
        <time>2013-04-07T13:01:37Z</time>
      </trkpt>
      <trkpt lat="59.8779495" lon="17.7866497">
        <ele>15.5184</ele>
        <time>2013-04-07T13:01:38Z</time>
      </trkpt>
      <trkpt lat="59.8779195" lon="17.786804">
        <ele>15.5184</ele>
        <time>2013-04-07T13:01:39Z</time>
      </trkpt>
      <trkpt lat="59.8778894" lon="17.7869554">
        <ele>15.999</ele>
        <time>2013-04-07T13:01:40Z</time>
      </trkpt>
      <trkpt lat="59.8778604" lon="17.787103">
        <ele>15.999</ele>
        <time>2013-04-07T13:01:41Z</time>
      </trkpt>
      <trkpt lat="59.8778345" lon="17.787248">
        <ele>16.4797</ele>
        <time>2013-04-07T13:01:42Z</time>
      </trkpt>
      <trkpt lat="59.877806" lon="17.7873905">
        <ele>16.9604</ele>
        <time>2013-04-07T13:01:43Z</time>
      </trkpt>
      <trkpt lat="59.8777745" lon="17.7875339">
        <ele>17.4412</ele>
        <time>2013-04-07T13:01:44Z</time>
      </trkpt>
      <trkpt lat="59.877746" lon="17.7876701">
        <ele>17.9218</ele>
        <time>2013-04-07T13:01:45Z</time>
      </trkpt>
      <trkpt lat="59.8777257" lon="17.787792">
        <ele>17.9218</ele>
        <time>2013-04-07T13:01:46Z</time>
      </trkpt>
      <trkpt lat="59.877706" lon="17.7879099">
        <ele>17.4412</ele>
        <time>2013-04-07T13:01:47Z</time>
      </trkpt>
      <trkpt lat="59.8776827" lon="17.7880308">
        <ele>17.4412</ele>
        <time>2013-04-07T13:01:48Z</time>
      </trkpt>
      <trkpt lat="59.877658" lon="17.7881558">
        <ele>17.4412</ele>
        <time>2013-04-07T13:01:49Z</time>
      </trkpt>
      <trkpt lat="59.8776359" lon="17.788285">
        <ele>17.4412</ele>
        <time>2013-04-07T13:01:50Z</time>
      </trkpt>
      <trkpt lat="59.8776185" lon="17.7884174">
        <ele>17.4412</ele>
        <time>2013-04-07T13:01:51Z</time>
      </trkpt>
      <trkpt lat="59.8776081" lon="17.7885519">
        <ele>16.9604</ele>
        <time>2013-04-07T13:01:52Z</time>
      </trkpt>
      <trkpt lat="59.8776048" lon="17.7886866">
        <ele>16.9604</ele>
        <time>2013-04-07T13:01:53Z</time>
      </trkpt>
      <trkpt lat="59.8776055" lon="17.7888205">
        <ele>16.9604</ele>
        <time>2013-04-07T13:01:54Z</time>
      </trkpt>
      <trkpt lat="59.8776077" lon="17.7889527">
        <ele>16.9604</ele>
        <time>2013-04-07T13:01:55Z</time>
      </trkpt>
      <trkpt lat="59.8776127" lon="17.7890828">
        <ele>16.4797</ele>
        <time>2013-04-07T13:01:56Z</time>
      </trkpt>
      <trkpt lat="59.877621" lon="17.7892117">
        <ele>16.4797</ele>
        <time>2013-04-07T13:01:57Z</time>
      </trkpt>
      <trkpt lat="59.8776297" lon="17.7893423">
        <ele>16.4797</ele>
        <time>2013-04-07T13:01:58Z</time>
      </trkpt>
      <trkpt lat="59.8776369" lon="17.789474">
        <ele>16.4797</ele>
        <time>2013-04-07T13:01:59Z</time>
      </trkpt>
      <trkpt lat="59.8776429" lon="17.7896063">
        <ele>16.4797</ele>
        <time>2013-04-07T13:02:00Z</time>
      </trkpt>
      <trkpt lat="59.8776475" lon="17.7897381">
        <ele>16.9604</ele>
        <time>2013-04-07T13:02:01Z</time>
      </trkpt>
      <trkpt lat="59.8776507" lon="17.7898681">
        <ele>16.9604</ele>
        <time>2013-04-07T13:02:02Z</time>
      </trkpt>
      <trkpt lat="59.8776533" lon="17.7899958">
        <ele>17.4412</ele>
        <time>2013-04-07T13:02:03Z</time>
      </trkpt>
      <trkpt lat="59.8776548" lon="17.7901207">
        <ele>17.4412</ele>
        <time>2013-04-07T13:02:04Z</time>
      </trkpt>
      <trkpt lat="59.8776556" lon="17.7902414">
        <ele>17.9218</ele>
        <time>2013-04-07T13:02:05Z</time>
      </trkpt>
      <trkpt lat="59.8776568" lon="17.7903574">
        <ele>17.9218</ele>
        <time>2013-04-07T13:02:06Z</time>
      </trkpt>
      <trkpt lat="59.8776589" lon="17.7904706">
        <ele>17.9218</ele>
        <time>2013-04-07T13:02:07Z</time>
      </trkpt>
      <trkpt lat="59.8776611" lon="17.7905834">
        <ele>18.4023</ele>
        <time>2013-04-07T13:02:08Z</time>
      </trkpt>
      <trkpt lat="59.8776636" lon="17.7906943">
        <ele>18.4023</ele>
        <time>2013-04-07T13:02:09Z</time>
      </trkpt>
      <trkpt lat="59.877667" lon="17.7908032">
        <ele>18.8831</ele>
        <time>2013-04-07T13:02:10Z</time>
      </trkpt>
      <trkpt lat="59.8776711" lon="17.7909127">
        <ele>18.8831</ele>
        <time>2013-04-07T13:02:11Z</time>
      </trkpt>
      <trkpt lat="59.8776755" lon="17.7910227">
        <ele>18.8831</ele>
        <time>2013-04-07T13:02:12Z</time>
      </trkpt>
      <trkpt lat="59.8776796" lon="17.7911341">
        <ele>19.3638</ele>
        <time>2013-04-07T13:02:13Z</time>
      </trkpt>
      <trkpt lat="59.8776827" lon="17.7912476">
        <ele>19.3638</ele>
        <time>2013-04-07T13:02:14Z</time>
      </trkpt>
      <trkpt lat="59.8776867" lon="17.7913624">
        <ele>19.3638</ele>
        <time>2013-04-07T13:02:15Z</time>
      </trkpt>
      <trkpt lat="59.877691" lon="17.7914766">
        <ele>19.3638</ele>
        <time>2013-04-07T13:02:16Z</time>
      </trkpt>
      <trkpt lat="59.877695" lon="17.7915905">
        <ele>19.3638</ele>
        <time>2013-04-07T13:02:17Z</time>
      </trkpt>
      <trkpt lat="59.8776981" lon="17.7917049">
        <ele>19.8444</ele>
        <time>2013-04-07T13:02:18Z</time>
      </trkpt>
      <trkpt lat="59.8776997" lon="17.7918187">
        <ele>19.8444</ele>
        <time>2013-04-07T13:02:19Z</time>
      </trkpt>
      <trkpt lat="59.8776998" lon="17.791934">
        <ele>19.8444</ele>
        <time>2013-04-07T13:02:20Z</time>
      </trkpt>
      <trkpt lat="59.8776983" lon="17.7920508">
        <ele>19.8444</ele>
        <time>2013-04-07T13:02:21Z</time>
      </trkpt>
      <trkpt lat="59.8776945" lon="17.7921686">
        <ele>19.8444</ele>
        <time>2013-04-07T13:02:22Z</time>
      </trkpt>
      <trkpt lat="59.8776895" lon="17.7922876">
        <ele>19.8444</ele>
        <time>2013-04-07T13:02:23Z</time>
      </trkpt>
      <trkpt lat="59.8776834" lon="17.7924048">
        <ele>19.8444</ele>
        <time>2013-04-07T13:02:24Z</time>
      </trkpt>
      <trkpt lat="59.8776759" lon="17.7925218">
        <ele>19.8444</ele>
        <time>2013-04-07T13:02:25Z</time>
      </trkpt>
      <trkpt lat="59.8776675" lon="17.7926394">
        <ele>19.8444</ele>
        <time>2013-04-07T13:02:26Z</time>
      </trkpt>
      <trkpt lat="59.8776575" lon="17.7927585">
        <ele>19.8444</ele>
        <time>2013-04-07T13:02:27Z</time>
      </trkpt>
      <trkpt lat="59.8776455" lon="17.7928811">
        <ele>20.325</ele>
        <time>2013-04-07T13:02:28Z</time>
      </trkpt>
      <trkpt lat="59.8776321" lon="17.7929995">
        <ele>20.325</ele>
        <time>2013-04-07T13:02:29Z</time>
      </trkpt>
      <trkpt lat="59.8776191" lon="17.7931168">
        <ele>20.325</ele>
        <time>2013-04-07T13:02:30Z</time>
      </trkpt>
      <trkpt lat="59.8776065" lon="17.793232">
        <ele>20.325</ele>
        <time>2013-04-07T13:02:31Z</time>
      </trkpt>
      <trkpt lat="59.8775942" lon="17.7933444">
        <ele>20.8057</ele>
        <time>2013-04-07T13:02:32Z</time>
      </trkpt>
      <trkpt lat="59.8775806" lon="17.7934532">
        <ele>20.8057</ele>
        <time>2013-04-07T13:02:33Z</time>
      </trkpt>
      <trkpt lat="59.8775632" lon="17.7935609">
        <ele>20.8057</ele>
        <time>2013-04-07T13:02:34Z</time>
      </trkpt>
      <trkpt lat="59.8775432" lon="17.7936673">
        <ele>21.2864</ele>
        <time>2013-04-07T13:02:35Z</time>
      </trkpt>
      <trkpt lat="59.8775219" lon="17.7937693">
        <ele>20.8057</ele>
        <time>2013-04-07T13:02:36Z</time>
      </trkpt>
      <trkpt lat="59.8774984" lon="17.7938706">
        <ele>20.8057</ele>
        <time>2013-04-07T13:02:37Z</time>
      </trkpt>
      <trkpt lat="59.8774724" lon="17.7939733">
        <ele>20.8057</ele>
        <time>2013-04-07T13:02:38Z</time>
      </trkpt>
      <trkpt lat="59.8774402" lon="17.7940835">
        <ele>20.8057</ele>
        <time>2013-04-07T13:02:39Z</time>
      </trkpt>
      <trkpt lat="59.8774069" lon="17.7941946">
        <ele>20.325</ele>
        <time>2013-04-07T13:02:40Z</time>
      </trkpt>
      <trkpt lat="59.8773713" lon="17.7943079">
        <ele>20.325</ele>
        <time>2013-04-07T13:02:41Z</time>
      </trkpt>
      <trkpt lat="59.8773389" lon="17.7944167">
        <ele>20.325</ele>
        <time>2013-04-07T13:02:42Z</time>
      </trkpt>
      <trkpt lat="59.8773067" lon="17.7945255">
        <ele>20.325</ele>
        <time>2013-04-07T13:02:43Z</time>
      </trkpt>
      <trkpt lat="59.877274" lon="17.7946361">
        <ele>20.325</ele>
        <time>2013-04-07T13:02:44Z</time>
      </trkpt>
      <trkpt lat="59.8772415" lon="17.7947482">
        <ele>19.8444</ele>
        <time>2013-04-07T13:02:45Z</time>
      </trkpt>
      <trkpt lat="59.8772085" lon="17.7948621">
        <ele>19.8444</ele>
        <time>2013-04-07T13:02:46Z</time>
      </trkpt>
      <trkpt lat="59.8771744" lon="17.7949778">
        <ele>19.8444</ele>
        <time>2013-04-07T13:02:47Z</time>
      </trkpt>
      <trkpt lat="59.8771393" lon="17.7950957">
        <ele>19.3638</ele>
        <time>2013-04-07T13:02:48Z</time>
      </trkpt>
      <trkpt lat="59.8771057" lon="17.7952179">
        <ele>19.3638</ele>
        <time>2013-04-07T13:02:49Z</time>
      </trkpt>
      <trkpt lat="59.8770739" lon="17.7953432">
        <ele>19.3638</ele>
        <time>2013-04-07T13:02:50Z</time>
      </trkpt>
      <trkpt lat="59.87704" lon="17.7954671">
        <ele>19.3638</ele>
        <time>2013-04-07T13:02:51Z</time>
      </trkpt>
      <trkpt lat="59.8770041" lon="17.7955867">
        <ele>19.3638</ele>
        <time>2013-04-07T13:02:52Z</time>
      </trkpt>
      <trkpt lat="59.8769675" lon="17.795703">
        <ele>19.3638</ele>
        <time>2013-04-07T13:02:53Z</time>
      </trkpt>
      <trkpt lat="59.8769322" lon="17.7958211">
        <ele>19.3638</ele>
        <time>2013-04-07T13:02:54Z</time>
      </trkpt>
      <trkpt lat="59.876899" lon="17.7959416">
        <ele>19.3638</ele>
        <time>2013-04-07T13:02:55Z</time>
      </trkpt>
      <trkpt lat="59.8768685" lon="17.7960624">
        <ele>19.3638</ele>
        <time>2013-04-07T13:02:56Z</time>
      </trkpt>
      <trkpt lat="59.8768387" lon="17.7961845">
        <ele>19.3638</ele>
        <time>2013-04-07T13:02:57Z</time>
      </trkpt>
      <trkpt lat="59.8768083" lon="17.7963055">
        <ele>19.3638</ele>
        <time>2013-04-07T13:02:58Z</time>
      </trkpt>
      <trkpt lat="59.8767762" lon="17.796426">
        <ele>19.8444</ele>
        <time>2013-04-07T13:02:59Z</time>
      </trkpt>
      <trkpt lat="59.8767437" lon="17.7965458">
        <ele>19.8444</ele>
        <time>2013-04-07T13:03:00Z</time>
      </trkpt>
      <trkpt lat="59.876712" lon="17.7966659">
        <ele>19.8444</ele>
        <time>2013-04-07T13:03:01Z</time>
      </trkpt>
      <trkpt lat="59.8766807" lon="17.7967866">
        <ele>19.8444</ele>
        <time>2013-04-07T13:03:02Z</time>
      </trkpt>
      <trkpt lat="59.8766496" lon="17.79691">
        <ele>19.3638</ele>
        <time>2013-04-07T13:03:03Z</time>
      </trkpt>
      <trkpt lat="59.8766154" lon="17.7970371">
        <ele>19.3638</ele>
        <time>2013-04-07T13:03:04Z</time>
      </trkpt>
      <trkpt lat="59.8765783" lon="17.7971642">
        <ele>19.3638</ele>
        <time>2013-04-07T13:03:05Z</time>
      </trkpt>
      <trkpt lat="59.8765415" lon="17.7972921">
        <ele>19.3638</ele>
        <time>2013-04-07T13:03:06Z</time>
      </trkpt>
      <trkpt lat="59.8765058" lon="17.7974207">
        <ele>19.3638</ele>
        <time>2013-04-07T13:03:07Z</time>
      </trkpt>
      <trkpt lat="59.8764699" lon="17.7975511">
        <ele>18.8831</ele>
        <time>2013-04-07T13:03:08Z</time>
      </trkpt>
      <trkpt lat="59.8764324" lon="17.7976833">
        <ele>18.8831</ele>
        <time>2013-04-07T13:03:09Z</time>
      </trkpt>
      <trkpt lat="59.8763934" lon="17.7978175">
        <ele>18.4023</ele>
        <time>2013-04-07T13:03:10Z</time>
      </trkpt>
      <trkpt lat="59.8763531" lon="17.7979542">
        <ele>18.4023</ele>
        <time>2013-04-07T13:03:11Z</time>
      </trkpt>
      <trkpt lat="59.876311" lon="17.7980935">
        <ele>18.4023</ele>
        <time>2013-04-07T13:03:12Z</time>
      </trkpt>
      <trkpt lat="59.8762678" lon="17.798235">
        <ele>17.9218</ele>
        <time>2013-04-07T13:03:13Z</time>
      </trkpt>
      <trkpt lat="59.8762256" lon="17.7983759">
        <ele>17.9218</ele>
        <time>2013-04-07T13:03:14Z</time>
      </trkpt>
      <trkpt lat="59.8761845" lon="17.7985141">
        <ele>17.9218</ele>
        <time>2013-04-07T13:03:15Z</time>
      </trkpt>
      <trkpt lat="59.8761432" lon="17.7986476">
        <ele>17.9218</ele>
        <time>2013-04-07T13:03:16Z</time>
      </trkpt>
      <trkpt lat="59.876101" lon="17.7987777">
        <ele>18.4023</ele>
        <time>2013-04-07T13:03:17Z</time>
      </trkpt>
      <trkpt lat="59.876058" lon="17.7989032">
        <ele>18.4023</ele>
        <time>2013-04-07T13:03:18Z</time>
      </trkpt>
      <trkpt lat="59.8760135" lon="17.7990214">
        <ele>18.4023</ele>
        <time>2013-04-07T13:03:19Z</time>
      </trkpt>
      <trkpt lat="59.8759676" lon="17.7991357">
        <ele>18.8831</ele>
        <time>2013-04-07T13:03:20Z</time>
      </trkpt>
      <trkpt lat="59.87592" lon="17.7992476">
        <ele>18.8831</ele>
        <time>2013-04-07T13:03:21Z</time>
      </trkpt>
      <trkpt lat="59.8758707" lon="17.7993579">
        <ele>18.4023</ele>
        <time>2013-04-07T13:03:22Z</time>
      </trkpt>
      <trkpt lat="59.875822" lon="17.7994725">
        <ele>18.4023</ele>
        <time>2013-04-07T13:03:23Z</time>
      </trkpt>
      <trkpt lat="59.8757765" lon="17.7995931">
        <ele>18.4023</ele>
        <time>2013-04-07T13:03:24Z</time>
      </trkpt>
      <trkpt lat="59.8757314" lon="17.7997204">
        <ele>18.4023</ele>
        <time>2013-04-07T13:03:25Z</time>
      </trkpt>
      <trkpt lat="59.8756885" lon="17.799853">
        <ele>17.9218</ele>
        <time>2013-04-07T13:03:26Z</time>
      </trkpt>
      <trkpt lat="59.875649" lon="17.7999894">
        <ele>17.9218</ele>
        <time>2013-04-07T13:03:27Z</time>
      </trkpt>
      <trkpt lat="59.8756007" lon="17.800134">
        <ele>17.9218</ele>
        <time>2013-04-07T13:03:28Z</time>
      </trkpt>
      <trkpt lat="59.8755548" lon="17.8002779">
        <ele>17.9218</ele>
        <time>2013-04-07T13:03:29Z</time>
      </trkpt>
      <trkpt lat="59.8755112" lon="17.8004194">
        <ele>17.4412</ele>
        <time>2013-04-07T13:03:30Z</time>
      </trkpt>
      <trkpt lat="59.8754724" lon="17.800558">
        <ele>17.4412</ele>
        <time>2013-04-07T13:03:31Z</time>
      </trkpt>
      <trkpt lat="59.8754349" lon="17.8006974">
        <ele>17.4412</ele>
        <time>2013-04-07T13:03:32Z</time>
      </trkpt>
      <trkpt lat="59.8753992" lon="17.8008395">
        <ele>17.4412</ele>
        <time>2013-04-07T13:03:33Z</time>
      </trkpt>
      <trkpt lat="59.8753657" lon="17.800986">
        <ele>16.9604</ele>
        <time>2013-04-07T13:03:34Z</time>
      </trkpt>
      <trkpt lat="59.8753284" lon="17.8011383">
        <ele>16.9604</ele>
        <time>2013-04-07T13:03:35Z</time>
      </trkpt>
      <trkpt lat="59.8752901" lon="17.8012947">
        <ele>16.4797</ele>
        <time>2013-04-07T13:03:36Z</time>
      </trkpt>
      <trkpt lat="59.8752529" lon="17.8014554">
        <ele>15.999</ele>
        <time>2013-04-07T13:03:37Z</time>
      </trkpt>
      <trkpt lat="59.875215" lon="17.8016189">
        <ele>15.999</ele>
        <time>2013-04-07T13:03:38Z</time>
      </trkpt>
      <trkpt lat="59.8751741" lon="17.8017827">
        <ele>15.5184</ele>
        <time>2013-04-07T13:03:39Z</time>
      </trkpt>
      <trkpt lat="59.8751319" lon="17.8019429">
        <ele>15.5184</ele>
        <time>2013-04-07T13:03:40Z</time>
      </trkpt>
      <trkpt lat="59.8750854" lon="17.8021014">
        <ele>15.0377</ele>
        <time>2013-04-07T13:03:41Z</time>
      </trkpt>
      <trkpt lat="59.8750331" lon="17.8022567">
        <ele>15.0377</ele>
        <time>2013-04-07T13:03:42Z</time>
      </trkpt>
      <trkpt lat="59.8749756" lon="17.8024058">
        <ele>14.557</ele>
        <time>2013-04-07T13:03:43Z</time>
      </trkpt>
      <trkpt lat="59.8749081" lon="17.8025524">
        <ele>14.557</ele>
        <time>2013-04-07T13:03:44Z</time>
      </trkpt>
      <trkpt lat="59.8748381" lon="17.802694">
        <ele>14.557</ele>
        <time>2013-04-07T13:03:45Z</time>
      </trkpt>
      <trkpt lat="59.8747698" lon="17.8028352">
        <ele>14.0764</ele>
        <time>2013-04-07T13:03:46Z</time>
      </trkpt>
      <trkpt lat="59.8747102" lon="17.8029789">
        <ele>14.557</ele>
        <time>2013-04-07T13:03:47Z</time>
      </trkpt>
      <trkpt lat="59.874656" lon="17.8031245">
        <ele>14.557</ele>
        <time>2013-04-07T13:03:48Z</time>
      </trkpt>
      <trkpt lat="59.8746064" lon="17.8032714">
        <ele>14.557</ele>
        <time>2013-04-07T13:03:49Z</time>
      </trkpt>
      <trkpt lat="59.8745554" lon="17.8034247">
        <ele>14.0764</ele>
        <time>2013-04-07T13:03:50Z</time>
      </trkpt>
      <trkpt lat="59.8745109" lon="17.8035736">
        <ele>14.0764</ele>
        <time>2013-04-07T13:03:51Z</time>
      </trkpt>
      <trkpt lat="59.8744669" lon="17.8037212">
        <ele>14.0764</ele>
        <time>2013-04-07T13:03:52Z</time>
      </trkpt>
      <trkpt lat="59.8744224" lon="17.8038656">
        <ele>14.0764</ele>
        <time>2013-04-07T13:03:53Z</time>
      </trkpt>
      <trkpt lat="59.8743756" lon="17.8040065">
        <ele>13.5958</ele>
        <time>2013-04-07T13:03:54Z</time>
      </trkpt>
      <trkpt lat="59.8743274" lon="17.8041448">
        <ele>13.5958</ele>
        <time>2013-04-07T13:03:55Z</time>
      </trkpt>
      <trkpt lat="59.8742784" lon="17.8042801">
        <ele>13.5958</ele>
        <time>2013-04-07T13:03:56Z</time>
      </trkpt>
      <trkpt lat="59.8742276" lon="17.8044112">
        <ele>13.1151</ele>
        <time>2013-04-07T13:03:57Z</time>
      </trkpt>
      <trkpt lat="59.8741751" lon="17.8045371">
        <ele>13.1151</ele>
        <time>2013-04-07T13:03:58Z</time>
      </trkpt>
      <trkpt lat="59.8741219" lon="17.8046592">
        <ele>13.1151</ele>
        <time>2013-04-07T13:03:59Z</time>
      </trkpt>
      <trkpt lat="59.874068" lon="17.8047769">
        <ele>12.6344</ele>
        <time>2013-04-07T13:04:00Z</time>
      </trkpt>
      <trkpt lat="59.8740147" lon="17.8048905">
        <ele>12.6344</ele>
        <time>2013-04-07T13:04:01Z</time>
      </trkpt>
      <trkpt lat="59.8739609" lon="17.8050017">
        <ele>12.6344</ele>
        <time>2013-04-07T13:04:02Z</time>
      </trkpt>
      <trkpt lat="59.8739028" lon="17.8051152">
        <ele>12.6344</ele>
        <time>2013-04-07T13:04:03Z</time>
      </trkpt>
      <trkpt lat="59.8738474" lon="17.8052327">
        <ele>12.6344</ele>
        <time>2013-04-07T13:04:04Z</time>
      </trkpt>
      <trkpt lat="59.8737985" lon="17.8053548">
        <ele>12.6344</ele>
        <time>2013-04-07T13:04:05Z</time>
      </trkpt>
      <trkpt lat="59.8737543" lon="17.8054836">
        <ele>12.6344</ele>
        <time>2013-04-07T13:04:06Z</time>
      </trkpt>
      <trkpt lat="59.8737127" lon="17.8056164">
        <ele>12.6344</ele>
        <time>2013-04-07T13:04:07Z</time>
      </trkpt>
      <trkpt lat="59.8736712" lon="17.8057487">
        <ele>12.6344</ele>
        <time>2013-04-07T13:04:08Z</time>
      </trkpt>
      <trkpt lat="59.8736303" lon="17.8058791">
        <ele>12.6344</ele>
        <time>2013-04-07T13:04:09Z</time>
      </trkpt>
      <trkpt lat="59.8735903" lon="17.8060097">
        <ele>12.6344</ele>
        <time>2013-04-07T13:04:10Z</time>
      </trkpt>
      <trkpt lat="59.8735515" lon="17.8061403">
        <ele>12.6344</ele>
        <time>2013-04-07T13:04:11Z</time>
      </trkpt>
      <trkpt lat="59.8735148" lon="17.8062699">
        <ele>12.6344</ele>
        <time>2013-04-07T13:04:12Z</time>
      </trkpt>
      <trkpt lat="59.8734786" lon="17.8063992">
        <ele>12.6344</ele>
        <time>2013-04-07T13:04:13Z</time>
      </trkpt>
      <trkpt lat="59.8734431" lon="17.8065293">
        <ele>13.1151</ele>
        <time>2013-04-07T13:04:14Z</time>
      </trkpt>
      <trkpt lat="59.8734096" lon="17.80666">
        <ele>13.1151</ele>
        <time>2013-04-07T13:04:15Z</time>
      </trkpt>
      <trkpt lat="59.8733786" lon="17.8067926">
        <ele>13.1151</ele>
        <time>2013-04-07T13:04:16Z</time>
      </trkpt>
      <trkpt lat="59.8733501" lon="17.8069271">
        <ele>13.1151</ele>
        <time>2013-04-07T13:04:17Z</time>
      </trkpt>
      <trkpt lat="59.8733232" lon="17.8070608">
        <ele>13.1151</ele>
        <time>2013-04-07T13:04:18Z</time>
      </trkpt>
      <trkpt lat="59.8732991" lon="17.8071929">
        <ele>13.5958</ele>
        <time>2013-04-07T13:04:19Z</time>
      </trkpt>
      <trkpt lat="59.8732784" lon="17.8073238">
        <ele>13.5958</ele>
        <time>2013-04-07T13:04:20Z</time>
      </trkpt>
      <trkpt lat="59.8732588" lon="17.8074541">
        <ele>13.5958</ele>
        <time>2013-04-07T13:04:21Z</time>
      </trkpt>
      <trkpt lat="59.8732408" lon="17.8075825">
        <ele>13.5958</ele>
        <time>2013-04-07T13:04:22Z</time>
      </trkpt>
      <trkpt lat="59.8732263" lon="17.8077098">
        <ele>14.0764</ele>
        <time>2013-04-07T13:04:23Z</time>
      </trkpt>
      <trkpt lat="59.8732138" lon="17.8078355">
        <ele>14.0764</ele>
        <time>2013-04-07T13:04:24Z</time>
      </trkpt>
      <trkpt lat="59.8732041" lon="17.8079569">
        <ele>14.0764</ele>
        <time>2013-04-07T13:04:25Z</time>
      </trkpt>
      <trkpt lat="59.8731991" lon="17.8080786">
        <ele>14.0764</ele>
        <time>2013-04-07T13:04:26Z</time>
      </trkpt>
      <trkpt lat="59.8731927" lon="17.8082051">
        <ele>14.0764</ele>
        <time>2013-04-07T13:04:27Z</time>
      </trkpt>
      <trkpt lat="59.8731854" lon="17.8083336">
        <ele>14.557</ele>
        <time>2013-04-07T13:04:28Z</time>
      </trkpt>
      <trkpt lat="59.8731787" lon="17.8084623">
        <ele>14.557</ele>
        <time>2013-04-07T13:04:29Z</time>
      </trkpt>
      <trkpt lat="59.873174" lon="17.8085946">
        <ele>14.0764</ele>
        <time>2013-04-07T13:04:30Z</time>
      </trkpt>
      <trkpt lat="59.8731671" lon="17.8087258">
        <ele>14.0764</ele>
        <time>2013-04-07T13:04:31Z</time>
      </trkpt>
      <trkpt lat="59.8731617" lon="17.8088485">
        <ele>14.0764</ele>
        <time>2013-04-07T13:04:32Z</time>
      </trkpt>
      <trkpt lat="59.8731534" lon="17.8089713">
        <ele>13.5958</ele>
        <time>2013-04-07T13:04:33Z</time>
      </trkpt>
      <trkpt lat="59.8731428" lon="17.8090943">
        <ele>13.5958</ele>
        <time>2013-04-07T13:04:34Z</time>
      </trkpt>
      <trkpt lat="59.8731297" lon="17.8092204">
        <ele>13.5958</ele>
        <time>2013-04-07T13:04:35Z</time>
      </trkpt>
      <trkpt lat="59.8731158" lon="17.8093469">
        <ele>13.5958</ele>
        <time>2013-04-07T13:04:36Z</time>
      </trkpt>
      <trkpt lat="59.8731018" lon="17.8094726">
        <ele>13.1151</ele>
        <time>2013-04-07T13:04:37Z</time>
      </trkpt>
      <trkpt lat="59.8730869" lon="17.8095974">
        <ele>13.5958</ele>
        <time>2013-04-07T13:04:38Z</time>
      </trkpt>
      <trkpt lat="59.8730699" lon="17.8097192">
        <ele>13.1151</ele>
        <time>2013-04-07T13:04:39Z</time>
      </trkpt>
      <trkpt lat="59.8730485" lon="17.809842">
        <ele>13.1151</ele>
        <time>2013-04-07T13:04:40Z</time>
      </trkpt>
      <trkpt lat="59.8730231" lon="17.8099653">
        <ele>13.1151</ele>
        <time>2013-04-07T13:04:41Z</time>
      </trkpt>
      <trkpt lat="59.8729963" lon="17.8100884">
        <ele>13.1151</ele>
        <time>2013-04-07T13:04:42Z</time>
      </trkpt>
      <trkpt lat="59.8729683" lon="17.8102096">
        <ele>13.1151</ele>
        <time>2013-04-07T13:04:43Z</time>
      </trkpt>
      <trkpt lat="59.8729378" lon="17.8103274">
        <ele>13.1151</ele>
        <time>2013-04-07T13:04:44Z</time>
      </trkpt>
      <trkpt lat="59.8729044" lon="17.8104443">
        <ele>13.1151</ele>
        <time>2013-04-07T13:04:45Z</time>
      </trkpt>
      <trkpt lat="59.8728689" lon="17.8105635">
        <ele>13.1151</ele>
        <time>2013-04-07T13:04:46Z</time>
      </trkpt>
      <trkpt lat="59.8728308" lon="17.8106872">
        <ele>12.6344</ele>
        <time>2013-04-07T13:04:47Z</time>
      </trkpt>
      <trkpt lat="59.8727849" lon="17.8108234">
        <ele>12.1538</ele>
        <time>2013-04-07T13:04:48Z</time>
      </trkpt>
      <trkpt lat="59.8727374" lon="17.8109635">
        <ele>11.6732</ele>
        <time>2013-04-07T13:04:49Z</time>
      </trkpt>
      <trkpt lat="59.8726903" lon="17.8111044">
        <ele>11.1925</ele>
        <time>2013-04-07T13:04:50Z</time>
      </trkpt>
      <trkpt lat="59.8726495" lon="17.8112404">
        <ele>11.1925</ele>
        <time>2013-04-07T13:04:51Z</time>
      </trkpt>
      <trkpt lat="59.8726095" lon="17.8113751">
        <ele>10.7118</ele>
        <time>2013-04-07T13:04:52Z</time>
      </trkpt>
      <trkpt lat="59.8725696" lon="17.8115105">
        <ele>10.7118</ele>
        <time>2013-04-07T13:04:53Z</time>
      </trkpt>
      <trkpt lat="59.8725311" lon="17.8116494">
        <ele>10.7118</ele>
        <time>2013-04-07T13:04:54Z</time>
      </trkpt>
      <trkpt lat="59.8724954" lon="17.8117935">
        <ele>10.2312</ele>
        <time>2013-04-07T13:04:55Z</time>
      </trkpt>
      <trkpt lat="59.8724617" lon="17.811942">
        <ele>10.7118</ele>
        <time>2013-04-07T13:04:56Z</time>
      </trkpt>
      <trkpt lat="59.872433" lon="17.8120898">
        <ele>10.7118</ele>
        <time>2013-04-07T13:04:57Z</time>
      </trkpt>
      <trkpt lat="59.8724048" lon="17.8122331">
        <ele>11.1925</ele>
        <time>2013-04-07T13:04:58Z</time>
      </trkpt>
      <trkpt lat="59.8723773" lon="17.8123704">
        <ele>11.1925</ele>
        <time>2013-04-07T13:04:59Z</time>
      </trkpt>
      <trkpt lat="59.8723518" lon="17.8125031">
        <ele>11.6732</ele>
        <time>2013-04-07T13:05:00Z</time>
      </trkpt>
      <trkpt lat="59.8723282" lon="17.812632">
        <ele>11.6732</ele>
        <time>2013-04-07T13:05:01Z</time>
      </trkpt>
      <trkpt lat="59.8723049" lon="17.8127575">
        <ele>11.6732</ele>
        <time>2013-04-07T13:05:02Z</time>
      </trkpt>
      <trkpt lat="59.872282" lon="17.8128812">
        <ele>11.6732</ele>
        <time>2013-04-07T13:05:03Z</time>
      </trkpt>
      <trkpt lat="59.8722607" lon="17.8130049">
        <ele>12.1538</ele>
        <time>2013-04-07T13:05:04Z</time>
      </trkpt>
      <trkpt lat="59.8722395" lon="17.8131288">
        <ele>12.1538</ele>
        <time>2013-04-07T13:05:05Z</time>
      </trkpt>
      <trkpt lat="59.8722167" lon="17.8132514">
        <ele>12.1538</ele>
        <time>2013-04-07T13:05:06Z</time>
      </trkpt>
      <trkpt lat="59.8721939" lon="17.8133736">
        <ele>12.1538</ele>
        <time>2013-04-07T13:05:07Z</time>
      </trkpt>
      <trkpt lat="59.872172" lon="17.8134964">
        <ele>12.1538</ele>
        <time>2013-04-07T13:05:08Z</time>
      </trkpt>
      <trkpt lat="59.8721502" lon="17.8136193">
        <ele>12.6344</ele>
        <time>2013-04-07T13:05:09Z</time>
      </trkpt>
      <trkpt lat="59.8721286" lon="17.8137421">
        <ele>12.6344</ele>
        <time>2013-04-07T13:05:10Z</time>
      </trkpt>
      <trkpt lat="59.872108" lon="17.8138652">
        <ele>12.6344</ele>
        <time>2013-04-07T13:05:11Z</time>
      </trkpt>
      <trkpt lat="59.8720899" lon="17.8139854">
        <ele>12.6344</ele>
        <time>2013-04-07T13:05:12Z</time>
      </trkpt>
      <trkpt lat="59.8720702" lon="17.8141078">
        <ele>12.6344</ele>
        <time>2013-04-07T13:05:13Z</time>
      </trkpt>
      <trkpt lat="59.8720525" lon="17.8142336">
        <ele>12.6344</ele>
        <time>2013-04-07T13:05:14Z</time>
      </trkpt>
      <trkpt lat="59.8720344" lon="17.814362">
        <ele>13.1151</ele>
        <time>2013-04-07T13:05:15Z</time>
      </trkpt>
      <trkpt lat="59.8720152" lon="17.8144911">
        <ele>13.1151</ele>
        <time>2013-04-07T13:05:16Z</time>
      </trkpt>
      <trkpt lat="59.8719972" lon="17.8146217">
        <ele>13.5958</ele>
        <time>2013-04-07T13:05:17Z</time>
      </trkpt>
      <trkpt lat="59.8719827" lon="17.8147556">
        <ele>13.5958</ele>
        <time>2013-04-07T13:05:18Z</time>
      </trkpt>
      <trkpt lat="59.8719713" lon="17.8148912">
        <ele>13.5958</ele>
        <time>2013-04-07T13:05:19Z</time>
      </trkpt>
      <trkpt lat="59.8719658" lon="17.8150288">
        <ele>14.0764</ele>
        <time>2013-04-07T13:05:20Z</time>
      </trkpt>
      <trkpt lat="59.8719644" lon="17.815169">
        <ele>14.0764</ele>
        <time>2013-04-07T13:05:21Z</time>
      </trkpt>
      <trkpt lat="59.871967" lon="17.8153096">
        <ele>14.0764</ele>
        <time>2013-04-07T13:05:22Z</time>
      </trkpt>
      <trkpt lat="59.8719637" lon="17.8154609">
        <ele>14.0764</ele>
        <time>2013-04-07T13:05:23Z</time>
      </trkpt>
      <trkpt lat="59.8719459" lon="17.8156427">
        <ele>14.557</ele>
        <time>2013-04-07T13:05:24Z</time>
      </trkpt>
      <trkpt lat="59.8719432" lon="17.8157955">
        <ele>14.557</ele>
        <time>2013-04-07T13:05:25Z</time>
      </trkpt>
      <trkpt lat="59.8719458" lon="17.8159403">
        <ele>14.557</ele>
        <time>2013-04-07T13:05:26Z</time>
      </trkpt>
      <trkpt lat="59.871955" lon="17.8160826">
        <ele>15.0377</ele>
        <time>2013-04-07T13:05:27Z</time>
      </trkpt>
      <trkpt lat="59.8719627" lon="17.8162201">
        <ele>15.0377</ele>
        <time>2013-04-07T13:05:28Z</time>
      </trkpt>
      <trkpt lat="59.871972" lon="17.8163544">
        <ele>15.5184</ele>
        <time>2013-04-07T13:05:29Z</time>
      </trkpt>
      <trkpt lat="59.8719815" lon="17.8164849">
        <ele>15.999</ele>
        <time>2013-04-07T13:05:30Z</time>
      </trkpt>
      <trkpt lat="59.8719898" lon="17.8166129">
        <ele>15.999</ele>
        <time>2013-04-07T13:05:31Z</time>
      </trkpt>
      <trkpt lat="59.871998" lon="17.8167405">
        <ele>16.4797</ele>
        <time>2013-04-07T13:05:32Z</time>
      </trkpt>
      <trkpt lat="59.8720057" lon="17.8168688">
        <ele>16.4797</ele>
        <time>2013-04-07T13:05:33Z</time>
      </trkpt>
      <trkpt lat="59.8720094" lon="17.8169927">
        <ele>15.999</ele>
        <time>2013-04-07T13:05:34Z</time>
      </trkpt>
      <trkpt lat="59.8720163" lon="17.8171206">
        <ele>16.4797</ele>
        <time>2013-04-07T13:05:35Z</time>
      </trkpt>
      <trkpt lat="59.872025" lon="17.8172507">
        <ele>15.999</ele>
        <time>2013-04-07T13:05:36Z</time>
      </trkpt>
      <trkpt lat="59.8720368" lon="17.8173841">
        <ele>15.999</ele>
        <time>2013-04-07T13:05:37Z</time>
      </trkpt>
      <trkpt lat="59.8720489" lon="17.8175183">
        <ele>15.999</ele>
        <time>2013-04-07T13:05:38Z</time>
      </trkpt>
      <trkpt lat="59.8720618" lon="17.8176531">
        <ele>15.999</ele>
        <time>2013-04-07T13:05:39Z</time>
      </trkpt>
      <trkpt lat="59.872079" lon="17.8177898">
        <ele>15.999</ele>
        <time>2013-04-07T13:05:40Z</time>
      </trkpt>
      <trkpt lat="59.8720973" lon="17.8179271">
        <ele>15.999</ele>
        <time>2013-04-07T13:05:41Z</time>
      </trkpt>
      <trkpt lat="59.8721126" lon="17.8180612">
        <ele>15.999</ele>
        <time>2013-04-07T13:05:42Z</time>
      </trkpt>
      <trkpt lat="59.8721271" lon="17.8181945">
        <ele>15.999</ele>
        <time>2013-04-07T13:05:43Z</time>
      </trkpt>
      <trkpt lat="59.8721416" lon="17.818327">
        <ele>15.999</ele>
        <time>2013-04-07T13:05:44Z</time>
      </trkpt>
      <trkpt lat="59.8721567" lon="17.8184577">
        <ele>15.999</ele>
        <time>2013-04-07T13:05:45Z</time>
      </trkpt>
      <trkpt lat="59.872173" lon="17.8185897">
        <ele>15.999</ele>
        <time>2013-04-07T13:05:46Z</time>
      </trkpt>
      <trkpt lat="59.8721892" lon="17.818721">
        <ele>15.999</ele>
        <time>2013-04-07T13:05:47Z</time>
      </trkpt>
      <trkpt lat="59.8722058" lon="17.8188531">
        <ele>15.999</ele>
        <time>2013-04-07T13:05:48Z</time>
      </trkpt>
      <trkpt lat="59.8722218" lon="17.8189849">
        <ele>15.999</ele>
        <time>2013-04-07T13:05:49Z</time>
      </trkpt>
      <trkpt lat="59.8722379" lon="17.8191168">
        <ele>15.5184</ele>
        <time>2013-04-07T13:05:50Z</time>
      </trkpt>
      <trkpt lat="59.8722539" lon="17.8192485">
        <ele>15.999</ele>
        <time>2013-04-07T13:05:51Z</time>
      </trkpt>
      <trkpt lat="59.8722698" lon="17.8193796">
        <ele>15.999</ele>
        <time>2013-04-07T13:05:52Z</time>
      </trkpt>
      <trkpt lat="59.8722851" lon="17.81951">
        <ele>15.5184</ele>
        <time>2013-04-07T13:05:53Z</time>
      </trkpt>
      <trkpt lat="59.8723001" lon="17.8196412">
        <ele>15.5184</ele>
        <time>2013-04-07T13:05:54Z</time>
      </trkpt>
      <trkpt lat="59.8723156" lon="17.8197733">
        <ele>15.5184</ele>
        <time>2013-04-07T13:05:55Z</time>
      </trkpt>
      <trkpt lat="59.872332" lon="17.8199059">
        <ele>15.5184</ele>
        <time>2013-04-07T13:05:56Z</time>
      </trkpt>
      <trkpt lat="59.8723473" lon="17.8200381">
        <ele>15.999</ele>
        <time>2013-04-07T13:05:57Z</time>
      </trkpt>
      <trkpt lat="59.8723617" lon="17.8201706">
        <ele>15.999</ele>
        <time>2013-04-07T13:05:58Z</time>
      </trkpt>
      <trkpt lat="59.8723774" lon="17.8203027">
        <ele>15.999</ele>
        <time>2013-04-07T13:05:59Z</time>
      </trkpt>
      <trkpt lat="59.8723942" lon="17.8204343">
        <ele>15.999</ele>
        <time>2013-04-07T13:06:00Z</time>
      </trkpt>
      <trkpt lat="59.872411" lon="17.8205647">
        <ele>15.999</ele>
        <time>2013-04-07T13:06:01Z</time>
      </trkpt>
      <trkpt lat="59.8724266" lon="17.8206944">
        <ele>15.999</ele>
        <time>2013-04-07T13:06:02Z</time>
      </trkpt>
      <trkpt lat="59.8724411" lon="17.8208233">
        <ele>15.999</ele>
        <time>2013-04-07T13:06:03Z</time>
      </trkpt>
      <trkpt lat="59.8724556" lon="17.8209519">
        <ele>16.4797</ele>
        <time>2013-04-07T13:06:04Z</time>
      </trkpt>
      <trkpt lat="59.8724714" lon="17.8210802">
        <ele>16.4797</ele>
        <time>2013-04-07T13:06:05Z</time>
      </trkpt>
      <trkpt lat="59.8724871" lon="17.8212082">
        <ele>16.4797</ele>
        <time>2013-04-07T13:06:06Z</time>
      </trkpt>
      <trkpt lat="59.8725016" lon="17.8213356">
        <ele>16.9604</ele>
        <time>2013-04-07T13:06:07Z</time>
      </trkpt>
      <trkpt lat="59.872516" lon="17.8214618">
        <ele>16.9604</ele>
        <time>2013-04-07T13:06:08Z</time>
      </trkpt>
      <trkpt lat="59.8725312" lon="17.8215867">
        <ele>16.9604</ele>
        <time>2013-04-07T13:06:09Z</time>
      </trkpt>
      <trkpt lat="59.8725461" lon="17.8217096">
        <ele>17.4412</ele>
        <time>2013-04-07T13:06:10Z</time>
      </trkpt>
      <trkpt lat="59.8725596" lon="17.8218307">
        <ele>17.4412</ele>
        <time>2013-04-07T13:06:11Z</time>
      </trkpt>
      <trkpt lat="59.8725731" lon="17.8219489">
        <ele>17.4412</ele>
        <time>2013-04-07T13:06:12Z</time>
      </trkpt>
      <trkpt lat="59.8725869" lon="17.8220645">
        <ele>17.9218</ele>
        <time>2013-04-07T13:06:13Z</time>
      </trkpt>
      <trkpt lat="59.8725993" lon="17.8221792">
        <ele>17.9218</ele>
        <time>2013-04-07T13:06:14Z</time>
      </trkpt>
      <trkpt lat="59.8726099" lon="17.8222903">
        <ele>17.9218</ele>
        <time>2013-04-07T13:06:15Z</time>
      </trkpt>
      <trkpt lat="59.8726233" lon="17.8224013">
        <ele>18.4023</ele>
        <time>2013-04-07T13:06:16Z</time>
      </trkpt>
      <trkpt lat="59.8726368" lon="17.8225105">
        <ele>18.4023</ele>
        <time>2013-04-07T13:06:17Z</time>
      </trkpt>
      <trkpt lat="59.8726493" lon="17.8226173">
        <ele>18.8831</ele>
        <time>2013-04-07T13:06:18Z</time>
      </trkpt>
      <trkpt lat="59.8726606" lon="17.8227218">
        <ele>18.8831</ele>
        <time>2013-04-07T13:06:19Z</time>
      </trkpt>
      <trkpt lat="59.8726751" lon="17.8228217">
        <ele>19.3638</ele>
        <time>2013-04-07T13:06:20Z</time>
      </trkpt>
      <trkpt lat="59.8726942" lon="17.8229146">
        <ele>19.3638</ele>
        <time>2013-04-07T13:06:21Z</time>
      </trkpt>
      <trkpt lat="59.872718" lon="17.8230046">
        <ele>19.3638</ele>
        <time>2013-04-07T13:06:22Z</time>
      </trkpt>
      <trkpt lat="59.8727459" lon="17.8230915">
        <ele>19.3638</ele>
        <time>2013-04-07T13:06:23Z</time>
      </trkpt>
      <trkpt lat="59.8727749" lon="17.823184">
        <ele>19.3638</ele>
        <time>2013-04-07T13:06:24Z</time>
      </trkpt>
      <trkpt lat="59.8728029" lon="17.8232771">
        <ele>18.8831</ele>
        <time>2013-04-07T13:06:25Z</time>
      </trkpt>
      <trkpt lat="59.8728294" lon="17.8233734">
        <ele>18.4023</ele>
        <time>2013-04-07T13:06:26Z</time>
      </trkpt>
      <trkpt lat="59.8728569" lon="17.8234818">
        <ele>18.8831</ele>
        <time>2013-04-07T13:06:27Z</time>
      </trkpt>
      <trkpt lat="59.8728766" lon="17.823596">
        <ele>18.4023</ele>
        <time>2013-04-07T13:06:28Z</time>
      </trkpt>
      <trkpt lat="59.8728904" lon="17.8237164">
        <ele>18.4023</ele>
        <time>2013-04-07T13:06:29Z</time>
      </trkpt>
      <trkpt lat="59.872899" lon="17.8238423">
        <ele>17.9218</ele>
        <time>2013-04-07T13:06:30Z</time>
      </trkpt>
      <trkpt lat="59.8729026" lon="17.8239724">
        <ele>17.9218</ele>
        <time>2013-04-07T13:06:31Z</time>
      </trkpt>
      <trkpt lat="59.8728994" lon="17.8241057">
        <ele>17.9218</ele>
        <time>2013-04-07T13:06:32Z</time>
      </trkpt>
      <trkpt lat="59.872891" lon="17.824243">
        <ele>17.4412</ele>
        <time>2013-04-07T13:06:33Z</time>
      </trkpt>
      <trkpt lat="59.8728788" lon="17.8243845">
        <ele>17.4412</ele>
        <time>2013-04-07T13:06:34Z</time>
      </trkpt>
      <trkpt lat="59.8728631" lon="17.8245291">
        <ele>17.4412</ele>
        <time>2013-04-07T13:06:35Z</time>
      </trkpt>
      <trkpt lat="59.8728456" lon="17.8246781">
        <ele>16.9604</ele>
        <time>2013-04-07T13:06:36Z</time>
      </trkpt>
      <trkpt lat="59.8728279" lon="17.8248301">
        <ele>16.9604</ele>
        <time>2013-04-07T13:06:37Z</time>
      </trkpt>
      <trkpt lat="59.8728088" lon="17.8249846">
        <ele>16.9604</ele>
        <time>2013-04-07T13:06:38Z</time>
      </trkpt>
      <trkpt lat="59.872787" lon="17.8251394">
        <ele>16.9604</ele>
        <time>2013-04-07T13:06:39Z</time>
      </trkpt>
      <trkpt lat="59.8727626" lon="17.8252932">
        <ele>16.9604</ele>
        <time>2013-04-07T13:06:40Z</time>
      </trkpt>
      <trkpt lat="59.8727358" lon="17.8254454">
        <ele>16.4797</ele>
        <time>2013-04-07T13:06:41Z</time>
      </trkpt>
      <trkpt lat="59.8727074" lon="17.8255962">
        <ele>16.4797</ele>
        <time>2013-04-07T13:06:42Z</time>
      </trkpt>
      <trkpt lat="59.8726773" lon="17.8257459">
        <ele>16.4797</ele>
        <time>2013-04-07T13:06:43Z</time>
      </trkpt>
      <trkpt lat="59.8726466" lon="17.8258947">
        <ele>16.4797</ele>
        <time>2013-04-07T13:06:44Z</time>
      </trkpt>
      <trkpt lat="59.8726159" lon="17.8260426">
        <ele>16.4797</ele>
        <time>2013-04-07T13:06:45Z</time>
      </trkpt>
      <trkpt lat="59.8725849" lon="17.8261904">
        <ele>16.4797</ele>
        <time>2013-04-07T13:06:46Z</time>
      </trkpt>
      <trkpt lat="59.8725544" lon="17.8263381">
        <ele>15.999</ele>
        <time>2013-04-07T13:06:47Z</time>
      </trkpt>
      <trkpt lat="59.8725258" lon="17.8264882">
        <ele>15.999</ele>
        <time>2013-04-07T13:06:48Z</time>
      </trkpt>
      <trkpt lat="59.8725007" lon="17.8266431">
        <ele>15.999</ele>
        <time>2013-04-07T13:06:49Z</time>
      </trkpt>
      <trkpt lat="59.8724773" lon="17.8268001">
        <ele>15.5184</ele>
        <time>2013-04-07T13:06:50Z</time>
      </trkpt>
      <trkpt lat="59.8724545" lon="17.8269582">
        <ele>15.5184</ele>
        <time>2013-04-07T13:06:51Z</time>
      </trkpt>
      <trkpt lat="59.872434" lon="17.8271187">
        <ele>15.5184</ele>
        <time>2013-04-07T13:06:52Z</time>
      </trkpt>
      <trkpt lat="59.8724172" lon="17.8272819">
        <ele>15.0377</ele>
        <time>2013-04-07T13:06:53Z</time>
      </trkpt>
      <trkpt lat="59.8724011" lon="17.8274466">
        <ele>15.0377</ele>
        <time>2013-04-07T13:06:54Z</time>
      </trkpt>
      <trkpt lat="59.8723836" lon="17.8276122">
        <ele>15.0377</ele>
        <time>2013-04-07T13:06:55Z</time>
      </trkpt>
      <trkpt lat="59.8723664" lon="17.8277781">
        <ele>14.557</ele>
        <time>2013-04-07T13:06:56Z</time>
      </trkpt>
      <trkpt lat="59.8723506" lon="17.8279433">
        <ele>14.557</ele>
        <time>2013-04-07T13:06:57Z</time>
      </trkpt>
      <trkpt lat="59.8723348" lon="17.828106">
        <ele>14.557</ele>
        <time>2013-04-07T13:06:58Z</time>
      </trkpt>
      <trkpt lat="59.8723182" lon="17.8282661">
        <ele>14.557</ele>
        <time>2013-04-07T13:06:59Z</time>
      </trkpt>
      <trkpt lat="59.8723021" lon="17.8284225">
        <ele>14.557</ele>
        <time>2013-04-07T13:07:00Z</time>
      </trkpt>
      <trkpt lat="59.8722861" lon="17.8285758">
        <ele>14.0764</ele>
        <time>2013-04-07T13:07:01Z</time>
      </trkpt>
      <trkpt lat="59.872269" lon="17.8287269">
        <ele>14.0764</ele>
        <time>2013-04-07T13:07:02Z</time>
      </trkpt>
      <trkpt lat="59.8722513" lon="17.8288777">
        <ele>14.0764</ele>
        <time>2013-04-07T13:07:03Z</time>
      </trkpt>
      <trkpt lat="59.8722333" lon="17.8290265">
        <ele>13.5958</ele>
        <time>2013-04-07T13:07:04Z</time>
      </trkpt>
      <trkpt lat="59.8722167" lon="17.8291747">
        <ele>13.5958</ele>
        <time>2013-04-07T13:07:05Z</time>
      </trkpt>
      <trkpt lat="59.8722001" lon="17.8293219">
        <ele>13.5958</ele>
        <time>2013-04-07T13:07:06Z</time>
      </trkpt>
      <trkpt lat="59.8721813" lon="17.8294664">
        <ele>13.5958</ele>
        <time>2013-04-07T13:07:07Z</time>
      </trkpt>
      <trkpt lat="59.8721617" lon="17.8296087">
        <ele>13.5958</ele>
        <time>2013-04-07T13:07:08Z</time>
      </trkpt>
      <trkpt lat="59.8721443" lon="17.8297486">
        <ele>13.5958</ele>
        <time>2013-04-07T13:07:09Z</time>
      </trkpt>
      <trkpt lat="59.8721323" lon="17.8298879">
        <ele>13.5958</ele>
        <time>2013-04-07T13:07:10Z</time>
      </trkpt>
      <trkpt lat="59.8721322" lon="17.8300258">
        <ele>13.5958</ele>
        <time>2013-04-07T13:07:11Z</time>
      </trkpt>
      <trkpt lat="59.8721522" lon="17.8301511">
        <ele>13.5958</ele>
        <time>2013-04-07T13:07:12Z</time>
      </trkpt>
      <trkpt lat="59.8721911" lon="17.8302542">
        <ele>13.5958</ele>
        <time>2013-04-07T13:07:13Z</time>
      </trkpt>
      <trkpt lat="59.8722431" lon="17.8303322">
        <ele>14.0764</ele>
        <time>2013-04-07T13:07:14Z</time>
      </trkpt>
      <trkpt lat="59.8722996" lon="17.8303951">
        <ele>15.0377</ele>
        <time>2013-04-07T13:07:15Z</time>
      </trkpt>
      <trkpt lat="59.8723559" lon="17.8304484">
        <ele>15.5184</ele>
        <time>2013-04-07T13:07:16Z</time>
      </trkpt>
      <trkpt lat="59.8724107" lon="17.830497">
        <ele>16.4797</ele>
        <time>2013-04-07T13:07:17Z</time>
      </trkpt>
      <trkpt lat="59.8724627" lon="17.8305407">
        <ele>16.9604</ele>
        <time>2013-04-07T13:07:18Z</time>
      </trkpt>
      <trkpt lat="59.8725134" lon="17.830577">
        <ele>17.4412</ele>
        <time>2013-04-07T13:07:19Z</time>
      </trkpt>
      <trkpt lat="59.8725642" lon="17.8306075">
        <ele>17.9218</ele>
        <time>2013-04-07T13:07:20Z</time>
      </trkpt>
      <trkpt lat="59.8726145" lon="17.8306345">
        <ele>18.4023</ele>
        <time>2013-04-07T13:07:21Z</time>
      </trkpt>
      <trkpt lat="59.8726643" lon="17.8306599">
        <ele>18.8831</ele>
        <time>2013-04-07T13:07:22Z</time>
      </trkpt>
      <trkpt lat="59.872714" lon="17.8306821">
        <ele>19.8444</ele>
        <time>2013-04-07T13:07:23Z</time>
      </trkpt>
      <trkpt lat="59.8727632" lon="17.8307017">
        <ele>19.8444</ele>
        <time>2013-04-07T13:07:24Z</time>
      </trkpt>
      <trkpt lat="59.8728125" lon="17.830721">
        <ele>20.325</ele>
        <time>2013-04-07T13:07:25Z</time>
      </trkpt>
      <trkpt lat="59.8728619" lon="17.8307427">
        <ele>20.8057</ele>
        <time>2013-04-07T13:07:26Z</time>
      </trkpt>
      <trkpt lat="59.8729099" lon="17.8307678">
        <ele>20.8057</ele>
        <time>2013-04-07T13:07:27Z</time>
      </trkpt>
      <trkpt lat="59.872959" lon="17.8307932">
        <ele>20.8057</ele>
        <time>2013-04-07T13:07:28Z</time>
      </trkpt>
      <trkpt lat="59.8730083" lon="17.8308222">
        <ele>21.2864</ele>
        <time>2013-04-07T13:07:29Z</time>
      </trkpt>
      <trkpt lat="59.8730585" lon="17.8308542">
        <ele>21.2864</ele>
        <time>2013-04-07T13:07:30Z</time>
      </trkpt>
      <trkpt lat="59.8731098" lon="17.8308887">
        <ele>21.2864</ele>
        <time>2013-04-07T13:07:31Z</time>
      </trkpt>
      <trkpt lat="59.8731609" lon="17.8309271">
        <ele>21.767</ele>
        <time>2013-04-07T13:07:32Z</time>
      </trkpt>
      <trkpt lat="59.8732143" lon="17.8309669">
        <ele>22.2476</ele>
        <time>2013-04-07T13:07:33Z</time>
      </trkpt>
      <trkpt lat="59.8732663" lon="17.8310094">
        <ele>22.2476</ele>
        <time>2013-04-07T13:07:34Z</time>
      </trkpt>
      <trkpt lat="59.8733186" lon="17.8310515">
        <ele>22.2476</ele>
        <time>2013-04-07T13:07:35Z</time>
      </trkpt>
      <trkpt lat="59.8733692" lon="17.8310904">
        <ele>21.767</ele>
        <time>2013-04-07T13:07:36Z</time>
      </trkpt>
      <trkpt lat="59.8734169" lon="17.8311277">
        <ele>21.767</ele>
        <time>2013-04-07T13:07:37Z</time>
      </trkpt>
      <trkpt lat="59.8734636" lon="17.8311667">
        <ele>21.2864</ele>
        <time>2013-04-07T13:07:38Z</time>
      </trkpt>
      <trkpt lat="59.8735082" lon="17.8312094">
        <ele>21.2864</ele>
        <time>2013-04-07T13:07:39Z</time>
      </trkpt>
      <trkpt lat="59.8735504" lon="17.8312535">
        <ele>21.2864</ele>
        <time>2013-04-07T13:07:40Z</time>
      </trkpt>
      <trkpt lat="59.8735909" lon="17.8313004">
        <ele>21.2864</ele>
        <time>2013-04-07T13:07:41Z</time>
      </trkpt>
      <trkpt lat="59.8736293" lon="17.8313482">
        <ele>21.767</ele>
        <time>2013-04-07T13:07:42Z</time>
      </trkpt>
      <trkpt lat="59.8736659" lon="17.831395">
        <ele>21.767</ele>
        <time>2013-04-07T13:07:43Z</time>
      </trkpt>
      <trkpt lat="59.8737004" lon="17.8314421">
        <ele>21.767</ele>
        <time>2013-04-07T13:07:44Z</time>
      </trkpt>
      <trkpt lat="59.8737353" lon="17.8314853">
        <ele>22.2476</ele>
        <time>2013-04-07T13:07:45Z</time>
      </trkpt>
      <trkpt lat="59.8737705" lon="17.8315234">
        <ele>22.2476</ele>
        <time>2013-04-07T13:07:46Z</time>
      </trkpt>
      <trkpt lat="59.8738044" lon="17.8315628">
        <ele>22.2476</ele>
        <time>2013-04-07T13:07:47Z</time>
      </trkpt>
      <trkpt lat="59.873837" lon="17.8316062">
        <ele>22.7283</ele>
        <time>2013-04-07T13:07:48Z</time>
      </trkpt>
      <trkpt lat="59.8738672" lon="17.8316544">
        <ele>22.2476</ele>
        <time>2013-04-07T13:07:49Z</time>
      </trkpt>
      <trkpt lat="59.8739011" lon="17.8316974">
        <ele>22.2476</ele>
        <time>2013-04-07T13:07:50Z</time>
      </trkpt>
      <trkpt lat="59.8739353" lon="17.8317423">
        <ele>22.7283</ele>
        <time>2013-04-07T13:07:51Z</time>
      </trkpt>
      <trkpt lat="59.8739695" lon="17.8317902">
        <ele>22.7283</ele>
        <time>2013-04-07T13:07:52Z</time>
      </trkpt>
      <trkpt lat="59.8740048" lon="17.8318367">
        <ele>22.7283</ele>
        <time>2013-04-07T13:07:53Z</time>
      </trkpt>
      <trkpt lat="59.874041" lon="17.8318818">
        <ele>22.7283</ele>
        <time>2013-04-07T13:07:54Z</time>
      </trkpt>
      <trkpt lat="59.8740769" lon="17.8319243">
        <ele>23.209</ele>
        <time>2013-04-07T13:07:55Z</time>
      </trkpt>
      <trkpt lat="59.8741153" lon="17.8319634">
        <ele>23.209</ele>
        <time>2013-04-07T13:07:56Z</time>
      </trkpt>
      <trkpt lat="59.8741542" lon="17.8320043">
        <ele>23.6896</ele>
        <time>2013-04-07T13:07:57Z</time>
      </trkpt>
      <trkpt lat="59.8741945" lon="17.8320484">
        <ele>24.1703</ele>
        <time>2013-04-07T13:07:58Z</time>
      </trkpt>
      <trkpt lat="59.8742354" lon="17.832095">
        <ele>24.1703</ele>
        <time>2013-04-07T13:07:59Z</time>
      </trkpt>
      <trkpt lat="59.8742794" lon="17.8321372">
        <ele>24.651</ele>
        <time>2013-04-07T13:08:00Z</time>
      </trkpt>
      <trkpt lat="59.8743246" lon="17.8321714">
        <ele>25.1317</ele>
        <time>2013-04-07T13:08:01Z</time>
      </trkpt>
      <trkpt lat="59.8743701" lon="17.832205">
        <ele>25.1317</ele>
        <time>2013-04-07T13:08:02Z</time>
      </trkpt>
      <trkpt lat="59.8744193" lon="17.8322361">
        <ele>25.6123</ele>
        <time>2013-04-07T13:08:03Z</time>
      </trkpt>
      <trkpt lat="59.8744731" lon="17.8322592">
        <ele>26.0929</ele>
        <time>2013-04-07T13:08:04Z</time>
      </trkpt>
      <trkpt lat="59.8745294" lon="17.832277">
        <ele>27.0543</ele>
        <time>2013-04-07T13:08:05Z</time>
      </trkpt>
      <trkpt lat="59.8745857" lon="17.8322864">
        <ele>27.5349</ele>
        <time>2013-04-07T13:08:06Z</time>
      </trkpt>
      <trkpt lat="59.8746467" lon="17.8322939">
        <ele>28.0155</ele>
        <time>2013-04-07T13:08:07Z</time>
      </trkpt>
      <trkpt lat="59.874713" lon="17.8323082">
        <ele>28.0155</ele>
        <time>2013-04-07T13:08:08Z</time>
      </trkpt>
      <trkpt lat="59.8747793" lon="17.8323273">
        <ele>28.0155</ele>
        <time>2013-04-07T13:08:09Z</time>
      </trkpt>
      <trkpt lat="59.8748454" lon="17.8323485">
        <ele>28.0155</ele>
        <time>2013-04-07T13:08:10Z</time>
      </trkpt>
      <trkpt lat="59.8749109" lon="17.8323695">
        <ele>28.4962</ele>
        <time>2013-04-07T13:08:11Z</time>
      </trkpt>
      <trkpt lat="59.8749761" lon="17.8323894">
        <ele>28.4962</ele>
        <time>2013-04-07T13:08:12Z</time>
      </trkpt>
      <trkpt lat="59.8750417" lon="17.8324089">
        <ele>28.4962</ele>
        <time>2013-04-07T13:08:13Z</time>
      </trkpt>
      <trkpt lat="59.8751062" lon="17.832427">
        <ele>28.0155</ele>
        <time>2013-04-07T13:08:14Z</time>
      </trkpt>
      <trkpt lat="59.8751717" lon="17.8324506">
        <ele>28.0155</ele>
        <time>2013-04-07T13:08:15Z</time>
      </trkpt>
      <trkpt lat="59.8752386" lon="17.8324754">
        <ele>28.0155</ele>
        <time>2013-04-07T13:08:16Z</time>
      </trkpt>
      <trkpt lat="59.875304" lon="17.8325051">
        <ele>28.0155</ele>
        <time>2013-04-07T13:08:17Z</time>
      </trkpt>
      <trkpt lat="59.8753681" lon="17.8325407">
        <ele>28.0155</ele>
        <time>2013-04-07T13:08:18Z</time>
      </trkpt>
      <trkpt lat="59.8754307" lon="17.8325815">
        <ele>28.0155</ele>
        <time>2013-04-07T13:08:19Z</time>
      </trkpt>
      <trkpt lat="59.8754891" lon="17.8326289">
        <ele>28.4962</ele>
        <time>2013-04-07T13:08:20Z</time>
      </trkpt>
      <trkpt lat="59.8755454" lon="17.8326796">
        <ele>28.0155</ele>
        <time>2013-04-07T13:08:21Z</time>
      </trkpt>
      <trkpt lat="59.8756018" lon="17.8327333">
        <ele>28.0155</ele>
        <time>2013-04-07T13:08:22Z</time>
      </trkpt>
      <trkpt lat="59.8756548" lon="17.832793">
        <ele>27.5349</ele>
        <time>2013-04-07T13:08:23Z</time>
      </trkpt>
      <trkpt lat="59.8757112" lon="17.832853">
        <ele>27.5349</ele>
        <time>2013-04-07T13:08:24Z</time>
      </trkpt>
      <trkpt lat="59.8757676" lon="17.8329105">
        <ele>27.5349</ele>
        <time>2013-04-07T13:08:25Z</time>
      </trkpt>
      <trkpt lat="59.875821" lon="17.8329697">
        <ele>27.0543</ele>
        <time>2013-04-07T13:08:26Z</time>
      </trkpt>
      <trkpt lat="59.8758821" lon="17.8330281">
        <ele>27.0543</ele>
        <time>2013-04-07T13:08:27Z</time>
      </trkpt>
      <trkpt lat="59.8759465" lon="17.8330845">
        <ele>27.0543</ele>
        <time>2013-04-07T13:08:28Z</time>
      </trkpt>
      <trkpt lat="59.876009" lon="17.8331379">
        <ele>26.5736</ele>
        <time>2013-04-07T13:08:29Z</time>
      </trkpt>
      <trkpt lat="59.8760702" lon="17.8331851">
        <ele>26.0929</ele>
        <time>2013-04-07T13:08:30Z</time>
      </trkpt>
      <trkpt lat="59.8761318" lon="17.8332285">
        <ele>25.6123</ele>
        <time>2013-04-07T13:08:31Z</time>
      </trkpt>
      <trkpt lat="59.8761958" lon="17.833275">
        <ele>25.6123</ele>
        <time>2013-04-07T13:08:32Z</time>
      </trkpt>
      <trkpt lat="59.8762577" lon="17.833318">
        <ele>25.6123</ele>
        <time>2013-04-07T13:08:33Z</time>
      </trkpt>
      <trkpt lat="59.8763122" lon="17.8333539">
        <ele>25.6123</ele>
        <time>2013-04-07T13:08:34Z</time>
      </trkpt>
      <trkpt lat="59.8763577" lon="17.8333833">
        <ele>25.6123</ele>
        <time>2013-04-07T13:08:35Z</time>
      </trkpt>
      <trkpt lat="59.876409" lon="17.8334105">
        <ele>25.6123</ele>
        <time>2013-04-07T13:08:36Z</time>
      </trkpt>
      <trkpt lat="59.8764618" lon="17.833438">
        <ele>26.0929</ele>
        <time>2013-04-07T13:08:37Z</time>
      </trkpt>
      <trkpt lat="59.8765135" lon="17.8334639">
        <ele>26.0929</ele>
        <time>2013-04-07T13:08:38Z</time>
      </trkpt>
      <trkpt lat="59.8765621" lon="17.8334919">
        <ele>26.5736</ele>
        <time>2013-04-07T13:08:39Z</time>
      </trkpt>
      <trkpt lat="59.87661" lon="17.8335217">
        <ele>26.0929</ele>
        <time>2013-04-07T13:08:40Z</time>
      </trkpt>
      <trkpt lat="59.8766598" lon="17.8335527">
        <ele>26.0929</ele>
        <time>2013-04-07T13:08:41Z</time>
      </trkpt>
      <trkpt lat="59.8767131" lon="17.8335876">
        <ele>26.5736</ele>
        <time>2013-04-07T13:08:42Z</time>
      </trkpt>
      <trkpt lat="59.8767716" lon="17.8336306">
        <ele>26.5736</ele>
        <time>2013-04-07T13:08:43Z</time>
      </trkpt>
      <trkpt lat="59.8768341" lon="17.8336757">
        <ele>26.5736</ele>
        <time>2013-04-07T13:08:44Z</time>
      </trkpt>
      <trkpt lat="59.8768948" lon="17.8337205">
        <ele>26.5736</ele>
        <time>2013-04-07T13:08:45Z</time>
      </trkpt>
      <trkpt lat="59.8769617" lon="17.8337708">
        <ele>26.5736</ele>
        <time>2013-04-07T13:08:46Z</time>
      </trkpt>
      <trkpt lat="59.8770273" lon="17.8338228">
        <ele>26.5736</ele>
        <time>2013-04-07T13:08:47Z</time>
      </trkpt>
      <trkpt lat="59.8770943" lon="17.8338832">
        <ele>27.0543</ele>
        <time>2013-04-07T13:08:48Z</time>
      </trkpt>
      <trkpt lat="59.8771585" lon="17.8339519">
        <ele>27.5349</ele>
        <time>2013-04-07T13:08:49Z</time>
      </trkpt>
      <trkpt lat="59.8772212" lon="17.8340238">
        <ele>27.0543</ele>
        <time>2013-04-07T13:08:50Z</time>
      </trkpt>
      <trkpt lat="59.8772796" lon="17.8341009">
        <ele>27.0543</ele>
        <time>2013-04-07T13:08:51Z</time>
      </trkpt>
      <trkpt lat="59.877338" lon="17.8341806">
        <ele>27.0543</ele>
        <time>2013-04-07T13:08:52Z</time>
      </trkpt>
      <trkpt lat="59.8773993" lon="17.8342594">
        <ele>27.5349</ele>
        <time>2013-04-07T13:08:53Z</time>
      </trkpt>
      <trkpt lat="59.877459" lon="17.8343395">
        <ele>27.5349</ele>
        <time>2013-04-07T13:08:54Z</time>
      </trkpt>
      <trkpt lat="59.8775204" lon="17.8344209">
        <ele>28.0155</ele>
        <time>2013-04-07T13:08:55Z</time>
      </trkpt>
      <trkpt lat="59.8775834" lon="17.8345033">
        <ele>28.0155</ele>
        <time>2013-04-07T13:08:56Z</time>
      </trkpt>
      <trkpt lat="59.8776453" lon="17.8345847">
        <ele>28.4962</ele>
        <time>2013-04-07T13:08:57Z</time>
      </trkpt>
      <trkpt lat="59.8777055" lon="17.8346625">
        <ele>28.4962</ele>
        <time>2013-04-07T13:08:58Z</time>
      </trkpt>
      <trkpt lat="59.877766" lon="17.8347374">
        <ele>28.4962</ele>
        <time>2013-04-07T13:08:59Z</time>
      </trkpt>
      <trkpt lat="59.8778262" lon="17.8348095">
        <ele>28.9769</ele>
        <time>2013-04-07T13:09:00Z</time>
      </trkpt>
      <trkpt lat="59.8778883" lon="17.8348777">
        <ele>28.9769</ele>
        <time>2013-04-07T13:09:01Z</time>
      </trkpt>
      <trkpt lat="59.8779501" lon="17.8349433">
        <ele>28.9769</ele>
        <time>2013-04-07T13:09:02Z</time>
      </trkpt>
      <trkpt lat="59.8780135" lon="17.8350115">
        <ele>28.9769</ele>
        <time>2013-04-07T13:09:03Z</time>
      </trkpt>
      <trkpt lat="59.878078" lon="17.8350747">
        <ele>28.4962</ele>
        <time>2013-04-07T13:09:04Z</time>
      </trkpt>
      <trkpt lat="59.8781416" lon="17.8351358">
        <ele>28.4962</ele>
        <time>2013-04-07T13:09:05Z</time>
      </trkpt>
      <trkpt lat="59.8782062" lon="17.8351976">
        <ele>28.4962</ele>
        <time>2013-04-07T13:09:06Z</time>
      </trkpt>
      <trkpt lat="59.8782681" lon="17.8352567">
        <ele>28.4962</ele>
        <time>2013-04-07T13:09:07Z</time>
      </trkpt>
      <trkpt lat="59.8783335" lon="17.8353114">
        <ele>28.4962</ele>
        <time>2013-04-07T13:09:08Z</time>
      </trkpt>
      <trkpt lat="59.8784038" lon="17.8353622">
        <ele>28.4962</ele>
        <time>2013-04-07T13:09:09Z</time>
      </trkpt>
      <trkpt lat="59.8784718" lon="17.8354099">
        <ele>28.9769</ele>
        <time>2013-04-07T13:09:10Z</time>
      </trkpt>
      <trkpt lat="59.8785414" lon="17.8354574">
        <ele>28.9769</ele>
        <time>2013-04-07T13:09:11Z</time>
      </trkpt>
      <trkpt lat="59.8786058" lon="17.8354994">
        <ele>29.9381</ele>
        <time>2013-04-07T13:09:12Z</time>
      </trkpt>
      <trkpt lat="59.878669" lon="17.8355419">
        <ele>29.9381</ele>
        <time>2013-04-07T13:09:13Z</time>
      </trkpt>
      <trkpt lat="59.8787349" lon="17.8355845">
        <ele>30.4188</ele>
        <time>2013-04-07T13:09:14Z</time>
      </trkpt>
      <trkpt lat="59.8787928" lon="17.8356208">
        <ele>30.4188</ele>
        <time>2013-04-07T13:09:15Z</time>
      </trkpt>
      <trkpt lat="59.8788555" lon="17.8356538">
        <ele>30.4188</ele>
        <time>2013-04-07T13:09:16Z</time>
      </trkpt>
      <trkpt lat="59.8789161" lon="17.83569">
        <ele>30.4188</ele>
        <time>2013-04-07T13:09:17Z</time>
      </trkpt>
      <trkpt lat="59.8789745" lon="17.8357176">
        <ele>30.8995</ele>
        <time>2013-04-07T13:09:18Z</time>
      </trkpt>
      <trkpt lat="59.8790321" lon="17.8357347">
        <ele>31.3801</ele>
        <time>2013-04-07T13:09:19Z</time>
      </trkpt>
      <trkpt lat="59.8790884" lon="17.8357473">
        <ele>31.3801</ele>
        <time>2013-04-07T13:09:20Z</time>
      </trkpt>
      <trkpt lat="59.8791482" lon="17.8357609">
        <ele>31.3801</ele>
        <time>2013-04-07T13:09:21Z</time>
      </trkpt>
      <trkpt lat="59.8792082" lon="17.8357703">
        <ele>30.8995</ele>
        <time>2013-04-07T13:09:22Z</time>
      </trkpt>
      <trkpt lat="59.8792751" lon="17.8357776">
        <ele>30.4188</ele>
        <time>2013-04-07T13:09:23Z</time>
      </trkpt>
      <trkpt lat="59.879341" lon="17.8357859">
        <ele>29.9381</ele>
        <time>2013-04-07T13:09:24Z</time>
      </trkpt>
      <trkpt lat="59.8794077" lon="17.8357975">
        <ele>29.9381</ele>
        <time>2013-04-07T13:09:25Z</time>
      </trkpt>
      <trkpt lat="59.8794726" lon="17.8358079">
        <ele>29.9381</ele>
        <time>2013-04-07T13:09:26Z</time>
      </trkpt>
      <trkpt lat="59.8795347" lon="17.8358149">
        <ele>29.4575</ele>
        <time>2013-04-07T13:09:27Z</time>
      </trkpt>
      <trkpt lat="59.8795926" lon="17.8358185">
        <ele>29.4575</ele>
        <time>2013-04-07T13:09:28Z</time>
      </trkpt>
      <trkpt lat="59.8796474" lon="17.8358187">
        <ele>29.4575</ele>
        <time>2013-04-07T13:09:29Z</time>
      </trkpt>
      <trkpt lat="59.879696" lon="17.8358196">
        <ele>29.4575</ele>
        <time>2013-04-07T13:09:30Z</time>
      </trkpt>
      <trkpt lat="59.8797398" lon="17.8358243">
        <ele>29.4575</ele>
        <time>2013-04-07T13:09:31Z</time>
      </trkpt>
      <trkpt lat="59.8797827" lon="17.8358316">
        <ele>29.4575</ele>
        <time>2013-04-07T13:09:32Z</time>
      </trkpt>
      <trkpt lat="59.879821" lon="17.8358371">
        <ele>28.9769</ele>
        <time>2013-04-07T13:09:33Z</time>
      </trkpt>
      <trkpt lat="59.8798599" lon="17.8358446">
        <ele>28.9769</ele>
        <time>2013-04-07T13:09:34Z</time>
      </trkpt>
      <trkpt lat="59.8799001" lon="17.8358597">
        <ele>28.4962</ele>
        <time>2013-04-07T13:09:35Z</time>
      </trkpt>
      <trkpt lat="59.8799448" lon="17.8358825">
        <ele>28.4962</ele>
        <time>2013-04-07T13:09:36Z</time>
      </trkpt>
      <trkpt lat="59.8799914" lon="17.8359125">
        <ele>28.0155</ele>
        <time>2013-04-07T13:09:37Z</time>
      </trkpt>
      <trkpt lat="59.8800397" lon="17.8359511">
        <ele>27.5349</ele>
        <time>2013-04-07T13:09:38Z</time>
      </trkpt>
      <trkpt lat="59.8800921" lon="17.8359979">
        <ele>27.5349</ele>
        <time>2013-04-07T13:09:39Z</time>
      </trkpt>
      <trkpt lat="59.8801479" lon="17.8360487">
        <ele>27.5349</ele>
        <time>2013-04-07T13:09:40Z</time>
      </trkpt>
      <trkpt lat="59.8802039" lon="17.8361025">
        <ele>27.5349</ele>
        <time>2013-04-07T13:09:41Z</time>
      </trkpt>
      <trkpt lat="59.8802593" lon="17.8361605">
        <ele>27.0543</ele>
        <time>2013-04-07T13:09:42Z</time>
      </trkpt>
      <trkpt lat="59.8803142" lon="17.8362186">
        <ele>27.0543</ele>
        <time>2013-04-07T13:09:43Z</time>
      </trkpt>
      <trkpt lat="59.8803686" lon="17.8362755">
        <ele>27.0543</ele>
        <time>2013-04-07T13:09:44Z</time>
      </trkpt>
      <trkpt lat="59.8804214" lon="17.8363352">
        <ele>27.0543</ele>
        <time>2013-04-07T13:09:45Z</time>
      </trkpt>
      <trkpt lat="59.8804716" lon="17.8363993">
        <ele>27.0543</ele>
        <time>2013-04-07T13:09:46Z</time>
      </trkpt>
      <trkpt lat="59.8805209" lon="17.8364641">
        <ele>27.5349</ele>
        <time>2013-04-07T13:09:47Z</time>
      </trkpt>
      <trkpt lat="59.8805699" lon="17.8365286">
        <ele>27.5349</ele>
        <time>2013-04-07T13:09:48Z</time>
      </trkpt>
      <trkpt lat="59.8806173" lon="17.8365949">
        <ele>27.5349</ele>
        <time>2013-04-07T13:09:49Z</time>
      </trkpt>
      <trkpt lat="59.8806626" lon="17.836662">
        <ele>27.5349</ele>
        <time>2013-04-07T13:09:50Z</time>
      </trkpt>
      <trkpt lat="59.8807052" lon="17.8367309">
        <ele>27.5349</ele>
        <time>2013-04-07T13:09:51Z</time>
      </trkpt>
      <trkpt lat="59.8807466" lon="17.8368007">
        <ele>27.5349</ele>
        <time>2013-04-07T13:09:52Z</time>
      </trkpt>
      <trkpt lat="59.880787" lon="17.8368698">
        <ele>28.0155</ele>
        <time>2013-04-07T13:09:53Z</time>
      </trkpt>
      <trkpt lat="59.8808265" lon="17.8369379">
        <ele>28.0155</ele>
        <time>2013-04-07T13:09:54Z</time>
      </trkpt>
      <trkpt lat="59.8808659" lon="17.8370059">
        <ele>28.0155</ele>
        <time>2013-04-07T13:09:55Z</time>
      </trkpt>
      <trkpt lat="59.8809053" lon="17.8370707">
        <ele>28.4962</ele>
        <time>2013-04-07T13:09:56Z</time>
      </trkpt>
      <trkpt lat="59.8809461" lon="17.8371343">
        <ele>28.4962</ele>
        <time>2013-04-07T13:09:57Z</time>
      </trkpt>
      <trkpt lat="59.8809835" lon="17.837199">
        <ele>28.9769</ele>
        <time>2013-04-07T13:09:58Z</time>
      </trkpt>
      <trkpt lat="59.8810222" lon="17.8372652">
        <ele>28.9769</ele>
        <time>2013-04-07T13:09:59Z</time>
      </trkpt>
      <trkpt lat="59.8810611" lon="17.8373295">
        <ele>28.4962</ele>
        <time>2013-04-07T13:10:00Z</time>
      </trkpt>
      <trkpt lat="59.8811017" lon="17.8373945">
        <ele>28.0155</ele>
        <time>2013-04-07T13:10:01Z</time>
      </trkpt>
      <trkpt lat="59.881144" lon="17.8374608">
        <ele>28.0155</ele>
        <time>2013-04-07T13:10:02Z</time>
      </trkpt>
      <trkpt lat="59.8811875" lon="17.8375284">
        <ele>27.5349</ele>
        <time>2013-04-07T13:10:03Z</time>
      </trkpt>
      <trkpt lat="59.8812321" lon="17.8375959">
        <ele>27.5349</ele>
        <time>2013-04-07T13:10:04Z</time>
      </trkpt>
      <trkpt lat="59.8812783" lon="17.8376627">
        <ele>27.5349</ele>
        <time>2013-04-07T13:10:05Z</time>
      </trkpt>
      <trkpt lat="59.8813269" lon="17.8377294">
        <ele>27.5349</ele>
        <time>2013-04-07T13:10:06Z</time>
      </trkpt>
      <trkpt lat="59.8813761" lon="17.8377957">
        <ele>27.0543</ele>
        <time>2013-04-07T13:10:07Z</time>
      </trkpt>
      <trkpt lat="59.8814265" lon="17.8378663">
        <ele>27.0543</ele>
        <time>2013-04-07T13:10:08Z</time>
      </trkpt>
      <trkpt lat="59.8814769" lon="17.837943">
        <ele>27.0543</ele>
        <time>2013-04-07T13:10:09Z</time>
      </trkpt>
      <trkpt lat="59.8815274" lon="17.8380223">
        <ele>27.0543</ele>
        <time>2013-04-07T13:10:10Z</time>
      </trkpt>
      <trkpt lat="59.8815782" lon="17.8381032">
        <ele>26.5736</ele>
        <time>2013-04-07T13:10:11Z</time>
      </trkpt>
      <trkpt lat="59.8816289" lon="17.8381843">
        <ele>26.5736</ele>
        <time>2013-04-07T13:10:12Z</time>
      </trkpt>
      <trkpt lat="59.8816793" lon="17.8382645">
        <ele>26.0929</ele>
        <time>2013-04-07T13:10:13Z</time>
      </trkpt>
      <trkpt lat="59.881729" lon="17.8383464">
        <ele>26.0929</ele>
        <time>2013-04-07T13:10:14Z</time>
      </trkpt>
      <trkpt lat="59.8817791" lon="17.8384268">
        <ele>26.0929</ele>
        <time>2013-04-07T13:10:15Z</time>
      </trkpt>
      <trkpt lat="59.8818278" lon="17.838504">
        <ele>26.0929</ele>
        <time>2013-04-07T13:10:16Z</time>
      </trkpt>
      <trkpt lat="59.8818735" lon="17.8385802">
        <ele>26.0929</ele>
        <time>2013-04-07T13:10:17Z</time>
      </trkpt>
      <trkpt lat="59.881919" lon="17.8386537">
        <ele>26.0929</ele>
        <time>2013-04-07T13:10:18Z</time>
      </trkpt>
      <trkpt lat="59.8819687" lon="17.8387221">
        <ele>26.0929</ele>
        <time>2013-04-07T13:10:19Z</time>
      </trkpt>
      <trkpt lat="59.8820205" lon="17.8387842">
        <ele>26.5736</ele>
        <time>2013-04-07T13:10:20Z</time>
      </trkpt>
      <trkpt lat="59.8820734" lon="17.838839">
        <ele>27.0543</ele>
        <time>2013-04-07T13:10:21Z</time>
      </trkpt>
      <trkpt lat="59.8821257" lon="17.8388843">
        <ele>27.0543</ele>
        <time>2013-04-07T13:10:22Z</time>
      </trkpt>
      <trkpt lat="59.882177" lon="17.8389219">
        <ele>27.5349</ele>
        <time>2013-04-07T13:10:23Z</time>
      </trkpt>
      <trkpt lat="59.8822261" lon="17.8389506">
        <ele>28.0155</ele>
        <time>2013-04-07T13:10:24Z</time>
      </trkpt>
      <trkpt lat="59.8822739" lon="17.8389727">
        <ele>28.4962</ele>
        <time>2013-04-07T13:10:25Z</time>
      </trkpt>
      <trkpt lat="59.8823175" lon="17.8389905">
        <ele>28.9769</ele>
        <time>2013-04-07T13:10:26Z</time>
      </trkpt>
      <trkpt lat="59.8823583" lon="17.8390066">
        <ele>29.4575</ele>
        <time>2013-04-07T13:10:27Z</time>
      </trkpt>
      <trkpt lat="59.8823931" lon="17.8390178">
        <ele>29.4575</ele>
        <time>2013-04-07T13:10:28Z</time>
      </trkpt>
      <trkpt lat="59.8824266" lon="17.8390258">
        <ele>29.4575</ele>
        <time>2013-04-07T13:10:29Z</time>
      </trkpt>
      <trkpt lat="59.8824591" lon="17.8390376">
        <ele>29.4575</ele>
        <time>2013-04-07T13:10:30Z</time>
      </trkpt>
      <trkpt lat="59.8824928" lon="17.8390525">
        <ele>29.9381</ele>
        <time>2013-04-07T13:10:31Z</time>
      </trkpt>
      <trkpt lat="59.8825265" lon="17.839064">
        <ele>30.4188</ele>
        <time>2013-04-07T13:10:32Z</time>
      </trkpt>
      <trkpt lat="59.8825603" lon="17.8390733">
        <ele>30.8995</ele>
        <time>2013-04-07T13:10:33Z</time>
      </trkpt>
      <trkpt lat="59.882595" lon="17.8390832">
        <ele>31.3801</ele>
        <time>2013-04-07T13:10:34Z</time>
      </trkpt>
      <trkpt lat="59.8826298" lon="17.8390949">
        <ele>31.8607</ele>
        <time>2013-04-07T13:10:35Z</time>
      </trkpt>
      <trkpt lat="59.8826644" lon="17.8391111">
        <ele>32.3416</ele>
        <time>2013-04-07T13:10:36Z</time>
      </trkpt>
      <trkpt lat="59.8826991" lon="17.8391304">
        <ele>32.8223</ele>
        <time>2013-04-07T13:10:37Z</time>
      </trkpt>
      <trkpt lat="59.8827368" lon="17.8391525">
        <ele>32.8223</ele>
        <time>2013-04-07T13:10:38Z</time>
      </trkpt>
      <trkpt lat="59.8827754" lon="17.8391785">
        <ele>32.3416</ele>
        <time>2013-04-07T13:10:39Z</time>
      </trkpt>
      <trkpt lat="59.8828142" lon="17.8392064">
        <ele>32.3416</ele>
        <time>2013-04-07T13:10:40Z</time>
      </trkpt>
      <trkpt lat="59.8828518" lon="17.8392373">
        <ele>31.8607</ele>
        <time>2013-04-07T13:10:41Z</time>
      </trkpt>
      <trkpt lat="59.8828903" lon="17.8392751">
        <ele>31.3801</ele>
        <time>2013-04-07T13:10:42Z</time>
      </trkpt>
      <trkpt lat="59.8829303" lon="17.8393209">
        <ele>30.8995</ele>
        <time>2013-04-07T13:10:43Z</time>
      </trkpt>
      <trkpt lat="59.8829743" lon="17.8393686">
        <ele>30.8995</ele>
        <time>2013-04-07T13:10:44Z</time>
      </trkpt>
      <trkpt lat="59.8830191" lon="17.8394207">
        <ele>30.4188</ele>
        <time>2013-04-07T13:10:45Z</time>
      </trkpt>
      <trkpt lat="59.8830663" lon="17.8394808">
        <ele>29.9381</ele>
        <time>2013-04-07T13:10:46Z</time>
      </trkpt>
      <trkpt lat="59.8831161" lon="17.8395457">
        <ele>29.4575</ele>
        <time>2013-04-07T13:10:47Z</time>
      </trkpt>
      <trkpt lat="59.883168" lon="17.8396109">
        <ele>28.9769</ele>
        <time>2013-04-07T13:10:48Z</time>
      </trkpt>
      <trkpt lat="59.8832223" lon="17.8396794">
        <ele>28.4962</ele>
        <time>2013-04-07T13:10:49Z</time>
      </trkpt>
      <trkpt lat="59.8832773" lon="17.8397536">
        <ele>28.0155</ele>
        <time>2013-04-07T13:10:50Z</time>
      </trkpt>
      <trkpt lat="59.8833332" lon="17.8398302">
        <ele>27.0543</ele>
        <time>2013-04-07T13:10:51Z</time>
      </trkpt>
      <trkpt lat="59.8833917" lon="17.8399083">
        <ele>26.5736</ele>
        <time>2013-04-07T13:10:52Z</time>
      </trkpt>
      <trkpt lat="59.8834518" lon="17.8399856">
        <ele>26.0929</ele>
        <time>2013-04-07T13:10:53Z</time>
      </trkpt>
      <trkpt lat="59.883515" lon="17.8400663">
        <ele>25.6123</ele>
        <time>2013-04-07T13:10:54Z</time>
      </trkpt>
      <trkpt lat="59.8835783" lon="17.8401513">
        <ele>25.1317</ele>
        <time>2013-04-07T13:10:55Z</time>
      </trkpt>
      <trkpt lat="59.883643" lon="17.8402394">
        <ele>24.651</ele>
        <time>2013-04-07T13:10:56Z</time>
      </trkpt>
      <trkpt lat="59.8837086" lon="17.8403284">
        <ele>24.1703</ele>
        <time>2013-04-07T13:10:57Z</time>
      </trkpt>
      <trkpt lat="59.8837745" lon="17.8404161">
        <ele>23.6896</ele>
        <time>2013-04-07T13:10:58Z</time>
      </trkpt>
      <trkpt lat="59.8838404" lon="17.8405023">
        <ele>23.209</ele>
        <time>2013-04-07T13:10:59Z</time>
      </trkpt>
      <trkpt lat="59.8839052" lon="17.8405867">
        <ele>22.7283</ele>
        <time>2013-04-07T13:11:00Z</time>
      </trkpt>
      <trkpt lat="59.8839689" lon="17.8406703">
        <ele>22.7283</ele>
        <time>2013-04-07T13:11:01Z</time>
      </trkpt>
      <trkpt lat="59.8840314" lon="17.8407517">
        <ele>22.7283</ele>
        <time>2013-04-07T13:11:02Z</time>
      </trkpt>
      <trkpt lat="59.8840926" lon="17.8408317">
        <ele>22.2476</ele>
        <time>2013-04-07T13:11:03Z</time>
      </trkpt>
      <trkpt lat="59.8841537" lon="17.8409105">
        <ele>22.2476</ele>
        <time>2013-04-07T13:11:04Z</time>
      </trkpt>
      <trkpt lat="59.8842157" lon="17.8409863">
        <ele>22.2476</ele>
        <time>2013-04-07T13:11:05Z</time>
      </trkpt>
      <trkpt lat="59.8842773" lon="17.8410574">
        <ele>22.7283</ele>
        <time>2013-04-07T13:11:06Z</time>
      </trkpt>
      <trkpt lat="59.8843386" lon="17.8411244">
        <ele>22.7283</ele>
        <time>2013-04-07T13:11:07Z</time>
      </trkpt>
      <trkpt lat="59.8844008" lon="17.8411869">
        <ele>22.7283</ele>
        <time>2013-04-07T13:11:08Z</time>
      </trkpt>
      <trkpt lat="59.8844633" lon="17.8412456">
        <ele>22.7283</ele>
        <time>2013-04-07T13:11:09Z</time>
      </trkpt>
      <trkpt lat="59.8845263" lon="17.8412987">
        <ele>22.7283</ele>
        <time>2013-04-07T13:11:10Z</time>
      </trkpt>
      <trkpt lat="59.8845914" lon="17.8413475">
        <ele>22.7283</ele>
        <time>2013-04-07T13:11:11Z</time>
      </trkpt>
      <trkpt lat="59.8846577" lon="17.8413912">
        <ele>22.7283</ele>
        <time>2013-04-07T13:11:12Z</time>
      </trkpt>
      <trkpt lat="59.8847252" lon="17.8414287">
        <ele>22.2476</ele>
        <time>2013-04-07T13:11:13Z</time>
      </trkpt>
      <trkpt lat="59.8847929" lon="17.8414598">
        <ele>22.2476</ele>
        <time>2013-04-07T13:11:14Z</time>
      </trkpt>
      <trkpt lat="59.8848602" lon="17.8414822">
        <ele>22.2476</ele>
        <time>2013-04-07T13:11:15Z</time>
      </trkpt>
      <trkpt lat="59.8849266" lon="17.8414981">
        <ele>22.2476</ele>
        <time>2013-04-07T13:11:16Z</time>
      </trkpt>
      <trkpt lat="59.8849919" lon="17.8415098">
        <ele>22.2476</ele>
        <time>2013-04-07T13:11:17Z</time>
      </trkpt>
      <trkpt lat="59.8850556" lon="17.8415134">
        <ele>22.2476</ele>
        <time>2013-04-07T13:11:18Z</time>
      </trkpt>
      <trkpt lat="59.8851172" lon="17.8415112">
        <ele>22.7283</ele>
        <time>2013-04-07T13:11:19Z</time>
      </trkpt>
      <trkpt lat="59.8851772" lon="17.8415059">
        <ele>22.7283</ele>
        <time>2013-04-07T13:11:20Z</time>
      </trkpt>
      <trkpt lat="59.8852339" lon="17.8415012">
        <ele>22.7283</ele>
        <time>2013-04-07T13:11:21Z</time>
      </trkpt>
      <trkpt lat="59.885288" lon="17.8414974">
        <ele>23.209</ele>
        <time>2013-04-07T13:11:22Z</time>
      </trkpt>
      <trkpt lat="59.8853389" lon="17.8414915">
        <ele>23.209</ele>
        <time>2013-04-07T13:11:23Z</time>
      </trkpt>
      <trkpt lat="59.8853866" lon="17.8414836">
        <ele>23.209</ele>
        <time>2013-04-07T13:11:24Z</time>
      </trkpt>
      <trkpt lat="59.8854335" lon="17.8414762">
        <ele>23.6896</ele>
        <time>2013-04-07T13:11:25Z</time>
      </trkpt>
      <trkpt lat="59.8854803" lon="17.8414697">
        <ele>24.1703</ele>
        <time>2013-04-07T13:11:26Z</time>
      </trkpt>
      <trkpt lat="59.8855285" lon="17.8414668">
        <ele>23.6896</ele>
        <time>2013-04-07T13:11:27Z</time>
      </trkpt>
      <trkpt lat="59.8855777" lon="17.8414604">
        <ele>23.6896</ele>
        <time>2013-04-07T13:11:28Z</time>
      </trkpt>
      <trkpt lat="59.885628" lon="17.841453">
        <ele>23.6896</ele>
        <time>2013-04-07T13:11:29Z</time>
      </trkpt>
      <trkpt lat="59.8856794" lon="17.8414448">
        <ele>23.6896</ele>
        <time>2013-04-07T13:11:30Z</time>
      </trkpt>
      <trkpt lat="59.8857324" lon="17.8414386">
        <ele>23.6896</ele>
        <time>2013-04-07T13:11:31Z</time>
      </trkpt>
      <trkpt lat="59.8857858" lon="17.8414304">
        <ele>23.6896</ele>
        <time>2013-04-07T13:11:32Z</time>
      </trkpt>
      <trkpt lat="59.8858394" lon="17.8414221">
        <ele>24.1703</ele>
        <time>2013-04-07T13:11:33Z</time>
      </trkpt>
      <trkpt lat="59.8858931" lon="17.8414156">
        <ele>24.1703</ele>
        <time>2013-04-07T13:11:34Z</time>
      </trkpt>
      <trkpt lat="59.8859459" lon="17.8414057">
        <ele>24.1703</ele>
        <time>2013-04-07T13:11:35Z</time>
      </trkpt>
      <trkpt lat="59.8859989" lon="17.8413918">
        <ele>24.1703</ele>
        <time>2013-04-07T13:11:36Z</time>
      </trkpt>
      <trkpt lat="59.8860497" lon="17.8413768">
        <ele>24.1703</ele>
        <time>2013-04-07T13:11:37Z</time>
      </trkpt>
      <trkpt lat="59.8861009" lon="17.8413607">
        <ele>24.1703</ele>
        <time>2013-04-07T13:11:38Z</time>
      </trkpt>
      <trkpt lat="59.8861541" lon="17.8413441">
        <ele>24.1703</ele>
        <time>2013-04-07T13:11:39Z</time>
      </trkpt>
      <trkpt lat="59.8862081" lon="17.8413275">
        <ele>24.1703</ele>
        <time>2013-04-07T13:11:40Z</time>
      </trkpt>
      <trkpt lat="59.886263" lon="17.8413105">
        <ele>24.651</ele>
        <time>2013-04-07T13:11:41Z</time>
      </trkpt>
      <trkpt lat="59.8863174" lon="17.8412888">
        <ele>24.651</ele>
        <time>2013-04-07T13:11:42Z</time>
      </trkpt>
      <trkpt lat="59.8863724" lon="17.8412644">
        <ele>24.651</ele>
        <time>2013-04-07T13:11:43Z</time>
      </trkpt>
      <trkpt lat="59.8864274" lon="17.8412373">
        <ele>24.651</ele>
        <time>2013-04-07T13:11:44Z</time>
      </trkpt>
      <trkpt lat="59.8864821" lon="17.8412079">
        <ele>24.651</ele>
        <time>2013-04-07T13:11:45Z</time>
      </trkpt>
      <trkpt lat="59.8865374" lon="17.8411783">
        <ele>24.651</ele>
        <time>2013-04-07T13:11:46Z</time>
      </trkpt>
      <trkpt lat="59.8865929" lon="17.8411479">
        <ele>24.651</ele>
        <time>2013-04-07T13:11:47Z</time>
      </trkpt>
      <trkpt lat="59.8866488" lon="17.8411237">
        <ele>24.651</ele>
        <time>2013-04-07T13:11:48Z</time>
      </trkpt>
      <trkpt lat="59.8867064" lon="17.8411037">
        <ele>24.651</ele>
        <time>2013-04-07T13:11:49Z</time>
      </trkpt>
      <trkpt lat="59.8867644" lon="17.8410852">
        <ele>24.651</ele>
        <time>2013-04-07T13:11:50Z</time>
      </trkpt>
      <trkpt lat="59.8868228" lon="17.8410765">
        <ele>24.651</ele>
        <time>2013-04-07T13:11:51Z</time>
      </trkpt>
      <trkpt lat="59.8868829" lon="17.8410835">
        <ele>24.651</ele>
        <time>2013-04-07T13:11:52Z</time>
      </trkpt>
      <trkpt lat="59.8869426" lon="17.8411047">
        <ele>24.651</ele>
        <time>2013-04-07T13:11:53Z</time>
      </trkpt>
      <trkpt lat="59.8870021" lon="17.8411389">
        <ele>24.1703</ele>
        <time>2013-04-07T13:11:54Z</time>
      </trkpt>
      <trkpt lat="59.8870593" lon="17.8411825">
        <ele>24.1703</ele>
        <time>2013-04-07T13:11:55Z</time>
      </trkpt>
      <trkpt lat="59.8871147" lon="17.8412385">
        <ele>24.1703</ele>
        <time>2013-04-07T13:11:56Z</time>
      </trkpt>
      <trkpt lat="59.8871671" lon="17.8413066">
        <ele>24.1703</ele>
        <time>2013-04-07T13:11:57Z</time>
      </trkpt>
      <trkpt lat="59.8872157" lon="17.8413851">
        <ele>24.1703</ele>
        <time>2013-04-07T13:11:58Z</time>
      </trkpt>
      <trkpt lat="59.887261" lon="17.84147">
        <ele>24.1703</ele>
        <time>2013-04-07T13:11:59Z</time>
      </trkpt>
      <trkpt lat="59.8873009" lon="17.8415577">
        <ele>24.651</ele>
        <time>2013-04-07T13:12:00Z</time>
      </trkpt>
      <trkpt lat="59.8873367" lon="17.8416443">
        <ele>24.651</ele>
        <time>2013-04-07T13:12:01Z</time>
      </trkpt>
      <trkpt lat="59.8873716" lon="17.8417275">
        <ele>24.651</ele>
        <time>2013-04-07T13:12:02Z</time>
      </trkpt>
      <trkpt lat="59.8874073" lon="17.8418097">
        <ele>24.651</ele>
        <time>2013-04-07T13:12:03Z</time>
      </trkpt>
      <trkpt lat="59.8874424" lon="17.8418935">
        <ele>24.651</ele>
        <time>2013-04-07T13:12:04Z</time>
      </trkpt>
      <trkpt lat="59.8874783" lon="17.8419805">
        <ele>24.651</ele>
        <time>2013-04-07T13:12:05Z</time>
      </trkpt>
      <trkpt lat="59.8875182" lon="17.8420683">
        <ele>24.651</ele>
        <time>2013-04-07T13:12:06Z</time>
      </trkpt>
      <trkpt lat="59.8875618" lon="17.8421528">
        <ele>24.1703</ele>
        <time>2013-04-07T13:12:07Z</time>
      </trkpt>
      <trkpt lat="59.8876081" lon="17.8422361">
        <ele>23.6896</ele>
        <time>2013-04-07T13:12:08Z</time>
      </trkpt>
      <trkpt lat="59.887657" lon="17.8423145">
        <ele>23.6896</ele>
        <time>2013-04-07T13:12:09Z</time>
      </trkpt>
      <trkpt lat="59.8877078" lon="17.8423882">
        <ele>23.6896</ele>
        <time>2013-04-07T13:12:10Z</time>
      </trkpt>
      <trkpt lat="59.8877591" lon="17.8424586">
        <ele>23.6896</ele>
        <time>2013-04-07T13:12:11Z</time>
      </trkpt>
      <trkpt lat="59.887811" lon="17.8425258">
        <ele>23.6896</ele>
        <time>2013-04-07T13:12:12Z</time>
      </trkpt>
      <trkpt lat="59.8878642" lon="17.8425901">
        <ele>23.209</ele>
        <time>2013-04-07T13:12:13Z</time>
      </trkpt>
      <trkpt lat="59.887918" lon="17.8426505">
        <ele>23.209</ele>
        <time>2013-04-07T13:12:14Z</time>
      </trkpt>
      <trkpt lat="59.887972" lon="17.8427076">
        <ele>23.209</ele>
        <time>2013-04-07T13:12:15Z</time>
      </trkpt>
      <trkpt lat="59.8880259" lon="17.8427632">
        <ele>23.209</ele>
        <time>2013-04-07T13:12:16Z</time>
      </trkpt>
      <trkpt lat="59.8880802" lon="17.8428168">
        <ele>23.209</ele>
        <time>2013-04-07T13:12:17Z</time>
      </trkpt>
      <trkpt lat="59.888135" lon="17.8428673">
        <ele>23.209</ele>
        <time>2013-04-07T13:12:18Z</time>
      </trkpt>
      <trkpt lat="59.8881899" lon="17.8429154">
        <ele>23.209</ele>
        <time>2013-04-07T13:12:19Z</time>
      </trkpt>
      <trkpt lat="59.8882451" lon="17.8429589">
        <ele>23.209</ele>
        <time>2013-04-07T13:12:20Z</time>
      </trkpt>
      <trkpt lat="59.8883004" lon="17.8429976">
        <ele>23.209</ele>
        <time>2013-04-07T13:12:21Z</time>
      </trkpt>
      <trkpt lat="59.8883548" lon="17.8430328">
        <ele>23.209</ele>
        <time>2013-04-07T13:12:22Z</time>
      </trkpt>
      <trkpt lat="59.8884092" lon="17.8430609">
        <ele>23.6896</ele>
        <time>2013-04-07T13:12:23Z</time>
      </trkpt>
      <trkpt lat="59.8884633" lon="17.8430817">
        <ele>23.6896</ele>
        <time>2013-04-07T13:12:24Z</time>
      </trkpt>
      <trkpt lat="59.8885164" lon="17.8430973">
        <ele>23.6896</ele>
        <time>2013-04-07T13:12:25Z</time>
      </trkpt>
      <trkpt lat="59.8885693" lon="17.8431074">
        <ele>24.1703</ele>
        <time>2013-04-07T13:12:26Z</time>
      </trkpt>
      <trkpt lat="59.8886206" lon="17.8431143">
        <ele>24.1703</ele>
        <time>2013-04-07T13:12:27Z</time>
      </trkpt>
      <trkpt lat="59.8886729" lon="17.8431231">
        <ele>24.1703</ele>
        <time>2013-04-07T13:12:28Z</time>
      </trkpt>
      <trkpt lat="59.8887267" lon="17.843133">
        <ele>24.1703</ele>
        <time>2013-04-07T13:12:29Z</time>
      </trkpt>
      <trkpt lat="59.8887804" lon="17.8431423">
        <ele>23.6896</ele>
        <time>2013-04-07T13:12:30Z</time>
      </trkpt>
      <trkpt lat="59.8888324" lon="17.8431516">
        <ele>23.6896</ele>
        <time>2013-04-07T13:12:31Z</time>
      </trkpt>
      <trkpt lat="59.8888852" lon="17.8431669">
        <ele>23.6896</ele>
        <time>2013-04-07T13:12:32Z</time>
      </trkpt>
      <trkpt lat="59.8889373" lon="17.8431863">
        <ele>23.209</ele>
        <time>2013-04-07T13:12:33Z</time>
      </trkpt>
      <trkpt lat="59.8889871" lon="17.8432096">
        <ele>23.209</ele>
        <time>2013-04-07T13:12:34Z</time>
      </trkpt>
      <trkpt lat="59.889036" lon="17.8432417">
        <ele>23.209</ele>
        <time>2013-04-07T13:12:35Z</time>
      </trkpt>
      <trkpt lat="59.889085" lon="17.8432774">
        <ele>23.209</ele>
        <time>2013-04-07T13:12:36Z</time>
      </trkpt>
      <trkpt lat="59.8891328" lon="17.8433127">
        <ele>23.209</ele>
        <time>2013-04-07T13:12:37Z</time>
      </trkpt>
      <trkpt lat="59.8891813" lon="17.8433477">
        <ele>22.7283</ele>
        <time>2013-04-07T13:12:38Z</time>
      </trkpt>
      <trkpt lat="59.8892312" lon="17.8433807">
        <ele>22.7283</ele>
        <time>2013-04-07T13:12:39Z</time>
      </trkpt>
      <trkpt lat="59.8892841" lon="17.8434075">
        <ele>22.7283</ele>
        <time>2013-04-07T13:12:40Z</time>
      </trkpt>
      <trkpt lat="59.8893398" lon="17.8434249">
        <ele>22.2476</ele>
        <time>2013-04-07T13:12:41Z</time>
      </trkpt>
      <trkpt lat="59.8893971" lon="17.8434323">
        <ele>22.2476</ele>
        <time>2013-04-07T13:12:42Z</time>
      </trkpt>
      <trkpt lat="59.8894539" lon="17.8434233">
        <ele>22.2476</ele>
        <time>2013-04-07T13:12:43Z</time>
      </trkpt>
      <trkpt lat="59.8895094" lon="17.8433986">
        <ele>22.2476</ele>
        <time>2013-04-07T13:12:44Z</time>
      </trkpt>
      <trkpt lat="59.8895624" lon="17.8433578">
        <ele>22.7283</ele>
        <time>2013-04-07T13:12:45Z</time>
      </trkpt>
      <trkpt lat="59.8896115" lon="17.8433021">
        <ele>23.209</ele>
        <time>2013-04-07T13:12:46Z</time>
      </trkpt>
      <trkpt lat="59.8896535" lon="17.8432322">
        <ele>23.209</ele>
        <time>2013-04-07T13:12:47Z</time>
      </trkpt>
      <trkpt lat="59.8896887" lon="17.8431507">
        <ele>23.209</ele>
        <time>2013-04-07T13:12:48Z</time>
      </trkpt>
      <trkpt lat="59.8897166" lon="17.8430608">
        <ele>23.6896</ele>
        <time>2013-04-07T13:12:49Z</time>
      </trkpt>
      <trkpt lat="59.8897373" lon="17.8429668">
        <ele>23.6896</ele>
        <time>2013-04-07T13:12:50Z</time>
      </trkpt>
      <trkpt lat="59.8897563" lon="17.8428745">
        <ele>24.1703</ele>
        <time>2013-04-07T13:12:51Z</time>
      </trkpt>
      <trkpt lat="59.889771" lon="17.8427813">
        <ele>24.651</ele>
        <time>2013-04-07T13:12:52Z</time>
      </trkpt>
      <trkpt lat="59.8897809" lon="17.8426876">
        <ele>24.651</ele>
        <time>2013-04-07T13:12:53Z</time>
      </trkpt>
      <trkpt lat="59.8897886" lon="17.8425963">
        <ele>24.651</ele>
        <time>2013-04-07T13:12:54Z</time>
      </trkpt>
      <trkpt lat="59.8897943" lon="17.8425056">
        <ele>25.1317</ele>
        <time>2013-04-07T13:12:55Z</time>
      </trkpt>
      <trkpt lat="59.8897983" lon="17.8424169">
        <ele>25.6123</ele>
        <time>2013-04-07T13:12:56Z</time>
      </trkpt>
      <trkpt lat="59.8898011" lon="17.8423314">
        <ele>26.0929</ele>
        <time>2013-04-07T13:12:57Z</time>
      </trkpt>
      <trkpt lat="59.8898058" lon="17.8422534">
        <ele>26.0929</ele>
        <time>2013-04-07T13:12:58Z</time>
      </trkpt>
      <trkpt lat="59.8898083" lon="17.8421786">
        <ele>26.5736</ele>
        <time>2013-04-07T13:12:59Z</time>
      </trkpt>
      <trkpt lat="59.8898114" lon="17.8421084">
        <ele>27.0543</ele>
        <time>2013-04-07T13:13:00Z</time>
      </trkpt>
      <trkpt lat="59.889818" lon="17.8420415">
        <ele>27.0543</ele>
        <time>2013-04-07T13:13:01Z</time>
      </trkpt>
      <trkpt lat="59.8898259" lon="17.8419757">
        <ele>27.0543</ele>
        <time>2013-04-07T13:13:02Z</time>
      </trkpt>
      <trkpt lat="59.8898337" lon="17.8419094">
        <ele>27.5349</ele>
        <time>2013-04-07T13:13:03Z</time>
      </trkpt>
      <trkpt lat="59.8898407" lon="17.8418369">
        <ele>28.0155</ele>
        <time>2013-04-07T13:13:04Z</time>
      </trkpt>
      <trkpt lat="59.8898481" lon="17.8417678">
        <ele>27.5349</ele>
        <time>2013-04-07T13:13:05Z</time>
      </trkpt>
      <trkpt lat="59.8898556" lon="17.8416943">
        <ele>27.5349</ele>
        <time>2013-04-07T13:13:06Z</time>
      </trkpt>
      <trkpt lat="59.8898648" lon="17.8416167">
        <ele>27.5349</ele>
        <time>2013-04-07T13:13:07Z</time>
      </trkpt>
      <trkpt lat="59.8898771" lon="17.8415384">
        <ele>27.5349</ele>
        <time>2013-04-07T13:13:08Z</time>
      </trkpt>
      <trkpt lat="59.8898926" lon="17.8414587">
        <ele>27.5349</ele>
        <time>2013-04-07T13:13:09Z</time>
      </trkpt>
      <trkpt lat="59.8899099" lon="17.8413774">
        <ele>27.5349</ele>
        <time>2013-04-07T13:13:10Z</time>
      </trkpt>
      <trkpt lat="59.8899295" lon="17.841295">
        <ele>27.0543</ele>
        <time>2013-04-07T13:13:11Z</time>
      </trkpt>
      <trkpt lat="59.8899514" lon="17.8412096">
        <ele>27.0543</ele>
        <time>2013-04-07T13:13:12Z</time>
      </trkpt>
      <trkpt lat="59.8899767" lon="17.8411232">
        <ele>27.0543</ele>
        <time>2013-04-07T13:13:13Z</time>
      </trkpt>
      <trkpt lat="59.8900084" lon="17.8410442">
        <ele>27.0543</ele>
        <time>2013-04-07T13:13:14Z</time>
      </trkpt>
      <trkpt lat="59.8900481" lon="17.8409783">
        <ele>27.0543</ele>
        <time>2013-04-07T13:13:15Z</time>
      </trkpt>
      <trkpt lat="59.8900951" lon="17.8409288">
        <ele>27.0543</ele>
        <time>2013-04-07T13:13:16Z</time>
      </trkpt>
      <trkpt lat="59.8901476" lon="17.8408998">
        <ele>27.0543</ele>
        <time>2013-04-07T13:13:17Z</time>
      </trkpt>
      <trkpt lat="59.890203" lon="17.8408946">
        <ele>27.0543</ele>
        <time>2013-04-07T13:13:18Z</time>
      </trkpt>
      <trkpt lat="59.8902578" lon="17.8409124">
        <ele>26.5736</ele>
        <time>2013-04-07T13:13:19Z</time>
      </trkpt>
      <trkpt lat="59.8903082" lon="17.8409464">
        <ele>26.5736</ele>
        <time>2013-04-07T13:13:20Z</time>
      </trkpt>
      <trkpt lat="59.8903544" lon="17.8409956">
        <ele>26.5736</ele>
        <time>2013-04-07T13:13:21Z</time>
      </trkpt>
      <trkpt lat="59.890399" lon="17.8410567">
        <ele>26.5736</ele>
        <time>2013-04-07T13:13:22Z</time>
      </trkpt>
      <trkpt lat="59.8904413" lon="17.841121">
        <ele>26.5736</ele>
        <time>2013-04-07T13:13:23Z</time>
      </trkpt>
      <trkpt lat="59.8904828" lon="17.8411858">
        <ele>26.5736</ele>
        <time>2013-04-07T13:13:24Z</time>
      </trkpt>
      <trkpt lat="59.8905228" lon="17.8412505">
        <ele>26.5736</ele>
        <time>2013-04-07T13:13:25Z</time>
      </trkpt>
      <trkpt lat="59.8905623" lon="17.8413153">
        <ele>26.5736</ele>
        <time>2013-04-07T13:13:26Z</time>
      </trkpt>
      <trkpt lat="59.8906014" lon="17.8413803">
        <ele>26.5736</ele>
        <time>2013-04-07T13:13:27Z</time>
      </trkpt>
      <trkpt lat="59.8906412" lon="17.8414448">
        <ele>26.5736</ele>
        <time>2013-04-07T13:13:28Z</time>
      </trkpt>
      <trkpt lat="59.8906813" lon="17.8415088">
        <ele>26.5736</ele>
        <time>2013-04-07T13:13:29Z</time>
      </trkpt>
      <trkpt lat="59.8907214" lon="17.8415732">
        <ele>26.5736</ele>
        <time>2013-04-07T13:13:30Z</time>
      </trkpt>
      <trkpt lat="59.8907616" lon="17.8416359">
        <ele>26.5736</ele>
        <time>2013-04-07T13:13:31Z</time>
      </trkpt>
      <trkpt lat="59.8908043" lon="17.8416932">
        <ele>26.5736</ele>
        <time>2013-04-07T13:13:32Z</time>
      </trkpt>
      <trkpt lat="59.8908489" lon="17.8417457">
        <ele>26.5736</ele>
        <time>2013-04-07T13:13:33Z</time>
      </trkpt>
      <trkpt lat="59.8908949" lon="17.8417966">
        <ele>27.0543</ele>
        <time>2013-04-07T13:13:34Z</time>
      </trkpt>
      <trkpt lat="59.8909426" lon="17.841847">
        <ele>27.0543</ele>
        <time>2013-04-07T13:13:35Z</time>
      </trkpt>
      <trkpt lat="59.8909918" lon="17.8418968">
        <ele>27.0543</ele>
        <time>2013-04-07T13:13:36Z</time>
      </trkpt>
      <trkpt lat="59.8910407" lon="17.8419446">
        <ele>27.0543</ele>
        <time>2013-04-07T13:13:37Z</time>
      </trkpt>
      <trkpt lat="59.8910908" lon="17.8419887">
        <ele>27.0543</ele>
        <time>2013-04-07T13:13:38Z</time>
      </trkpt>
      <trkpt lat="59.8911422" lon="17.8420296">
        <ele>27.5349</ele>
        <time>2013-04-07T13:13:39Z</time>
      </trkpt>
      <trkpt lat="59.8911944" lon="17.8420682">
        <ele>28.0155</ele>
        <time>2013-04-07T13:13:40Z</time>
      </trkpt>
      <trkpt lat="59.8912482" lon="17.8421062">
        <ele>28.0155</ele>
        <time>2013-04-07T13:13:41Z</time>
      </trkpt>
      <trkpt lat="59.8913054" lon="17.8421446">
        <ele>28.0155</ele>
        <time>2013-04-07T13:13:42Z</time>
      </trkpt>
      <trkpt lat="59.8913639" lon="17.8421783">
        <ele>28.0155</ele>
        <time>2013-04-07T13:13:43Z</time>
      </trkpt>
      <trkpt lat="59.8914222" lon="17.8422037">
        <ele>28.4962</ele>
        <time>2013-04-07T13:13:44Z</time>
      </trkpt>
      <trkpt lat="59.8914814" lon="17.8422263">
        <ele>28.9769</ele>
        <time>2013-04-07T13:13:45Z</time>
      </trkpt>
      <trkpt lat="59.8915426" lon="17.8422466">
        <ele>28.4962</ele>
        <time>2013-04-07T13:13:46Z</time>
      </trkpt>
      <trkpt lat="59.8916064" lon="17.8422643">
        <ele>28.9769</ele>
        <time>2013-04-07T13:13:47Z</time>
      </trkpt>
      <trkpt lat="59.8916699" lon="17.8422766">
        <ele>28.9769</ele>
        <time>2013-04-07T13:13:48Z</time>
      </trkpt>
      <trkpt lat="59.8917337" lon="17.8422906">
        <ele>28.9769</ele>
        <time>2013-04-07T13:13:49Z</time>
      </trkpt>
      <trkpt lat="59.8917995" lon="17.8423098">
        <ele>28.4962</ele>
        <time>2013-04-07T13:13:50Z</time>
      </trkpt>
      <trkpt lat="59.8918684" lon="17.8423315">
        <ele>28.4962</ele>
        <time>2013-04-07T13:13:51Z</time>
      </trkpt>
      <trkpt lat="59.8919388" lon="17.8423539">
        <ele>28.4962</ele>
        <time>2013-04-07T13:13:52Z</time>
      </trkpt>
      <trkpt lat="59.8920096" lon="17.8423772">
        <ele>28.0155</ele>
        <time>2013-04-07T13:13:53Z</time>
      </trkpt>
      <trkpt lat="59.8920794" lon="17.8424029">
        <ele>27.5349</ele>
        <time>2013-04-07T13:13:54Z</time>
      </trkpt>
      <trkpt lat="59.8921502" lon="17.842429">
        <ele>28.0155</ele>
        <time>2013-04-07T13:13:55Z</time>
      </trkpt>
      <trkpt lat="59.8922223" lon="17.8424605">
        <ele>27.5349</ele>
        <time>2013-04-07T13:13:56Z</time>
      </trkpt>
      <trkpt lat="59.8922956" lon="17.8424936">
        <ele>27.0543</ele>
        <time>2013-04-07T13:13:57Z</time>
      </trkpt>
      <trkpt lat="59.8923699" lon="17.8425298">
        <ele>26.5736</ele>
        <time>2013-04-07T13:13:58Z</time>
      </trkpt>
      <trkpt lat="59.8924441" lon="17.8425652">
        <ele>26.0929</ele>
        <time>2013-04-07T13:13:59Z</time>
      </trkpt>
      <trkpt lat="59.8925174" lon="17.8425988">
        <ele>26.0929</ele>
        <time>2013-04-07T13:14:00Z</time>
      </trkpt>
      <trkpt lat="59.89259" lon="17.8426321">
        <ele>26.0929</ele>
        <time>2013-04-07T13:14:01Z</time>
      </trkpt>
      <trkpt lat="59.8926619" lon="17.8426631">
        <ele>26.0929</ele>
        <time>2013-04-07T13:14:02Z</time>
      </trkpt>
      <trkpt lat="59.8927336" lon="17.8426962">
        <ele>26.0929</ele>
        <time>2013-04-07T13:14:03Z</time>
      </trkpt>
      <trkpt lat="59.8928055" lon="17.842734">
        <ele>25.6123</ele>
        <time>2013-04-07T13:14:04Z</time>
      </trkpt>
      <trkpt lat="59.8928759" lon="17.8427725">
        <ele>25.6123</ele>
        <time>2013-04-07T13:14:05Z</time>
      </trkpt>
      <trkpt lat="59.8929472" lon="17.8428082">
        <ele>25.1317</ele>
        <time>2013-04-07T13:14:06Z</time>
      </trkpt>
      <trkpt lat="59.8930185" lon="17.8428429">
        <ele>25.1317</ele>
        <time>2013-04-07T13:14:07Z</time>
      </trkpt>
      <trkpt lat="59.8930898" lon="17.8428786">
        <ele>24.651</ele>
        <time>2013-04-07T13:14:08Z</time>
      </trkpt>
      <trkpt lat="59.8931609" lon="17.8429122">
        <ele>24.651</ele>
        <time>2013-04-07T13:14:09Z</time>
      </trkpt>
      <trkpt lat="59.8932329" lon="17.8429443">
        <ele>24.651</ele>
        <time>2013-04-07T13:14:10Z</time>
      </trkpt>
      <trkpt lat="59.8933065" lon="17.8429766">
        <ele>24.1703</ele>
        <time>2013-04-07T13:14:11Z</time>
      </trkpt>
      <trkpt lat="59.8933796" lon="17.8430034">
        <ele>24.1703</ele>
        <time>2013-04-07T13:14:12Z</time>
      </trkpt>
      <trkpt lat="59.8934533" lon="17.8430282">
        <ele>23.6896</ele>
        <time>2013-04-07T13:14:13Z</time>
      </trkpt>
      <trkpt lat="59.8935269" lon="17.8430452">
        <ele>23.6896</ele>
        <time>2013-04-07T13:14:14Z</time>
      </trkpt>
      <trkpt lat="59.8936001" lon="17.8430589">
        <ele>23.6896</ele>
        <time>2013-04-07T13:14:15Z</time>
      </trkpt>
      <trkpt lat="59.893671" lon="17.843068">
        <ele>23.209</ele>
        <time>2013-04-07T13:14:16Z</time>
      </trkpt>
      <trkpt lat="59.8937391" lon="17.8430673">
        <ele>23.6896</ele>
        <time>2013-04-07T13:14:17Z</time>
      </trkpt>
      <trkpt lat="59.8938061" lon="17.8430633">
        <ele>23.6896</ele>
        <time>2013-04-07T13:14:18Z</time>
      </trkpt>
      <trkpt lat="59.893873" lon="17.843059">
        <ele>24.1703</ele>
        <time>2013-04-07T13:14:19Z</time>
      </trkpt>
      <trkpt lat="59.8939382" lon="17.8430563">
        <ele>24.1703</ele>
        <time>2013-04-07T13:14:20Z</time>
      </trkpt>
      <trkpt lat="59.8940051" lon="17.8430584">
        <ele>23.6896</ele>
        <time>2013-04-07T13:14:21Z</time>
      </trkpt>
      <trkpt lat="59.8940783" lon="17.8430599">
        <ele>24.1703</ele>
        <time>2013-04-07T13:14:22Z</time>
      </trkpt>
      <trkpt lat="59.8941487" lon="17.8430578">
        <ele>24.1703</ele>
        <time>2013-04-07T13:14:23Z</time>
      </trkpt>
      <trkpt lat="59.8942191" lon="17.843063">
        <ele>23.6896</ele>
        <time>2013-04-07T13:14:24Z</time>
      </trkpt>
      <trkpt lat="59.8942901" lon="17.8430709">
        <ele>23.6896</ele>
        <time>2013-04-07T13:14:25Z</time>
      </trkpt>
      <trkpt lat="59.8943628" lon="17.8430786">
        <ele>23.6896</ele>
        <time>2013-04-07T13:14:26Z</time>
      </trkpt>
      <trkpt lat="59.8944362" lon="17.8430903">
        <ele>23.6896</ele>
        <time>2013-04-07T13:14:27Z</time>
      </trkpt>
      <trkpt lat="59.8945076" lon="17.8431017">
        <ele>23.6896</ele>
        <time>2013-04-07T13:14:28Z</time>
      </trkpt>
      <trkpt lat="59.8945802" lon="17.8431164">
        <ele>23.209</ele>
        <time>2013-04-07T13:14:29Z</time>
      </trkpt>
      <trkpt lat="59.894653" lon="17.8431236">
        <ele>23.6896</ele>
        <time>2013-04-07T13:14:30Z</time>
      </trkpt>
      <trkpt lat="59.8947254" lon="17.8431277">
        <ele>23.209</ele>
        <time>2013-04-07T13:14:31Z</time>
      </trkpt>
      <trkpt lat="59.8948005" lon="17.8431286">
        <ele>23.209</ele>
        <time>2013-04-07T13:14:32Z</time>
      </trkpt>
      <trkpt lat="59.8948756" lon="17.8431245">
        <ele>22.7283</ele>
        <time>2013-04-07T13:14:33Z</time>
      </trkpt>
      <trkpt lat="59.894949" lon="17.8431112">
        <ele>22.7283</ele>
        <time>2013-04-07T13:14:34Z</time>
      </trkpt>
      <trkpt lat="59.8950262" lon="17.8430956">
        <ele>22.7283</ele>
        <time>2013-04-07T13:14:35Z</time>
      </trkpt>
      <trkpt lat="59.8951016" lon="17.8430744">
        <ele>22.7283</ele>
        <time>2013-04-07T13:14:36Z</time>
      </trkpt>
      <trkpt lat="59.8951738" lon="17.8430471">
        <ele>22.7283</ele>
        <time>2013-04-07T13:14:37Z</time>
      </trkpt>
      <trkpt lat="59.8952442" lon="17.8430168">
        <ele>22.2476</ele>
        <time>2013-04-07T13:14:38Z</time>
      </trkpt>
      <trkpt lat="59.8953154" lon="17.8429844">
        <ele>22.2476</ele>
        <time>2013-04-07T13:14:39Z</time>
      </trkpt>
      <trkpt lat="59.8953847" lon="17.8429521">
        <ele>22.2476</ele>
        <time>2013-04-07T13:14:40Z</time>
      </trkpt>
      <trkpt lat="59.8954537" lon="17.8429205">
        <ele>21.767</ele>
        <time>2013-04-07T13:14:41Z</time>
      </trkpt>
      <trkpt lat="59.8955215" lon="17.8428879">
        <ele>21.767</ele>
        <time>2013-04-07T13:14:42Z</time>
      </trkpt>
      <trkpt lat="59.8955872" lon="17.8428563">
        <ele>22.2476</ele>
        <time>2013-04-07T13:14:43Z</time>
      </trkpt>
      <trkpt lat="59.8956504" lon="17.842828">
        <ele>22.2476</ele>
        <time>2013-04-07T13:14:44Z</time>
      </trkpt>
      <trkpt lat="59.8957126" lon="17.842806">
        <ele>22.2476</ele>
        <time>2013-04-07T13:14:45Z</time>
      </trkpt>
      <trkpt lat="59.8957763" lon="17.8427884">
        <ele>22.7283</ele>
        <time>2013-04-07T13:14:46Z</time>
      </trkpt>
      <trkpt lat="59.8958385" lon="17.842772">
        <ele>22.2476</ele>
        <time>2013-04-07T13:14:47Z</time>
      </trkpt>
      <trkpt lat="59.8959023" lon="17.8427595">
        <ele>21.767</ele>
        <time>2013-04-07T13:14:48Z</time>
      </trkpt>
      <trkpt lat="59.895968" lon="17.8427533">
        <ele>21.767</ele>
        <time>2013-04-07T13:14:49Z</time>
      </trkpt>
      <trkpt lat="59.8960297" lon="17.8427537">
        <ele>21.767</ele>
        <time>2013-04-07T13:14:50Z</time>
      </trkpt>
      <trkpt lat="59.8960892" lon="17.8427594">
        <ele>21.767</ele>
        <time>2013-04-07T13:14:51Z</time>
      </trkpt>
      <trkpt lat="59.8961449" lon="17.8427667">
        <ele>21.2864</ele>
        <time>2013-04-07T13:14:52Z</time>
      </trkpt>
      <trkpt lat="59.8961984" lon="17.8427797">
        <ele>21.2864</ele>
        <time>2013-04-07T13:14:53Z</time>
      </trkpt>
      <trkpt lat="59.8962517" lon="17.8427983">
        <ele>21.2864</ele>
        <time>2013-04-07T13:14:54Z</time>
      </trkpt>
      <trkpt lat="59.8963036" lon="17.8428186">
        <ele>21.2864</ele>
        <time>2013-04-07T13:14:55Z</time>
      </trkpt>
      <trkpt lat="59.896358" lon="17.8428434">
        <ele>21.767</ele>
        <time>2013-04-07T13:14:56Z</time>
      </trkpt>
      <trkpt lat="59.8964113" lon="17.8428649">
        <ele>22.2476</ele>
        <time>2013-04-07T13:14:57Z</time>
      </trkpt>
      <trkpt lat="59.8964654" lon="17.8428825">
        <ele>22.7283</ele>
        <time>2013-04-07T13:14:58Z</time>
      </trkpt>
      <trkpt lat="59.8965108" lon="17.8428966">
        <ele>23.209</ele>
        <time>2013-04-07T13:14:59Z</time>
      </trkpt>
      <trkpt lat="59.8965549" lon="17.8429034">
        <ele>23.6896</ele>
        <time>2013-04-07T13:15:00Z</time>
      </trkpt>
      <trkpt lat="59.8965972" lon="17.8429007">
        <ele>24.1703</ele>
        <time>2013-04-07T13:15:01Z</time>
      </trkpt>
      <trkpt lat="59.8966362" lon="17.8428936">
        <ele>24.651</ele>
        <time>2013-04-07T13:15:02Z</time>
      </trkpt>
      <trkpt lat="59.8966734" lon="17.8428844">
        <ele>25.1317</ele>
        <time>2013-04-07T13:15:03Z</time>
      </trkpt>
      <trkpt lat="59.896708" lon="17.8428714">
        <ele>25.6123</ele>
        <time>2013-04-07T13:15:04Z</time>
      </trkpt>
      <trkpt lat="59.8967429" lon="17.8428616">
        <ele>25.6123</ele>
        <time>2013-04-07T13:15:05Z</time>
      </trkpt>
      <trkpt lat="59.8967828" lon="17.8428553">
        <ele>26.5736</ele>
        <time>2013-04-07T13:15:06Z</time>
      </trkpt>
      <trkpt lat="59.8968237" lon="17.8428453">
        <ele>27.0543</ele>
        <time>2013-04-07T13:15:07Z</time>
      </trkpt>
      <trkpt lat="59.8968631" lon="17.8428299">
        <ele>28.0155</ele>
        <time>2013-04-07T13:15:08Z</time>
      </trkpt>
      <trkpt lat="59.8969034" lon="17.8428108">
        <ele>28.0155</ele>
        <time>2013-04-07T13:15:09Z</time>
      </trkpt>
      <trkpt lat="59.8969466" lon="17.8427914">
        <ele>28.4962</ele>
        <time>2013-04-07T13:15:10Z</time>
      </trkpt>
      <trkpt lat="59.8969904" lon="17.8427661">
        <ele>29.4575</ele>
        <time>2013-04-07T13:15:11Z</time>
      </trkpt>
      <trkpt lat="59.8970338" lon="17.8427403">
        <ele>30.4188</ele>
        <time>2013-04-07T13:15:12Z</time>
      </trkpt>
      <trkpt lat="59.8970755" lon="17.8427109">
        <ele>30.4188</ele>
        <time>2013-04-07T13:15:13Z</time>
      </trkpt>
      <trkpt lat="59.897116" lon="17.8426777">
        <ele>30.8995</ele>
        <time>2013-04-07T13:15:14Z</time>
      </trkpt>
      <trkpt lat="59.8971564" lon="17.8426522">
        <ele>31.3801</ele>
        <time>2013-04-07T13:15:15Z</time>
      </trkpt>
      <trkpt lat="59.8971941" lon="17.8426261">
        <ele>31.8607</ele>
        <time>2013-04-07T13:15:16Z</time>
      </trkpt>
      <trkpt lat="59.8972312" lon="17.8425941">
        <ele>32.8223</ele>
        <time>2013-04-07T13:15:17Z</time>
      </trkpt>
      <trkpt lat="59.8972682" lon="17.8425605">
        <ele>33.3029</ele>
        <time>2013-04-07T13:15:18Z</time>
      </trkpt>
      <trkpt lat="59.897308" lon="17.8425279">
        <ele>33.3029</ele>
        <time>2013-04-07T13:15:19Z</time>
      </trkpt>
      <trkpt lat="59.8973514" lon="17.8424937">
        <ele>33.7834</ele>
        <time>2013-04-07T13:15:20Z</time>
      </trkpt>
      <trkpt lat="59.8973966" lon="17.8424575">
        <ele>33.7834</ele>
        <time>2013-04-07T13:15:21Z</time>
      </trkpt>
      <trkpt lat="59.8974417" lon="17.8424244">
        <ele>33.7834</ele>
        <time>2013-04-07T13:15:22Z</time>
      </trkpt>
      <trkpt lat="59.8974898" lon="17.8423953">
        <ele>33.7834</ele>
        <time>2013-04-07T13:15:23Z</time>
      </trkpt>
      <trkpt lat="59.8975375" lon="17.8423688">
        <ele>33.3029</ele>
        <time>2013-04-07T13:15:24Z</time>
      </trkpt>
      <trkpt lat="59.897586" lon="17.8423439">
        <ele>33.3029</ele>
        <time>2013-04-07T13:15:25Z</time>
      </trkpt>
      <trkpt lat="59.8976374" lon="17.8423262">
        <ele>33.3029</ele>
        <time>2013-04-07T13:15:26Z</time>
      </trkpt>
      <trkpt lat="59.8976872" lon="17.842312">
        <ele>33.3029</ele>
        <time>2013-04-07T13:15:27Z</time>
      </trkpt>
      <trkpt lat="59.8977323" lon="17.8422969">
        <ele>32.8223</ele>
        <time>2013-04-07T13:15:28Z</time>
      </trkpt>
      <trkpt lat="59.8977789" lon="17.8422832">
        <ele>32.8223</ele>
        <time>2013-04-07T13:15:29Z</time>
      </trkpt>
      <trkpt lat="59.8978277" lon="17.8422777">
        <ele>32.8223</ele>
        <time>2013-04-07T13:15:30Z</time>
      </trkpt>
      <trkpt lat="59.8978748" lon="17.8422754">
        <ele>32.3416</ele>
        <time>2013-04-07T13:15:31Z</time>
      </trkpt>
      <trkpt lat="59.8979205" lon="17.8422745">
        <ele>32.3416</ele>
        <time>2013-04-07T13:15:32Z</time>
      </trkpt>
      <trkpt lat="59.8979663" lon="17.8422755">
        <ele>32.3416</ele>
        <time>2013-04-07T13:15:33Z</time>
      </trkpt>
      <trkpt lat="59.898012" lon="17.8422751">
        <ele>32.3416</ele>
        <time>2013-04-07T13:15:34Z</time>
      </trkpt>
      <trkpt lat="59.8980555" lon="17.8422734">
        <ele>31.8607</ele>
        <time>2013-04-07T13:15:35Z</time>
      </trkpt>
      <trkpt lat="59.8980975" lon="17.8422693">
        <ele>32.3416</ele>
        <time>2013-04-07T13:15:36Z</time>
      </trkpt>
      <trkpt lat="59.89814" lon="17.8422684">
        <ele>31.8607</ele>
        <time>2013-04-07T13:15:37Z</time>
      </trkpt>
      <trkpt lat="59.8981883" lon="17.842271">
        <ele>31.8607</ele>
        <time>2013-04-07T13:15:38Z</time>
      </trkpt>
      <trkpt lat="59.8982351" lon="17.8422694">
        <ele>31.8607</ele>
        <time>2013-04-07T13:15:39Z</time>
      </trkpt>
      <trkpt lat="59.898281" lon="17.8422632">
        <ele>31.8607</ele>
        <time>2013-04-07T13:15:40Z</time>
      </trkpt>
      <trkpt lat="59.8983271" lon="17.8422529">
        <ele>32.3416</ele>
        <time>2013-04-07T13:15:41Z</time>
      </trkpt>
      <trkpt lat="59.8983715" lon="17.842243">
        <ele>31.8607</ele>
        <time>2013-04-07T13:15:42Z</time>
      </trkpt>
      <trkpt lat="59.8984124" lon="17.8422325">
        <ele>31.8607</ele>
        <time>2013-04-07T13:15:43Z</time>
      </trkpt>
      <trkpt lat="59.8984586" lon="17.8422213">
        <ele>31.8607</ele>
        <time>2013-04-07T13:15:44Z</time>
      </trkpt>
      <trkpt lat="59.8985073" lon="17.8422084">
        <ele>31.8607</ele>
        <time>2013-04-07T13:15:45Z</time>
      </trkpt>
      <trkpt lat="59.8985517" lon="17.8421912">
        <ele>31.8607</ele>
        <time>2013-04-07T13:15:46Z</time>
      </trkpt>
      <trkpt lat="59.8985932" lon="17.84217">
        <ele>31.8607</ele>
        <time>2013-04-07T13:15:47Z</time>
      </trkpt>
      <trkpt lat="59.8986345" lon="17.8421499">
        <ele>31.8607</ele>
        <time>2013-04-07T13:15:48Z</time>
      </trkpt>
      <trkpt lat="59.8986741" lon="17.842129">
        <ele>31.8607</ele>
        <time>2013-04-07T13:15:49Z</time>
      </trkpt>
      <trkpt lat="59.8987127" lon="17.8421071">
        <ele>31.8607</ele>
        <time>2013-04-07T13:15:50Z</time>
      </trkpt>
      <trkpt lat="59.8987527" lon="17.8420835">
        <ele>31.8607</ele>
        <time>2013-04-07T13:15:51Z</time>
      </trkpt>
      <trkpt lat="59.8987906" lon="17.8420622">
        <ele>31.8607</ele>
        <time>2013-04-07T13:15:52Z</time>
      </trkpt>
      <trkpt lat="59.8988244" lon="17.8420427">
        <ele>31.8607</ele>
        <time>2013-04-07T13:15:53Z</time>
      </trkpt>
      <trkpt lat="59.8988584" lon="17.8420224">
        <ele>31.8607</ele>
        <time>2013-04-07T13:15:54Z</time>
      </trkpt>
      <trkpt lat="59.898895" lon="17.8420028">
        <ele>32.3416</ele>
        <time>2013-04-07T13:15:55Z</time>
      </trkpt>
      <trkpt lat="59.8989366" lon="17.8419866">
        <ele>32.3416</ele>
        <time>2013-04-07T13:15:56Z</time>
      </trkpt>
      <trkpt lat="59.8989761" lon="17.8419667">
        <ele>32.8223</ele>
        <time>2013-04-07T13:15:57Z</time>
      </trkpt>
      <trkpt lat="59.8990124" lon="17.8419451">
        <ele>32.8223</ele>
        <time>2013-04-07T13:15:58Z</time>
      </trkpt>
      <trkpt lat="59.8990484" lon="17.8419204">
        <ele>32.8223</ele>
        <time>2013-04-07T13:15:59Z</time>
      </trkpt>
      <trkpt lat="59.8990836" lon="17.8418907">
        <ele>32.3416</ele>
        <time>2013-04-07T13:16:00Z</time>
      </trkpt>
      <trkpt lat="59.8991195" lon="17.8418574">
        <ele>32.3416</ele>
        <time>2013-04-07T13:16:01Z</time>
      </trkpt>
      <trkpt lat="59.8991595" lon="17.8418248">
        <ele>32.3416</ele>
        <time>2013-04-07T13:16:02Z</time>
      </trkpt>
      <trkpt lat="59.8992009" lon="17.8417877">
        <ele>32.3416</ele>
        <time>2013-04-07T13:16:03Z</time>
      </trkpt>
      <trkpt lat="59.8992408" lon="17.8417455">
        <ele>32.3416</ele>
        <time>2013-04-07T13:16:04Z</time>
      </trkpt>
      <trkpt lat="59.8992833" lon="17.8417023">
        <ele>32.3416</ele>
        <time>2013-04-07T13:16:05Z</time>
      </trkpt>
      <trkpt lat="59.8993278" lon="17.8416572">
        <ele>32.3416</ele>
        <time>2013-04-07T13:16:06Z</time>
      </trkpt>
      <trkpt lat="59.899374" lon="17.841611">
        <ele>32.3416</ele>
        <time>2013-04-07T13:16:07Z</time>
      </trkpt>
      <trkpt lat="59.8994224" lon="17.8415706">
        <ele>31.8607</ele>
        <time>2013-04-07T13:16:08Z</time>
      </trkpt>
      <trkpt lat="59.8994754" lon="17.8415339">
        <ele>31.8607</ele>
        <time>2013-04-07T13:16:09Z</time>
      </trkpt>
      <trkpt lat="59.8995291" lon="17.8415008">
        <ele>31.3801</ele>
        <time>2013-04-07T13:16:10Z</time>
      </trkpt>
      <trkpt lat="59.8995877" lon="17.8414759">
        <ele>31.3801</ele>
        <time>2013-04-07T13:16:11Z</time>
      </trkpt>
      <trkpt lat="59.8996515" lon="17.8414582">
        <ele>30.8995</ele>
        <time>2013-04-07T13:16:12Z</time>
      </trkpt>
      <trkpt lat="59.8997205" lon="17.8414427">
        <ele>30.8995</ele>
        <time>2013-04-07T13:16:13Z</time>
      </trkpt>
      <trkpt lat="59.899793" lon="17.8414273">
        <ele>30.4188</ele>
        <time>2013-04-07T13:16:14Z</time>
      </trkpt>
      <trkpt lat="59.8998701" lon="17.8414143">
        <ele>29.9381</ele>
        <time>2013-04-07T13:16:15Z</time>
      </trkpt>
      <trkpt lat="59.8999458" lon="17.8413995">
        <ele>29.4575</ele>
        <time>2013-04-07T13:16:16Z</time>
      </trkpt>
      <trkpt lat="59.900025" lon="17.8413888">
        <ele>28.9769</ele>
        <time>2013-04-07T13:16:17Z</time>
      </trkpt>
      <trkpt lat="59.900112" lon="17.8413873">
        <ele>28.4962</ele>
        <time>2013-04-07T13:16:18Z</time>
      </trkpt>
      <trkpt lat="59.9001978" lon="17.8413852">
        <ele>28.0155</ele>
        <time>2013-04-07T13:16:19Z</time>
      </trkpt>
      <trkpt lat="59.9002855" lon="17.8413845">
        <ele>28.0155</ele>
        <time>2013-04-07T13:16:20Z</time>
      </trkpt>
      <trkpt lat="59.9003741" lon="17.8413872">
        <ele>28.0155</ele>
        <time>2013-04-07T13:16:21Z</time>
      </trkpt>
      <trkpt lat="59.9004634" lon="17.84139">
        <ele>28.0155</ele>
        <time>2013-04-07T13:16:22Z</time>
      </trkpt>
      <trkpt lat="59.9005528" lon="17.8413943">
        <ele>28.0155</ele>
        <time>2013-04-07T13:16:23Z</time>
      </trkpt>
      <trkpt lat="59.9006424" lon="17.8414044">
        <ele>27.5349</ele>
        <time>2013-04-07T13:16:24Z</time>
      </trkpt>
      <trkpt lat="59.900732" lon="17.8414138">
        <ele>27.5349</ele>
        <time>2013-04-07T13:16:25Z</time>
      </trkpt>
      <trkpt lat="59.9008228" lon="17.8414229">
        <ele>27.5349</ele>
        <time>2013-04-07T13:16:26Z</time>
      </trkpt>
      <trkpt lat="59.900912" lon="17.8414329">
        <ele>28.0155</ele>
        <time>2013-04-07T13:16:27Z</time>
      </trkpt>
      <trkpt lat="59.9010013" lon="17.8414492">
        <ele>27.5349</ele>
        <time>2013-04-07T13:16:28Z</time>
      </trkpt>
      <trkpt lat="59.9010911" lon="17.8414661">
        <ele>27.0543</ele>
        <time>2013-04-07T13:16:29Z</time>
      </trkpt>
      <trkpt lat="59.9011812" lon="17.8414801">
        <ele>27.0543</ele>
        <time>2013-04-07T13:16:30Z</time>
      </trkpt>
      <trkpt lat="59.9012707" lon="17.8414939">
        <ele>27.0543</ele>
        <time>2013-04-07T13:16:31Z</time>
      </trkpt>
      <trkpt lat="59.9013573" lon="17.8415064">
        <ele>27.0543</ele>
        <time>2013-04-07T13:16:32Z</time>
      </trkpt>
      <trkpt lat="59.9014442" lon="17.8415215">
        <ele>27.0543</ele>
        <time>2013-04-07T13:16:33Z</time>
      </trkpt>
      <trkpt lat="59.9015299" lon="17.8415339">
        <ele>27.0543</ele>
        <time>2013-04-07T13:16:34Z</time>
      </trkpt>
      <trkpt lat="59.9016132" lon="17.8415463">
        <ele>27.0543</ele>
        <time>2013-04-07T13:16:35Z</time>
      </trkpt>
      <trkpt lat="59.9016916" lon="17.8415549">
        <ele>27.5349</ele>
        <time>2013-04-07T13:16:36Z</time>
      </trkpt>
      <trkpt lat="59.9017712" lon="17.8415644">
        <ele>28.0155</ele>
        <time>2013-04-07T13:16:37Z</time>
      </trkpt>
      <trkpt lat="59.9018498" lon="17.8415793">
        <ele>28.0155</ele>
        <time>2013-04-07T13:16:38Z</time>
      </trkpt>
      <trkpt lat="59.9019225" lon="17.8415914">
        <ele>28.0155</ele>
        <time>2013-04-07T13:16:39Z</time>
      </trkpt>
      <trkpt lat="59.9019924" lon="17.841601">
        <ele>28.4962</ele>
        <time>2013-04-07T13:16:40Z</time>
      </trkpt>
      <trkpt lat="59.9020611" lon="17.8416079">
        <ele>28.0155</ele>
        <time>2013-04-07T13:16:41Z</time>
      </trkpt>
      <trkpt lat="59.9021401" lon="17.8416257">
        <ele>28.0155</ele>
        <time>2013-04-07T13:16:42Z</time>
      </trkpt>
      <trkpt lat="59.9022142" lon="17.8416139">
        <ele>28.0155</ele>
        <time>2013-04-07T13:16:43Z</time>
      </trkpt>
      <trkpt lat="59.9023018" lon="17.8415945">
        <ele>28.0155</ele>
        <time>2013-04-07T13:16:44Z</time>
      </trkpt>
      <trkpt lat="59.9023814" lon="17.8415666">
        <ele>27.5349</ele>
        <time>2013-04-07T13:16:45Z</time>
      </trkpt>
      <trkpt lat="59.9024662" lon="17.8415332">
        <ele>27.0543</ele>
        <time>2013-04-07T13:16:46Z</time>
      </trkpt>
      <trkpt lat="59.9025488" lon="17.8414929">
        <ele>27.0543</ele>
        <time>2013-04-07T13:16:47Z</time>
      </trkpt>
      <trkpt lat="59.9026323" lon="17.841452">
        <ele>27.0543</ele>
        <time>2013-04-07T13:16:48Z</time>
      </trkpt>
      <trkpt lat="59.9027149" lon="17.8414125">
        <ele>27.0543</ele>
        <time>2013-04-07T13:16:49Z</time>
      </trkpt>
      <trkpt lat="59.9027953" lon="17.8413729">
        <ele>26.5736</ele>
        <time>2013-04-07T13:16:50Z</time>
      </trkpt>
      <trkpt lat="59.9028767" lon="17.8413369">
        <ele>26.5736</ele>
        <time>2013-04-07T13:16:51Z</time>
      </trkpt>
      <trkpt lat="59.9029559" lon="17.8413058">
        <ele>27.0543</ele>
        <time>2013-04-07T13:16:52Z</time>
      </trkpt>
      <trkpt lat="59.9030374" lon="17.8412832">
        <ele>27.0543</ele>
        <time>2013-04-07T13:16:53Z</time>
      </trkpt>
      <trkpt lat="59.9031149" lon="17.8412701">
        <ele>27.0543</ele>
        <time>2013-04-07T13:16:54Z</time>
      </trkpt>
      <trkpt lat="59.9031927" lon="17.8412788">
        <ele>26.5736</ele>
        <time>2013-04-07T13:16:55Z</time>
      </trkpt>
      <trkpt lat="59.903266" lon="17.8413032">
        <ele>26.5736</ele>
        <time>2013-04-07T13:16:56Z</time>
      </trkpt>
      <trkpt lat="59.9033377" lon="17.8413511">
        <ele>26.5736</ele>
        <time>2013-04-07T13:16:57Z</time>
      </trkpt>
      <trkpt lat="59.9034056" lon="17.8414195">
        <ele>26.0929</ele>
        <time>2013-04-07T13:16:58Z</time>
      </trkpt>
      <trkpt lat="59.9034694" lon="17.8415058">
        <ele>26.0929</ele>
        <time>2013-04-07T13:16:59Z</time>
      </trkpt>
      <trkpt lat="59.9035318" lon="17.8415971">
        <ele>25.6123</ele>
        <time>2013-04-07T13:17:00Z</time>
      </trkpt>
      <trkpt lat="59.9035957" lon="17.8416883">
        <ele>25.1317</ele>
        <time>2013-04-07T13:17:01Z</time>
      </trkpt>
      <trkpt lat="59.9036619" lon="17.8417783">
        <ele>25.1317</ele>
        <time>2013-04-07T13:17:02Z</time>
      </trkpt>
      <trkpt lat="59.9037312" lon="17.8418586">
        <ele>25.1317</ele>
        <time>2013-04-07T13:17:03Z</time>
      </trkpt>
      <trkpt lat="59.9038054" lon="17.8419234">
        <ele>24.651</ele>
        <time>2013-04-07T13:17:04Z</time>
      </trkpt>
      <trkpt lat="59.9038821" lon="17.8419726">
        <ele>24.1703</ele>
        <time>2013-04-07T13:17:05Z</time>
      </trkpt>
      <trkpt lat="59.9039662" lon="17.8420021">
        <ele>23.6896</ele>
        <time>2013-04-07T13:17:06Z</time>
      </trkpt>
      <trkpt lat="59.9040539" lon="17.842011">
        <ele>23.209</ele>
        <time>2013-04-07T13:17:07Z</time>
      </trkpt>
      <trkpt lat="59.9041425" lon="17.841998">
        <ele>22.7283</ele>
        <time>2013-04-07T13:17:08Z</time>
      </trkpt>
      <trkpt lat="59.9042295" lon="17.8419644">
        <ele>22.7283</ele>
        <time>2013-04-07T13:17:09Z</time>
      </trkpt>
      <trkpt lat="59.9043119" lon="17.8419185">
        <ele>22.2476</ele>
        <time>2013-04-07T13:17:10Z</time>
      </trkpt>
      <trkpt lat="59.9043945" lon="17.8418665">
        <ele>22.2476</ele>
        <time>2013-04-07T13:17:11Z</time>
      </trkpt>
      <trkpt lat="59.9044782" lon="17.8418113">
        <ele>22.2476</ele>
        <time>2013-04-07T13:17:12Z</time>
      </trkpt>
      <trkpt lat="59.9045595" lon="17.8417566">
        <ele>22.2476</ele>
        <time>2013-04-07T13:17:13Z</time>
      </trkpt>
      <trkpt lat="59.9046351" lon="17.8417061">
        <ele>21.767</ele>
        <time>2013-04-07T13:17:14Z</time>
      </trkpt>
      <trkpt lat="59.904712" lon="17.8416566">
        <ele>21.767</ele>
        <time>2013-04-07T13:17:15Z</time>
      </trkpt>
      <trkpt lat="59.9047884" lon="17.841608">
        <ele>21.767</ele>
        <time>2013-04-07T13:17:16Z</time>
      </trkpt>
      <trkpt lat="59.9048657" lon="17.8415629">
        <ele>21.2864</ele>
        <time>2013-04-07T13:17:17Z</time>
      </trkpt>
      <trkpt lat="59.9049492" lon="17.8415252">
        <ele>21.2864</ele>
        <time>2013-04-07T13:17:18Z</time>
      </trkpt>
      <trkpt lat="59.9050364" lon="17.8414887">
        <ele>20.8057</ele>
        <time>2013-04-07T13:17:19Z</time>
      </trkpt>
      <trkpt lat="59.9051308" lon="17.8414546">
        <ele>20.325</ele>
        <time>2013-04-07T13:17:20Z</time>
      </trkpt>
      <trkpt lat="59.9052299" lon="17.8414207">
        <ele>19.3638</ele>
        <time>2013-04-07T13:17:21Z</time>
      </trkpt>
      <trkpt lat="59.905332" lon="17.8413879">
        <ele>18.8831</ele>
        <time>2013-04-07T13:17:22Z</time>
      </trkpt>
      <trkpt lat="59.9054351" lon="17.8413531">
        <ele>18.4023</ele>
        <time>2013-04-07T13:17:23Z</time>
      </trkpt>
      <trkpt lat="59.9055367" lon="17.8413164">
        <ele>17.4412</ele>
        <time>2013-04-07T13:17:24Z</time>
      </trkpt>
      <trkpt lat="59.9056452" lon="17.8412702">
        <ele>17.4412</ele>
        <time>2013-04-07T13:17:25Z</time>
      </trkpt>
      <trkpt lat="59.9057568" lon="17.8412172">
        <ele>16.9604</ele>
        <time>2013-04-07T13:17:26Z</time>
      </trkpt>
      <trkpt lat="59.9058604" lon="17.8411473">
        <ele>16.4797</ele>
        <time>2013-04-07T13:17:27Z</time>
      </trkpt>
      <trkpt lat="59.9059604" lon="17.8410516">
        <ele>16.4797</ele>
        <time>2013-04-07T13:17:28Z</time>
      </trkpt>
      <trkpt lat="59.9060479" lon="17.8409448">
        <ele>15.999</ele>
        <time>2013-04-07T13:17:29Z</time>
      </trkpt>
      <trkpt lat="59.9061254" lon="17.8408289">
        <ele>15.999</ele>
        <time>2013-04-07T13:17:30Z</time>
      </trkpt>
      <trkpt lat="59.9062007" lon="17.8407118">
        <ele>15.999</ele>
        <time>2013-04-07T13:17:31Z</time>
      </trkpt>
      <trkpt lat="59.906272" lon="17.8405983">
        <ele>15.999</ele>
        <time>2013-04-07T13:17:32Z</time>
      </trkpt>
      <trkpt lat="59.9063437" lon="17.8404936">
        <ele>15.5184</ele>
        <time>2013-04-07T13:17:33Z</time>
      </trkpt>
      <trkpt lat="59.9064162" lon="17.8404041">
        <ele>15.5184</ele>
        <time>2013-04-07T13:17:34Z</time>
      </trkpt>
      <trkpt lat="59.9064875" lon="17.8403265">
        <ele>15.999</ele>
        <time>2013-04-07T13:17:35Z</time>
      </trkpt>
      <trkpt lat="59.9065549" lon="17.8402574">
        <ele>15.999</ele>
        <time>2013-04-07T13:17:36Z</time>
      </trkpt>
      <trkpt lat="59.9066208" lon="17.8401953">
        <ele>15.999</ele>
        <time>2013-04-07T13:17:37Z</time>
      </trkpt>
      <trkpt lat="59.9066852" lon="17.8401384">
        <ele>16.4797</ele>
        <time>2013-04-07T13:17:38Z</time>
      </trkpt>
      <trkpt lat="59.9067479" lon="17.840087">
        <ele>16.4797</ele>
        <time>2013-04-07T13:17:39Z</time>
      </trkpt>
      <trkpt lat="59.9068095" lon="17.8400387">
        <ele>16.4797</ele>
        <time>2013-04-07T13:17:40Z</time>
      </trkpt>
      <trkpt lat="59.9068698" lon="17.8399927">
        <ele>16.9604</ele>
        <time>2013-04-07T13:17:41Z</time>
      </trkpt>
      <trkpt lat="59.9069289" lon="17.8399498">
        <ele>16.9604</ele>
        <time>2013-04-07T13:17:42Z</time>
      </trkpt>
      <trkpt lat="59.9069867" lon="17.8399072">
        <ele>16.9604</ele>
        <time>2013-04-07T13:17:43Z</time>
      </trkpt>
      <trkpt lat="59.9070415" lon="17.8398636">
        <ele>17.4412</ele>
        <time>2013-04-07T13:17:44Z</time>
      </trkpt>
      <trkpt lat="59.9070927" lon="17.8398202">
        <ele>17.4412</ele>
        <time>2013-04-07T13:17:45Z</time>
      </trkpt>
      <trkpt lat="59.9071431" lon="17.8397835">
        <ele>17.9218</ele>
        <time>2013-04-07T13:17:46Z</time>
      </trkpt>
      <trkpt lat="59.9071896" lon="17.8397472">
        <ele>17.9218</ele>
        <time>2013-04-07T13:17:47Z</time>
      </trkpt>
      <trkpt lat="59.907235" lon="17.839711">
        <ele>18.4023</ele>
        <time>2013-04-07T13:17:48Z</time>
      </trkpt>
      <trkpt lat="59.9072783" lon="17.8396748">
        <ele>18.8831</ele>
        <time>2013-04-07T13:17:49Z</time>
      </trkpt>
      <trkpt lat="59.9073186" lon="17.8396368">
        <ele>19.3638</ele>
        <time>2013-04-07T13:17:50Z</time>
      </trkpt>
      <trkpt lat="59.9073569" lon="17.8396025">
        <ele>19.3638</ele>
        <time>2013-04-07T13:17:51Z</time>
      </trkpt>
      <trkpt lat="59.9073943" lon="17.8395717">
        <ele>19.3638</ele>
        <time>2013-04-07T13:17:52Z</time>
      </trkpt>
      <trkpt lat="59.9074294" lon="17.83954">
        <ele>19.3638</ele>
        <time>2013-04-07T13:17:53Z</time>
      </trkpt>
      <trkpt lat="59.9074616" lon="17.8395057">
        <ele>19.8444</ele>
        <time>2013-04-07T13:17:54Z</time>
      </trkpt>
      <trkpt lat="59.9074927" lon="17.8394748">
        <ele>19.8444</ele>
        <time>2013-04-07T13:17:55Z</time>
      </trkpt>
      <trkpt lat="59.9075238" lon="17.8394451">
        <ele>19.8444</ele>
        <time>2013-04-07T13:17:56Z</time>
      </trkpt>
      <trkpt lat="59.9075536" lon="17.8394148">
        <ele>19.8444</ele>
        <time>2013-04-07T13:17:57Z</time>
      </trkpt>
      <trkpt lat="59.9075824" lon="17.8393831">
        <ele>19.8444</ele>
        <time>2013-04-07T13:17:58Z</time>
      </trkpt>
      <trkpt lat="59.9076118" lon="17.839348">
        <ele>19.8444</ele>
        <time>2013-04-07T13:17:59Z</time>
      </trkpt>
      <trkpt lat="59.9076425" lon="17.8393098">
        <ele>19.8444</ele>
        <time>2013-04-07T13:18:00Z</time>
      </trkpt>
      <trkpt lat="59.9076756" lon="17.8392692">
        <ele>19.3638</ele>
        <time>2013-04-07T13:18:01Z</time>
      </trkpt>
      <trkpt lat="59.9077113" lon="17.8392266">
        <ele>19.3638</ele>
        <time>2013-04-07T13:18:02Z</time>
      </trkpt>
      <trkpt lat="59.9077499" lon="17.8391811">
        <ele>18.8831</ele>
        <time>2013-04-07T13:18:03Z</time>
      </trkpt>
      <trkpt lat="59.9077921" lon="17.8391324">
        <ele>18.8831</ele>
        <time>2013-04-07T13:18:04Z</time>
      </trkpt>
      <trkpt lat="59.907838" lon="17.8390821">
        <ele>18.4023</ele>
        <time>2013-04-07T13:18:05Z</time>
      </trkpt>
      <trkpt lat="59.9078863" lon="17.8390255">
        <ele>17.9218</ele>
        <time>2013-04-07T13:18:06Z</time>
      </trkpt>
      <trkpt lat="59.9079377" lon="17.8389643">
        <ele>17.4412</ele>
        <time>2013-04-07T13:18:07Z</time>
      </trkpt>
      <trkpt lat="59.9079929" lon="17.8389024">
        <ele>16.9604</ele>
        <time>2013-04-07T13:18:08Z</time>
      </trkpt>
      <trkpt lat="59.9080512" lon="17.8388423">
        <ele>16.4797</ele>
        <time>2013-04-07T13:18:09Z</time>
      </trkpt>
      <trkpt lat="59.9081132" lon="17.8387904">
        <ele>16.4797</ele>
        <time>2013-04-07T13:18:10Z</time>
      </trkpt>
      <trkpt lat="59.9081788" lon="17.83875">
        <ele>15.999</ele>
        <time>2013-04-07T13:18:11Z</time>
      </trkpt>
      <trkpt lat="59.9082473" lon="17.8387217">
        <ele>15.999</ele>
        <time>2013-04-07T13:18:12Z</time>
      </trkpt>
      <trkpt lat="59.9083168" lon="17.8387051">
        <ele>15.5184</ele>
        <time>2013-04-07T13:18:13Z</time>
      </trkpt>
      <trkpt lat="59.9083871" lon="17.8386977">
        <ele>15.5184</ele>
        <time>2013-04-07T13:18:14Z</time>
      </trkpt>
      <trkpt lat="59.9084613" lon="17.8387079">
        <ele>15.0377</ele>
        <time>2013-04-07T13:18:15Z</time>
      </trkpt>
      <trkpt lat="59.9085363" lon="17.8387383">
        <ele>14.0764</ele>
        <time>2013-04-07T13:18:16Z</time>
      </trkpt>
      <trkpt lat="59.9086115" lon="17.8387837">
        <ele>13.5958</ele>
        <time>2013-04-07T13:18:17Z</time>
      </trkpt>
      <trkpt lat="59.9086861" lon="17.8388459">
        <ele>13.1151</ele>
        <time>2013-04-07T13:18:18Z</time>
      </trkpt>
      <trkpt lat="59.9087585" lon="17.8389297">
        <ele>12.1538</ele>
        <time>2013-04-07T13:18:19Z</time>
      </trkpt>
      <trkpt lat="59.9088276" lon="17.8390345">
        <ele>11.6732</ele>
        <time>2013-04-07T13:18:20Z</time>
      </trkpt>
      <trkpt lat="59.9088924" lon="17.8391577">
        <ele>10.7118</ele>
        <time>2013-04-07T13:18:21Z</time>
      </trkpt>
      <trkpt lat="59.9089541" lon="17.8392939">
        <ele>10.2312</ele>
        <time>2013-04-07T13:18:22Z</time>
      </trkpt>
      <trkpt lat="59.9090131" lon="17.8394397">
        <ele>9.2699</ele>
        <time>2013-04-07T13:18:23Z</time>
      </trkpt>
      <trkpt lat="59.9090708" lon="17.8395935">
        <ele>8.78918</ele>
        <time>2013-04-07T13:18:24Z</time>
      </trkpt>
      <trkpt lat="59.9091259" lon="17.8397517">
        <ele>7.82788</ele>
        <time>2013-04-07T13:18:25Z</time>
      </trkpt>
      <trkpt lat="59.9091819" lon="17.839913">
        <ele>7.82788</ele>
        <time>2013-04-07T13:18:26Z</time>
      </trkpt>
      <trkpt lat="59.9092383" lon="17.8400768">
        <ele>7.34717</ele>
        <time>2013-04-07T13:18:27Z</time>
      </trkpt>
      <trkpt lat="59.9092959" lon="17.8402428">
        <ele>6.86646</ele>
        <time>2013-04-07T13:18:28Z</time>
      </trkpt>
      <trkpt lat="59.909355" lon="17.8404055">
        <ele>6.86646</ele>
        <time>2013-04-07T13:18:29Z</time>
      </trkpt>
      <trkpt lat="59.9094125" lon="17.8405652">
        <ele>6.86646</ele>
        <time>2013-04-07T13:18:30Z</time>
      </trkpt>
      <trkpt lat="59.9094667" lon="17.840725">
        <ele>6.38586</ele>
        <time>2013-04-07T13:18:31Z</time>
      </trkpt>
      <trkpt lat="59.9095143" lon="17.8408858">
        <ele>6.38586</ele>
        <time>2013-04-07T13:18:32Z</time>
      </trkpt>
      <trkpt lat="59.9095559" lon="17.84105">
        <ele>5.90527</ele>
        <time>2013-04-07T13:18:33Z</time>
      </trkpt>
      <trkpt lat="59.909589" lon="17.8412182">
        <ele>5.90527</ele>
        <time>2013-04-07T13:18:34Z</time>
      </trkpt>
      <trkpt lat="59.9096101" lon="17.8413889">
        <ele>5.90527</ele>
        <time>2013-04-07T13:18:35Z</time>
      </trkpt>
      <trkpt lat="59.90962" lon="17.841558">
        <ele>6.38586</ele>
        <time>2013-04-07T13:18:36Z</time>
      </trkpt>
      <trkpt lat="59.9096217" lon="17.8417232">
        <ele>6.86646</ele>
        <time>2013-04-07T13:18:37Z</time>
      </trkpt>
      <trkpt lat="59.9096175" lon="17.8418823">
        <ele>7.34717</ele>
        <time>2013-04-07T13:18:38Z</time>
      </trkpt>
      <trkpt lat="59.9096094" lon="17.8420332">
        <ele>7.82788</ele>
        <time>2013-04-07T13:18:39Z</time>
      </trkpt>
      <trkpt lat="59.9095998" lon="17.8421746">
        <ele>7.82788</ele>
        <time>2013-04-07T13:18:40Z</time>
      </trkpt>
      <trkpt lat="59.90959" lon="17.8423094">
        <ele>8.30859</ele>
        <time>2013-04-07T13:18:41Z</time>
      </trkpt>
      <trkpt lat="59.9095788" lon="17.8424398">
        <ele>8.30859</ele>
        <time>2013-04-07T13:18:42Z</time>
      </trkpt>
      <trkpt lat="59.9095708" lon="17.8425673">
        <ele>8.78918</ele>
        <time>2013-04-07T13:18:43Z</time>
      </trkpt>
      <trkpt lat="59.9095705" lon="17.8426937">
        <ele>8.78918</ele>
        <time>2013-04-07T13:18:44Z</time>
      </trkpt>
      <trkpt lat="59.90958" lon="17.8428205">
        <ele>9.2699</ele>
        <time>2013-04-07T13:18:45Z</time>
      </trkpt>
      <trkpt lat="59.9096081" lon="17.8429336">
        <ele>9.2699</ele>
        <time>2013-04-07T13:18:46Z</time>
      </trkpt>
      <trkpt lat="59.909651" lon="17.8430272">
        <ele>9.75061</ele>
        <time>2013-04-07T13:18:47Z</time>
      </trkpt>
      <trkpt lat="59.9097013" lon="17.8431028">
        <ele>9.75061</ele>
        <time>2013-04-07T13:18:48Z</time>
      </trkpt>
      <trkpt lat="59.9097552" lon="17.8431664">
        <ele>10.2312</ele>
        <time>2013-04-07T13:18:49Z</time>
      </trkpt>
      <trkpt lat="59.90981" lon="17.8432277">
        <ele>10.2312</ele>
        <time>2013-04-07T13:18:50Z</time>
      </trkpt>
      <trkpt lat="59.9098647" lon="17.8432876">
        <ele>10.2312</ele>
        <time>2013-04-07T13:18:51Z</time>
      </trkpt>
      <trkpt lat="59.9099185" lon="17.8433482">
        <ele>10.2312</ele>
        <time>2013-04-07T13:18:52Z</time>
      </trkpt>
      <trkpt lat="59.9099675" lon="17.8434096">
        <ele>10.2312</ele>
        <time>2013-04-07T13:18:53Z</time>
      </trkpt>
      <trkpt lat="59.910019" lon="17.8434728">
        <ele>10.2312</ele>
        <time>2013-04-07T13:18:54Z</time>
      </trkpt>
      <trkpt lat="59.9100744" lon="17.843527">
        <ele>10.7118</ele>
        <time>2013-04-07T13:18:55Z</time>
      </trkpt>
      <trkpt lat="59.9101276" lon="17.8435754">
        <ele>10.7118</ele>
        <time>2013-04-07T13:18:56Z</time>
      </trkpt>
      <trkpt lat="59.9101822" lon="17.8436231">
        <ele>10.7118</ele>
        <time>2013-04-07T13:18:57Z</time>
      </trkpt>
      <trkpt lat="59.910246" lon="17.8436764">
        <ele>11.1925</ele>
        <time>2013-04-07T13:18:58Z</time>
      </trkpt>
      <trkpt lat="59.9103178" lon="17.8437342">
        <ele>11.1925</ele>
        <time>2013-04-07T13:18:59Z</time>
      </trkpt>
      <trkpt lat="59.9103892" lon="17.8437897">
        <ele>11.1925</ele>
        <time>2013-04-07T13:19:00Z</time>
      </trkpt>
      <trkpt lat="59.9104576" lon="17.8438438">
        <ele>11.1925</ele>
        <time>2013-04-07T13:19:01Z</time>
      </trkpt>
      <trkpt lat="59.9105287" lon="17.8438996">
        <ele>11.1925</ele>
        <time>2013-04-07T13:19:02Z</time>
      </trkpt>
      <trkpt lat="59.9106049" lon="17.843954">
        <ele>10.7118</ele>
        <time>2013-04-07T13:19:03Z</time>
      </trkpt>
      <trkpt lat="59.9106868" lon="17.8440105">
        <ele>10.7118</ele>
        <time>2013-04-07T13:19:04Z</time>
      </trkpt>
      <trkpt lat="59.9107685" lon="17.8440721">
        <ele>10.7118</ele>
        <time>2013-04-07T13:19:05Z</time>
      </trkpt>
      <trkpt lat="59.9108494" lon="17.8441348">
        <ele>10.2312</ele>
        <time>2013-04-07T13:19:06Z</time>
      </trkpt>
      <trkpt lat="59.9109332" lon="17.8441886">
        <ele>9.75061</ele>
        <time>2013-04-07T13:19:07Z</time>
      </trkpt>
      <trkpt lat="59.9110175" lon="17.8442305">
        <ele>9.75061</ele>
        <time>2013-04-07T13:19:08Z</time>
      </trkpt>
      <trkpt lat="59.911101" lon="17.8442564">
        <ele>9.2699</ele>
        <time>2013-04-07T13:19:09Z</time>
      </trkpt>
      <trkpt lat="59.9111839" lon="17.8442722">
        <ele>9.2699</ele>
        <time>2013-04-07T13:19:10Z</time>
      </trkpt>
      <trkpt lat="59.9112657" lon="17.844285">
        <ele>8.78918</ele>
        <time>2013-04-07T13:19:11Z</time>
      </trkpt>
      <trkpt lat="59.9113451" lon="17.8442928">
        <ele>8.78918</ele>
        <time>2013-04-07T13:19:12Z</time>
      </trkpt>
      <trkpt lat="59.9114222" lon="17.8442946">
        <ele>8.78918</ele>
        <time>2013-04-07T13:19:13Z</time>
      </trkpt>
      <trkpt lat="59.9114984" lon="17.8442923">
        <ele>8.78918</ele>
        <time>2013-04-07T13:19:14Z</time>
      </trkpt>
      <trkpt lat="59.9115735" lon="17.8442876">
        <ele>8.78918</ele>
        <time>2013-04-07T13:19:15Z</time>
      </trkpt>
      <trkpt lat="59.9116466" lon="17.8442797">
        <ele>9.2699</ele>
        <time>2013-04-07T13:19:16Z</time>
      </trkpt>
      <trkpt lat="59.9117181" lon="17.8442672">
        <ele>9.2699</ele>
        <time>2013-04-07T13:19:17Z</time>
      </trkpt>
      <trkpt lat="59.9117873" lon="17.8442473">
        <ele>9.2699</ele>
        <time>2013-04-07T13:19:18Z</time>
      </trkpt>
      <trkpt lat="59.9118544" lon="17.8442213">
        <ele>9.75061</ele>
        <time>2013-04-07T13:19:19Z</time>
      </trkpt>
      <trkpt lat="59.9119201" lon="17.8441902">
        <ele>9.75061</ele>
        <time>2013-04-07T13:19:20Z</time>
      </trkpt>
      <trkpt lat="59.9119841" lon="17.8441548">
        <ele>9.75061</ele>
        <time>2013-04-07T13:19:21Z</time>
      </trkpt>
      <trkpt lat="59.9120453" lon="17.8441156">
        <ele>10.2312</ele>
        <time>2013-04-07T13:19:22Z</time>
      </trkpt>
      <trkpt lat="59.9121029" lon="17.8440716">
        <ele>10.7118</ele>
        <time>2013-04-07T13:19:23Z</time>
      </trkpt>
      <trkpt lat="59.9121576" lon="17.8440238">
        <ele>10.7118</ele>
        <time>2013-04-07T13:19:24Z</time>
      </trkpt>
      <trkpt lat="59.9122095" lon="17.8439762">
        <ele>11.1925</ele>
        <time>2013-04-07T13:19:25Z</time>
      </trkpt>
      <trkpt lat="59.9122593" lon="17.8439265">
        <ele>11.1925</ele>
        <time>2013-04-07T13:19:26Z</time>
      </trkpt>
      <trkpt lat="59.9123055" lon="17.8438761">
        <ele>11.6732</ele>
        <time>2013-04-07T13:19:27Z</time>
      </trkpt>
      <trkpt lat="59.9123522" lon="17.8438255">
        <ele>11.6732</ele>
        <time>2013-04-07T13:19:28Z</time>
      </trkpt>
      <trkpt lat="59.9124006" lon="17.8437742">
        <ele>12.1538</ele>
        <time>2013-04-07T13:19:29Z</time>
      </trkpt>
      <trkpt lat="59.9124503" lon="17.8437238">
        <ele>12.1538</ele>
        <time>2013-04-07T13:19:30Z</time>
      </trkpt>
      <trkpt lat="59.9125013" lon="17.8436743">
        <ele>12.1538</ele>
        <time>2013-04-07T13:19:31Z</time>
      </trkpt>
      <trkpt lat="59.9125527" lon="17.8436251">
        <ele>11.6732</ele>
        <time>2013-04-07T13:19:32Z</time>
      </trkpt>
      <trkpt lat="59.9126054" lon="17.8435763">
        <ele>11.6732</ele>
        <time>2013-04-07T13:19:33Z</time>
      </trkpt>
      <trkpt lat="59.9126609" lon="17.8435317">
        <ele>11.6732</ele>
        <time>2013-04-07T13:19:34Z</time>
      </trkpt>
      <trkpt lat="59.9127184" lon="17.8434905">
        <ele>11.6732</ele>
        <time>2013-04-07T13:19:35Z</time>
      </trkpt>
      <trkpt lat="59.9127784" lon="17.8434549">
        <ele>11.6732</ele>
        <time>2013-04-07T13:19:36Z</time>
      </trkpt>
      <trkpt lat="59.9128406" lon="17.8434261">
        <ele>11.6732</ele>
        <time>2013-04-07T13:19:37Z</time>
      </trkpt>
      <trkpt lat="59.9129059" lon="17.8434033">
        <ele>11.6732</ele>
        <time>2013-04-07T13:19:38Z</time>
      </trkpt>
      <trkpt lat="59.9129741" lon="17.8433816">
        <ele>11.6732</ele>
        <time>2013-04-07T13:19:39Z</time>
      </trkpt>
      <trkpt lat="59.9130442" lon="17.8433608">
        <ele>11.1925</ele>
        <time>2013-04-07T13:19:40Z</time>
      </trkpt>
      <trkpt lat="59.9131157" lon="17.8433397">
        <ele>11.1925</ele>
        <time>2013-04-07T13:19:41Z</time>
      </trkpt>
      <trkpt lat="59.9131885" lon="17.8433194">
        <ele>10.7118</ele>
        <time>2013-04-07T13:19:42Z</time>
      </trkpt>
      <trkpt lat="59.9132621" lon="17.8433006">
        <ele>10.7118</ele>
        <time>2013-04-07T13:19:43Z</time>
      </trkpt>
      <trkpt lat="59.9133357" lon="17.8432785">
        <ele>10.2312</ele>
        <time>2013-04-07T13:19:44Z</time>
      </trkpt>
      <trkpt lat="59.9134088" lon="17.8432524">
        <ele>10.2312</ele>
        <time>2013-04-07T13:19:45Z</time>
      </trkpt>
      <trkpt lat="59.9134817" lon="17.843224">
        <ele>10.2312</ele>
        <time>2013-04-07T13:19:46Z</time>
      </trkpt>
      <trkpt lat="59.9135532" lon="17.8431899">
        <ele>10.2312</ele>
        <time>2013-04-07T13:19:47Z</time>
      </trkpt>
      <trkpt lat="59.9136228" lon="17.8431473">
        <ele>10.7118</ele>
        <time>2013-04-07T13:19:48Z</time>
      </trkpt>
      <trkpt lat="59.9136906" lon="17.8430987">
        <ele>10.7118</ele>
        <time>2013-04-07T13:19:49Z</time>
      </trkpt>
      <trkpt lat="59.9137569" lon="17.8430468">
        <ele>10.7118</ele>
        <time>2013-04-07T13:19:50Z</time>
      </trkpt>
      <trkpt lat="59.9138212" lon="17.8429931">
        <ele>10.7118</ele>
        <time>2013-04-07T13:19:51Z</time>
      </trkpt>
      <trkpt lat="59.9138839" lon="17.8429369">
        <ele>10.7118</ele>
        <time>2013-04-07T13:19:52Z</time>
      </trkpt>
      <trkpt lat="59.9139458" lon="17.8428807">
        <ele>10.7118</ele>
        <time>2013-04-07T13:19:53Z</time>
      </trkpt>
      <trkpt lat="59.9140069" lon="17.842825">
        <ele>11.1925</ele>
        <time>2013-04-07T13:19:54Z</time>
      </trkpt>
      <trkpt lat="59.914066" lon="17.8427661">
        <ele>11.1925</ele>
        <time>2013-04-07T13:19:55Z</time>
      </trkpt>
      <trkpt lat="59.9141232" lon="17.8427051">
        <ele>11.1925</ele>
        <time>2013-04-07T13:19:56Z</time>
      </trkpt>
      <trkpt lat="59.9141796" lon="17.8426464">
        <ele>11.1925</ele>
        <time>2013-04-07T13:19:57Z</time>
      </trkpt>
      <trkpt lat="59.9142351" lon="17.842589">
        <ele>11.1925</ele>
        <time>2013-04-07T13:19:58Z</time>
      </trkpt>
      <trkpt lat="59.9142887" lon="17.8425287">
        <ele>11.1925</ele>
        <time>2013-04-07T13:19:59Z</time>
      </trkpt>
      <trkpt lat="59.9143405" lon="17.8424661">
        <ele>11.1925</ele>
        <time>2013-04-07T13:20:00Z</time>
      </trkpt>
      <trkpt lat="59.9143914" lon="17.8424034">
        <ele>11.1925</ele>
        <time>2013-04-07T13:20:01Z</time>
      </trkpt>
      <trkpt lat="59.9144413" lon="17.8423399">
        <ele>11.1925</ele>
        <time>2013-04-07T13:20:02Z</time>
      </trkpt>
      <trkpt lat="59.914491" lon="17.842277">
        <ele>11.1925</ele>
        <time>2013-04-07T13:20:03Z</time>
      </trkpt>
      <trkpt lat="59.9145412" lon="17.8422192">
        <ele>11.1925</ele>
        <time>2013-04-07T13:20:04Z</time>
      </trkpt>
      <trkpt lat="59.9145925" lon="17.8421694">
        <ele>11.6732</ele>
        <time>2013-04-07T13:20:05Z</time>
      </trkpt>
      <trkpt lat="59.9146439" lon="17.8421231">
        <ele>11.6732</ele>
        <time>2013-04-07T13:20:06Z</time>
      </trkpt>
      <trkpt lat="59.9146946" lon="17.8420779">
        <ele>11.6732</ele>
        <time>2013-04-07T13:20:07Z</time>
      </trkpt>
      <trkpt lat="59.9147451" lon="17.8420354">
        <ele>11.6732</ele>
        <time>2013-04-07T13:20:08Z</time>
      </trkpt>
      <trkpt lat="59.9147964" lon="17.8419976">
        <ele>11.6732</ele>
        <time>2013-04-07T13:20:09Z</time>
      </trkpt>
      <trkpt lat="59.9148474" lon="17.8419641">
        <ele>11.6732</ele>
        <time>2013-04-07T13:20:10Z</time>
      </trkpt>
      <trkpt lat="59.9148988" lon="17.8419347">
        <ele>11.6732</ele>
        <time>2013-04-07T13:20:11Z</time>
      </trkpt>
      <trkpt lat="59.9149499" lon="17.841908">
        <ele>12.1538</ele>
        <time>2013-04-07T13:20:12Z</time>
      </trkpt>
      <trkpt lat="59.9150002" lon="17.8418807">
        <ele>12.1538</ele>
        <time>2013-04-07T13:20:13Z</time>
      </trkpt>
      <trkpt lat="59.9150485" lon="17.841855">
        <ele>12.6344</ele>
        <time>2013-04-07T13:20:14Z</time>
      </trkpt>
      <trkpt lat="59.9150977" lon="17.8418379">
        <ele>12.6344</ele>
        <time>2013-04-07T13:20:15Z</time>
      </trkpt>
      <trkpt lat="59.9151432" lon="17.8418246">
        <ele>12.6344</ele>
        <time>2013-04-07T13:20:16Z</time>
      </trkpt>
      <trkpt lat="59.9151911" lon="17.8418156">
        <ele>13.1151</ele>
        <time>2013-04-07T13:20:17Z</time>
      </trkpt>
      <trkpt lat="59.9152388" lon="17.8418108">
        <ele>13.5958</ele>
        <time>2013-04-07T13:20:18Z</time>
      </trkpt>
      <trkpt lat="59.9152861" lon="17.8418088">
        <ele>13.5958</ele>
        <time>2013-04-07T13:20:19Z</time>
      </trkpt>
      <trkpt lat="59.9153343" lon="17.8418094">
        <ele>14.0764</ele>
        <time>2013-04-07T13:20:20Z</time>
      </trkpt>
      <trkpt lat="59.915381" lon="17.8418119">
        <ele>14.0764</ele>
        <time>2013-04-07T13:20:21Z</time>
      </trkpt>
      <trkpt lat="59.9154307" lon="17.8418191">
        <ele>14.557</ele>
        <time>2013-04-07T13:20:22Z</time>
      </trkpt>
      <trkpt lat="59.9154783" lon="17.841825">
        <ele>14.557</ele>
        <time>2013-04-07T13:20:23Z</time>
      </trkpt>
      <trkpt lat="59.9155275" lon="17.8418315">
        <ele>14.557</ele>
        <time>2013-04-07T13:20:24Z</time>
      </trkpt>
      <trkpt lat="59.9155781" lon="17.8418375">
        <ele>14.557</ele>
        <time>2013-04-07T13:20:25Z</time>
      </trkpt>
      <trkpt lat="59.9156283" lon="17.8418416">
        <ele>14.557</ele>
        <time>2013-04-07T13:20:26Z</time>
      </trkpt>
      <trkpt lat="59.9156777" lon="17.8418442">
        <ele>15.0377</ele>
        <time>2013-04-07T13:20:27Z</time>
      </trkpt>
      <trkpt lat="59.9157285" lon="17.8418463">
        <ele>15.0377</ele>
        <time>2013-04-07T13:20:28Z</time>
      </trkpt>
      <trkpt lat="59.9157777" lon="17.8418482">
        <ele>14.557</ele>
        <time>2013-04-07T13:20:29Z</time>
      </trkpt>
      <trkpt lat="59.9158257" lon="17.8418505">
        <ele>14.557</ele>
        <time>2013-04-07T13:20:30Z</time>
      </trkpt>
      <trkpt lat="59.915873" lon="17.841855">
        <ele>14.557</ele>
        <time>2013-04-07T13:20:31Z</time>
      </trkpt>
      <trkpt lat="59.9159205" lon="17.8418618">
        <ele>14.557</ele>
        <time>2013-04-07T13:20:32Z</time>
      </trkpt>
      <trkpt lat="59.9159681" lon="17.8418711">
        <ele>14.557</ele>
        <time>2013-04-07T13:20:33Z</time>
      </trkpt>
      <trkpt lat="59.916015" lon="17.8418843">
        <ele>14.557</ele>
        <time>2013-04-07T13:20:34Z</time>
      </trkpt>
      <trkpt lat="59.9160609" lon="17.8419072">
        <ele>14.557</ele>
        <time>2013-04-07T13:20:35Z</time>
      </trkpt>
      <trkpt lat="59.9161064" lon="17.8419372">
        <ele>14.557</ele>
        <time>2013-04-07T13:20:36Z</time>
      </trkpt>
      <trkpt lat="59.916151" lon="17.8419756">
        <ele>15.0377</ele>
        <time>2013-04-07T13:20:37Z</time>
      </trkpt>
      <trkpt lat="59.9161926" lon="17.8420204">
        <ele>15.0377</ele>
        <time>2013-04-07T13:20:38Z</time>
      </trkpt>
      <trkpt lat="59.9162314" lon="17.842072">
        <ele>15.0377</ele>
        <time>2013-04-07T13:20:39Z</time>
      </trkpt>
      <trkpt lat="59.9162683" lon="17.842128">
        <ele>15.0377</ele>
        <time>2013-04-07T13:20:40Z</time>
      </trkpt>
      <trkpt lat="59.916305" lon="17.8421819">
        <ele>15.0377</ele>
        <time>2013-04-07T13:20:41Z</time>
      </trkpt>
      <trkpt lat="59.9163417" lon="17.8422345">
        <ele>15.5184</ele>
        <time>2013-04-07T13:20:42Z</time>
      </trkpt>
      <trkpt lat="59.916377" lon="17.842287">
        <ele>15.5184</ele>
        <time>2013-04-07T13:20:43Z</time>
      </trkpt>
      <trkpt lat="59.9164136" lon="17.8423367">
        <ele>15.999</ele>
        <time>2013-04-07T13:20:44Z</time>
      </trkpt>
      <trkpt lat="59.9164495" lon="17.842387">
        <ele>16.4797</ele>
        <time>2013-04-07T13:20:45Z</time>
      </trkpt>
      <trkpt lat="59.9164835" lon="17.8424396">
        <ele>16.4797</ele>
        <time>2013-04-07T13:20:46Z</time>
      </trkpt>
      <trkpt lat="59.9165159" lon="17.8424915">
        <ele>16.9604</ele>
        <time>2013-04-07T13:20:47Z</time>
      </trkpt>
      <trkpt lat="59.9165485" lon="17.8425414">
        <ele>16.9604</ele>
        <time>2013-04-07T13:20:48Z</time>
      </trkpt>
      <trkpt lat="59.9165804" lon="17.8425927">
        <ele>16.9604</ele>
        <time>2013-04-07T13:20:49Z</time>
      </trkpt>
      <trkpt lat="59.9166108" lon="17.8426471">
        <ele>16.9604</ele>
        <time>2013-04-07T13:20:50Z</time>
      </trkpt>
      <trkpt lat="59.9166418" lon="17.8426997">
        <ele>17.4412</ele>
        <time>2013-04-07T13:20:51Z</time>
      </trkpt>
      <trkpt lat="59.9166735" lon="17.8427486">
        <ele>17.4412</ele>
        <time>2013-04-07T13:20:52Z</time>
      </trkpt>
      <trkpt lat="59.916706" lon="17.8427931">
        <ele>17.9218</ele>
        <time>2013-04-07T13:20:53Z</time>
      </trkpt>
      <trkpt lat="59.9167386" lon="17.842834">
        <ele>17.9218</ele>
        <time>2013-04-07T13:20:54Z</time>
      </trkpt>
      <trkpt lat="59.91677" lon="17.8428735">
        <ele>17.9218</ele>
        <time>2013-04-07T13:20:55Z</time>
      </trkpt>
      <trkpt lat="59.9168013" lon="17.8429103">
        <ele>17.9218</ele>
        <time>2013-04-07T13:20:56Z</time>
      </trkpt>
      <trkpt lat="59.9168334" lon="17.8429437">
        <ele>18.4023</ele>
        <time>2013-04-07T13:20:57Z</time>
      </trkpt>
      <trkpt lat="59.9168659" lon="17.842974">
        <ele>18.4023</ele>
        <time>2013-04-07T13:20:58Z</time>
      </trkpt>
      <trkpt lat="59.9168997" lon="17.8430001">
        <ele>18.4023</ele>
        <time>2013-04-07T13:20:59Z</time>
      </trkpt>
      <trkpt lat="59.9169355" lon="17.8430178">
        <ele>18.4023</ele>
        <time>2013-04-07T13:21:00Z</time>
      </trkpt>
      <trkpt lat="59.9169733" lon="17.8430248">
        <ele>18.4023</ele>
        <time>2013-04-07T13:21:01Z</time>
      </trkpt>
      <trkpt lat="59.9170124" lon="17.8430211">
        <ele>18.4023</ele>
        <time>2013-04-07T13:21:02Z</time>
      </trkpt>
      <trkpt lat="59.917052" lon="17.8430074">
        <ele>18.4023</ele>
        <time>2013-04-07T13:21:03Z</time>
      </trkpt>
      <trkpt lat="59.9170928" lon="17.842987">
        <ele>17.9218</ele>
        <time>2013-04-07T13:21:04Z</time>
      </trkpt>
      <trkpt lat="59.9171354" lon="17.8429636">
        <ele>17.9218</ele>
        <time>2013-04-07T13:21:05Z</time>
      </trkpt>
      <trkpt lat="59.9171797" lon="17.8429439">
        <ele>17.4412</ele>
        <time>2013-04-07T13:21:06Z</time>
      </trkpt>
      <trkpt lat="59.9172239" lon="17.8429195">
        <ele>17.4412</ele>
        <time>2013-04-07T13:21:07Z</time>
      </trkpt>
      <trkpt lat="59.9172668" lon="17.8428867">
        <ele>16.9604</ele>
        <time>2013-04-07T13:21:08Z</time>
      </trkpt>
      <trkpt lat="59.9173089" lon="17.8428515">
        <ele>16.9604</ele>
        <time>2013-04-07T13:21:09Z</time>
      </trkpt>
      <trkpt lat="59.9173519" lon="17.8428211">
        <ele>16.4797</ele>
        <time>2013-04-07T13:21:10Z</time>
      </trkpt>
      <trkpt lat="59.9173963" lon="17.8427894">
        <ele>16.4797</ele>
        <time>2013-04-07T13:21:11Z</time>
      </trkpt>
      <trkpt lat="59.9174411" lon="17.8427552">
        <ele>16.4797</ele>
        <time>2013-04-07T13:21:12Z</time>
      </trkpt>
      <trkpt lat="59.9174861" lon="17.8427199">
        <ele>16.4797</ele>
        <time>2013-04-07T13:21:13Z</time>
      </trkpt>
      <trkpt lat="59.9175307" lon="17.8426831">
        <ele>16.4797</ele>
        <time>2013-04-07T13:21:14Z</time>
      </trkpt>
      <trkpt lat="59.9175736" lon="17.8426455">
        <ele>16.4797</ele>
        <time>2013-04-07T13:21:15Z</time>
      </trkpt>
      <trkpt lat="59.9176161" lon="17.8426072">
        <ele>16.4797</ele>
        <time>2013-04-07T13:21:16Z</time>
      </trkpt>
      <trkpt lat="59.9176585" lon="17.8425699">
        <ele>16.4797</ele>
        <time>2013-04-07T13:21:17Z</time>
      </trkpt>
      <trkpt lat="59.9177032" lon="17.8425298">
        <ele>16.9604</ele>
        <time>2013-04-07T13:21:18Z</time>
      </trkpt>
      <trkpt lat="59.9177498" lon="17.8424823">
        <ele>16.4797</ele>
        <time>2013-04-07T13:21:19Z</time>
      </trkpt>
      <trkpt lat="59.9177986" lon="17.8424285">
        <ele>16.4797</ele>
        <time>2013-04-07T13:21:20Z</time>
      </trkpt>
      <trkpt lat="59.9178509" lon="17.8423692">
        <ele>16.4797</ele>
        <time>2013-04-07T13:21:21Z</time>
      </trkpt>
      <trkpt lat="59.9179036" lon="17.8423088">
        <ele>15.999</ele>
        <time>2013-04-07T13:21:22Z</time>
      </trkpt>
      <trkpt lat="59.917955" lon="17.8422497">
        <ele>15.999</ele>
        <time>2013-04-07T13:21:23Z</time>
      </trkpt>
      <trkpt lat="59.9180068" lon="17.8421946">
        <ele>15.999</ele>
        <time>2013-04-07T13:21:24Z</time>
      </trkpt>
      <trkpt lat="59.9180578" lon="17.8421418">
        <ele>15.999</ele>
        <time>2013-04-07T13:21:25Z</time>
      </trkpt>
      <trkpt lat="59.9181067" lon="17.8420884">
        <ele>15.999</ele>
        <time>2013-04-07T13:21:26Z</time>
      </trkpt>
      <trkpt lat="59.9181546" lon="17.8420353">
        <ele>15.999</ele>
        <time>2013-04-07T13:21:27Z</time>
      </trkpt>
      <trkpt lat="59.918203" lon="17.8419841">
        <ele>15.999</ele>
        <time>2013-04-07T13:21:28Z</time>
      </trkpt>
      <trkpt lat="59.9182537" lon="17.8419343">
        <ele>15.999</ele>
        <time>2013-04-07T13:21:29Z</time>
      </trkpt>
      <trkpt lat="59.9183059" lon="17.841885">
        <ele>15.999</ele>
        <time>2013-04-07T13:21:30Z</time>
      </trkpt>
      <trkpt lat="59.9183583" lon="17.8418342">
        <ele>15.999</ele>
        <time>2013-04-07T13:21:31Z</time>
      </trkpt>
      <trkpt lat="59.9184109" lon="17.841782">
        <ele>15.5184</ele>
        <time>2013-04-07T13:21:32Z</time>
      </trkpt>
      <trkpt lat="59.9184644" lon="17.8417313">
        <ele>15.5184</ele>
        <time>2013-04-07T13:21:33Z</time>
      </trkpt>
      <trkpt lat="59.918518" lon="17.841682">
        <ele>15.5184</ele>
        <time>2013-04-07T13:21:34Z</time>
      </trkpt>
      <trkpt lat="59.9185719" lon="17.8416333">
        <ele>15.5184</ele>
        <time>2013-04-07T13:21:35Z</time>
      </trkpt>
      <trkpt lat="59.9186257" lon="17.841588">
        <ele>15.5184</ele>
        <time>2013-04-07T13:21:36Z</time>
      </trkpt>
      <trkpt lat="59.9186787" lon="17.8415471">
        <ele>15.5184</ele>
        <time>2013-04-07T13:21:37Z</time>
      </trkpt>
      <trkpt lat="59.9187309" lon="17.8415068">
        <ele>15.999</ele>
        <time>2013-04-07T13:21:38Z</time>
      </trkpt>
      <trkpt lat="59.9187822" lon="17.8414673">
        <ele>15.999</ele>
        <time>2013-04-07T13:21:39Z</time>
      </trkpt>
      <trkpt lat="59.9188332" lon="17.8414287">
        <ele>15.999</ele>
        <time>2013-04-07T13:21:40Z</time>
      </trkpt>
      <trkpt lat="59.9188843" lon="17.841391">
        <ele>15.999</ele>
        <time>2013-04-07T13:21:41Z</time>
      </trkpt>
      <trkpt lat="59.9189364" lon="17.8413542">
        <ele>15.999</ele>
        <time>2013-04-07T13:21:42Z</time>
      </trkpt>
      <trkpt lat="59.9189886" lon="17.8413177">
        <ele>15.999</ele>
        <time>2013-04-07T13:21:43Z</time>
      </trkpt>
      <trkpt lat="59.9190408" lon="17.8412825">
        <ele>16.4797</ele>
        <time>2013-04-07T13:21:44Z</time>
      </trkpt>
      <trkpt lat="59.9190926" lon="17.8412465">
        <ele>16.4797</ele>
        <time>2013-04-07T13:21:45Z</time>
      </trkpt>
      <trkpt lat="59.9191441" lon="17.8412096">
        <ele>16.4797</ele>
        <time>2013-04-07T13:21:46Z</time>
      </trkpt>
      <trkpt lat="59.9191955" lon="17.8411729">
        <ele>16.4797</ele>
        <time>2013-04-07T13:21:47Z</time>
      </trkpt>
      <trkpt lat="59.9192472" lon="17.841136">
        <ele>16.4797</ele>
        <time>2013-04-07T13:21:48Z</time>
      </trkpt>
      <trkpt lat="59.9192991" lon="17.8410998">
        <ele>16.4797</ele>
        <time>2013-04-07T13:21:49Z</time>
      </trkpt>
      <trkpt lat="59.9193515" lon="17.8410635">
        <ele>16.4797</ele>
        <time>2013-04-07T13:21:50Z</time>
      </trkpt>
      <trkpt lat="59.9194046" lon="17.8410257">
        <ele>16.4797</ele>
        <time>2013-04-07T13:21:51Z</time>
      </trkpt>
      <trkpt lat="59.9194585" lon="17.8409901">
        <ele>16.4797</ele>
        <time>2013-04-07T13:21:52Z</time>
      </trkpt>
      <trkpt lat="59.9195131" lon="17.8409574">
        <ele>16.4797</ele>
        <time>2013-04-07T13:21:53Z</time>
      </trkpt>
      <trkpt lat="59.9195668" lon="17.8409243">
        <ele>16.9604</ele>
        <time>2013-04-07T13:21:54Z</time>
      </trkpt>
      <trkpt lat="59.9196204" lon="17.8408936">
        <ele>16.9604</ele>
        <time>2013-04-07T13:21:55Z</time>
      </trkpt>
      <trkpt lat="59.9196742" lon="17.8408667">
        <ele>16.9604</ele>
        <time>2013-04-07T13:21:56Z</time>
      </trkpt>
      <trkpt lat="59.9197273" lon="17.8408431">
        <ele>16.9604</ele>
        <time>2013-04-07T13:21:57Z</time>
      </trkpt>
      <trkpt lat="59.91978" lon="17.8408238">
        <ele>16.9604</ele>
        <time>2013-04-07T13:21:58Z</time>
      </trkpt>
      <trkpt lat="59.9198322" lon="17.8408092">
        <ele>17.4412</ele>
        <time>2013-04-07T13:21:59Z</time>
      </trkpt>
      <trkpt lat="59.9198835" lon="17.8407974">
        <ele>17.4412</ele>
        <time>2013-04-07T13:22:00Z</time>
      </trkpt>
      <trkpt lat="59.9199347" lon="17.8407895">
        <ele>17.4412</ele>
        <time>2013-04-07T13:22:01Z</time>
      </trkpt>
      <trkpt lat="59.9199853" lon="17.8407848">
        <ele>17.4412</ele>
        <time>2013-04-07T13:22:02Z</time>
      </trkpt>
      <trkpt lat="59.9200347" lon="17.8407813">
        <ele>17.9218</ele>
        <time>2013-04-07T13:22:03Z</time>
      </trkpt>
      <trkpt lat="59.9200829" lon="17.8407775">
        <ele>17.9218</ele>
        <time>2013-04-07T13:22:04Z</time>
      </trkpt>
      <trkpt lat="59.9201305" lon="17.8407754">
        <ele>17.9218</ele>
        <time>2013-04-07T13:22:05Z</time>
      </trkpt>
      <trkpt lat="59.9201773" lon="17.840775">
        <ele>17.9218</ele>
        <time>2013-04-07T13:22:06Z</time>
      </trkpt>
      <trkpt lat="59.9202222" lon="17.8407743">
        <ele>17.9218</ele>
        <time>2013-04-07T13:22:07Z</time>
      </trkpt>
      <trkpt lat="59.9202678" lon="17.8407764">
        <ele>17.9218</ele>
        <time>2013-04-07T13:22:08Z</time>
      </trkpt>
      <trkpt lat="59.9203129" lon="17.8407791">
        <ele>17.9218</ele>
        <time>2013-04-07T13:22:09Z</time>
      </trkpt>
      <trkpt lat="59.9203591" lon="17.8407801">
        <ele>17.9218</ele>
        <time>2013-04-07T13:22:10Z</time>
      </trkpt>
      <trkpt lat="59.9204068" lon="17.8407794">
        <ele>17.9218</ele>
        <time>2013-04-07T13:22:11Z</time>
      </trkpt>
      <trkpt lat="59.9204554" lon="17.8407764">
        <ele>17.9218</ele>
        <time>2013-04-07T13:22:12Z</time>
      </trkpt>
      <trkpt lat="59.920506" lon="17.8407709">
        <ele>17.9218</ele>
        <time>2013-04-07T13:22:13Z</time>
      </trkpt>
      <trkpt lat="59.9205603" lon="17.8407661">
        <ele>17.9218</ele>
        <time>2013-04-07T13:22:14Z</time>
      </trkpt>
      <trkpt lat="59.9206162" lon="17.8407625">
        <ele>17.9218</ele>
        <time>2013-04-07T13:22:15Z</time>
      </trkpt>
      <trkpt lat="59.9206727" lon="17.8407589">
        <ele>17.9218</ele>
        <time>2013-04-07T13:22:16Z</time>
      </trkpt>
      <trkpt lat="59.9207302" lon="17.8407558">
        <ele>17.9218</ele>
        <time>2013-04-07T13:22:17Z</time>
      </trkpt>
      <trkpt lat="59.9207879" lon="17.8407522">
        <ele>17.9218</ele>
        <time>2013-04-07T13:22:18Z</time>
      </trkpt>
      <trkpt lat="59.920846" lon="17.8407484">
        <ele>17.4412</ele>
        <time>2013-04-07T13:22:19Z</time>
      </trkpt>
      <trkpt lat="59.9209045" lon="17.8407475">
        <ele>17.4412</ele>
        <time>2013-04-07T13:22:20Z</time>
      </trkpt>
      <trkpt lat="59.9209635" lon="17.840746">
        <ele>17.4412</ele>
        <time>2013-04-07T13:22:21Z</time>
      </trkpt>
      <trkpt lat="59.9210231" lon="17.8407427">
        <ele>17.4412</ele>
        <time>2013-04-07T13:22:22Z</time>
      </trkpt>
      <trkpt lat="59.921084" lon="17.8407411">
        <ele>17.4412</ele>
        <time>2013-04-07T13:22:23Z</time>
      </trkpt>
      <trkpt lat="59.9211454" lon="17.8407388">
        <ele>17.4412</ele>
        <time>2013-04-07T13:22:24Z</time>
      </trkpt>
      <trkpt lat="59.9212081" lon="17.8407361">
        <ele>16.9604</ele>
        <time>2013-04-07T13:22:25Z</time>
      </trkpt>
      <trkpt lat="59.9212711" lon="17.840732">
        <ele>16.9604</ele>
        <time>2013-04-07T13:22:26Z</time>
      </trkpt>
      <trkpt lat="59.9213338" lon="17.8407261">
        <ele>16.9604</ele>
        <time>2013-04-07T13:22:27Z</time>
      </trkpt>
      <trkpt lat="59.9213958" lon="17.8407185">
        <ele>16.9604</ele>
        <time>2013-04-07T13:22:28Z</time>
      </trkpt>
      <trkpt lat="59.9214564" lon="17.8407085">
        <ele>16.9604</ele>
        <time>2013-04-07T13:22:29Z</time>
      </trkpt>
      <trkpt lat="59.9215167" lon="17.8406962">
        <ele>16.9604</ele>
        <time>2013-04-07T13:22:30Z</time>
      </trkpt>
      <trkpt lat="59.9215769" lon="17.8406832">
        <ele>16.9604</ele>
        <time>2013-04-07T13:22:31Z</time>
      </trkpt>
      <trkpt lat="59.9216369" lon="17.8406691">
        <ele>16.9604</ele>
        <time>2013-04-07T13:22:32Z</time>
      </trkpt>
      <trkpt lat="59.9216963" lon="17.8406548">
        <ele>16.9604</ele>
        <time>2013-04-07T13:22:33Z</time>
      </trkpt>
      <trkpt lat="59.9217551" lon="17.8406398">
        <ele>16.9604</ele>
        <time>2013-04-07T13:22:34Z</time>
      </trkpt>
      <trkpt lat="59.9218134" lon="17.8406237">
        <ele>16.9604</ele>
        <time>2013-04-07T13:22:35Z</time>
      </trkpt>
      <trkpt lat="59.9218705" lon="17.8406074">
        <ele>16.9604</ele>
        <time>2013-04-07T13:22:36Z</time>
      </trkpt>
      <trkpt lat="59.9219273" lon="17.8405919">
        <ele>16.9604</ele>
        <time>2013-04-07T13:22:37Z</time>
      </trkpt>
      <trkpt lat="59.9219841" lon="17.8405771">
        <ele>16.9604</ele>
        <time>2013-04-07T13:22:38Z</time>
      </trkpt>
      <trkpt lat="59.9220413" lon="17.8405631">
        <ele>16.4797</ele>
        <time>2013-04-07T13:22:39Z</time>
      </trkpt>
      <trkpt lat="59.9220979" lon="17.8405492">
        <ele>16.4797</ele>
        <time>2013-04-07T13:22:40Z</time>
      </trkpt>
      <trkpt lat="59.9221544" lon="17.8405334">
        <ele>16.4797</ele>
        <time>2013-04-07T13:22:41Z</time>
      </trkpt>
      <trkpt lat="59.9222107" lon="17.8405143">
        <ele>16.4797</ele>
        <time>2013-04-07T13:22:42Z</time>
      </trkpt>
      <trkpt lat="59.9222658" lon="17.8404938">
        <ele>16.4797</ele>
        <time>2013-04-07T13:22:43Z</time>
      </trkpt>
      <trkpt lat="59.9223198" lon="17.8404738">
        <ele>16.4797</ele>
        <time>2013-04-07T13:22:44Z</time>
      </trkpt>
      <trkpt lat="59.9223733" lon="17.8404532">
        <ele>16.4797</ele>
        <time>2013-04-07T13:22:45Z</time>
      </trkpt>
      <trkpt lat="59.922426" lon="17.8404315">
        <ele>16.4797</ele>
        <time>2013-04-07T13:22:46Z</time>
      </trkpt>
      <trkpt lat="59.9224778" lon="17.8404093">
        <ele>16.4797</ele>
        <time>2013-04-07T13:22:47Z</time>
      </trkpt>
      <trkpt lat="59.9225285" lon="17.8403858">
        <ele>16.4797</ele>
        <time>2013-04-07T13:22:48Z</time>
      </trkpt>
      <trkpt lat="59.9225779" lon="17.8403606">
        <ele>16.4797</ele>
        <time>2013-04-07T13:22:49Z</time>
      </trkpt>
      <trkpt lat="59.9226268" lon="17.8403348">
        <ele>16.9604</ele>
        <time>2013-04-07T13:22:50Z</time>
      </trkpt>
      <trkpt lat="59.9226749" lon="17.8403097">
        <ele>16.9604</ele>
        <time>2013-04-07T13:22:51Z</time>
      </trkpt>
      <trkpt lat="59.9227227" lon="17.8402849">
        <ele>16.9604</ele>
        <time>2013-04-07T13:22:52Z</time>
      </trkpt>
      <trkpt lat="59.9227693" lon="17.8402588">
        <ele>16.9604</ele>
        <time>2013-04-07T13:22:53Z</time>
      </trkpt>
      <trkpt lat="59.9228158" lon="17.8402342">
        <ele>16.9604</ele>
        <time>2013-04-07T13:22:54Z</time>
      </trkpt>
      <trkpt lat="59.9228626" lon="17.8402112">
        <ele>16.9604</ele>
        <time>2013-04-07T13:22:55Z</time>
      </trkpt>
      <trkpt lat="59.9229105" lon="17.840186">
        <ele>16.9604</ele>
        <time>2013-04-07T13:22:56Z</time>
      </trkpt>
      <trkpt lat="59.9229583" lon="17.8401596">
        <ele>16.9604</ele>
        <time>2013-04-07T13:22:57Z</time>
      </trkpt>
      <trkpt lat="59.9230071" lon="17.8401338">
        <ele>16.4797</ele>
        <time>2013-04-07T13:22:58Z</time>
      </trkpt>
      <trkpt lat="59.9230564" lon="17.8401087">
        <ele>16.4797</ele>
        <time>2013-04-07T13:22:59Z</time>
      </trkpt>
      <trkpt lat="59.923106" lon="17.8400817">
        <ele>16.4797</ele>
        <time>2013-04-07T13:23:00Z</time>
      </trkpt>
      <trkpt lat="59.9231555" lon="17.8400529">
        <ele>16.4797</ele>
        <time>2013-04-07T13:23:01Z</time>
      </trkpt>
      <trkpt lat="59.9232056" lon="17.8400243">
        <ele>16.4797</ele>
        <time>2013-04-07T13:23:02Z</time>
      </trkpt>
      <trkpt lat="59.9232567" lon="17.8399967">
        <ele>16.4797</ele>
        <time>2013-04-07T13:23:03Z</time>
      </trkpt>
      <trkpt lat="59.9233088" lon="17.8399685">
        <ele>16.4797</ele>
        <time>2013-04-07T13:23:04Z</time>
      </trkpt>
      <trkpt lat="59.9233614" lon="17.8399392">
        <ele>16.4797</ele>
        <time>2013-04-07T13:23:05Z</time>
      </trkpt>
      <trkpt lat="59.9234145" lon="17.8399115">
        <ele>16.4797</ele>
        <time>2013-04-07T13:23:06Z</time>
      </trkpt>
      <trkpt lat="59.9234677" lon="17.8398848">
        <ele>16.4797</ele>
        <time>2013-04-07T13:23:07Z</time>
      </trkpt>
      <trkpt lat="59.9235212" lon="17.8398581">
        <ele>16.4797</ele>
        <time>2013-04-07T13:23:08Z</time>
      </trkpt>
      <trkpt lat="59.9235744" lon="17.839831">
        <ele>16.4797</ele>
        <time>2013-04-07T13:23:09Z</time>
      </trkpt>
      <trkpt lat="59.9236277" lon="17.8398043">
        <ele>16.4797</ele>
        <time>2013-04-07T13:23:10Z</time>
      </trkpt>
      <trkpt lat="59.923681" lon="17.8397781">
        <ele>16.4797</ele>
        <time>2013-04-07T13:23:11Z</time>
      </trkpt>
      <trkpt lat="59.9237336" lon="17.8397512">
        <ele>16.4797</ele>
        <time>2013-04-07T13:23:12Z</time>
      </trkpt>
      <trkpt lat="59.9237868" lon="17.839727">
        <ele>16.4797</ele>
        <time>2013-04-07T13:23:13Z</time>
      </trkpt>
      <trkpt lat="59.9238403" lon="17.8397041">
        <ele>16.9604</ele>
        <time>2013-04-07T13:23:14Z</time>
      </trkpt>
      <trkpt lat="59.9238939" lon="17.8396815">
        <ele>16.9604</ele>
        <time>2013-04-07T13:23:15Z</time>
      </trkpt>
      <trkpt lat="59.9239478" lon="17.8396602">
        <ele>16.9604</ele>
        <time>2013-04-07T13:23:16Z</time>
      </trkpt>
      <trkpt lat="59.9240027" lon="17.8396396">
        <ele>16.4797</ele>
        <time>2013-04-07T13:23:17Z</time>
      </trkpt>
      <trkpt lat="59.9240579" lon="17.8396188">
        <ele>16.4797</ele>
        <time>2013-04-07T13:23:18Z</time>
      </trkpt>
      <trkpt lat="59.9241131" lon="17.8395986">
        <ele>16.4797</ele>
        <time>2013-04-07T13:23:19Z</time>
      </trkpt>
      <trkpt lat="59.9241682" lon="17.8395804">
        <ele>16.4797</ele>
        <time>2013-04-07T13:23:20Z</time>
      </trkpt>
      <trkpt lat="59.9242233" lon="17.8395624">
        <ele>16.4797</ele>
        <time>2013-04-07T13:23:21Z</time>
      </trkpt>
      <trkpt lat="59.9242788" lon="17.8395446">
        <ele>16.4797</ele>
        <time>2013-04-07T13:23:22Z</time>
      </trkpt>
      <trkpt lat="59.9243343" lon="17.8395279">
        <ele>16.4797</ele>
        <time>2013-04-07T13:23:23Z</time>
      </trkpt>
      <trkpt lat="59.92439" lon="17.8395119">
        <ele>16.4797</ele>
        <time>2013-04-07T13:23:24Z</time>
      </trkpt>
      <trkpt lat="59.9244461" lon="17.839497">
        <ele>16.4797</ele>
        <time>2013-04-07T13:23:25Z</time>
      </trkpt>
      <trkpt lat="59.9245024" lon="17.8394826">
        <ele>16.4797</ele>
        <time>2013-04-07T13:23:26Z</time>
      </trkpt>
      <trkpt lat="59.9245584" lon="17.8394694">
        <ele>16.9604</ele>
        <time>2013-04-07T13:23:27Z</time>
      </trkpt>
      <trkpt lat="59.9246153" lon="17.8394587">
        <ele>16.9604</ele>
        <time>2013-04-07T13:23:28Z</time>
      </trkpt>
      <trkpt lat="59.9246736" lon="17.8394492">
        <ele>16.9604</ele>
        <time>2013-04-07T13:23:29Z</time>
      </trkpt>
      <trkpt lat="59.9247326" lon="17.83944">
        <ele>16.9604</ele>
        <time>2013-04-07T13:23:30Z</time>
      </trkpt>
      <trkpt lat="59.9247916" lon="17.8394328">
        <ele>16.9604</ele>
        <time>2013-04-07T13:23:31Z</time>
      </trkpt>
      <trkpt lat="59.9248496" lon="17.8394249">
        <ele>16.9604</ele>
        <time>2013-04-07T13:23:32Z</time>
      </trkpt>
      <trkpt lat="59.9249069" lon="17.839416">
        <ele>16.9604</ele>
        <time>2013-04-07T13:23:33Z</time>
      </trkpt>
      <trkpt lat="59.9249637" lon="17.839411">
        <ele>16.9604</ele>
        <time>2013-04-07T13:23:34Z</time>
      </trkpt>
      <trkpt lat="59.9250203" lon="17.8394096">
        <ele>16.9604</ele>
        <time>2013-04-07T13:23:35Z</time>
      </trkpt>
      <trkpt lat="59.9250765" lon="17.8394083">
        <ele>17.4412</ele>
        <time>2013-04-07T13:23:36Z</time>
      </trkpt>
      <trkpt lat="59.9251326" lon="17.8394085">
        <ele>17.4412</ele>
        <time>2013-04-07T13:23:37Z</time>
      </trkpt>
      <trkpt lat="59.9251899" lon="17.8394122">
        <ele>16.9604</ele>
        <time>2013-04-07T13:23:38Z</time>
      </trkpt>
      <trkpt lat="59.9252483" lon="17.8394148">
        <ele>16.9604</ele>
        <time>2013-04-07T13:23:39Z</time>
      </trkpt>
      <trkpt lat="59.9253075" lon="17.8394179">
        <ele>16.9604</ele>
        <time>2013-04-07T13:23:40Z</time>
      </trkpt>
      <trkpt lat="59.9253676" lon="17.839423">
        <ele>16.9604</ele>
        <time>2013-04-07T13:23:41Z</time>
      </trkpt>
      <trkpt lat="59.9254285" lon="17.8394297">
        <ele>16.9604</ele>
        <time>2013-04-07T13:23:42Z</time>
      </trkpt>
      <trkpt lat="59.9254899" lon="17.8394375">
        <ele>16.9604</ele>
        <time>2013-04-07T13:23:43Z</time>
      </trkpt>
      <trkpt lat="59.9255525" lon="17.8394435">
        <ele>16.4797</ele>
        <time>2013-04-07T13:23:44Z</time>
      </trkpt>
      <trkpt lat="59.9256156" lon="17.8394453">
        <ele>16.4797</ele>
        <time>2013-04-07T13:23:45Z</time>
      </trkpt>
      <trkpt lat="59.9256789" lon="17.8394393">
        <ele>16.4797</ele>
        <time>2013-04-07T13:23:46Z</time>
      </trkpt>
      <trkpt lat="59.9257416" lon="17.8394182">
        <ele>16.4797</ele>
        <time>2013-04-07T13:23:47Z</time>
      </trkpt>
      <trkpt lat="59.9258027" lon="17.8393798">
        <ele>16.4797</ele>
        <time>2013-04-07T13:23:48Z</time>
      </trkpt>
      <trkpt lat="59.9258607" lon="17.8393247">
        <ele>16.4797</ele>
        <time>2013-04-07T13:23:49Z</time>
      </trkpt>
      <trkpt lat="59.9259141" lon="17.8392546">
        <ele>15.999</ele>
        <time>2013-04-07T13:23:50Z</time>
      </trkpt>
      <trkpt lat="59.9259637" lon="17.839176">
        <ele>15.999</ele>
        <time>2013-04-07T13:23:51Z</time>
      </trkpt>
      <trkpt lat="59.9260094" lon="17.8390935">
        <ele>15.999</ele>
        <time>2013-04-07T13:23:52Z</time>
      </trkpt>
      <trkpt lat="59.926052" lon="17.8390075">
        <ele>15.999</ele>
        <time>2013-04-07T13:23:53Z</time>
      </trkpt>
      <trkpt lat="59.9260932" lon="17.8389221">
        <ele>15.999</ele>
        <time>2013-04-07T13:23:54Z</time>
      </trkpt>
      <trkpt lat="59.926132" lon="17.8388381">
        <ele>15.999</ele>
        <time>2013-04-07T13:23:55Z</time>
      </trkpt>
      <trkpt lat="59.9261688" lon="17.8387538">
        <ele>15.999</ele>
        <time>2013-04-07T13:23:56Z</time>
      </trkpt>
      <trkpt lat="59.9262043" lon="17.8386717">
        <ele>15.999</ele>
        <time>2013-04-07T13:23:57Z</time>
      </trkpt>
      <trkpt lat="59.9262394" lon="17.8385926">
        <ele>15.999</ele>
        <time>2013-04-07T13:23:58Z</time>
      </trkpt>
      <trkpt lat="59.9262753" lon="17.8385139">
        <ele>15.999</ele>
        <time>2013-04-07T13:23:59Z</time>
      </trkpt>
      <trkpt lat="59.926312" lon="17.8384345">
        <ele>16.4797</ele>
        <time>2013-04-07T13:24:00Z</time>
      </trkpt>
      <trkpt lat="59.9263498" lon="17.8383557">
        <ele>16.4797</ele>
        <time>2013-04-07T13:24:01Z</time>
      </trkpt>
      <trkpt lat="59.9263881" lon="17.8382778">
        <ele>16.4797</ele>
        <time>2013-04-07T13:24:02Z</time>
      </trkpt>
      <trkpt lat="59.9264244" lon="17.8381987">
        <ele>16.4797</ele>
        <time>2013-04-07T13:24:03Z</time>
      </trkpt>
      <trkpt lat="59.926459" lon="17.8381164">
        <ele>16.4797</ele>
        <time>2013-04-07T13:24:04Z</time>
      </trkpt>
      <trkpt lat="59.9264957" lon="17.8380399">
        <ele>16.4797</ele>
        <time>2013-04-07T13:24:05Z</time>
      </trkpt>
      <trkpt lat="59.9265362" lon="17.8379765">
        <ele>16.4797</ele>
        <time>2013-04-07T13:24:06Z</time>
      </trkpt>
      <trkpt lat="59.9265783" lon="17.8379232">
        <ele>16.9604</ele>
        <time>2013-04-07T13:24:07Z</time>
      </trkpt>
      <trkpt lat="59.9266226" lon="17.8378771">
        <ele>16.9604</ele>
        <time>2013-04-07T13:24:08Z</time>
      </trkpt>
      <trkpt lat="59.9266674" lon="17.8378353">
        <ele>16.9604</ele>
        <time>2013-04-07T13:24:09Z</time>
      </trkpt>
      <trkpt lat="59.9267149" lon="17.8377975">
        <ele>17.4412</ele>
        <time>2013-04-07T13:24:10Z</time>
      </trkpt>
      <trkpt lat="59.9267606" lon="17.8377626">
        <ele>17.9218</ele>
        <time>2013-04-07T13:24:11Z</time>
      </trkpt>
      <trkpt lat="59.9268047" lon="17.8377296">
        <ele>17.9218</ele>
        <time>2013-04-07T13:24:12Z</time>
      </trkpt>
      <trkpt lat="59.926846" lon="17.8376959">
        <ele>17.9218</ele>
        <time>2013-04-07T13:24:13Z</time>
      </trkpt>
      <trkpt lat="59.9268838" lon="17.8376629">
        <ele>17.9218</ele>
        <time>2013-04-07T13:24:14Z</time>
      </trkpt>
      <trkpt lat="59.9269227" lon="17.837628">
        <ele>17.9218</ele>
        <time>2013-04-07T13:24:15Z</time>
      </trkpt>
      <trkpt lat="59.9269616" lon="17.8375927">
        <ele>17.9218</ele>
        <time>2013-04-07T13:24:16Z</time>
      </trkpt>
      <trkpt lat="59.9270054" lon="17.8375435">
        <ele>17.9218</ele>
        <time>2013-04-07T13:24:17Z</time>
      </trkpt>
      <trkpt lat="59.9270499" lon="17.8374883">
        <ele>17.9218</ele>
        <time>2013-04-07T13:24:18Z</time>
      </trkpt>
      <trkpt lat="59.9270898" lon="17.8374357">
        <ele>17.9218</ele>
        <time>2013-04-07T13:24:19Z</time>
      </trkpt>
      <trkpt lat="59.9271281" lon="17.8373823">
        <ele>17.9218</ele>
        <time>2013-04-07T13:24:20Z</time>
      </trkpt>
      <trkpt lat="59.9271661" lon="17.8373307">
        <ele>17.9218</ele>
        <time>2013-04-07T13:24:21Z</time>
      </trkpt>
      <trkpt lat="59.9272036" lon="17.8372789">
        <ele>17.9218</ele>
        <time>2013-04-07T13:24:22Z</time>
      </trkpt>
      <trkpt lat="59.9272413" lon="17.8372272">
        <ele>17.9218</ele>
        <time>2013-04-07T13:24:23Z</time>
      </trkpt>
      <trkpt lat="59.9272806" lon="17.8371775">
        <ele>17.4412</ele>
        <time>2013-04-07T13:24:24Z</time>
      </trkpt>
      <trkpt lat="59.9273204" lon="17.8371286">
        <ele>17.4412</ele>
        <time>2013-04-07T13:24:25Z</time>
      </trkpt>
      <trkpt lat="59.9273599" lon="17.837079">
        <ele>17.4412</ele>
        <time>2013-04-07T13:24:26Z</time>
      </trkpt>
      <trkpt lat="59.9273992" lon="17.8370286">
        <ele>17.4412</ele>
        <time>2013-04-07T13:24:27Z</time>
      </trkpt>
      <trkpt lat="59.9274376" lon="17.83698">
        <ele>17.4412</ele>
        <time>2013-04-07T13:24:28Z</time>
      </trkpt>
      <trkpt lat="59.9274758" lon="17.8369324">
        <ele>17.4412</ele>
        <time>2013-04-07T13:24:29Z</time>
      </trkpt>
      <trkpt lat="59.9275132" lon="17.8368841">
        <ele>17.4412</ele>
        <time>2013-04-07T13:24:30Z</time>
      </trkpt>
      <trkpt lat="59.9275496" lon="17.8368358">
        <ele>17.4412</ele>
        <time>2013-04-07T13:24:31Z</time>
      </trkpt>
      <trkpt lat="59.9275851" lon="17.8367858">
        <ele>17.9218</ele>
        <time>2013-04-07T13:24:32Z</time>
      </trkpt>
      <trkpt lat="59.927622" lon="17.8367334">
        <ele>17.9218</ele>
        <time>2013-04-07T13:24:33Z</time>
      </trkpt>
      <trkpt lat="59.9276587" lon="17.8366785">
        <ele>18.4023</ele>
        <time>2013-04-07T13:24:34Z</time>
      </trkpt>
      <trkpt lat="59.927695" lon="17.8366226">
        <ele>18.4023</ele>
        <time>2013-04-07T13:24:35Z</time>
      </trkpt>
      <trkpt lat="59.9277316" lon="17.836563">
        <ele>18.4023</ele>
        <time>2013-04-07T13:24:36Z</time>
      </trkpt>
      <trkpt lat="59.9277686" lon="17.8364991">
        <ele>18.4023</ele>
        <time>2013-04-07T13:24:37Z</time>
      </trkpt>
      <trkpt lat="59.9278081" lon="17.8364351">
        <ele>18.4023</ele>
        <time>2013-04-07T13:24:38Z</time>
      </trkpt>
      <trkpt lat="59.9278493" lon="17.8363687">
        <ele>18.4023</ele>
        <time>2013-04-07T13:24:39Z</time>
      </trkpt>
      <trkpt lat="59.9278904" lon="17.8363004">
        <ele>17.9218</ele>
        <time>2013-04-07T13:24:40Z</time>
      </trkpt>
      <trkpt lat="59.9279326" lon="17.8362321">
        <ele>17.9218</ele>
        <time>2013-04-07T13:24:41Z</time>
      </trkpt>
      <trkpt lat="59.9279761" lon="17.8361647">
        <ele>17.9218</ele>
        <time>2013-04-07T13:24:42Z</time>
      </trkpt>
      <trkpt lat="59.9280198" lon="17.8360968">
        <ele>17.9218</ele>
        <time>2013-04-07T13:24:43Z</time>
      </trkpt>
      <trkpt lat="59.9280639" lon="17.836029">
        <ele>17.9218</ele>
        <time>2013-04-07T13:24:44Z</time>
      </trkpt>
      <trkpt lat="59.9281078" lon="17.8359631">
        <ele>17.9218</ele>
        <time>2013-04-07T13:24:45Z</time>
      </trkpt>
      <trkpt lat="59.9281518" lon="17.835899">
        <ele>17.9218</ele>
        <time>2013-04-07T13:24:46Z</time>
      </trkpt>
      <trkpt lat="59.9281956" lon="17.8358357">
        <ele>17.9218</ele>
        <time>2013-04-07T13:24:47Z</time>
      </trkpt>
      <trkpt lat="59.9282394" lon="17.8357715">
        <ele>17.9218</ele>
        <time>2013-04-07T13:24:48Z</time>
      </trkpt>
      <trkpt lat="59.928283" lon="17.8357061">
        <ele>17.9218</ele>
        <time>2013-04-07T13:24:49Z</time>
      </trkpt>
      <trkpt lat="59.9283265" lon="17.8356388">
        <ele>17.9218</ele>
        <time>2013-04-07T13:24:50Z</time>
      </trkpt>
      <trkpt lat="59.928371" lon="17.8355721">
        <ele>17.9218</ele>
        <time>2013-04-07T13:24:51Z</time>
      </trkpt>
      <trkpt lat="59.9284164" lon="17.8355053">
        <ele>17.9218</ele>
        <time>2013-04-07T13:24:52Z</time>
      </trkpt>
      <trkpt lat="59.928462" lon="17.8354368">
        <ele>17.9218</ele>
        <time>2013-04-07T13:24:53Z</time>
      </trkpt>
      <trkpt lat="59.9285077" lon="17.8353674">
        <ele>17.9218</ele>
        <time>2013-04-07T13:24:54Z</time>
      </trkpt>
      <trkpt lat="59.928554" lon="17.835299">
        <ele>17.9218</ele>
        <time>2013-04-07T13:24:55Z</time>
      </trkpt>
      <trkpt lat="59.9286006" lon="17.8352311">
        <ele>17.9218</ele>
        <time>2013-04-07T13:24:56Z</time>
      </trkpt>
      <trkpt lat="59.9286473" lon="17.8351629">
        <ele>17.9218</ele>
        <time>2013-04-07T13:24:57Z</time>
      </trkpt>
      <trkpt lat="59.9286944" lon="17.8350956">
        <ele>17.9218</ele>
        <time>2013-04-07T13:24:58Z</time>
      </trkpt>
      <trkpt lat="59.9287425" lon="17.8350296">
        <ele>17.9218</ele>
        <time>2013-04-07T13:24:59Z</time>
      </trkpt>
      <trkpt lat="59.928791" lon="17.8349645">
        <ele>17.9218</ele>
        <time>2013-04-07T13:25:00Z</time>
      </trkpt>
      <trkpt lat="59.9288398" lon="17.8349">
        <ele>17.9218</ele>
        <time>2013-04-07T13:25:01Z</time>
      </trkpt>
      <trkpt lat="59.9288892" lon="17.8348366">
        <ele>17.9218</ele>
        <time>2013-04-07T13:25:02Z</time>
      </trkpt>
      <trkpt lat="59.9289387" lon="17.8347745">
        <ele>17.9218</ele>
        <time>2013-04-07T13:25:03Z</time>
      </trkpt>
      <trkpt lat="59.9289876" lon="17.8347135">
        <ele>17.9218</ele>
        <time>2013-04-07T13:25:04Z</time>
      </trkpt>
      <trkpt lat="59.9290363" lon="17.8346542">
        <ele>17.9218</ele>
        <time>2013-04-07T13:25:05Z</time>
      </trkpt>
      <trkpt lat="59.9290844" lon="17.8345966">
        <ele>17.9218</ele>
        <time>2013-04-07T13:25:06Z</time>
      </trkpt>
      <trkpt lat="59.9291313" lon="17.8345381">
        <ele>17.9218</ele>
        <time>2013-04-07T13:25:07Z</time>
      </trkpt>
      <trkpt lat="59.9291774" lon="17.8344785">
        <ele>18.4023</ele>
        <time>2013-04-07T13:25:08Z</time>
      </trkpt>
      <trkpt lat="59.9292242" lon="17.834419">
        <ele>18.4023</ele>
        <time>2013-04-07T13:25:09Z</time>
      </trkpt>
      <trkpt lat="59.9292703" lon="17.8343559">
        <ele>18.4023</ele>
        <time>2013-04-07T13:25:10Z</time>
      </trkpt>
      <trkpt lat="59.9293163" lon="17.8342922">
        <ele>18.4023</ele>
        <time>2013-04-07T13:25:11Z</time>
      </trkpt>
      <trkpt lat="59.9293611" lon="17.8342274">
        <ele>18.4023</ele>
        <time>2013-04-07T13:25:12Z</time>
      </trkpt>
      <trkpt lat="59.9294051" lon="17.8341601">
        <ele>18.4023</ele>
        <time>2013-04-07T13:25:13Z</time>
      </trkpt>
      <trkpt lat="59.9294483" lon="17.8340916">
        <ele>18.4023</ele>
        <time>2013-04-07T13:25:14Z</time>
      </trkpt>
      <trkpt lat="59.9294906" lon="17.8340232">
        <ele>18.8831</ele>
        <time>2013-04-07T13:25:15Z</time>
      </trkpt>
      <trkpt lat="59.9295328" lon="17.8339536">
        <ele>18.8831</ele>
        <time>2013-04-07T13:25:16Z</time>
      </trkpt>
      <trkpt lat="59.9295745" lon="17.8338811">
        <ele>18.8831</ele>
        <time>2013-04-07T13:25:17Z</time>
      </trkpt>
      <trkpt lat="59.9296164" lon="17.8338071">
        <ele>18.4023</ele>
        <time>2013-04-07T13:25:18Z</time>
      </trkpt>
      <trkpt lat="59.9296591" lon="17.8337316">
        <ele>18.4023</ele>
        <time>2013-04-07T13:25:19Z</time>
      </trkpt>
      <trkpt lat="59.9297034" lon="17.8336563">
        <ele>18.4023</ele>
        <time>2013-04-07T13:25:20Z</time>
      </trkpt>
      <trkpt lat="59.9297487" lon="17.8335786">
        <ele>18.4023</ele>
        <time>2013-04-07T13:25:21Z</time>
      </trkpt>
      <trkpt lat="59.9297952" lon="17.8334979">
        <ele>17.9218</ele>
        <time>2013-04-07T13:25:22Z</time>
      </trkpt>
      <trkpt lat="59.9298432" lon="17.8334162">
        <ele>17.9218</ele>
        <time>2013-04-07T13:25:23Z</time>
      </trkpt>
      <trkpt lat="59.9298919" lon="17.8333325">
        <ele>17.9218</ele>
        <time>2013-04-07T13:25:24Z</time>
      </trkpt>
      <trkpt lat="59.9299422" lon="17.8332519">
        <ele>17.9218</ele>
        <time>2013-04-07T13:25:25Z</time>
      </trkpt>
      <trkpt lat="59.9299955" lon="17.8331798">
        <ele>17.9218</ele>
        <time>2013-04-07T13:25:26Z</time>
      </trkpt>
      <trkpt lat="59.9300484" lon="17.8331068">
        <ele>17.4412</ele>
        <time>2013-04-07T13:25:27Z</time>
      </trkpt>
      <trkpt lat="59.9300992" lon="17.833029">
        <ele>17.4412</ele>
        <time>2013-04-07T13:25:28Z</time>
      </trkpt>
      <trkpt lat="59.930149" lon="17.8329513">
        <ele>17.4412</ele>
        <time>2013-04-07T13:25:29Z</time>
      </trkpt>
      <trkpt lat="59.9301981" lon="17.8328752">
        <ele>17.4412</ele>
        <time>2013-04-07T13:25:30Z</time>
      </trkpt>
      <trkpt lat="59.9302468" lon="17.8328002">
        <ele>17.4412</ele>
        <time>2013-04-07T13:25:31Z</time>
      </trkpt>
      <trkpt lat="59.9302947" lon="17.8327267">
        <ele>17.4412</ele>
        <time>2013-04-07T13:25:32Z</time>
      </trkpt>
      <trkpt lat="59.930342" lon="17.8326556">
        <ele>17.9218</ele>
        <time>2013-04-07T13:25:33Z</time>
      </trkpt>
      <trkpt lat="59.9303885" lon="17.8325852">
        <ele>17.9218</ele>
        <time>2013-04-07T13:25:34Z</time>
      </trkpt>
      <trkpt lat="59.9304339" lon="17.8325167">
        <ele>17.9218</ele>
        <time>2013-04-07T13:25:35Z</time>
      </trkpt>
      <trkpt lat="59.9304786" lon="17.8324495">
        <ele>18.4023</ele>
        <time>2013-04-07T13:25:36Z</time>
      </trkpt>
      <trkpt lat="59.9305223" lon="17.8323817">
        <ele>18.4023</ele>
        <time>2013-04-07T13:25:37Z</time>
      </trkpt>
      <trkpt lat="59.930566" lon="17.8323153">
        <ele>18.4023</ele>
        <time>2013-04-07T13:25:38Z</time>
      </trkpt>
      <trkpt lat="59.9306109" lon="17.8322506">
        <ele>18.4023</ele>
        <time>2013-04-07T13:25:39Z</time>
      </trkpt>
      <trkpt lat="59.9306568" lon="17.8321843">
        <ele>17.9218</ele>
        <time>2013-04-07T13:25:40Z</time>
      </trkpt>
      <trkpt lat="59.9307031" lon="17.8321153">
        <ele>17.9218</ele>
        <time>2013-04-07T13:25:41Z</time>
      </trkpt>
      <trkpt lat="59.9307497" lon="17.8320442">
        <ele>17.9218</ele>
        <time>2013-04-07T13:25:42Z</time>
      </trkpt>
      <trkpt lat="59.9307967" lon="17.8319736">
        <ele>17.9218</ele>
        <time>2013-04-07T13:25:43Z</time>
      </trkpt>
      <trkpt lat="59.930844" lon="17.831903">
        <ele>17.9218</ele>
        <time>2013-04-07T13:25:44Z</time>
      </trkpt>
      <trkpt lat="59.9308912" lon="17.8318298">
        <ele>17.9218</ele>
        <time>2013-04-07T13:25:45Z</time>
      </trkpt>
      <trkpt lat="59.9309388" lon="17.8317559">
        <ele>17.9218</ele>
        <time>2013-04-07T13:25:46Z</time>
      </trkpt>
      <trkpt lat="59.9309865" lon="17.8316818">
        <ele>17.9218</ele>
        <time>2013-04-07T13:25:47Z</time>
      </trkpt>
      <trkpt lat="59.9310339" lon="17.8316066">
        <ele>17.9218</ele>
        <time>2013-04-07T13:25:48Z</time>
      </trkpt>
      <trkpt lat="59.9310808" lon="17.831528">
        <ele>17.9218</ele>
        <time>2013-04-07T13:25:49Z</time>
      </trkpt>
      <trkpt lat="59.9311269" lon="17.8314466">
        <ele>17.9218</ele>
        <time>2013-04-07T13:25:50Z</time>
      </trkpt>
      <trkpt lat="59.9311726" lon="17.8313641">
        <ele>17.9218</ele>
        <time>2013-04-07T13:25:51Z</time>
      </trkpt>
      <trkpt lat="59.9312175" lon="17.8312777">
        <ele>17.9218</ele>
        <time>2013-04-07T13:25:52Z</time>
      </trkpt>
      <trkpt lat="59.9312606" lon="17.8311897">
        <ele>17.9218</ele>
        <time>2013-04-07T13:25:53Z</time>
      </trkpt>
      <trkpt lat="59.9313035" lon="17.8311027">
        <ele>17.9218</ele>
        <time>2013-04-07T13:25:54Z</time>
      </trkpt>
      <trkpt lat="59.9313451" lon="17.8310157">
        <ele>17.9218</ele>
        <time>2013-04-07T13:25:55Z</time>
      </trkpt>
      <trkpt lat="59.9313852" lon="17.8309277">
        <ele>18.4023</ele>
        <time>2013-04-07T13:25:56Z</time>
      </trkpt>
      <trkpt lat="59.931423" lon="17.8308384">
        <ele>18.4023</ele>
        <time>2013-04-07T13:25:57Z</time>
      </trkpt>
      <trkpt lat="59.9314589" lon="17.8307485">
        <ele>18.4023</ele>
        <time>2013-04-07T13:25:58Z</time>
      </trkpt>
      <trkpt lat="59.9314936" lon="17.8306594">
        <ele>18.8831</ele>
        <time>2013-04-07T13:25:59Z</time>
      </trkpt>
      <trkpt lat="59.9315267" lon="17.830571">
        <ele>18.8831</ele>
        <time>2013-04-07T13:26:00Z</time>
      </trkpt>
      <trkpt lat="59.9315578" lon="17.8304821">
        <ele>18.8831</ele>
        <time>2013-04-07T13:26:01Z</time>
      </trkpt>
      <trkpt lat="59.931587" lon="17.8303936">
        <ele>18.8831</ele>
        <time>2013-04-07T13:26:02Z</time>
      </trkpt>
      <trkpt lat="59.9316148" lon="17.8303028">
        <ele>18.8831</ele>
        <time>2013-04-07T13:26:03Z</time>
      </trkpt>
      <trkpt lat="59.9316407" lon="17.8302065">
        <ele>18.8831</ele>
        <time>2013-04-07T13:26:04Z</time>
      </trkpt>
      <trkpt lat="59.9316667" lon="17.8301063">
        <ele>18.4023</ele>
        <time>2013-04-07T13:26:05Z</time>
      </trkpt>
      <trkpt lat="59.9316952" lon="17.8300043">
        <ele>18.4023</ele>
        <time>2013-04-07T13:26:06Z</time>
      </trkpt>
      <trkpt lat="59.9317261" lon="17.8298983">
        <ele>18.4023</ele>
        <time>2013-04-07T13:26:07Z</time>
      </trkpt>
      <trkpt lat="59.9317569" lon="17.8297865">
        <ele>17.9218</ele>
        <time>2013-04-07T13:26:08Z</time>
      </trkpt>
      <trkpt lat="59.9317885" lon="17.8296713">
        <ele>17.9218</ele>
        <time>2013-04-07T13:26:09Z</time>
      </trkpt>
      <trkpt lat="59.931821" lon="17.8295544">
        <ele>17.4412</ele>
        <time>2013-04-07T13:26:10Z</time>
      </trkpt>
      <trkpt lat="59.931853" lon="17.8294356">
        <ele>17.4412</ele>
        <time>2013-04-07T13:26:11Z</time>
      </trkpt>
      <trkpt lat="59.9318835" lon="17.8293119">
        <ele>16.9604</ele>
        <time>2013-04-07T13:26:12Z</time>
      </trkpt>
      <trkpt lat="59.931914" lon="17.8291845">
        <ele>16.9604</ele>
        <time>2013-04-07T13:26:13Z</time>
      </trkpt>
      <trkpt lat="59.9319459" lon="17.8290548">
        <ele>16.9604</ele>
        <time>2013-04-07T13:26:14Z</time>
      </trkpt>
      <trkpt lat="59.9319788" lon="17.828923">
        <ele>16.4797</ele>
        <time>2013-04-07T13:26:15Z</time>
      </trkpt>
      <trkpt lat="59.9320133" lon="17.8287918">
        <ele>16.4797</ele>
        <time>2013-04-07T13:26:16Z</time>
      </trkpt>
      <trkpt lat="59.9320511" lon="17.8286647">
        <ele>16.4797</ele>
        <time>2013-04-07T13:26:17Z</time>
      </trkpt>
      <trkpt lat="59.9320922" lon="17.8285438">
        <ele>16.4797</ele>
        <time>2013-04-07T13:26:18Z</time>
      </trkpt>
      <trkpt lat="59.9321354" lon="17.8284287">
        <ele>16.4797</ele>
        <time>2013-04-07T13:26:19Z</time>
      </trkpt>
      <trkpt lat="59.9321806" lon="17.8283188">
        <ele>15.999</ele>
        <time>2013-04-07T13:26:20Z</time>
      </trkpt>
      <trkpt lat="59.9322275" lon="17.8282117">
        <ele>15.999</ele>
        <time>2013-04-07T13:26:21Z</time>
      </trkpt>
      <trkpt lat="59.9322748" lon="17.8281071">
        <ele>16.4797</ele>
        <time>2013-04-07T13:26:22Z</time>
      </trkpt>
      <trkpt lat="59.932323" lon="17.8280069">
        <ele>16.4797</ele>
        <time>2013-04-07T13:26:23Z</time>
      </trkpt>
      <trkpt lat="59.9323721" lon="17.8279105">
        <ele>16.4797</ele>
        <time>2013-04-07T13:26:24Z</time>
      </trkpt>
      <trkpt lat="59.9324208" lon="17.8278164">
        <ele>16.4797</ele>
        <time>2013-04-07T13:26:25Z</time>
      </trkpt>
      <trkpt lat="59.9324695" lon="17.8277253">
        <ele>15.999</ele>
        <time>2013-04-07T13:26:26Z</time>
      </trkpt>
      <trkpt lat="59.932518" lon="17.8276371">
        <ele>15.999</ele>
        <time>2013-04-07T13:26:27Z</time>
      </trkpt>
      <trkpt lat="59.9325667" lon="17.8275502">
        <ele>15.999</ele>
        <time>2013-04-07T13:26:28Z</time>
      </trkpt>
      <trkpt lat="59.9326147" lon="17.8274642">
        <ele>15.999</ele>
        <time>2013-04-07T13:26:29Z</time>
      </trkpt>
      <trkpt lat="59.9326622" lon="17.8273806">
        <ele>15.999</ele>
        <time>2013-04-07T13:26:30Z</time>
      </trkpt>
      <trkpt lat="59.9327092" lon="17.8272999">
        <ele>15.999</ele>
        <time>2013-04-07T13:26:31Z</time>
      </trkpt>
      <trkpt lat="59.932755" lon="17.8272192">
        <ele>15.999</ele>
        <time>2013-04-07T13:26:32Z</time>
      </trkpt>
      <trkpt lat="59.9328004" lon="17.8271389">
        <ele>15.999</ele>
        <time>2013-04-07T13:26:33Z</time>
      </trkpt>
      <trkpt lat="59.9328461" lon="17.8270599">
        <ele>15.999</ele>
        <time>2013-04-07T13:26:34Z</time>
      </trkpt>
      <trkpt lat="59.9328913" lon="17.8269823">
        <ele>15.999</ele>
        <time>2013-04-07T13:26:35Z</time>
      </trkpt>
      <trkpt lat="59.9329356" lon="17.8269056">
        <ele>15.999</ele>
        <time>2013-04-07T13:26:36Z</time>
      </trkpt>
      <trkpt lat="59.9329796" lon="17.8268323">
        <ele>15.999</ele>
        <time>2013-04-07T13:26:37Z</time>
      </trkpt>
      <trkpt lat="59.9330234" lon="17.8267638">
        <ele>15.999</ele>
        <time>2013-04-07T13:26:38Z</time>
      </trkpt>
      <trkpt lat="59.9330666" lon="17.8266978">
        <ele>15.999</ele>
        <time>2013-04-07T13:26:39Z</time>
      </trkpt>
      <trkpt lat="59.9331093" lon="17.8266352">
        <ele>15.999</ele>
        <time>2013-04-07T13:26:40Z</time>
      </trkpt>
      <trkpt lat="59.9331517" lon="17.8265769">
        <ele>15.999</ele>
        <time>2013-04-07T13:26:41Z</time>
      </trkpt>
      <trkpt lat="59.9331932" lon="17.8265198">
        <ele>15.999</ele>
        <time>2013-04-07T13:26:42Z</time>
      </trkpt>
      <trkpt lat="59.9332345" lon="17.8264649">
        <ele>15.999</ele>
        <time>2013-04-07T13:26:43Z</time>
      </trkpt>
      <trkpt lat="59.9332761" lon="17.8264153">
        <ele>15.999</ele>
        <time>2013-04-07T13:26:44Z</time>
      </trkpt>
      <trkpt lat="59.9333181" lon="17.8263685">
        <ele>15.999</ele>
        <time>2013-04-07T13:26:45Z</time>
      </trkpt>
      <trkpt lat="59.9333608" lon="17.8263242">
        <ele>15.999</ele>
        <time>2013-04-07T13:26:46Z</time>
      </trkpt>
      <trkpt lat="59.933404" lon="17.8262829">
        <ele>16.4797</ele>
        <time>2013-04-07T13:26:47Z</time>
      </trkpt>
      <trkpt lat="59.9334475" lon="17.8262427">
        <ele>16.4797</ele>
        <time>2013-04-07T13:26:48Z</time>
      </trkpt>
      <trkpt lat="59.9334919" lon="17.8262043">
        <ele>16.4797</ele>
        <time>2013-04-07T13:26:49Z</time>
      </trkpt>
      <trkpt lat="59.9335365" lon="17.8261669">
        <ele>16.4797</ele>
        <time>2013-04-07T13:26:50Z</time>
      </trkpt>
      <trkpt lat="59.9335812" lon="17.8261333">
        <ele>16.4797</ele>
        <time>2013-04-07T13:26:51Z</time>
      </trkpt>
      <trkpt lat="59.9336257" lon="17.8261021">
        <ele>16.4797</ele>
        <time>2013-04-07T13:26:52Z</time>
      </trkpt>
      <trkpt lat="59.9336693" lon="17.8260692">
        <ele>16.4797</ele>
        <time>2013-04-07T13:26:53Z</time>
      </trkpt>
      <trkpt lat="59.9337143" lon="17.8260407">
        <ele>16.4797</ele>
        <time>2013-04-07T13:26:54Z</time>
      </trkpt>
      <trkpt lat="59.9337604" lon="17.8260161">
        <ele>16.9604</ele>
        <time>2013-04-07T13:26:55Z</time>
      </trkpt>
      <trkpt lat="59.9338068" lon="17.8259906">
        <ele>16.9604</ele>
        <time>2013-04-07T13:26:56Z</time>
      </trkpt>
      <trkpt lat="59.9338532" lon="17.8259636">
        <ele>16.9604</ele>
        <time>2013-04-07T13:26:57Z</time>
      </trkpt>
      <trkpt lat="59.9339003" lon="17.8259365">
        <ele>16.9604</ele>
        <time>2013-04-07T13:26:58Z</time>
      </trkpt>
      <trkpt lat="59.9339483" lon="17.8259122">
        <ele>16.9604</ele>
        <time>2013-04-07T13:26:59Z</time>
      </trkpt>
      <trkpt lat="59.9339975" lon="17.8258895">
        <ele>16.9604</ele>
        <time>2013-04-07T13:27:00Z</time>
      </trkpt>
      <trkpt lat="59.9340479" lon="17.8258657">
        <ele>16.9604</ele>
        <time>2013-04-07T13:27:01Z</time>
      </trkpt>
      <trkpt lat="59.9340997" lon="17.8258422">
        <ele>16.9604</ele>
        <time>2013-04-07T13:27:02Z</time>
      </trkpt>
      <trkpt lat="59.9341527" lon="17.8258203">
        <ele>16.9604</ele>
        <time>2013-04-07T13:27:03Z</time>
      </trkpt>
      <trkpt lat="59.9342068" lon="17.8257981">
        <ele>16.9604</ele>
        <time>2013-04-07T13:27:04Z</time>
      </trkpt>
      <trkpt lat="59.9342614" lon="17.8257739">
        <ele>16.4797</ele>
        <time>2013-04-07T13:27:05Z</time>
      </trkpt>
      <trkpt lat="59.9343168" lon="17.8257501">
        <ele>16.4797</ele>
        <time>2013-04-07T13:27:06Z</time>
      </trkpt>
      <trkpt lat="59.9343726" lon="17.8257257">
        <ele>16.4797</ele>
        <time>2013-04-07T13:27:07Z</time>
      </trkpt>
      <trkpt lat="59.9344295" lon="17.8257005">
        <ele>16.4797</ele>
        <time>2013-04-07T13:27:08Z</time>
      </trkpt>
      <trkpt lat="59.9344878" lon="17.8256758">
        <ele>16.4797</ele>
        <time>2013-04-07T13:27:09Z</time>
      </trkpt>
      <trkpt lat="59.9345468" lon="17.8256494">
        <ele>16.4797</ele>
        <time>2013-04-07T13:27:10Z</time>
      </trkpt>
      <trkpt lat="59.9346058" lon="17.8256225">
        <ele>16.4797</ele>
        <time>2013-04-07T13:27:11Z</time>
      </trkpt>
      <trkpt lat="59.934666" lon="17.825596">
        <ele>16.4797</ele>
        <time>2013-04-07T13:27:12Z</time>
      </trkpt>
      <trkpt lat="59.9347268" lon="17.8255684">
        <ele>16.4797</ele>
        <time>2013-04-07T13:27:13Z</time>
      </trkpt>
      <trkpt lat="59.9347882" lon="17.8255419">
        <ele>16.4797</ele>
        <time>2013-04-07T13:27:14Z</time>
      </trkpt>
      <trkpt lat="59.9348503" lon="17.8255149">
        <ele>16.4797</ele>
        <time>2013-04-07T13:27:15Z</time>
      </trkpt>
      <trkpt lat="59.9349128" lon="17.825486">
        <ele>16.4797</ele>
        <time>2013-04-07T13:27:16Z</time>
      </trkpt>
      <trkpt lat="59.9349755" lon="17.8254583">
        <ele>16.4797</ele>
        <time>2013-04-07T13:27:17Z</time>
      </trkpt>
      <trkpt lat="59.9350379" lon="17.825431">
        <ele>16.4797</ele>
        <time>2013-04-07T13:27:18Z</time>
      </trkpt>
      <trkpt lat="59.9351006" lon="17.8254013">
        <ele>16.4797</ele>
        <time>2013-04-07T13:27:19Z</time>
      </trkpt>
      <trkpt lat="59.9351645" lon="17.8253729">
        <ele>16.4797</ele>
        <time>2013-04-07T13:27:20Z</time>
      </trkpt>
      <trkpt lat="59.9352291" lon="17.8253482">
        <ele>16.4797</ele>
        <time>2013-04-07T13:27:21Z</time>
      </trkpt>
      <trkpt lat="59.9352933" lon="17.8253222">
        <ele>16.4797</ele>
        <time>2013-04-07T13:27:22Z</time>
      </trkpt>
      <trkpt lat="59.9353567" lon="17.8252942">
        <ele>16.4797</ele>
        <time>2013-04-07T13:27:23Z</time>
      </trkpt>
      <trkpt lat="59.93542" lon="17.8252678">
        <ele>16.4797</ele>
        <time>2013-04-07T13:27:24Z</time>
      </trkpt>
      <trkpt lat="59.9354826" lon="17.8252429">
        <ele>16.4797</ele>
        <time>2013-04-07T13:27:25Z</time>
      </trkpt>
      <trkpt lat="59.9355444" lon="17.8252174">
        <ele>16.9604</ele>
        <time>2013-04-07T13:27:26Z</time>
      </trkpt>
      <trkpt lat="59.9356055" lon="17.8251922">
        <ele>16.9604</ele>
        <time>2013-04-07T13:27:27Z</time>
      </trkpt>
      <trkpt lat="59.9356653" lon="17.8251676">
        <ele>16.9604</ele>
        <time>2013-04-07T13:27:28Z</time>
      </trkpt>
      <trkpt lat="59.9357252" lon="17.8251403">
        <ele>16.9604</ele>
        <time>2013-04-07T13:27:29Z</time>
      </trkpt>
      <trkpt lat="59.9357873" lon="17.8251117">
        <ele>16.9604</ele>
        <time>2013-04-07T13:27:30Z</time>
      </trkpt>
      <trkpt lat="59.935849" lon="17.8250864">
        <ele>17.4412</ele>
        <time>2013-04-07T13:27:31Z</time>
      </trkpt>
      <trkpt lat="59.9359107" lon="17.8250625">
        <ele>17.4412</ele>
        <time>2013-04-07T13:27:32Z</time>
      </trkpt>
      <trkpt lat="59.9359713" lon="17.8250358">
        <ele>17.4412</ele>
        <time>2013-04-07T13:27:33Z</time>
      </trkpt>
      <trkpt lat="59.9360314" lon="17.8250112">
        <ele>17.4412</ele>
        <time>2013-04-07T13:27:34Z</time>
      </trkpt>
      <trkpt lat="59.9360925" lon="17.8249886">
        <ele>17.9218</ele>
        <time>2013-04-07T13:27:35Z</time>
      </trkpt>
      <trkpt lat="59.936153" lon="17.8249638">
        <ele>17.9218</ele>
        <time>2013-04-07T13:27:36Z</time>
      </trkpt>
      <trkpt lat="59.9362123" lon="17.8249388">
        <ele>17.9218</ele>
        <time>2013-04-07T13:27:37Z</time>
      </trkpt>
      <trkpt lat="59.9362715" lon="17.8249139">
        <ele>18.4023</ele>
        <time>2013-04-07T13:27:38Z</time>
      </trkpt>
      <trkpt lat="59.9363299" lon="17.8248887">
        <ele>18.4023</ele>
        <time>2013-04-07T13:27:39Z</time>
      </trkpt>
      <trkpt lat="59.9363876" lon="17.8248627">
        <ele>18.4023</ele>
        <time>2013-04-07T13:27:40Z</time>
      </trkpt>
      <trkpt lat="59.9364445" lon="17.8248326">
        <ele>18.8831</ele>
        <time>2013-04-07T13:27:41Z</time>
      </trkpt>
      <trkpt lat="59.9365012" lon="17.8247981">
        <ele>18.8831</ele>
        <time>2013-04-07T13:27:42Z</time>
      </trkpt>
      <trkpt lat="59.9365565" lon="17.824757">
        <ele>18.8831</ele>
        <time>2013-04-07T13:27:43Z</time>
      </trkpt>
      <trkpt lat="59.9366103" lon="17.8247078">
        <ele>18.8831</ele>
        <time>2013-04-07T13:27:44Z</time>
      </trkpt>
      <trkpt lat="59.9366626" lon="17.8246512">
        <ele>19.3638</ele>
        <time>2013-04-07T13:27:45Z</time>
      </trkpt>
      <trkpt lat="59.9367152" lon="17.8245885">
        <ele>19.3638</ele>
        <time>2013-04-07T13:27:46Z</time>
      </trkpt>
      <trkpt lat="59.9367665" lon="17.8245215">
        <ele>19.8444</ele>
        <time>2013-04-07T13:27:47Z</time>
      </trkpt>
      <trkpt lat="59.9368156" lon="17.8244495">
        <ele>19.8444</ele>
        <time>2013-04-07T13:27:48Z</time>
      </trkpt>
      <trkpt lat="59.9368617" lon="17.8243727">
        <ele>20.325</ele>
        <time>2013-04-07T13:27:49Z</time>
      </trkpt>
      <trkpt lat="59.9369046" lon="17.8242915">
        <ele>20.325</ele>
        <time>2013-04-07T13:27:50Z</time>
      </trkpt>
      <trkpt lat="59.9369444" lon="17.8242094">
        <ele>20.325</ele>
        <time>2013-04-07T13:27:51Z</time>
      </trkpt>
      <trkpt lat="59.9369809" lon="17.8241268">
        <ele>20.8057</ele>
        <time>2013-04-07T13:27:52Z</time>
      </trkpt>
      <trkpt lat="59.9370146" lon="17.8240458">
        <ele>20.8057</ele>
        <time>2013-04-07T13:27:53Z</time>
      </trkpt>
      <trkpt lat="59.9370461" lon="17.8239665">
        <ele>20.8057</ele>
        <time>2013-04-07T13:27:54Z</time>
      </trkpt>
      <trkpt lat="59.9370763" lon="17.8238879">
        <ele>20.8057</ele>
        <time>2013-04-07T13:27:55Z</time>
      </trkpt>
      <trkpt lat="59.9371062" lon="17.8238091">
        <ele>20.8057</ele>
        <time>2013-04-07T13:27:56Z</time>
      </trkpt>
      <trkpt lat="59.9371359" lon="17.8237298">
        <ele>20.8057</ele>
        <time>2013-04-07T13:27:57Z</time>
      </trkpt>
      <trkpt lat="59.9371669" lon="17.8236505">
        <ele>21.2864</ele>
        <time>2013-04-07T13:27:58Z</time>
      </trkpt>
      <trkpt lat="59.9371985" lon="17.8235698">
        <ele>21.2864</ele>
        <time>2013-04-07T13:27:59Z</time>
      </trkpt>
      <trkpt lat="59.9372299" lon="17.8234872">
        <ele>21.2864</ele>
        <time>2013-04-07T13:28:00Z</time>
      </trkpt>
      <trkpt lat="59.9372615" lon="17.8234025">
        <ele>21.2864</ele>
        <time>2013-04-07T13:28:01Z</time>
      </trkpt>
      <trkpt lat="59.9372933" lon="17.8233168">
        <ele>21.2864</ele>
        <time>2013-04-07T13:28:02Z</time>
      </trkpt>
      <trkpt lat="59.937325" lon="17.8232306">
        <ele>21.2864</ele>
        <time>2013-04-07T13:28:03Z</time>
      </trkpt>
      <trkpt lat="59.9373565" lon="17.8231461">
        <ele>21.2864</ele>
        <time>2013-04-07T13:28:04Z</time>
      </trkpt>
      <trkpt lat="59.9373878" lon="17.8230628">
        <ele>21.2864</ele>
        <time>2013-04-07T13:28:05Z</time>
      </trkpt>
      <trkpt lat="59.9374177" lon="17.822979">
        <ele>21.767</ele>
        <time>2013-04-07T13:28:06Z</time>
      </trkpt>
      <trkpt lat="59.9374469" lon="17.8228933">
        <ele>21.767</ele>
        <time>2013-04-07T13:28:07Z</time>
      </trkpt>
      <trkpt lat="59.9374761" lon="17.8228066">
        <ele>21.767</ele>
        <time>2013-04-07T13:28:08Z</time>
      </trkpt>
      <trkpt lat="59.9375062" lon="17.822719">
        <ele>21.767</ele>
        <time>2013-04-07T13:28:09Z</time>
      </trkpt>
      <trkpt lat="59.9375367" lon="17.8226315">
        <ele>21.767</ele>
        <time>2013-04-07T13:28:10Z</time>
      </trkpt>
      <trkpt lat="59.9375673" lon="17.8225441">
        <ele>21.767</ele>
        <time>2013-04-07T13:28:11Z</time>
      </trkpt>
      <trkpt lat="59.9375984" lon="17.822457">
        <ele>21.2864</ele>
        <time>2013-04-07T13:28:12Z</time>
      </trkpt>
      <trkpt lat="59.9376305" lon="17.822371">
        <ele>21.2864</ele>
        <time>2013-04-07T13:28:13Z</time>
      </trkpt>
      <trkpt lat="59.9376637" lon="17.8222862">
        <ele>21.2864</ele>
        <time>2013-04-07T13:28:14Z</time>
      </trkpt>
      <trkpt lat="59.9376971" lon="17.8222012">
        <ele>21.2864</ele>
        <time>2013-04-07T13:28:15Z</time>
      </trkpt>
      <trkpt lat="59.9377304" lon="17.8221167">
        <ele>21.2864</ele>
        <time>2013-04-07T13:28:16Z</time>
      </trkpt>
      <trkpt lat="59.9377626" lon="17.8220318">
        <ele>21.2864</ele>
        <time>2013-04-07T13:28:17Z</time>
      </trkpt>
      <trkpt lat="59.9377929" lon="17.8219468">
        <ele>21.2864</ele>
        <time>2013-04-07T13:28:18Z</time>
      </trkpt>
      <trkpt lat="59.9378228" lon="17.8218594">
        <ele>21.2864</ele>
        <time>2013-04-07T13:28:19Z</time>
      </trkpt>
      <trkpt lat="59.9378536" lon="17.8217706">
        <ele>21.2864</ele>
        <time>2013-04-07T13:28:20Z</time>
      </trkpt>
      <trkpt lat="59.9378851" lon="17.8216826">
        <ele>21.2864</ele>
        <time>2013-04-07T13:28:21Z</time>
      </trkpt>
      <trkpt lat="59.9379174" lon="17.8215967">
        <ele>21.2864</ele>
        <time>2013-04-07T13:28:22Z</time>
      </trkpt>
      <trkpt lat="59.9379501" lon="17.8215117">
        <ele>21.767</ele>
        <time>2013-04-07T13:28:23Z</time>
      </trkpt>
      <trkpt lat="59.9379833" lon="17.8214289">
        <ele>21.767</ele>
        <time>2013-04-07T13:28:24Z</time>
      </trkpt>
      <trkpt lat="59.9380175" lon="17.8213479">
        <ele>21.767</ele>
        <time>2013-04-07T13:28:25Z</time>
      </trkpt>
      <trkpt lat="59.9380515" lon="17.8212686">
        <ele>22.2476</ele>
        <time>2013-04-07T13:28:26Z</time>
      </trkpt>
      <trkpt lat="59.9380848" lon="17.8211911">
        <ele>22.7283</ele>
        <time>2013-04-07T13:28:27Z</time>
      </trkpt>
      <trkpt lat="59.9381184" lon="17.8211175">
        <ele>22.7283</ele>
        <time>2013-04-07T13:28:28Z</time>
      </trkpt>
      <trkpt lat="59.9381516" lon="17.8210462">
        <ele>22.7283</ele>
        <time>2013-04-07T13:28:29Z</time>
      </trkpt>
      <trkpt lat="59.9381835" lon="17.8209741">
        <ele>23.209</ele>
        <time>2013-04-07T13:28:30Z</time>
      </trkpt>
      <trkpt lat="59.9382148" lon="17.8209025">
        <ele>23.209</ele>
        <time>2013-04-07T13:28:31Z</time>
      </trkpt>
      <trkpt lat="59.9382465" lon="17.8208312">
        <ele>23.6896</ele>
        <time>2013-04-07T13:28:32Z</time>
      </trkpt>
      <trkpt lat="59.9382786" lon="17.8207602">
        <ele>23.6896</ele>
        <time>2013-04-07T13:28:33Z</time>
      </trkpt>
      <trkpt lat="59.9383111" lon="17.8206892">
        <ele>23.6896</ele>
        <time>2013-04-07T13:28:34Z</time>
      </trkpt>
      <trkpt lat="59.9383434" lon="17.8206178">
        <ele>24.1703</ele>
        <time>2013-04-07T13:28:35Z</time>
      </trkpt>
      <trkpt lat="59.9383758" lon="17.8205461">
        <ele>24.1703</ele>
        <time>2013-04-07T13:28:36Z</time>
      </trkpt>
      <trkpt lat="59.9384075" lon="17.8204737">
        <ele>24.1703</ele>
        <time>2013-04-07T13:28:37Z</time>
      </trkpt>
      <trkpt lat="59.9384396" lon="17.820403">
        <ele>24.651</ele>
        <time>2013-04-07T13:28:38Z</time>
      </trkpt>
      <trkpt lat="59.9384723" lon="17.8203348">
        <ele>24.651</ele>
        <time>2013-04-07T13:28:39Z</time>
      </trkpt>
      <trkpt lat="59.9385048" lon="17.8202668">
        <ele>25.1317</ele>
        <time>2013-04-07T13:28:40Z</time>
      </trkpt>
      <trkpt lat="59.938536" lon="17.820197">
        <ele>25.1317</ele>
        <time>2013-04-07T13:28:41Z</time>
      </trkpt>
      <trkpt lat="59.9385669" lon="17.8201271">
        <ele>25.1317</ele>
        <time>2013-04-07T13:28:42Z</time>
      </trkpt>
      <trkpt lat="59.938599" lon="17.8200598">
        <ele>25.1317</ele>
        <time>2013-04-07T13:28:43Z</time>
      </trkpt>
      <trkpt lat="59.9386313" lon="17.8199936">
        <ele>25.6123</ele>
        <time>2013-04-07T13:28:44Z</time>
      </trkpt>
      <trkpt lat="59.9386628" lon="17.8199272">
        <ele>25.6123</ele>
        <time>2013-04-07T13:28:45Z</time>
      </trkpt>
      <trkpt lat="59.9386928" lon="17.8198602">
        <ele>25.6123</ele>
        <time>2013-04-07T13:28:46Z</time>
      </trkpt>
      <trkpt lat="59.938722" lon="17.8197925">
        <ele>26.0929</ele>
        <time>2013-04-07T13:28:47Z</time>
      </trkpt>
      <trkpt lat="59.9387519" lon="17.8197257">
        <ele>26.0929</ele>
        <time>2013-04-07T13:28:48Z</time>
      </trkpt>
      <trkpt lat="59.9387819" lon="17.8196583">
        <ele>26.0929</ele>
        <time>2013-04-07T13:28:49Z</time>
      </trkpt>
      <trkpt lat="59.9388124" lon="17.8195894">
        <ele>26.0929</ele>
        <time>2013-04-07T13:28:50Z</time>
      </trkpt>
      <trkpt lat="59.9388446" lon="17.8195214">
        <ele>26.0929</ele>
        <time>2013-04-07T13:28:51Z</time>
      </trkpt>
      <trkpt lat="59.9388776" lon="17.8194519">
        <ele>26.0929</ele>
        <time>2013-04-07T13:28:52Z</time>
      </trkpt>
      <trkpt lat="59.9389105" lon="17.8193775">
        <ele>26.0929</ele>
        <time>2013-04-07T13:28:53Z</time>
      </trkpt>
      <trkpt lat="59.9389445" lon="17.8193014">
        <ele>26.0929</ele>
        <time>2013-04-07T13:28:54Z</time>
      </trkpt>
      <trkpt lat="59.9389794" lon="17.8192255">
        <ele>26.0929</ele>
        <time>2013-04-07T13:28:55Z</time>
      </trkpt>
      <trkpt lat="59.9390156" lon="17.8191491">
        <ele>26.0929</ele>
        <time>2013-04-07T13:28:56Z</time>
      </trkpt>
      <trkpt lat="59.9390535" lon="17.8190759">
        <ele>26.0929</ele>
        <time>2013-04-07T13:28:57Z</time>
      </trkpt>
      <trkpt lat="59.9390918" lon="17.8190051">
        <ele>25.6123</ele>
        <time>2013-04-07T13:28:58Z</time>
      </trkpt>
      <trkpt lat="59.9391291" lon="17.8189357">
        <ele>25.6123</ele>
        <time>2013-04-07T13:28:59Z</time>
      </trkpt>
      <trkpt lat="59.939167" lon="17.8188718">
        <ele>25.6123</ele>
        <time>2013-04-07T13:29:00Z</time>
      </trkpt>
      <trkpt lat="59.9392068" lon="17.8188165">
        <ele>25.6123</ele>
        <time>2013-04-07T13:29:01Z</time>
      </trkpt>
      <trkpt lat="59.9392478" lon="17.8187669">
        <ele>25.6123</ele>
        <time>2013-04-07T13:29:02Z</time>
      </trkpt>
      <trkpt lat="59.9392896" lon="17.818719">
        <ele>25.1317</ele>
        <time>2013-04-07T13:29:03Z</time>
      </trkpt>
      <trkpt lat="59.9393327" lon="17.8186768">
        <ele>25.1317</ele>
        <time>2013-04-07T13:29:04Z</time>
      </trkpt>
      <trkpt lat="59.9393771" lon="17.8186413">
        <ele>25.1317</ele>
        <time>2013-04-07T13:29:05Z</time>
      </trkpt>
      <trkpt lat="59.9394216" lon="17.8186078">
        <ele>25.6123</ele>
        <time>2013-04-07T13:29:06Z</time>
      </trkpt>
      <trkpt lat="59.9394663" lon="17.8185772">
        <ele>25.6123</ele>
        <time>2013-04-07T13:29:07Z</time>
      </trkpt>
      <trkpt lat="59.9395112" lon="17.8185518">
        <ele>25.6123</ele>
        <time>2013-04-07T13:29:08Z</time>
      </trkpt>
      <trkpt lat="59.9395569" lon="17.8185321">
        <ele>25.6123</ele>
        <time>2013-04-07T13:29:09Z</time>
      </trkpt>
      <trkpt lat="59.9396031" lon="17.8185176">
        <ele>25.6123</ele>
        <time>2013-04-07T13:29:10Z</time>
      </trkpt>
      <trkpt lat="59.9396505" lon="17.8185048">
        <ele>25.6123</ele>
        <time>2013-04-07T13:29:11Z</time>
      </trkpt>
      <trkpt lat="59.9396984" lon="17.8184954">
        <ele>25.6123</ele>
        <time>2013-04-07T13:29:12Z</time>
      </trkpt>
      <trkpt lat="59.9397465" lon="17.8184916">
        <ele>25.6123</ele>
        <time>2013-04-07T13:29:13Z</time>
      </trkpt>
      <trkpt lat="59.9397935" lon="17.818491">
        <ele>25.6123</ele>
        <time>2013-04-07T13:29:14Z</time>
      </trkpt>
      <trkpt lat="59.9398398" lon="17.8184952">
        <ele>25.6123</ele>
        <time>2013-04-07T13:29:15Z</time>
      </trkpt>
      <trkpt lat="59.9398859" lon="17.8185084">
        <ele>25.6123</ele>
        <time>2013-04-07T13:29:16Z</time>
      </trkpt>
      <trkpt lat="59.9399304" lon="17.8185332">
        <ele>25.1317</ele>
        <time>2013-04-07T13:29:17Z</time>
      </trkpt>
      <trkpt lat="59.9399734" lon="17.8185672">
        <ele>25.1317</ele>
        <time>2013-04-07T13:29:18Z</time>
      </trkpt>
      <trkpt lat="59.9400169" lon="17.8186073">
        <ele>25.1317</ele>
        <time>2013-04-07T13:29:19Z</time>
      </trkpt>
      <trkpt lat="59.9400619" lon="17.8186542">
        <ele>25.1317</ele>
        <time>2013-04-07T13:29:20Z</time>
      </trkpt>
      <trkpt lat="59.9401082" lon="17.8187062">
        <ele>25.1317</ele>
        <time>2013-04-07T13:29:21Z</time>
      </trkpt>
      <trkpt lat="59.9401566" lon="17.8187606">
        <ele>24.651</ele>
        <time>2013-04-07T13:29:22Z</time>
      </trkpt>
      <trkpt lat="59.9402074" lon="17.8188177">
        <ele>24.651</ele>
        <time>2013-04-07T13:29:23Z</time>
      </trkpt>
      <trkpt lat="59.9402603" lon="17.8188795">
        <ele>24.651</ele>
        <time>2013-04-07T13:29:24Z</time>
      </trkpt>
      <trkpt lat="59.9403147" lon="17.8189455">
        <ele>24.1703</ele>
        <time>2013-04-07T13:29:25Z</time>
      </trkpt>
      <trkpt lat="59.94037" lon="17.8190139">
        <ele>24.1703</ele>
        <time>2013-04-07T13:29:26Z</time>
      </trkpt>
      <trkpt lat="59.940426" lon="17.8190852">
        <ele>24.1703</ele>
        <time>2013-04-07T13:29:27Z</time>
      </trkpt>
      <trkpt lat="59.9404832" lon="17.8191582">
        <ele>23.6896</ele>
        <time>2013-04-07T13:29:28Z</time>
      </trkpt>
      <trkpt lat="59.9405425" lon="17.819232">
        <ele>23.6896</ele>
        <time>2013-04-07T13:29:29Z</time>
      </trkpt>
      <trkpt lat="59.9406036" lon="17.8193081">
        <ele>23.209</ele>
        <time>2013-04-07T13:29:30Z</time>
      </trkpt>
      <trkpt lat="59.9406664" lon="17.8193868">
        <ele>23.209</ele>
        <time>2013-04-07T13:29:31Z</time>
      </trkpt>
      <trkpt lat="59.9407306" lon="17.819469">
        <ele>22.7283</ele>
        <time>2013-04-07T13:29:32Z</time>
      </trkpt>
      <trkpt lat="59.9407963" lon="17.8195532">
        <ele>22.7283</ele>
        <time>2013-04-07T13:29:33Z</time>
      </trkpt>
      <trkpt lat="59.9408644" lon="17.8196374">
        <ele>22.2476</ele>
        <time>2013-04-07T13:29:34Z</time>
      </trkpt>
      <trkpt lat="59.9409345" lon="17.8197237">
        <ele>21.767</ele>
        <time>2013-04-07T13:29:35Z</time>
      </trkpt>
      <trkpt lat="59.9410057" lon="17.8198109">
        <ele>21.767</ele>
        <time>2013-04-07T13:29:36Z</time>
      </trkpt>
      <trkpt lat="59.9410773" lon="17.8198985">
        <ele>21.2864</ele>
        <time>2013-04-07T13:29:37Z</time>
      </trkpt>
      <trkpt lat="59.9411496" lon="17.8199889">
        <ele>20.8057</ele>
        <time>2013-04-07T13:29:38Z</time>
      </trkpt>
      <trkpt lat="59.9412229" lon="17.8200803">
        <ele>20.8057</ele>
        <time>2013-04-07T13:29:39Z</time>
      </trkpt>
      <trkpt lat="59.9412968" lon="17.820173">
        <ele>20.325</ele>
        <time>2013-04-07T13:29:40Z</time>
      </trkpt>
      <trkpt lat="59.9413721" lon="17.820265">
        <ele>20.325</ele>
        <time>2013-04-07T13:29:41Z</time>
      </trkpt>
      <trkpt lat="59.9414482" lon="17.8203577">
        <ele>19.8444</ele>
        <time>2013-04-07T13:29:42Z</time>
      </trkpt>
      <trkpt lat="59.9415241" lon="17.8204524">
        <ele>19.3638</ele>
        <time>2013-04-07T13:29:43Z</time>
      </trkpt>
      <trkpt lat="59.9416" lon="17.8205461">
        <ele>19.3638</ele>
        <time>2013-04-07T13:29:44Z</time>
      </trkpt>
      <trkpt lat="59.9416745" lon="17.8206405">
        <ele>18.8831</ele>
        <time>2013-04-07T13:29:45Z</time>
      </trkpt>
      <trkpt lat="59.9417476" lon="17.8207355">
        <ele>18.8831</ele>
        <time>2013-04-07T13:29:46Z</time>
      </trkpt>
      <trkpt lat="59.9418194" lon="17.820828">
        <ele>18.4023</ele>
        <time>2013-04-07T13:29:47Z</time>
      </trkpt>
      <trkpt lat="59.94189" lon="17.8209165">
        <ele>18.4023</ele>
        <time>2013-04-07T13:29:48Z</time>
      </trkpt>
      <trkpt lat="59.9419594" lon="17.8210034">
        <ele>18.4023</ele>
        <time>2013-04-07T13:29:49Z</time>
      </trkpt>
      <trkpt lat="59.9420274" lon="17.8210894">
        <ele>18.4023</ele>
        <time>2013-04-07T13:29:50Z</time>
      </trkpt>
      <trkpt lat="59.9420942" lon="17.8211745">
        <ele>18.4023</ele>
        <time>2013-04-07T13:29:51Z</time>
      </trkpt>
      <trkpt lat="59.9421603" lon="17.8212579">
        <ele>18.4023</ele>
        <time>2013-04-07T13:29:52Z</time>
      </trkpt>
      <trkpt lat="59.9422257" lon="17.8213404">
        <ele>18.4023</ele>
        <time>2013-04-07T13:29:53Z</time>
      </trkpt>
      <trkpt lat="59.9422906" lon="17.821422">
        <ele>18.4023</ele>
        <time>2013-04-07T13:29:54Z</time>
      </trkpt>
      <trkpt lat="59.9423542" lon="17.8215022">
        <ele>18.4023</ele>
        <time>2013-04-07T13:29:55Z</time>
      </trkpt>
      <trkpt lat="59.9424162" lon="17.8215817">
        <ele>18.4023</ele>
        <time>2013-04-07T13:29:56Z</time>
      </trkpt>
      <trkpt lat="59.9424778" lon="17.821659">
        <ele>18.4023</ele>
        <time>2013-04-07T13:29:57Z</time>
      </trkpt>
      <trkpt lat="59.9425391" lon="17.8217344">
        <ele>18.4023</ele>
        <time>2013-04-07T13:29:58Z</time>
      </trkpt>
      <trkpt lat="59.9425992" lon="17.8218097">
        <ele>18.4023</ele>
        <time>2013-04-07T13:29:59Z</time>
      </trkpt>
      <trkpt lat="59.9426578" lon="17.8218842">
        <ele>18.4023</ele>
        <time>2013-04-07T13:30:00Z</time>
      </trkpt>
      <trkpt lat="59.9427157" lon="17.8219566">
        <ele>18.8831</ele>
        <time>2013-04-07T13:30:01Z</time>
      </trkpt>
      <trkpt lat="59.9427722" lon="17.8220272">
        <ele>18.8831</ele>
        <time>2013-04-07T13:30:02Z</time>
      </trkpt>
      <trkpt lat="59.9428276" lon="17.8220962">
        <ele>18.8831</ele>
        <time>2013-04-07T13:30:03Z</time>
      </trkpt>
      <trkpt lat="59.9428813" lon="17.8221635">
        <ele>18.8831</ele>
        <time>2013-04-07T13:30:04Z</time>
      </trkpt>
      <trkpt lat="59.9429338" lon="17.8222297">
        <ele>18.8831</ele>
        <time>2013-04-07T13:30:05Z</time>
      </trkpt>
      <trkpt lat="59.9429853" lon="17.8222937">
        <ele>18.8831</ele>
        <time>2013-04-07T13:30:06Z</time>
      </trkpt>
      <trkpt lat="59.943036" lon="17.8223567">
        <ele>18.8831</ele>
        <time>2013-04-07T13:30:07Z</time>
      </trkpt>
      <trkpt lat="59.9430854" lon="17.8224191">
        <ele>18.8831</ele>
        <time>2013-04-07T13:30:08Z</time>
      </trkpt>
      <trkpt lat="59.9431337" lon="17.8224781">
        <ele>18.8831</ele>
        <time>2013-04-07T13:30:09Z</time>
      </trkpt>
      <trkpt lat="59.9431808" lon="17.8225352">
        <ele>18.8831</ele>
        <time>2013-04-07T13:30:10Z</time>
      </trkpt>
      <trkpt lat="59.943227" lon="17.8225918">
        <ele>18.8831</ele>
        <time>2013-04-07T13:30:11Z</time>
      </trkpt>
      <trkpt lat="59.9432721" lon="17.8226477">
        <ele>18.8831</ele>
        <time>2013-04-07T13:30:12Z</time>
      </trkpt>
      <trkpt lat="59.9433162" lon="17.8227045">
        <ele>19.3638</ele>
        <time>2013-04-07T13:30:13Z</time>
      </trkpt>
      <trkpt lat="59.9433601" lon="17.8227607">
        <ele>19.3638</ele>
        <time>2013-04-07T13:30:14Z</time>
      </trkpt>
      <trkpt lat="59.9434035" lon="17.8228156">
        <ele>19.3638</ele>
        <time>2013-04-07T13:30:15Z</time>
      </trkpt>
      <trkpt lat="59.9434467" lon="17.8228694">
        <ele>19.3638</ele>
        <time>2013-04-07T13:30:16Z</time>
      </trkpt>
      <trkpt lat="59.9434898" lon="17.8229223">
        <ele>19.3638</ele>
        <time>2013-04-07T13:30:17Z</time>
      </trkpt>
      <trkpt lat="59.9435326" lon="17.8229762">
        <ele>19.3638</ele>
        <time>2013-04-07T13:30:18Z</time>
      </trkpt>
      <trkpt lat="59.9435756" lon="17.82303">
        <ele>19.3638</ele>
        <time>2013-04-07T13:30:19Z</time>
      </trkpt>
      <trkpt lat="59.9436211" lon="17.8230818">
        <ele>19.8444</ele>
        <time>2013-04-07T13:30:20Z</time>
      </trkpt>
      <trkpt lat="59.9436632" lon="17.8231334">
        <ele>19.8444</ele>
        <time>2013-04-07T13:30:21Z</time>
      </trkpt>
      <trkpt lat="59.9437042" lon="17.8231859">
        <ele>19.8444</ele>
        <time>2013-04-07T13:30:22Z</time>
      </trkpt>
      <trkpt lat="59.9437451" lon="17.8232372">
        <ele>19.8444</ele>
        <time>2013-04-07T13:30:23Z</time>
      </trkpt>
      <trkpt lat="59.9437855" lon="17.8232876">
        <ele>19.8444</ele>
        <time>2013-04-07T13:30:24Z</time>
      </trkpt>
      <trkpt lat="59.9438257" lon="17.8233385">
        <ele>19.8444</ele>
        <time>2013-04-07T13:30:25Z</time>
      </trkpt>
      <trkpt lat="59.9438658" lon="17.8233878">
        <ele>19.8444</ele>
        <time>2013-04-07T13:30:26Z</time>
      </trkpt>
      <trkpt lat="59.9439056" lon="17.8234366">
        <ele>20.325</ele>
        <time>2013-04-07T13:30:27Z</time>
      </trkpt>
      <trkpt lat="59.9439469" lon="17.8234853">
        <ele>20.325</ele>
        <time>2013-04-07T13:30:28Z</time>
      </trkpt>
      <trkpt lat="59.9439857" lon="17.8235357">
        <ele>20.325</ele>
        <time>2013-04-07T13:30:29Z</time>
      </trkpt>
      <trkpt lat="59.9440264" lon="17.8235882">
        <ele>20.8057</ele>
        <time>2013-04-07T13:30:30Z</time>
      </trkpt>
      <trkpt lat="59.9440681" lon="17.8236392">
        <ele>21.2864</ele>
        <time>2013-04-07T13:30:31Z</time>
      </trkpt>
      <trkpt lat="59.9441098" lon="17.8236906">
        <ele>21.2864</ele>
        <time>2013-04-07T13:30:32Z</time>
      </trkpt>
      <trkpt lat="59.9441506" lon="17.8237414">
        <ele>21.2864</ele>
        <time>2013-04-07T13:30:33Z</time>
      </trkpt>
      <trkpt lat="59.9441919" lon="17.8237915">
        <ele>21.2864</ele>
        <time>2013-04-07T13:30:34Z</time>
      </trkpt>
      <trkpt lat="59.9442341" lon="17.8238402">
        <ele>21.767</ele>
        <time>2013-04-07T13:30:35Z</time>
      </trkpt>
      <trkpt lat="59.9442775" lon="17.8238878">
        <ele>21.2864</ele>
        <time>2013-04-07T13:30:36Z</time>
      </trkpt>
      <trkpt lat="59.9443216" lon="17.8239368">
        <ele>21.2864</ele>
        <time>2013-04-07T13:30:37Z</time>
      </trkpt>
      <trkpt lat="59.9443668" lon="17.8239862">
        <ele>21.2864</ele>
        <time>2013-04-07T13:30:38Z</time>
      </trkpt>
      <trkpt lat="59.9444136" lon="17.8240356">
        <ele>21.2864</ele>
        <time>2013-04-07T13:30:39Z</time>
      </trkpt>
      <trkpt lat="59.944463" lon="17.8240864">
        <ele>21.767</ele>
        <time>2013-04-07T13:30:40Z</time>
      </trkpt>
      <trkpt lat="59.9445126" lon="17.8241375">
        <ele>21.767</ele>
        <time>2013-04-07T13:30:41Z</time>
      </trkpt>
      <trkpt lat="59.9445628" lon="17.8241884">
        <ele>22.2476</ele>
        <time>2013-04-07T13:30:42Z</time>
      </trkpt>
      <trkpt lat="59.9446134" lon="17.8242399">
        <ele>22.2476</ele>
        <time>2013-04-07T13:30:43Z</time>
      </trkpt>
      <trkpt lat="59.9446648" lon="17.8242928">
        <ele>22.2476</ele>
        <time>2013-04-07T13:30:44Z</time>
      </trkpt>
      <trkpt lat="59.9447172" lon="17.8243468">
        <ele>22.7283</ele>
        <time>2013-04-07T13:30:45Z</time>
      </trkpt>
      <trkpt lat="59.9447708" lon="17.8244017">
        <ele>22.7283</ele>
        <time>2013-04-07T13:30:46Z</time>
      </trkpt>
      <trkpt lat="59.9448256" lon="17.8244564">
        <ele>22.7283</ele>
        <time>2013-04-07T13:30:47Z</time>
      </trkpt>
      <trkpt lat="59.9448809" lon="17.8245136">
        <ele>22.7283</ele>
        <time>2013-04-07T13:30:48Z</time>
      </trkpt>
      <trkpt lat="59.9449371" lon="17.8245721">
        <ele>23.209</ele>
        <time>2013-04-07T13:30:49Z</time>
      </trkpt>
      <trkpt lat="59.9449945" lon="17.8246307">
        <ele>23.209</ele>
        <time>2013-04-07T13:30:50Z</time>
      </trkpt>
      <trkpt lat="59.9450526" lon="17.8246893">
        <ele>23.209</ele>
        <time>2013-04-07T13:30:51Z</time>
      </trkpt>
      <trkpt lat="59.9451111" lon="17.8247491">
        <ele>23.6896</ele>
        <time>2013-04-07T13:30:52Z</time>
      </trkpt>
      <trkpt lat="59.94517" lon="17.8248082">
        <ele>23.6896</ele>
        <time>2013-04-07T13:30:53Z</time>
      </trkpt>
      <trkpt lat="59.9452297" lon="17.8248665">
        <ele>23.6896</ele>
        <time>2013-04-07T13:30:54Z</time>
      </trkpt>
      <trkpt lat="59.9452885" lon="17.8249265">
        <ele>23.209</ele>
        <time>2013-04-07T13:30:55Z</time>
      </trkpt>
      <trkpt lat="59.9453491" lon="17.824988">
        <ele>23.209</ele>
        <time>2013-04-07T13:30:56Z</time>
      </trkpt>
      <trkpt lat="59.9454106" lon="17.8250499">
        <ele>23.209</ele>
        <time>2013-04-07T13:30:57Z</time>
      </trkpt>
      <trkpt lat="59.9454732" lon="17.8251129">
        <ele>23.209</ele>
        <time>2013-04-07T13:30:58Z</time>
      </trkpt>
      <trkpt lat="59.9455369" lon="17.825177">
        <ele>23.209</ele>
        <time>2013-04-07T13:30:59Z</time>
      </trkpt>
      <trkpt lat="59.9456011" lon="17.8252414">
        <ele>23.209</ele>
        <time>2013-04-07T13:31:00Z</time>
      </trkpt>
      <trkpt lat="59.9456662" lon="17.8253067">
        <ele>23.209</ele>
        <time>2013-04-07T13:31:01Z</time>
      </trkpt>
      <trkpt lat="59.945732" lon="17.825372">
        <ele>23.209</ele>
        <time>2013-04-07T13:31:02Z</time>
      </trkpt>
      <trkpt lat="59.9457968" lon="17.8254401">
        <ele>22.7283</ele>
        <time>2013-04-07T13:31:03Z</time>
      </trkpt>
      <trkpt lat="59.9458625" lon="17.8255097">
        <ele>22.7283</ele>
        <time>2013-04-07T13:31:04Z</time>
      </trkpt>
      <trkpt lat="59.9459283" lon="17.8255781">
        <ele>22.7283</ele>
        <time>2013-04-07T13:31:05Z</time>
      </trkpt>
      <trkpt lat="59.9459941" lon="17.8256466">
        <ele>22.2476</ele>
        <time>2013-04-07T13:31:06Z</time>
      </trkpt>
      <trkpt lat="59.9460594" lon="17.8257145">
        <ele>21.767</ele>
        <time>2013-04-07T13:31:07Z</time>
      </trkpt>
      <trkpt lat="59.9461238" lon="17.8257821">
        <ele>21.767</ele>
        <time>2013-04-07T13:31:08Z</time>
      </trkpt>
      <trkpt lat="59.9461876" lon="17.8258494">
        <ele>21.2864</ele>
        <time>2013-04-07T13:31:09Z</time>
      </trkpt>
      <trkpt lat="59.9462522" lon="17.8259158">
        <ele>21.2864</ele>
        <time>2013-04-07T13:31:10Z</time>
      </trkpt>
      <trkpt lat="59.946317" lon="17.8259815">
        <ele>21.767</ele>
        <time>2013-04-07T13:31:11Z</time>
      </trkpt>
      <trkpt lat="59.9463821" lon="17.8260475">
        <ele>21.767</ele>
        <time>2013-04-07T13:31:12Z</time>
      </trkpt>
      <trkpt lat="59.9464478" lon="17.8261141">
        <ele>21.767</ele>
        <time>2013-04-07T13:31:13Z</time>
      </trkpt>
      <trkpt lat="59.9465138" lon="17.8261806">
        <ele>21.767</ele>
        <time>2013-04-07T13:31:14Z</time>
      </trkpt>
      <trkpt lat="59.94658" lon="17.8262473">
        <ele>21.767</ele>
        <time>2013-04-07T13:31:15Z</time>
      </trkpt>
      <trkpt lat="59.9466454" lon="17.8263137">
        <ele>21.767</ele>
        <time>2013-04-07T13:31:16Z</time>
      </trkpt>
      <trkpt lat="59.9467112" lon="17.826381">
        <ele>21.2864</ele>
        <time>2013-04-07T13:31:17Z</time>
      </trkpt>
      <trkpt lat="59.9467788" lon="17.8264492">
        <ele>21.2864</ele>
        <time>2013-04-07T13:31:18Z</time>
      </trkpt>
      <trkpt lat="59.9468469" lon="17.8265181">
        <ele>21.2864</ele>
        <time>2013-04-07T13:31:19Z</time>
      </trkpt>
      <trkpt lat="59.9469153" lon="17.8265877">
        <ele>21.2864</ele>
        <time>2013-04-07T13:31:20Z</time>
      </trkpt>
      <trkpt lat="59.9469838" lon="17.8266586">
        <ele>21.767</ele>
        <time>2013-04-07T13:31:21Z</time>
      </trkpt>
      <trkpt lat="59.9470534" lon="17.8267294">
        <ele>21.767</ele>
        <time>2013-04-07T13:31:22Z</time>
      </trkpt>
      <trkpt lat="59.947122" lon="17.8267997">
        <ele>21.2864</ele>
        <time>2013-04-07T13:31:23Z</time>
      </trkpt>
      <trkpt lat="59.9471923" lon="17.8268715">
        <ele>21.2864</ele>
        <time>2013-04-07T13:31:24Z</time>
      </trkpt>
      <trkpt lat="59.9472629" lon="17.8269441">
        <ele>21.767</ele>
        <time>2013-04-07T13:31:25Z</time>
      </trkpt>
      <trkpt lat="59.9473341" lon="17.8270159">
        <ele>21.767</ele>
        <time>2013-04-07T13:31:26Z</time>
      </trkpt>
      <trkpt lat="59.9474053" lon="17.8270876">
        <ele>21.767</ele>
        <time>2013-04-07T13:31:27Z</time>
      </trkpt>
      <trkpt lat="59.9474764" lon="17.8271587">
        <ele>21.767</ele>
        <time>2013-04-07T13:31:28Z</time>
      </trkpt>
      <trkpt lat="59.9475474" lon="17.8272302">
        <ele>21.767</ele>
        <time>2013-04-07T13:31:29Z</time>
      </trkpt>
      <trkpt lat="59.9476177" lon="17.8273031">
        <ele>21.767</ele>
        <time>2013-04-07T13:31:30Z</time>
      </trkpt>
      <trkpt lat="59.9476875" lon="17.8273747">
        <ele>21.767</ele>
        <time>2013-04-07T13:31:31Z</time>
      </trkpt>
      <trkpt lat="59.9477571" lon="17.8274446">
        <ele>21.767</ele>
        <time>2013-04-07T13:31:32Z</time>
      </trkpt>
      <trkpt lat="59.9478265" lon="17.8275153">
        <ele>22.2476</ele>
        <time>2013-04-07T13:31:33Z</time>
      </trkpt>
      <trkpt lat="59.9478954" lon="17.8275864">
        <ele>22.2476</ele>
        <time>2013-04-07T13:31:34Z</time>
      </trkpt>
      <trkpt lat="59.9479643" lon="17.8276562">
        <ele>22.2476</ele>
        <time>2013-04-07T13:31:35Z</time>
      </trkpt>
      <trkpt lat="59.9480321" lon="17.8277258">
        <ele>22.2476</ele>
        <time>2013-04-07T13:31:36Z</time>
      </trkpt>
      <trkpt lat="59.9480989" lon="17.8277948">
        <ele>22.2476</ele>
        <time>2013-04-07T13:31:37Z</time>
      </trkpt>
      <trkpt lat="59.9481661" lon="17.8278624">
        <ele>22.2476</ele>
        <time>2013-04-07T13:31:38Z</time>
      </trkpt>
      <trkpt lat="59.9482313" lon="17.8279294">
        <ele>22.2476</ele>
        <time>2013-04-07T13:31:39Z</time>
      </trkpt>
      <trkpt lat="59.9482951" lon="17.8279962">
        <ele>22.2476</ele>
        <time>2013-04-07T13:31:40Z</time>
      </trkpt>
      <trkpt lat="59.9483583" lon="17.8280631">
        <ele>22.2476</ele>
        <time>2013-04-07T13:31:41Z</time>
      </trkpt>
      <trkpt lat="59.9484204" lon="17.8281286">
        <ele>22.2476</ele>
        <time>2013-04-07T13:31:42Z</time>
      </trkpt>
      <trkpt lat="59.9484812" lon="17.8281926">
        <ele>22.2476</ele>
        <time>2013-04-07T13:31:43Z</time>
      </trkpt>
      <trkpt lat="59.9485408" lon="17.828255">
        <ele>21.767</ele>
        <time>2013-04-07T13:31:44Z</time>
      </trkpt>
      <trkpt lat="59.9485993" lon="17.8283169">
        <ele>21.767</ele>
        <time>2013-04-07T13:31:45Z</time>
      </trkpt>
      <trkpt lat="59.9486568" lon="17.8283793">
        <ele>21.2864</ele>
        <time>2013-04-07T13:31:46Z</time>
      </trkpt>
      <trkpt lat="59.9487138" lon="17.8284413">
        <ele>21.2864</ele>
        <time>2013-04-07T13:31:47Z</time>
      </trkpt>
      <trkpt lat="59.9487712" lon="17.828499">
        <ele>20.8057</ele>
        <time>2013-04-07T13:31:48Z</time>
      </trkpt>
      <trkpt lat="59.9488286" lon="17.8285541">
        <ele>20.325</ele>
        <time>2013-04-07T13:31:49Z</time>
      </trkpt>
      <trkpt lat="59.9488863" lon="17.828616">
        <ele>20.325</ele>
        <time>2013-04-07T13:31:50Z</time>
      </trkpt>
      <trkpt lat="59.9489486" lon="17.8286795">
        <ele>20.325</ele>
        <time>2013-04-07T13:31:51Z</time>
      </trkpt>
      <trkpt lat="59.9490142" lon="17.8287389">
        <ele>20.325</ele>
        <time>2013-04-07T13:31:52Z</time>
      </trkpt>
      <trkpt lat="59.9490817" lon="17.8287916">
        <ele>20.325</ele>
        <time>2013-04-07T13:31:53Z</time>
      </trkpt>
      <trkpt lat="59.949151" lon="17.8288364">
        <ele>20.325</ele>
        <time>2013-04-07T13:31:54Z</time>
      </trkpt>
      <trkpt lat="59.9492195" lon="17.8288803">
        <ele>20.325</ele>
        <time>2013-04-07T13:31:55Z</time>
      </trkpt>
      <trkpt lat="59.9492861" lon="17.8289281">
        <ele>20.325</ele>
        <time>2013-04-07T13:31:56Z</time>
      </trkpt>
      <trkpt lat="59.9493499" lon="17.8289805">
        <ele>20.325</ele>
        <time>2013-04-07T13:31:57Z</time>
      </trkpt>
      <trkpt lat="59.9494095" lon="17.8290396">
        <ele>20.325</ele>
        <time>2013-04-07T13:31:58Z</time>
      </trkpt>
      <trkpt lat="59.9494635" lon="17.8291076">
        <ele>20.325</ele>
        <time>2013-04-07T13:31:59Z</time>
      </trkpt>
      <trkpt lat="59.9495141" lon="17.8291762">
        <ele>20.325</ele>
        <time>2013-04-07T13:32:00Z</time>
      </trkpt>
      <trkpt lat="59.9495613" lon="17.8292452">
        <ele>20.8057</ele>
        <time>2013-04-07T13:32:01Z</time>
      </trkpt>
      <trkpt lat="59.9496047" lon="17.829316">
        <ele>20.8057</ele>
        <time>2013-04-07T13:32:02Z</time>
      </trkpt>
      <trkpt lat="59.9496455" lon="17.8293844">
        <ele>20.8057</ele>
        <time>2013-04-07T13:32:03Z</time>
      </trkpt>
      <trkpt lat="59.9496849" lon="17.8294476">
        <ele>20.8057</ele>
        <time>2013-04-07T13:32:04Z</time>
      </trkpt>
      <trkpt lat="59.9497224" lon="17.8295072">
        <ele>20.8057</ele>
        <time>2013-04-07T13:32:05Z</time>
      </trkpt>
      <trkpt lat="59.9497576" lon="17.8295656">
        <ele>20.8057</ele>
        <time>2013-04-07T13:32:06Z</time>
      </trkpt>
      <trkpt lat="59.9497906" lon="17.8296236">
        <ele>20.8057</ele>
        <time>2013-04-07T13:32:07Z</time>
      </trkpt>
      <trkpt lat="59.9498224" lon="17.8296808">
        <ele>20.8057</ele>
        <time>2013-04-07T13:32:08Z</time>
      </trkpt>
      <trkpt lat="59.9498553" lon="17.8297289">
        <ele>20.8057</ele>
        <time>2013-04-07T13:32:09Z</time>
      </trkpt>
      <trkpt lat="59.9498953" lon="17.8297491">
        <ele>20.325</ele>
        <time>2013-04-07T13:32:10Z</time>
      </trkpt>
      <trkpt lat="59.9499373" lon="17.8297288">
        <ele>20.325</ele>
        <time>2013-04-07T13:32:11Z</time>
      </trkpt>
      <trkpt lat="59.949975" lon="17.8296741">
        <ele>19.8444</ele>
        <time>2013-04-07T13:32:12Z</time>
      </trkpt>
      <trkpt lat="59.9500053" lon="17.8295968">
        <ele>19.8444</ele>
        <time>2013-04-07T13:32:13Z</time>
      </trkpt>
      <trkpt lat="59.9500295" lon="17.829503">
        <ele>19.3638</ele>
        <time>2013-04-07T13:32:14Z</time>
      </trkpt>
      <trkpt lat="59.9500482" lon="17.829398">
        <ele>19.3638</ele>
        <time>2013-04-07T13:32:15Z</time>
      </trkpt>
      <trkpt lat="59.950062" lon="17.8292876">
        <ele>18.8831</ele>
        <time>2013-04-07T13:32:16Z</time>
      </trkpt>
      <trkpt lat="59.9500714" lon="17.8291726">
        <ele>18.8831</ele>
        <time>2013-04-07T13:32:17Z</time>
      </trkpt>
      <trkpt lat="59.9500767" lon="17.8290543">
        <ele>18.4023</ele>
        <time>2013-04-07T13:32:18Z</time>
      </trkpt>
      <trkpt lat="59.9500788" lon="17.8289362">
        <ele>18.4023</ele>
        <time>2013-04-07T13:32:19Z</time>
      </trkpt>
      <trkpt lat="59.9500799" lon="17.8288197">
        <ele>17.9218</ele>
        <time>2013-04-07T13:32:20Z</time>
      </trkpt>
      <trkpt lat="59.9500808" lon="17.8287059">
        <ele>17.9218</ele>
        <time>2013-04-07T13:32:21Z</time>
      </trkpt>
      <trkpt lat="59.9500824" lon="17.8285933">
        <ele>17.9218</ele>
        <time>2013-04-07T13:32:22Z</time>
      </trkpt>
      <trkpt lat="59.9500829" lon="17.82848">
        <ele>17.9218</ele>
        <time>2013-04-07T13:32:23Z</time>
      </trkpt>
      <trkpt lat="59.9500813" lon="17.8283661">
        <ele>17.9218</ele>
        <time>2013-04-07T13:32:24Z</time>
      </trkpt>
      <trkpt lat="59.9500784" lon="17.8282493">
        <ele>17.9218</ele>
        <time>2013-04-07T13:32:25Z</time>
      </trkpt>
      <trkpt lat="59.9500746" lon="17.8281289">
        <ele>17.4412</ele>
        <time>2013-04-07T13:32:26Z</time>
      </trkpt>
      <trkpt lat="59.9500714" lon="17.8280061">
        <ele>17.4412</ele>
        <time>2013-04-07T13:32:27Z</time>
      </trkpt>
      <trkpt lat="59.9500689" lon="17.827881">
        <ele>17.4412</ele>
        <time>2013-04-07T13:32:28Z</time>
      </trkpt>
      <trkpt lat="59.9500666" lon="17.8277535">
        <ele>16.9604</ele>
        <time>2013-04-07T13:32:29Z</time>
      </trkpt>
      <trkpt lat="59.9500643" lon="17.8276232">
        <ele>16.9604</ele>
        <time>2013-04-07T13:32:30Z</time>
      </trkpt>
      <trkpt lat="59.9500644" lon="17.8274927">
        <ele>16.9604</ele>
        <time>2013-04-07T13:32:31Z</time>
      </trkpt>
      <trkpt lat="59.9500664" lon="17.8273607">
        <ele>16.9604</ele>
        <time>2013-04-07T13:32:32Z</time>
      </trkpt>
      <trkpt lat="59.9500687" lon="17.8272269">
        <ele>16.9604</ele>
        <time>2013-04-07T13:32:33Z</time>
      </trkpt>
      <trkpt lat="59.9500755" lon="17.8270896">
        <ele>16.9604</ele>
        <time>2013-04-07T13:32:34Z</time>
      </trkpt>
      <trkpt lat="59.9500815" lon="17.8269541">
        <ele>16.9604</ele>
        <time>2013-04-07T13:32:35Z</time>
      </trkpt>
      <trkpt lat="59.9500876" lon="17.8268265">
        <ele>16.9604</ele>
        <time>2013-04-07T13:32:36Z</time>
      </trkpt>
      <trkpt lat="59.9500934" lon="17.8267067">
        <ele>16.9604</ele>
        <time>2013-04-07T13:32:37Z</time>
      </trkpt>
      <trkpt lat="59.9501005" lon="17.8265939">
        <ele>16.9604</ele>
        <time>2013-04-07T13:32:38Z</time>
      </trkpt>
      <trkpt lat="59.9501099" lon="17.8264892">
        <ele>16.9604</ele>
        <time>2013-04-07T13:32:39Z</time>
      </trkpt>
      <trkpt lat="59.9501213" lon="17.8263913">
        <ele>16.9604</ele>
        <time>2013-04-07T13:32:40Z</time>
      </trkpt>
      <trkpt lat="59.9501326" lon="17.8262972">
        <ele>16.9604</ele>
        <time>2013-04-07T13:32:41Z</time>
      </trkpt>
      <trkpt lat="59.9501461" lon="17.8262071">
        <ele>16.9604</ele>
        <time>2013-04-07T13:32:42Z</time>
      </trkpt>
      <trkpt lat="59.9501622" lon="17.8261187">
        <ele>16.9604</ele>
        <time>2013-04-07T13:32:43Z</time>
      </trkpt>
      <trkpt lat="59.9501787" lon="17.8260315">
        <ele>16.9604</ele>
        <time>2013-04-07T13:32:44Z</time>
      </trkpt>
      <trkpt lat="59.950196" lon="17.8259469">
        <ele>17.4412</ele>
        <time>2013-04-07T13:32:45Z</time>
      </trkpt>
      <trkpt lat="59.950214" lon="17.8258636">
        <ele>17.4412</ele>
        <time>2013-04-07T13:32:46Z</time>
      </trkpt>
      <trkpt lat="59.950232" lon="17.8257805">
        <ele>17.4412</ele>
        <time>2013-04-07T13:32:47Z</time>
      </trkpt>
      <trkpt lat="59.9502508" lon="17.8256978">
        <ele>17.4412</ele>
        <time>2013-04-07T13:32:48Z</time>
      </trkpt>
      <trkpt lat="59.950271" lon="17.8256144">
        <ele>17.4412</ele>
        <time>2013-04-07T13:32:49Z</time>
      </trkpt>
      <trkpt lat="59.9502907" lon="17.8255298">
        <ele>17.9218</ele>
        <time>2013-04-07T13:32:50Z</time>
      </trkpt>
      <trkpt lat="59.9503102" lon="17.8254453">
        <ele>17.9218</ele>
        <time>2013-04-07T13:32:51Z</time>
      </trkpt>
      <trkpt lat="59.9503295" lon="17.8253624">
        <ele>17.9218</ele>
        <time>2013-04-07T13:32:52Z</time>
      </trkpt>
      <trkpt lat="59.9503481" lon="17.8252792">
        <ele>18.4023</ele>
        <time>2013-04-07T13:32:53Z</time>
      </trkpt>
      <trkpt lat="59.9503666" lon="17.8251961">
        <ele>18.4023</ele>
        <time>2013-04-07T13:32:54Z</time>
      </trkpt>
      <trkpt lat="59.9503844" lon="17.8251125">
        <ele>18.4023</ele>
        <time>2013-04-07T13:32:55Z</time>
      </trkpt>
      <trkpt lat="59.950403" lon="17.8250299">
        <ele>18.8831</ele>
        <time>2013-04-07T13:32:56Z</time>
      </trkpt>
      <trkpt lat="59.9504223" lon="17.8249472">
        <ele>18.8831</ele>
        <time>2013-04-07T13:32:57Z</time>
      </trkpt>
      <trkpt lat="59.9504408" lon="17.8248633">
        <ele>18.8831</ele>
        <time>2013-04-07T13:32:58Z</time>
      </trkpt>
      <trkpt lat="59.950459" lon="17.8247787">
        <ele>18.8831</ele>
        <time>2013-04-07T13:32:59Z</time>
      </trkpt>
      <trkpt lat="59.9504777" lon="17.8246937">
        <ele>18.8831</ele>
        <time>2013-04-07T13:33:00Z</time>
      </trkpt>
      <trkpt lat="59.9504972" lon="17.8246073">
        <ele>18.8831</ele>
        <time>2013-04-07T13:33:01Z</time>
      </trkpt>
      <trkpt lat="59.9505175" lon="17.8245193">
        <ele>18.8831</ele>
        <time>2013-04-07T13:33:02Z</time>
      </trkpt>
      <trkpt lat="59.9505373" lon="17.8244302">
        <ele>19.3638</ele>
        <time>2013-04-07T13:33:03Z</time>
      </trkpt>
      <trkpt lat="59.9505579" lon="17.8243419">
        <ele>19.3638</ele>
        <time>2013-04-07T13:33:04Z</time>
      </trkpt>
      <trkpt lat="59.9505774" lon="17.8242551">
        <ele>19.3638</ele>
        <time>2013-04-07T13:33:05Z</time>
      </trkpt>
      <trkpt lat="59.9505943" lon="17.8241684">
        <ele>19.3638</ele>
        <time>2013-04-07T13:33:06Z</time>
      </trkpt>
      <trkpt lat="59.9506111" lon="17.8240825">
        <ele>19.3638</ele>
        <time>2013-04-07T13:33:07Z</time>
      </trkpt>
      <trkpt lat="59.9506268" lon="17.8239967">
        <ele>19.3638</ele>
        <time>2013-04-07T13:33:08Z</time>
      </trkpt>
      <trkpt lat="59.9506418" lon="17.8239096">
        <ele>19.3638</ele>
        <time>2013-04-07T13:33:09Z</time>
      </trkpt>
      <trkpt lat="59.9506561" lon="17.8238204">
        <ele>19.8444</ele>
        <time>2013-04-07T13:33:10Z</time>
      </trkpt>
      <trkpt lat="59.9506698" lon="17.8237299">
        <ele>19.8444</ele>
        <time>2013-04-07T13:33:11Z</time>
      </trkpt>
      <trkpt lat="59.9506833" lon="17.8236397">
        <ele>19.8444</ele>
        <time>2013-04-07T13:33:12Z</time>
      </trkpt>
      <trkpt lat="59.9506952" lon="17.8235494">
        <ele>19.8444</ele>
        <time>2013-04-07T13:33:13Z</time>
      </trkpt>
      <trkpt lat="59.9507061" lon="17.8234574">
        <ele>19.8444</ele>
        <time>2013-04-07T13:33:14Z</time>
      </trkpt>
      <trkpt lat="59.9507145" lon="17.8233625">
        <ele>19.8444</ele>
        <time>2013-04-07T13:33:15Z</time>
      </trkpt>
      <trkpt lat="59.9507211" lon="17.8232662">
        <ele>20.325</ele>
        <time>2013-04-07T13:33:16Z</time>
      </trkpt>
      <trkpt lat="59.9507277" lon="17.8231694">
        <ele>20.325</ele>
        <time>2013-04-07T13:33:17Z</time>
      </trkpt>
      <trkpt lat="59.9507354" lon="17.8230729">
        <ele>20.325</ele>
        <time>2013-04-07T13:33:18Z</time>
      </trkpt>
      <trkpt lat="59.9507453" lon="17.822978">
        <ele>20.325</ele>
        <time>2013-04-07T13:33:19Z</time>
      </trkpt>
      <trkpt lat="59.9507557" lon="17.8228832">
        <ele>20.325</ele>
        <time>2013-04-07T13:33:20Z</time>
      </trkpt>
      <trkpt lat="59.9507657" lon="17.8227872">
        <ele>20.8057</ele>
        <time>2013-04-07T13:33:21Z</time>
      </trkpt>
      <trkpt lat="59.9507758" lon="17.8226912">
        <ele>20.8057</ele>
        <time>2013-04-07T13:33:22Z</time>
      </trkpt>
      <trkpt lat="59.9507894" lon="17.8225959">
        <ele>20.325</ele>
        <time>2013-04-07T13:33:23Z</time>
      </trkpt>
      <trkpt lat="59.9507991" lon="17.822501">
        <ele>20.8057</ele>
        <time>2013-04-07T13:33:24Z</time>
      </trkpt>
      <trkpt lat="59.9508086" lon="17.8224069">
        <ele>20.8057</ele>
        <time>2013-04-07T13:33:25Z</time>
      </trkpt>
      <trkpt lat="59.9508193" lon="17.822315">
        <ele>20.8057</ele>
        <time>2013-04-07T13:33:26Z</time>
      </trkpt>
      <trkpt lat="59.9508294" lon="17.822224">
        <ele>20.8057</ele>
        <time>2013-04-07T13:33:27Z</time>
      </trkpt>
      <trkpt lat="59.9508401" lon="17.8221327">
        <ele>20.8057</ele>
        <time>2013-04-07T13:33:28Z</time>
      </trkpt>
      <trkpt lat="59.9508515" lon="17.8220411">
        <ele>20.8057</ele>
        <time>2013-04-07T13:33:29Z</time>
      </trkpt>
      <trkpt lat="59.9508633" lon="17.8219489">
        <ele>20.8057</ele>
        <time>2013-04-07T13:33:30Z</time>
      </trkpt>
      <trkpt lat="59.9508735" lon="17.8218558">
        <ele>20.8057</ele>
        <time>2013-04-07T13:33:31Z</time>
      </trkpt>
      <trkpt lat="59.9508832" lon="17.821763">
        <ele>20.8057</ele>
        <time>2013-04-07T13:33:32Z</time>
      </trkpt>
      <trkpt lat="59.9508934" lon="17.8216692">
        <ele>20.8057</ele>
        <time>2013-04-07T13:33:33Z</time>
      </trkpt>
      <trkpt lat="59.9509034" lon="17.8215742">
        <ele>20.8057</ele>
        <time>2013-04-07T13:33:34Z</time>
      </trkpt>
      <trkpt lat="59.9509128" lon="17.8214791">
        <ele>21.2864</ele>
        <time>2013-04-07T13:33:35Z</time>
      </trkpt>
      <trkpt lat="59.9509226" lon="17.8213848">
        <ele>21.2864</ele>
        <time>2013-04-07T13:33:36Z</time>
      </trkpt>
      <trkpt lat="59.9509315" lon="17.8212895">
        <ele>21.2864</ele>
        <time>2013-04-07T13:33:37Z</time>
      </trkpt>
      <trkpt lat="59.9509398" lon="17.8211935">
        <ele>21.2864</ele>
        <time>2013-04-07T13:33:38Z</time>
      </trkpt>
      <trkpt lat="59.9509485" lon="17.8210971">
        <ele>21.2864</ele>
        <time>2013-04-07T13:33:39Z</time>
      </trkpt>
      <trkpt lat="59.9509559" lon="17.8209998">
        <ele>21.2864</ele>
        <time>2013-04-07T13:33:40Z</time>
      </trkpt>
      <trkpt lat="59.950963" lon="17.8209021">
        <ele>21.2864</ele>
        <time>2013-04-07T13:33:41Z</time>
      </trkpt>
      <trkpt lat="59.9509701" lon="17.8208044">
        <ele>21.767</ele>
        <time>2013-04-07T13:33:42Z</time>
      </trkpt>
      <trkpt lat="59.9509771" lon="17.8207073">
        <ele>21.767</ele>
        <time>2013-04-07T13:33:43Z</time>
      </trkpt>
      <trkpt lat="59.9509843" lon="17.8206112">
        <ele>21.767</ele>
        <time>2013-04-07T13:33:44Z</time>
      </trkpt>
      <trkpt lat="59.9509905" lon="17.8205156">
        <ele>21.767</ele>
        <time>2013-04-07T13:33:45Z</time>
      </trkpt>
      <trkpt lat="59.9509958" lon="17.8204201">
        <ele>21.767</ele>
        <time>2013-04-07T13:33:46Z</time>
      </trkpt>
      <trkpt lat="59.9510015" lon="17.820325">
        <ele>22.2476</ele>
        <time>2013-04-07T13:33:47Z</time>
      </trkpt>
      <trkpt lat="59.9510072" lon="17.8202303">
        <ele>22.2476</ele>
        <time>2013-04-07T13:33:48Z</time>
      </trkpt>
      <trkpt lat="59.9510116" lon="17.8201363">
        <ele>22.2476</ele>
        <time>2013-04-07T13:33:49Z</time>
      </trkpt>
      <trkpt lat="59.9510146" lon="17.8200433">
        <ele>22.2476</ele>
        <time>2013-04-07T13:33:50Z</time>
      </trkpt>
      <trkpt lat="59.9510175" lon="17.8199515">
        <ele>22.2476</ele>
        <time>2013-04-07T13:33:51Z</time>
      </trkpt>
      <trkpt lat="59.9510195" lon="17.8198598">
        <ele>22.2476</ele>
        <time>2013-04-07T13:33:52Z</time>
      </trkpt>
      <trkpt lat="59.9510213" lon="17.8197679">
        <ele>22.2476</ele>
        <time>2013-04-07T13:33:53Z</time>
      </trkpt>
      <trkpt lat="59.9510225" lon="17.8196759">
        <ele>22.7283</ele>
        <time>2013-04-07T13:33:54Z</time>
      </trkpt>
      <trkpt lat="59.9510239" lon="17.8195838">
        <ele>22.7283</ele>
        <time>2013-04-07T13:33:55Z</time>
      </trkpt>
      <trkpt lat="59.9510271" lon="17.8194916">
        <ele>22.7283</ele>
        <time>2013-04-07T13:33:56Z</time>
      </trkpt>
      <trkpt lat="59.9510294" lon="17.8193996">
        <ele>22.7283</ele>
        <time>2013-04-07T13:33:57Z</time>
      </trkpt>
      <trkpt lat="59.9510296" lon="17.8193079">
        <ele>22.7283</ele>
        <time>2013-04-07T13:33:58Z</time>
      </trkpt>
      <trkpt lat="59.9510297" lon="17.8192169">
        <ele>22.7283</ele>
        <time>2013-04-07T13:33:59Z</time>
      </trkpt>
      <trkpt lat="59.9510303" lon="17.819128">
        <ele>22.2476</ele>
        <time>2013-04-07T13:34:00Z</time>
      </trkpt>
      <trkpt lat="59.9510319" lon="17.8190388">
        <ele>22.2476</ele>
        <time>2013-04-07T13:34:01Z</time>
      </trkpt>
      <trkpt lat="59.951035" lon="17.8189491">
        <ele>22.2476</ele>
        <time>2013-04-07T13:34:02Z</time>
      </trkpt>
      <trkpt lat="59.95104" lon="17.8188593">
        <ele>22.2476</ele>
        <time>2013-04-07T13:34:03Z</time>
      </trkpt>
      <trkpt lat="59.9510459" lon="17.8187695">
        <ele>22.2476</ele>
        <time>2013-04-07T13:34:04Z</time>
      </trkpt>
      <trkpt lat="59.951053" lon="17.8186798">
        <ele>22.2476</ele>
        <time>2013-04-07T13:34:05Z</time>
      </trkpt>
      <trkpt lat="59.951061" lon="17.8185895">
        <ele>22.2476</ele>
        <time>2013-04-07T13:34:06Z</time>
      </trkpt>
      <trkpt lat="59.9510687" lon="17.8184994">
        <ele>22.2476</ele>
        <time>2013-04-07T13:34:07Z</time>
      </trkpt>
      <trkpt lat="59.9510791" lon="17.8184073">
        <ele>22.2476</ele>
        <time>2013-04-07T13:34:08Z</time>
      </trkpt>
      <trkpt lat="59.9510892" lon="17.8183157">
        <ele>22.7283</ele>
        <time>2013-04-07T13:34:09Z</time>
      </trkpt>
      <trkpt lat="59.9510996" lon="17.8182246">
        <ele>22.7283</ele>
        <time>2013-04-07T13:34:10Z</time>
      </trkpt>
      <trkpt lat="59.9511101" lon="17.8181318">
        <ele>22.7283</ele>
        <time>2013-04-07T13:34:11Z</time>
      </trkpt>
      <trkpt lat="59.9511203" lon="17.8180365">
        <ele>22.7283</ele>
        <time>2013-04-07T13:34:12Z</time>
      </trkpt>
      <trkpt lat="59.9511303" lon="17.8179401">
        <ele>22.7283</ele>
        <time>2013-04-07T13:34:13Z</time>
      </trkpt>
      <trkpt lat="59.9511401" lon="17.8178427">
        <ele>22.7283</ele>
        <time>2013-04-07T13:34:14Z</time>
      </trkpt>
      <trkpt lat="59.9511495" lon="17.8177451">
        <ele>22.7283</ele>
        <time>2013-04-07T13:34:15Z</time>
      </trkpt>
      <trkpt lat="59.9511592" lon="17.8176469">
        <ele>22.7283</ele>
        <time>2013-04-07T13:34:16Z</time>
      </trkpt>
      <trkpt lat="59.9511682" lon="17.8175489">
        <ele>22.7283</ele>
        <time>2013-04-07T13:34:17Z</time>
      </trkpt>
      <trkpt lat="59.9511779" lon="17.8174508">
        <ele>22.7283</ele>
        <time>2013-04-07T13:34:18Z</time>
      </trkpt>
      <trkpt lat="59.9511878" lon="17.8173537">
        <ele>22.7283</ele>
        <time>2013-04-07T13:34:19Z</time>
      </trkpt>
      <trkpt lat="59.951197" lon="17.8172558">
        <ele>22.7283</ele>
        <time>2013-04-07T13:34:20Z</time>
      </trkpt>
      <trkpt lat="59.9512054" lon="17.8171573">
        <ele>22.7283</ele>
        <time>2013-04-07T13:34:21Z</time>
      </trkpt>
      <trkpt lat="59.9512152" lon="17.8170584">
        <ele>22.7283</ele>
        <time>2013-04-07T13:34:22Z</time>
      </trkpt>
      <trkpt lat="59.9512251" lon="17.8169595">
        <ele>22.2476</ele>
        <time>2013-04-07T13:34:23Z</time>
      </trkpt>
      <trkpt lat="59.9512345" lon="17.8168588">
        <ele>22.2476</ele>
        <time>2013-04-07T13:34:24Z</time>
      </trkpt>
      <trkpt lat="59.9512443" lon="17.8167567">
        <ele>22.2476</ele>
        <time>2013-04-07T13:34:25Z</time>
      </trkpt>
      <trkpt lat="59.9512544" lon="17.8166542">
        <ele>22.2476</ele>
        <time>2013-04-07T13:34:26Z</time>
      </trkpt>
      <trkpt lat="59.9512639" lon="17.8165507">
        <ele>22.2476</ele>
        <time>2013-04-07T13:34:27Z</time>
      </trkpt>
      <trkpt lat="59.9512723" lon="17.8164465">
        <ele>22.2476</ele>
        <time>2013-04-07T13:34:28Z</time>
      </trkpt>
      <trkpt lat="59.9512803" lon="17.8163442">
        <ele>22.2476</ele>
        <time>2013-04-07T13:34:29Z</time>
      </trkpt>
      <trkpt lat="59.9512888" lon="17.8162465">
        <ele>22.2476</ele>
        <time>2013-04-07T13:34:30Z</time>
      </trkpt>
      <trkpt lat="59.9512969" lon="17.8161514">
        <ele>21.767</ele>
        <time>2013-04-07T13:34:31Z</time>
      </trkpt>
      <trkpt lat="59.9513033" lon="17.8160567">
        <ele>21.767</ele>
        <time>2013-04-07T13:34:32Z</time>
      </trkpt>
      <trkpt lat="59.9513091" lon="17.8159603">
        <ele>21.767</ele>
        <time>2013-04-07T13:34:33Z</time>
      </trkpt>
      <trkpt lat="59.9513142" lon="17.8158624">
        <ele>21.767</ele>
        <time>2013-04-07T13:34:34Z</time>
      </trkpt>
      <trkpt lat="59.9513184" lon="17.8157644">
        <ele>21.767</ele>
        <time>2013-04-07T13:34:35Z</time>
      </trkpt>
      <trkpt lat="59.9513224" lon="17.815666">
        <ele>21.767</ele>
        <time>2013-04-07T13:34:36Z</time>
      </trkpt>
      <trkpt lat="59.9513275" lon="17.8155664">
        <ele>21.767</ele>
        <time>2013-04-07T13:34:37Z</time>
      </trkpt>
      <trkpt lat="59.9513327" lon="17.8154651">
        <ele>21.767</ele>
        <time>2013-04-07T13:34:38Z</time>
      </trkpt>
      <trkpt lat="59.9513365" lon="17.8153619">
        <ele>21.767</ele>
        <time>2013-04-07T13:34:39Z</time>
      </trkpt>
      <trkpt lat="59.9513402" lon="17.8152558">
        <ele>21.767</ele>
        <time>2013-04-07T13:34:40Z</time>
      </trkpt>
      <trkpt lat="59.9513439" lon="17.8151475">
        <ele>21.767</ele>
        <time>2013-04-07T13:34:41Z</time>
      </trkpt>
      <trkpt lat="59.9513469" lon="17.8150378">
        <ele>21.767</ele>
        <time>2013-04-07T13:34:42Z</time>
      </trkpt>
      <trkpt lat="59.9513485" lon="17.8149276">
        <ele>21.767</ele>
        <time>2013-04-07T13:34:43Z</time>
      </trkpt>
      <trkpt lat="59.9513494" lon="17.8148169">
        <ele>21.767</ele>
        <time>2013-04-07T13:34:44Z</time>
      </trkpt>
      <trkpt lat="59.951351" lon="17.8147071">
        <ele>21.767</ele>
        <time>2013-04-07T13:34:45Z</time>
      </trkpt>
      <trkpt lat="59.9513527" lon="17.8145984">
        <ele>21.767</ele>
        <time>2013-04-07T13:34:46Z</time>
      </trkpt>
      <trkpt lat="59.9513539" lon="17.8144917">
        <ele>21.767</ele>
        <time>2013-04-07T13:34:47Z</time>
      </trkpt>
      <trkpt lat="59.951355" lon="17.8143874">
        <ele>21.767</ele>
        <time>2013-04-07T13:34:48Z</time>
      </trkpt>
      <trkpt lat="59.9513557" lon="17.8142844">
        <ele>21.767</ele>
        <time>2013-04-07T13:34:49Z</time>
      </trkpt>
      <trkpt lat="59.9513565" lon="17.8141834">
        <ele>21.767</ele>
        <time>2013-04-07T13:34:50Z</time>
      </trkpt>
      <trkpt lat="59.9513572" lon="17.8140848">
        <ele>21.767</ele>
        <time>2013-04-07T13:34:51Z</time>
      </trkpt>
      <trkpt lat="59.9513577" lon="17.8139876">
        <ele>21.767</ele>
        <time>2013-04-07T13:34:52Z</time>
      </trkpt>
      <trkpt lat="59.9513573" lon="17.8138922">
        <ele>21.767</ele>
        <time>2013-04-07T13:34:53Z</time>
      </trkpt>
      <trkpt lat="59.951357" lon="17.8137979">
        <ele>21.767</ele>
        <time>2013-04-07T13:34:54Z</time>
      </trkpt>
      <trkpt lat="59.9513563" lon="17.8137041">
        <ele>21.767</ele>
        <time>2013-04-07T13:34:55Z</time>
      </trkpt>
      <trkpt lat="59.9513556" lon="17.8136101">
        <ele>21.767</ele>
        <time>2013-04-07T13:34:56Z</time>
      </trkpt>
      <trkpt lat="59.9513551" lon="17.8135162">
        <ele>21.767</ele>
        <time>2013-04-07T13:34:57Z</time>
      </trkpt>
      <trkpt lat="59.951355" lon="17.813422">
        <ele>21.767</ele>
        <time>2013-04-07T13:34:58Z</time>
      </trkpt>
      <trkpt lat="59.9513555" lon="17.8133275">
        <ele>21.767</ele>
        <time>2013-04-07T13:34:59Z</time>
      </trkpt>
      <trkpt lat="59.9513561" lon="17.8132328">
        <ele>21.767</ele>
        <time>2013-04-07T13:35:00Z</time>
      </trkpt>
      <trkpt lat="59.9513563" lon="17.813139">
        <ele>21.767</ele>
        <time>2013-04-07T13:35:01Z</time>
      </trkpt>
      <trkpt lat="59.9513571" lon="17.8130455">
        <ele>21.767</ele>
        <time>2013-04-07T13:35:02Z</time>
      </trkpt>
      <trkpt lat="59.9513593" lon="17.8129511">
        <ele>22.2476</ele>
        <time>2013-04-07T13:35:03Z</time>
      </trkpt>
      <trkpt lat="59.9513613" lon="17.8128569">
        <ele>22.2476</ele>
        <time>2013-04-07T13:35:04Z</time>
      </trkpt>
      <trkpt lat="59.9513624" lon="17.8127637">
        <ele>22.2476</ele>
        <time>2013-04-07T13:35:05Z</time>
      </trkpt>
      <trkpt lat="59.9513624" lon="17.8126714">
        <ele>22.7283</ele>
        <time>2013-04-07T13:35:06Z</time>
      </trkpt>
      <trkpt lat="59.9513615" lon="17.8125802">
        <ele>22.7283</ele>
        <time>2013-04-07T13:35:07Z</time>
      </trkpt>
      <trkpt lat="59.9513615" lon="17.8124891">
        <ele>22.7283</ele>
        <time>2013-04-07T13:35:08Z</time>
      </trkpt>
      <trkpt lat="59.9513638" lon="17.8123971">
        <ele>22.7283</ele>
        <time>2013-04-07T13:35:09Z</time>
      </trkpt>
      <trkpt lat="59.9513661" lon="17.8123055">
        <ele>23.209</ele>
        <time>2013-04-07T13:35:10Z</time>
      </trkpt>
      <trkpt lat="59.9513681" lon="17.812215">
        <ele>23.209</ele>
        <time>2013-04-07T13:35:11Z</time>
      </trkpt>
      <trkpt lat="59.9513702" lon="17.8121259">
        <ele>23.6896</ele>
        <time>2013-04-07T13:35:12Z</time>
      </trkpt>
      <trkpt lat="59.9513741" lon="17.812038">
        <ele>23.6896</ele>
        <time>2013-04-07T13:35:13Z</time>
      </trkpt>
      <trkpt lat="59.951379" lon="17.8119502">
        <ele>24.1703</ele>
        <time>2013-04-07T13:35:14Z</time>
      </trkpt>
      <trkpt lat="59.9513856" lon="17.8118612">
        <ele>24.1703</ele>
        <time>2013-04-07T13:35:15Z</time>
      </trkpt>
      <trkpt lat="59.9513944" lon="17.8117711">
        <ele>24.1703</ele>
        <time>2013-04-07T13:35:16Z</time>
      </trkpt>
      <trkpt lat="59.9514039" lon="17.8116808">
        <ele>24.651</ele>
        <time>2013-04-07T13:35:17Z</time>
      </trkpt>
      <trkpt lat="59.9514152" lon="17.8115918">
        <ele>24.651</ele>
        <time>2013-04-07T13:35:18Z</time>
      </trkpt>
      <trkpt lat="59.9514275" lon="17.8115041">
        <ele>24.651</ele>
        <time>2013-04-07T13:35:19Z</time>
      </trkpt>
      <trkpt lat="59.9514399" lon="17.8114168">
        <ele>24.651</ele>
        <time>2013-04-07T13:35:20Z</time>
      </trkpt>
      <trkpt lat="59.951452" lon="17.8113288">
        <ele>25.1317</ele>
        <time>2013-04-07T13:35:21Z</time>
      </trkpt>
      <trkpt lat="59.9514639" lon="17.8112404">
        <ele>25.1317</ele>
        <time>2013-04-07T13:35:22Z</time>
      </trkpt>
      <trkpt lat="59.9514765" lon="17.811152">
        <ele>25.1317</ele>
        <time>2013-04-07T13:35:23Z</time>
      </trkpt>
      <trkpt lat="59.9514899" lon="17.8110641">
        <ele>25.1317</ele>
        <time>2013-04-07T13:35:24Z</time>
      </trkpt>
      <trkpt lat="59.9515047" lon="17.8109771">
        <ele>25.6123</ele>
        <time>2013-04-07T13:35:25Z</time>
      </trkpt>
      <trkpt lat="59.9515199" lon="17.8108898">
        <ele>25.6123</ele>
        <time>2013-04-07T13:35:26Z</time>
      </trkpt>
      <trkpt lat="59.9515365" lon="17.8108011">
        <ele>25.6123</ele>
        <time>2013-04-07T13:35:27Z</time>
      </trkpt>
      <trkpt lat="59.9515545" lon="17.8107108">
        <ele>25.6123</ele>
        <time>2013-04-07T13:35:28Z</time>
      </trkpt>
      <trkpt lat="59.9515722" lon="17.8106183">
        <ele>25.6123</ele>
        <time>2013-04-07T13:35:29Z</time>
      </trkpt>
      <trkpt lat="59.9515907" lon="17.8105242">
        <ele>26.0929</ele>
        <time>2013-04-07T13:35:30Z</time>
      </trkpt>
      <trkpt lat="59.951611" lon="17.8104298">
        <ele>26.0929</ele>
        <time>2013-04-07T13:35:31Z</time>
      </trkpt>
      <trkpt lat="59.9516327" lon="17.8103353">
        <ele>26.0929</ele>
        <time>2013-04-07T13:35:32Z</time>
      </trkpt>
      <trkpt lat="59.9516554" lon="17.8102408">
        <ele>26.0929</ele>
        <time>2013-04-07T13:35:33Z</time>
      </trkpt>
      <trkpt lat="59.9516787" lon="17.8101466">
        <ele>26.5736</ele>
        <time>2013-04-07T13:35:34Z</time>
      </trkpt>
      <trkpt lat="59.951702" lon="17.8100543">
        <ele>26.5736</ele>
        <time>2013-04-07T13:35:35Z</time>
      </trkpt>
      <trkpt lat="59.9517251" lon="17.8099643">
        <ele>26.5736</ele>
        <time>2013-04-07T13:35:36Z</time>
      </trkpt>
      <trkpt lat="59.9517495" lon="17.8098775">
        <ele>26.5736</ele>
        <time>2013-04-07T13:35:37Z</time>
      </trkpt>
      <trkpt lat="59.9517737" lon="17.8097915">
        <ele>26.5736</ele>
        <time>2013-04-07T13:35:38Z</time>
      </trkpt>
      <trkpt lat="59.9517966" lon="17.8097046">
        <ele>27.0543</ele>
        <time>2013-04-07T13:35:39Z</time>
      </trkpt>
      <trkpt lat="59.9518198" lon="17.8096178">
        <ele>27.0543</ele>
        <time>2013-04-07T13:35:40Z</time>
      </trkpt>
      <trkpt lat="59.9518434" lon="17.8095315">
        <ele>27.0543</ele>
        <time>2013-04-07T13:35:41Z</time>
      </trkpt>
      <trkpt lat="59.9518671" lon="17.8094452">
        <ele>27.0543</ele>
        <time>2013-04-07T13:35:42Z</time>
      </trkpt>
      <trkpt lat="59.9518914" lon="17.8093592">
        <ele>27.0543</ele>
        <time>2013-04-07T13:35:43Z</time>
      </trkpt>
      <trkpt lat="59.9519157" lon="17.8092722">
        <ele>27.0543</ele>
        <time>2013-04-07T13:35:44Z</time>
      </trkpt>
      <trkpt lat="59.9519389" lon="17.8091841">
        <ele>27.0543</ele>
        <time>2013-04-07T13:35:45Z</time>
      </trkpt>
      <trkpt lat="59.9519618" lon="17.8090965">
        <ele>27.5349</ele>
        <time>2013-04-07T13:35:46Z</time>
      </trkpt>
      <trkpt lat="59.9519852" lon="17.809011">
        <ele>27.5349</ele>
        <time>2013-04-07T13:35:47Z</time>
      </trkpt>
      <trkpt lat="59.9520088" lon="17.8089256">
        <ele>27.5349</ele>
        <time>2013-04-07T13:35:48Z</time>
      </trkpt>
      <trkpt lat="59.9520309" lon="17.8088396">
        <ele>27.5349</ele>
        <time>2013-04-07T13:35:49Z</time>
      </trkpt>
      <trkpt lat="59.9520525" lon="17.808753">
        <ele>27.5349</ele>
        <time>2013-04-07T13:35:50Z</time>
      </trkpt>
      <trkpt lat="59.9520757" lon="17.8086664">
        <ele>27.5349</ele>
        <time>2013-04-07T13:35:51Z</time>
      </trkpt>
      <trkpt lat="59.9520994" lon="17.8085787">
        <ele>28.0155</ele>
        <time>2013-04-07T13:35:52Z</time>
      </trkpt>
      <trkpt lat="59.9521229" lon="17.8084895">
        <ele>28.0155</ele>
        <time>2013-04-07T13:35:53Z</time>
      </trkpt>
      <trkpt lat="59.9521467" lon="17.8084005">
        <ele>28.0155</ele>
        <time>2013-04-07T13:35:54Z</time>
      </trkpt>
      <trkpt lat="59.9521699" lon="17.8083122">
        <ele>28.0155</ele>
        <time>2013-04-07T13:35:55Z</time>
      </trkpt>
      <trkpt lat="59.9521924" lon="17.808223">
        <ele>28.0155</ele>
        <time>2013-04-07T13:35:56Z</time>
      </trkpt>
      <trkpt lat="59.9522166" lon="17.8081339">
        <ele>28.4962</ele>
        <time>2013-04-07T13:35:57Z</time>
      </trkpt>
      <trkpt lat="59.9522411" lon="17.8080449">
        <ele>28.4962</ele>
        <time>2013-04-07T13:35:58Z</time>
      </trkpt>
      <trkpt lat="59.9522657" lon="17.8079559">
        <ele>28.4962</ele>
        <time>2013-04-07T13:35:59Z</time>
      </trkpt>
      <trkpt lat="59.9522896" lon="17.8078684">
        <ele>28.4962</ele>
        <time>2013-04-07T13:36:00Z</time>
      </trkpt>
      <trkpt lat="59.9523114" lon="17.8077824">
        <ele>28.4962</ele>
        <time>2013-04-07T13:36:01Z</time>
      </trkpt>
      <trkpt lat="59.9523325" lon="17.8076976">
        <ele>28.4962</ele>
        <time>2013-04-07T13:36:02Z</time>
      </trkpt>
      <trkpt lat="59.9523534" lon="17.8076151">
        <ele>28.4962</ele>
        <time>2013-04-07T13:36:03Z</time>
      </trkpt>
      <trkpt lat="59.9523742" lon="17.8075352">
        <ele>28.9769</ele>
        <time>2013-04-07T13:36:04Z</time>
      </trkpt>
      <trkpt lat="59.9523958" lon="17.8074584">
        <ele>28.9769</ele>
        <time>2013-04-07T13:36:05Z</time>
      </trkpt>
      <trkpt lat="59.9524159" lon="17.8073815">
        <ele>28.9769</ele>
        <time>2013-04-07T13:36:06Z</time>
      </trkpt>
      <trkpt lat="59.9524343" lon="17.8073036">
        <ele>28.9769</ele>
        <time>2013-04-07T13:36:07Z</time>
      </trkpt>
      <trkpt lat="59.9524531" lon="17.8072277">
        <ele>28.9769</ele>
        <time>2013-04-07T13:36:08Z</time>
      </trkpt>
      <trkpt lat="59.9524708" lon="17.8071551">
        <ele>28.9769</ele>
        <time>2013-04-07T13:36:09Z</time>
      </trkpt>
      <trkpt lat="59.952487" lon="17.8070846">
        <ele>28.9769</ele>
        <time>2013-04-07T13:36:10Z</time>
      </trkpt>
      <trkpt lat="59.9525032" lon="17.8070152">
        <ele>29.4575</ele>
        <time>2013-04-07T13:36:11Z</time>
      </trkpt>
      <trkpt lat="59.9525191" lon="17.8069489">
        <ele>29.4575</ele>
        <time>2013-04-07T13:36:12Z</time>
      </trkpt>
      <trkpt lat="59.9525336" lon="17.8068861">
        <ele>29.9381</ele>
        <time>2013-04-07T13:36:13Z</time>
      </trkpt>
      <trkpt lat="59.952547" lon="17.806825">
        <ele>29.9381</ele>
        <time>2013-04-07T13:36:14Z</time>
      </trkpt>
      <trkpt lat="59.9525601" lon="17.8067641">
        <ele>29.9381</ele>
        <time>2013-04-07T13:36:15Z</time>
      </trkpt>
      <trkpt lat="59.9525745" lon="17.8067033">
        <ele>29.9381</ele>
        <time>2013-04-07T13:36:16Z</time>
      </trkpt>
      <trkpt lat="59.952589" lon="17.8066427">
        <ele>29.9381</ele>
        <time>2013-04-07T13:36:17Z</time>
      </trkpt>
      <trkpt lat="59.9526025" lon="17.8065809">
        <ele>29.9381</ele>
        <time>2013-04-07T13:36:18Z</time>
      </trkpt>
      <trkpt lat="59.9526158" lon="17.8065173">
        <ele>29.9381</ele>
        <time>2013-04-07T13:36:19Z</time>
      </trkpt>
      <trkpt lat="59.9526295" lon="17.8064525">
        <ele>30.4188</ele>
        <time>2013-04-07T13:36:20Z</time>
      </trkpt>
      <trkpt lat="59.9526429" lon="17.8063838">
        <ele>30.4188</ele>
        <time>2013-04-07T13:36:21Z</time>
      </trkpt>
      <trkpt lat="59.9526555" lon="17.806311">
        <ele>30.4188</ele>
        <time>2013-04-07T13:36:22Z</time>
      </trkpt>
      <trkpt lat="59.9526678" lon="17.8062361">
        <ele>30.4188</ele>
        <time>2013-04-07T13:36:23Z</time>
      </trkpt>
      <trkpt lat="59.9526813" lon="17.8061599">
        <ele>30.4188</ele>
        <time>2013-04-07T13:36:24Z</time>
      </trkpt>
      <trkpt lat="59.9526947" lon="17.8060844">
        <ele>30.4188</ele>
        <time>2013-04-07T13:36:25Z</time>
      </trkpt>
      <trkpt lat="59.9527077" lon="17.8060087">
        <ele>30.4188</ele>
        <time>2013-04-07T13:36:26Z</time>
      </trkpt>
      <trkpt lat="59.9527201" lon="17.8059309">
        <ele>30.4188</ele>
        <time>2013-04-07T13:36:27Z</time>
      </trkpt>
      <trkpt lat="59.952732" lon="17.8058521">
        <ele>30.4188</ele>
        <time>2013-04-07T13:36:28Z</time>
      </trkpt>
      <trkpt lat="59.9527429" lon="17.8057735">
        <ele>30.4188</ele>
        <time>2013-04-07T13:36:29Z</time>
      </trkpt>
      <trkpt lat="59.9527538" lon="17.805692">
        <ele>29.9381</ele>
        <time>2013-04-07T13:36:30Z</time>
      </trkpt>
      <trkpt lat="59.9527635" lon="17.8056058">
        <ele>29.9381</ele>
        <time>2013-04-07T13:36:31Z</time>
      </trkpt>
      <trkpt lat="59.9527728" lon="17.8055152">
        <ele>29.9381</ele>
        <time>2013-04-07T13:36:32Z</time>
      </trkpt>
      <trkpt lat="59.9527827" lon="17.8054232">
        <ele>29.9381</ele>
        <time>2013-04-07T13:36:33Z</time>
      </trkpt>
      <trkpt lat="59.9527931" lon="17.8053291">
        <ele>29.9381</ele>
        <time>2013-04-07T13:36:34Z</time>
      </trkpt>
      <trkpt lat="59.952805" lon="17.8052348">
        <ele>29.4575</ele>
        <time>2013-04-07T13:36:35Z</time>
      </trkpt>
      <trkpt lat="59.9528171" lon="17.8051417">
        <ele>29.4575</ele>
        <time>2013-04-07T13:36:36Z</time>
      </trkpt>
      <trkpt lat="59.9528305" lon="17.8050457">
        <ele>29.4575</ele>
        <time>2013-04-07T13:36:37Z</time>
      </trkpt>
      <trkpt lat="59.9528438" lon="17.8049515">
        <ele>29.9381</ele>
        <time>2013-04-07T13:36:38Z</time>
      </trkpt>
      <trkpt lat="59.9528556" lon="17.8048567">
        <ele>29.9381</ele>
        <time>2013-04-07T13:36:39Z</time>
      </trkpt>
      <trkpt lat="59.9528684" lon="17.8047633">
        <ele>30.4188</ele>
        <time>2013-04-07T13:36:40Z</time>
      </trkpt>
      <trkpt lat="59.9528831" lon="17.8046719">
        <ele>30.4188</ele>
        <time>2013-04-07T13:36:41Z</time>
      </trkpt>
      <trkpt lat="59.9528974" lon="17.8045824">
        <ele>30.8995</ele>
        <time>2013-04-07T13:36:42Z</time>
      </trkpt>
      <trkpt lat="59.9529163" lon="17.8044977">
        <ele>30.8995</ele>
        <time>2013-04-07T13:36:43Z</time>
      </trkpt>
      <trkpt lat="59.9529397" lon="17.8044177">
        <ele>31.3801</ele>
        <time>2013-04-07T13:36:44Z</time>
      </trkpt>
      <trkpt lat="59.9529658" lon="17.8043397">
        <ele>31.8607</ele>
        <time>2013-04-07T13:36:45Z</time>
      </trkpt>
      <trkpt lat="59.9529952" lon="17.8042661">
        <ele>32.3416</ele>
        <time>2013-04-07T13:36:46Z</time>
      </trkpt>
      <trkpt lat="59.9530253" lon="17.8041996">
        <ele>32.8223</ele>
        <time>2013-04-07T13:36:47Z</time>
      </trkpt>
      <trkpt lat="59.9530553" lon="17.8041366">
        <ele>33.3029</ele>
        <time>2013-04-07T13:36:48Z</time>
      </trkpt>
      <trkpt lat="59.9530858" lon="17.8040758">
        <ele>34.2642</ele>
        <time>2013-04-07T13:36:49Z</time>
      </trkpt>
      <trkpt lat="59.9531143" lon="17.8040168">
        <ele>34.7449</ele>
        <time>2013-04-07T13:36:50Z</time>
      </trkpt>
      <trkpt lat="59.9531412" lon="17.8039583">
        <ele>34.7449</ele>
        <time>2013-04-07T13:36:51Z</time>
      </trkpt>
      <trkpt lat="59.9531683" lon="17.8039013">
        <ele>35.2255</ele>
        <time>2013-04-07T13:36:52Z</time>
      </trkpt>
      <trkpt lat="59.9531966" lon="17.8038465">
        <ele>35.2255</ele>
        <time>2013-04-07T13:36:53Z</time>
      </trkpt>
      <trkpt lat="59.9532255" lon="17.8037906">
        <ele>35.2255</ele>
        <time>2013-04-07T13:36:54Z</time>
      </trkpt>
      <trkpt lat="59.9532538" lon="17.8037316">
        <ele>35.7061</ele>
        <time>2013-04-07T13:36:55Z</time>
      </trkpt>
      <trkpt lat="59.9532817" lon="17.8036687">
        <ele>35.7061</ele>
        <time>2013-04-07T13:36:56Z</time>
      </trkpt>
      <trkpt lat="59.9533099" lon="17.803603">
        <ele>35.7061</ele>
        <time>2013-04-07T13:36:57Z</time>
      </trkpt>
      <trkpt lat="59.9533382" lon="17.8035356">
        <ele>35.2255</ele>
        <time>2013-04-07T13:36:58Z</time>
      </trkpt>
      <trkpt lat="59.9533655" lon="17.8034672">
        <ele>35.7061</ele>
        <time>2013-04-07T13:36:59Z</time>
      </trkpt>
      <trkpt lat="59.9533908" lon="17.803396">
        <ele>35.7061</ele>
        <time>2013-04-07T13:37:00Z</time>
      </trkpt>
      <trkpt lat="59.9534141" lon="17.8033211">
        <ele>35.7061</ele>
        <time>2013-04-07T13:37:01Z</time>
      </trkpt>
      <trkpt lat="59.953436" lon="17.8032455">
        <ele>35.7061</ele>
        <time>2013-04-07T13:37:02Z</time>
      </trkpt>
      <trkpt lat="59.9534568" lon="17.8031726">
        <ele>35.7061</ele>
        <time>2013-04-07T13:37:03Z</time>
      </trkpt>
      <trkpt lat="59.953478" lon="17.8031022">
        <ele>35.7061</ele>
        <time>2013-04-07T13:37:04Z</time>
      </trkpt>
      <trkpt lat="59.9534979" lon="17.8030311">
        <ele>36.1868</ele>
        <time>2013-04-07T13:37:05Z</time>
      </trkpt>
      <trkpt lat="59.953515" lon="17.8029582">
        <ele>36.1868</ele>
        <time>2013-04-07T13:37:06Z</time>
      </trkpt>
      <trkpt lat="59.9535308" lon="17.8028824">
        <ele>36.1868</ele>
        <time>2013-04-07T13:37:07Z</time>
      </trkpt>
      <trkpt lat="59.9535452" lon="17.8028024">
        <ele>36.1868</ele>
        <time>2013-04-07T13:37:08Z</time>
      </trkpt>
      <trkpt lat="59.9535606" lon="17.8027215">
        <ele>36.1868</ele>
        <time>2013-04-07T13:37:09Z</time>
      </trkpt>
      <trkpt lat="59.9535801" lon="17.802642">
        <ele>36.1868</ele>
        <time>2013-04-07T13:37:10Z</time>
      </trkpt>
      <trkpt lat="59.9535987" lon="17.8025576">
        <ele>36.1868</ele>
        <time>2013-04-07T13:37:11Z</time>
      </trkpt>
      <trkpt lat="59.9536158" lon="17.8024692">
        <ele>36.1868</ele>
        <time>2013-04-07T13:37:12Z</time>
      </trkpt>
      <trkpt lat="59.9536334" lon="17.8023781">
        <ele>36.1868</ele>
        <time>2013-04-07T13:37:13Z</time>
      </trkpt>
      <trkpt lat="59.9536513" lon="17.8022836">
        <ele>35.7061</ele>
        <time>2013-04-07T13:37:14Z</time>
      </trkpt>
      <trkpt lat="59.9536701" lon="17.8021866">
        <ele>35.7061</ele>
        <time>2013-04-07T13:37:15Z</time>
      </trkpt>
      <trkpt lat="59.9536909" lon="17.8020864">
        <ele>35.2255</ele>
        <time>2013-04-07T13:37:16Z</time>
      </trkpt>
      <trkpt lat="59.9537141" lon="17.8019854">
        <ele>35.2255</ele>
        <time>2013-04-07T13:37:17Z</time>
      </trkpt>
      <trkpt lat="59.9537409" lon="17.8018848">
        <ele>34.7449</ele>
        <time>2013-04-07T13:37:18Z</time>
      </trkpt>
      <trkpt lat="59.953772" lon="17.8017878">
        <ele>34.7449</ele>
        <time>2013-04-07T13:37:19Z</time>
      </trkpt>
      <trkpt lat="59.9538039" lon="17.801689">
        <ele>34.7449</ele>
        <time>2013-04-07T13:37:20Z</time>
      </trkpt>
      <trkpt lat="59.9538381" lon="17.8015906">
        <ele>34.7449</ele>
        <time>2013-04-07T13:37:21Z</time>
      </trkpt>
      <trkpt lat="59.9538745" lon="17.8014916">
        <ele>34.7449</ele>
        <time>2013-04-07T13:37:22Z</time>
      </trkpt>
      <trkpt lat="59.9539108" lon="17.8013915">
        <ele>34.7449</ele>
        <time>2013-04-07T13:37:23Z</time>
      </trkpt>
      <trkpt lat="59.9539473" lon="17.8012876">
        <ele>35.2255</ele>
        <time>2013-04-07T13:37:24Z</time>
      </trkpt>
      <trkpt lat="59.9539862" lon="17.801185">
        <ele>35.2255</ele>
        <time>2013-04-07T13:37:25Z</time>
      </trkpt>
      <trkpt lat="59.9540253" lon="17.8010823">
        <ele>34.7449</ele>
        <time>2013-04-07T13:37:26Z</time>
      </trkpt>
      <trkpt lat="59.9540659" lon="17.8009802">
        <ele>34.2642</ele>
        <time>2013-04-07T13:37:27Z</time>
      </trkpt>
      <trkpt lat="59.9541077" lon="17.8008754">
        <ele>34.2642</ele>
        <time>2013-04-07T13:37:28Z</time>
      </trkpt>
      <trkpt lat="59.9541507" lon="17.8007702">
        <ele>34.2642</ele>
        <time>2013-04-07T13:37:29Z</time>
      </trkpt>
      <trkpt lat="59.9541938" lon="17.8006635">
        <ele>34.2642</ele>
        <time>2013-04-07T13:37:30Z</time>
      </trkpt>
      <trkpt lat="59.9542373" lon="17.8005592">
        <ele>33.7834</ele>
        <time>2013-04-07T13:37:31Z</time>
      </trkpt>
      <trkpt lat="59.9542813" lon="17.8004542">
        <ele>33.3029</ele>
        <time>2013-04-07T13:37:32Z</time>
      </trkpt>
      <trkpt lat="59.9543244" lon="17.8003478">
        <ele>33.3029</ele>
        <time>2013-04-07T13:37:33Z</time>
      </trkpt>
      <trkpt lat="59.9543669" lon="17.8002408">
        <ele>33.3029</ele>
        <time>2013-04-07T13:37:34Z</time>
      </trkpt>
      <trkpt lat="59.9544102" lon="17.800134">
        <ele>32.8223</ele>
        <time>2013-04-07T13:37:35Z</time>
      </trkpt>
      <trkpt lat="59.9544544" lon="17.8000267">
        <ele>32.8223</ele>
        <time>2013-04-07T13:37:36Z</time>
      </trkpt>
      <trkpt lat="59.9545" lon="17.7999174">
        <ele>32.3416</ele>
        <time>2013-04-07T13:37:37Z</time>
      </trkpt>
      <trkpt lat="59.9545475" lon="17.7998083">
        <ele>32.3416</ele>
        <time>2013-04-07T13:37:38Z</time>
      </trkpt>
      <trkpt lat="59.9545957" lon="17.7997003">
        <ele>31.8607</ele>
        <time>2013-04-07T13:37:39Z</time>
      </trkpt>
      <trkpt lat="59.9546444" lon="17.7995956">
        <ele>31.8607</ele>
        <time>2013-04-07T13:37:40Z</time>
      </trkpt>
      <trkpt lat="59.954692" lon="17.7994943">
        <ele>31.8607</ele>
        <time>2013-04-07T13:37:41Z</time>
      </trkpt>
      <trkpt lat="59.9547388" lon="17.7993973">
        <ele>32.3416</ele>
        <time>2013-04-07T13:37:42Z</time>
      </trkpt>
      <trkpt lat="59.9547848" lon="17.7993051">
        <ele>32.3416</ele>
        <time>2013-04-07T13:37:43Z</time>
      </trkpt>
      <trkpt lat="59.9548305" lon="17.7992187">
        <ele>32.3416</ele>
        <time>2013-04-07T13:37:44Z</time>
      </trkpt>
      <trkpt lat="59.9548755" lon="17.7991356">
        <ele>32.8223</ele>
        <time>2013-04-07T13:37:45Z</time>
      </trkpt>
      <trkpt lat="59.9549196" lon="17.7990542">
        <ele>32.8223</ele>
        <time>2013-04-07T13:37:46Z</time>
      </trkpt>
      <trkpt lat="59.9549626" lon="17.7989737">
        <ele>32.8223</ele>
        <time>2013-04-07T13:37:47Z</time>
      </trkpt>
      <trkpt lat="59.955005" lon="17.7988937">
        <ele>32.8223</ele>
        <time>2013-04-07T13:37:48Z</time>
      </trkpt>
      <trkpt lat="59.955047" lon="17.7988123">
        <ele>32.8223</ele>
        <time>2013-04-07T13:37:49Z</time>
      </trkpt>
      <trkpt lat="59.9550877" lon="17.7987267">
        <ele>32.8223</ele>
        <time>2013-04-07T13:37:50Z</time>
      </trkpt>
      <trkpt lat="59.9551277" lon="17.7986373">
        <ele>32.8223</ele>
        <time>2013-04-07T13:37:51Z</time>
      </trkpt>
      <trkpt lat="59.9551683" lon="17.7985448">
        <ele>32.8223</ele>
        <time>2013-04-07T13:37:52Z</time>
      </trkpt>
      <trkpt lat="59.9552091" lon="17.7984472">
        <ele>32.3416</ele>
        <time>2013-04-07T13:37:53Z</time>
      </trkpt>
      <trkpt lat="59.9552478" lon="17.7983433">
        <ele>32.3416</ele>
        <time>2013-04-07T13:37:54Z</time>
      </trkpt>
      <trkpt lat="59.9552837" lon="17.7982349">
        <ele>32.3416</ele>
        <time>2013-04-07T13:37:55Z</time>
      </trkpt>
      <trkpt lat="59.9553179" lon="17.7981239">
        <ele>32.3416</ele>
        <time>2013-04-07T13:37:56Z</time>
      </trkpt>
      <trkpt lat="59.9553521" lon="17.7980107">
        <ele>32.3416</ele>
        <time>2013-04-07T13:37:57Z</time>
      </trkpt>
      <trkpt lat="59.9553869" lon="17.7978957">
        <ele>31.8607</ele>
        <time>2013-04-07T13:37:58Z</time>
      </trkpt>
      <trkpt lat="59.955422" lon="17.7977765">
        <ele>31.8607</ele>
        <time>2013-04-07T13:37:59Z</time>
      </trkpt>
      <trkpt lat="59.9554576" lon="17.7976552">
        <ele>31.8607</ele>
        <time>2013-04-07T13:38:00Z</time>
      </trkpt>
      <trkpt lat="59.9554934" lon="17.7975325">
        <ele>31.8607</ele>
        <time>2013-04-07T13:38:01Z</time>
      </trkpt>
      <trkpt lat="59.9555298" lon="17.7974098">
        <ele>31.8607</ele>
        <time>2013-04-07T13:38:02Z</time>
      </trkpt>
      <trkpt lat="59.955566" lon="17.797287">
        <ele>31.3801</ele>
        <time>2013-04-07T13:38:03Z</time>
      </trkpt>
      <trkpt lat="59.9556007" lon="17.7971628">
        <ele>31.3801</ele>
        <time>2013-04-07T13:38:04Z</time>
      </trkpt>
      <trkpt lat="59.9556333" lon="17.7970369">
        <ele>31.3801</ele>
        <time>2013-04-07T13:38:05Z</time>
      </trkpt>
      <trkpt lat="59.9556645" lon="17.7969099">
        <ele>31.3801</ele>
        <time>2013-04-07T13:38:06Z</time>
      </trkpt>
      <trkpt lat="59.9556933" lon="17.7967823">
        <ele>31.3801</ele>
        <time>2013-04-07T13:38:07Z</time>
      </trkpt>
      <trkpt lat="59.9557205" lon="17.7966561">
        <ele>31.8607</ele>
        <time>2013-04-07T13:38:08Z</time>
      </trkpt>
      <trkpt lat="59.9557469" lon="17.7965346">
        <ele>31.8607</ele>
        <time>2013-04-07T13:38:09Z</time>
      </trkpt>
      <trkpt lat="59.955771" lon="17.7964161">
        <ele>31.8607</ele>
        <time>2013-04-07T13:38:10Z</time>
      </trkpt>
      <trkpt lat="59.9557924" lon="17.7963012">
        <ele>32.3416</ele>
        <time>2013-04-07T13:38:11Z</time>
      </trkpt>
      <trkpt lat="59.9558127" lon="17.7961872">
        <ele>32.3416</ele>
        <time>2013-04-07T13:38:12Z</time>
      </trkpt>
      <trkpt lat="59.9558333" lon="17.7960743">
        <ele>32.8223</ele>
        <time>2013-04-07T13:38:13Z</time>
      </trkpt>
      <trkpt lat="59.9558531" lon="17.7959622">
        <ele>32.8223</ele>
        <time>2013-04-07T13:38:14Z</time>
      </trkpt>
      <trkpt lat="59.955872" lon="17.7958512">
        <ele>32.8223</ele>
        <time>2013-04-07T13:38:15Z</time>
      </trkpt>
      <trkpt lat="59.9558915" lon="17.7957439">
        <ele>32.8223</ele>
        <time>2013-04-07T13:38:16Z</time>
      </trkpt>
      <trkpt lat="59.9559122" lon="17.7956402">
        <ele>33.3029</ele>
        <time>2013-04-07T13:38:17Z</time>
      </trkpt>
      <trkpt lat="59.9559331" lon="17.7955397">
        <ele>33.3029</ele>
        <time>2013-04-07T13:38:18Z</time>
      </trkpt>
      <trkpt lat="59.955954" lon="17.7954401">
        <ele>33.3029</ele>
        <time>2013-04-07T13:38:19Z</time>
      </trkpt>
      <trkpt lat="59.9559772" lon="17.7953434">
        <ele>33.7834</ele>
        <time>2013-04-07T13:38:20Z</time>
      </trkpt>
      <trkpt lat="59.9560007" lon="17.7952459">
        <ele>33.7834</ele>
        <time>2013-04-07T13:38:21Z</time>
      </trkpt>
      <trkpt lat="59.9560249" lon="17.7951471">
        <ele>34.2642</ele>
        <time>2013-04-07T13:38:22Z</time>
      </trkpt>
      <trkpt lat="59.9560494" lon="17.7950472">
        <ele>34.2642</ele>
        <time>2013-04-07T13:38:23Z</time>
      </trkpt>
      <trkpt lat="59.9560735" lon="17.7949482">
        <ele>34.2642</ele>
        <time>2013-04-07T13:38:24Z</time>
      </trkpt>
      <trkpt lat="59.9560982" lon="17.7948475">
        <ele>34.2642</ele>
        <time>2013-04-07T13:38:25Z</time>
      </trkpt>
      <trkpt lat="59.9561239" lon="17.7947483">
        <ele>34.7449</ele>
        <time>2013-04-07T13:38:26Z</time>
      </trkpt>
      <trkpt lat="59.9561493" lon="17.7946502">
        <ele>34.7449</ele>
        <time>2013-04-07T13:38:27Z</time>
      </trkpt>
      <trkpt lat="59.9561732" lon="17.7945522">
        <ele>35.2255</ele>
        <time>2013-04-07T13:38:28Z</time>
      </trkpt>
      <trkpt lat="59.9561975" lon="17.7944554">
        <ele>35.2255</ele>
        <time>2013-04-07T13:38:29Z</time>
      </trkpt>
      <trkpt lat="59.9562193" lon="17.7943536">
        <ele>35.2255</ele>
        <time>2013-04-07T13:38:30Z</time>
      </trkpt>
      <trkpt lat="59.9562396" lon="17.7942535">
        <ele>35.7061</ele>
        <time>2013-04-07T13:38:31Z</time>
      </trkpt>
      <trkpt lat="59.9562605" lon="17.7941542">
        <ele>35.7061</ele>
        <time>2013-04-07T13:38:32Z</time>
      </trkpt>
      <trkpt lat="59.9562815" lon="17.794056">
        <ele>35.7061</ele>
        <time>2013-04-07T13:38:33Z</time>
      </trkpt>
      <trkpt lat="59.9563037" lon="17.7939581">
        <ele>35.7061</ele>
        <time>2013-04-07T13:38:34Z</time>
      </trkpt>
      <trkpt lat="59.956326" lon="17.7938615">
        <ele>36.1868</ele>
        <time>2013-04-07T13:38:35Z</time>
      </trkpt>
      <trkpt lat="59.9563477" lon="17.7937638">
        <ele>36.1868</ele>
        <time>2013-04-07T13:38:36Z</time>
      </trkpt>
      <trkpt lat="59.956369" lon="17.7936641">
        <ele>36.1868</ele>
        <time>2013-04-07T13:38:37Z</time>
      </trkpt>
      <trkpt lat="59.9563911" lon="17.7935625">
        <ele>36.6675</ele>
        <time>2013-04-07T13:38:38Z</time>
      </trkpt>
      <trkpt lat="59.9564126" lon="17.7934592">
        <ele>36.6675</ele>
        <time>2013-04-07T13:38:39Z</time>
      </trkpt>
      <trkpt lat="59.9564341" lon="17.7933561">
        <ele>36.6675</ele>
        <time>2013-04-07T13:38:40Z</time>
      </trkpt>
      <trkpt lat="59.9564545" lon="17.7932541">
        <ele>36.6675</ele>
        <time>2013-04-07T13:38:41Z</time>
      </trkpt>
      <trkpt lat="59.9564746" lon="17.7931541">
        <ele>36.6675</ele>
        <time>2013-04-07T13:38:42Z</time>
      </trkpt>
      <trkpt lat="59.9564943" lon="17.7930562">
        <ele>36.6675</ele>
        <time>2013-04-07T13:38:43Z</time>
      </trkpt>
      <trkpt lat="59.9565126" lon="17.7929601">
        <ele>36.1868</ele>
        <time>2013-04-07T13:38:44Z</time>
      </trkpt>
      <trkpt lat="59.9565306" lon="17.7928636">
        <ele>36.1868</ele>
        <time>2013-04-07T13:38:45Z</time>
      </trkpt>
      <trkpt lat="59.956549" lon="17.7927663">
        <ele>35.7061</ele>
        <time>2013-04-07T13:38:46Z</time>
      </trkpt>
      <trkpt lat="59.9565664" lon="17.7926672">
        <ele>35.7061</ele>
        <time>2013-04-07T13:38:47Z</time>
      </trkpt>
      <trkpt lat="59.9565841" lon="17.7925659">
        <ele>35.2255</ele>
        <time>2013-04-07T13:38:48Z</time>
      </trkpt>
      <trkpt lat="59.9566026" lon="17.7924623">
        <ele>35.2255</ele>
        <time>2013-04-07T13:38:49Z</time>
      </trkpt>
      <trkpt lat="59.9566201" lon="17.7923565">
        <ele>35.2255</ele>
        <time>2013-04-07T13:38:50Z</time>
      </trkpt>
      <trkpt lat="59.9566372" lon="17.7922502">
        <ele>35.2255</ele>
        <time>2013-04-07T13:38:51Z</time>
      </trkpt>
      <trkpt lat="59.956655" lon="17.7921451">
        <ele>35.2255</ele>
        <time>2013-04-07T13:38:52Z</time>
      </trkpt>
      <trkpt lat="59.9566733" lon="17.792041">
        <ele>34.7449</ele>
        <time>2013-04-07T13:38:53Z</time>
      </trkpt>
      <trkpt lat="59.9566911" lon="17.7919371">
        <ele>34.7449</ele>
        <time>2013-04-07T13:38:54Z</time>
      </trkpt>
      <trkpt lat="59.9567083" lon="17.7918334">
        <ele>34.7449</ele>
        <time>2013-04-07T13:38:55Z</time>
      </trkpt>
      <trkpt lat="59.9567253" lon="17.7917286">
        <ele>34.7449</ele>
        <time>2013-04-07T13:38:56Z</time>
      </trkpt>
      <trkpt lat="59.9567425" lon="17.7916225">
        <ele>34.7449</ele>
        <time>2013-04-07T13:38:57Z</time>
      </trkpt>
      <trkpt lat="59.9567585" lon="17.7915158">
        <ele>34.7449</ele>
        <time>2013-04-07T13:38:58Z</time>
      </trkpt>
      <trkpt lat="59.9567703" lon="17.7914098">
        <ele>34.7449</ele>
        <time>2013-04-07T13:38:59Z</time>
      </trkpt>
      <trkpt lat="59.9567776" lon="17.7913035">
        <ele>34.7449</ele>
        <time>2013-04-07T13:39:00Z</time>
      </trkpt>
      <trkpt lat="59.9567792" lon="17.7911974">
        <ele>34.7449</ele>
        <time>2013-04-07T13:39:01Z</time>
      </trkpt>
      <trkpt lat="59.9567746" lon="17.7910942">
        <ele>34.7449</ele>
        <time>2013-04-07T13:39:02Z</time>
      </trkpt>
      <trkpt lat="59.9567646" lon="17.790995">
        <ele>34.7449</ele>
        <time>2013-04-07T13:39:03Z</time>
      </trkpt>
      <trkpt lat="59.9567506" lon="17.7908979">
        <ele>35.2255</ele>
        <time>2013-04-07T13:39:04Z</time>
      </trkpt>
      <trkpt lat="59.9567334" lon="17.790801">
        <ele>35.2255</ele>
        <time>2013-04-07T13:39:05Z</time>
      </trkpt>
      <trkpt lat="59.9567148" lon="17.7907041">
        <ele>34.7449</ele>
        <time>2013-04-07T13:39:06Z</time>
      </trkpt>
      <trkpt lat="59.9566951" lon="17.7906025">
        <ele>34.2642</ele>
        <time>2013-04-07T13:39:07Z</time>
      </trkpt>
      <trkpt lat="59.9566736" lon="17.7904958">
        <ele>34.2642</ele>
        <time>2013-04-07T13:39:08Z</time>
      </trkpt>
      <trkpt lat="59.9566522" lon="17.7903812">
        <ele>34.2642</ele>
        <time>2013-04-07T13:39:09Z</time>
      </trkpt>
      <trkpt lat="59.9566325" lon="17.7902643">
        <ele>34.2642</ele>
        <time>2013-04-07T13:39:10Z</time>
      </trkpt>
      <trkpt lat="59.9566161" lon="17.7901424">
        <ele>33.7834</ele>
        <time>2013-04-07T13:39:11Z</time>
      </trkpt>
      <trkpt lat="59.9566071" lon="17.7900225">
        <ele>33.7834</ele>
        <time>2013-04-07T13:39:12Z</time>
      </trkpt>
      <trkpt lat="59.9566122" lon="17.7898976">
        <ele>33.7834</ele>
        <time>2013-04-07T13:39:13Z</time>
      </trkpt>
      <trkpt lat="59.956631" lon="17.7897717">
        <ele>33.7834</ele>
        <time>2013-04-07T13:39:14Z</time>
      </trkpt>
      <trkpt lat="59.956658" lon="17.7896518">
        <ele>33.7834</ele>
        <time>2013-04-07T13:39:15Z</time>
      </trkpt>
      <trkpt lat="59.9566927" lon="17.7895482">
        <ele>33.3029</ele>
        <time>2013-04-07T13:39:16Z</time>
      </trkpt>
      <trkpt lat="59.9567369" lon="17.7894562">
        <ele>33.3029</ele>
        <time>2013-04-07T13:39:17Z</time>
      </trkpt>
      <trkpt lat="59.9567879" lon="17.789383">
        <ele>32.3416</ele>
        <time>2013-04-07T13:39:18Z</time>
      </trkpt>
      <trkpt lat="59.9568415" lon="17.7893154">
        <ele>31.8607</ele>
        <time>2013-04-07T13:39:19Z</time>
      </trkpt>
      <trkpt lat="59.9568949" lon="17.7892476">
        <ele>31.8607</ele>
        <time>2013-04-07T13:39:20Z</time>
      </trkpt>
      <trkpt lat="59.9569456" lon="17.7891781">
        <ele>31.3801</ele>
        <time>2013-04-07T13:39:21Z</time>
      </trkpt>
      <trkpt lat="59.9569952" lon="17.7891075">
        <ele>31.3801</ele>
        <time>2013-04-07T13:39:22Z</time>
      </trkpt>
      <trkpt lat="59.9570442" lon="17.7890371">
        <ele>30.8995</ele>
        <time>2013-04-07T13:39:23Z</time>
      </trkpt>
      <trkpt lat="59.9570903" lon="17.788964">
        <ele>30.8995</ele>
        <time>2013-04-07T13:39:24Z</time>
      </trkpt>
      <trkpt lat="59.9571323" lon="17.7888863">
        <ele>30.8995</ele>
        <time>2013-04-07T13:39:25Z</time>
      </trkpt>
      <trkpt lat="59.9571717" lon="17.7888067">
        <ele>30.4188</ele>
        <time>2013-04-07T13:39:26Z</time>
      </trkpt>
      <trkpt lat="59.9572176" lon="17.7887238">
        <ele>30.8995</ele>
        <time>2013-04-07T13:39:27Z</time>
      </trkpt>
      <trkpt lat="59.9572558" lon="17.7886415">
        <ele>30.8995</ele>
        <time>2013-04-07T13:39:28Z</time>
      </trkpt>
      <trkpt lat="59.9572887" lon="17.7885627">
        <ele>30.8995</ele>
        <time>2013-04-07T13:39:29Z</time>
      </trkpt>
      <trkpt lat="59.9573173" lon="17.7884889">
        <ele>31.3801</ele>
        <time>2013-04-07T13:39:30Z</time>
      </trkpt>
      <trkpt lat="59.9573453" lon="17.7883994">
        <ele>31.3801</ele>
        <time>2013-04-07T13:39:31Z</time>
      </trkpt>
      <trkpt lat="59.9573712" lon="17.7883022">
        <ele>30.8995</ele>
        <time>2013-04-07T13:39:32Z</time>
      </trkpt>
      <trkpt lat="59.9573972" lon="17.788212">
        <ele>30.8995</ele>
        <time>2013-04-07T13:39:33Z</time>
      </trkpt>
      <trkpt lat="59.9574246" lon="17.7881149">
        <ele>30.4188</ele>
        <time>2013-04-07T13:39:34Z</time>
      </trkpt>
      <trkpt lat="59.9574491" lon="17.7880163">
        <ele>30.4188</ele>
        <time>2013-04-07T13:39:35Z</time>
      </trkpt>
      <trkpt lat="59.9574732" lon="17.7879167">
        <ele>29.9381</ele>
        <time>2013-04-07T13:39:36Z</time>
      </trkpt>
      <trkpt lat="59.9574985" lon="17.7878174">
        <ele>29.9381</ele>
        <time>2013-04-07T13:39:37Z</time>
      </trkpt>
      <trkpt lat="59.9575261" lon="17.7877202">
        <ele>29.4575</ele>
        <time>2013-04-07T13:39:38Z</time>
      </trkpt>
      <trkpt lat="59.9575526" lon="17.7876207">
        <ele>29.4575</ele>
        <time>2013-04-07T13:39:39Z</time>
      </trkpt>
      <trkpt lat="59.9575785" lon="17.7875187">
        <ele>28.9769</ele>
        <time>2013-04-07T13:39:40Z</time>
      </trkpt>
      <trkpt lat="59.957604" lon="17.7874187">
        <ele>28.9769</ele>
        <time>2013-04-07T13:39:41Z</time>
      </trkpt>
      <trkpt lat="59.9576251" lon="17.7873173">
        <ele>28.9769</ele>
        <time>2013-04-07T13:39:42Z</time>
      </trkpt>
      <trkpt lat="59.9576433" lon="17.7872169">
        <ele>28.9769</ele>
        <time>2013-04-07T13:39:43Z</time>
      </trkpt>
      <trkpt lat="59.9576619" lon="17.7871174">
        <ele>28.9769</ele>
        <time>2013-04-07T13:39:44Z</time>
      </trkpt>
      <trkpt lat="59.9576814" lon="17.7870184">
        <ele>28.4962</ele>
        <time>2013-04-07T13:39:45Z</time>
      </trkpt>
      <trkpt lat="59.9577028" lon="17.7869184">
        <ele>28.4962</ele>
        <time>2013-04-07T13:39:46Z</time>
      </trkpt>
      <trkpt lat="59.9577277" lon="17.7868181">
        <ele>28.0155</ele>
        <time>2013-04-07T13:39:47Z</time>
      </trkpt>
      <trkpt lat="59.9577591" lon="17.7867207">
        <ele>28.0155</ele>
        <time>2013-04-07T13:39:48Z</time>
      </trkpt>
      <trkpt lat="59.9577974" lon="17.78663">
        <ele>27.5349</ele>
        <time>2013-04-07T13:39:49Z</time>
      </trkpt>
      <trkpt lat="59.9578422" lon="17.7865455">
        <ele>27.0543</ele>
        <time>2013-04-07T13:39:50Z</time>
      </trkpt>
      <trkpt lat="59.9578908" lon="17.7864658">
        <ele>27.0543</ele>
        <time>2013-04-07T13:39:51Z</time>
      </trkpt>
      <trkpt lat="59.9579422" lon="17.7863928">
        <ele>27.0543</ele>
        <time>2013-04-07T13:39:52Z</time>
      </trkpt>
      <trkpt lat="59.9579959" lon="17.7863264">
        <ele>26.5736</ele>
        <time>2013-04-07T13:39:53Z</time>
      </trkpt>
      <trkpt lat="59.9580498" lon="17.7862639">
        <ele>26.5736</ele>
        <time>2013-04-07T13:39:54Z</time>
      </trkpt>
      <trkpt lat="59.9581031" lon="17.7862026">
        <ele>26.5736</ele>
        <time>2013-04-07T13:39:55Z</time>
      </trkpt>
      <trkpt lat="59.9581552" lon="17.7861428">
        <ele>26.5736</ele>
        <time>2013-04-07T13:39:56Z</time>
      </trkpt>
      <trkpt lat="59.9582059" lon="17.7860854">
        <ele>26.5736</ele>
        <time>2013-04-07T13:39:57Z</time>
      </trkpt>
      <trkpt lat="59.9582544" lon="17.7860285">
        <ele>26.5736</ele>
        <time>2013-04-07T13:39:58Z</time>
      </trkpt>
      <trkpt lat="59.9583001" lon="17.7859737">
        <ele>26.5736</ele>
        <time>2013-04-07T13:39:59Z</time>
      </trkpt>
      <trkpt lat="59.9583473" lon="17.7859233">
        <ele>26.5736</ele>
        <time>2013-04-07T13:40:00Z</time>
      </trkpt>
      <trkpt lat="59.9583945" lon="17.7858728">
        <ele>27.0543</ele>
        <time>2013-04-07T13:40:01Z</time>
      </trkpt>
      <trkpt lat="59.9584411" lon="17.7858183">
        <ele>27.5349</ele>
        <time>2013-04-07T13:40:02Z</time>
      </trkpt>
      <trkpt lat="59.9584887" lon="17.7857659">
        <ele>28.0155</ele>
        <time>2013-04-07T13:40:03Z</time>
      </trkpt>
      <trkpt lat="59.9585371" lon="17.7857188">
        <ele>28.0155</ele>
        <time>2013-04-07T13:40:04Z</time>
      </trkpt>
      <trkpt lat="59.9585861" lon="17.7856691">
        <ele>28.4962</ele>
        <time>2013-04-07T13:40:05Z</time>
      </trkpt>
      <trkpt lat="59.9586356" lon="17.7856173">
        <ele>28.9769</ele>
        <time>2013-04-07T13:40:06Z</time>
      </trkpt>
      <trkpt lat="59.9586845" lon="17.7855659">
        <ele>29.4575</ele>
        <time>2013-04-07T13:40:07Z</time>
      </trkpt>
      <trkpt lat="59.9587333" lon="17.7855179">
        <ele>29.9381</ele>
        <time>2013-04-07T13:40:08Z</time>
      </trkpt>
      <trkpt lat="59.9587834" lon="17.7854699">
        <ele>30.8995</ele>
        <time>2013-04-07T13:40:09Z</time>
      </trkpt>
      <trkpt lat="59.9588347" lon="17.7854218">
        <ele>31.3801</ele>
        <time>2013-04-07T13:40:10Z</time>
      </trkpt>
      <trkpt lat="59.9588876" lon="17.7853774">
        <ele>31.8607</ele>
        <time>2013-04-07T13:40:11Z</time>
      </trkpt>
      <trkpt lat="59.958944" lon="17.7853329">
        <ele>31.8607</ele>
        <time>2013-04-07T13:40:12Z</time>
      </trkpt>
      <trkpt lat="59.9590041" lon="17.7852878">
        <ele>32.3416</ele>
        <time>2013-04-07T13:40:13Z</time>
      </trkpt>
      <trkpt lat="59.9590661" lon="17.7852412">
        <ele>32.3416</ele>
        <time>2013-04-07T13:40:14Z</time>
      </trkpt>
      <trkpt lat="59.9591289" lon="17.7851909">
        <ele>32.3416</ele>
        <time>2013-04-07T13:40:15Z</time>
      </trkpt>
      <trkpt lat="59.9591891" lon="17.7851433">
        <ele>32.3416</ele>
        <time>2013-04-07T13:40:16Z</time>
      </trkpt>
      <trkpt lat="59.959245" lon="17.7850954">
        <ele>32.3416</ele>
        <time>2013-04-07T13:40:17Z</time>
      </trkpt>
      <trkpt lat="59.9592942" lon="17.7850392">
        <ele>32.3416</ele>
        <time>2013-04-07T13:40:18Z</time>
      </trkpt>
      <trkpt lat="59.9593393" lon="17.7849848">
        <ele>32.3416</ele>
        <time>2013-04-07T13:40:19Z</time>
      </trkpt>
      <trkpt lat="59.9593807" lon="17.7849354">
        <ele>32.8223</ele>
        <time>2013-04-07T13:40:20Z</time>
      </trkpt>
      <trkpt lat="59.959419" lon="17.7848812">
        <ele>32.8223</ele>
        <time>2013-04-07T13:40:21Z</time>
      </trkpt>
      <trkpt lat="59.9594569" lon="17.7848237">
        <ele>32.3416</ele>
        <time>2013-04-07T13:40:22Z</time>
      </trkpt>
      <trkpt lat="59.9594947" lon="17.784767">
        <ele>32.8223</ele>
        <time>2013-04-07T13:40:23Z</time>
      </trkpt>
      <trkpt lat="59.9595334" lon="17.7847043">
        <ele>33.3029</ele>
        <time>2013-04-07T13:40:24Z</time>
      </trkpt>
      <trkpt lat="59.9595698" lon="17.7846399">
        <ele>32.8223</ele>
        <time>2013-04-07T13:40:25Z</time>
      </trkpt>
      <trkpt lat="59.9596042" lon="17.7845786">
        <ele>32.8223</ele>
        <time>2013-04-07T13:40:26Z</time>
      </trkpt>
      <trkpt lat="59.9596374" lon="17.7845192">
        <ele>32.8223</ele>
        <time>2013-04-07T13:40:27Z</time>
      </trkpt>
      <trkpt lat="59.9596707" lon="17.7844614">
        <ele>32.3416</ele>
        <time>2013-04-07T13:40:28Z</time>
      </trkpt>
      <trkpt lat="59.9597045" lon="17.7844031">
        <ele>32.3416</ele>
        <time>2013-04-07T13:40:29Z</time>
      </trkpt>
      <trkpt lat="59.9597392" lon="17.7843462">
        <ele>31.8607</ele>
        <time>2013-04-07T13:40:30Z</time>
      </trkpt>
      <trkpt lat="59.9597749" lon="17.7842902">
        <ele>31.8607</ele>
        <time>2013-04-07T13:40:31Z</time>
      </trkpt>
      <trkpt lat="59.9598101" lon="17.7842311">
        <ele>31.8607</ele>
        <time>2013-04-07T13:40:32Z</time>
      </trkpt>
      <trkpt lat="59.9598438" lon="17.7841663">
        <ele>31.3801</ele>
        <time>2013-04-07T13:40:33Z</time>
      </trkpt>
      <trkpt lat="59.9598759" lon="17.7840984">
        <ele>31.3801</ele>
        <time>2013-04-07T13:40:34Z</time>
      </trkpt>
      <trkpt lat="59.959908" lon="17.7840296">
        <ele>31.3801</ele>
        <time>2013-04-07T13:40:35Z</time>
      </trkpt>
      <trkpt lat="59.9599394" lon="17.783958">
        <ele>30.8995</ele>
        <time>2013-04-07T13:40:36Z</time>
      </trkpt>
      <trkpt lat="59.9599687" lon="17.7838824">
        <ele>30.8995</ele>
        <time>2013-04-07T13:40:37Z</time>
      </trkpt>
      <trkpt lat="59.9599971" lon="17.7838063">
        <ele>30.8995</ele>
        <time>2013-04-07T13:40:38Z</time>
      </trkpt>
      <trkpt lat="59.960025" lon="17.7837312">
        <ele>30.4188</ele>
        <time>2013-04-07T13:40:39Z</time>
      </trkpt>
      <trkpt lat="59.960052" lon="17.7836569">
        <ele>30.4188</ele>
        <time>2013-04-07T13:40:40Z</time>
      </trkpt>
      <trkpt lat="59.9600774" lon="17.783582">
        <ele>29.9381</ele>
        <time>2013-04-07T13:40:41Z</time>
      </trkpt>
      <trkpt lat="59.9601017" lon="17.7835074">
        <ele>29.4575</ele>
        <time>2013-04-07T13:40:42Z</time>
      </trkpt>
      <trkpt lat="59.9601262" lon="17.7834336">
        <ele>29.4575</ele>
        <time>2013-04-07T13:40:43Z</time>
      </trkpt>
      <trkpt lat="59.9601509" lon="17.7833593">
        <ele>28.9769</ele>
        <time>2013-04-07T13:40:44Z</time>
      </trkpt>
      <trkpt lat="59.9601748" lon="17.7832861">
        <ele>28.9769</ele>
        <time>2013-04-07T13:40:45Z</time>
      </trkpt>
      <trkpt lat="59.9602005" lon="17.7832128">
        <ele>28.9769</ele>
        <time>2013-04-07T13:40:46Z</time>
      </trkpt>
      <trkpt lat="59.9602254" lon="17.7831394">
        <ele>29.4575</ele>
        <time>2013-04-07T13:40:47Z</time>
      </trkpt>
      <trkpt lat="59.9602494" lon="17.7830646">
        <ele>29.9381</ele>
        <time>2013-04-07T13:40:48Z</time>
      </trkpt>
      <trkpt lat="59.9602735" lon="17.7829892">
        <ele>29.9381</ele>
        <time>2013-04-07T13:40:49Z</time>
      </trkpt>
      <trkpt lat="59.960297" lon="17.7829116">
        <ele>30.4188</ele>
        <time>2013-04-07T13:40:50Z</time>
      </trkpt>
      <trkpt lat="59.9603198" lon="17.7828364">
        <ele>30.4188</ele>
        <time>2013-04-07T13:40:51Z</time>
      </trkpt>
      <trkpt lat="59.9603433" lon="17.7827611">
        <ele>30.4188</ele>
        <time>2013-04-07T13:40:52Z</time>
      </trkpt>
      <trkpt lat="59.9603676" lon="17.7826852">
        <ele>30.4188</ele>
        <time>2013-04-07T13:40:53Z</time>
      </trkpt>
      <trkpt lat="59.9603912" lon="17.7826057">
        <ele>29.9381</ele>
        <time>2013-04-07T13:40:54Z</time>
      </trkpt>
      <trkpt lat="59.960415" lon="17.7825247">
        <ele>29.9381</ele>
        <time>2013-04-07T13:40:55Z</time>
      </trkpt>
      <trkpt lat="59.9604417" lon="17.7824407">
        <ele>30.4188</ele>
        <time>2013-04-07T13:40:56Z</time>
      </trkpt>
      <trkpt lat="59.9604681" lon="17.7823523">
        <ele>30.4188</ele>
        <time>2013-04-07T13:40:57Z</time>
      </trkpt>
      <trkpt lat="59.9604933" lon="17.7822626">
        <ele>30.4188</ele>
        <time>2013-04-07T13:40:58Z</time>
      </trkpt>
      <trkpt lat="59.9605234" lon="17.7821709">
        <ele>30.4188</ele>
        <time>2013-04-07T13:40:59Z</time>
      </trkpt>
      <trkpt lat="59.9605584" lon="17.7820788">
        <ele>30.4188</ele>
        <time>2013-04-07T13:41:00Z</time>
      </trkpt>
      <trkpt lat="59.9605966" lon="17.7819882">
        <ele>30.8995</ele>
        <time>2013-04-07T13:41:01Z</time>
      </trkpt>
      <trkpt lat="59.960638" lon="17.7818943">
        <ele>30.8995</ele>
        <time>2013-04-07T13:41:02Z</time>
      </trkpt>
      <trkpt lat="59.9606803" lon="17.7818032">
        <ele>31.3801</ele>
        <time>2013-04-07T13:41:03Z</time>
      </trkpt>
      <trkpt lat="59.9607242" lon="17.7817144">
        <ele>31.3801</ele>
        <time>2013-04-07T13:41:04Z</time>
      </trkpt>
      <trkpt lat="59.9607691" lon="17.7816282">
        <ele>31.8607</ele>
        <time>2013-04-07T13:41:05Z</time>
      </trkpt>
      <trkpt lat="59.9608146" lon="17.7815447">
        <ele>32.3416</ele>
        <time>2013-04-07T13:41:06Z</time>
      </trkpt>
      <trkpt lat="59.9608585" lon="17.7814608">
        <ele>32.8223</ele>
        <time>2013-04-07T13:41:07Z</time>
      </trkpt>
      <trkpt lat="59.9609013" lon="17.7813794">
        <ele>32.8223</ele>
        <time>2013-04-07T13:41:08Z</time>
      </trkpt>
      <trkpt lat="59.9609447" lon="17.7813002">
        <ele>33.3029</ele>
        <time>2013-04-07T13:41:09Z</time>
      </trkpt>
      <trkpt lat="59.9609895" lon="17.7812218">
        <ele>33.7834</ele>
        <time>2013-04-07T13:41:10Z</time>
      </trkpt>
      <trkpt lat="59.9610335" lon="17.7811451">
        <ele>33.7834</ele>
        <time>2013-04-07T13:41:11Z</time>
      </trkpt>
      <trkpt lat="59.9610776" lon="17.7810695">
        <ele>33.7834</ele>
        <time>2013-04-07T13:41:12Z</time>
      </trkpt>
      <trkpt lat="59.9611211" lon="17.780992">
        <ele>33.7834</ele>
        <time>2013-04-07T13:41:13Z</time>
      </trkpt>
      <trkpt lat="59.9611636" lon="17.7809132">
        <ele>33.3029</ele>
        <time>2013-04-07T13:41:14Z</time>
      </trkpt>
      <trkpt lat="59.9612031" lon="17.7808267">
        <ele>32.8223</ele>
        <time>2013-04-07T13:41:15Z</time>
      </trkpt>
      <trkpt lat="59.9612433" lon="17.7807469">
        <ele>32.3416</ele>
        <time>2013-04-07T13:41:16Z</time>
      </trkpt>
      <trkpt lat="59.9612845" lon="17.7806739">
        <ele>31.8607</ele>
        <time>2013-04-07T13:41:17Z</time>
      </trkpt>
      <trkpt lat="59.9613254" lon="17.7806009">
        <ele>31.8607</ele>
        <time>2013-04-07T13:41:18Z</time>
      </trkpt>
      <trkpt lat="59.9613655" lon="17.7805272">
        <ele>31.3801</ele>
        <time>2013-04-07T13:41:19Z</time>
      </trkpt>
      <trkpt lat="59.9614051" lon="17.7804537">
        <ele>30.8995</ele>
        <time>2013-04-07T13:41:20Z</time>
      </trkpt>
      <trkpt lat="59.961445" lon="17.7803813">
        <ele>30.8995</ele>
        <time>2013-04-07T13:41:21Z</time>
      </trkpt>
      <trkpt lat="59.9614854" lon="17.7803101">
        <ele>30.4188</ele>
        <time>2013-04-07T13:41:22Z</time>
      </trkpt>
      <trkpt lat="59.9615258" lon="17.7802381">
        <ele>30.4188</ele>
        <time>2013-04-07T13:41:23Z</time>
      </trkpt>
      <trkpt lat="59.9615649" lon="17.7801615">
        <ele>29.9381</ele>
        <time>2013-04-07T13:41:24Z</time>
      </trkpt>
      <trkpt lat="59.9616023" lon="17.7800813">
        <ele>29.9381</ele>
        <time>2013-04-07T13:41:25Z</time>
      </trkpt>
      <trkpt lat="59.9616395" lon="17.7800005">
        <ele>29.4575</ele>
        <time>2013-04-07T13:41:26Z</time>
      </trkpt>
      <trkpt lat="59.961676" lon="17.7799186">
        <ele>29.4575</ele>
        <time>2013-04-07T13:41:27Z</time>
      </trkpt>
      <trkpt lat="59.9617118" lon="17.7798361">
        <ele>28.9769</ele>
        <time>2013-04-07T13:41:28Z</time>
      </trkpt>
      <trkpt lat="59.9617468" lon="17.7797534">
        <ele>28.9769</ele>
        <time>2013-04-07T13:41:29Z</time>
      </trkpt>
      <trkpt lat="59.9617818" lon="17.7796693">
        <ele>28.4962</ele>
        <time>2013-04-07T13:41:30Z</time>
      </trkpt>
      <trkpt lat="59.9618185" lon="17.7795849">
        <ele>28.4962</ele>
        <time>2013-04-07T13:41:31Z</time>
      </trkpt>
      <trkpt lat="59.961856" lon="17.7795007">
        <ele>28.4962</ele>
        <time>2013-04-07T13:41:32Z</time>
      </trkpt>
      <trkpt lat="59.9618942" lon="17.7794165">
        <ele>28.4962</ele>
        <time>2013-04-07T13:41:33Z</time>
      </trkpt>
      <trkpt lat="59.961933" lon="17.779331">
        <ele>28.4962</ele>
        <time>2013-04-07T13:41:34Z</time>
      </trkpt>
      <trkpt lat="59.9619729" lon="17.7792462">
        <ele>28.4962</ele>
        <time>2013-04-07T13:41:35Z</time>
      </trkpt>
      <trkpt lat="59.9620138" lon="17.7791618">
        <ele>28.4962</ele>
        <time>2013-04-07T13:41:36Z</time>
      </trkpt>
      <trkpt lat="59.9620544" lon="17.7790743">
        <ele>28.4962</ele>
        <time>2013-04-07T13:41:37Z</time>
      </trkpt>
      <trkpt lat="59.9620929" lon="17.7789846">
        <ele>28.0155</ele>
        <time>2013-04-07T13:41:38Z</time>
      </trkpt>
      <trkpt lat="59.9621318" lon="17.7788943">
        <ele>28.0155</ele>
        <time>2013-04-07T13:41:39Z</time>
      </trkpt>
      <trkpt lat="59.962172" lon="17.7788032">
        <ele>27.5349</ele>
        <time>2013-04-07T13:41:40Z</time>
      </trkpt>
      <trkpt lat="59.9622124" lon="17.7787097">
        <ele>27.5349</ele>
        <time>2013-04-07T13:41:41Z</time>
      </trkpt>
      <trkpt lat="59.962253" lon="17.7786138">
        <ele>27.5349</ele>
        <time>2013-04-07T13:41:42Z</time>
      </trkpt>
      <trkpt lat="59.9622934" lon="17.7785154">
        <ele>27.0543</ele>
        <time>2013-04-07T13:41:43Z</time>
      </trkpt>
      <trkpt lat="59.9623344" lon="17.7784159">
        <ele>27.0543</ele>
        <time>2013-04-07T13:41:44Z</time>
      </trkpt>
      <trkpt lat="59.9623763" lon="17.778318">
        <ele>26.5736</ele>
        <time>2013-04-07T13:41:45Z</time>
      </trkpt>
      <trkpt lat="59.9624182" lon="17.778221">
        <ele>26.5736</ele>
        <time>2013-04-07T13:41:46Z</time>
      </trkpt>
      <trkpt lat="59.9624607" lon="17.7781254">
        <ele>26.0929</ele>
        <time>2013-04-07T13:41:47Z</time>
      </trkpt>
      <trkpt lat="59.9625039" lon="17.7780315">
        <ele>26.0929</ele>
        <time>2013-04-07T13:41:48Z</time>
      </trkpt>
      <trkpt lat="59.9625472" lon="17.7779377">
        <ele>26.0929</ele>
        <time>2013-04-07T13:41:49Z</time>
      </trkpt>
      <trkpt lat="59.9625906" lon="17.7778456">
        <ele>26.0929</ele>
        <time>2013-04-07T13:41:50Z</time>
      </trkpt>
      <trkpt lat="59.9626344" lon="17.7777553">
        <ele>25.6123</ele>
        <time>2013-04-07T13:41:51Z</time>
      </trkpt>
      <trkpt lat="59.9626783" lon="17.7776659">
        <ele>25.6123</ele>
        <time>2013-04-07T13:41:52Z</time>
      </trkpt>
      <trkpt lat="59.9627213" lon="17.7775777">
        <ele>25.6123</ele>
        <time>2013-04-07T13:41:53Z</time>
      </trkpt>
      <trkpt lat="59.9627639" lon="17.7774896">
        <ele>25.6123</ele>
        <time>2013-04-07T13:41:54Z</time>
      </trkpt>
      <trkpt lat="59.9628066" lon="17.7774016">
        <ele>25.6123</ele>
        <time>2013-04-07T13:41:55Z</time>
      </trkpt>
      <trkpt lat="59.9628493" lon="17.777313">
        <ele>25.6123</ele>
        <time>2013-04-07T13:41:56Z</time>
      </trkpt>
      <trkpt lat="59.962891" lon="17.777222">
        <ele>25.6123</ele>
        <time>2013-04-07T13:41:57Z</time>
      </trkpt>
      <trkpt lat="59.9629311" lon="17.7771292">
        <ele>25.6123</ele>
        <time>2013-04-07T13:41:58Z</time>
      </trkpt>
      <trkpt lat="59.9629706" lon="17.7770349">
        <ele>25.6123</ele>
        <time>2013-04-07T13:41:59Z</time>
      </trkpt>
      <trkpt lat="59.9630092" lon="17.7769385">
        <ele>25.6123</ele>
        <time>2013-04-07T13:42:00Z</time>
      </trkpt>
      <trkpt lat="59.9630446" lon="17.7768392">
        <ele>25.6123</ele>
        <time>2013-04-07T13:42:01Z</time>
      </trkpt>
      <trkpt lat="59.9630783" lon="17.776737">
        <ele>26.0929</ele>
        <time>2013-04-07T13:42:02Z</time>
      </trkpt>
      <trkpt lat="59.9631108" lon="17.776636">
        <ele>26.5736</ele>
        <time>2013-04-07T13:42:03Z</time>
      </trkpt>
      <trkpt lat="59.9631409" lon="17.7765375">
        <ele>26.5736</ele>
        <time>2013-04-07T13:42:04Z</time>
      </trkpt>
      <trkpt lat="59.96317" lon="17.7764386">
        <ele>27.0543</ele>
        <time>2013-04-07T13:42:05Z</time>
      </trkpt>
      <trkpt lat="59.963199" lon="17.77634">
        <ele>27.0543</ele>
        <time>2013-04-07T13:42:06Z</time>
      </trkpt>
      <trkpt lat="59.9632293" lon="17.7762423">
        <ele>27.0543</ele>
        <time>2013-04-07T13:42:07Z</time>
      </trkpt>
      <trkpt lat="59.9632598" lon="17.7761433">
        <ele>27.0543</ele>
        <time>2013-04-07T13:42:08Z</time>
      </trkpt>
      <trkpt lat="59.9632905" lon="17.7760432">
        <ele>27.0543</ele>
        <time>2013-04-07T13:42:09Z</time>
      </trkpt>
      <trkpt lat="59.9633217" lon="17.7759434">
        <ele>27.0543</ele>
        <time>2013-04-07T13:42:10Z</time>
      </trkpt>
      <trkpt lat="59.9633537" lon="17.7758424">
        <ele>27.0543</ele>
        <time>2013-04-07T13:42:11Z</time>
      </trkpt>
      <trkpt lat="59.963386" lon="17.7757393">
        <ele>27.0543</ele>
        <time>2013-04-07T13:42:12Z</time>
      </trkpt>
      <trkpt lat="59.9634197" lon="17.7756352">
        <ele>26.5736</ele>
        <time>2013-04-07T13:42:13Z</time>
      </trkpt>
      <trkpt lat="59.9634548" lon="17.7755305">
        <ele>26.5736</ele>
        <time>2013-04-07T13:42:14Z</time>
      </trkpt>
      <trkpt lat="59.9634889" lon="17.7754255">
        <ele>26.5736</ele>
        <time>2013-04-07T13:42:15Z</time>
      </trkpt>
      <trkpt lat="59.963521" lon="17.7753219">
        <ele>26.5736</ele>
        <time>2013-04-07T13:42:16Z</time>
      </trkpt>
      <trkpt lat="59.9635516" lon="17.7752203">
        <ele>26.5736</ele>
        <time>2013-04-07T13:42:17Z</time>
      </trkpt>
      <trkpt lat="59.9635793" lon="17.7751196">
        <ele>26.5736</ele>
        <time>2013-04-07T13:42:18Z</time>
      </trkpt>
      <trkpt lat="59.9636056" lon="17.7750182">
        <ele>26.5736</ele>
        <time>2013-04-07T13:42:19Z</time>
      </trkpt>
      <trkpt lat="59.9636294" lon="17.7749152">
        <ele>26.5736</ele>
        <time>2013-04-07T13:42:20Z</time>
      </trkpt>
      <trkpt lat="59.9636501" lon="17.7748112">
        <ele>26.5736</ele>
        <time>2013-04-07T13:42:21Z</time>
      </trkpt>
      <trkpt lat="59.9636689" lon="17.774707">
        <ele>26.5736</ele>
        <time>2013-04-07T13:42:22Z</time>
      </trkpt>
      <trkpt lat="59.9636874" lon="17.774604">
        <ele>26.5736</ele>
        <time>2013-04-07T13:42:23Z</time>
      </trkpt>
      <trkpt lat="59.9637054" lon="17.7745032">
        <ele>27.0543</ele>
        <time>2013-04-07T13:42:24Z</time>
      </trkpt>
      <trkpt lat="59.963722" lon="17.774404">
        <ele>27.0543</ele>
        <time>2013-04-07T13:42:25Z</time>
      </trkpt>
      <trkpt lat="59.9637377" lon="17.7743063">
        <ele>27.0543</ele>
        <time>2013-04-07T13:42:26Z</time>
      </trkpt>
      <trkpt lat="59.963754" lon="17.7742094">
        <ele>27.0543</ele>
        <time>2013-04-07T13:42:27Z</time>
      </trkpt>
      <trkpt lat="59.9637708" lon="17.7741117">
        <ele>27.5349</ele>
        <time>2013-04-07T13:42:28Z</time>
      </trkpt>
      <trkpt lat="59.9637879" lon="17.7740117">
        <ele>27.5349</ele>
        <time>2013-04-07T13:42:29Z</time>
      </trkpt>
      <trkpt lat="59.9638063" lon="17.7739092">
        <ele>27.5349</ele>
        <time>2013-04-07T13:42:30Z</time>
      </trkpt>
      <trkpt lat="59.9638251" lon="17.7738033">
        <ele>27.0543</ele>
        <time>2013-04-07T13:42:31Z</time>
      </trkpt>
      <trkpt lat="59.9638429" lon="17.7736946">
        <ele>27.5349</ele>
        <time>2013-04-07T13:42:32Z</time>
      </trkpt>
      <trkpt lat="59.9638609" lon="17.7735858">
        <ele>27.5349</ele>
        <time>2013-04-07T13:42:33Z</time>
      </trkpt>
      <trkpt lat="59.9638775" lon="17.773476">
        <ele>27.5349</ele>
        <time>2013-04-07T13:42:34Z</time>
      </trkpt>
      <trkpt lat="59.963891" lon="17.7733643">
        <ele>27.5349</ele>
        <time>2013-04-07T13:42:35Z</time>
      </trkpt>
      <trkpt lat="59.9639028" lon="17.7732534">
        <ele>27.5349</ele>
        <time>2013-04-07T13:42:36Z</time>
      </trkpt>
      <trkpt lat="59.9639143" lon="17.7731427">
        <ele>27.5349</ele>
        <time>2013-04-07T13:42:37Z</time>
      </trkpt>
      <trkpt lat="59.9639226" lon="17.773033">
        <ele>27.5349</ele>
        <time>2013-04-07T13:42:38Z</time>
      </trkpt>
      <trkpt lat="59.9639265" lon="17.7729219">
        <ele>27.5349</ele>
        <time>2013-04-07T13:42:39Z</time>
      </trkpt>
      <trkpt lat="59.9639248" lon="17.7728087">
        <ele>27.5349</ele>
        <time>2013-04-07T13:42:40Z</time>
      </trkpt>
      <trkpt lat="59.9639184" lon="17.7726935">
        <ele>27.0543</ele>
        <time>2013-04-07T13:42:41Z</time>
      </trkpt>
      <trkpt lat="59.9639077" lon="17.772577">
        <ele>27.0543</ele>
        <time>2013-04-07T13:42:42Z</time>
      </trkpt>
      <trkpt lat="59.9638932" lon="17.7724606">
        <ele>27.0543</ele>
        <time>2013-04-07T13:42:43Z</time>
      </trkpt>
      <trkpt lat="59.9638755" lon="17.772346">
        <ele>27.0543</ele>
        <time>2013-04-07T13:42:44Z</time>
      </trkpt>
      <trkpt lat="59.9638551" lon="17.772237">
        <ele>27.0543</ele>
        <time>2013-04-07T13:42:45Z</time>
      </trkpt>
      <trkpt lat="59.963833" lon="17.7721335">
        <ele>27.0543</ele>
        <time>2013-04-07T13:42:46Z</time>
      </trkpt>
      <trkpt lat="59.9638095" lon="17.7720346">
        <ele>27.0543</ele>
        <time>2013-04-07T13:42:47Z</time>
      </trkpt>
      <trkpt lat="59.9637859" lon="17.7719382">
        <ele>27.0543</ele>
        <time>2013-04-07T13:42:48Z</time>
      </trkpt>
      <trkpt lat="59.9637632" lon="17.7718429">
        <ele>27.0543</ele>
        <time>2013-04-07T13:42:49Z</time>
      </trkpt>
      <trkpt lat="59.9637412" lon="17.7717494">
        <ele>27.0543</ele>
        <time>2013-04-07T13:42:50Z</time>
      </trkpt>
      <trkpt lat="59.963719" lon="17.7716577">
        <ele>27.5349</ele>
        <time>2013-04-07T13:42:51Z</time>
      </trkpt>
      <trkpt lat="59.9636961" lon="17.7715681">
        <ele>27.5349</ele>
        <time>2013-04-07T13:42:52Z</time>
      </trkpt>
      <trkpt lat="59.9636729" lon="17.7714802">
        <ele>27.0543</ele>
        <time>2013-04-07T13:42:53Z</time>
      </trkpt>
      <trkpt lat="59.9636504" lon="17.771392">
        <ele>27.0543</ele>
        <time>2013-04-07T13:42:54Z</time>
      </trkpt>
      <trkpt lat="59.9636276" lon="17.7713034">
        <ele>27.0543</ele>
        <time>2013-04-07T13:42:55Z</time>
      </trkpt>
      <trkpt lat="59.9636043" lon="17.7712141">
        <ele>27.0543</ele>
        <time>2013-04-07T13:42:56Z</time>
      </trkpt>
      <trkpt lat="59.9635829" lon="17.7711231">
        <ele>27.0543</ele>
        <time>2013-04-07T13:42:57Z</time>
      </trkpt>
      <trkpt lat="59.9635639" lon="17.77103">
        <ele>27.0543</ele>
        <time>2013-04-07T13:42:58Z</time>
      </trkpt>
      <trkpt lat="59.9635449" lon="17.7709367">
        <ele>27.0543</ele>
        <time>2013-04-07T13:42:59Z</time>
      </trkpt>
      <trkpt lat="59.9635268" lon="17.7708434">
        <ele>27.0543</ele>
        <time>2013-04-07T13:43:00Z</time>
      </trkpt>
      <trkpt lat="59.9635121" lon="17.7707493">
        <ele>27.5349</ele>
        <time>2013-04-07T13:43:01Z</time>
      </trkpt>
      <trkpt lat="59.9634989" lon="17.7706559">
        <ele>27.5349</ele>
        <time>2013-04-07T13:43:02Z</time>
      </trkpt>
      <trkpt lat="59.9634893" lon="17.7705622">
        <ele>27.5349</ele>
        <time>2013-04-07T13:43:03Z</time>
      </trkpt>
      <trkpt lat="59.9634827" lon="17.7704689">
        <ele>28.0155</ele>
        <time>2013-04-07T13:43:04Z</time>
      </trkpt>
      <trkpt lat="59.9634769" lon="17.7703758">
        <ele>28.0155</ele>
        <time>2013-04-07T13:43:05Z</time>
      </trkpt>
      <trkpt lat="59.9634717" lon="17.7702822">
        <ele>28.0155</ele>
        <time>2013-04-07T13:43:06Z</time>
      </trkpt>
      <trkpt lat="59.9634678" lon="17.7701886">
        <ele>28.0155</ele>
        <time>2013-04-07T13:43:07Z</time>
      </trkpt>
      <trkpt lat="59.9634652" lon="17.7700941">
        <ele>28.0155</ele>
        <time>2013-04-07T13:43:08Z</time>
      </trkpt>
      <trkpt lat="59.9634643" lon="17.7699976">
        <ele>28.0155</ele>
        <time>2013-04-07T13:43:09Z</time>
      </trkpt>
      <trkpt lat="59.963466" lon="17.7698997">
        <ele>27.5349</ele>
        <time>2013-04-07T13:43:10Z</time>
      </trkpt>
      <trkpt lat="59.9634697" lon="17.7697989">
        <ele>27.0543</ele>
        <time>2013-04-07T13:43:11Z</time>
      </trkpt>
      <trkpt lat="59.9634769" lon="17.7696955">
        <ele>27.0543</ele>
        <time>2013-04-07T13:43:12Z</time>
      </trkpt>
      <trkpt lat="59.9634895" lon="17.769591">
        <ele>26.5736</ele>
        <time>2013-04-07T13:43:13Z</time>
      </trkpt>
      <trkpt lat="59.9635091" lon="17.769487">
        <ele>26.5736</ele>
        <time>2013-04-07T13:43:14Z</time>
      </trkpt>
      <trkpt lat="59.9635341" lon="17.7693847">
        <ele>26.0929</ele>
        <time>2013-04-07T13:43:15Z</time>
      </trkpt>
      <trkpt lat="59.9635615" lon="17.7692829">
        <ele>26.0929</ele>
        <time>2013-04-07T13:43:16Z</time>
      </trkpt>
      <trkpt lat="59.9635899" lon="17.7691799">
        <ele>26.0929</ele>
        <time>2013-04-07T13:43:17Z</time>
      </trkpt>
      <trkpt lat="59.9636196" lon="17.7690775">
        <ele>26.0929</ele>
        <time>2013-04-07T13:43:18Z</time>
      </trkpt>
      <trkpt lat="59.9636502" lon="17.7689752">
        <ele>25.6123</ele>
        <time>2013-04-07T13:43:19Z</time>
      </trkpt>
      <trkpt lat="59.9636803" lon="17.768871">
        <ele>25.6123</ele>
        <time>2013-04-07T13:43:20Z</time>
      </trkpt>
      <trkpt lat="59.9637103" lon="17.7687674">
        <ele>25.6123</ele>
        <time>2013-04-07T13:43:21Z</time>
      </trkpt>
      <trkpt lat="59.9637403" lon="17.7686638">
        <ele>25.6123</ele>
        <time>2013-04-07T13:43:22Z</time>
      </trkpt>
      <trkpt lat="59.9637693" lon="17.7685602">
        <ele>25.6123</ele>
        <time>2013-04-07T13:43:23Z</time>
      </trkpt>
      <trkpt lat="59.9637967" lon="17.7684573">
        <ele>25.6123</ele>
        <time>2013-04-07T13:43:24Z</time>
      </trkpt>
      <trkpt lat="59.963823" lon="17.7683581">
        <ele>25.6123</ele>
        <time>2013-04-07T13:43:25Z</time>
      </trkpt>
      <trkpt lat="59.9638475" lon="17.7682634">
        <ele>25.6123</ele>
        <time>2013-04-07T13:43:26Z</time>
      </trkpt>
      <trkpt lat="59.9638696" lon="17.7681721">
        <ele>25.6123</ele>
        <time>2013-04-07T13:43:27Z</time>
      </trkpt>
      <trkpt lat="59.96389" lon="17.7680846">
        <ele>26.0929</ele>
        <time>2013-04-07T13:43:28Z</time>
      </trkpt>
      <trkpt lat="59.9639096" lon="17.7680008">
        <ele>26.0929</ele>
        <time>2013-04-07T13:43:29Z</time>
      </trkpt>
      <trkpt lat="59.9639273" lon="17.7679182">
        <ele>26.0929</ele>
        <time>2013-04-07T13:43:30Z</time>
      </trkpt>
      <trkpt lat="59.9639433" lon="17.767835">
        <ele>26.0929</ele>
        <time>2013-04-07T13:43:31Z</time>
      </trkpt>
      <trkpt lat="59.9639604" lon="17.7677519">
        <ele>26.0929</ele>
        <time>2013-04-07T13:43:32Z</time>
      </trkpt>
      <trkpt lat="59.963978" lon="17.7676677">
        <ele>26.0929</ele>
        <time>2013-04-07T13:43:33Z</time>
      </trkpt>
      <trkpt lat="59.9639937" lon="17.7675806">
        <ele>26.0929</ele>
        <time>2013-04-07T13:43:34Z</time>
      </trkpt>
      <trkpt lat="59.9640077" lon="17.7674903">
        <ele>26.0929</ele>
        <time>2013-04-07T13:43:35Z</time>
      </trkpt>
      <trkpt lat="59.9640214" lon="17.7673978">
        <ele>26.0929</ele>
        <time>2013-04-07T13:43:36Z</time>
      </trkpt>
      <trkpt lat="59.964035" lon="17.7673021">
        <ele>26.0929</ele>
        <time>2013-04-07T13:43:37Z</time>
      </trkpt>
      <trkpt lat="59.9640464" lon="17.7672036">
        <ele>26.0929</ele>
        <time>2013-04-07T13:43:38Z</time>
      </trkpt>
      <trkpt lat="59.9640561" lon="17.767102">
        <ele>26.5736</ele>
        <time>2013-04-07T13:43:39Z</time>
      </trkpt>
      <trkpt lat="59.9640612" lon="17.7669989">
        <ele>26.0929</ele>
        <time>2013-04-07T13:43:40Z</time>
      </trkpt>
      <trkpt lat="59.9640646" lon="17.7668939">
        <ele>26.5736</ele>
        <time>2013-04-07T13:43:41Z</time>
      </trkpt>
      <trkpt lat="59.9640661" lon="17.7667874">
        <ele>26.5736</ele>
        <time>2013-04-07T13:43:42Z</time>
      </trkpt>
      <trkpt lat="59.9640661" lon="17.7666807">
        <ele>26.5736</ele>
        <time>2013-04-07T13:43:43Z</time>
      </trkpt>
      <trkpt lat="59.9640721" lon="17.7665414">
        <ele>27.0543</ele>
        <time>2013-04-07T13:43:44Z</time>
      </trkpt>
      <trkpt lat="59.964071" lon="17.7664284">
        <ele>27.0543</ele>
        <time>2013-04-07T13:43:45Z</time>
      </trkpt>
      <trkpt lat="59.9640733" lon="17.7663136">
        <ele>27.0543</ele>
        <time>2013-04-07T13:43:46Z</time>
      </trkpt>
      <trkpt lat="59.9640719" lon="17.7661945">
        <ele>26.5736</ele>
        <time>2013-04-07T13:43:47Z</time>
      </trkpt>
      <trkpt lat="59.9640749" lon="17.7660686">
        <ele>26.0929</ele>
        <time>2013-04-07T13:43:48Z</time>
      </trkpt>
      <trkpt lat="59.9640757" lon="17.7659396">
        <ele>25.6123</ele>
        <time>2013-04-07T13:43:49Z</time>
      </trkpt>
      <trkpt lat="59.9640795" lon="17.7658034">
        <ele>25.1317</ele>
        <time>2013-04-07T13:43:50Z</time>
      </trkpt>
      <trkpt lat="59.964084" lon="17.7656484">
        <ele>24.651</ele>
        <time>2013-04-07T13:43:51Z</time>
      </trkpt>
      <trkpt lat="59.9640977" lon="17.7655137">
        <ele>24.1703</ele>
        <time>2013-04-07T13:43:52Z</time>
      </trkpt>
      <trkpt lat="59.9641116" lon="17.7653703">
        <ele>23.209</ele>
        <time>2013-04-07T13:43:53Z</time>
      </trkpt>
      <trkpt lat="59.9641296" lon="17.7652173">
        <ele>22.7283</ele>
        <time>2013-04-07T13:43:54Z</time>
      </trkpt>
      <trkpt lat="59.9641531" lon="17.765061">
        <ele>21.767</ele>
        <time>2013-04-07T13:43:55Z</time>
      </trkpt>
      <trkpt lat="59.964184" lon="17.7649081">
        <ele>21.2864</ele>
        <time>2013-04-07T13:43:56Z</time>
      </trkpt>
      <trkpt lat="59.9642203" lon="17.7647611">
        <ele>20.8057</ele>
        <time>2013-04-07T13:43:57Z</time>
      </trkpt>
      <trkpt lat="59.9642622" lon="17.7646135">
        <ele>21.2864</ele>
        <time>2013-04-07T13:43:58Z</time>
      </trkpt>
      <trkpt lat="59.9643003" lon="17.7644743">
        <ele>21.2864</ele>
        <time>2013-04-07T13:43:59Z</time>
      </trkpt>
      <trkpt lat="59.9643381" lon="17.7643364">
        <ele>20.8057</ele>
        <time>2013-04-07T13:44:00Z</time>
      </trkpt>
      <trkpt lat="59.9643746" lon="17.7641991">
        <ele>20.325</ele>
        <time>2013-04-07T13:44:01Z</time>
      </trkpt>
      <trkpt lat="59.9644105" lon="17.7640629">
        <ele>19.8444</ele>
        <time>2013-04-07T13:44:02Z</time>
      </trkpt>
      <trkpt lat="59.9644469" lon="17.7639286">
        <ele>19.8444</ele>
        <time>2013-04-07T13:44:03Z</time>
      </trkpt>
      <trkpt lat="59.9644823" lon="17.763794">
        <ele>19.3638</ele>
        <time>2013-04-07T13:44:04Z</time>
      </trkpt>
      <trkpt lat="59.9645157" lon="17.7636587">
        <ele>18.8831</ele>
        <time>2013-04-07T13:44:05Z</time>
      </trkpt>
      <trkpt lat="59.9645483" lon="17.763523">
        <ele>18.8831</ele>
        <time>2013-04-07T13:44:06Z</time>
      </trkpt>
      <trkpt lat="59.9645809" lon="17.7633889">
        <ele>18.8831</ele>
        <time>2013-04-07T13:44:07Z</time>
      </trkpt>
      <trkpt lat="59.9646134" lon="17.7632573">
        <ele>18.8831</ele>
        <time>2013-04-07T13:44:08Z</time>
      </trkpt>
      <trkpt lat="59.9646453" lon="17.7631271">
        <ele>18.4023</ele>
        <time>2013-04-07T13:44:09Z</time>
      </trkpt>
      <trkpt lat="59.9646776" lon="17.7629985">
        <ele>18.4023</ele>
        <time>2013-04-07T13:44:10Z</time>
      </trkpt>
      <trkpt lat="59.9647116" lon="17.762873">
        <ele>18.4023</ele>
        <time>2013-04-07T13:44:11Z</time>
      </trkpt>
      <trkpt lat="59.9647472" lon="17.76275">
        <ele>18.4023</ele>
        <time>2013-04-07T13:44:12Z</time>
      </trkpt>
      <trkpt lat="59.964785" lon="17.7626301">
        <ele>18.4023</ele>
        <time>2013-04-07T13:44:13Z</time>
      </trkpt>
      <trkpt lat="59.9648248" lon="17.7625126">
        <ele>17.9218</ele>
        <time>2013-04-07T13:44:14Z</time>
      </trkpt>
      <trkpt lat="59.9648647" lon="17.762396">
        <ele>17.9218</ele>
        <time>2013-04-07T13:44:15Z</time>
      </trkpt>
      <trkpt lat="59.9649053" lon="17.762282">
        <ele>17.9218</ele>
        <time>2013-04-07T13:44:16Z</time>
      </trkpt>
      <trkpt lat="59.9649467" lon="17.7621721">
        <ele>17.9218</ele>
        <time>2013-04-07T13:44:17Z</time>
      </trkpt>
      <trkpt lat="59.9649882" lon="17.7620671">
        <ele>18.4023</ele>
        <time>2013-04-07T13:44:18Z</time>
      </trkpt>
      <trkpt lat="59.9650296" lon="17.7619628">
        <ele>18.8831</ele>
        <time>2013-04-07T13:44:19Z</time>
      </trkpt>
      <trkpt lat="59.9650689" lon="17.7618635">
        <ele>18.8831</ele>
        <time>2013-04-07T13:44:20Z</time>
      </trkpt>
      <trkpt lat="59.9651089" lon="17.7617638">
        <ele>18.8831</ele>
        <time>2013-04-07T13:44:21Z</time>
      </trkpt>
      <trkpt lat="59.9651522" lon="17.761665">
        <ele>19.3638</ele>
        <time>2013-04-07T13:44:22Z</time>
      </trkpt>
      <trkpt lat="59.9651905" lon="17.7615654">
        <ele>20.325</ele>
        <time>2013-04-07T13:44:23Z</time>
      </trkpt>
      <trkpt lat="59.9652221" lon="17.7614576">
        <ele>21.2864</ele>
        <time>2013-04-07T13:44:24Z</time>
      </trkpt>
      <trkpt lat="59.9652501" lon="17.761348">
        <ele>21.2864</ele>
        <time>2013-04-07T13:44:25Z</time>
      </trkpt>
      <trkpt lat="59.9652876" lon="17.7612475">
        <ele>20.8057</ele>
        <time>2013-04-07T13:44:26Z</time>
      </trkpt>
      <trkpt lat="59.9653342" lon="17.7611422">
        <ele>21.2864</ele>
        <time>2013-04-07T13:44:27Z</time>
      </trkpt>
      <trkpt lat="59.9653787" lon="17.7610385">
        <ele>21.2864</ele>
        <time>2013-04-07T13:44:28Z</time>
      </trkpt>
      <trkpt lat="59.9654299" lon="17.7609404">
        <ele>21.767</ele>
        <time>2013-04-07T13:44:29Z</time>
      </trkpt>
      <trkpt lat="59.9654769" lon="17.7608403">
        <ele>21.767</ele>
        <time>2013-04-07T13:44:30Z</time>
      </trkpt>
      <trkpt lat="59.9655246" lon="17.7607487">
        <ele>21.767</ele>
        <time>2013-04-07T13:44:31Z</time>
      </trkpt>
      <trkpt lat="59.9655734" lon="17.7606658">
        <ele>21.767</ele>
        <time>2013-04-07T13:44:32Z</time>
      </trkpt>
      <trkpt lat="59.9656199" lon="17.7605864">
        <ele>22.2476</ele>
        <time>2013-04-07T13:44:33Z</time>
      </trkpt>
      <trkpt lat="59.9656595" lon="17.7605027">
        <ele>22.7283</ele>
        <time>2013-04-07T13:44:34Z</time>
      </trkpt>
      <trkpt lat="59.9657019" lon="17.7604276">
        <ele>22.7283</ele>
        <time>2013-04-07T13:44:35Z</time>
      </trkpt>
      <trkpt lat="59.9657464" lon="17.7603503">
        <ele>23.209</ele>
        <time>2013-04-07T13:44:36Z</time>
      </trkpt>
      <trkpt lat="59.9657969" lon="17.7602147">
        <ele>23.209</ele>
        <time>2013-04-07T13:44:37Z</time>
      </trkpt>
      <trkpt lat="59.9658585" lon="17.7601208">
        <ele>24.1703</ele>
        <time>2013-04-07T13:44:38Z</time>
      </trkpt>
      <trkpt lat="59.9659126" lon="17.760026">
        <ele>24.651</ele>
        <time>2013-04-07T13:44:39Z</time>
      </trkpt>
      <trkpt lat="59.9659677" lon="17.7599421">
        <ele>24.651</ele>
        <time>2013-04-07T13:44:40Z</time>
      </trkpt>
      <trkpt lat="59.966017" lon="17.7598497">
        <ele>24.1703</ele>
        <time>2013-04-07T13:44:41Z</time>
      </trkpt>
      <trkpt lat="59.9660635" lon="17.7597487">
        <ele>24.1703</ele>
        <time>2013-04-07T13:44:42Z</time>
      </trkpt>
      <trkpt lat="59.9661085" lon="17.7596467">
        <ele>24.651</ele>
        <time>2013-04-07T13:44:43Z</time>
      </trkpt>
      <trkpt lat="59.9661541" lon="17.759547">
        <ele>24.651</ele>
        <time>2013-04-07T13:44:44Z</time>
      </trkpt>
      <trkpt lat="59.9662019" lon="17.7594536">
        <ele>24.651</ele>
        <time>2013-04-07T13:44:45Z</time>
      </trkpt>
      <trkpt lat="59.966255" lon="17.7593769">
        <ele>24.651</ele>
        <time>2013-04-07T13:44:46Z</time>
      </trkpt>
      <trkpt lat="59.9663002" lon="17.7592933">
        <ele>24.1703</ele>
        <time>2013-04-07T13:44:47Z</time>
      </trkpt>
      <trkpt lat="59.9663452" lon="17.7592141">
        <ele>23.6896</ele>
        <time>2013-04-07T13:44:48Z</time>
      </trkpt>
      <trkpt lat="59.9663949" lon="17.7591485">
        <ele>23.209</ele>
        <time>2013-04-07T13:44:49Z</time>
      </trkpt>
      <trkpt lat="59.96645" lon="17.7590942">
        <ele>22.2476</ele>
        <time>2013-04-07T13:44:50Z</time>
      </trkpt>
      <trkpt lat="59.9664971" lon="17.7590326">
        <ele>22.2476</ele>
        <time>2013-04-07T13:44:51Z</time>
      </trkpt>
      <trkpt lat="59.9665489" lon="17.7589776">
        <ele>22.2476</ele>
        <time>2013-04-07T13:44:52Z</time>
      </trkpt>
      <trkpt lat="59.9665995" lon="17.7589278">
        <ele>22.2476</ele>
        <time>2013-04-07T13:44:53Z</time>
      </trkpt>
      <trkpt lat="59.9666524" lon="17.7588765">
        <ele>21.767</ele>
        <time>2013-04-07T13:44:54Z</time>
      </trkpt>
      <trkpt lat="59.9667062" lon="17.7588249">
        <ele>21.767</ele>
        <time>2013-04-07T13:44:55Z</time>
      </trkpt>
      <trkpt lat="59.9667743" lon="17.7587874">
        <ele>20.325</ele>
        <time>2013-04-07T13:44:56Z</time>
      </trkpt>
      <trkpt lat="59.9668209" lon="17.758731">
        <ele>21.2864</ele>
        <time>2013-04-07T13:44:57Z</time>
      </trkpt>
      <trkpt lat="59.9668647" lon="17.7586818">
        <ele>21.767</ele>
        <time>2013-04-07T13:44:58Z</time>
      </trkpt>
      <trkpt lat="59.9669124" lon="17.7586438">
        <ele>21.2864</ele>
        <time>2013-04-07T13:44:59Z</time>
      </trkpt>
      <trkpt lat="59.9669491" lon="17.7585859">
        <ele>21.767</ele>
        <time>2013-04-07T13:45:00Z</time>
      </trkpt>
      <trkpt lat="59.9669824" lon="17.7585264">
        <ele>22.7283</ele>
        <time>2013-04-07T13:45:01Z</time>
      </trkpt>
      <trkpt lat="59.9670147" lon="17.7584714">
        <ele>23.6896</ele>
        <time>2013-04-07T13:45:02Z</time>
      </trkpt>
      <trkpt lat="59.9670493" lon="17.758416">
        <ele>24.1703</ele>
        <time>2013-04-07T13:45:03Z</time>
      </trkpt>
      <trkpt lat="59.9670823" lon="17.7583544">
        <ele>25.1317</ele>
        <time>2013-04-07T13:45:04Z</time>
      </trkpt>
      <trkpt lat="59.9671063" lon="17.7582801">
        <ele>25.6123</ele>
        <time>2013-04-07T13:45:05Z</time>
      </trkpt>
      <trkpt lat="59.9671393" lon="17.758224">
        <ele>26.0929</ele>
        <time>2013-04-07T13:45:06Z</time>
      </trkpt>
      <trkpt lat="59.9671876" lon="17.758199">
        <ele>26.5736</ele>
        <time>2013-04-07T13:45:07Z</time>
      </trkpt>
      <trkpt lat="59.9672354" lon="17.7581789">
        <ele>27.5349</ele>
        <time>2013-04-07T13:45:08Z</time>
      </trkpt>
      <trkpt lat="59.9672819" lon="17.758169">
        <ele>28.9769</ele>
        <time>2013-04-07T13:45:09Z</time>
      </trkpt>
      <trkpt lat="59.9673299" lon="17.7581581">
        <ele>29.4575</ele>
        <time>2013-04-07T13:45:10Z</time>
      </trkpt>
      <trkpt lat="59.9673716" lon="17.758142">
        <ele>29.9381</ele>
        <time>2013-04-07T13:45:11Z</time>
      </trkpt>
      <trkpt lat="59.9674192" lon="17.7581233">
        <ele>29.9381</ele>
        <time>2013-04-07T13:45:12Z</time>
      </trkpt>
      <trkpt lat="59.9674679" lon="17.7580973">
        <ele>30.4188</ele>
        <time>2013-04-07T13:45:13Z</time>
      </trkpt>
      <trkpt lat="59.9675163" lon="17.7580626">
        <ele>30.8995</ele>
        <time>2013-04-07T13:45:14Z</time>
      </trkpt>
      <trkpt lat="59.9675679" lon="17.7580322">
        <ele>30.4188</ele>
        <time>2013-04-07T13:45:15Z</time>
      </trkpt>
      <trkpt lat="59.9676197" lon="17.7580047">
        <ele>30.4188</ele>
        <time>2013-04-07T13:45:16Z</time>
      </trkpt>
      <trkpt lat="59.9676725" lon="17.7579752">
        <ele>30.4188</ele>
        <time>2013-04-07T13:45:17Z</time>
      </trkpt>
      <trkpt lat="59.9677289" lon="17.7579492">
        <ele>29.9381</ele>
        <time>2013-04-07T13:45:18Z</time>
      </trkpt>
      <trkpt lat="59.9677855" lon="17.7579156">
        <ele>30.4188</ele>
        <time>2013-04-07T13:45:19Z</time>
      </trkpt>
      <trkpt lat="59.9678375" lon="17.7578762">
        <ele>30.8995</ele>
        <time>2013-04-07T13:45:20Z</time>
      </trkpt>
      <trkpt lat="59.9678771" lon="17.7578167">
        <ele>31.3801</ele>
        <time>2013-04-07T13:45:21Z</time>
      </trkpt>
      <trkpt lat="59.9679188" lon="17.7577645">
        <ele>31.3801</ele>
        <time>2013-04-07T13:45:22Z</time>
      </trkpt>
      <trkpt lat="59.9679614" lon="17.7577141">
        <ele>30.8995</ele>
        <time>2013-04-07T13:45:23Z</time>
      </trkpt>
      <trkpt lat="59.968003" lon="17.7576597">
        <ele>31.3801</ele>
        <time>2013-04-07T13:45:24Z</time>
      </trkpt>
      <trkpt lat="59.9680469" lon="17.7576138">
        <ele>31.8607</ele>
        <time>2013-04-07T13:45:25Z</time>
      </trkpt>
      <trkpt lat="59.968088" lon="17.7575713">
        <ele>31.8607</ele>
        <time>2013-04-07T13:45:26Z</time>
      </trkpt>
      <trkpt lat="59.9681287" lon="17.7575292">
        <ele>32.8223</ele>
        <time>2013-04-07T13:45:27Z</time>
      </trkpt>
      <trkpt lat="59.9681677" lon="17.7574851">
        <ele>31.8607</ele>
        <time>2013-04-07T13:45:28Z</time>
      </trkpt>
      <trkpt lat="59.9682061" lon="17.7574423">
        <ele>32.8223</ele>
        <time>2013-04-07T13:45:29Z</time>
      </trkpt>
      <trkpt lat="59.9682429" lon="17.7574011">
        <ele>32.8223</ele>
        <time>2013-04-07T13:45:30Z</time>
      </trkpt>
      <trkpt lat="59.968276" lon="17.7573514">
        <ele>33.3029</ele>
        <time>2013-04-07T13:45:31Z</time>
      </trkpt>
      <trkpt lat="59.9683085" lon="17.7572998">
        <ele>33.3029</ele>
        <time>2013-04-07T13:45:32Z</time>
      </trkpt>
      <trkpt lat="59.9683437" lon="17.7572541">
        <ele>33.3029</ele>
        <time>2013-04-07T13:45:33Z</time>
      </trkpt>
      <trkpt lat="59.9683816" lon="17.7572107">
        <ele>33.3029</ele>
        <time>2013-04-07T13:45:34Z</time>
      </trkpt>
      <trkpt lat="59.9684221" lon="17.7571685">
        <ele>32.8223</ele>
        <time>2013-04-07T13:45:35Z</time>
      </trkpt>
      <trkpt lat="59.9684547" lon="17.7571153">
        <ele>31.8607</ele>
        <time>2013-04-07T13:45:36Z</time>
      </trkpt>
      <trkpt lat="59.9684759" lon="17.7570644">
        <ele>30.4188</ele>
        <time>2013-04-07T13:45:37Z</time>
      </trkpt>
      <trkpt lat="59.968499" lon="17.7570096">
        <ele>29.9381</ele>
        <time>2013-04-07T13:45:38Z</time>
      </trkpt>
      <trkpt lat="59.9685304" lon="17.7569687">
        <ele>28.9769</ele>
        <time>2013-04-07T13:45:39Z</time>
      </trkpt>
      <trkpt lat="59.9685513" lon="17.7569128">
        <ele>27.5349</ele>
        <time>2013-04-07T13:45:40Z</time>
      </trkpt>
      <trkpt lat="59.9685767" lon="17.7568528">
        <ele>26.5736</ele>
        <time>2013-04-07T13:45:41Z</time>
      </trkpt>
      <trkpt lat="59.9686119" lon="17.7567977">
        <ele>27.5349</ele>
        <time>2013-04-07T13:45:42Z</time>
      </trkpt>
      <trkpt lat="59.9686479" lon="17.75675">
        <ele>28.9769</ele>
        <time>2013-04-07T13:45:43Z</time>
      </trkpt>
      <trkpt lat="59.9686847" lon="17.7567007">
        <ele>29.4575</ele>
        <time>2013-04-07T13:45:44Z</time>
      </trkpt>
      <trkpt lat="59.9687218" lon="17.7566486">
        <ele>29.4575</ele>
        <time>2013-04-07T13:45:45Z</time>
      </trkpt>
      <trkpt lat="59.9687587" lon="17.7565961">
        <ele>29.9381</ele>
        <time>2013-04-07T13:45:46Z</time>
      </trkpt>
      <trkpt lat="59.9687898" lon="17.7565393">
        <ele>30.4188</ele>
        <time>2013-04-07T13:45:47Z</time>
      </trkpt>
      <trkpt lat="59.9688265" lon="17.7564782">
        <ele>30.8995</ele>
        <time>2013-04-07T13:45:48Z</time>
      </trkpt>
      <trkpt lat="59.9688622" lon="17.756422">
        <ele>31.8607</ele>
        <time>2013-04-07T13:45:49Z</time>
      </trkpt>
      <trkpt lat="59.9688909" lon="17.7563619">
        <ele>31.8607</ele>
        <time>2013-04-07T13:45:50Z</time>
      </trkpt>
      <trkpt lat="59.9689214" lon="17.7562972">
        <ele>31.8607</ele>
        <time>2013-04-07T13:45:51Z</time>
      </trkpt>
      <trkpt lat="59.9689539" lon="17.7562319">
        <ele>31.3801</ele>
        <time>2013-04-07T13:45:52Z</time>
      </trkpt>
      <trkpt lat="59.9689859" lon="17.7561663">
        <ele>31.3801</ele>
        <time>2013-04-07T13:45:53Z</time>
      </trkpt>
      <trkpt lat="59.9690203" lon="17.7561047">
        <ele>31.3801</ele>
        <time>2013-04-07T13:45:54Z</time>
      </trkpt>
      <trkpt lat="59.9690504" lon="17.7560366">
        <ele>31.3801</ele>
        <time>2013-04-07T13:45:55Z</time>
      </trkpt>
      <trkpt lat="59.9690816" lon="17.7559704">
        <ele>30.8995</ele>
        <time>2013-04-07T13:45:56Z</time>
      </trkpt>
      <trkpt lat="59.9691119" lon="17.7559045">
        <ele>30.8995</ele>
        <time>2013-04-07T13:45:57Z</time>
      </trkpt>
      <trkpt lat="59.9691431" lon="17.7558452">
        <ele>29.9381</ele>
        <time>2013-04-07T13:45:58Z</time>
      </trkpt>
      <trkpt lat="59.9691726" lon="17.7557818">
        <ele>30.4188</ele>
        <time>2013-04-07T13:45:59Z</time>
      </trkpt>
      <trkpt lat="59.9692021" lon="17.7557191">
        <ele>30.8995</ele>
        <time>2013-04-07T13:46:00Z</time>
      </trkpt>
      <trkpt lat="59.9692313" lon="17.7556576">
        <ele>30.8995</ele>
        <time>2013-04-07T13:46:01Z</time>
      </trkpt>
      <trkpt lat="59.9692612" lon="17.755595">
        <ele>30.8995</ele>
        <time>2013-04-07T13:46:02Z</time>
      </trkpt>
      <trkpt lat="59.9692936" lon="17.7555316">
        <ele>31.3801</ele>
        <time>2013-04-07T13:46:03Z</time>
      </trkpt>
      <trkpt lat="59.9693255" lon="17.7554691">
        <ele>30.4188</ele>
        <time>2013-04-07T13:46:04Z</time>
      </trkpt>
      <trkpt lat="59.9693576" lon="17.7554007">
        <ele>29.9381</ele>
        <time>2013-04-07T13:46:05Z</time>
      </trkpt>
      <trkpt lat="59.9693902" lon="17.7553282">
        <ele>29.9381</ele>
        <time>2013-04-07T13:46:06Z</time>
      </trkpt>
      <trkpt lat="59.9694222" lon="17.755251">
        <ele>29.9381</ele>
        <time>2013-04-07T13:46:07Z</time>
      </trkpt>
      <trkpt lat="59.9694549" lon="17.7551752">
        <ele>29.4575</ele>
        <time>2013-04-07T13:46:08Z</time>
      </trkpt>
      <trkpt lat="59.9694874" lon="17.7551039">
        <ele>28.9769</ele>
        <time>2013-04-07T13:46:09Z</time>
      </trkpt>
      <trkpt lat="59.9695214" lon="17.755034">
        <ele>28.9769</ele>
        <time>2013-04-07T13:46:10Z</time>
      </trkpt>
      <trkpt lat="59.9695544" lon="17.7549641">
        <ele>28.4962</ele>
        <time>2013-04-07T13:46:11Z</time>
      </trkpt>
      <trkpt lat="59.9695875" lon="17.7548906">
        <ele>28.4962</ele>
        <time>2013-04-07T13:46:12Z</time>
      </trkpt>
      <trkpt lat="59.9696201" lon="17.7548215">
        <ele>27.5349</ele>
        <time>2013-04-07T13:46:13Z</time>
      </trkpt>
      <trkpt lat="59.9696547" lon="17.7547532">
        <ele>27.0543</ele>
        <time>2013-04-07T13:46:14Z</time>
      </trkpt>
      <trkpt lat="59.9696906" lon="17.7546856">
        <ele>26.5736</ele>
        <time>2013-04-07T13:46:15Z</time>
      </trkpt>
      <trkpt lat="59.9697258" lon="17.7546163">
        <ele>26.5736</ele>
        <time>2013-04-07T13:46:16Z</time>
      </trkpt>
      <trkpt lat="59.9697629" lon="17.7545408">
        <ele>27.5349</ele>
        <time>2013-04-07T13:46:17Z</time>
      </trkpt>
      <trkpt lat="59.9697999" lon="17.7544662">
        <ele>28.4962</ele>
        <time>2013-04-07T13:46:18Z</time>
      </trkpt>
      <trkpt lat="59.9698347" lon="17.7543932">
        <ele>28.4962</ele>
        <time>2013-04-07T13:46:19Z</time>
      </trkpt>
      <trkpt lat="59.9698702" lon="17.7543196">
        <ele>28.0155</ele>
        <time>2013-04-07T13:46:20Z</time>
      </trkpt>
      <trkpt lat="59.969907" lon="17.754244">
        <ele>28.4962</ele>
        <time>2013-04-07T13:46:21Z</time>
      </trkpt>
      <trkpt lat="59.9699446" lon="17.7541684">
        <ele>27.5349</ele>
        <time>2013-04-07T13:46:22Z</time>
      </trkpt>
      <trkpt lat="59.9699828" lon="17.7540938">
        <ele>26.5736</ele>
        <time>2013-04-07T13:46:23Z</time>
      </trkpt>
      <trkpt lat="59.9700221" lon="17.7540157">
        <ele>26.0929</ele>
        <time>2013-04-07T13:46:24Z</time>
      </trkpt>
      <trkpt lat="59.9700642" lon="17.7539385">
        <ele>26.0929</ele>
        <time>2013-04-07T13:46:25Z</time>
      </trkpt>
      <trkpt lat="59.9701066" lon="17.7538566">
        <ele>25.6123</ele>
        <time>2013-04-07T13:46:26Z</time>
      </trkpt>
      <trkpt lat="59.9701473" lon="17.75377">
        <ele>25.6123</ele>
        <time>2013-04-07T13:46:27Z</time>
      </trkpt>
      <trkpt lat="59.9701863" lon="17.7536799">
        <ele>25.6123</ele>
        <time>2013-04-07T13:46:28Z</time>
      </trkpt>
      <trkpt lat="59.9702227" lon="17.7535887">
        <ele>24.651</ele>
        <time>2013-04-07T13:46:29Z</time>
      </trkpt>
      <trkpt lat="59.9702635" lon="17.7534939">
        <ele>25.1317</ele>
        <time>2013-04-07T13:46:30Z</time>
      </trkpt>
      <trkpt lat="59.9703024" lon="17.753397">
        <ele>25.6123</ele>
        <time>2013-04-07T13:46:31Z</time>
      </trkpt>
      <trkpt lat="59.970344" lon="17.753306">
        <ele>26.0929</ele>
        <time>2013-04-07T13:46:32Z</time>
      </trkpt>
      <trkpt lat="59.9703846" lon="17.7532135">
        <ele>26.5736</ele>
        <time>2013-04-07T13:46:33Z</time>
      </trkpt>
      <trkpt lat="59.9704219" lon="17.7531181">
        <ele>26.5736</ele>
        <time>2013-04-07T13:46:34Z</time>
      </trkpt>
      <trkpt lat="59.9704547" lon="17.7530199">
        <ele>26.5736</ele>
        <time>2013-04-07T13:46:35Z</time>
      </trkpt>
      <trkpt lat="59.9704863" lon="17.7529282">
        <ele>25.6123</ele>
        <time>2013-04-07T13:46:36Z</time>
      </trkpt>
      <trkpt lat="59.9705315" lon="17.7527774">
        <ele>25.6123</ele>
        <time>2013-04-07T13:46:37Z</time>
      </trkpt>
      <trkpt lat="59.9705666" lon="17.7526682">
        <ele>25.6123</ele>
        <time>2013-04-07T13:46:38Z</time>
      </trkpt>
      <trkpt lat="59.9706043" lon="17.75259">
        <ele>25.6123</ele>
        <time>2013-04-07T13:46:39Z</time>
      </trkpt>
      <trkpt lat="59.9706454" lon="17.7525087">
        <ele>25.6123</ele>
        <time>2013-04-07T13:46:40Z</time>
      </trkpt>
      <trkpt lat="59.9706873" lon="17.7524536">
        <ele>25.1317</ele>
        <time>2013-04-07T13:46:41Z</time>
      </trkpt>
      <trkpt lat="59.9707236" lon="17.7523712">
        <ele>24.651</ele>
        <time>2013-04-07T13:46:42Z</time>
      </trkpt>
      <trkpt lat="59.9707567" lon="17.7522824">
        <ele>24.651</ele>
        <time>2013-04-07T13:46:43Z</time>
      </trkpt>
      <trkpt lat="59.9707904" lon="17.7521858">
        <ele>24.651</ele>
        <time>2013-04-07T13:46:44Z</time>
      </trkpt>
      <trkpt lat="59.9708328" lon="17.7521023">
        <ele>24.1703</ele>
        <time>2013-04-07T13:46:45Z</time>
      </trkpt>
      <trkpt lat="59.9708743" lon="17.7520229">
        <ele>24.1703</ele>
        <time>2013-04-07T13:46:46Z</time>
      </trkpt>
      <trkpt lat="59.9709158" lon="17.7519433">
        <ele>24.1703</ele>
        <time>2013-04-07T13:46:47Z</time>
      </trkpt>
      <trkpt lat="59.9709595" lon="17.7518688">
        <ele>24.1703</ele>
        <time>2013-04-07T13:46:48Z</time>
      </trkpt>
      <trkpt lat="59.9710011" lon="17.7517995">
        <ele>24.651</ele>
        <time>2013-04-07T13:46:49Z</time>
      </trkpt>
      <trkpt lat="59.9710431" lon="17.75173">
        <ele>24.1703</ele>
        <time>2013-04-07T13:46:50Z</time>
      </trkpt>
      <trkpt lat="59.9710837" lon="17.7516679">
        <ele>23.209</ele>
        <time>2013-04-07T13:46:51Z</time>
      </trkpt>
      <trkpt lat="59.9711271" lon="17.75161">
        <ele>22.2476</ele>
        <time>2013-04-07T13:46:52Z</time>
      </trkpt>
      <trkpt lat="59.9711763" lon="17.7515633">
        <ele>20.8057</ele>
        <time>2013-04-07T13:46:53Z</time>
      </trkpt>
      <trkpt lat="59.9712214" lon="17.7515196">
        <ele>18.8831</ele>
        <time>2013-04-07T13:46:54Z</time>
      </trkpt>
      <trkpt lat="59.9712649" lon="17.7514751">
        <ele>18.8831</ele>
        <time>2013-04-07T13:46:55Z</time>
      </trkpt>
      <trkpt lat="59.9713068" lon="17.7514344">
        <ele>18.8831</ele>
        <time>2013-04-07T13:46:56Z</time>
      </trkpt>
      <trkpt lat="59.9713478" lon="17.7514123">
        <ele>17.4412</ele>
        <time>2013-04-07T13:46:57Z</time>
      </trkpt>
      <trkpt lat="59.9713957" lon="17.7513968">
        <ele>16.9604</ele>
        <time>2013-04-07T13:46:58Z</time>
      </trkpt>
      <trkpt lat="59.9714513" lon="17.7513922">
        <ele>14.557</ele>
        <time>2013-04-07T13:46:59Z</time>
      </trkpt>
      <trkpt lat="59.9715069" lon="17.7513865">
        <ele>11.6732</ele>
        <time>2013-04-07T13:47:00Z</time>
      </trkpt>
      <trkpt lat="59.9715549" lon="17.7513654">
        <ele>9.2699</ele>
        <time>2013-04-07T13:47:01Z</time>
      </trkpt>
      <trkpt lat="59.9715998" lon="17.7513312">
        <ele>7.82788</ele>
        <time>2013-04-07T13:47:02Z</time>
      </trkpt>
      <trkpt lat="59.9716416" lon="17.7512902">
        <ele>7.34717</ele>
        <time>2013-04-07T13:47:03Z</time>
      </trkpt>
      <trkpt lat="59.971675" lon="17.751224">
        <ele>8.78918</ele>
        <time>2013-04-07T13:47:04Z</time>
      </trkpt>
      <trkpt lat="59.9717127" lon="17.7511627">
        <ele>8.78918</ele>
        <time>2013-04-07T13:47:05Z</time>
      </trkpt>
      <trkpt lat="59.9717535" lon="17.7511124">
        <ele>10.2312</ele>
        <time>2013-04-07T13:47:06Z</time>
      </trkpt>
      <trkpt lat="59.9717908" lon="17.7510541">
        <ele>11.6732</ele>
        <time>2013-04-07T13:47:07Z</time>
      </trkpt>
      <trkpt lat="59.9718288" lon="17.7509909">
        <ele>13.5958</ele>
        <time>2013-04-07T13:47:08Z</time>
      </trkpt>
      <trkpt lat="59.9718657" lon="17.7509252">
        <ele>15.5184</ele>
        <time>2013-04-07T13:47:09Z</time>
      </trkpt>
      <trkpt lat="59.9719011" lon="17.7508552">
        <ele>16.9604</ele>
        <time>2013-04-07T13:47:10Z</time>
      </trkpt>
      <trkpt lat="59.9719387" lon="17.7507894">
        <ele>17.9218</ele>
        <time>2013-04-07T13:47:11Z</time>
      </trkpt>
      <trkpt lat="59.9719739" lon="17.7507177">
        <ele>19.3638</ele>
        <time>2013-04-07T13:47:12Z</time>
      </trkpt>
      <trkpt lat="59.9720073" lon="17.7506426">
        <ele>20.325</ele>
        <time>2013-04-07T13:47:13Z</time>
      </trkpt>
      <trkpt lat="59.9720418" lon="17.7505719">
        <ele>19.3638</ele>
        <time>2013-04-07T13:47:14Z</time>
      </trkpt>
      <trkpt lat="59.9720791" lon="17.7505132">
        <ele>19.3638</ele>
        <time>2013-04-07T13:47:15Z</time>
      </trkpt>
      <trkpt lat="59.9721165" lon="17.750451">
        <ele>19.3638</ele>
        <time>2013-04-07T13:47:16Z</time>
      </trkpt>
      <trkpt lat="59.9721469" lon="17.7503782">
        <ele>19.3638</ele>
        <time>2013-04-07T13:47:17Z</time>
      </trkpt>
      <trkpt lat="59.9721766" lon="17.7503072">
        <ele>20.325</ele>
        <time>2013-04-07T13:47:18Z</time>
      </trkpt>
      <trkpt lat="59.9722054" lon="17.7502315">
        <ele>21.2864</ele>
        <time>2013-04-07T13:47:19Z</time>
      </trkpt>
      <trkpt lat="59.9722406" lon="17.7501565">
        <ele>22.2476</ele>
        <time>2013-04-07T13:47:20Z</time>
      </trkpt>
      <trkpt lat="59.9722698" lon="17.7500854">
        <ele>23.209</ele>
        <time>2013-04-07T13:47:21Z</time>
      </trkpt>
      <trkpt lat="59.9723019" lon="17.7500274">
        <ele>24.651</ele>
        <time>2013-04-07T13:47:22Z</time>
      </trkpt>
      <trkpt lat="59.9723376" lon="17.7499724">
        <ele>26.0929</ele>
        <time>2013-04-07T13:47:23Z</time>
      </trkpt>
      <trkpt lat="59.9723641" lon="17.7499091">
        <ele>25.6123</ele>
        <time>2013-04-07T13:47:24Z</time>
      </trkpt>
      <trkpt lat="59.9723882" lon="17.7498513">
        <ele>25.1317</ele>
        <time>2013-04-07T13:47:25Z</time>
      </trkpt>
      <trkpt lat="59.9724143" lon="17.7498026">
        <ele>25.6123</ele>
        <time>2013-04-07T13:47:26Z</time>
      </trkpt>
      <trkpt lat="59.9724392" lon="17.7497372">
        <ele>26.5736</ele>
        <time>2013-04-07T13:47:27Z</time>
      </trkpt>
      <trkpt lat="59.9724582" lon="17.7496694">
        <ele>25.6123</ele>
        <time>2013-04-07T13:47:28Z</time>
      </trkpt>
      <trkpt lat="59.9724759" lon="17.7496005">
        <ele>25.1317</ele>
        <time>2013-04-07T13:47:29Z</time>
      </trkpt>
      <trkpt lat="59.9724988" lon="17.7495249">
        <ele>24.651</ele>
        <time>2013-04-07T13:47:30Z</time>
      </trkpt>
      <trkpt lat="59.9725313" lon="17.7494538">
        <ele>27.0543</ele>
        <time>2013-04-07T13:47:31Z</time>
      </trkpt>
      <trkpt lat="59.9725572" lon="17.7493629">
        <ele>29.9381</ele>
        <time>2013-04-07T13:47:32Z</time>
      </trkpt>
      <trkpt lat="59.9725822" lon="17.7492916">
        <ele>28.9769</ele>
        <time>2013-04-07T13:47:33Z</time>
      </trkpt>
      <trkpt lat="59.9726127" lon="17.7492394">
        <ele>28.9769</ele>
        <time>2013-04-07T13:47:34Z</time>
      </trkpt>
      <trkpt lat="59.9726481" lon="17.7491725">
        <ele>28.4962</ele>
        <time>2013-04-07T13:47:35Z</time>
      </trkpt>
      <trkpt lat="59.9726762" lon="17.7491039">
        <ele>28.0155</ele>
        <time>2013-04-07T13:47:36Z</time>
      </trkpt>
      <trkpt lat="59.9727094" lon="17.7490194">
        <ele>28.0155</ele>
        <time>2013-04-07T13:47:37Z</time>
      </trkpt>
      <trkpt lat="59.9727446" lon="17.7489375">
        <ele>26.0929</ele>
        <time>2013-04-07T13:47:38Z</time>
      </trkpt>
      <trkpt lat="59.9727742" lon="17.7488468">
        <ele>25.1317</ele>
        <time>2013-04-07T13:47:39Z</time>
      </trkpt>
      <trkpt lat="59.972807" lon="17.7487572">
        <ele>23.6896</ele>
        <time>2013-04-07T13:47:40Z</time>
      </trkpt>
      <trkpt lat="59.9728412" lon="17.7486676">
        <ele>22.2476</ele>
        <time>2013-04-07T13:47:41Z</time>
      </trkpt>
      <trkpt lat="59.9728728" lon="17.7485861">
        <ele>20.8057</ele>
        <time>2013-04-07T13:47:42Z</time>
      </trkpt>
      <trkpt lat="59.9729068" lon="17.7484977">
        <ele>19.3638</ele>
        <time>2013-04-07T13:47:43Z</time>
      </trkpt>
      <trkpt lat="59.9729477" lon="17.7484164">
        <ele>17.4412</ele>
        <time>2013-04-07T13:47:44Z</time>
      </trkpt>
      <trkpt lat="59.972986" lon="17.7483216">
        <ele>17.9218</ele>
        <time>2013-04-07T13:47:45Z</time>
      </trkpt>
      <trkpt lat="59.9730301" lon="17.7482309">
        <ele>17.4412</ele>
        <time>2013-04-07T13:47:46Z</time>
      </trkpt>
      <trkpt lat="59.9730757" lon="17.7481494">
        <ele>17.4412</ele>
        <time>2013-04-07T13:47:47Z</time>
      </trkpt>
      <trkpt lat="59.9731157" lon="17.7480679">
        <ele>15.999</ele>
        <time>2013-04-07T13:47:48Z</time>
      </trkpt>
      <trkpt lat="59.9731566" lon="17.7479957">
        <ele>15.5184</ele>
        <time>2013-04-07T13:47:49Z</time>
      </trkpt>
      <trkpt lat="59.9731959" lon="17.7479253">
        <ele>13.5958</ele>
        <time>2013-04-07T13:47:50Z</time>
      </trkpt>
      <trkpt lat="59.9732354" lon="17.7478593">
        <ele>11.6732</ele>
        <time>2013-04-07T13:47:51Z</time>
      </trkpt>
      <trkpt lat="59.9732774" lon="17.7477974">
        <ele>10.2312</ele>
        <time>2013-04-07T13:47:52Z</time>
      </trkpt>
      <trkpt lat="59.9733219" lon="17.7477438">
        <ele>9.75061</ele>
        <time>2013-04-07T13:47:53Z</time>
      </trkpt>
      <trkpt lat="59.9733699" lon="17.7476979">
        <ele>9.2699</ele>
        <time>2013-04-07T13:47:54Z</time>
      </trkpt>
      <trkpt lat="59.9734136" lon="17.7476532">
        <ele>9.2699</ele>
        <time>2013-04-07T13:47:55Z</time>
      </trkpt>
      <trkpt lat="59.9734595" lon="17.7476105">
        <ele>9.2699</ele>
        <time>2013-04-07T13:47:56Z</time>
      </trkpt>
      <trkpt lat="59.9735043" lon="17.7475621">
        <ele>9.2699</ele>
        <time>2013-04-07T13:47:57Z</time>
      </trkpt>
      <trkpt lat="59.973547" lon="17.7475032">
        <ele>11.6732</ele>
        <time>2013-04-07T13:47:58Z</time>
      </trkpt>
      <trkpt lat="59.9735866" lon="17.7474564">
        <ele>12.6344</ele>
        <time>2013-04-07T13:47:59Z</time>
      </trkpt>
      <trkpt lat="59.973626" lon="17.7474146">
        <ele>13.1151</ele>
        <time>2013-04-07T13:48:00Z</time>
      </trkpt>
      <trkpt lat="59.9736632" lon="17.7473732">
        <ele>15.0377</ele>
        <time>2013-04-07T13:48:01Z</time>
      </trkpt>
      <trkpt lat="59.9737019" lon="17.7473336">
        <ele>16.9604</ele>
        <time>2013-04-07T13:48:02Z</time>
      </trkpt>
      <trkpt lat="59.973745" lon="17.7472908">
        <ele>18.4023</ele>
        <time>2013-04-07T13:48:03Z</time>
      </trkpt>
      <trkpt lat="59.9737854" lon="17.7472448">
        <ele>19.3638</ele>
        <time>2013-04-07T13:48:04Z</time>
      </trkpt>
      <trkpt lat="59.9738309" lon="17.7472018">
        <ele>21.2864</ele>
        <time>2013-04-07T13:48:05Z</time>
      </trkpt>
      <trkpt lat="59.9738744" lon="17.7471587">
        <ele>21.767</ele>
        <time>2013-04-07T13:48:06Z</time>
      </trkpt>
      <trkpt lat="59.9739165" lon="17.7471075">
        <ele>22.2476</ele>
        <time>2013-04-07T13:48:07Z</time>
      </trkpt>
      <trkpt lat="59.9739552" lon="17.7470577">
        <ele>22.2476</ele>
        <time>2013-04-07T13:48:08Z</time>
      </trkpt>
      <trkpt lat="59.9739952" lon="17.7470048">
        <ele>22.2476</ele>
        <time>2013-04-07T13:48:09Z</time>
      </trkpt>
      <trkpt lat="59.974041" lon="17.7469571">
        <ele>22.2476</ele>
        <time>2013-04-07T13:48:10Z</time>
      </trkpt>
      <trkpt lat="59.9740844" lon="17.7469064">
        <ele>21.767</ele>
        <time>2013-04-07T13:48:11Z</time>
      </trkpt>
      <trkpt lat="59.974128" lon="17.7468537">
        <ele>21.767</ele>
        <time>2013-04-07T13:48:12Z</time>
      </trkpt>
      <trkpt lat="59.9741733" lon="17.7467984">
        <ele>21.767</ele>
        <time>2013-04-07T13:48:13Z</time>
      </trkpt>
      <trkpt lat="59.9742174" lon="17.7467433">
        <ele>21.767</ele>
        <time>2013-04-07T13:48:14Z</time>
      </trkpt>
      <trkpt lat="59.9742611" lon="17.7466893">
        <ele>21.767</ele>
        <time>2013-04-07T13:48:15Z</time>
      </trkpt>
      <trkpt lat="59.9743023" lon="17.746633">
        <ele>21.2864</ele>
        <time>2013-04-07T13:48:16Z</time>
      </trkpt>
      <trkpt lat="59.9743473" lon="17.7465779">
        <ele>21.767</ele>
        <time>2013-04-07T13:48:17Z</time>
      </trkpt>
      <trkpt lat="59.9743894" lon="17.7465225">
        <ele>22.2476</ele>
        <time>2013-04-07T13:48:18Z</time>
      </trkpt>
      <trkpt lat="59.9744341" lon="17.746467">
        <ele>22.7283</ele>
        <time>2013-04-07T13:48:19Z</time>
      </trkpt>
      <trkpt lat="59.9744733" lon="17.7464094">
        <ele>22.7283</ele>
        <time>2013-04-07T13:48:20Z</time>
      </trkpt>
      <trkpt lat="59.9745138" lon="17.746353">
        <ele>23.209</ele>
        <time>2013-04-07T13:48:21Z</time>
      </trkpt>
      <trkpt lat="59.9745548" lon="17.7463043">
        <ele>23.6896</ele>
        <time>2013-04-07T13:48:22Z</time>
      </trkpt>
      <trkpt lat="59.9745967" lon="17.7462546">
        <ele>24.1703</ele>
        <time>2013-04-07T13:48:23Z</time>
      </trkpt>
      <trkpt lat="59.9746325" lon="17.7461979">
        <ele>25.1317</ele>
        <time>2013-04-07T13:48:24Z</time>
      </trkpt>
      <trkpt lat="59.9746671" lon="17.7461308">
        <ele>26.5736</ele>
        <time>2013-04-07T13:48:25Z</time>
      </trkpt>
      <trkpt lat="59.974703" lon="17.7460634">
        <ele>27.5349</ele>
        <time>2013-04-07T13:48:26Z</time>
      </trkpt>
      <trkpt lat="59.9747397" lon="17.7460007">
        <ele>27.5349</ele>
        <time>2013-04-07T13:48:27Z</time>
      </trkpt>
      <trkpt lat="59.9747796" lon="17.7459356">
        <ele>28.0155</ele>
        <time>2013-04-07T13:48:28Z</time>
      </trkpt>
      <trkpt lat="59.9748198" lon="17.7458681">
        <ele>28.9769</ele>
        <time>2013-04-07T13:48:29Z</time>
      </trkpt>
      <trkpt lat="59.9748567" lon="17.7457919">
        <ele>29.4575</ele>
        <time>2013-04-07T13:48:30Z</time>
      </trkpt>
      <trkpt lat="59.9748919" lon="17.7457089">
        <ele>30.4188</ele>
        <time>2013-04-07T13:48:31Z</time>
      </trkpt>
      <trkpt lat="59.9749257" lon="17.7456229">
        <ele>29.9381</ele>
        <time>2013-04-07T13:48:32Z</time>
      </trkpt>
      <trkpt lat="59.9749598" lon="17.7455326">
        <ele>29.4575</ele>
        <time>2013-04-07T13:48:33Z</time>
      </trkpt>
      <trkpt lat="59.9749954" lon="17.7454378">
        <ele>28.9769</ele>
        <time>2013-04-07T13:48:34Z</time>
      </trkpt>
      <trkpt lat="59.9750318" lon="17.745341">
        <ele>28.9769</ele>
        <time>2013-04-07T13:48:35Z</time>
      </trkpt>
      <trkpt lat="59.9750682" lon="17.7452374">
        <ele>28.9769</ele>
        <time>2013-04-07T13:48:36Z</time>
      </trkpt>
      <trkpt lat="59.9751033" lon="17.7451318">
        <ele>29.4575</ele>
        <time>2013-04-07T13:48:37Z</time>
      </trkpt>
      <trkpt lat="59.9751366" lon="17.7450203">
        <ele>30.4188</ele>
        <time>2013-04-07T13:48:38Z</time>
      </trkpt>
      <trkpt lat="59.9751717" lon="17.7449088">
        <ele>30.4188</ele>
        <time>2013-04-07T13:48:39Z</time>
      </trkpt>
      <trkpt lat="59.9752059" lon="17.744792">
        <ele>30.4188</ele>
        <time>2013-04-07T13:48:40Z</time>
      </trkpt>
      <trkpt lat="59.9752385" lon="17.7446775">
        <ele>30.4188</ele>
        <time>2013-04-07T13:48:41Z</time>
      </trkpt>
      <trkpt lat="59.9752686" lon="17.7445603">
        <ele>30.8995</ele>
        <time>2013-04-07T13:48:42Z</time>
      </trkpt>
      <trkpt lat="59.9752971" lon="17.744447">
        <ele>31.8607</ele>
        <time>2013-04-07T13:48:43Z</time>
      </trkpt>
      <trkpt lat="59.9753219" lon="17.744333">
        <ele>32.8223</ele>
        <time>2013-04-07T13:48:44Z</time>
      </trkpt>
      <trkpt lat="59.9753443" lon="17.74422">
        <ele>33.7834</ele>
        <time>2013-04-07T13:48:45Z</time>
      </trkpt>
      <trkpt lat="59.9753669" lon="17.7441079">
        <ele>34.2642</ele>
        <time>2013-04-07T13:48:46Z</time>
      </trkpt>
      <trkpt lat="59.975387" lon="17.743992">
        <ele>34.7449</ele>
        <time>2013-04-07T13:48:47Z</time>
      </trkpt>
      <trkpt lat="59.9754074" lon="17.7438759">
        <ele>35.2255</ele>
        <time>2013-04-07T13:48:48Z</time>
      </trkpt>
      <trkpt lat="59.9754286" lon="17.7437604">
        <ele>35.7061</ele>
        <time>2013-04-07T13:48:49Z</time>
      </trkpt>
      <trkpt lat="59.9754499" lon="17.7436449">
        <ele>36.1868</ele>
        <time>2013-04-07T13:48:50Z</time>
      </trkpt>
      <trkpt lat="59.9754706" lon="17.743529">
        <ele>36.6675</ele>
        <time>2013-04-07T13:48:51Z</time>
      </trkpt>
      <trkpt lat="59.9754913" lon="17.7434146">
        <ele>37.6287</ele>
        <time>2013-04-07T13:48:52Z</time>
      </trkpt>
      <trkpt lat="59.9755125" lon="17.7432998">
        <ele>37.6287</ele>
        <time>2013-04-07T13:48:53Z</time>
      </trkpt>
      <trkpt lat="59.9755383" lon="17.7431926">
        <ele>37.6287</ele>
        <time>2013-04-07T13:48:54Z</time>
      </trkpt>
      <trkpt lat="59.9755649" lon="17.7430838">
        <ele>38.1094</ele>
        <time>2013-04-07T13:48:55Z</time>
      </trkpt>
      <trkpt lat="59.9755919" lon="17.7429772">
        <ele>39.0707</ele>
        <time>2013-04-07T13:48:56Z</time>
      </trkpt>
      <trkpt lat="59.9756185" lon="17.7428693">
        <ele>39.5513</ele>
        <time>2013-04-07T13:48:57Z</time>
      </trkpt>
      <trkpt lat="59.9756432" lon="17.7427533">
        <ele>39.0707</ele>
        <time>2013-04-07T13:48:58Z</time>
      </trkpt>
      <trkpt lat="59.975669" lon="17.7426398">
        <ele>38.1094</ele>
        <time>2013-04-07T13:48:59Z</time>
      </trkpt>
      <trkpt lat="59.9756938" lon="17.7425264">
        <ele>37.1481</ele>
        <time>2013-04-07T13:49:00Z</time>
      </trkpt>
      <trkpt lat="59.9757171" lon="17.7424101">
        <ele>36.1868</ele>
        <time>2013-04-07T13:49:01Z</time>
      </trkpt>
      <trkpt lat="59.9757415" lon="17.7422938">
        <ele>35.2255</ele>
        <time>2013-04-07T13:49:02Z</time>
      </trkpt>
      <trkpt lat="59.9757675" lon="17.7421762">
        <ele>34.7449</ele>
        <time>2013-04-07T13:49:03Z</time>
      </trkpt>
      <trkpt lat="59.9757943" lon="17.7420576">
        <ele>34.2642</ele>
        <time>2013-04-07T13:49:04Z</time>
      </trkpt>
      <trkpt lat="59.9758228" lon="17.7419416">
        <ele>33.7834</ele>
        <time>2013-04-07T13:49:05Z</time>
      </trkpt>
      <trkpt lat="59.9758508" lon="17.7418237">
        <ele>33.7834</ele>
        <time>2013-04-07T13:49:06Z</time>
      </trkpt>
      <trkpt lat="59.9758798" lon="17.7417065">
        <ele>33.3029</ele>
        <time>2013-04-07T13:49:07Z</time>
      </trkpt>
      <trkpt lat="59.9759107" lon="17.7415872">
        <ele>33.3029</ele>
        <time>2013-04-07T13:49:08Z</time>
      </trkpt>
      <trkpt lat="59.9759402" lon="17.7414648">
        <ele>33.3029</ele>
        <time>2013-04-07T13:49:09Z</time>
      </trkpt>
      <trkpt lat="59.9759713" lon="17.7413445">
        <ele>33.3029</ele>
        <time>2013-04-07T13:49:10Z</time>
      </trkpt>
      <trkpt lat="59.9760047" lon="17.7412249">
        <ele>32.8223</ele>
        <time>2013-04-07T13:49:11Z</time>
      </trkpt>
      <trkpt lat="59.9760376" lon="17.741103">
        <ele>33.3029</ele>
        <time>2013-04-07T13:49:12Z</time>
      </trkpt>
      <trkpt lat="59.97607" lon="17.7409823">
        <ele>33.3029</ele>
        <time>2013-04-07T13:49:13Z</time>
      </trkpt>
      <trkpt lat="59.9761035" lon="17.7408631">
        <ele>33.7834</ele>
        <time>2013-04-07T13:49:14Z</time>
      </trkpt>
      <trkpt lat="59.9761376" lon="17.7407442">
        <ele>33.7834</ele>
        <time>2013-04-07T13:49:15Z</time>
      </trkpt>
      <trkpt lat="59.9761709" lon="17.7406259">
        <ele>33.7834</ele>
        <time>2013-04-07T13:49:16Z</time>
      </trkpt>
      <trkpt lat="59.9762051" lon="17.7405089">
        <ele>33.7834</ele>
        <time>2013-04-07T13:49:17Z</time>
      </trkpt>
      <trkpt lat="59.9762429" lon="17.7403964">
        <ele>33.7834</ele>
        <time>2013-04-07T13:49:18Z</time>
      </trkpt>
      <trkpt lat="59.9762818" lon="17.7402862">
        <ele>33.7834</ele>
        <time>2013-04-07T13:49:19Z</time>
      </trkpt>
      <trkpt lat="59.9763194" lon="17.7401739">
        <ele>34.2642</ele>
        <time>2013-04-07T13:49:20Z</time>
      </trkpt>
      <trkpt lat="59.9763554" lon="17.7400584">
        <ele>34.2642</ele>
        <time>2013-04-07T13:49:21Z</time>
      </trkpt>
      <trkpt lat="59.9763925" lon="17.7399412">
        <ele>34.7449</ele>
        <time>2013-04-07T13:49:22Z</time>
      </trkpt>
      <trkpt lat="59.9764325" lon="17.739825">
        <ele>35.2255</ele>
        <time>2013-04-07T13:49:23Z</time>
      </trkpt>
      <trkpt lat="59.9764756" lon="17.7397126">
        <ele>34.7449</ele>
        <time>2013-04-07T13:49:24Z</time>
      </trkpt>
      <trkpt lat="59.9765252" lon="17.7396126">
        <ele>34.7449</ele>
        <time>2013-04-07T13:49:25Z</time>
      </trkpt>
      <trkpt lat="59.9765815" lon="17.7395293">
        <ele>34.7449</ele>
        <time>2013-04-07T13:49:26Z</time>
      </trkpt>
      <trkpt lat="59.9766416" lon="17.739462">
        <ele>34.7449</ele>
        <time>2013-04-07T13:49:27Z</time>
      </trkpt>
      <trkpt lat="59.9767024" lon="17.7394092">
        <ele>34.7449</ele>
        <time>2013-04-07T13:49:28Z</time>
      </trkpt>
      <trkpt lat="59.9767616" lon="17.7393677">
        <ele>34.2642</ele>
        <time>2013-04-07T13:49:29Z</time>
      </trkpt>
      <trkpt lat="59.9768173" lon="17.7393383">
        <ele>34.2642</ele>
        <time>2013-04-07T13:49:30Z</time>
      </trkpt>
      <trkpt lat="59.9768687" lon="17.7393145">
        <ele>34.2642</ele>
        <time>2013-04-07T13:49:31Z</time>
      </trkpt>
      <trkpt lat="59.9769162" lon="17.7392977">
        <ele>34.2642</ele>
        <time>2013-04-07T13:49:32Z</time>
      </trkpt>
      <trkpt lat="59.9769625" lon="17.7392858">
        <ele>34.2642</ele>
        <time>2013-04-07T13:49:33Z</time>
      </trkpt>
      <trkpt lat="59.9770075" lon="17.739272">
        <ele>34.7449</ele>
        <time>2013-04-07T13:49:34Z</time>
      </trkpt>
      <trkpt lat="59.9770506" lon="17.7392606">
        <ele>35.2255</ele>
        <time>2013-04-07T13:49:35Z</time>
      </trkpt>
      <trkpt lat="59.9770919" lon="17.7392451">
        <ele>35.2255</ele>
        <time>2013-04-07T13:49:36Z</time>
      </trkpt>
      <trkpt lat="59.9771318" lon="17.7392258">
        <ele>34.7449</ele>
        <time>2013-04-07T13:49:37Z</time>
      </trkpt>
      <trkpt lat="59.9771721" lon="17.7392062">
        <ele>34.7449</ele>
        <time>2013-04-07T13:49:38Z</time>
      </trkpt>
      <trkpt lat="59.977212" lon="17.7391868">
        <ele>34.2642</ele>
        <time>2013-04-07T13:49:39Z</time>
      </trkpt>
      <trkpt lat="59.9772523" lon="17.7391682">
        <ele>34.7449</ele>
        <time>2013-04-07T13:49:40Z</time>
      </trkpt>
      <trkpt lat="59.9772905" lon="17.7391496">
        <ele>34.7449</ele>
        <time>2013-04-07T13:49:41Z</time>
      </trkpt>
      <trkpt lat="59.977327" lon="17.7391295">
        <ele>35.2255</ele>
        <time>2013-04-07T13:49:42Z</time>
      </trkpt>
      <trkpt lat="59.9773624" lon="17.7391057">
        <ele>35.7061</ele>
        <time>2013-04-07T13:49:43Z</time>
      </trkpt>
      <trkpt lat="59.9773972" lon="17.7390859">
        <ele>36.1868</ele>
        <time>2013-04-07T13:49:44Z</time>
      </trkpt>
      <trkpt lat="59.9774319" lon="17.7390658">
        <ele>36.6675</ele>
        <time>2013-04-07T13:49:45Z</time>
      </trkpt>
      <trkpt lat="59.9774658" lon="17.7390477">
        <ele>36.6675</ele>
        <time>2013-04-07T13:49:46Z</time>
      </trkpt>
      <trkpt lat="59.9774976" lon="17.7390336">
        <ele>36.6675</ele>
        <time>2013-04-07T13:49:47Z</time>
      </trkpt>
      <trkpt lat="59.9775284" lon="17.7390236">
        <ele>36.6675</ele>
        <time>2013-04-07T13:49:48Z</time>
      </trkpt>
      <trkpt lat="59.9775588" lon="17.7390149">
        <ele>37.6287</ele>
        <time>2013-04-07T13:49:49Z</time>
      </trkpt>
      <trkpt lat="59.977589" lon="17.7390061">
        <ele>37.6287</ele>
        <time>2013-04-07T13:49:50Z</time>
      </trkpt>
      <trkpt lat="59.9776131" lon="17.7390036">
        <ele>37.1481</ele>
        <time>2013-04-07T13:49:51Z</time>
      </trkpt>
      <trkpt lat="59.9776424" lon="17.7390005">
        <ele>37.6287</ele>
        <time>2013-04-07T13:49:52Z</time>
      </trkpt>
      <trkpt lat="59.9776724" lon="17.7390005">
        <ele>38.1094</ele>
        <time>2013-04-07T13:49:53Z</time>
      </trkpt>
      <trkpt lat="59.977702" lon="17.7390047">
        <ele>38.5901</ele>
        <time>2013-04-07T13:49:54Z</time>
      </trkpt>
      <trkpt lat="59.9777312" lon="17.7390081">
        <ele>39.0707</ele>
        <time>2013-04-07T13:49:55Z</time>
      </trkpt>
      <trkpt lat="59.9777581" lon="17.7390167">
        <ele>39.5513</ele>
        <time>2013-04-07T13:49:56Z</time>
      </trkpt>
      <trkpt lat="59.9777865" lon="17.739025">
        <ele>40.0321</ele>
        <time>2013-04-07T13:49:57Z</time>
      </trkpt>
      <trkpt lat="59.9778151" lon="17.7390341">
        <ele>40.5128</ele>
        <time>2013-04-07T13:49:58Z</time>
      </trkpt>
      <trkpt lat="59.9778431" lon="17.7390452">
        <ele>40.9934</ele>
        <time>2013-04-07T13:49:59Z</time>
      </trkpt>
      <trkpt lat="59.9778705" lon="17.7390607">
        <ele>41.474</ele>
        <time>2013-04-07T13:50:00Z</time>
      </trkpt>
      <trkpt lat="59.9778994" lon="17.7390745">
        <ele>41.9547</ele>
        <time>2013-04-07T13:50:01Z</time>
      </trkpt>
      <trkpt lat="59.9779273" lon="17.7390938">
        <ele>41.9547</ele>
        <time>2013-04-07T13:50:02Z</time>
      </trkpt>
      <trkpt lat="59.9779544" lon="17.7391181">
        <ele>42.4354</ele>
        <time>2013-04-07T13:50:03Z</time>
      </trkpt>
      <trkpt lat="59.9779824" lon="17.7391461">
        <ele>42.4354</ele>
        <time>2013-04-07T13:50:04Z</time>
      </trkpt>
      <trkpt lat="59.9780131" lon="17.7391715">
        <ele>41.9547</ele>
        <time>2013-04-07T13:50:05Z</time>
      </trkpt>
      <trkpt lat="59.9780466" lon="17.7391959">
        <ele>41.9547</ele>
        <time>2013-04-07T13:50:06Z</time>
      </trkpt>
      <trkpt lat="59.9780817" lon="17.7392194">
        <ele>41.9547</ele>
        <time>2013-04-07T13:50:07Z</time>
      </trkpt>
      <trkpt lat="59.9781177" lon="17.7392353">
        <ele>41.474</ele>
        <time>2013-04-07T13:50:08Z</time>
      </trkpt>
      <trkpt lat="59.9781537" lon="17.7392486">
        <ele>41.474</ele>
        <time>2013-04-07T13:50:09Z</time>
      </trkpt>
      <trkpt lat="59.9781877" lon="17.7392698">
        <ele>41.474</ele>
        <time>2013-04-07T13:50:10Z</time>
      </trkpt>
      <trkpt lat="59.9782224" lon="17.7392838">
        <ele>40.9934</ele>
        <time>2013-04-07T13:50:11Z</time>
      </trkpt>
      <trkpt lat="59.9782627" lon="17.7392932">
        <ele>40.5128</ele>
        <time>2013-04-07T13:50:12Z</time>
      </trkpt>
      <trkpt lat="59.9783024" lon="17.7393035">
        <ele>40.5128</ele>
        <time>2013-04-07T13:50:13Z</time>
      </trkpt>
      <trkpt lat="59.9783407" lon="17.7393181">
        <ele>40.0321</ele>
        <time>2013-04-07T13:50:14Z</time>
      </trkpt>
      <trkpt lat="59.9783787" lon="17.7393263">
        <ele>39.5513</ele>
        <time>2013-04-07T13:50:15Z</time>
      </trkpt>
      <trkpt lat="59.9784163" lon="17.7393293">
        <ele>39.0707</ele>
        <time>2013-04-07T13:50:16Z</time>
      </trkpt>
      <trkpt lat="59.9784542" lon="17.7393341">
        <ele>39.0707</ele>
        <time>2013-04-07T13:50:17Z</time>
      </trkpt>
      <trkpt lat="59.9784906" lon="17.7393481">
        <ele>38.5901</ele>
        <time>2013-04-07T13:50:18Z</time>
      </trkpt>
      <trkpt lat="59.9785285" lon="17.7393555">
        <ele>38.1094</ele>
        <time>2013-04-07T13:50:19Z</time>
      </trkpt>
      <trkpt lat="59.9785657" lon="17.7393595">
        <ele>37.6287</ele>
        <time>2013-04-07T13:50:20Z</time>
      </trkpt>
      <trkpt lat="59.9786017" lon="17.7393642">
        <ele>37.1481</ele>
        <time>2013-04-07T13:50:21Z</time>
      </trkpt>
      <trkpt lat="59.9786408" lon="17.7393647">
        <ele>36.1868</ele>
        <time>2013-04-07T13:50:22Z</time>
      </trkpt>
      <trkpt lat="59.9786806" lon="17.7393671">
        <ele>35.7061</ele>
        <time>2013-04-07T13:50:23Z</time>
      </trkpt>
      <trkpt lat="59.9787185" lon="17.73937">
        <ele>35.2255</ele>
        <time>2013-04-07T13:50:24Z</time>
      </trkpt>
      <trkpt lat="59.9787566" lon="17.7393689">
        <ele>35.2255</ele>
        <time>2013-04-07T13:50:25Z</time>
      </trkpt>
    </trkseg>
  </trk>
</gpx>